<?xml version='1.0' encoding='UTF-8'?><gpx version="1.1" creator="JPX - https://github.com/jenetics/jpx" xmlns="http://www.topografix.com/GPX/1/1"><trk><trkseg><trkpt lat="45.94598459575168" lon="12.796364348239262"><ele>30.0</ele><time>2026-04-02T14:54:57.96Z</time></trkpt><trkpt lat="45.94593984708209" lon="12.796435941905203"><ele>30.0</ele><time>2026-04-02T14:55:05Z</time></trkpt><trkpt lat="45.94594469105443" lon="12.7963378898349"><ele>30.0</ele><time>2026-04-02T14:56:09Z</time></trkpt><trkpt lat="45.94590394020981" lon="12.796249064779312"><ele>30.0</ele><time>2026-04-02T14:56:12.999Z</time></trkpt><trkpt lat="45.94580956970435" lon="12.796252524129075"><ele>30.0</ele><time>2026-04-02T14:56:14.999Z</time></trkpt><trkpt lat="45.94569410072582" lon="12.796243563913794"><ele>30.0</ele><time>2026-04-02T14:56:16.999Z</time></trkpt><trkpt lat="45.94563082530671" lon="12.796226928942009"><ele>30.142857142857146</ele><time>2026-04-02T14:56:17.999Z</time></trkpt><trkpt lat="45.94557601186768" lon="12.796174555759258"><ele>30.285714285714285</ele><time>2026-04-02T14:56:18.999Z</time></trkpt><trkpt lat="45.94551119550273" lon="12.796147376287804"><ele>30.42857142857143</ele><time>2026-04-02T14:56:19.999Z</time></trkpt><trkpt lat="45.94544120364781" lon="12.796139825130323"><ele>30.571428571428573</ele><time>2026-04-02T14:56:20.999Z</time></trkpt><trkpt lat="45.94537269740085" lon="12.796107789801615"><ele>30.714285714285715</ele><time>2026-04-02T14:56:21.999Z</time></trkpt><trkpt lat="45.94530450673435" lon="12.796074635287706"><ele>30.857142857142858</ele><time>2026-04-02T14:56:22.999Z</time></trkpt><trkpt lat="45.945237840673705" lon="12.796042002280743"><ele>31.0</ele><time>2026-04-02T14:56:23.999Z</time></trkpt><trkpt lat="45.94517697185424" lon="12.795986785153575"><ele>31.0</ele><time>2026-04-02T14:56:24.999Z</time></trkpt><trkpt lat="45.94511082040219" lon="12.795953040423148"><ele>31.000000000000004</ele><time>2026-04-02T14:56:25.999Z</time></trkpt><trkpt lat="45.94504341951844" lon="12.79591865833413"><ele>31.0</ele><time>2026-04-02T14:56:26.999Z</time></trkpt><trkpt lat="45.9449762373826" lon="12.795883863021283"><ele>31.0</ele><time>2026-04-02T14:56:27.999Z</time></trkpt><trkpt lat="45.9449121112409" lon="12.795849280344935"><ele>31.000000000000004</ele><time>2026-04-02T14:56:28.999Z</time></trkpt><trkpt lat="45.9448456816535" lon="12.795807225820829"><ele>31.0</ele><time>2026-04-02T14:56:29.999Z</time></trkpt><trkpt lat="45.94478215646656" lon="12.795755586500523"><ele>31.0</ele><time>2026-04-02T14:56:30.999Z</time></trkpt><trkpt lat="45.94472222532307" lon="12.795695918063132"><ele>31.000000000000004</ele><time>2026-04-02T14:56:31.999Z</time></trkpt><trkpt lat="45.944669835834326" lon="12.795638528503641"><ele>31.0</ele><time>2026-04-02T14:56:32.999Z</time></trkpt><trkpt lat="45.94460750313488" lon="12.795566954689557"><ele>31.0</ele><time>2026-04-02T14:56:33.999Z</time></trkpt><trkpt lat="45.94455022850227" lon="12.795500148676032"><ele>31.0</ele><time>2026-04-02T14:56:34.999Z</time></trkpt><trkpt lat="45.94449220444435" lon="12.795432468394733"><ele>31.000000000000004</ele><time>2026-04-02T14:56:35.999Z</time></trkpt><trkpt lat="45.944433599226095" lon="12.795364110263407"><ele>31.0</ele><time>2026-04-02T14:56:36.999Z</time></trkpt><trkpt lat="45.94436939688957" lon="12.795291203042765"><ele>31.000000000000004</ele><time>2026-04-02T14:56:37.999Z</time></trkpt><trkpt lat="45.9443075945671" lon="12.795224305322083"><ele>31.0</ele><time>2026-04-02T14:56:38.999Z</time></trkpt><trkpt lat="45.94424664704584" lon="12.795157587482016"><ele>31.0</ele><time>2026-04-02T14:56:39.999Z</time></trkpt><trkpt lat="45.944180166217905" lon="12.795084139455065"><ele>31.0</ele><time>2026-04-02T14:56:40.999Z</time></trkpt><trkpt lat="45.944111497752324" lon="12.795007131307981"><ele>31.000000000000004</ele><time>2026-04-02T14:56:41.999Z</time></trkpt><trkpt lat="45.94404458633025" lon="12.794931454529804"><ele>31.0</ele><time>2026-04-02T14:56:42.999Z</time></trkpt><trkpt lat="45.943976217317754" lon="12.794854129296798"><ele>31.0</ele><time>2026-04-02T14:56:43.999Z</time></trkpt><trkpt lat="45.94390448546392" lon="12.794773374680673"><ele>31.0</ele><time>2026-04-02T14:56:44.999Z</time></trkpt><trkpt lat="45.94383253398732" lon="12.794693386901264"><ele>31.0</ele><time>2026-04-02T14:56:45.999Z</time></trkpt><trkpt lat="45.943757936833954" lon="12.794610457961017"><ele>31.0</ele><time>2026-04-02T14:56:46.999Z</time></trkpt><trkpt lat="45.94368243872663" lon="12.794526527334614"><ele>31.0</ele><time>2026-04-02T14:56:47.999Z</time></trkpt><trkpt lat="45.943617977342264" lon="12.794454866360544"><ele>31.000000000000004</ele><time>2026-04-02T14:56:48.999Z</time></trkpt><trkpt lat="45.94354976152173" lon="12.794379031416053"><ele>31.0</ele><time>2026-04-02T14:56:49.999Z</time></trkpt><trkpt lat="45.94348700898747" lon="12.794309854746814"><ele>31.0</ele><time>2026-04-02T14:56:50.999Z</time></trkpt><trkpt lat="45.943425739622896" lon="12.794242801435086"><ele>31.0</ele><time>2026-04-02T14:56:51.999Z</time></trkpt><trkpt lat="45.94336127326878" lon="12.794172249331668"><ele>31.000000000000004</ele><time>2026-04-02T14:56:52.999Z</time></trkpt><trkpt lat="45.9432895442931" lon="12.794093749001314"><ele>31.0</ele><time>2026-04-02T14:56:53.999Z</time></trkpt><trkpt lat="45.94319082107097" lon="12.794055723857502"><ele>30.6</ele><time>2026-04-02T14:56:54.999Z</time></trkpt><trkpt lat="45.94309661103919" lon="12.793986057334449"><ele>30.200000000000003</ele><time>2026-04-02T14:56:55.999Z</time></trkpt><trkpt lat="45.94301242235092" lon="12.793903134463887"><ele>29.799999999999997</ele><time>2026-04-02T14:56:56.999Z</time></trkpt><trkpt lat="45.942937334386976" lon="12.793797276991164"><ele>29.4</ele><time>2026-04-02T14:56:57.999Z</time></trkpt><trkpt lat="45.94286915886007" lon="12.793664506094125"><ele>29.0</ele><time>2026-04-02T14:56:58.999Z</time></trkpt><trkpt lat="45.942800784510595" lon="12.793517056546069"><ele>28.25</ele><time>2026-04-02T14:56:59.999Z</time></trkpt><trkpt lat="45.94273233868477" lon="12.793363313007262"><ele>27.5</ele><time>2026-04-02T14:57:00.999Z</time></trkpt><trkpt lat="45.942664315591436" lon="12.793216770429353"><ele>26.75</ele><time>2026-04-02T14:57:01.999Z</time></trkpt><trkpt lat="45.94260123446395" lon="12.793072785499618"><ele>26.0</ele><time>2026-04-02T14:57:02.999Z</time></trkpt><trkpt lat="45.9425305649131" lon="12.792941111814047"><ele>26.0</ele><time>2026-04-02T14:57:03.999Z</time></trkpt><trkpt lat="45.942447627866855" lon="12.792831688502867"><ele>26.0</ele><time>2026-04-02T14:57:04.999Z</time></trkpt><trkpt lat="45.94236043665933" lon="12.792727806015405"><ele>26.0</ele><time>2026-04-02T14:57:05.999Z</time></trkpt><trkpt lat="45.94227565478767" lon="12.792627837122565"><ele>26.0</ele><time>2026-04-02T14:57:06.999Z</time></trkpt><trkpt lat="45.94219965005189" lon="12.792543893858499"><ele>26.0</ele><time>2026-04-02T14:57:07.999Z</time></trkpt><trkpt lat="45.94212467555156" lon="12.79247476842229"><ele>26.200000000000003</ele><time>2026-04-02T14:57:08.999Z</time></trkpt><trkpt lat="45.94204987701285" lon="12.792431545359635"><ele>26.400000000000002</ele><time>2026-04-02T14:57:09.999Z</time></trkpt><trkpt lat="45.941968072057314" lon="12.792407691360676"><ele>26.6</ele><time>2026-04-02T14:57:10.999Z</time></trkpt><trkpt lat="45.94187609215008" lon="12.792404047787937"><ele>26.8</ele><time>2026-04-02T14:57:11.999Z</time></trkpt><trkpt lat="45.94177156372205" lon="12.792414443025702"><ele>27.0</ele><time>2026-04-02T14:57:12.999Z</time></trkpt><trkpt lat="45.941666788913935" lon="12.7923958337079"><ele>27.6</ele><time>2026-04-02T14:57:13.999Z</time></trkpt><trkpt lat="45.94156267522237" lon="12.792327766823371"><ele>28.200000000000003</ele><time>2026-04-02T14:57:14.999Z</time></trkpt><trkpt lat="45.94146982458884" lon="12.792239645071012"><ele>28.8</ele><time>2026-04-02T14:57:16Z</time></trkpt><trkpt lat="45.94137736967993" lon="12.792151428697299"><ele>29.4</ele><time>2026-04-02T14:57:17Z</time></trkpt><trkpt lat="45.94128850539434" lon="12.792066349230346"><ele>30.0</ele><time>2026-04-02T14:57:18Z</time></trkpt><trkpt lat="45.9412046316892" lon="12.791972183131366"><ele>30.0</ele><time>2026-04-02T14:57:19Z</time></trkpt><trkpt lat="45.941133668627806" lon="12.791858441122464"><ele>30.0</ele><time>2026-04-02T14:57:20Z</time></trkpt><trkpt lat="45.94106322053593" lon="12.791735778472912"><ele>30.0</ele><time>2026-04-02T14:57:21Z</time></trkpt><trkpt lat="45.94099286392713" lon="12.791604729524213"><ele>30.0</ele><time>2026-04-02T14:57:22Z</time></trkpt><trkpt lat="45.94092456847825" lon="12.791480159358507"><ele>30.0</ele><time>2026-04-02T14:57:23Z</time></trkpt><trkpt lat="45.94084962353647" lon="12.791363105510484"><ele>29.6</ele><time>2026-04-02T14:57:24Z</time></trkpt><trkpt lat="45.94077753134735" lon="12.791260065636042"><ele>29.2</ele><time>2026-04-02T14:57:25Z</time></trkpt><trkpt lat="45.94070375427483" lon="12.791158087854702"><ele>28.799999999999997</ele><time>2026-04-02T14:57:26Z</time></trkpt><trkpt lat="45.94062367958648" lon="12.791063542773403"><ele>28.4</ele><time>2026-04-02T14:57:27Z</time></trkpt><trkpt lat="45.94054116868611" lon="12.790985141271074"><ele>28.0</ele><time>2026-04-02T14:57:28Z</time></trkpt><trkpt lat="45.94045818126371" lon="12.790898717329718"><ele>27.599999999999998</ele><time>2026-04-02T14:57:29Z</time></trkpt><trkpt lat="45.940385983918844" lon="12.790810937698907"><ele>27.199999999999996</ele><time>2026-04-02T14:57:30Z</time></trkpt><trkpt lat="45.940314717949406" lon="12.79072294728511"><ele>26.8</ele><time>2026-04-02T14:57:31Z</time></trkpt><trkpt lat="45.94023811458931" lon="12.790623010515075"><ele>26.4</ele><time>2026-04-02T14:57:32Z</time></trkpt><trkpt lat="45.94016007891153" lon="12.790535080349377"><ele>26.0</ele><time>2026-04-02T14:57:33Z</time></trkpt><trkpt lat="45.94008210133946" lon="12.790446668758744"><ele>26.4</ele><time>2026-04-02T14:57:34Z</time></trkpt><trkpt lat="45.94000480363994" lon="12.790359390807149"><ele>26.8</ele><time>2026-04-02T14:57:35Z</time></trkpt><trkpt lat="45.9399277077836" lon="12.790276037696104"><ele>27.199999999999996</ele><time>2026-04-02T14:57:36Z</time></trkpt><trkpt lat="45.93985124836528" lon="12.790198438469677"><ele>27.599999999999998</ele><time>2026-04-02T14:57:37Z</time></trkpt><trkpt lat="45.939779438727015" lon="12.790127625661562"><ele>28.0</ele><time>2026-04-02T14:57:38Z</time></trkpt><trkpt lat="45.939715585156286" lon="12.790066664005145"><ele>28.000000000000004</ele><time>2026-04-02T14:57:39Z</time></trkpt><trkpt lat="45.939656542332564" lon="12.790014219606453"><ele>28.0</ele><time>2026-04-02T14:57:40Z</time></trkpt><trkpt lat="45.93959969771913" lon="12.789969226384443"><ele>28.0</ele><time>2026-04-02T14:57:41Z</time></trkpt><trkpt lat="45.93951476374491" lon="12.789851658775431"><ele>28.0</ele><time>2026-04-02T14:57:43Z</time></trkpt><trkpt lat="45.939492165353705" lon="12.789766073305671"><ele>28.000000000000004</ele><time>2026-04-02T14:57:44Z</time></trkpt><trkpt lat="45.939478243718504" lon="12.789664056168474"><ele>28.0</ele><time>2026-04-02T14:57:45Z</time></trkpt><trkpt lat="45.939456373766994" lon="12.789552532481945"><ele>28.0</ele><time>2026-04-02T14:57:46Z</time></trkpt><trkpt lat="45.939430094412856" lon="12.789436455679644"><ele>27.999999999999996</ele><time>2026-04-02T14:57:47Z</time></trkpt><trkpt lat="45.93940010647664" lon="12.789301495517881"><ele>27.999999999999996</ele><time>2026-04-02T14:57:48Z</time></trkpt><trkpt lat="45.939372174223415" lon="12.789177158112798"><ele>28.0</ele><time>2026-04-02T14:57:49Z</time></trkpt><trkpt lat="45.939352647661856" lon="12.789075275228898"><ele>28.0</ele><time>2026-04-02T14:57:50Z</time></trkpt><trkpt lat="45.93931871419826" lon="12.78891557468236"><ele>27.666666666666668</ele><time>2026-04-02T14:57:52Z</time></trkpt><trkpt lat="45.939306031565465" lon="12.788822420471266"><ele>27.333333333333336</ele><time>2026-04-02T14:57:54Z</time></trkpt><trkpt lat="45.93942319796329" lon="12.78878812877271"><ele>27.0</ele><time>2026-04-02T14:57:57Z</time></trkpt><trkpt lat="45.939495071111246" lon="12.788793971788406"><ele>26.666666666666664</ele><time>2026-04-02T14:57:58Z</time></trkpt><trkpt lat="45.939572592752356" lon="12.788796096563685"><ele>26.333333333333332</ele><time>2026-04-02T14:57:59Z</time></trkpt><trkpt lat="45.93965854985494" lon="12.788809010488212"><ele>26.0</ele><time>2026-04-02T14:58:00Z</time></trkpt><trkpt lat="45.93972716812493" lon="12.78882538417194"><ele>25.999999999999996</ele><time>2026-04-02T14:58:01Z</time></trkpt><trkpt lat="45.93979200744468" lon="12.78883993547742"><ele>26.0</ele><time>2026-04-02T14:58:02Z</time></trkpt><trkpt lat="45.93986320936044" lon="12.78885331678608"><ele>26.0</ele><time>2026-04-02T14:58:03Z</time></trkpt><trkpt lat="45.939937326319146" lon="12.788870060284696"><ele>26.0</ele><time>2026-04-02T14:58:04Z</time></trkpt><trkpt lat="45.94000697202602" lon="12.788888806824868"><ele>25.999999999999996</ele><time>2026-04-02T14:58:05Z</time></trkpt><trkpt lat="45.94006847459279" lon="12.788911184641101"><ele>26.0</ele><time>2026-04-02T14:58:06Z</time></trkpt><trkpt lat="45.940171565931905" lon="12.788982853611392"><ele>26.166666666666664</ele><time>2026-04-02T14:58:08Z</time></trkpt><trkpt lat="45.94024585470545" lon="12.789026663140781"><ele>26.333333333333332</ele><time>2026-04-02T14:58:10Z</time></trkpt><trkpt lat="45.94030583078427" lon="12.78899529547472"><ele>26.5</ele><time>2026-04-02T14:58:13Z</time></trkpt><trkpt lat="45.94035106786682" lon="12.78891457372233"><ele>26.666666666666664</ele><time>2026-04-02T14:58:21Z</time></trkpt><trkpt lat="45.9404211180372" lon="12.78889130697736"><ele>26.833333333333332</ele><time>2026-04-02T14:58:23Z</time></trkpt><trkpt lat="45.94052896540681" lon="12.788968490177258"><ele>27.0</ele><time>2026-04-02T14:58:25Z</time></trkpt><trkpt lat="45.940591553436" lon="12.789033125100906"><ele>27.0</ele><time>2026-04-02T14:58:26Z</time></trkpt><trkpt lat="45.94063543743552" lon="12.789120698014813"><ele>27.000000000000004</ele><time>2026-04-02T14:58:27Z</time></trkpt><trkpt lat="45.94067712459935" lon="12.789227996140555"><ele>27.000000000000004</ele><time>2026-04-02T14:58:28Z</time></trkpt><trkpt lat="45.94073137078636" lon="12.789331325650718"><ele>27.0</ele><time>2026-04-02T14:58:29Z</time></trkpt><trkpt lat="45.940805495596685" lon="12.789427128070685"><ele>27.0</ele><time>2026-04-02T14:58:30Z</time></trkpt><trkpt lat="45.940901996951716" lon="12.789504937300343"><ele>26.833333333333332</ele><time>2026-04-02T14:58:31Z</time></trkpt><trkpt lat="45.94099770545543" lon="12.78957538028594"><ele>26.666666666666664</ele><time>2026-04-02T14:58:32Z</time></trkpt><trkpt lat="45.94108294692284" lon="12.789652200757256"><ele>26.5</ele><time>2026-04-02T14:58:33Z</time></trkpt><trkpt lat="45.94115206269683" lon="12.789733166883066"><ele>26.333333333333332</ele><time>2026-04-02T14:58:34Z</time></trkpt><trkpt lat="45.941208607683606" lon="12.789813984692307"><ele>26.166666666666664</ele><time>2026-04-02T14:58:35Z</time></trkpt><trkpt lat="45.94125261009465" lon="12.789888519472669"><ele>26.0</ele><time>2026-04-02T14:58:36Z</time></trkpt><trkpt lat="45.94134801755666" lon="12.78997467001829"><ele>26.0</ele><time>2026-04-02T14:58:38Z</time></trkpt><trkpt lat="45.941420498555736" lon="12.789953847515841"><ele>26.0</ele><time>2026-04-02T14:58:39Z</time></trkpt><trkpt lat="45.94149514857133" lon="12.789896884530382"><ele>26.0</ele><time>2026-04-02T14:58:40Z</time></trkpt><trkpt lat="45.941578325873266" lon="12.789787334328356"><ele>26.0</ele><time>2026-04-02T14:58:41Z</time></trkpt><trkpt lat="45.94168420233701" lon="12.789660842941208"><ele>26.0</ele><time>2026-04-02T14:58:42Z</time></trkpt><trkpt lat="45.941806287521295" lon="12.789537927967695"><ele>26.0</ele><time>2026-04-02T14:58:43Z</time></trkpt><trkpt lat="45.94193467401185" lon="12.789400767158783"><ele>26.0</ele><time>2026-04-02T14:58:44Z</time></trkpt><trkpt lat="45.94206643727491" lon="12.789277805689517"><ele>26.0</ele><time>2026-04-02T14:58:45Z</time></trkpt><trkpt lat="45.942144046069075" lon="12.789190736615572"><ele>26.0</ele><time>2026-04-02T14:58:46Z</time></trkpt><trkpt lat="45.94221094791979" lon="12.78911055934929"><ele>26.0</ele><time>2026-04-02T14:58:47Z</time></trkpt><trkpt lat="45.942282992695745" lon="12.788985791379922"><ele>26.0</ele><time>2026-04-02T14:58:49Z</time></trkpt><trkpt lat="45.942379286267816" lon="12.788933420868425"><ele>26.0</ele><time>2026-04-02T14:58:51Z</time></trkpt><trkpt lat="45.94244952554137" lon="12.788914510137932"><ele>26.0</ele><time>2026-04-02T14:58:52.999Z</time></trkpt><trkpt lat="45.94239838391476" lon="12.788803320251064"><ele>26.0</ele><time>2026-04-02T14:58:54.999Z</time></trkpt><trkpt lat="45.942346529429976" lon="12.788707057397383"><ele>26.0</ele><time>2026-04-02T14:58:55.999Z</time></trkpt><trkpt lat="45.94229005830348" lon="12.788612313915607"><ele>26.0</ele><time>2026-04-02T14:58:56.999Z</time></trkpt><trkpt lat="45.942225018403704" lon="12.7885047620323"><ele>26.0</ele><time>2026-04-02T14:58:57.999Z</time></trkpt><trkpt lat="45.94215423803453" lon="12.78838466657865"><ele>26.0</ele><time>2026-04-02T14:58:58.999Z</time></trkpt><trkpt lat="45.94208064166365" lon="12.788240662523783"><ele>26.0</ele><time>2026-04-02T14:58:59.999Z</time></trkpt><trkpt lat="45.94201170591929" lon="12.788129129531807"><ele>26.0</ele><time>2026-04-02T14:59:00.999Z</time></trkpt><trkpt lat="45.94193950980102" lon="12.78800477189421"><ele>26.0</ele><time>2026-04-02T14:59:01.999Z</time></trkpt><trkpt lat="45.941843511314836" lon="12.787866671728132"><ele>26.0</ele><time>2026-04-02T14:59:02.999Z</time></trkpt><trkpt lat="45.941772819449945" lon="12.787725543414187"><ele>26.0</ele><time>2026-04-02T14:59:03.999Z</time></trkpt><trkpt lat="45.94170837871252" lon="12.787596671024877"><ele>25.75</ele><time>2026-04-02T14:59:04.999Z</time></trkpt><trkpt lat="45.94163179550735" lon="12.787452821487953"><ele>25.5</ele><time>2026-04-02T14:59:05.999Z</time></trkpt><trkpt lat="45.94156563167215" lon="12.787333983796778"><ele>25.25</ele><time>2026-04-02T14:59:06.999Z</time></trkpt><trkpt lat="45.941495992251035" lon="12.78720130648278"><ele>25.0</ele><time>2026-04-02T14:59:07.999Z</time></trkpt><trkpt lat="45.94141535680009" lon="12.78705620655393"><ele>25.0</ele><time>2026-04-02T14:59:08.999Z</time></trkpt><trkpt lat="45.94133194205826" lon="12.786931393699534"><ele>25.0</ele><time>2026-04-02T14:59:09.999Z</time></trkpt><trkpt lat="45.94125536311171" lon="12.78679322201593"><ele>25.0</ele><time>2026-04-02T14:59:11Z</time></trkpt><trkpt lat="45.94117253673398" lon="12.786641936386001"><ele>25.0</ele><time>2026-04-02T14:59:12Z</time></trkpt><trkpt lat="45.94107926443721" lon="12.786479055381875"><ele>25.0</ele><time>2026-04-02T14:59:13Z</time></trkpt><trkpt lat="45.94097210541368" lon="12.786303606626863"><ele>25.0</ele><time>2026-04-02T14:59:14Z</time></trkpt><trkpt lat="45.940877144681984" lon="12.786143384789884"><ele>25.0</ele><time>2026-04-02T14:59:15Z</time></trkpt><trkpt lat="45.94078085861733" lon="12.785987582969002"><ele>25.0</ele><time>2026-04-02T14:59:16Z</time></trkpt><trkpt lat="45.940687908017516" lon="12.785845179689039"><ele>25.0</ele><time>2026-04-02T14:59:17Z</time></trkpt><trkpt lat="45.94059675527105" lon="12.785700696109616"><ele>25.0</ele><time>2026-04-02T14:59:18Z</time></trkpt><trkpt lat="45.94051437539675" lon="12.785547122669659"><ele>25.0</ele><time>2026-04-02T14:59:19Z</time></trkpt><trkpt lat="45.94044227543994" lon="12.785361693111973"><ele>25.0</ele><time>2026-04-02T14:59:20Z</time></trkpt><trkpt lat="45.940378911824205" lon="12.78525240029093"><ele>25.0</ele><time>2026-04-02T14:59:21Z</time></trkpt><trkpt lat="45.94032977490111" lon="12.785126307462903"><ele>25.0</ele><time>2026-04-02T14:59:22Z</time></trkpt><trkpt lat="45.94026276411785" lon="12.78500417606306"><ele>25.0</ele><time>2026-04-02T14:59:23Z</time></trkpt><trkpt lat="45.94019271180207" lon="12.784915275628055"><ele>25.0</ele><time>2026-04-02T14:59:24Z</time></trkpt><trkpt lat="45.94012728888628" lon="12.784798037308642"><ele>25.000000000000004</ele><time>2026-04-02T14:59:25Z</time></trkpt><trkpt lat="45.940084214661624" lon="12.78471607668132"><ele>25.0</ele><time>2026-04-02T14:59:26Z</time></trkpt><trkpt lat="45.94004766766421" lon="12.784638666065483"><ele>25.0</ele><time>2026-04-02T14:59:27Z</time></trkpt><trkpt lat="45.939995728267135" lon="12.784548130065227"><ele>25.0</ele><time>2026-04-02T14:59:28Z</time></trkpt><trkpt lat="45.939952256869404" lon="12.78447149068831"><ele>25.0</ele><time>2026-04-02T14:59:29Z</time></trkpt><trkpt lat="45.93991079325748" lon="12.784387712311728"><ele>25.000000000000004</ele><time>2026-04-02T14:59:30Z</time></trkpt><trkpt lat="45.93985400263158" lon="12.784307248745364"><ele>25.0</ele><time>2026-04-02T14:59:32Z</time></trkpt><trkpt lat="45.939824425334436" lon="12.784494007581158"><ele>24.666666666666668</ele><time>2026-04-02T14:59:37Z</time></trkpt><trkpt lat="45.93988898957853" lon="12.784587295343853"><ele>24.333333333333336</ele><time>2026-04-02T14:59:38Z</time></trkpt><trkpt lat="45.939936531583925" lon="12.784662889462462"><ele>24.0</ele><time>2026-04-02T14:59:39Z</time></trkpt><trkpt lat="45.939940242311465" lon="12.784797247868363"><ele>23.666666666666668</ele><time>2026-04-02T14:59:41Z</time></trkpt><trkpt lat="45.93988916223506" lon="12.78488690823932"><ele>23.333333333333336</ele><time>2026-04-02T14:59:42Z</time></trkpt><trkpt lat="45.9398246239459" lon="12.784970832252721"><ele>23.0</ele><time>2026-04-02T14:59:43Z</time></trkpt><trkpt lat="45.93974819150309" lon="12.785054226342282"><ele>23.0</ele><time>2026-04-02T14:59:44Z</time></trkpt><trkpt lat="45.93967384292451" lon="12.785143633235252"><ele>23.0</ele><time>2026-04-02T14:59:45Z</time></trkpt><trkpt lat="45.939597200502014" lon="12.785249855525684"><ele>23.0</ele><time>2026-04-02T14:59:46Z</time></trkpt><trkpt lat="45.939519789518066" lon="12.785369774653525"><ele>23.0</ele><time>2026-04-02T14:59:47Z</time></trkpt><trkpt lat="45.93942524314536" lon="12.785492140034545"><ele>23.0</ele><time>2026-04-02T14:59:48Z</time></trkpt><trkpt lat="45.93933350624672" lon="12.785610441924424"><ele>23.25</ele><time>2026-04-02T14:59:49Z</time></trkpt><trkpt lat="45.9392409259764" lon="12.785732685162479"><ele>23.5</ele><time>2026-04-02T14:59:50Z</time></trkpt><trkpt lat="45.93914866335" lon="12.78585999152992"><ele>23.75</ele><time>2026-04-02T14:59:51Z</time></trkpt><trkpt lat="45.93905679184552" lon="12.786003174096626"><ele>24.0</ele><time>2026-04-02T14:59:52Z</time></trkpt><trkpt lat="45.93896544770343" lon="12.786107225176638"><ele>24.2</ele><time>2026-04-02T14:59:53Z</time></trkpt><trkpt lat="45.93888825367935" lon="12.786195309674747"><ele>24.4</ele><time>2026-04-02T14:59:54Z</time></trkpt><trkpt lat="45.938825370741036" lon="12.786293101911369"><ele>24.6</ele><time>2026-04-02T14:59:55Z</time></trkpt><trkpt lat="45.93875844707076" lon="12.78636841459295"><ele>24.8</ele><time>2026-04-02T14:59:56Z</time></trkpt><trkpt lat="45.93870221872109" lon="12.78643786242976"><ele>25.0</ele><time>2026-04-02T14:59:57Z</time></trkpt><trkpt lat="45.93859674799959" lon="12.786519707157714"><ele>25.000000000000004</ele><time>2026-04-02T14:59:59Z</time></trkpt><trkpt lat="45.93851967253663" lon="12.786532171998623"><ele>25.0</ele><time>2026-04-02T15:00:00Z</time></trkpt><trkpt lat="45.93841946073664" lon="12.78650704868441"><ele>25.0</ele><time>2026-04-02T15:00:01Z</time></trkpt><trkpt lat="45.93835892869036" lon="12.786468671231724"><ele>25.0</ele><time>2026-04-02T15:00:02Z</time></trkpt><trkpt lat="45.938276409695426" lon="12.78637923188443"><ele>25.000000000000004</ele><time>2026-04-02T15:00:03Z</time></trkpt><trkpt lat="45.93820363073323" lon="12.786293684771175"><ele>25.0</ele><time>2026-04-02T15:00:04Z</time></trkpt><trkpt lat="45.93812881585294" lon="12.786232073795288"><ele>25.0</ele><time>2026-04-02T15:00:05Z</time></trkpt><trkpt lat="45.938044640455615" lon="12.786187790797134"><ele>25.0</ele><time>2026-04-02T15:00:06Z</time></trkpt><trkpt lat="45.93795041803747" lon="12.786139648005319"><ele>25.0</ele><time>2026-04-02T15:00:07Z</time></trkpt><trkpt lat="45.93782803400326" lon="12.78609780018868"><ele>25.0</ele><time>2026-04-02T15:00:08Z</time></trkpt><trkpt lat="45.93771582139243" lon="12.786077007083776"><ele>25.0</ele><time>2026-04-02T15:00:09Z</time></trkpt><trkpt lat="45.93759571400097" lon="12.786035895149144"><ele>25.5</ele><time>2026-04-02T15:00:10Z</time></trkpt><trkpt lat="45.937482740487965" lon="12.78597194557721"><ele>26.0</ele><time>2026-04-02T15:00:11Z</time></trkpt><trkpt lat="45.9374031077293" lon="12.785905335159956"><ele>26.5</ele><time>2026-04-02T15:00:12Z</time></trkpt><trkpt lat="45.93730099195004" lon="12.785843669671952"><ele>27.0</ele><time>2026-04-02T15:00:14Z</time></trkpt><trkpt lat="45.93718742522169" lon="12.78576168222623"><ele>27.0</ele><time>2026-04-02T15:00:15Z</time></trkpt><trkpt lat="45.937081533123106" lon="12.785701580080886"><ele>27.0</ele><time>2026-04-02T15:00:16Z</time></trkpt><trkpt lat="45.93700105984588" lon="12.785651390161194"><ele>27.0</ele><time>2026-04-02T15:00:17Z</time></trkpt><trkpt lat="45.936936329902835" lon="12.785612848674369"><ele>27.0</ele><time>2026-04-02T15:00:18Z</time></trkpt><trkpt lat="45.936875864443124" lon="12.785573077440619"><ele>27.0</ele><time>2026-04-02T15:00:19Z</time></trkpt><trkpt lat="45.93683596850434" lon="12.785488675671468"><ele>27.0</ele><time>2026-04-02T15:00:21Z</time></trkpt><trkpt lat="45.936778396403724" lon="12.78538775356357"><ele>27.0</ele><time>2026-04-02T15:00:22Z</time></trkpt><trkpt lat="45.9367098779483" lon="12.785268893244355"><ele>27.0</ele><time>2026-04-02T15:00:23Z</time></trkpt><trkpt lat="45.9366449426981" lon="12.78516991320638"><ele>27.0</ele><time>2026-04-02T15:00:24Z</time></trkpt><trkpt lat="45.93660197320375" lon="12.785096139878812"><ele>27.0</ele><time>2026-04-02T15:00:25Z</time></trkpt><trkpt lat="45.936544966972235" lon="12.78504458067416"><ele>27.0</ele><time>2026-04-02T15:00:26Z</time></trkpt><trkpt lat="45.93645779373993" lon="12.784994565461357"><ele>27.0</ele><time>2026-04-02T15:00:27Z</time></trkpt><trkpt lat="45.93635400646272" lon="12.784935322401036"><ele>27.0</ele><time>2026-04-02T15:00:28Z</time></trkpt><trkpt lat="45.936246911659374" lon="12.784896788510139"><ele>27.000000000000004</ele><time>2026-04-02T15:00:29Z</time></trkpt><trkpt lat="45.93615685560392" lon="12.784843822025476"><ele>27.000000000000004</ele><time>2026-04-02T15:00:30Z</time></trkpt><trkpt lat="45.93607113536731" lon="12.784768087759126"><ele>27.0</ele><time>2026-04-02T15:00:31Z</time></trkpt><trkpt lat="45.935983836887424" lon="12.784709543816426"><ele>27.0</ele><time>2026-04-02T15:00:32Z</time></trkpt><trkpt lat="45.9359075299901" lon="12.784652377502296"><ele>27.400000000000002</ele><time>2026-04-02T15:00:33Z</time></trkpt><trkpt lat="45.93580395266088" lon="12.784598672002492"><ele>27.800000000000004</ele><time>2026-04-02T15:00:34Z</time></trkpt><trkpt lat="45.93569995635641" lon="12.784536802202878"><ele>28.2</ele><time>2026-04-02T15:00:35Z</time></trkpt><trkpt lat="45.935607005184956" lon="12.784501165295023"><ele>28.6</ele><time>2026-04-02T15:00:36Z</time></trkpt><trkpt lat="45.93551414937587" lon="12.78447339486104"><ele>29.0</ele><time>2026-04-02T15:00:37Z</time></trkpt><trkpt lat="45.9354242510801" lon="12.78442889175415"><ele>28.999999999999996</ele><time>2026-04-02T15:00:38Z</time></trkpt><trkpt lat="45.935335778198784" lon="12.784391358566076"><ele>29.0</ele><time>2026-04-02T15:00:39Z</time></trkpt><trkpt lat="45.93526024217002" lon="12.784361938434241"><ele>29.0</ele><time>2026-04-02T15:00:40Z</time></trkpt><trkpt lat="45.93518802927205" lon="12.784346484454623"><ele>29.0</ele><time>2026-04-02T15:00:41Z</time></trkpt><trkpt lat="45.93511503157493" lon="12.78434039897771"><ele>28.999999999999996</ele><time>2026-04-02T15:00:42Z</time></trkpt><trkpt lat="45.93503943246592" lon="12.784320730927531"><ele>29.0</ele><time>2026-04-02T15:00:43Z</time></trkpt><trkpt lat="45.93490090411435" lon="12.784331618856244"><ele>29.4</ele><time>2026-04-02T15:00:45Z</time></trkpt><trkpt lat="45.93478573443558" lon="12.784366386791058"><ele>29.799999999999997</ele><time>2026-04-02T15:00:46Z</time></trkpt><trkpt lat="45.9346560139447" lon="12.784445724824732"><ele>30.200000000000003</ele><time>2026-04-02T15:00:47Z</time></trkpt><trkpt lat="45.934557060928874" lon="12.784501746400695"><ele>30.6</ele><time>2026-04-02T15:00:48Z</time></trkpt><trkpt lat="45.9344954535705" lon="12.784527125343967"><ele>31.0</ele><time>2026-04-02T15:00:49Z</time></trkpt><trkpt lat="45.934428987806136" lon="12.784524312011827"><ele>31.0</ele><time>2026-04-02T15:00:50Z</time></trkpt><trkpt lat="45.9343437363505" lon="12.784487298793367"><ele>31.0</ele><time>2026-04-02T15:00:51Z</time></trkpt><trkpt lat="45.93424927595911" lon="12.784433168848048"><ele>31.0</ele><time>2026-04-02T15:00:52Z</time></trkpt><trkpt lat="45.93414933669419" lon="12.784397211456623"><ele>31.0</ele><time>2026-04-02T15:00:53Z</time></trkpt><trkpt lat="45.93402426655508" lon="12.78440027186636"><ele>31.0</ele><time>2026-04-02T15:00:54Z</time></trkpt><trkpt lat="45.93392000156416" lon="12.784420530098913"><ele>31.666666666666668</ele><time>2026-04-02T15:00:55Z</time></trkpt><trkpt lat="45.933825038648514" lon="12.784443402187483"><ele>32.333333333333336</ele><time>2026-04-02T15:00:56Z</time></trkpt><trkpt lat="45.933740741300866" lon="12.784458927430789"><ele>33.0</ele><time>2026-04-02T15:00:57Z</time></trkpt><trkpt lat="45.933668028839655" lon="12.784480828440964"><ele>33.666666666666664</ele><time>2026-04-02T15:00:58Z</time></trkpt><trkpt lat="45.93360626645194" lon="12.784519523083501"><ele>34.33333333333333</ele><time>2026-04-02T15:00:59Z</time></trkpt><trkpt lat="45.93351967795155" lon="12.7846092181578"><ele>35.0</ele><time>2026-04-02T15:01:01Z</time></trkpt><trkpt lat="45.93345998542461" lon="12.784749723842225"><ele>35.0</ele><time>2026-04-02T15:01:03Z</time></trkpt><trkpt lat="45.93342156701376" lon="12.784863144113807"><ele>35.0</ele><time>2026-04-02T15:01:04Z</time></trkpt><trkpt lat="45.93337034791124" lon="12.785001895502539"><ele>35.0</ele><time>2026-04-02T15:01:05Z</time></trkpt><trkpt lat="45.93331198619607" lon="12.785150978840905"><ele>35.0</ele><time>2026-04-02T15:01:06Z</time></trkpt><trkpt lat="45.93325125656268" lon="12.785312912385756"><ele>35.0</ele><time>2026-04-02T15:01:07Z</time></trkpt><trkpt lat="45.9332099254095" lon="12.785455716320445"><ele>34.57142857142857</ele><time>2026-04-02T15:01:08Z</time></trkpt><trkpt lat="45.93317529440437" lon="12.785579006938343"><ele>34.14285714285714</ele><time>2026-04-02T15:01:09Z</time></trkpt><trkpt lat="45.933143609913216" lon="12.78567953110499"><ele>33.714285714285715</ele><time>2026-04-02T15:01:10Z</time></trkpt><trkpt lat="45.93310725110363" lon="12.785756673324515"><ele>33.285714285714285</ele><time>2026-04-02T15:01:11Z</time></trkpt><trkpt lat="45.93307385648029" lon="12.78583473947478"><ele>32.857142857142854</ele><time>2026-04-02T15:01:12Z</time></trkpt><trkpt lat="45.93303728425478" lon="12.78591812043365"><ele>32.42857142857143</ele><time>2026-04-02T15:01:13Z</time></trkpt><trkpt lat="45.93300224054584" lon="12.786025471754588"><ele>32.0</ele><time>2026-04-02T15:01:14Z</time></trkpt><trkpt lat="45.932975226562945" lon="12.786124838829902"><ele>30.6</ele><time>2026-04-02T15:01:15Z</time></trkpt><trkpt lat="45.932922370002" lon="12.786267269103934"><ele>29.200000000000003</ele><time>2026-04-02T15:01:17Z</time></trkpt><trkpt lat="45.932886499008355" lon="12.786380939169618"><ele>27.8</ele><time>2026-04-02T15:01:20Z</time></trkpt><trkpt lat="45.93293496407948" lon="12.786494258664943"><ele>26.4</ele><time>2026-04-02T15:01:22Z</time></trkpt><trkpt lat="45.93286866762626" lon="12.786615156101181"><ele>25.0</ele><time>2026-04-02T15:01:25Z</time></trkpt><trkpt lat="45.93281632662876" lon="12.786688481891698"><ele>25.0</ele><time>2026-04-02T15:01:26Z</time></trkpt><trkpt lat="45.93275035533275" lon="12.78674975844023"><ele>25.0</ele><time>2026-04-02T15:01:27Z</time></trkpt><trkpt lat="45.93268369849758" lon="12.786834829541101"><ele>25.0</ele><time>2026-04-02T15:01:28Z</time></trkpt><trkpt lat="45.93260819047528" lon="12.78692855689027"><ele>25.0</ele><time>2026-04-02T15:01:29Z</time></trkpt><trkpt lat="45.93253357082402" lon="12.787024383698771"><ele>25.0</ele><time>2026-04-02T15:01:30Z</time></trkpt><trkpt lat="45.93245572479895" lon="12.787129019126098"><ele>24.75</ele><time>2026-04-02T15:01:31Z</time></trkpt><trkpt lat="45.932370442116884" lon="12.78723863841166"><ele>24.5</ele><time>2026-04-02T15:01:32Z</time></trkpt><trkpt lat="45.93228117673601" lon="12.78734864126359"><ele>24.25</ele><time>2026-04-02T15:01:33Z</time></trkpt><trkpt lat="45.93219077188766" lon="12.78745577096779"><ele>24.0</ele><time>2026-04-02T15:01:34Z</time></trkpt><trkpt lat="45.932105908032355" lon="12.787556490678117"><ele>24.0</ele><time>2026-04-02T15:01:35Z</time></trkpt><trkpt lat="45.932028940199416" lon="12.787656742362165"><ele>24.0</ele><time>2026-04-02T15:01:36Z</time></trkpt><trkpt lat="45.931936052502856" lon="12.787756688679444"><ele>24.0</ele><time>2026-04-02T15:01:37Z</time></trkpt><trkpt lat="45.931830338939356" lon="12.78787521526458"><ele>24.0</ele><time>2026-04-02T15:01:38Z</time></trkpt><trkpt lat="45.93173655476751" lon="12.787991224035249"><ele>23.75</ele><time>2026-04-02T15:01:39Z</time></trkpt><trkpt lat="45.93165128265382" lon="12.788107153976776"><ele>23.5</ele><time>2026-04-02T15:01:40Z</time></trkpt><trkpt lat="45.93156615930518" lon="12.788218204949818"><ele>23.25</ele><time>2026-04-02T15:01:41Z</time></trkpt><trkpt lat="45.931485272738456" lon="12.788337834517153"><ele>23.0</ele><time>2026-04-02T15:01:42Z</time></trkpt><trkpt lat="45.93139825126076" lon="12.788442977421091"><ele>23.2</ele><time>2026-04-02T15:01:43Z</time></trkpt><trkpt lat="45.931317340264805" lon="12.788552449166529"><ele>23.4</ele><time>2026-04-02T15:01:44Z</time></trkpt><trkpt lat="45.93123552830781" lon="12.788661297954988"><ele>23.599999999999998</ele><time>2026-04-02T15:01:45Z</time></trkpt><trkpt lat="45.931153839398725" lon="12.788765618897335"><ele>23.799999999999997</ele><time>2026-04-02T15:01:46Z</time></trkpt><trkpt lat="45.931071561917484" lon="12.78887022641753"><ele>24.0</ele><time>2026-04-02T15:01:47Z</time></trkpt><trkpt lat="45.930989863432515" lon="12.788978824874903"><ele>24.0</ele><time>2026-04-02T15:01:48Z</time></trkpt><trkpt lat="45.93089811197454" lon="12.789098762919386"><ele>24.0</ele><time>2026-04-02T15:01:49Z</time></trkpt><trkpt lat="45.9308208319536" lon="12.789197646586047"><ele>24.0</ele><time>2026-04-02T15:01:50Z</time></trkpt><trkpt lat="45.93073811958764" lon="12.789307559452482"><ele>24.0</ele><time>2026-04-02T15:01:51Z</time></trkpt><trkpt lat="45.930656794442314" lon="12.78941819619596"><ele>23.833333333333332</ele><time>2026-04-02T15:01:52Z</time></trkpt><trkpt lat="45.93057083425188" lon="12.789504970561078"><ele>23.666666666666668</ele><time>2026-04-02T15:01:53Z</time></trkpt><trkpt lat="45.93051466773779" lon="12.789599080372616"><ele>23.5</ele><time>2026-04-02T15:01:54Z</time></trkpt><trkpt lat="45.93046704836609" lon="12.789669269921626"><ele>23.333333333333336</ele><time>2026-04-02T15:01:55Z</time></trkpt><trkpt lat="45.93041581782542" lon="12.78973079136291"><ele>23.166666666666668</ele><time>2026-04-02T15:01:56Z</time></trkpt><trkpt lat="45.9303496376891" lon="12.789816502349138"><ele>23.0</ele><time>2026-04-02T15:01:58Z</time></trkpt><trkpt lat="45.93030623813933" lon="12.789911161077999"><ele>23.0</ele><time>2026-04-02T15:02:02Z</time></trkpt><trkpt lat="45.93036762259355" lon="12.79004598710906"><ele>23.0</ele><time>2026-04-02T15:02:04Z</time></trkpt><trkpt lat="45.93042627665497" lon="12.790114036417622"><ele>23.0</ele><time>2026-04-02T15:02:05Z</time></trkpt><trkpt lat="45.930491062155696" lon="12.79022549883823"><ele>23.0</ele><time>2026-04-02T15:02:07Z</time></trkpt><trkpt lat="45.93043175577872" lon="12.790324789334209"><ele>23.0</ele><time>2026-04-02T15:02:10Z</time></trkpt><trkpt lat="45.93034051065869" lon="12.790224036509672"><ele>23.0</ele><time>2026-04-02T15:02:12Z</time></trkpt><trkpt lat="45.930306580616005" lon="12.790146599496332"><ele>23.0</ele><time>2026-04-02T15:02:13Z</time></trkpt><trkpt lat="45.93026812428763" lon="12.790061028672893"><ele>23.0</ele><time>2026-04-02T15:02:15Z</time></trkpt><trkpt lat="45.93019631189552" lon="12.789940306995396"><ele>23.0</ele><time>2026-04-02T15:02:17Z</time></trkpt><trkpt lat="45.93013848116995" lon="12.789856192195925"><ele>23.0</ele><time>2026-04-02T15:02:18Z</time></trkpt><trkpt lat="45.93007964303248" lon="12.78977035804292"><ele>23.0</ele><time>2026-04-02T15:02:19Z</time></trkpt><trkpt lat="45.93002152805364" lon="12.789694338040912"><ele>23.0</ele><time>2026-04-02T15:02:20Z</time></trkpt><trkpt lat="45.92996390931987" lon="12.78961384016084"><ele>23.0</ele><time>2026-04-02T15:02:21Z</time></trkpt><trkpt lat="45.929906973382586" lon="12.7895255338346"><ele>23.0</ele><time>2026-04-02T15:02:22Z</time></trkpt><trkpt lat="45.92984394502957" lon="12.789429675192723"><ele>23.0</ele><time>2026-04-02T15:02:23Z</time></trkpt><trkpt lat="45.92977718928142" lon="12.78933701039415"><ele>23.0</ele><time>2026-04-02T15:02:24Z</time></trkpt><trkpt lat="45.9297118251524" lon="12.78925367558559"><ele>23.0</ele><time>2026-04-02T15:02:25Z</time></trkpt><trkpt lat="45.929637686548745" lon="12.789163150837606"><ele>23.0</ele><time>2026-04-02T15:02:26Z</time></trkpt><trkpt lat="45.929554175763826" lon="12.789080110789035"><ele>23.0</ele><time>2026-04-02T15:02:27Z</time></trkpt><trkpt lat="45.92945906830987" lon="12.788993378030078"><ele>23.0</ele><time>2026-04-02T15:02:28Z</time></trkpt><trkpt lat="45.92935967526704" lon="12.78889941615132"><ele>23.0</ele><time>2026-04-02T15:02:29Z</time></trkpt><trkpt lat="45.92926079931363" lon="12.78880562768704"><ele>23.25</ele><time>2026-04-02T15:02:30Z</time></trkpt><trkpt lat="45.92918390454413" lon="12.78870781245776"><ele>23.5</ele><time>2026-04-02T15:02:31Z</time></trkpt><trkpt lat="45.9291053894407" lon="12.788614567777008"><ele>23.75</ele><time>2026-04-02T15:02:32Z</time></trkpt><trkpt lat="45.92901214801236" lon="12.788519305275717"><ele>24.0</ele><time>2026-04-02T15:02:33Z</time></trkpt><trkpt lat="45.92889002134794" lon="12.788403938212046"><ele>24.0</ele><time>2026-04-02T15:02:34Z</time></trkpt><trkpt lat="45.92877385630865" lon="12.7882763178993"><ele>24.0</ele><time>2026-04-02T15:02:35Z</time></trkpt><trkpt lat="45.928652918924186" lon="12.788147464973088"><ele>24.0</ele><time>2026-04-02T15:02:36Z</time></trkpt><trkpt lat="45.928564652499226" lon="12.78801931620679"><ele>24.0</ele><time>2026-04-02T15:02:37Z</time></trkpt><trkpt lat="45.928452339784236" lon="12.787943279378979"><ele>23.5</ele><time>2026-04-02T15:02:38Z</time></trkpt><trkpt lat="45.92835417154589" lon="12.787835301457285"><ele>23.0</ele><time>2026-04-02T15:02:39Z</time></trkpt><trkpt lat="45.92825814670254" lon="12.787724117578765"><ele>22.5</ele><time>2026-04-02T15:02:40Z</time></trkpt><trkpt lat="45.928163783933606" lon="12.78762971743468"><ele>22.0</ele><time>2026-04-02T15:02:41Z</time></trkpt><trkpt lat="45.928070905015836" lon="12.78753599342368"><ele>22.0</ele><time>2026-04-02T15:02:42Z</time></trkpt><trkpt lat="45.927985812035665" lon="12.78744252433524"><ele>22.0</ele><time>2026-04-02T15:02:43Z</time></trkpt><trkpt lat="45.92790749079014" lon="12.787355309613046"><ele>22.0</ele><time>2026-04-02T15:02:44Z</time></trkpt><trkpt lat="45.92784789514874" lon="12.787289382035347"><ele>22.0</ele><time>2026-04-02T15:02:45Z</time></trkpt><trkpt lat="45.927779820475386" lon="12.787239823064757"><ele>22.0</ele><time>2026-04-02T15:02:46Z</time></trkpt><trkpt lat="45.927713381520434" lon="12.787226506576392"><ele>22.0</ele><time>2026-04-02T15:02:47Z</time></trkpt><trkpt lat="45.92764072114591" lon="12.787240929775326"><ele>22.25</ele><time>2026-04-02T15:02:48Z</time></trkpt><trkpt lat="45.9275464338703" lon="12.78728434339188"><ele>22.5</ele><time>2026-04-02T15:02:49Z</time></trkpt><trkpt lat="45.92744350044477" lon="12.78734437181195"><ele>22.75</ele><time>2026-04-02T15:02:50Z</time></trkpt><trkpt lat="45.927326328475075" lon="12.787410968177785"><ele>23.0</ele><time>2026-04-02T15:02:51Z</time></trkpt><trkpt lat="45.927214438838035" lon="12.787471315402335"><ele>23.0</ele><time>2026-04-02T15:02:52Z</time></trkpt><trkpt lat="45.927109899006055" lon="12.787519446734475"><ele>23.0</ele><time>2026-04-02T15:02:53Z</time></trkpt><trkpt lat="45.92701163946257" lon="12.787549013808883"><ele>23.0</ele><time>2026-04-02T15:02:54Z</time></trkpt><trkpt lat="45.92687906896666" lon="12.787587352512794"><ele>23.0</ele><time>2026-04-02T15:02:55Z</time></trkpt><trkpt lat="45.92673489052919" lon="12.787611300789944"><ele>23.0</ele><time>2026-04-02T15:02:56Z</time></trkpt><trkpt lat="45.92659883942904" lon="12.787617032248942"><ele>23.0</ele><time>2026-04-02T15:02:57Z</time></trkpt><trkpt lat="45.926455928068016" lon="12.787606863076668"><ele>23.0</ele><time>2026-04-02T15:02:58Z</time></trkpt><trkpt lat="45.92634991918071" lon="12.78759734175708"><ele>23.0</ele><time>2026-04-02T15:02:59Z</time></trkpt><trkpt lat="45.92624756451305" lon="12.787601114874459"><ele>23.0</ele><time>2026-04-02T15:03:00Z</time></trkpt><trkpt lat="45.9261205275589" lon="12.787594735376697"><ele>23.0</ele><time>2026-04-02T15:03:01Z</time></trkpt><trkpt lat="45.925992833701265" lon="12.787599838068576"><ele>23.0</ele><time>2026-04-02T15:03:02Z</time></trkpt><trkpt lat="45.92588879578978" lon="12.78762565288143"><ele>23.0</ele><time>2026-04-02T15:03:03Z</time></trkpt><trkpt lat="45.92576161641623" lon="12.787618971454117"><ele>22.799999999999997</ele><time>2026-04-02T15:03:04Z</time></trkpt><trkpt lat="45.92562170446886" lon="12.787626682013471"><ele>22.6</ele><time>2026-04-02T15:03:05Z</time></trkpt><trkpt lat="45.92549801350192" lon="12.78761770186022"><ele>22.4</ele><time>2026-04-02T15:03:06Z</time></trkpt><trkpt lat="45.92539791927474" lon="12.787591727790366"><ele>22.200000000000003</ele><time>2026-04-02T15:03:07Z</time></trkpt><trkpt lat="45.92533270403507" lon="12.787569370106471"><ele>22.0</ele><time>2026-04-02T15:03:08Z</time></trkpt><trkpt lat="45.9252045181289" lon="12.787567500148423"><ele>22.0</ele><time>2026-04-02T15:03:10Z</time></trkpt><trkpt lat="45.92513945196971" lon="12.78757592494792"><ele>22.0</ele><time>2026-04-02T15:03:11Z</time></trkpt><trkpt lat="45.92509332094548" lon="12.787658489688228"><ele>22.0</ele><time>2026-04-02T15:03:13Z</time></trkpt><trkpt lat="45.92509294090069" lon="12.787773898880774"><ele>22.0</ele><time>2026-04-02T15:03:15Z</time></trkpt><trkpt lat="45.92515219777135" lon="12.787954074495168"><ele>22.0</ele><time>2026-04-02T15:03:17Z</time></trkpt><trkpt lat="45.92519978586734" lon="12.788070319430584"><ele>22.25</ele><time>2026-04-02T15:03:18Z</time></trkpt><trkpt lat="45.92524833678614" lon="12.788196752188972"><ele>22.5</ele><time>2026-04-02T15:03:19Z</time></trkpt><trkpt lat="45.92523978915907" lon="12.788390570301365"><ele>22.75</ele><time>2026-04-02T15:03:20Z</time></trkpt><trkpt lat="45.92529925777576" lon="12.788557494153224"><ele>23.0</ele><time>2026-04-02T15:03:21Z</time></trkpt><trkpt lat="45.92536405311257" lon="12.788739768631705"><ele>23.0</ele><time>2026-04-02T15:03:22Z</time></trkpt><trkpt lat="45.925421268031684" lon="12.788900718787945"><ele>23.0</ele><time>2026-04-02T15:03:23Z</time></trkpt><trkpt lat="45.925473286849915" lon="12.789047051896747"><ele>23.0</ele><time>2026-04-02T15:03:24Z</time></trkpt><trkpt lat="45.92552487691973" lon="12.789190216916143"><ele>23.0</ele><time>2026-04-02T15:03:25Z</time></trkpt><trkpt lat="45.925578142088824" lon="12.789335215274868"><ele>23.0</ele><time>2026-04-02T15:03:26Z</time></trkpt><trkpt lat="45.92562677279615" lon="12.789455254179954"><ele>23.0</ele><time>2026-04-02T15:03:27Z</time></trkpt><trkpt lat="45.92566942946908" lon="12.789553683400934"><ele>23.0</ele><time>2026-04-02T15:03:28Z</time></trkpt><trkpt lat="45.925703547488304" lon="12.78963483315035"><ele>23.0</ele><time>2026-04-02T15:03:29Z</time></trkpt><trkpt lat="45.92572929401571" lon="12.78974803994664"><ele>23.0</ele><time>2026-04-02T15:03:31Z</time></trkpt><trkpt lat="45.92567190986772" lon="12.789850695851086"><ele>23.0</ele><time>2026-04-02T15:03:33Z</time></trkpt><trkpt lat="45.925575793039904" lon="12.789908880979507"><ele>23.0</ele><time>2026-04-02T15:03:34Z</time></trkpt><trkpt lat="45.92545485128711" lon="12.789965342757347"><ele>23.0</ele><time>2026-04-02T15:03:35Z</time></trkpt><trkpt lat="45.925324757975815" lon="12.790036656032118"><ele>23.0</ele><time>2026-04-02T15:03:36Z</time></trkpt><trkpt lat="45.92521831417355" lon="12.79009467826271"><ele>23.0</ele><time>2026-04-02T15:03:37Z</time></trkpt><trkpt lat="45.92514786669987" lon="12.790146822657622"><ele>23.166666666666668</ele><time>2026-04-02T15:03:38Z</time></trkpt><trkpt lat="45.92509083191202" lon="12.790198628272163"><ele>23.333333333333336</ele><time>2026-04-02T15:03:39Z</time></trkpt><trkpt lat="45.92501303999437" lon="12.790295169563453"><ele>23.5</ele><time>2026-04-02T15:03:41Z</time></trkpt><trkpt lat="45.925038739635085" lon="12.790390619645192"><ele>23.666666666666668</ele><time>2026-04-02T15:03:42Z</time></trkpt><trkpt lat="45.92508945701577" lon="12.790496299287243"><ele>23.833333333333332</ele><time>2026-04-02T15:03:43Z</time></trkpt><trkpt lat="45.92517262031357" lon="12.790617745066854"><ele>24.0</ele><time>2026-04-02T15:03:44Z</time></trkpt><trkpt lat="45.92526443087598" lon="12.79075758379137"><ele>24.0</ele><time>2026-04-02T15:03:45Z</time></trkpt><trkpt lat="45.92535010599956" lon="12.79090148828709"><ele>24.0</ele><time>2026-04-02T15:03:46Z</time></trkpt><trkpt lat="45.92544613691086" lon="12.791057723821178"><ele>24.0</ele><time>2026-04-02T15:03:47Z</time></trkpt><trkpt lat="45.92554481404238" lon="12.79123846812928"><ele>24.0</ele><time>2026-04-02T15:03:48Z</time></trkpt><trkpt lat="45.925648316442114" lon="12.79143684406824"><ele>24.333333333333336</ele><time>2026-04-02T15:03:49Z</time></trkpt><trkpt lat="45.925782342193116" lon="12.791693655803565"><ele>24.666666666666668</ele><time>2026-04-02T15:03:50Z</time></trkpt><trkpt lat="45.92591240514014" lon="12.79189539363969"><ele>25.0</ele><time>2026-04-02T15:03:51Z</time></trkpt><trkpt lat="45.92600321497968" lon="12.79207890574184"><ele>25.0</ele><time>2026-04-02T15:03:52Z</time></trkpt><trkpt lat="45.9260875059039" lon="12.792261372355366"><ele>25.0</ele><time>2026-04-02T15:03:53Z</time></trkpt><trkpt lat="45.92616864092104" lon="12.79241626084723"><ele>25.0</ele><time>2026-04-02T15:03:54Z</time></trkpt><trkpt lat="45.926242807542124" lon="12.792567645981546"><ele>25.0</ele><time>2026-04-02T15:03:55Z</time></trkpt><trkpt lat="45.92628907007462" lon="12.792682448762598"><ele>25.0</ele><time>2026-04-02T15:03:56Z</time></trkpt><trkpt lat="45.92633785931152" lon="12.792790707165755"><ele>25.0</ele><time>2026-04-02T15:03:57Z</time></trkpt><trkpt lat="45.92639938464766" lon="12.792905296197304"><ele>25.0</ele><time>2026-04-02T15:03:58Z</time></trkpt><trkpt lat="45.92644840869971" lon="12.79303243564574"><ele>25.0</ele><time>2026-04-02T15:03:59Z</time></trkpt><trkpt lat="45.92647695996169" lon="12.793173052578872"><ele>25.0</ele><time>2026-04-02T15:04:01Z</time></trkpt><trkpt lat="45.926340899737866" lon="12.79326170663194"><ele>25.0</ele><time>2026-04-02T15:04:03Z</time></trkpt><trkpt lat="45.92624531014356" lon="12.793371756659"><ele>25.0</ele><time>2026-04-02T15:04:04Z</time></trkpt><trkpt lat="45.926136464562376" lon="12.793494366462573"><ele>25.0</ele><time>2026-04-02T15:04:05Z</time></trkpt><trkpt lat="45.92601304833807" lon="12.793634605359204"><ele>25.0</ele><time>2026-04-02T15:04:06Z</time></trkpt><trkpt lat="45.9258774671995" lon="12.793788667349952"><ele>25.5</ele><time>2026-04-02T15:04:07Z</time></trkpt><trkpt lat="45.925758845047035" lon="12.793921984364067"><ele>26.0</ele><time>2026-04-02T15:04:08Z</time></trkpt><trkpt lat="45.925653896641" lon="12.794040756428794"><ele>26.5</ele><time>2026-04-02T15:04:09Z</time></trkpt><trkpt lat="45.92556700401722" lon="12.794115818769212"><ele>27.0</ele><time>2026-04-02T15:04:10Z</time></trkpt><trkpt lat="45.92549009737118" lon="12.794183574260565"><ele>27.0</ele><time>2026-04-02T15:04:11Z</time></trkpt><trkpt lat="45.92542399567372" lon="12.794238047717723"><ele>27.0</ele><time>2026-04-02T15:04:12Z</time></trkpt><trkpt lat="45.92535770874673" lon="12.79430859237974"><ele>27.0</ele><time>2026-04-02T15:04:13Z</time></trkpt><trkpt lat="45.92534668361553" lon="12.794431956047534"><ele>27.0</ele><time>2026-04-02T15:04:15Z</time></trkpt><trkpt lat="45.92539153131912" lon="12.794499223168401"><ele>27.0</ele><time>2026-04-02T15:04:16Z</time></trkpt><trkpt lat="45.925452066255644" lon="12.794615247492711"><ele>27.0</ele><time>2026-04-02T15:04:17Z</time></trkpt><trkpt lat="45.92554422439353" lon="12.794783186736357"><ele>27.666666666666664</ele><time>2026-04-02T15:04:18Z</time></trkpt><trkpt lat="45.925659836329146" lon="12.794959413152306"><ele>28.333333333333332</ele><time>2026-04-02T15:04:19Z</time></trkpt><trkpt lat="45.925763413837565" lon="12.795129993381728"><ele>29.0</ele><time>2026-04-02T15:04:20Z</time></trkpt><trkpt lat="45.925842295431075" lon="12.79527251530149"><ele>29.75</ele><time>2026-04-02T15:04:21Z</time></trkpt><trkpt lat="45.92591176396006" lon="12.795401348201617"><ele>30.5</ele><time>2026-04-02T15:04:22Z</time></trkpt><trkpt lat="45.92597604498346" lon="12.795521666263369"><ele>31.25</ele><time>2026-04-02T15:04:23Z</time></trkpt><trkpt lat="45.926045783507" lon="12.79565313269009"><ele>32.0</ele><time>2026-04-02T15:04:24Z</time></trkpt><trkpt lat="45.926128781807314" lon="12.795802964041481"><ele>32.0</ele><time>2026-04-02T15:04:25Z</time></trkpt><trkpt lat="45.9262051798316" lon="12.795930761306247"><ele>32.0</ele><time>2026-04-02T15:04:26Z</time></trkpt><trkpt lat="45.926275543764746" lon="12.79605468518834"><ele>32.0</ele><time>2026-04-02T15:04:27Z</time></trkpt><trkpt lat="45.92635555228742" lon="12.796173580448007"><ele>32.0</ele><time>2026-04-02T15:04:28Z</time></trkpt><trkpt lat="45.92643516113415" lon="12.796295133003593"><ele>31.0</ele><time>2026-04-02T15:04:29Z</time></trkpt><trkpt lat="45.92651444382625" lon="12.796430241907649"><ele>30.0</ele><time>2026-04-02T15:04:30Z</time></trkpt><trkpt lat="45.92660619196427" lon="12.796594472429161"><ele>29.0</ele><time>2026-04-02T15:04:31Z</time></trkpt><trkpt lat="45.926708119441024" lon="12.796755964095373"><ele>28.0</ele><time>2026-04-02T15:04:32Z</time></trkpt><trkpt lat="45.92681963470699" lon="12.796897827686823"><ele>27.666666666666668</ele><time>2026-04-02T15:04:33Z</time></trkpt><trkpt lat="45.92693783587502" lon="12.797045167540528"><ele>27.333333333333336</ele><time>2026-04-02T15:04:34Z</time></trkpt><trkpt lat="45.9270578776871" lon="12.797204281292352"><ele>27.0</ele><time>2026-04-02T15:04:35Z</time></trkpt><trkpt lat="45.927168722803884" lon="12.797342666840164"><ele>27.0</ele><time>2026-04-02T15:04:36Z</time></trkpt><trkpt lat="45.927264675315286" lon="12.79747713142144"><ele>27.0</ele><time>2026-04-02T15:04:37Z</time></trkpt><trkpt lat="45.92736757542974" lon="12.797609770372308"><ele>27.0</ele><time>2026-04-02T15:04:38Z</time></trkpt><trkpt lat="45.927473727123754" lon="12.797745715841398"><ele>27.0</ele><time>2026-04-02T15:04:39Z</time></trkpt><trkpt lat="45.927605612830185" lon="12.79787236367917"><ele>26.75</ele><time>2026-04-02T15:04:40Z</time></trkpt><trkpt lat="45.92770074363281" lon="12.798020544622027"><ele>26.5</ele><time>2026-04-02T15:04:41Z</time></trkpt><trkpt lat="45.92781060188838" lon="12.798168127351211"><ele>26.25</ele><time>2026-04-02T15:04:42Z</time></trkpt><trkpt lat="45.92790940378637" lon="12.798300857059205"><ele>26.0</ele><time>2026-04-02T15:04:43Z</time></trkpt><trkpt lat="45.92800966855029" lon="12.798435551971899"><ele>26.25</ele><time>2026-04-02T15:04:44Z</time></trkpt><trkpt lat="45.92810967274909" lon="12.798569232673502"><ele>26.5</ele><time>2026-04-02T15:04:45Z</time></trkpt><trkpt lat="45.92820950042586" lon="12.79870258987044"><ele>26.75</ele><time>2026-04-02T15:04:46Z</time></trkpt><trkpt lat="45.92831656692762" lon="12.798846724381843"><ele>27.0</ele><time>2026-04-02T15:04:47Z</time></trkpt><trkpt lat="45.92842620221408" lon="12.79900373079728"><ele>27.0</ele><time>2026-04-02T15:04:48Z</time></trkpt><trkpt lat="45.92854206963297" lon="12.799186301468987"><ele>27.0</ele><time>2026-04-02T15:04:49Z</time></trkpt><trkpt lat="45.92864427194639" lon="12.799360480627687"><ele>27.0</ele><time>2026-04-02T15:04:50Z</time></trkpt><trkpt lat="45.9287340740003" lon="12.799518183371784"><ele>27.0</ele><time>2026-04-02T15:04:51Z</time></trkpt><trkpt lat="45.92882313900718" lon="12.799672379759578"><ele>27.0</ele><time>2026-04-02T15:04:52Z</time></trkpt><trkpt lat="45.92891797358051" lon="12.79983551923307"><ele>27.0</ele><time>2026-04-02T15:04:53Z</time></trkpt><trkpt lat="45.92901481813891" lon="12.800000863689718"><ele>27.0</ele><time>2026-04-02T15:04:54Z</time></trkpt><trkpt lat="45.92911815520994" lon="12.800153673286173"><ele>27.0</ele><time>2026-04-02T15:04:55Z</time></trkpt><trkpt lat="45.92922693336679" lon="12.800291961521538"><ele>27.0</ele><time>2026-04-02T15:04:56Z</time></trkpt><trkpt lat="45.92933595564397" lon="12.800422066423108"><ele>27.0</ele><time>2026-04-02T15:04:57Z</time></trkpt><trkpt lat="45.92945848322043" lon="12.800538615178242"><ele>27.0</ele><time>2026-04-02T15:04:58Z</time></trkpt><trkpt lat="45.92955336373383" lon="12.800690595067545"><ele>27.0</ele><time>2026-04-02T15:04:59Z</time></trkpt><trkpt lat="45.929660261697414" lon="12.800830356821228"><ele>27.0</ele><time>2026-04-02T15:05:00Z</time></trkpt><trkpt lat="45.92976939887402" lon="12.800974482255489"><ele>27.0</ele><time>2026-04-02T15:05:01Z</time></trkpt><trkpt lat="45.92988268042592" lon="12.801094933579035"><ele>27.0</ele><time>2026-04-02T15:05:02Z</time></trkpt><trkpt lat="45.929987429109104" lon="12.801233816857264"><ele>27.0</ele><time>2026-04-02T15:05:03Z</time></trkpt><trkpt lat="45.93010149320748" lon="12.80138508880607"><ele>27.0</ele><time>2026-04-02T15:05:04Z</time></trkpt><trkpt lat="45.93021386177051" lon="12.801543631712999"><ele>27.0</ele><time>2026-04-02T15:05:05Z</time></trkpt><trkpt lat="45.93033993306388" lon="12.801687253821097"><ele>27.0</ele><time>2026-04-02T15:05:06Z</time></trkpt><trkpt lat="45.930468882109665" lon="12.80183408980111"><ele>27.0</ele><time>2026-04-02T15:05:07Z</time></trkpt><trkpt lat="45.93060463090752" lon="12.801960480481986"><ele>27.0</ele><time>2026-04-02T15:05:08Z</time></trkpt><trkpt lat="45.93071739221055" lon="12.802119668209851"><ele>27.0</ele><time>2026-04-02T15:05:09Z</time></trkpt><trkpt lat="45.930838258807285" lon="12.802258563615455"><ele>27.0</ele><time>2026-04-02T15:05:10Z</time></trkpt><trkpt lat="45.93095960401365" lon="12.802398327118816"><ele>27.0</ele><time>2026-04-02T15:05:11Z</time></trkpt><trkpt lat="45.93108070982431" lon="12.802538050678956"><ele>26.666666666666664</ele><time>2026-04-02T15:05:12Z</time></trkpt><trkpt lat="45.93120176735812" lon="12.802677718540407"><ele>26.333333333333332</ele><time>2026-04-02T15:05:13Z</time></trkpt><trkpt lat="45.93132403193294" lon="12.802818779027431"><ele>26.0</ele><time>2026-04-02T15:05:14Z</time></trkpt><trkpt lat="45.93145513219134" lon="12.802970033497953"><ele>26.0</ele><time>2026-04-02T15:05:15Z</time></trkpt><trkpt lat="45.93156840596798" lon="12.803100721006155"><ele>26.0</ele><time>2026-04-02T15:05:16Z</time></trkpt><trkpt lat="45.93166984551622" lon="12.803216044460255"><ele>26.0</ele><time>2026-04-02T15:05:17Z</time></trkpt><trkpt lat="45.93176417018982" lon="12.803321097553724"><ele>26.0</ele><time>2026-04-02T15:05:18Z</time></trkpt><trkpt lat="45.93186422565486" lon="12.80341053301548"><ele>26.5</ele><time>2026-04-02T15:05:19Z</time></trkpt><trkpt lat="45.931943902821956" lon="12.803536382107227"><ele>27.0</ele><time>2026-04-02T15:05:20Z</time></trkpt><trkpt lat="45.93201981972957" lon="12.803675007466222"><ele>27.5</ele><time>2026-04-02T15:05:21Z</time></trkpt><trkpt lat="45.932117176959466" lon="12.803842887673754"><ele>28.0</ele><time>2026-04-02T15:05:22Z</time></trkpt><trkpt lat="45.93222145886021" lon="12.80403234688769"><ele>28.0</ele><time>2026-04-02T15:05:23Z</time></trkpt><trkpt lat="45.93231234461479" lon="12.804213625636722"><ele>28.0</ele><time>2026-04-02T15:05:24Z</time></trkpt><trkpt lat="45.93239339574921" lon="12.80436112154384"><ele>28.0</ele><time>2026-04-02T15:05:25Z</time></trkpt><trkpt lat="45.932471911581615" lon="12.804504523349657"><ele>28.0</ele><time>2026-04-02T15:05:26Z</time></trkpt><trkpt lat="45.93254547725438" lon="12.804645747171932"><ele>28.25</ele><time>2026-04-02T15:05:27Z</time></trkpt><trkpt lat="45.93261343960911" lon="12.804794601049062"><ele>28.5</ele><time>2026-04-02T15:05:28Z</time></trkpt><trkpt lat="45.93267783161671" lon="12.804954940284714"><ele>28.75</ele><time>2026-04-02T15:05:29Z</time></trkpt><trkpt lat="45.932743633757745" lon="12.805118098689793"><ele>29.0</ele><time>2026-04-02T15:05:30Z</time></trkpt><trkpt lat="45.93280814745944" lon="12.805292849578995"><ele>28.0</ele><time>2026-04-02T15:05:31Z</time></trkpt><trkpt lat="45.9328640444079" lon="12.8054703944274"><ele>27.0</ele><time>2026-04-02T15:05:32Z</time></trkpt><trkpt lat="45.93292018562681" lon="12.805630704972183"><ele>26.0</ele><time>2026-04-02T15:05:33Z</time></trkpt><trkpt lat="45.93298372913146" lon="12.805781325721135"><ele>25.0</ele><time>2026-04-02T15:05:34Z</time></trkpt><trkpt lat="45.93304188008567" lon="12.805922981851213"><ele>25.2</ele><time>2026-04-02T15:05:35Z</time></trkpt><trkpt lat="45.933092872585085" lon="12.80605067052957"><ele>25.4</ele><time>2026-04-02T15:05:36Z</time></trkpt><trkpt lat="45.93313777672051" lon="12.806162697763552"><ele>25.6</ele><time>2026-04-02T15:05:37Z</time></trkpt><trkpt lat="45.93317759188999" lon="12.806260078062136"><ele>25.8</ele><time>2026-04-02T15:05:38Z</time></trkpt><trkpt lat="45.933204785664955" lon="12.806391402859662"><ele>26.0</ele><time>2026-04-02T15:05:40Z</time></trkpt><trkpt lat="45.93313161834402" lon="12.806524547447244"><ele>26.0</ele><time>2026-04-02T15:05:42Z</time></trkpt><trkpt lat="45.9330373314405" lon="12.806591381578453"><ele>26.0</ele><time>2026-04-02T15:05:43Z</time></trkpt><trkpt lat="45.93294564229238" lon="12.806678318519594"><ele>26.0</ele><time>2026-04-02T15:05:44Z</time></trkpt><trkpt lat="45.93283187393127" lon="12.806759235720389"><ele>26.0</ele><time>2026-04-02T15:05:45Z</time></trkpt><trkpt lat="45.93272006502982" lon="12.806837227170144"><ele>26.200000000000003</ele><time>2026-04-02T15:05:46Z</time></trkpt><trkpt lat="45.9326268250192" lon="12.806906933816744"><ele>26.400000000000002</ele><time>2026-04-02T15:05:47Z</time></trkpt><trkpt lat="45.932555436401955" lon="12.806979119808513"><ele>26.6</ele><time>2026-04-02T15:05:48Z</time></trkpt><trkpt lat="45.93249366611529" lon="12.807062420824181"><ele>26.8</ele><time>2026-04-02T15:05:49Z</time></trkpt><trkpt lat="45.932446664705374" lon="12.807180975136465"><ele>27.0</ele><time>2026-04-02T15:05:50Z</time></trkpt><trkpt lat="45.932405984983035" lon="12.807355253568424"><ele>27.25</ele><time>2026-04-02T15:05:51Z</time></trkpt><trkpt lat="45.932360781271846" lon="12.807551992756835"><ele>27.5</ele><time>2026-04-02T15:05:52Z</time></trkpt><trkpt lat="45.932338669986265" lon="12.807739651565502"><ele>27.75</ele><time>2026-04-02T15:05:53Z</time></trkpt><trkpt lat="45.932300996259634" lon="12.807877859025174"><ele>28.0</ele><time>2026-04-02T15:05:54Z</time></trkpt><trkpt lat="45.93224679940199" lon="12.807990833686366"><ele>28.0</ele><time>2026-04-02T15:05:55Z</time></trkpt><trkpt lat="45.932164987673694" lon="12.808078892183005"><ele>27.999999999999996</ele><time>2026-04-02T15:05:56Z</time></trkpt><trkpt lat="45.93207328064587" lon="12.808157744026376"><ele>27.999999999999996</ele><time>2026-04-02T15:05:57Z</time></trkpt><trkpt lat="45.931996952954435" lon="12.808232620411594"><ele>28.0</ele><time>2026-04-02T15:05:58Z</time></trkpt><trkpt lat="45.93193659912941" lon="12.808325845206063"><ele>28.0</ele><time>2026-04-02T15:05:59Z</time></trkpt><trkpt lat="45.93189693250099" lon="12.808456952638304"><ele>27.75</ele><time>2026-04-02T15:06:00Z</time></trkpt><trkpt lat="45.9318867537042" lon="12.808619979641406"><ele>27.5</ele><time>2026-04-02T15:06:01Z</time></trkpt><trkpt lat="45.931896250699104" lon="12.808812601443428"><ele>27.25</ele><time>2026-04-02T15:06:02Z</time></trkpt><trkpt lat="45.93193041290807" lon="12.809005296829607"><ele>27.0</ele><time>2026-04-02T15:06:03Z</time></trkpt><trkpt lat="45.93197950645203" lon="12.809186243156159"><ele>26.666666666666664</ele><time>2026-04-02T15:06:04Z</time></trkpt><trkpt lat="45.93209054284766" lon="12.809353164291473"><ele>26.333333333333332</ele><time>2026-04-02T15:06:05Z</time></trkpt><trkpt lat="45.9322175466835" lon="12.809542796195466"><ele>26.0</ele><time>2026-04-02T15:06:06Z</time></trkpt><trkpt lat="45.93233971583897" lon="12.809702323237014"><ele>26.0</ele><time>2026-04-02T15:06:07Z</time></trkpt><trkpt lat="45.93242468248915" lon="12.809839269280534"><ele>26.0</ele><time>2026-04-02T15:06:08Z</time></trkpt><trkpt lat="45.93252235676152" lon="12.809934668639169"><ele>26.0</ele><time>2026-04-02T15:06:09Z</time></trkpt><trkpt lat="45.932593657947926" lon="12.810048879484324"><ele>26.0</ele><time>2026-04-02T15:06:10Z</time></trkpt><trkpt lat="45.93264739046546" lon="12.810172986274486"><ele>26.25</ele><time>2026-04-02T15:06:11Z</time></trkpt><trkpt lat="45.9326811234029" lon="12.810317972124492"><ele>26.5</ele><time>2026-04-02T15:06:12Z</time></trkpt><trkpt lat="45.93269419674979" lon="12.810498709923253"><ele>26.75</ele><time>2026-04-02T15:06:13Z</time></trkpt><trkpt lat="45.932683287573845" lon="12.810739879763995"><ele>27.0</ele><time>2026-04-02T15:06:14Z</time></trkpt><trkpt lat="45.932660559130994" lon="12.811008657093188"><ele>27.0</ele><time>2026-04-02T15:06:15Z</time></trkpt><trkpt lat="45.932636005240624" lon="12.811235918168922"><ele>27.0</ele><time>2026-04-02T15:06:16Z</time></trkpt><trkpt lat="45.93262252893517" lon="12.811430453824688"><ele>27.0</ele><time>2026-04-02T15:06:17Z</time></trkpt><trkpt lat="45.932609972030626" lon="12.811601964859728"><ele>27.0</ele><time>2026-04-02T15:06:18Z</time></trkpt><trkpt lat="45.9325897532378" lon="12.811743599125219"><ele>27.5</ele><time>2026-04-02T15:06:19Z</time></trkpt><trkpt lat="45.93258640039415" lon="12.811861276179998"><ele>28.0</ele><time>2026-04-02T15:06:20Z</time></trkpt><trkpt lat="45.932544021745876" lon="12.812005606995532"><ele>28.5</ele><time>2026-04-02T15:06:21Z</time></trkpt><trkpt lat="45.93247455196091" lon="12.81217467097641"><ele>29.0</ele><time>2026-04-02T15:06:22Z</time></trkpt><trkpt lat="45.93238712535288" lon="12.812331319296332"><ele>28.799999999999997</ele><time>2026-04-02T15:06:23Z</time></trkpt><trkpt lat="45.93232423273349" lon="12.812472978499326"><ele>28.599999999999998</ele><time>2026-04-02T15:06:24Z</time></trkpt><trkpt lat="45.93226493661921" lon="12.812595081376038"><ele>28.4</ele><time>2026-04-02T15:06:25Z</time></trkpt><trkpt lat="45.93219497001586" lon="12.812704589941504"><ele>28.2</ele><time>2026-04-02T15:06:26Z</time></trkpt><trkpt lat="45.93211541468658" lon="12.812811696446083"><ele>28.0</ele><time>2026-04-02T15:06:27Z</time></trkpt><trkpt lat="45.932049362794345" lon="12.81294053360414"><ele>28.0</ele><time>2026-04-02T15:06:28Z</time></trkpt><trkpt lat="45.932000830425466" lon="12.813098045688385"><ele>27.999999999999996</ele><time>2026-04-02T15:06:29Z</time></trkpt><trkpt lat="45.93195670860982" lon="12.813241365505409"><ele>27.999999999999996</ele><time>2026-04-02T15:06:30Z</time></trkpt><trkpt lat="45.93194462144043" lon="12.813387645066426"><ele>28.0</ele><time>2026-04-02T15:06:31Z</time></trkpt><trkpt lat="45.93194046899912" lon="12.813504835915525"><ele>28.0</ele><time>2026-04-02T15:06:32Z</time></trkpt><trkpt lat="45.93199810373441" lon="12.81366940281817"><ele>28.25</ele><time>2026-04-02T15:06:33Z</time></trkpt><trkpt lat="45.93205272043393" lon="12.81383893216978"><ele>28.5</ele><time>2026-04-02T15:06:34Z</time></trkpt><trkpt lat="45.932105870350824" lon="12.81405748003634"><ele>28.75</ele><time>2026-04-02T15:06:35Z</time></trkpt><trkpt lat="45.93218109182631" lon="12.81424090981591"><ele>29.0</ele><time>2026-04-02T15:06:36Z</time></trkpt><trkpt lat="45.93223572184759" lon="12.81440456753833"><ele>29.25</ele><time>2026-04-02T15:06:37Z</time></trkpt><trkpt lat="45.93228073670754" lon="12.814572916139271"><ele>29.5</ele><time>2026-04-02T15:06:38Z</time></trkpt><trkpt lat="45.93233328718883" lon="12.814735152043312"><ele>29.75</ele><time>2026-04-02T15:06:39Z</time></trkpt><trkpt lat="45.932403812280995" lon="12.81489775554182"><ele>30.0</ele><time>2026-04-02T15:06:40Z</time></trkpt><trkpt lat="45.93245582370232" lon="12.815082942770015"><ele>30.0</ele><time>2026-04-02T15:06:41Z</time></trkpt><trkpt lat="45.93251328265732" lon="12.815265566845968"><ele>30.0</ele><time>2026-04-02T15:06:42Z</time></trkpt><trkpt lat="45.932566205038555" lon="12.81545233619658"><ele>30.0</ele><time>2026-04-02T15:06:43Z</time></trkpt><trkpt lat="45.932612969735786" lon="12.815631888817112"><ele>30.0</ele><time>2026-04-02T15:06:44Z</time></trkpt><trkpt lat="45.93265150400977" lon="12.815801387851755"><ele>30.0</ele><time>2026-04-02T15:06:45Z</time></trkpt><trkpt lat="45.9326922071923" lon="12.815969520982202"><ele>30.0</ele><time>2026-04-02T15:06:46Z</time></trkpt><trkpt lat="45.93273417129493" lon="12.816141792768"><ele>30.0</ele><time>2026-04-02T15:06:47Z</time></trkpt><trkpt lat="45.93279343628499" lon="12.816308646724682"><ele>30.0</ele><time>2026-04-02T15:06:48Z</time></trkpt><trkpt lat="45.93286032005818" lon="12.816467764980816"><ele>30.0</ele><time>2026-04-02T15:06:49Z</time></trkpt><trkpt lat="45.932931514340375" lon="12.816628919315782"><ele>30.0</ele><time>2026-04-02T15:06:50Z</time></trkpt><trkpt lat="45.93300634629991" lon="12.816794189477863"><ele>30.0</ele><time>2026-04-02T15:06:51Z</time></trkpt><trkpt lat="45.93308761274282" lon="12.816964699708372"><ele>30.0</ele><time>2026-04-02T15:06:52Z</time></trkpt><trkpt lat="45.93318175580056" lon="12.817127687512555"><ele>29.75</ele><time>2026-04-02T15:06:53Z</time></trkpt><trkpt lat="45.93326230816327" lon="12.81729223929836"><ele>29.5</ele><time>2026-04-02T15:06:54Z</time></trkpt><trkpt lat="45.9333542495829" lon="12.81743805375676"><ele>29.25</ele><time>2026-04-02T15:06:55Z</time></trkpt><trkpt lat="45.9334132412827" lon="12.817607705294046"><ele>29.0</ele><time>2026-04-02T15:06:56Z</time></trkpt><trkpt lat="45.93349685633005" lon="12.81774777244248"><ele>28.799999999999997</ele><time>2026-04-02T15:06:57Z</time></trkpt><trkpt lat="45.93356138314942" lon="12.81787994642118"><ele>28.599999999999998</ele><time>2026-04-02T15:06:58Z</time></trkpt><trkpt lat="45.933612949037624" lon="12.81800192039538"><ele>28.4</ele><time>2026-04-02T15:06:59Z</time></trkpt><trkpt lat="45.93366311990358" lon="12.818119359507827"><ele>28.2</ele><time>2026-04-02T15:07:00Z</time></trkpt><trkpt lat="45.93371339367893" lon="12.818237066477778"><ele>28.0</ele><time>2026-04-02T15:07:01Z</time></trkpt><trkpt lat="45.9337619414105" lon="12.818357178574217"><ele>28.0</ele><time>2026-04-02T15:07:02Z</time></trkpt><trkpt lat="45.93380854663472" lon="12.818471480546712"><ele>27.999999999999996</ele><time>2026-04-02T15:07:03Z</time></trkpt><trkpt lat="45.93385241360639" lon="12.818579907715225"><ele>27.999999999999996</ele><time>2026-04-02T15:07:04Z</time></trkpt><trkpt lat="45.933905059689465" lon="12.81869002372604"><ele>28.0</ele><time>2026-04-02T15:07:05Z</time></trkpt><trkpt lat="45.93395244946606" lon="12.81880396889105"><ele>28.0</ele><time>2026-04-02T15:07:06Z</time></trkpt><trkpt lat="45.934002620467204" lon="12.818918359190276"><ele>28.4</ele><time>2026-04-02T15:07:07Z</time></trkpt><trkpt lat="45.93405624879255" lon="12.819032324256373"><ele>28.799999999999997</ele><time>2026-04-02T15:07:08Z</time></trkpt><trkpt lat="45.934114391541996" lon="12.819144249841836"><ele>29.2</ele><time>2026-04-02T15:07:09Z</time></trkpt><trkpt lat="45.934172006099075" lon="12.819273675674005"><ele>29.6</ele><time>2026-04-02T15:07:10Z</time></trkpt><trkpt lat="45.93424008598397" lon="12.819399748671124"><ele>30.0</ele><time>2026-04-02T15:07:11Z</time></trkpt><trkpt lat="45.93430804250775" lon="12.819548267198881"><ele>30.0</ele><time>2026-04-02T15:07:12Z</time></trkpt><trkpt lat="45.93437323524511" lon="12.819731756692754"><ele>30.0</ele><time>2026-04-02T15:07:13Z</time></trkpt><trkpt lat="45.93444452834648" lon="12.819931548213871"><ele>30.0</ele><time>2026-04-02T15:07:14Z</time></trkpt><trkpt lat="45.934528636872905" lon="12.820140496572252"><ele>29.5</ele><time>2026-04-02T15:07:15Z</time></trkpt><trkpt lat="45.9346032529326" lon="12.820338045019744"><ele>29.0</ele><time>2026-04-02T15:07:16Z</time></trkpt><trkpt lat="45.93466818173686" lon="12.820509051973083"><ele>28.5</ele><time>2026-04-02T15:07:17Z</time></trkpt><trkpt lat="45.934738131203176" lon="12.82068000083782"><ele>28.0</ele><time>2026-04-02T15:07:18Z</time></trkpt><trkpt lat="45.93480508859049" lon="12.820856244117763"><ele>28.5</ele><time>2026-04-02T15:07:19Z</time></trkpt><trkpt lat="45.93487577568717" lon="12.821023851125087"><ele>29.0</ele><time>2026-04-02T15:07:20Z</time></trkpt><trkpt lat="45.93494397995188" lon="12.82118588186826"><ele>29.5</ele><time>2026-04-02T15:07:21Z</time></trkpt><trkpt lat="45.93501421014909" lon="12.821344720234256"><ele>30.0</ele><time>2026-04-02T15:07:22Z</time></trkpt><trkpt lat="45.9350926578011" lon="12.82149290138151"><ele>30.0</ele><time>2026-04-02T15:07:23Z</time></trkpt><trkpt lat="45.935171844309465" lon="12.821644194182245"><ele>30.0</ele><time>2026-04-02T15:07:24Z</time></trkpt><trkpt lat="45.93525695197038" lon="12.821799513221796"><ele>30.0</ele><time>2026-04-02T15:07:25Z</time></trkpt><trkpt lat="45.93535948705028" lon="12.821956386209685"><ele>30.0</ele><time>2026-04-02T15:07:26Z</time></trkpt><trkpt lat="45.935456221894775" lon="12.822112476222532"><ele>30.0</ele><time>2026-04-02T15:07:27Z</time></trkpt><trkpt lat="45.93553561317393" lon="12.822259314503617"><ele>30.0</ele><time>2026-04-02T15:07:28Z</time></trkpt><trkpt lat="45.93561827148703" lon="12.822411973390146"><ele>30.0</ele><time>2026-04-02T15:07:29Z</time></trkpt><trkpt lat="45.93570776418713" lon="12.822567831375562"><ele>30.0</ele><time>2026-04-02T15:07:30Z</time></trkpt><trkpt lat="45.93581262857533" lon="12.822719826479128"><ele>30.0</ele><time>2026-04-02T15:07:31Z</time></trkpt><trkpt lat="45.93591658601633" lon="12.822874495475567"><ele>30.0</ele><time>2026-04-02T15:07:32Z</time></trkpt><trkpt lat="45.93602284591183" lon="12.823026684227292"><ele>30.0</ele><time>2026-04-02T15:07:32.999Z</time></trkpt><trkpt lat="45.93613230459632" lon="12.823181690632863"><ele>30.0</ele><time>2026-04-02T15:07:33.999Z</time></trkpt><trkpt lat="45.93623823712137" lon="12.823328018487032"><ele>30.0</ele><time>2026-04-02T15:07:35Z</time></trkpt><trkpt lat="45.93635043873696" lon="12.823479395323654"><ele>30.0</ele><time>2026-04-02T15:07:36Z</time></trkpt><trkpt lat="45.936460567177996" lon="12.8236315952455"><ele>30.0</ele><time>2026-04-02T15:07:37Z</time></trkpt><trkpt lat="45.936550246387625" lon="12.823771887140412"><ele>30.0</ele><time>2026-04-02T15:07:38Z</time></trkpt><trkpt lat="45.93666013821938" lon="12.823921855754913"><ele>30.0</ele><time>2026-04-02T15:07:39Z</time></trkpt><trkpt lat="45.93675819992443" lon="12.82403990226444"><ele>30.0</ele><time>2026-04-02T15:07:40Z</time></trkpt><trkpt lat="45.93684892780949" lon="12.824162500030605"><ele>30.0</ele><time>2026-04-02T15:07:41Z</time></trkpt><trkpt lat="45.93693641751479" lon="12.824287812333234"><ele>30.0</ele><time>2026-04-02T15:07:42Z</time></trkpt><trkpt lat="45.937013507446174" lon="12.82444019761115"><ele>30.0</ele><time>2026-04-02T15:07:43Z</time></trkpt><trkpt lat="45.93709033007982" lon="12.824577263496636"><ele>30.0</ele><time>2026-04-02T15:07:44Z</time></trkpt><trkpt lat="45.9371511626672" lon="12.82469858867439"><ele>30.0</ele><time>2026-04-02T15:07:45Z</time></trkpt><trkpt lat="45.93722035190797" lon="12.824833381333782"><ele>30.0</ele><time>2026-04-02T15:07:46Z</time></trkpt><trkpt lat="45.93726355308968" lon="12.824936190362354"><ele>30.0</ele><time>2026-04-02T15:07:47Z</time></trkpt><trkpt lat="45.93729706554867" lon="12.825021566065026"><ele>30.0</ele><time>2026-04-02T15:07:48Z</time></trkpt><trkpt lat="45.937328473999784" lon="12.825155731003845"><ele>30.0</ele><time>2026-04-02T15:07:50Z</time></trkpt><trkpt lat="45.93722239757618" lon="12.825232402817091"><ele>30.0</ele><time>2026-04-02T15:07:53Z</time></trkpt><trkpt lat="45.93714072806689" lon="12.825297516892308"><ele>30.0</ele><time>2026-04-02T15:07:54Z</time></trkpt><trkpt lat="45.93705548767172" lon="12.825372526899717"><ele>30.0</ele><time>2026-04-02T15:07:55Z</time></trkpt><trkpt lat="45.936965168084164" lon="12.825449964932151"><ele>30.0</ele><time>2026-04-02T15:07:56Z</time></trkpt><trkpt lat="45.936857061284165" lon="12.825542653284746"><ele>30.0</ele><time>2026-04-02T15:07:57Z</time></trkpt><trkpt lat="45.93674396481527" lon="12.825639619656709"><ele>29.333333333333336</ele><time>2026-04-02T15:07:58Z</time></trkpt><trkpt lat="45.936605654402044" lon="12.825758203914484"><ele>28.666666666666668</ele><time>2026-04-02T15:07:59Z</time></trkpt><trkpt lat="45.93645556716675" lon="12.825890155943124"><ele>28.0</ele><time>2026-04-02T15:08:00Z</time></trkpt><trkpt lat="45.93630480630018" lon="12.826036700572416"><ele>28.0</ele><time>2026-04-02T15:08:01Z</time></trkpt><trkpt lat="45.93614768214756" lon="12.826186222413506"><ele>28.0</ele><time>2026-04-02T15:08:02Z</time></trkpt><trkpt lat="45.93600492279919" lon="12.826303253868351"><ele>28.0</ele><time>2026-04-02T15:08:03Z</time></trkpt><trkpt lat="45.935862282465045" lon="12.826434826105249"><ele>28.5</ele><time>2026-04-02T15:08:04Z</time></trkpt><trkpt lat="45.935754517688" lon="12.826539178542278"><ele>29.0</ele><time>2026-04-02T15:08:05Z</time></trkpt><trkpt lat="45.93565681095514" lon="12.82663303919057"><ele>29.5</ele><time>2026-04-02T15:08:06Z</time></trkpt><trkpt lat="45.93555113591502" lon="12.826731838578304"><ele>30.0</ele><time>2026-04-02T15:08:07Z</time></trkpt><trkpt lat="45.93544580990645" lon="12.826828436090212"><ele>30.0</ele><time>2026-04-02T15:08:08Z</time></trkpt><trkpt lat="45.93534272204691" lon="12.826922980931263"><ele>30.0</ele><time>2026-04-02T15:08:09Z</time></trkpt><trkpt lat="45.93523349630873" lon="12.827003231835997"><ele>30.0</ele><time>2026-04-02T15:08:10Z</time></trkpt><trkpt lat="45.93514488625807" lon="12.827117788893151"><ele>30.0</ele><time>2026-04-02T15:08:11Z</time></trkpt><trkpt lat="45.935074218015494" lon="12.82724029063476"><ele>30.0</ele><time>2026-04-02T15:08:12Z</time></trkpt><trkpt lat="45.93501254766542" lon="12.827384227797003"><ele>30.0</ele><time>2026-04-02T15:08:13Z</time></trkpt><trkpt lat="45.934940211739445" lon="12.827525223043038"><ele>30.0</ele><time>2026-04-02T15:08:14Z</time></trkpt><trkpt lat="45.93488023229144" lon="12.827639909160654"><ele>30.0</ele><time>2026-04-02T15:08:15Z</time></trkpt><trkpt lat="45.93477788001935" lon="12.82773518172889"><ele>30.0</ele><time>2026-04-02T15:08:17Z</time></trkpt><trkpt lat="45.93472860617611" lon="12.82780044848801"><ele>30.0</ele><time>2026-04-02T15:08:18Z</time></trkpt><trkpt lat="45.93461977108196" lon="12.827810331087466"><ele>30.0</ele><time>2026-04-02T15:08:20Z</time></trkpt><trkpt lat="45.934547143572445" lon="12.827739387922934"><ele>30.0</ele><time>2026-04-02T15:08:21Z</time></trkpt><trkpt lat="45.93445575833048" lon="12.827699975473099"><ele>30.0</ele><time>2026-04-02T15:08:23Z</time></trkpt><trkpt lat="45.93436843066359" lon="12.827703075600414"><ele>30.0</ele><time>2026-04-02T15:08:24Z</time></trkpt><trkpt lat="45.934272403625535" lon="12.827813593418252"><ele>29.8</ele><time>2026-04-02T15:08:25Z</time></trkpt><trkpt lat="45.93420461832679" lon="12.827921624025171"><ele>29.6</ele><time>2026-04-02T15:08:26Z</time></trkpt><trkpt lat="45.9341336884728" lon="12.828040735840386"><ele>29.4</ele><time>2026-04-02T15:08:27Z</time></trkpt><trkpt lat="45.93405393262178" lon="12.82815256361424"><ele>29.2</ele><time>2026-04-02T15:08:28Z</time></trkpt><trkpt lat="45.933971661259875" lon="12.828258196859712"><ele>29.0</ele><time>2026-04-02T15:08:29Z</time></trkpt><trkpt lat="45.93389386060171" lon="12.828360753502867"><ele>29.0</ele><time>2026-04-02T15:08:30Z</time></trkpt><trkpt lat="45.93381713977071" lon="12.828454754204124"><ele>29.0</ele><time>2026-04-02T15:08:31Z</time></trkpt><trkpt lat="45.93373413135052" lon="12.828524386886913"><ele>29.0</ele><time>2026-04-02T15:08:32Z</time></trkpt><trkpt lat="45.933631270419426" lon="12.828535313472242"><ele>29.0</ele><time>2026-04-02T15:08:33Z</time></trkpt><trkpt lat="45.93350443878044" lon="12.828527954089328"><ele>29.0</ele><time>2026-04-02T15:08:34Z</time></trkpt><trkpt lat="45.93339247137104" lon="12.82852640046062"><ele>29.0</ele><time>2026-04-02T15:08:35Z</time></trkpt><trkpt lat="45.93331250494098" lon="12.828519672516626"><ele>29.0</ele><time>2026-04-02T15:08:36Z</time></trkpt><trkpt lat="45.933227930562154" lon="12.82856276391024"><ele>29.0</ele><time>2026-04-02T15:08:37Z</time></trkpt><trkpt lat="45.9331552866103" lon="12.828647240043907"><ele>29.0</ele><time>2026-04-02T15:08:38Z</time></trkpt><trkpt lat="45.93307480405355" lon="12.828752674457606"><ele>29.0</ele><time>2026-04-02T15:08:39Z</time></trkpt><trkpt lat="45.93300388888159" lon="12.828844862078071"><ele>29.0</ele><time>2026-04-02T15:08:40Z</time></trkpt><trkpt lat="45.93294857871838" lon="12.828925597969125"><ele>29.0</ele><time>2026-04-02T15:08:41Z</time></trkpt><trkpt lat="45.932881827964" lon="12.829016443141782"><ele>29.0</ele><time>2026-04-02T15:08:43Z</time></trkpt><trkpt lat="45.93283057541363" lon="12.829094770987373"><ele>29.0</ele><time>2026-04-02T15:08:46Z</time></trkpt><trkpt lat="45.932910244792716" lon="12.829262031088989"><ele>29.0</ele><time>2026-04-02T15:08:47Z</time></trkpt><trkpt lat="45.93295707600806" lon="12.829356499041928"><ele>29.333333333333332</ele><time>2026-04-02T15:08:48Z</time></trkpt><trkpt lat="45.933015606851235" lon="12.829446845922549"><ele>29.666666666666664</ele><time>2026-04-02T15:08:49Z</time></trkpt><trkpt lat="45.93307496195735" lon="12.82953650476336"><ele>30.0</ele><time>2026-04-02T15:08:50Z</time></trkpt><trkpt lat="45.93313328588867" lon="12.829630624860387"><ele>30.333333333333336</ele><time>2026-04-02T15:08:51Z</time></trkpt><trkpt lat="45.9331961276723" lon="12.8297237858462"><ele>30.666666666666668</ele><time>2026-04-02T15:08:52Z</time></trkpt><trkpt lat="45.933261906651296" lon="12.829816725364347"><ele>31.0</ele><time>2026-04-02T15:08:53Z</time></trkpt><trkpt lat="45.93332219916435" lon="12.829920577767282"><ele>31.0</ele><time>2026-04-02T15:08:54Z</time></trkpt><trkpt lat="45.93336099476507" lon="12.830027438560844"><ele>31.0</ele><time>2026-04-02T15:08:55Z</time></trkpt><trkpt lat="45.93343082224572" lon="12.83015267888496"><ele>31.0</ele><time>2026-04-02T15:08:56Z</time></trkpt><trkpt lat="45.93351553822437" lon="12.830293002574928"><ele>31.0</ele><time>2026-04-02T15:08:57Z</time></trkpt><trkpt lat="45.93358516815147" lon="12.830463404036264"><ele>30.6</ele><time>2026-04-02T15:08:58Z</time></trkpt><trkpt lat="45.93366603687683" lon="12.830581348149849"><ele>30.200000000000003</ele><time>2026-04-02T15:08:59Z</time></trkpt><trkpt lat="45.933729131389924" lon="12.830732920043491"><ele>29.799999999999997</ele><time>2026-04-02T15:09:00Z</time></trkpt><trkpt lat="45.93378862080366" lon="12.830834116210308"><ele>29.4</ele><time>2026-04-02T15:09:01Z</time></trkpt><trkpt lat="45.93386429884355" lon="12.83095294792909"><ele>29.0</ele><time>2026-04-02T15:09:02Z</time></trkpt><trkpt lat="45.93396903089682" lon="12.831093647328816"><ele>29.0</ele><time>2026-04-02T15:09:03Z</time></trkpt><trkpt lat="45.93405721851473" lon="12.831224194035837"><ele>29.0</ele><time>2026-04-02T15:09:04Z</time></trkpt><trkpt lat="45.934149580730754" lon="12.831368961662251"><ele>29.0</ele><time>2026-04-02T15:09:05Z</time></trkpt><trkpt lat="45.93424929732066" lon="12.831549867365393"><ele>29.0</ele><time>2026-04-02T15:09:06Z</time></trkpt><trkpt lat="45.93434383524774" lon="12.831689614668361"><ele>29.799999999999997</ele><time>2026-04-02T15:09:07Z</time></trkpt><trkpt lat="45.93443631074698" lon="12.83181654181434"><ele>30.599999999999998</ele><time>2026-04-02T15:09:08Z</time></trkpt><trkpt lat="45.934496282651786" lon="12.831896827764798"><ele>31.4</ele><time>2026-04-02T15:09:09Z</time></trkpt><trkpt lat="45.93457788959915" lon="12.83198696232491"><ele>32.199999999999996</ele><time>2026-04-02T15:09:10Z</time></trkpt><trkpt lat="45.934640975185246" lon="12.832111938796132"><ele>33.0</ele><time>2026-04-02T15:09:11Z</time></trkpt><trkpt lat="45.934710912051266" lon="12.83221522838459"><ele>33.0</ele><time>2026-04-02T15:09:12Z</time></trkpt><trkpt lat="45.93479348354774" lon="12.832303328563695"><ele>33.0</ele><time>2026-04-02T15:09:13Z</time></trkpt><trkpt lat="45.93486143947144" lon="12.832415483740773"><ele>33.0</ele><time>2026-04-02T15:09:14Z</time></trkpt><trkpt lat="45.93491850154416" lon="12.832525311164973"><ele>33.0</ele><time>2026-04-02T15:09:15Z</time></trkpt><trkpt lat="45.93501882588361" lon="12.83265787025612"><ele>33.0</ele><time>2026-04-02T15:09:16Z</time></trkpt><trkpt lat="45.935104765119256" lon="12.832803092048128"><ele>32.75</ele><time>2026-04-02T15:09:17Z</time></trkpt><trkpt lat="45.93519474102103" lon="12.832950775085687"><ele>32.5</ele><time>2026-04-02T15:09:18Z</time></trkpt><trkpt lat="45.935270098726654" lon="12.8330944538269"><ele>32.25</ele><time>2026-04-02T15:09:19Z</time></trkpt><trkpt lat="45.93535451622539" lon="12.833257025673126"><ele>32.0</ele><time>2026-04-02T15:09:20Z</time></trkpt><trkpt lat="45.93545515445302" lon="12.83345258545589"><ele>32.33333333333333</ele><time>2026-04-02T15:09:21Z</time></trkpt><trkpt lat="45.93554758869656" lon="12.83363760287235"><ele>32.666666666666664</ele><time>2026-04-02T15:09:22Z</time></trkpt><trkpt lat="45.935646501772936" lon="12.833840048316421"><ele>33.0</ele><time>2026-04-02T15:09:24Z</time></trkpt><trkpt lat="45.935718020916646" lon="12.833989955784203"><ele>33.0</ele><time>2026-04-02T15:09:25Z</time></trkpt><trkpt lat="45.93578428794892" lon="12.834129329543877"><ele>33.0</ele><time>2026-04-02T15:09:26Z</time></trkpt><trkpt lat="45.93584715237492" lon="12.834273498343459"><ele>33.0</ele><time>2026-04-02T15:09:27Z</time></trkpt><trkpt lat="45.93589667811473" lon="12.834410381872013"><ele>33.0</ele><time>2026-04-02T15:09:28Z</time></trkpt><trkpt lat="45.93593196616713" lon="12.834563764694833"><ele>33.199999999999996</ele><time>2026-04-02T15:09:29Z</time></trkpt><trkpt lat="45.93595746649766" lon="12.834718442345276"><ele>33.4</ele><time>2026-04-02T15:09:30Z</time></trkpt><trkpt lat="45.935984644308064" lon="12.834875616674262"><ele>33.599999999999994</ele><time>2026-04-02T15:09:31Z</time></trkpt><trkpt lat="45.93601156568208" lon="12.835031307813665"><ele>33.8</ele><time>2026-04-02T15:09:32Z</time></trkpt><trkpt lat="45.93603803425495" lon="12.8351843767862"><ele>34.0</ele><time>2026-04-02T15:09:33Z</time></trkpt><trkpt lat="45.936075875205866" lon="12.835312576895117"><ele>34.2</ele><time>2026-04-02T15:09:34Z</time></trkpt><trkpt lat="45.936109666417295" lon="12.83544622883473"><ele>34.4</ele><time>2026-04-02T15:09:35Z</time></trkpt><trkpt lat="45.93614374570477" lon="12.835558764702094"><ele>34.6</ele><time>2026-04-02T15:09:36Z</time></trkpt><trkpt lat="45.93616989818254" lon="12.835683651961354"><ele>34.8</ele><time>2026-04-02T15:09:37Z</time></trkpt><trkpt lat="45.936194170183555" lon="12.835768424304987"><ele>35.0</ele><time>2026-04-02T15:09:38Z</time></trkpt><trkpt lat="45.936040366741885" lon="12.83581207399581"><ele>35.0</ele><time>2026-04-02T15:09:41Z</time></trkpt><trkpt lat="45.93594918502338" lon="12.835907992246659"><ele>35.0</ele><time>2026-04-02T15:09:42Z</time></trkpt><trkpt lat="45.93586784701825" lon="12.835987401762749"><ele>35.0</ele><time>2026-04-02T15:09:43Z</time></trkpt><trkpt lat="45.93576923006035" lon="12.836083403078"><ele>35.0</ele><time>2026-04-02T15:09:44Z</time></trkpt><trkpt lat="45.935652671530825" lon="12.836203185472003"><ele>34.5</ele><time>2026-04-02T15:09:45Z</time></trkpt><trkpt lat="45.93551072479983" lon="12.83635567635083"><ele>34.0</ele><time>2026-04-02T15:09:46Z</time></trkpt><trkpt lat="45.93541545513751" lon="12.836460041249543"><ele>33.5</ele><time>2026-04-02T15:09:47Z</time></trkpt><trkpt lat="45.93533877689569" lon="12.836544040201145"><ele>33.0</ele><time>2026-04-02T15:09:48Z</time></trkpt><trkpt lat="45.93526361713321" lon="12.836626374778875"><ele>33.0</ele><time>2026-04-02T15:09:49Z</time></trkpt><trkpt lat="45.93511882910768" lon="12.836784985355424"><ele>33.0</ele><time>2026-04-02T15:09:50Z</time></trkpt><trkpt lat="45.934986010515914" lon="12.836935566225295"><ele>33.0</ele><time>2026-04-02T15:09:51Z</time></trkpt><trkpt lat="45.9348400627277" lon="12.83710403779597"><ele>32.0</ele><time>2026-04-02T15:09:52Z</time></trkpt><trkpt lat="45.9347115823713" lon="12.837249411824873"><ele>31.0</ele><time>2026-04-02T15:09:53Z</time></trkpt><trkpt lat="45.93459301577881" lon="12.837367922773378"><ele>30.0</ele><time>2026-04-02T15:09:54Z</time></trkpt><trkpt lat="45.93447407391876" lon="12.837484709979016"><ele>30.0</ele><time>2026-04-02T15:09:55Z</time></trkpt><trkpt lat="45.93438276479496" lon="12.837574010470915"><ele>30.0</ele><time>2026-04-02T15:09:56Z</time></trkpt><trkpt lat="45.93429242406354" lon="12.837655324054284"><ele>30.0</ele><time>2026-04-02T15:09:57Z</time></trkpt><trkpt lat="45.93421804439395" lon="12.837715793111505"><ele>30.0</ele><time>2026-04-02T15:09:58Z</time></trkpt><trkpt lat="45.934144163609034" lon="12.837764460997056"><ele>30.0</ele><time>2026-04-02T15:09:59Z</time></trkpt><trkpt lat="45.93408125449804" lon="12.837781201552035"><ele>30.0</ele><time>2026-04-02T15:10:00Z</time></trkpt><trkpt lat="45.93400761879389" lon="12.837830381922965"><ele>30.0</ele><time>2026-04-02T15:10:02Z</time></trkpt><trkpt lat="45.93399350977061" lon="12.837920742438772"><ele>30.0</ele><time>2026-04-02T15:10:03Z</time></trkpt><trkpt lat="45.93400189758224" lon="12.838014684311606"><ele>30.0</ele><time>2026-04-02T15:10:04Z</time></trkpt><trkpt lat="45.934050470306595" lon="12.838078697739173"><ele>30.0</ele><time>2026-04-02T15:10:05Z</time></trkpt><trkpt lat="45.934119949810906" lon="12.838125938368833"><ele>30.0</ele><time>2026-04-02T15:10:06Z</time></trkpt><trkpt lat="45.93415909707566" lon="12.838228521099259"><ele>30.0</ele><time>2026-04-02T15:10:07Z</time></trkpt><trkpt lat="45.934206655205806" lon="12.838325130874573"><ele>30.0</ele><time>2026-04-02T15:10:08Z</time></trkpt><trkpt lat="45.93425537909018" lon="12.838427309702967"><ele>30.4</ele><time>2026-04-02T15:10:09Z</time></trkpt><trkpt lat="45.9342993654728" lon="12.838523291259524"><ele>30.8</ele><time>2026-04-02T15:10:10Z</time></trkpt><trkpt lat="45.93434567493171" lon="12.838631395220647"><ele>31.200000000000003</ele><time>2026-04-02T15:10:11Z</time></trkpt><trkpt lat="45.934404368090505" lon="12.8387359516896"><ele>31.6</ele><time>2026-04-02T15:10:12Z</time></trkpt><trkpt lat="45.934451424843644" lon="12.838869829181515"><ele>32.0</ele><time>2026-04-02T15:10:13Z</time></trkpt><trkpt lat="45.9344743098478" lon="12.839020614331371"><ele>31.999999999999996</ele><time>2026-04-02T15:10:14Z</time></trkpt><trkpt lat="45.934505466366645" lon="12.839135794823164"><ele>32.0</ele><time>2026-04-02T15:10:15Z</time></trkpt><trkpt lat="45.93452981115109" lon="12.839225970494173"><ele>32.0</ele><time>2026-04-02T15:10:16Z</time></trkpt><trkpt lat="45.934548861364476" lon="12.839335951921566"><ele>32.0</ele><time>2026-04-02T15:10:17Z</time></trkpt><trkpt lat="45.93456388513892" lon="12.839484502523975"><ele>31.999999999999996</ele><time>2026-04-02T15:10:19Z</time></trkpt><trkpt lat="45.934543868678205" lon="12.839576420174991"><ele>32.0</ele><time>2026-04-02T15:10:20Z</time></trkpt><trkpt lat="45.93444810251223" lon="12.839699332746534"><ele>31.75</ele><time>2026-04-02T15:10:22Z</time></trkpt><trkpt lat="45.93434380796357" lon="12.839759697204377"><ele>31.5</ele><time>2026-04-02T15:10:23Z</time></trkpt><trkpt lat="45.93424881225307" lon="12.839820198890925"><ele>31.25</ele><time>2026-04-02T15:10:24Z</time></trkpt><trkpt lat="45.934108184129684" lon="12.839867705028448"><ele>31.0</ele><time>2026-04-02T15:10:25Z</time></trkpt><trkpt lat="45.93399667498412" lon="12.839923883144596"><ele>31.0</ele><time>2026-04-02T15:10:26Z</time></trkpt><trkpt lat="45.93389889159462" lon="12.839974204079363"><ele>31.0</ele><time>2026-04-02T15:10:27Z</time></trkpt><trkpt lat="45.93378596760618" lon="12.840047259083446"><ele>31.0</ele><time>2026-04-02T15:10:28Z</time></trkpt><trkpt lat="45.933672774692866" lon="12.840065184966004"><ele>31.0</ele><time>2026-04-02T15:10:29Z</time></trkpt><trkpt lat="45.93356729694469" lon="12.840082571781563"><ele>31.0</ele><time>2026-04-02T15:10:30Z</time></trkpt><trkpt lat="45.933473393407084" lon="12.840079060187369"><ele>31.000000000000004</ele><time>2026-04-02T15:10:31Z</time></trkpt><trkpt lat="45.93339374177341" lon="12.840089425978771"><ele>31.0</ele><time>2026-04-02T15:10:32Z</time></trkpt><trkpt lat="45.93333253089101" lon="12.840121219350664"><ele>31.0</ele><time>2026-04-02T15:10:33Z</time></trkpt><trkpt lat="45.93326937261176" lon="12.840184927973414"><ele>31.0</ele><time>2026-04-02T15:10:35Z</time></trkpt><trkpt lat="45.933278257609494" lon="12.840338403631225"><ele>31.000000000000004</ele><time>2026-04-02T15:10:39Z</time></trkpt><trkpt lat="45.93336332121283" lon="12.84045348965027"><ele>31.0</ele><time>2026-04-02T15:10:42Z</time></trkpt><trkpt lat="45.933436156430496" lon="12.840499568739185"><ele>31.200000000000003</ele><time>2026-04-02T15:10:43Z</time></trkpt><trkpt lat="45.93352242734343" lon="12.840565331195915"><ele>31.400000000000002</ele><time>2026-04-02T15:10:44Z</time></trkpt><trkpt lat="45.933626501411794" lon="12.840640714318498"><ele>31.6</ele><time>2026-04-02T15:10:45Z</time></trkpt><trkpt lat="45.933729268986994" lon="12.840708192352933"><ele>31.8</ele><time>2026-04-02T15:10:46Z</time></trkpt><trkpt lat="45.93382953302768" lon="12.840776102278516"><ele>32.0</ele><time>2026-04-02T15:10:47Z</time></trkpt><trkpt lat="45.9339182825508" lon="12.840838376906705"><ele>32.0</ele><time>2026-04-02T15:10:48Z</time></trkpt><trkpt lat="45.93401130320796" lon="12.84090432010637"><ele>32.0</ele><time>2026-04-02T15:10:49Z</time></trkpt><trkpt lat="45.934098064588014" lon="12.840982893807654"><ele>32.0</ele><time>2026-04-02T15:10:50Z</time></trkpt><trkpt lat="45.93419024127007" lon="12.841032808527007"><ele>32.0</ele><time>2026-04-02T15:10:51Z</time></trkpt><trkpt lat="45.93427713172356" lon="12.84107242858677"><ele>32.0</ele><time>2026-04-02T15:10:52Z</time></trkpt><trkpt lat="45.93435823173715" lon="12.841111807765492"><ele>32.0</ele><time>2026-04-02T15:10:53Z</time></trkpt><trkpt lat="45.9344230253376" lon="12.841140584167714"><ele>32.0</ele><time>2026-04-02T15:10:54Z</time></trkpt><trkpt lat="45.93452461628484" lon="12.841155573967796"><ele>32.0</ele><time>2026-04-02T15:10:56Z</time></trkpt><trkpt lat="45.934510310363684" lon="12.841401513282646"><ele>32.0</ele><time>2026-04-02T15:10:57Z</time></trkpt><trkpt lat="45.93453366003062" lon="12.841559687380439"><ele>32.0</ele><time>2026-04-02T15:10:58Z</time></trkpt><trkpt lat="45.93455119790918" lon="12.841683811677783"><ele>32.0</ele><time>2026-04-02T15:10:59Z</time></trkpt><trkpt lat="45.93456498542947" lon="12.841806147433154"><ele>32.0</ele><time>2026-04-02T15:11:00Z</time></trkpt><trkpt lat="45.93457544920695" lon="12.841918382128592"><ele>32.0</ele><time>2026-04-02T15:11:01Z</time></trkpt><trkpt lat="45.93457663667282" lon="12.842025031959114"><ele>32.0</ele><time>2026-04-02T15:11:02Z</time></trkpt><trkpt lat="45.934532235874464" lon="12.842200416930625"><ele>32.2</ele><time>2026-04-02T15:11:04Z</time></trkpt><trkpt lat="45.934455969696586" lon="12.842241303681025"><ele>32.400000000000006</ele><time>2026-04-02T15:11:05Z</time></trkpt><trkpt lat="45.93437358806749" lon="12.84234033692586"><ele>32.599999999999994</ele><time>2026-04-02T15:11:06Z</time></trkpt><trkpt lat="45.93428917878867" lon="12.842441807649594"><ele>32.8</ele><time>2026-04-02T15:11:07Z</time></trkpt><trkpt lat="45.93421234201732" lon="12.84256667533643"><ele>33.0</ele><time>2026-04-02T15:11:08Z</time></trkpt><trkpt lat="45.93411018479268" lon="12.8426674395897"><ele>33.0</ele><time>2026-04-02T15:11:09Z</time></trkpt><trkpt lat="45.934018212284" lon="12.842790712583769"><ele>33.0</ele><time>2026-04-02T15:11:10Z</time></trkpt><trkpt lat="45.93393070755126" lon="12.842895363602986"><ele>33.0</ele><time>2026-04-02T15:11:11Z</time></trkpt><trkpt lat="45.933855995405175" lon="12.842983807260879"><ele>33.0</ele><time>2026-04-02T15:11:12Z</time></trkpt><trkpt lat="45.93379219211398" lon="12.84305762270525"><ele>33.0</ele><time>2026-04-02T15:11:13Z</time></trkpt><trkpt lat="45.933736256685016" lon="12.843122621084762"><ele>33.0</ele><time>2026-04-02T15:11:14Z</time></trkpt><trkpt lat="45.93366817402031" lon="12.843234902246078"><ele>33.0</ele><time>2026-04-02T15:11:16Z</time></trkpt><trkpt lat="45.9336834235565" lon="12.84337431591267"><ele>33.0</ele><time>2026-04-02T15:11:18Z</time></trkpt><trkpt lat="45.93375562512478" lon="12.843478414744155"><ele>33.0</ele><time>2026-04-02T15:11:19Z</time></trkpt><trkpt lat="45.933802424574445" lon="12.843554233689098"><ele>33.0</ele><time>2026-04-02T15:11:20Z</time></trkpt><trkpt lat="45.933879889464244" lon="12.843687575455398"><ele>33.199999999999996</ele><time>2026-04-02T15:11:21Z</time></trkpt><trkpt lat="45.93394296205068" lon="12.843797504548705"><ele>33.4</ele><time>2026-04-02T15:11:22Z</time></trkpt><trkpt lat="45.93401432163515" lon="12.843894799446778"><ele>33.599999999999994</ele><time>2026-04-02T15:11:23Z</time></trkpt><trkpt lat="45.934052941985" lon="12.843991772393588"><ele>33.8</ele><time>2026-04-02T15:11:24Z</time></trkpt><trkpt lat="45.934106358824955" lon="12.844119820843789"><ele>34.0</ele><time>2026-04-02T15:11:26Z</time></trkpt><trkpt lat="45.934135012601864" lon="12.84422609458517"><ele>34.25</ele><time>2026-04-02T15:11:30Z</time></trkpt><trkpt lat="45.93404419766055" lon="12.844372487783964"><ele>34.5</ele><time>2026-04-02T15:11:31Z</time></trkpt><trkpt lat="45.933978914502916" lon="12.844501367084657"><ele>34.75</ele><time>2026-04-02T15:11:32Z</time></trkpt><trkpt lat="45.93391504185228" lon="12.844663912584297"><ele>35.0</ele><time>2026-04-02T15:11:33Z</time></trkpt><trkpt lat="45.933841463447436" lon="12.844837384664018"><ele>35.0</ele><time>2026-04-02T15:11:34Z</time></trkpt><trkpt lat="45.93377996531552" lon="12.844992090801954"><ele>35.0</ele><time>2026-04-02T15:11:35Z</time></trkpt><trkpt lat="45.933689043474836" lon="12.845187833982992"><ele>35.0</ele><time>2026-04-02T15:11:36Z</time></trkpt><trkpt lat="45.933602793299904" lon="12.845353061253943"><ele>35.0</ele><time>2026-04-02T15:11:37Z</time></trkpt><trkpt lat="45.93355700381368" lon="12.845495784826333"><ele>34.8</ele><time>2026-04-02T15:11:38Z</time></trkpt><trkpt lat="45.93348039222608" lon="12.845632782684337"><ele>34.6</ele><time>2026-04-02T15:11:39Z</time></trkpt><trkpt lat="45.93340453687478" lon="12.845751355270846"><ele>34.4</ele><time>2026-04-02T15:11:40Z</time></trkpt><trkpt lat="45.93334639939475" lon="12.84588140289903"><ele>34.2</ele><time>2026-04-02T15:11:41Z</time></trkpt><trkpt lat="45.933310414078036" lon="12.845985616179586"><ele>34.0</ele><time>2026-04-02T15:11:42Z</time></trkpt><trkpt lat="45.93328661268874" lon="12.846087329549732"><ele>34.0</ele><time>2026-04-02T15:11:43Z</time></trkpt><trkpt lat="45.93324160286274" lon="12.846212933544514"><ele>34.0</ele><time>2026-04-02T15:11:43.999Z</time></trkpt><trkpt lat="45.933212958394115" lon="12.846374599453675"><ele>34.0</ele><time>2026-04-02T15:11:44.999Z</time></trkpt><trkpt lat="45.93319109245047" lon="12.84658108103557"><ele>34.0</ele><time>2026-04-02T15:11:45.999Z</time></trkpt><trkpt lat="45.93319371000921" lon="12.846788632564305"><ele>34.0</ele><time>2026-04-02T15:11:47Z</time></trkpt><trkpt lat="45.93320646041495" lon="12.846992991843395"><ele>34.0</ele><time>2026-04-02T15:11:48Z</time></trkpt><trkpt lat="45.933202469890624" lon="12.847154114600315"><ele>34.0</ele><time>2026-04-02T15:11:49Z</time></trkpt><trkpt lat="45.933182781214605" lon="12.847314292057808"><ele>34.0</ele><time>2026-04-02T15:11:50Z</time></trkpt><trkpt lat="45.933154151945075" lon="12.847474803458587"><ele>34.0</ele><time>2026-04-02T15:11:51Z</time></trkpt><trkpt lat="45.93311649134124" lon="12.84761812024542"><ele>34.0</ele><time>2026-04-02T15:11:52Z</time></trkpt><trkpt lat="45.93309144938229" lon="12.847768655227494"><ele>34.0</ele><time>2026-04-02T15:11:53Z</time></trkpt><trkpt lat="45.93302373333264" lon="12.847893363749789"><ele>34.0</ele><time>2026-04-02T15:11:54Z</time></trkpt><trkpt lat="45.93295446671728" lon="12.848019017014417"><ele>34.0</ele><time>2026-04-02T15:11:55Z</time></trkpt><trkpt lat="45.932892603394485" lon="12.8481323212097"><ele>33.75</ele><time>2026-04-02T15:11:56Z</time></trkpt><trkpt lat="45.932823069145364" lon="12.848163197068276"><ele>33.5</ele><time>2026-04-02T15:11:58Z</time></trkpt><trkpt lat="45.93282959432281" lon="12.848451369878418"><ele>33.25</ele><time>2026-04-02T15:11:59Z</time></trkpt><trkpt lat="45.93285702745404" lon="12.848659209190274"><ele>33.0</ele><time>2026-04-02T15:12:00Z</time></trkpt><trkpt lat="45.93289865733458" lon="12.848823867702086"><ele>32.75</ele><time>2026-04-02T15:12:01Z</time></trkpt><trkpt lat="45.932907495554645" lon="12.848973154406005"><ele>32.5</ele><time>2026-04-02T15:12:02Z</time></trkpt><trkpt lat="45.9328879302527" lon="12.849186390383684"><ele>32.25</ele><time>2026-04-02T15:12:03Z</time></trkpt><trkpt lat="45.93287488212383" lon="12.849371354310872"><ele>32.0</ele><time>2026-04-02T15:12:04Z</time></trkpt><trkpt lat="45.93286796792198" lon="12.84954459502488"><ele>32.0</ele><time>2026-04-02T15:12:05Z</time></trkpt><trkpt lat="45.93287713717695" lon="12.84975934875363"><ele>32.0</ele><time>2026-04-02T15:12:06Z</time></trkpt><trkpt lat="45.932893837679956" lon="12.849964600009042"><ele>32.0</ele><time>2026-04-02T15:12:07Z</time></trkpt><trkpt lat="45.933015579217894" lon="12.850154405251434"><ele>32.5</ele><time>2026-04-02T15:12:08Z</time></trkpt><trkpt lat="45.933042934299394" lon="12.850345967924492"><ele>33.0</ele><time>2026-04-02T15:12:09Z</time></trkpt><trkpt lat="45.93307718113539" lon="12.850525856113082"><ele>33.5</ele><time>2026-04-02T15:12:10Z</time></trkpt><trkpt lat="45.933135597850516" lon="12.850723974947545"><ele>34.0</ele><time>2026-04-02T15:12:11Z</time></trkpt><trkpt lat="45.933202304910594" lon="12.850933816715902"><ele>34.0</ele><time>2026-04-02T15:12:12Z</time></trkpt><trkpt lat="45.93321287560659" lon="12.851148063853508"><ele>34.0</ele><time>2026-04-02T15:12:13Z</time></trkpt><trkpt lat="45.933263304977" lon="12.851308574788312"><ele>34.0</ele><time>2026-04-02T15:12:14Z</time></trkpt><trkpt lat="45.93330305043896" lon="12.851460559579655"><ele>34.0</ele><time>2026-04-02T15:12:15Z</time></trkpt><trkpt lat="45.93332932577109" lon="12.851612024366297"><ele>33.75</ele><time>2026-04-02T15:12:16Z</time></trkpt><trkpt lat="45.93333206087665" lon="12.851791493053703"><ele>33.5</ele><time>2026-04-02T15:12:17Z</time></trkpt><trkpt lat="45.933312363143955" lon="12.85198044626083"><ele>33.25</ele><time>2026-04-02T15:12:18Z</time></trkpt><trkpt lat="45.93327876525016" lon="12.852180801922"><ele>33.0</ele><time>2026-04-02T15:12:19Z</time></trkpt><trkpt lat="45.93324642489192" lon="12.852388401046195"><ele>33.0</ele><time>2026-04-02T15:12:20Z</time></trkpt><trkpt lat="45.93322031799966" lon="12.852560031665822"><ele>33.0</ele><time>2026-04-02T15:12:21Z</time></trkpt><trkpt lat="45.93321449547603" lon="12.85278324449215"><ele>33.0</ele><time>2026-04-02T15:12:22Z</time></trkpt><trkpt lat="45.93319812509846" lon="12.85296290422111"><ele>33.0</ele><time>2026-04-02T15:12:23Z</time></trkpt><trkpt lat="45.93321518740428" lon="12.853157803496542"><ele>33.25</ele><time>2026-04-02T15:12:24Z</time></trkpt><trkpt lat="45.93322831321378" lon="12.853335627824332"><ele>33.5</ele><time>2026-04-02T15:12:25Z</time></trkpt><trkpt lat="45.933256850526135" lon="12.853527502605827"><ele>33.75</ele><time>2026-04-02T15:12:26Z</time></trkpt><trkpt lat="45.93330488567031" lon="12.853737217066778"><ele>34.0</ele><time>2026-04-02T15:12:27Z</time></trkpt><trkpt lat="45.93337864469113" lon="12.853949902103059"><ele>33.333333333333336</ele><time>2026-04-02T15:12:28Z</time></trkpt><trkpt lat="45.93346424684514" lon="12.854157633714014"><ele>32.666666666666664</ele><time>2026-04-02T15:12:29Z</time></trkpt><trkpt lat="45.93354215570136" lon="12.85434888256671"><ele>32.0</ele><time>2026-04-02T15:12:30Z</time></trkpt><trkpt lat="45.9336078363514" lon="12.854517719406532"><ele>32.0</ele><time>2026-04-02T15:12:31Z</time></trkpt><trkpt lat="45.9336877363227" lon="12.854682995694958"><ele>32.0</ele><time>2026-04-02T15:12:32Z</time></trkpt><trkpt lat="45.93378297740745" lon="12.854821501693344"><ele>32.0</ele><time>2026-04-02T15:12:33Z</time></trkpt><trkpt lat="45.93388961747902" lon="12.854963204505378"><ele>32.0</ele><time>2026-04-02T15:12:34Z</time></trkpt><trkpt lat="45.93399119739512" lon="12.855115721645936"><ele>32.0</ele><time>2026-04-02T15:12:35Z</time></trkpt><trkpt lat="45.93408162189801" lon="12.8552731683187"><ele>32.0</ele><time>2026-04-02T15:12:36Z</time></trkpt><trkpt lat="45.93417055568209" lon="12.855443323883224"><ele>32.0</ele><time>2026-04-02T15:12:37Z</time></trkpt><trkpt lat="45.934236727926205" lon="12.855624401648585"><ele>32.0</ele><time>2026-04-02T15:12:38Z</time></trkpt><trkpt lat="45.93432233775898" lon="12.855785184096083"><ele>32.0</ele><time>2026-04-02T15:12:39Z</time></trkpt><trkpt lat="45.93439028749605" lon="12.855967576814939"><ele>32.0</ele><time>2026-04-02T15:12:40Z</time></trkpt><trkpt lat="45.93445871716004" lon="12.856138647778488"><ele>32.0</ele><time>2026-04-02T15:12:41Z</time></trkpt><trkpt lat="45.93453431560197" lon="12.856308187243176"><ele>32.0</ele><time>2026-04-02T15:12:42Z</time></trkpt><trkpt lat="45.93459843418219" lon="12.856466748656581"><ele>32.0</ele><time>2026-04-02T15:12:43Z</time></trkpt><trkpt lat="45.93466730075587" lon="12.856633243146215"><ele>32.0</ele><time>2026-04-02T15:12:44Z</time></trkpt><trkpt lat="45.93474788730312" lon="12.856808550266539"><ele>32.0</ele><time>2026-04-02T15:12:45Z</time></trkpt><trkpt lat="45.93481846550088" lon="12.856989758132729"><ele>32.0</ele><time>2026-04-02T15:12:46Z</time></trkpt><trkpt lat="45.934908276912296" lon="12.85719209478438"><ele>32.0</ele><time>2026-04-02T15:12:47Z</time></trkpt><trkpt lat="45.934994151602034" lon="12.857384943208404"><ele>32.0</ele><time>2026-04-02T15:12:48Z</time></trkpt><trkpt lat="45.93507024124013" lon="12.857567957288628"><ele>32.0</ele><time>2026-04-02T15:12:49Z</time></trkpt><trkpt lat="45.93514471196281" lon="12.857755348866897"><ele>32.5</ele><time>2026-04-02T15:12:50Z</time></trkpt><trkpt lat="45.93522008290489" lon="12.857940087617312"><ele>33.0</ele><time>2026-04-02T15:12:51Z</time></trkpt><trkpt lat="45.93528928720197" lon="12.858110180185285"><ele>33.5</ele><time>2026-04-02T15:12:52Z</time></trkpt><trkpt lat="45.93535184522889" lon="12.858260074815524"><ele>34.0</ele><time>2026-04-02T15:12:53Z</time></trkpt><trkpt lat="45.93540722464915" lon="12.858385567076942"><ele>34.0</ele><time>2026-04-02T15:12:54Z</time></trkpt><trkpt lat="45.9354529125961" lon="12.85849481952537"><ele>34.0</ele><time>2026-04-02T15:12:55Z</time></trkpt><trkpt lat="45.935488814308606" lon="12.858589250575513"><ele>34.0</ele><time>2026-04-02T15:12:56Z</time></trkpt><trkpt lat="45.93555555194326" lon="12.858673120187776"><ele>34.0</ele><time>2026-04-02T15:12:57Z</time></trkpt><trkpt lat="45.935657568912944" lon="12.858742031689122"><ele>34.0</ele><time>2026-04-02T15:12:58Z</time></trkpt><trkpt lat="45.9357715394058" lon="12.85876974378379"><ele>34.66666666666667</ele><time>2026-04-02T15:12:59Z</time></trkpt><trkpt lat="45.935934784690424" lon="12.858779346129667"><ele>35.333333333333336</ele><time>2026-04-02T15:13:00Z</time></trkpt><trkpt lat="45.9361103303316" lon="12.858781808033951"><ele>36.0</ele><time>2026-04-02T15:13:01Z</time></trkpt><trkpt lat="45.936287189943535" lon="12.858818661888874"><ele>36.0</ele><time>2026-04-02T15:13:02Z</time></trkpt><trkpt lat="45.93647247133675" lon="12.858837491942907"><ele>36.0</ele><time>2026-04-02T15:13:03Z</time></trkpt><trkpt lat="45.936641965253344" lon="12.858854717531507"><ele>36.0</ele><time>2026-04-02T15:13:04Z</time></trkpt><trkpt lat="45.93679879765743" lon="12.858870656324505"><ele>36.25</ele><time>2026-04-02T15:13:05Z</time></trkpt><trkpt lat="45.93694518986611" lon="12.858885930789386"><ele>36.5</ele><time>2026-04-02T15:13:06Z</time></trkpt><trkpt lat="45.93708993167292" lon="12.858903610786758"><ele>36.75</ele><time>2026-04-02T15:13:07Z</time></trkpt><trkpt lat="45.93723127659034" lon="12.858925084538502"><ele>37.0</ele><time>2026-04-02T15:13:08Z</time></trkpt><trkpt lat="45.93737817199067" lon="12.858953848696427"><ele>37.0</ele><time>2026-04-02T15:13:09Z</time></trkpt><trkpt lat="45.937512499190234" lon="12.858987274820096"><ele>37.0</ele><time>2026-04-02T15:13:10Z</time></trkpt><trkpt lat="45.93766645177635" lon="12.859028440030524"><ele>37.0</ele><time>2026-04-02T15:13:11Z</time></trkpt><trkpt lat="45.93781236450316" lon="12.859067035799063"><ele>37.0</ele><time>2026-04-02T15:13:12Z</time></trkpt><trkpt lat="45.93793885076485" lon="12.859098563512953"><ele>36.25</ele><time>2026-04-02T15:13:13Z</time></trkpt><trkpt lat="45.938056622323515" lon="12.8591240163585"><ele>35.5</ele><time>2026-04-02T15:13:14Z</time></trkpt><trkpt lat="45.938159620310074" lon="12.859150080326062"><ele>34.75</ele><time>2026-04-02T15:13:15Z</time></trkpt><trkpt lat="45.938281805744616" lon="12.859188626730928"><ele>34.0</ele><time>2026-04-02T15:13:16Z</time></trkpt><trkpt lat="45.93837830146711" lon="12.859276427314521"><ele>33.75</ele><time>2026-04-02T15:13:17Z</time></trkpt><trkpt lat="45.93848150992062" lon="12.859363478644623"><ele>33.5</ele><time>2026-04-02T15:13:18Z</time></trkpt><trkpt lat="45.93859574871074" lon="12.859481395215484"><ele>33.25</ele><time>2026-04-02T15:13:19Z</time></trkpt><trkpt lat="45.938698514130216" lon="12.85959968839104"><ele>33.0</ele><time>2026-04-02T15:13:20Z</time></trkpt><trkpt lat="45.93880205977913" lon="12.85972987520903"><ele>33.0</ele><time>2026-04-02T15:13:21Z</time></trkpt><trkpt lat="45.9389032341358" lon="12.859866508274393"><ele>33.0</ele><time>2026-04-02T15:13:22Z</time></trkpt><trkpt lat="45.9390109821521" lon="12.8599919107059"><ele>33.0</ele><time>2026-04-02T15:13:23Z</time></trkpt><trkpt lat="45.93910379995478" lon="12.860145378973238"><ele>33.0</ele><time>2026-04-02T15:13:24Z</time></trkpt><trkpt lat="45.93918883927444" lon="12.860295361912636"><ele>33.25</ele><time>2026-04-02T15:13:25Z</time></trkpt><trkpt lat="45.93926160181184" lon="12.860443888955835"><ele>33.5</ele><time>2026-04-02T15:13:26Z</time></trkpt><trkpt lat="45.9393553147996" lon="12.860584173754782"><ele>33.75</ele><time>2026-04-02T15:13:27Z</time></trkpt><trkpt lat="45.93943891399962" lon="12.860670623705388"><ele>34.0</ele><time>2026-04-02T15:13:28Z</time></trkpt><trkpt lat="45.939533668397274" lon="12.8607529624306"><ele>34.0</ele><time>2026-04-02T15:13:29Z</time></trkpt><trkpt lat="45.93963065182044" lon="12.860799907045015"><ele>34.0</ele><time>2026-04-02T15:13:30Z</time></trkpt><trkpt lat="45.93974523932816" lon="12.860857517233995"><ele>34.0</ele><time>2026-04-02T15:13:31Z</time></trkpt><trkpt lat="45.939898991403574" lon="12.860875584098686"><ele>34.0</ele><time>2026-04-02T15:13:32Z</time></trkpt><trkpt lat="45.94004872057822" lon="12.860896534028118"><ele>34.0</ele><time>2026-04-02T15:13:33Z</time></trkpt><trkpt lat="45.940200850674294" lon="12.860911199779704"><ele>34.0</ele><time>2026-04-02T15:13:34Z</time></trkpt><trkpt lat="45.94034142543904" lon="12.860944859487223"><ele>34.0</ele><time>2026-04-02T15:13:35Z</time></trkpt><trkpt lat="45.94046873413826" lon="12.860999470450727"><ele>34.0</ele><time>2026-04-02T15:13:36Z</time></trkpt><trkpt lat="45.940594183193106" lon="12.861059873401128"><ele>34.5</ele><time>2026-04-02T15:13:37Z</time></trkpt><trkpt lat="45.940716582593836" lon="12.861130782028637"><ele>35.0</ele><time>2026-04-02T15:13:38Z</time></trkpt><trkpt lat="45.94081247514084" lon="12.861220078134664"><ele>35.5</ele><time>2026-04-02T15:13:39Z</time></trkpt><trkpt lat="45.940933659310296" lon="12.861324911802772"><ele>36.0</ele><time>2026-04-02T15:13:40Z</time></trkpt><trkpt lat="45.94104557731907" lon="12.861446227891744"><ele>36.25</ele><time>2026-04-02T15:13:41Z</time></trkpt><trkpt lat="45.9411545553409" lon="12.861577004698448"><ele>36.5</ele><time>2026-04-02T15:13:42Z</time></trkpt><trkpt lat="45.94127979826428" lon="12.86168744608652"><ele>36.75</ele><time>2026-04-02T15:13:43Z</time></trkpt><trkpt lat="45.94140431187039" lon="12.861796443051087"><ele>37.0</ele><time>2026-04-02T15:13:44Z</time></trkpt><trkpt lat="45.94153656436186" lon="12.861883989123525"><ele>36.75</ele><time>2026-04-02T15:13:44.999Z</time></trkpt><trkpt lat="45.94167341402277" lon="12.861971636302867"><ele>36.5</ele><time>2026-04-02T15:13:45.999Z</time></trkpt><trkpt lat="45.94180217602718" lon="12.862053885213339"><ele>36.25</ele><time>2026-04-02T15:13:46.999Z</time></trkpt><trkpt lat="45.94191933931329" lon="12.862131494456682"><ele>36.0</ele><time>2026-04-02T15:13:47.999Z</time></trkpt><trkpt lat="45.942025045936035" lon="12.862202975112886"><ele>36.0</ele><time>2026-04-02T15:13:48.999Z</time></trkpt><trkpt lat="45.94212331563136" lon="12.862275939806043"><ele>36.0</ele><time>2026-04-02T15:13:49.999Z</time></trkpt><trkpt lat="45.9422164687092" lon="12.862346324546204"><ele>36.0</ele><time>2026-04-02T15:13:50.999Z</time></trkpt><trkpt lat="45.942304809963225" lon="12.862426566200627"><ele>36.0</ele><time>2026-04-02T15:13:51.999Z</time></trkpt><trkpt lat="45.94237881927997" lon="12.862512438622298"><ele>36.0</ele><time>2026-04-02T15:13:53Z</time></trkpt><trkpt lat="45.94243959872979" lon="12.862601139199713"><ele>36.166666666666664</ele><time>2026-04-02T15:13:54Z</time></trkpt><trkpt lat="45.94249586908347" lon="12.862690608595454"><ele>36.333333333333336</ele><time>2026-04-02T15:13:55Z</time></trkpt><trkpt lat="45.94255695107" lon="12.862776844156745"><ele>36.5</ele><time>2026-04-02T15:13:56Z</time></trkpt><trkpt lat="45.94261817437314" lon="12.86286055753074"><ele>36.66666666666667</ele><time>2026-04-02T15:13:57Z</time></trkpt><trkpt lat="45.9426819683762" lon="12.862952134878416"><ele>36.833333333333336</ele><time>2026-04-02T15:13:58Z</time></trkpt><trkpt lat="45.94274533540262" lon="12.86305413655878"><ele>37.0</ele><time>2026-04-02T15:13:59Z</time></trkpt><trkpt lat="45.94281517426747" lon="12.863163431079503"><ele>37.0</ele><time>2026-04-02T15:14:00Z</time></trkpt><trkpt lat="45.94289584816683" lon="12.863289565472186"><ele>37.0</ele><time>2026-04-02T15:14:01Z</time></trkpt><trkpt lat="45.94298895040074" lon="12.863442723387806"><ele>37.0</ele><time>2026-04-02T15:14:02Z</time></trkpt><trkpt lat="45.94308795566105" lon="12.863600613184616"><ele>37.0</ele><time>2026-04-02T15:14:03Z</time></trkpt><trkpt lat="45.94318470023875" lon="12.86377717007997"><ele>36.66666666666667</ele><time>2026-04-02T15:14:04Z</time></trkpt><trkpt lat="45.94325026238356" lon="12.863977522461292"><ele>36.333333333333336</ele><time>2026-04-02T15:14:05Z</time></trkpt><trkpt lat="45.943315498151634" lon="12.864191052727833"><ele>36.0</ele><time>2026-04-02T15:14:06Z</time></trkpt><trkpt lat="45.94341831434734" lon="12.864417287539762"><ele>36.0</ele><time>2026-04-02T15:14:07Z</time></trkpt><trkpt lat="45.94351890240096" lon="12.864574985133576"><ele>36.0</ele><time>2026-04-02T15:14:08Z</time></trkpt><trkpt lat="45.94361063555567" lon="12.864748321461704"><ele>36.0</ele><time>2026-04-02T15:14:09Z</time></trkpt><trkpt lat="45.94367054103775" lon="12.86484900185537"><ele>36.0</ele><time>2026-04-02T15:14:10Z</time></trkpt><trkpt lat="45.943735078577724" lon="12.864926389703323"><ele>36.0</ele><time>2026-04-02T15:14:11Z</time></trkpt><trkpt lat="45.94381688370311" lon="12.865087841089924"><ele>36.0</ele><time>2026-04-02T15:14:12Z</time></trkpt><trkpt lat="45.94387090337096" lon="12.86525992958869"><ele>36.0</ele><time>2026-04-02T15:14:13Z</time></trkpt><trkpt lat="45.943913360223085" lon="12.865393537872512"><ele>36.0</ele><time>2026-04-02T15:14:14Z</time></trkpt><trkpt lat="45.943961160140425" lon="12.865567890562277"><ele>36.0</ele><time>2026-04-02T15:14:15Z</time></trkpt><trkpt lat="45.94400529847607" lon="12.865742911347754"><ele>36.0</ele><time>2026-04-02T15:14:16Z</time></trkpt><trkpt lat="45.944053242976494" lon="12.865927825284787"><ele>36.0</ele><time>2026-04-02T15:14:17Z</time></trkpt><trkpt lat="45.944103362385" lon="12.866083982971476"><ele>36.0</ele><time>2026-04-02T15:14:18Z</time></trkpt><trkpt lat="45.94411076223968" lon="12.866222899604715"><ele>36.0</ele><time>2026-04-02T15:14:19Z</time></trkpt><trkpt lat="45.94418785363435" lon="12.866488059739297"><ele>36.0</ele><time>2026-04-02T15:14:21Z</time></trkpt><trkpt lat="45.94424372120283" lon="12.86661955750394"><ele>36.0</ele><time>2026-04-02T15:14:22Z</time></trkpt><trkpt lat="45.944279557384405" lon="12.866725365287598"><ele>36.0</ele><time>2026-04-02T15:14:23Z</time></trkpt><trkpt lat="45.94430475125406" lon="12.866819808131146"><ele>36.2</ele><time>2026-04-02T15:14:24Z</time></trkpt><trkpt lat="45.94435814574724" lon="12.866885258963736"><ele>36.400000000000006</ele><time>2026-04-02T15:14:25Z</time></trkpt><trkpt lat="45.9443586784501" lon="12.867020609696496"><ele>36.6</ele><time>2026-04-02T15:14:26Z</time></trkpt><trkpt lat="45.94438890636578" lon="12.867147956274486"><ele>36.800000000000004</ele><time>2026-04-02T15:14:27Z</time></trkpt><trkpt lat="45.944423911655335" lon="12.86729780959867"><ele>37.0</ele><time>2026-04-02T15:14:28Z</time></trkpt><trkpt lat="45.94446011071899" lon="12.867464969937872"><ele>37.0</ele><time>2026-04-02T15:14:29Z</time></trkpt><trkpt lat="45.94450259968004" lon="12.867631598117612"><ele>37.0</ele><time>2026-04-02T15:14:30Z</time></trkpt><trkpt lat="45.944553554179976" lon="12.867765622931643"><ele>37.0</ele><time>2026-04-02T15:14:31Z</time></trkpt><trkpt lat="45.944590879375866" lon="12.867899070104823"><ele>37.0</ele><time>2026-04-02T15:14:32Z</time></trkpt><trkpt lat="45.944629031000034" lon="12.8680395525474"><ele>37.0</ele><time>2026-04-02T15:14:33Z</time></trkpt><trkpt lat="45.94465338513204" lon="12.86813186882284"><ele>37.0</ele><time>2026-04-02T15:14:34Z</time></trkpt><trkpt lat="45.9446839781008" lon="12.868247833961485"><ele>37.0</ele><time>2026-04-02T15:14:35Z</time></trkpt><trkpt lat="45.9447179313353" lon="12.868374970898264"><ele>37.0</ele><time>2026-04-02T15:14:36Z</time></trkpt><trkpt lat="45.94476179420468" lon="12.868532720430778"><ele>37.0</ele><time>2026-04-02T15:14:37Z</time></trkpt><trkpt lat="45.94478645412888" lon="12.868673893661704"><ele>37.0</ele><time>2026-04-02T15:14:39Z</time></trkpt><trkpt lat="45.94482054238789" lon="12.86880727696628"><ele>37.5</ele><time>2026-04-02T15:14:41Z</time></trkpt><trkpt lat="45.94463729633981" lon="12.868801985273384"><ele>38.0</ele><time>2026-04-02T15:14:42Z</time></trkpt><trkpt lat="45.94455055546083" lon="12.868789617649028"><ele>38.5</ele><time>2026-04-02T15:14:43Z</time></trkpt><trkpt lat="45.94444680211804" lon="12.868778333630862"><ele>39.0</ele><time>2026-04-02T15:14:44Z</time></trkpt><trkpt lat="45.94432472560247" lon="12.86877911364045"><ele>37.333333333333336</ele><time>2026-04-02T15:14:45Z</time></trkpt><trkpt lat="45.944159005587224" lon="12.868769852586242"><ele>35.66666666666667</ele><time>2026-04-02T15:14:46Z</time></trkpt><trkpt lat="45.94398783782631" lon="12.868779632436526"><ele>34.0</ele><time>2026-04-02T15:14:47Z</time></trkpt><trkpt lat="45.94384971566457" lon="12.86875902460426"><ele>34.0</ele><time>2026-04-02T15:14:48Z</time></trkpt><trkpt lat="45.94371666721738" lon="12.86877228447257"><ele>34.0</ele><time>2026-04-02T15:14:49Z</time></trkpt><trkpt lat="45.94355599325738" lon="12.868774409847932"><ele>34.0</ele><time>2026-04-02T15:14:50Z</time></trkpt><trkpt lat="45.9433703604448" lon="12.868763815227572"><ele>34.66666666666667</ele><time>2026-04-02T15:14:51Z</time></trkpt><trkpt lat="45.94317880216074" lon="12.868752268703757"><ele>35.333333333333336</ele><time>2026-04-02T15:14:52Z</time></trkpt><trkpt lat="45.94295838615426" lon="12.868743121858735"><ele>36.0</ele><time>2026-04-02T15:14:53Z</time></trkpt><trkpt lat="45.9427514568863" lon="12.86873431507492"><ele>36.0</ele><time>2026-04-02T15:14:54Z</time></trkpt><trkpt lat="45.94257734562007" lon="12.868722448556284"><ele>36.0</ele><time>2026-04-02T15:14:55Z</time></trkpt><trkpt lat="45.94242436456605" lon="12.868731565246117"><ele>36.0</ele><time>2026-04-02T15:14:56Z</time></trkpt><trkpt lat="45.94225544469577" lon="12.868755422457877"><ele>35.0</ele><time>2026-04-02T15:14:57Z</time></trkpt><trkpt lat="45.94208684835061" lon="12.868792420319389"><ele>34.0</ele><time>2026-04-02T15:14:58Z</time></trkpt><trkpt lat="45.94192080599859" lon="12.868837710962808"><ele>33.0</ele><time>2026-04-02T15:14:59Z</time></trkpt><trkpt lat="45.94175589517319" lon="12.868884451806958"><ele>33.333333333333336</ele><time>2026-04-02T15:15:00Z</time></trkpt><trkpt lat="45.94157951600997" lon="12.868922257140975"><ele>33.66666666666667</ele><time>2026-04-02T15:15:01Z</time></trkpt><trkpt lat="45.94140554144496" lon="12.868977137188375"><ele>34.0</ele><time>2026-04-02T15:15:02Z</time></trkpt><trkpt lat="45.941233360836925" lon="12.869021141007327"><ele>34.0</ele><time>2026-04-02T15:15:03Z</time></trkpt><trkpt lat="45.94108168437553" lon="12.869069646577445"><ele>34.0</ele><time>2026-04-02T15:15:04Z</time></trkpt><trkpt lat="45.94092591926079" lon="12.869113907720626"><ele>34.0</ele><time>2026-04-02T15:15:05Z</time></trkpt><trkpt lat="45.94076907511186" lon="12.869155647080632"><ele>34.5</ele><time>2026-04-02T15:15:06Z</time></trkpt><trkpt lat="45.94062134554278" lon="12.86919929275614"><ele>35.0</ele><time>2026-04-02T15:15:07Z</time></trkpt><trkpt lat="45.940474211010695" lon="12.869243496126387"><ele>35.5</ele><time>2026-04-02T15:15:08Z</time></trkpt><trkpt lat="45.940329950893485" lon="12.869286933337774"><ele>36.0</ele><time>2026-04-02T15:15:09Z</time></trkpt><trkpt lat="45.94018640796498" lon="12.869330379457878"><ele>36.25</ele><time>2026-04-02T15:15:10Z</time></trkpt><trkpt lat="45.94004387730012" lon="12.86937361621598"><ele>36.5</ele><time>2026-04-02T15:15:11Z</time></trkpt><trkpt lat="45.939903987220774" lon="12.869412774263326"><ele>36.75</ele><time>2026-04-02T15:15:12Z</time></trkpt><trkpt lat="45.939760916495786" lon="12.869453246363587"><ele>37.0</ele><time>2026-04-02T15:15:13Z</time></trkpt><trkpt lat="45.939619464319435" lon="12.869490571216655"><ele>37.0</ele><time>2026-04-02T15:15:14Z</time></trkpt><trkpt lat="45.93948043028554" lon="12.869533133994384"><ele>37.0</ele><time>2026-04-02T15:15:15Z</time></trkpt><trkpt lat="45.939341833600665" lon="12.869567416163875"><ele>37.0</ele><time>2026-04-02T15:15:16Z</time></trkpt><trkpt lat="45.9392280472502" lon="12.8696023782247"><ele>37.0</ele><time>2026-04-02T15:15:17Z</time></trkpt><trkpt lat="45.93910866889569" lon="12.86963695979381"><ele>37.0</ele><time>2026-04-02T15:15:18Z</time></trkpt><trkpt lat="45.938991377636626" lon="12.869678924249106"><ele>37.0</ele><time>2026-04-02T15:15:19Z</time></trkpt><trkpt lat="45.9388768215127" lon="12.86970091604747"><ele>37.0</ele><time>2026-04-02T15:15:20Z</time></trkpt><trkpt lat="45.938775545657414" lon="12.869853720803691"><ele>37.0</ele><time>2026-04-02T15:15:21Z</time></trkpt><trkpt lat="45.93865332126265" lon="12.869972465908052"><ele>37.0</ele><time>2026-04-02T15:15:22Z</time></trkpt><trkpt lat="45.938543568925624" lon="12.870107145097249"><ele>37.0</ele><time>2026-04-02T15:15:23Z</time></trkpt><trkpt lat="45.938442328176954" lon="12.870261011199892"><ele>37.0</ele><time>2026-04-02T15:15:24Z</time></trkpt><trkpt lat="45.938343223823765" lon="12.870428630822424"><ele>37.0</ele><time>2026-04-02T15:15:25Z</time></trkpt><trkpt lat="45.9382594542358" lon="12.870598900593947"><ele>37.5</ele><time>2026-04-02T15:15:26Z</time></trkpt><trkpt lat="45.938187986339905" lon="12.87076074088933"><ele>38.0</ele><time>2026-04-02T15:15:27Z</time></trkpt><trkpt lat="45.93812747263587" lon="12.870914266903862"><ele>38.5</ele><time>2026-04-02T15:15:28Z</time></trkpt><trkpt lat="45.938072943517845" lon="12.871057992123308"><ele>39.0</ele><time>2026-04-02T15:15:29Z</time></trkpt><trkpt lat="45.938023990999326" lon="12.871194380023866"><ele>39.0</ele><time>2026-04-02T15:15:30Z</time></trkpt><trkpt lat="45.93797996115553" lon="12.871321883669903"><ele>39.0</ele><time>2026-04-02T15:15:31Z</time></trkpt><trkpt lat="45.93793818026883" lon="12.871444788707924"><ele>39.0</ele><time>2026-04-02T15:15:32Z</time></trkpt><trkpt lat="45.93789955206479" lon="12.871559156586711"><ele>39.0</ele><time>2026-04-02T15:15:33Z</time></trkpt><trkpt lat="45.93786787716356" lon="12.871668789979632"><ele>39.0</ele><time>2026-04-02T15:15:34Z</time></trkpt><trkpt lat="45.937844248997024" lon="12.87176619298789"><ele>39.0</ele><time>2026-04-02T15:15:35Z</time></trkpt><trkpt lat="45.93781453641121" lon="12.87192318788374"><ele>39.0</ele><time>2026-04-02T15:15:37Z</time></trkpt><trkpt lat="45.93780846595548" lon="12.872023342083347"><ele>39.0</ele><time>2026-04-02T15:15:39Z</time></trkpt><trkpt lat="45.93777957631315" lon="12.87220869219905"><ele>39.0</ele><time>2026-04-02T15:15:40.999Z</time></trkpt><trkpt lat="45.937758650539536" lon="12.8723449236408"><ele>39.0</ele><time>2026-04-02T15:15:41.999Z</time></trkpt><trkpt lat="45.937690916688034" lon="12.87258911818109"><ele>38.0</ele><time>2026-04-02T15:15:42.999Z</time></trkpt><trkpt lat="45.93758687334248" lon="12.872671803997124"><ele>37.0</ele><time>2026-04-02T15:15:43.999Z</time></trkpt><trkpt lat="45.93743499455469" lon="12.872537762289683"><ele>36.0</ele><time>2026-04-02T15:15:45.999Z</time></trkpt><trkpt lat="45.93736935158588" lon="12.872647843129835"><ele>35.0</ele><time>2026-04-02T15:15:49.999Z</time></trkpt><trkpt lat="45.93730986703024" lon="12.872678833367635"><ele>35.0</ele><time>2026-04-02T15:15:59Z</time></trkpt><trkpt lat="45.937251356799685" lon="12.872720411485252"><ele>35.0</ele><time>2026-04-02T15:16:15Z</time></trkpt><trkpt lat="45.93718233350369" lon="12.87280808730174"><ele>35.0</ele><time>2026-04-02T15:16:21Z</time></trkpt><trkpt lat="45.93713481579186" lon="12.872896474461362"><ele>35.0</ele><time>2026-04-02T15:16:22Z</time></trkpt><trkpt lat="45.93708769777187" lon="12.873007478531601"><ele>35.0</ele><time>2026-04-02T15:16:23Z</time></trkpt><trkpt lat="45.936964587040045" lon="12.873029457372313"><ele>35.0</ele><time>2026-04-02T15:16:24Z</time></trkpt><trkpt lat="45.936856450379274" lon="12.873020529757955"><ele>35.0</ele><time>2026-04-02T15:16:25Z</time></trkpt><trkpt lat="45.93674388949727" lon="12.873029031739406"><ele>35.0</ele><time>2026-04-02T15:16:26Z</time></trkpt><trkpt lat="45.93660719769234" lon="12.872877940230795"><ele>35.0</ele><time>2026-04-02T15:16:27Z</time></trkpt><trkpt lat="45.936475928274604" lon="12.872772319341415"><ele>35.0</ele><time>2026-04-02T15:16:28Z</time></trkpt><trkpt lat="45.936349772774186" lon="12.872678257860544"><ele>35.0</ele><time>2026-04-02T15:16:29Z</time></trkpt><trkpt lat="45.93624063422734" lon="12.872594387086174"><ele>35.0</ele><time>2026-04-02T15:16:30Z</time></trkpt><trkpt lat="45.9361331254515" lon="12.872517474218846"><ele>35.0</ele><time>2026-04-02T15:16:31Z</time></trkpt><trkpt lat="45.93602302077196" lon="12.872438965194554"><ele>34.75</ele><time>2026-04-02T15:16:32Z</time></trkpt><trkpt lat="45.935913507908985" lon="12.87235277566285"><ele>34.5</ele><time>2026-04-02T15:16:33Z</time></trkpt><trkpt lat="45.935804827585315" lon="12.872270684685436"><ele>34.25</ele><time>2026-04-02T15:16:34Z</time></trkpt><trkpt lat="45.93568231762019" lon="12.872181608197124"><ele>34.0</ele><time>2026-04-02T15:16:35Z</time></trkpt><trkpt lat="45.93554754840234" lon="12.872082554613954"><ele>34.66666666666667</ele><time>2026-04-02T15:16:36Z</time></trkpt><trkpt lat="45.93540714703969" lon="12.871974963407913"><ele>35.333333333333336</ele><time>2026-04-02T15:16:37Z</time></trkpt><trkpt lat="45.935269005158254" lon="12.871878388650003"><ele>36.0</ele><time>2026-04-02T15:16:38Z</time></trkpt><trkpt lat="45.93514978904603" lon="12.871768530109053"><ele>36.333333333333336</ele><time>2026-04-02T15:16:39Z</time></trkpt><trkpt lat="45.934995472179814" lon="12.871656867727074"><ele>36.66666666666667</ele><time>2026-04-02T15:16:40Z</time></trkpt><trkpt lat="45.93485674417812" lon="12.87155582677066"><ele>37.0</ele><time>2026-04-02T15:16:41Z</time></trkpt><trkpt lat="45.93472375010769" lon="12.87144442106801"><ele>37.0</ele><time>2026-04-02T15:16:42Z</time></trkpt><trkpt lat="45.93459795083986" lon="12.871349697563904"><ele>37.0</ele><time>2026-04-02T15:16:43Z</time></trkpt><trkpt lat="45.934468687064324" lon="12.871259001112827"><ele>37.0</ele><time>2026-04-02T15:16:44Z</time></trkpt><trkpt lat="45.93435507691353" lon="12.871183069919548"><ele>37.0</ele><time>2026-04-02T15:16:45Z</time></trkpt><trkpt lat="45.93424802746683" lon="12.871100044043311"><ele>36.6</ele><time>2026-04-02T15:16:46Z</time></trkpt><trkpt lat="45.93415938604234" lon="12.871042605497014"><ele>36.2</ele><time>2026-04-02T15:16:47Z</time></trkpt><trkpt lat="45.93406945356695" lon="12.871043573323567"><ele>35.8</ele><time>2026-04-02T15:16:48Z</time></trkpt><trkpt lat="45.93396327068296" lon="12.871061484402505"><ele>35.4</ele><time>2026-04-02T15:16:49Z</time></trkpt><trkpt lat="45.933821687234065" lon="12.871076282898418"><ele>35.0</ele><time>2026-04-02T15:16:50Z</time></trkpt><trkpt lat="45.93370626104592" lon="12.871097704345365"><ele>35.0</ele><time>2026-04-02T15:16:51Z</time></trkpt><trkpt lat="45.9335384435774" lon="12.871136756528342"><ele>35.0</ele><time>2026-04-02T15:16:52Z</time></trkpt><trkpt lat="45.93337820431798" lon="12.871178926107351"><ele>35.0</ele><time>2026-04-02T15:16:53Z</time></trkpt><trkpt lat="45.93320867316486" lon="12.871222158105965"><ele>34.0</ele><time>2026-04-02T15:16:54Z</time></trkpt><trkpt lat="45.93303651612848" lon="12.871265092575577"><ele>33.0</ele><time>2026-04-02T15:16:55Z</time></trkpt><trkpt lat="45.93290082215391" lon="12.871311706244896"><ele>32.0</ele><time>2026-04-02T15:16:56Z</time></trkpt><trkpt lat="45.932765122819205" lon="12.871359663656884"><ele>32.0</ele><time>2026-04-02T15:16:57Z</time></trkpt><trkpt lat="45.93262639948147" lon="12.871370387475151"><ele>32.0</ele><time>2026-04-02T15:16:58Z</time></trkpt><trkpt lat="45.93250022066344" lon="12.871417538367377"><ele>32.0</ele><time>2026-04-02T15:16:59Z</time></trkpt><trkpt lat="45.93234982177945" lon="12.871452942913093"><ele>32.0</ele><time>2026-04-02T15:17:00Z</time></trkpt><trkpt lat="45.93223325374222" lon="12.871496446834845"><ele>32.5</ele><time>2026-04-02T15:17:01Z</time></trkpt><trkpt lat="45.93207561367964" lon="12.871517296371227"><ele>33.0</ele><time>2026-04-02T15:17:02Z</time></trkpt><trkpt lat="45.93197163389008" lon="12.87155216974389"><ele>33.5</ele><time>2026-04-02T15:17:03Z</time></trkpt><trkpt lat="45.93182273146936" lon="12.871582340593996"><ele>34.0</ele><time>2026-04-02T15:17:04Z</time></trkpt><trkpt lat="45.931706290006126" lon="12.871631756412024"><ele>34.0</ele><time>2026-04-02T15:17:05Z</time></trkpt><trkpt lat="45.93161715196221" lon="12.87166242972531"><ele>34.0</ele><time>2026-04-02T15:17:06Z</time></trkpt><trkpt lat="45.9315400068297" lon="12.87168319712504"><ele>34.0</ele><time>2026-04-02T15:17:07Z</time></trkpt><trkpt lat="45.931451990771826" lon="12.871714171443479"><ele>34.0</ele><time>2026-04-02T15:17:08Z</time></trkpt><trkpt lat="45.93142165102052" lon="12.8715999028257"><ele>34.0</ele><time>2026-04-02T15:17:10Z</time></trkpt><trkpt lat="45.931388109649475" lon="12.871499845615508"><ele>34.0</ele><time>2026-04-02T15:17:17Z</time></trkpt><trkpt lat="45.93133484326398" lon="12.871577826651404"><ele>34.0</ele><time>2026-04-02T15:18:37Z</time></trkpt><trkpt lat="45.93126217548427" lon="12.871621132385904"><ele>34.0</ele><time>2026-04-02T15:18:39Z</time></trkpt><trkpt lat="45.931349546919826" lon="12.871635961552217"><ele>34.0</ele><time>2026-04-02T15:18:55Z</time></trkpt><trkpt lat="45.931295855888386" lon="12.871690032057959"><ele>34.0</ele><time>2026-04-02T15:20:22Z</time></trkpt><trkpt lat="45.931393255834024" lon="12.871622332490734"><ele>34.0</ele><time>2026-04-02T15:20:54Z</time></trkpt><trkpt lat="45.931302933308665" lon="12.871655985526532"><ele>34.0</ele><time>2026-04-02T15:23:31.999Z</time></trkpt><trkpt lat="45.931239766844904" lon="12.871705243677482"><ele>34.0</ele><time>2026-04-02T15:23:33.999Z</time></trkpt><trkpt lat="45.93139475601071" lon="12.871796307867456"><ele>34.0</ele><time>2026-04-02T15:23:42.999Z</time></trkpt><trkpt lat="45.93150763102937" lon="12.871765277235832"><ele>34.0</ele><time>2026-04-02T15:23:43.999Z</time></trkpt><trkpt lat="45.9316403379489" lon="12.871729828046236"><ele>34.0</ele><time>2026-04-02T15:23:44.999Z</time></trkpt><trkpt lat="45.931780316519706" lon="12.871693168865775"><ele>34.333333333333336</ele><time>2026-04-02T15:23:45.999Z</time></trkpt><trkpt lat="45.931935104125216" lon="12.87165425848475"><ele>34.666666666666664</ele><time>2026-04-02T15:23:46.999Z</time></trkpt><trkpt lat="45.932093920853966" lon="12.87161750918408"><ele>35.0</ele><time>2026-04-02T15:23:47.999Z</time></trkpt><trkpt lat="45.932263763616604" lon="12.8715720061134"><ele>35.0</ele><time>2026-04-02T15:23:48.999Z</time></trkpt><trkpt lat="45.932446888400285" lon="12.871521418841189"><ele>35.0</ele><time>2026-04-02T15:23:49.999Z</time></trkpt><trkpt lat="45.93262455413587" lon="12.871474316943944"><ele>35.0</ele><time>2026-04-02T15:23:50.999Z</time></trkpt><trkpt lat="45.9328031077274" lon="12.871426115473096"><ele>34.0</ele><time>2026-04-02T15:23:51.999Z</time></trkpt><trkpt lat="45.93297504728272" lon="12.87137851234398"><ele>33.0</ele><time>2026-04-02T15:23:52.999Z</time></trkpt><trkpt lat="45.93314857457876" lon="12.871337846095999"><ele>32.0</ele><time>2026-04-02T15:23:53.999Z</time></trkpt><trkpt lat="45.93331955986263" lon="12.871289993954969"><ele>33.0</ele><time>2026-04-02T15:23:54.999Z</time></trkpt><trkpt lat="45.93348280933186" lon="12.87124481964425"><ele>34.0</ele><time>2026-04-02T15:23:55.999Z</time></trkpt><trkpt lat="45.933641724670984" lon="12.871222201996476"><ele>35.0</ele><time>2026-04-02T15:23:56.999Z</time></trkpt><trkpt lat="45.93379255259041" lon="12.87120740298707"><ele>35.0</ele><time>2026-04-02T15:23:57.999Z</time></trkpt><trkpt lat="45.93394820649391" lon="12.871199534360473"><ele>35.0</ele><time>2026-04-02T15:23:58.999Z</time></trkpt><trkpt lat="45.93412635195897" lon="12.871210328394838"><ele>35.0</ele><time>2026-04-02T15:23:59.999Z</time></trkpt><trkpt lat="45.934266517315024" lon="12.871282941898787"><ele>35.666666666666664</ele><time>2026-04-02T15:24:00.999Z</time></trkpt><trkpt lat="45.93443062722178" lon="12.871347778898738"><ele>36.333333333333336</ele><time>2026-04-02T15:24:01.999Z</time></trkpt><trkpt lat="45.93458722082261" lon="12.871458690362685"><ele>37.0</ele><time>2026-04-02T15:24:02.999Z</time></trkpt><trkpt lat="45.93474494166844" lon="12.871577254663176"><ele>37.0</ele><time>2026-04-02T15:24:03.999Z</time></trkpt><trkpt lat="45.934914049632816" lon="12.87169786594509"><ele>37.0</ele><time>2026-04-02T15:24:04.999Z</time></trkpt><trkpt lat="45.93508540070787" lon="12.871822519271817"><ele>37.0</ele><time>2026-04-02T15:24:05.999Z</time></trkpt><trkpt lat="45.93525465258786" lon="12.87194486660766"><ele>36.66666666666667</ele><time>2026-04-02T15:24:06.999Z</time></trkpt><trkpt lat="45.93542130455917" lon="12.8720522800246"><ele>36.333333333333336</ele><time>2026-04-02T15:24:07.999Z</time></trkpt><trkpt lat="45.93558718971219" lon="12.872181600324813"><ele>36.0</ele><time>2026-04-02T15:24:08.999Z</time></trkpt><trkpt lat="45.9357373316529" lon="12.872300674518343"><ele>36.0</ele><time>2026-04-02T15:24:09.999Z</time></trkpt><trkpt lat="45.935879959328744" lon="12.872396636892406"><ele>36.0</ele><time>2026-04-02T15:24:10.999Z</time></trkpt><trkpt lat="45.93601223214725" lon="12.872488783921284"><ele>36.0</ele><time>2026-04-02T15:24:11.999Z</time></trkpt><trkpt lat="45.93613982640862" lon="12.872586616172251"><ele>36.0</ele><time>2026-04-02T15:24:12.999Z</time></trkpt><trkpt lat="45.93626190453946" lon="12.872669988972289"><ele>35.75</ele><time>2026-04-02T15:24:13.999Z</time></trkpt><trkpt lat="45.936377569752146" lon="12.87276160747379"><ele>35.5</ele><time>2026-04-02T15:24:14.999Z</time></trkpt><trkpt lat="45.936492066152766" lon="12.872852729593395"><ele>35.25</ele><time>2026-04-02T15:24:15.999Z</time></trkpt><trkpt lat="45.93659385064237" lon="12.872930887344411"><ele>35.0</ele><time>2026-04-02T15:24:16.999Z</time></trkpt><trkpt lat="45.936690120674236" lon="12.872998508409243"><ele>35.0</ele><time>2026-04-02T15:24:17.999Z</time></trkpt><trkpt lat="45.93677474038726" lon="12.873058351083277"><ele>35.0</ele><time>2026-04-02T15:24:18.999Z</time></trkpt><trkpt lat="45.93683806242016" lon="12.873107602280118"><ele>35.0</ele><time>2026-04-02T15:24:19.999Z</time></trkpt><trkpt lat="45.93693447855338" lon="12.873166196127597"><ele>35.0</ele><time>2026-04-02T15:24:21.999Z</time></trkpt><trkpt lat="45.937048921371826" lon="12.873257077647175"><ele>35.0</ele><time>2026-04-02T15:24:23.999Z</time></trkpt><trkpt lat="45.937104831607584" lon="12.873357610987544"><ele>35.6</ele><time>2026-04-02T15:24:24.999Z</time></trkpt><trkpt lat="45.93715353631983" lon="12.873485800373139"><ele>36.2</ele><time>2026-04-02T15:24:25.999Z</time></trkpt><trkpt lat="45.937185273378454" lon="12.873623209470988"><ele>36.8</ele><time>2026-04-02T15:24:26.999Z</time></trkpt><trkpt lat="45.93718165617518" lon="12.873775920848233"><ele>37.4</ele><time>2026-04-02T15:24:27.999Z</time></trkpt><trkpt lat="45.93719560974616" lon="12.87393732719142"><ele>38.0</ele><time>2026-04-02T15:24:28.999Z</time></trkpt><trkpt lat="45.93710294841717" lon="12.874096630338618"><ele>38.0</ele><time>2026-04-02T15:24:29.999Z</time></trkpt><trkpt lat="45.93703769336469" lon="12.874262472055934"><ele>38.0</ele><time>2026-04-02T15:24:30.999Z</time></trkpt><trkpt lat="45.93697254027366" lon="12.874442177703859"><ele>38.0</ele><time>2026-04-02T15:24:31.999Z</time></trkpt><trkpt lat="45.93690121731096" lon="12.874640703915654"><ele>38.0</ele><time>2026-04-02T15:24:32.999Z</time></trkpt><trkpt lat="45.93682925913726" lon="12.874841526288492"><ele>38.0</ele><time>2026-04-02T15:24:33.999Z</time></trkpt><trkpt lat="45.93675418870075" lon="12.875051627095846"><ele>38.0</ele><time>2026-04-02T15:24:34.999Z</time></trkpt><trkpt lat="45.93667754131384" lon="12.8752659671579"><ele>38.0</ele><time>2026-04-02T15:24:35.999Z</time></trkpt><trkpt lat="45.936601192971914" lon="12.875480845174952"><ele>37.666666666666664</ele><time>2026-04-02T15:24:36.999Z</time></trkpt><trkpt lat="45.93652292077918" lon="12.875686772115003"><ele>37.333333333333336</ele><time>2026-04-02T15:24:37.999Z</time></trkpt><trkpt lat="45.93644822089912" lon="12.875891073825324"><ele>37.0</ele><time>2026-04-02T15:24:38.999Z</time></trkpt><trkpt lat="45.93636617689883" lon="12.876105184444796"><ele>37.0</ele><time>2026-04-02T15:24:39.999Z</time></trkpt><trkpt lat="45.93629793015237" lon="12.876339837562988"><ele>37.0</ele><time>2026-04-02T15:24:40.999Z</time></trkpt><trkpt lat="45.93620174132311" lon="12.876559597942949"><ele>37.0</ele><time>2026-04-02T15:24:41.999Z</time></trkpt><trkpt lat="45.93613646736007" lon="12.876760467883134"><ele>36.66666666666667</ele><time>2026-04-02T15:24:42.999Z</time></trkpt><trkpt lat="45.936062974122976" lon="12.876976819016837"><ele>36.333333333333336</ele><time>2026-04-02T15:24:43.999Z</time></trkpt><trkpt lat="45.935994751731585" lon="12.877174906840883"><ele>36.0</ele><time>2026-04-02T15:24:44.999Z</time></trkpt><trkpt lat="45.935910326207285" lon="12.877394001271877"><ele>35.333333333333336</ele><time>2026-04-02T15:24:45.999Z</time></trkpt><trkpt lat="45.935841169259554" lon="12.877603525104362"><ele>34.66666666666667</ele><time>2026-04-02T15:24:46.999Z</time></trkpt><trkpt lat="45.93576496444764" lon="12.877822888123456"><ele>34.0</ele><time>2026-04-02T15:24:47.999Z</time></trkpt><trkpt lat="45.93568821248875" lon="12.878025207103821"><ele>34.0</ele><time>2026-04-02T15:24:48.999Z</time></trkpt><trkpt lat="45.93560929538344" lon="12.878223188512914"><ele>34.0</ele><time>2026-04-02T15:24:49.999Z</time></trkpt><trkpt lat="45.93554165915883" lon="12.87842307387865"><ele>34.0</ele><time>2026-04-02T15:24:50.999Z</time></trkpt><trkpt lat="45.93546821420454" lon="12.878621043683681"><ele>34.66666666666667</ele><time>2026-04-02T15:24:51.999Z</time></trkpt><trkpt lat="45.935395446573565" lon="12.878813723831643"><ele>35.333333333333336</ele><time>2026-04-02T15:24:52.999Z</time></trkpt><trkpt lat="45.93532468410698" lon="12.879011001799824"><ele>36.0</ele><time>2026-04-02T15:24:53.999Z</time></trkpt><trkpt lat="45.93525300048698" lon="12.879208562327726"><ele>37.0</ele><time>2026-04-02T15:24:54.999Z</time></trkpt><trkpt lat="45.93518314796067" lon="12.879409337204763"><ele>38.0</ele><time>2026-04-02T15:24:55.999Z</time></trkpt><trkpt lat="45.935117176746175" lon="12.879609098893514"><ele>39.0</ele><time>2026-04-02T15:24:56.999Z</time></trkpt><trkpt lat="45.93505780982977" lon="12.879811528820827"><ele>38.25</ele><time>2026-04-02T15:24:57.999Z</time></trkpt><trkpt lat="45.935001111482784" lon="12.879991942845901"><ele>37.5</ele><time>2026-04-02T15:24:58.999Z</time></trkpt><trkpt lat="45.93494864953274" lon="12.880171503100346"><ele>36.75</ele><time>2026-04-02T15:24:59.999Z</time></trkpt><trkpt lat="45.93492141635367" lon="12.880378026051062"><ele>36.0</ele><time>2026-04-02T15:25:00.999Z</time></trkpt><trkpt lat="45.934896213302444" lon="12.88055733816141"><ele>35.5</ele><time>2026-04-02T15:25:01.999Z</time></trkpt><trkpt lat="45.93487524707599" lon="12.880747666917248"><ele>35.0</ele><time>2026-04-02T15:25:02.999Z</time></trkpt><trkpt lat="45.934858400343096" lon="12.88095675678219"><ele>34.5</ele><time>2026-04-02T15:25:03.999Z</time></trkpt><trkpt lat="45.93484942818557" lon="12.881166045200978"><ele>34.0</ele><time>2026-04-02T15:25:04.999Z</time></trkpt><trkpt lat="45.934851878050374" lon="12.881383096490568"><ele>33.66666666666667</ele><time>2026-04-02T15:25:05.999Z</time></trkpt><trkpt lat="45.93486075066017" lon="12.881615383071235"><ele>33.333333333333336</ele><time>2026-04-02T15:25:06.999Z</time></trkpt><trkpt lat="45.93487594792721" lon="12.881837545771003"><ele>33.0</ele><time>2026-04-02T15:25:07.999Z</time></trkpt><trkpt lat="45.93490073554944" lon="12.882096344367596"><ele>33.666666666666664</ele><time>2026-04-02T15:25:09Z</time></trkpt><trkpt lat="45.93492756858826" lon="12.882336948213547"><ele>34.33333333333333</ele><time>2026-04-02T15:25:10Z</time></trkpt><trkpt lat="45.9349549292719" lon="12.882577029976122"><ele>35.0</ele><time>2026-04-02T15:25:11Z</time></trkpt><trkpt lat="45.93498193505935" lon="12.882813997668404"><ele>35.0</ele><time>2026-04-02T15:25:12Z</time></trkpt><trkpt lat="45.93500870768803" lon="12.883047823574595"><ele>35.0</ele><time>2026-04-02T15:25:13Z</time></trkpt><trkpt lat="45.93503524551642" lon="12.88327876648157"><ele>35.0</ele><time>2026-04-02T15:25:14Z</time></trkpt><trkpt lat="45.93506176678561" lon="12.883512052638197"><ele>35.0</ele><time>2026-04-02T15:25:15Z</time></trkpt><trkpt lat="45.9350880205928" lon="12.883745148589348"><ele>35.0</ele><time>2026-04-02T15:25:16Z</time></trkpt><trkpt lat="45.935114954922234" lon="12.88398428649342"><ele>35.0</ele><time>2026-04-02T15:25:17Z</time></trkpt><trkpt lat="45.93514143312923" lon="12.884219375116603"><ele>35.0</ele><time>2026-04-02T15:25:18Z</time></trkpt><trkpt lat="45.93516762650312" lon="12.884455822326967"><ele>35.0</ele><time>2026-04-02T15:25:19Z</time></trkpt><trkpt lat="45.93519443843505" lon="12.884697519379136"><ele>35.0</ele><time>2026-04-02T15:25:20Z</time></trkpt><trkpt lat="45.935220598956505" lon="12.884933344335003"><ele>35.0</ele><time>2026-04-02T15:25:21Z</time></trkpt><trkpt lat="45.935246570843105" lon="12.88516746866945"><ele>35.0</ele><time>2026-04-02T15:25:22Z</time></trkpt><trkpt lat="45.93527228710103" lon="12.885398450365265"><ele>35.0</ele><time>2026-04-02T15:25:23Z</time></trkpt><trkpt lat="45.93529766911153" lon="12.88562633859662"><ele>35.0</ele><time>2026-04-02T15:25:24Z</time></trkpt><trkpt lat="45.9353228397661" lon="12.885852329181542"><ele>35.0</ele><time>2026-04-02T15:25:25Z</time></trkpt><trkpt lat="45.93534761463187" lon="12.886074767500663"><ele>35.0</ele><time>2026-04-02T15:25:26Z</time></trkpt><trkpt lat="45.935372283332775" lon="12.88629494204234"><ele>35.25</ele><time>2026-04-02T15:25:27Z</time></trkpt><trkpt lat="45.93539604759005" lon="12.886507428743489"><ele>35.5</ele><time>2026-04-02T15:25:28Z</time></trkpt><trkpt lat="45.935419432493674" lon="12.886716523535155"><ele>35.75</ele><time>2026-04-02T15:25:29Z</time></trkpt><trkpt lat="45.93544285016141" lon="12.886925911186943"><ele>36.0</ele><time>2026-04-02T15:25:30Z</time></trkpt><trkpt lat="45.93546582672218" lon="12.887132956351943"><ele>36.25</ele><time>2026-04-02T15:25:31Z</time></trkpt><trkpt lat="45.93548881575296" lon="12.887340557014495"><ele>36.5</ele><time>2026-04-02T15:25:32Z</time></trkpt><trkpt lat="45.93551162631322" lon="12.887546546002522"><ele>36.75</ele><time>2026-04-02T15:25:33Z</time></trkpt><trkpt lat="45.93553517670512" lon="12.887756937897953"><ele>37.0</ele><time>2026-04-02T15:25:34Z</time></trkpt><trkpt lat="45.93555681928112" lon="12.887966361056757"><ele>37.0</ele><time>2026-04-02T15:25:35Z</time></trkpt><trkpt lat="45.93556319586631" lon="12.8881769038865"><ele>37.0</ele><time>2026-04-02T15:25:36Z</time></trkpt><trkpt lat="45.935593229464274" lon="12.888377132126934"><ele>37.0</ele><time>2026-04-02T15:25:37Z</time></trkpt><trkpt lat="45.93564489836165" lon="12.88856025823857"><ele>37.0</ele><time>2026-04-02T15:25:38Z</time></trkpt><trkpt lat="45.935711136448724" lon="12.888725007443394"><ele>36.75</ele><time>2026-04-02T15:25:39Z</time></trkpt><trkpt lat="45.935792969501456" lon="12.88887257520347"><ele>36.5</ele><time>2026-04-02T15:25:40Z</time></trkpt><trkpt lat="45.93588817277061" lon="12.888986280754017"><ele>36.25</ele><time>2026-04-02T15:25:41Z</time></trkpt><trkpt lat="45.93599038833523" lon="12.889063750474083"><ele>36.0</ele><time>2026-04-02T15:25:42Z</time></trkpt><trkpt lat="45.936096887931875" lon="12.889110224033265"><ele>36.0</ele><time>2026-04-02T15:25:43Z</time></trkpt><trkpt lat="45.93622148570271" lon="12.889143480768496"><ele>36.0</ele><time>2026-04-02T15:25:44Z</time></trkpt><trkpt lat="45.93633412863153" lon="12.889149269171389"><ele>36.0</ele><time>2026-04-02T15:25:45Z</time></trkpt><trkpt lat="45.93643308042743" lon="12.88912824613973"><ele>36.0</ele><time>2026-04-02T15:25:46Z</time></trkpt><trkpt lat="45.93652568865533" lon="12.889109163869344"><ele>36.0</ele><time>2026-04-02T15:25:47Z</time></trkpt><trkpt lat="45.93660675589419" lon="12.889106184119877"><ele>36.0</ele><time>2026-04-02T15:25:48Z</time></trkpt><trkpt lat="45.93667415978918" lon="12.88909436357869"><ele>36.0</ele><time>2026-04-02T15:25:49Z</time></trkpt><trkpt lat="45.936758681326424" lon="12.889297492909883"><ele>36.0</ele><time>2026-04-02T15:25:51Z</time></trkpt><trkpt lat="45.936760687356724" lon="12.889431788334722"><ele>36.0</ele><time>2026-04-02T15:25:52Z</time></trkpt><trkpt lat="45.93675655408726" lon="12.889599330255507"><ele>36.0</ele><time>2026-04-02T15:25:53Z</time></trkpt><trkpt lat="45.93676234406751" lon="12.889766002000382"><ele>36.25</ele><time>2026-04-02T15:25:54Z</time></trkpt><trkpt lat="45.936753063311386" lon="12.889958476165248"><ele>36.5</ele><time>2026-04-02T15:25:55Z</time></trkpt><trkpt lat="45.9367480130529" lon="12.890132837526107"><ele>36.75</ele><time>2026-04-02T15:25:56Z</time></trkpt><trkpt lat="45.93672761374939" lon="12.8902606988026"><ele>37.0</ele><time>2026-04-02T15:25:57Z</time></trkpt><trkpt lat="45.93666667065707" lon="12.890397933816606"><ele>36.5</ele><time>2026-04-02T15:25:59Z</time></trkpt><trkpt lat="45.93685225158719" lon="12.890618587630385"><ele>36.0</ele><time>2026-04-02T15:26:01Z</time></trkpt><trkpt lat="45.936947177831655" lon="12.890651957994537"><ele>35.5</ele><time>2026-04-02T15:26:02Z</time></trkpt><trkpt lat="45.93704753319424" lon="12.89069461509111"><ele>35.0</ele><time>2026-04-02T15:26:03Z</time></trkpt><trkpt lat="45.93713113987267" lon="12.890716056159734"><ele>35.0</ele><time>2026-04-02T15:26:04Z</time></trkpt><trkpt lat="45.93719825783322" lon="12.89078923199208"><ele>35.0</ele><time>2026-04-02T15:26:05Z</time></trkpt><trkpt lat="45.93727050495784" lon="12.890862048163976"><ele>35.0</ele><time>2026-04-02T15:26:06Z</time></trkpt><trkpt lat="45.93735381344726" lon="12.890901944400845"><ele>35.0</ele><time>2026-04-02T15:26:07Z</time></trkpt><trkpt lat="45.937424091291554" lon="12.890945789977573"><ele>35.0</ele><time>2026-04-02T15:26:08Z</time></trkpt><trkpt lat="45.93749498801055" lon="12.890991770595097"><ele>35.0</ele><time>2026-04-02T15:26:09Z</time></trkpt><trkpt lat="45.937559954355876" lon="12.891033776857464"><ele>35.33333333333333</ele><time>2026-04-02T15:26:10Z</time></trkpt><trkpt lat="45.93763351844416" lon="12.89108013415306"><ele>35.666666666666664</ele><time>2026-04-02T15:26:11Z</time></trkpt><trkpt lat="45.937706227868304" lon="12.89111931018265"><ele>36.0</ele><time>2026-04-02T15:26:12Z</time></trkpt><trkpt lat="45.937789886224316" lon="12.891147453041869"><ele>36.333333333333336</ele><time>2026-04-02T15:26:13Z</time></trkpt><trkpt lat="45.93785791570566" lon="12.891191072215829"><ele>36.66666666666667</ele><time>2026-04-02T15:26:14Z</time></trkpt><trkpt lat="45.93793997622752" lon="12.891221506659045"><ele>37.0</ele><time>2026-04-02T15:26:15Z</time></trkpt><trkpt lat="45.938036250386816" lon="12.891300341105342"><ele>37.0</ele><time>2026-04-02T15:26:16Z</time></trkpt><trkpt lat="45.938109009254305" lon="12.891343671018369"><ele>37.0</ele><time>2026-04-02T15:26:17Z</time></trkpt><trkpt lat="45.93817254988733" lon="12.891381511304449"><ele>37.0</ele><time>2026-04-02T15:26:18Z</time></trkpt><trkpt lat="45.938236469799854" lon="12.89142347604622"><ele>37.0</ele><time>2026-04-02T15:26:19Z</time></trkpt><trkpt lat="45.93832880082737" lon="12.891486439414095"><ele>37.0</ele><time>2026-04-02T15:26:20Z</time></trkpt><trkpt lat="45.93841290972704" lon="12.89154509549015"><ele>37.0</ele><time>2026-04-02T15:26:21Z</time></trkpt><trkpt lat="45.93851904690108" lon="12.89161911369235"><ele>36.75</ele><time>2026-04-02T15:26:22Z</time></trkpt><trkpt lat="45.93863420975182" lon="12.891671865614356"><ele>36.5</ele><time>2026-04-02T15:26:23Z</time></trkpt><trkpt lat="45.93873575372451" lon="12.89173350558229"><ele>36.25</ele><time>2026-04-02T15:26:24Z</time></trkpt><trkpt lat="45.93882565522566" lon="12.891811060741988"><ele>36.0</ele><time>2026-04-02T15:26:25Z</time></trkpt><trkpt lat="45.93893287922907" lon="12.891877821767556"><ele>36.0</ele><time>2026-04-02T15:26:26Z</time></trkpt><trkpt lat="45.939002410844054" lon="12.891939171339757"><ele>36.0</ele><time>2026-04-02T15:26:27Z</time></trkpt><trkpt lat="45.939053299787986" lon="12.892040964094031"><ele>36.0</ele><time>2026-04-02T15:26:28Z</time></trkpt><trkpt lat="45.93911328917246" lon="12.892166585089923"><ele>36.0</ele><time>2026-04-02T15:26:29Z</time></trkpt><trkpt lat="45.93918410975098" lon="12.892318726665229"><ele>36.0</ele><time>2026-04-02T15:26:30Z</time></trkpt><trkpt lat="45.93926616503206" lon="12.892477420316835"><ele>36.5</ele><time>2026-04-02T15:26:31Z</time></trkpt><trkpt lat="45.939351261644504" lon="12.892633143451333"><ele>37.0</ele><time>2026-04-02T15:26:32Z</time></trkpt><trkpt lat="45.939429418187" lon="12.892779912428422"><ele>37.5</ele><time>2026-04-02T15:26:33Z</time></trkpt><trkpt lat="45.9394973754165" lon="12.892885531825097"><ele>38.0</ele><time>2026-04-02T15:26:34Z</time></trkpt><trkpt lat="45.939543949925245" lon="12.892995589733392"><ele>38.0</ele><time>2026-04-02T15:26:35Z</time></trkpt><trkpt lat="45.939612352727586" lon="12.893121221542813"><ele>38.0</ele><time>2026-04-02T15:26:36Z</time></trkpt><trkpt lat="45.93965663145531" lon="12.893238119735111"><ele>38.0</ele><time>2026-04-02T15:26:37Z</time></trkpt><trkpt lat="45.93973138359902" lon="12.893367337436729"><ele>38.0</ele><time>2026-04-02T15:26:38Z</time></trkpt><trkpt lat="45.939799093646414" lon="12.893484690636994"><ele>38.0</ele><time>2026-04-02T15:26:39Z</time></trkpt><trkpt lat="45.93984760646079" lon="12.89363184850424"><ele>38.0</ele><time>2026-04-02T15:26:40Z</time></trkpt><trkpt lat="45.9399142361216" lon="12.893729803400209"><ele>38.0</ele><time>2026-04-02T15:26:41Z</time></trkpt><trkpt lat="45.939963930898855" lon="12.893808055604795"><ele>38.0</ele><time>2026-04-02T15:26:42Z</time></trkpt><trkpt lat="45.940016357514274" lon="12.893906778537987"><ele>38.0</ele><time>2026-04-02T15:26:43Z</time></trkpt><trkpt lat="45.94005741227965" lon="12.894002590627798"><ele>38.0</ele><time>2026-04-02T15:26:44Z</time></trkpt><trkpt lat="45.940097787105614" lon="12.89407693821191"><ele>38.0</ele><time>2026-04-02T15:26:45Z</time></trkpt><trkpt lat="45.94013040527214" lon="12.894216831772155"><ele>38.199999999999996</ele><time>2026-04-02T15:26:47Z</time></trkpt><trkpt lat="45.94016139502581" lon="12.89430937624509"><ele>38.4</ele><time>2026-04-02T15:26:48Z</time></trkpt><trkpt lat="45.940189895295674" lon="12.894439527832429"><ele>38.599999999999994</ele><time>2026-04-02T15:26:49Z</time></trkpt><trkpt lat="45.94020170854329" lon="12.894587739171307"><ele>38.8</ele><time>2026-04-02T15:26:50Z</time></trkpt><trkpt lat="45.940190997110804" lon="12.894726641167725"><ele>39.0</ele><time>2026-04-02T15:26:51Z</time></trkpt><trkpt lat="45.94016261241391" lon="12.894860861759273"><ele>39.0</ele><time>2026-04-02T15:26:52Z</time></trkpt><trkpt lat="45.94012499750659" lon="12.895000195835"><ele>39.0</ele><time>2026-04-02T15:26:53Z</time></trkpt><trkpt lat="45.94007620593498" lon="12.895155960804754"><ele>39.0</ele><time>2026-04-02T15:26:54Z</time></trkpt><trkpt lat="45.94003167471265" lon="12.895292175918822"><ele>39.0</ele><time>2026-04-02T15:26:55Z</time></trkpt><trkpt lat="45.93999486345369" lon="12.895416493235798"><ele>39.0</ele><time>2026-04-02T15:26:56Z</time></trkpt><trkpt lat="45.939973569194784" lon="12.895542623974498"><ele>39.0</ele><time>2026-04-02T15:26:57Z</time></trkpt><trkpt lat="45.93996323743944" lon="12.895650626402103"><ele>39.0</ele><time>2026-04-02T15:26:58Z</time></trkpt><trkpt lat="45.93996683761304" lon="12.895769668287365"><ele>39.0</ele><time>2026-04-02T15:26:59Z</time></trkpt><trkpt lat="45.93998522955417" lon="12.89590030449666"><ele>39.0</ele><time>2026-04-02T15:27:00Z</time></trkpt><trkpt lat="45.939975639409084" lon="12.896022319315785"><ele>39.0</ele><time>2026-04-02T15:27:01Z</time></trkpt><trkpt lat="45.93999883670099" lon="12.896151208922431"><ele>39.0</ele><time>2026-04-02T15:27:02Z</time></trkpt><trkpt lat="45.940024995761746" lon="12.896355831536969"><ele>38.6</ele><time>2026-04-02T15:27:04Z</time></trkpt><trkpt lat="45.94004019176469" lon="12.896492927204752"><ele>38.2</ele><time>2026-04-02T15:27:05Z</time></trkpt><trkpt lat="45.94005500510933" lon="12.89662657066084"><ele>37.800000000000004</ele><time>2026-04-02T15:27:06Z</time></trkpt><trkpt lat="45.94006783790346" lon="12.896742345929415"><ele>37.4</ele><time>2026-04-02T15:27:07Z</time></trkpt><trkpt lat="45.94008021059441" lon="12.896854550098656"><ele>37.0</ele><time>2026-04-02T15:27:08Z</time></trkpt><trkpt lat="45.940096550209816" lon="12.897003900329167"><ele>36.800000000000004</ele><time>2026-04-02T15:27:09Z</time></trkpt><trkpt lat="45.940112245254355" lon="12.897147358963016"><ele>36.6</ele><time>2026-04-02T15:27:10Z</time></trkpt><trkpt lat="45.94012811618184" lon="12.897292425196106"><ele>36.400000000000006</ele><time>2026-04-02T15:27:11Z</time></trkpt><trkpt lat="45.94014329537315" lon="12.897429423489168"><ele>36.2</ele><time>2026-04-02T15:27:12Z</time></trkpt><trkpt lat="45.94015961066021" lon="12.897572312563835"><ele>36.0</ele><time>2026-04-02T15:27:13Z</time></trkpt><trkpt lat="45.940174157131786" lon="12.897699710489075"><ele>36.0</ele><time>2026-04-02T15:27:14Z</time></trkpt><trkpt lat="45.94018804574504" lon="12.897827253502111"><ele>36.0</ele><time>2026-04-02T15:27:15Z</time></trkpt><trkpt lat="45.94020028771859" lon="12.897947512826294"><ele>36.0</ele><time>2026-04-02T15:27:16Z</time></trkpt><trkpt lat="45.940214148369975" lon="12.89806830095359"><ele>36.0</ele><time>2026-04-02T15:27:17Z</time></trkpt><trkpt lat="45.94022853122018" lon="12.898192505660834"><ele>36.0</ele><time>2026-04-02T15:27:18Z</time></trkpt><trkpt lat="45.94024227779346" lon="12.898311215755813"><ele>36.0</ele><time>2026-04-02T15:27:19Z</time></trkpt><trkpt lat="45.94025585305388" lon="12.898428446495735"><ele>36.333333333333336</ele><time>2026-04-02T15:27:20Z</time></trkpt><trkpt lat="45.940268692348205" lon="12.898539321611333"><ele>36.666666666666664</ele><time>2026-04-02T15:27:21Z</time></trkpt><trkpt lat="45.940282000733745" lon="12.898654247751077"><ele>37.0</ele><time>2026-04-02T15:27:22Z</time></trkpt><trkpt lat="45.94029532857171" lon="12.898769341829412"><ele>37.33333333333333</ele><time>2026-04-02T15:27:23Z</time></trkpt><trkpt lat="45.940312260806344" lon="12.898904345773884"><ele>37.666666666666664</ele><time>2026-04-02T15:27:24Z</time></trkpt><trkpt lat="45.9403295334836" lon="12.899024712753878"><ele>38.0</ele><time>2026-04-02T15:27:25Z</time></trkpt><trkpt lat="45.94036814026669" lon="12.899150703324496"><ele>38.0</ele><time>2026-04-02T15:27:26Z</time></trkpt><trkpt lat="45.94036949873475" lon="12.899243444771583"><ele>38.0</ele><time>2026-04-02T15:27:27Z</time></trkpt><trkpt lat="45.94038198919778" lon="12.899342828965583"><ele>38.0</ele><time>2026-04-02T15:27:28Z</time></trkpt><trkpt lat="45.940393900080764" lon="12.89943760110043"><ele>38.0</ele><time>2026-04-02T15:27:29Z</time></trkpt><trkpt lat="45.940407924909316" lon="12.899549192092694"><ele>38.0</ele><time>2026-04-02T15:27:31Z</time></trkpt><trkpt lat="45.94042031180321" lon="12.89964774339059"><ele>38.0</ele><time>2026-04-02T15:27:33Z</time></trkpt><trkpt lat="45.940437366193855" lon="12.899783429722703"><ele>38.0</ele><time>2026-04-02T15:27:34Z</time></trkpt><trkpt lat="45.94045137519855" lon="12.899894887000348"><ele>38.0</ele><time>2026-04-02T15:27:35Z</time></trkpt><trkpt lat="45.940597921777716" lon="12.899986837366935"><ele>38.0</ele><time>2026-04-02T15:27:36Z</time></trkpt><trkpt lat="45.94063131623837" lon="12.900142343219557"><ele>38.0</ele><time>2026-04-02T15:27:37Z</time></trkpt><trkpt lat="45.94063962868486" lon="12.900289937804322"><ele>38.0</ele><time>2026-04-02T15:27:38Z</time></trkpt><trkpt lat="45.94067362487301" lon="12.900448777111816"><ele>38.0</ele><time>2026-04-02T15:27:39Z</time></trkpt><trkpt lat="45.94070309662656" lon="12.900594264602656"><ele>38.0</ele><time>2026-04-02T15:27:40Z</time></trkpt><trkpt lat="45.940711446167164" lon="12.9007187528364"><ele>38.0</ele><time>2026-04-02T15:27:41Z</time></trkpt><trkpt lat="45.94071217833482" lon="12.900830121710017"><ele>38.0</ele><time>2026-04-02T15:27:42Z</time></trkpt><trkpt lat="45.94070748376452" lon="12.900926825994338"><ele>38.0</ele><time>2026-04-02T15:27:43Z</time></trkpt><trkpt lat="45.94068220900317" lon="12.90108741075118"><ele>37.4</ele><time>2026-04-02T15:27:45Z</time></trkpt><trkpt lat="45.94068096803773" lon="12.90120162296314"><ele>36.8</ele><time>2026-04-02T15:27:47Z</time></trkpt><trkpt lat="45.940686918348675" lon="12.901332883631268"><ele>36.2</ele><time>2026-04-02T15:27:49Z</time></trkpt><trkpt lat="45.940678680685544" lon="12.901460813910788"><ele>35.6</ele><time>2026-04-02T15:27:50Z</time></trkpt><trkpt lat="45.94068054650596" lon="12.901632768930211"><ele>35.0</ele><time>2026-04-02T15:27:51Z</time></trkpt><trkpt lat="45.94070136141676" lon="12.901813217467986"><ele>35.0</ele><time>2026-04-02T15:27:52Z</time></trkpt><trkpt lat="45.940696702007" lon="12.901923594102167"><ele>35.0</ele><time>2026-04-02T15:27:53Z</time></trkpt><trkpt lat="45.9406888060785" lon="12.902019020406629"><ele>35.0</ele><time>2026-04-02T15:27:54Z</time></trkpt><trkpt lat="45.94069248345608" lon="12.90211680342228"><ele>35.0</ele><time>2026-04-02T15:27:55Z</time></trkpt><trkpt lat="45.94070619590451" lon="12.902206543091989"><ele>35.0</ele><time>2026-04-02T15:27:59Z</time></trkpt><trkpt lat="45.9407377682789" lon="12.90230756284213"><ele>35.0</ele><time>2026-04-02T15:28:06Z</time></trkpt><trkpt lat="45.94079335588308" lon="12.902392790514522"><ele>35.0</ele><time>2026-04-02T15:28:08Z</time></trkpt><trkpt lat="45.940833730807405" lon="12.90253855295084"><ele>35.2</ele><time>2026-04-02T15:28:09Z</time></trkpt><trkpt lat="45.94086921208546" lon="12.902693777450827"><ele>35.4</ele><time>2026-04-02T15:28:11Z</time></trkpt><trkpt lat="45.9408883510668" lon="12.902820468306306"><ele>35.6</ele><time>2026-04-02T15:28:12Z</time></trkpt><trkpt lat="45.940930310530106" lon="12.90298973426271"><ele>35.8</ele><time>2026-04-02T15:28:13Z</time></trkpt><trkpt lat="45.94096931640126" lon="12.903075886775932"><ele>36.0</ele><time>2026-04-02T15:28:14Z</time></trkpt><trkpt lat="45.941013364191285" lon="12.9031944552974"><ele>35.6</ele><time>2026-04-02T15:28:15Z</time></trkpt><trkpt lat="45.941082516793365" lon="12.903351278738851"><ele>35.2</ele><time>2026-04-02T15:28:17Z</time></trkpt><trkpt lat="45.94114777130748" lon="12.903489138295619"><ele>34.8</ele><time>2026-04-02T15:28:19Z</time></trkpt><trkpt lat="45.94116750333239" lon="12.903606755836377"><ele>34.4</ele><time>2026-04-02T15:28:21Z</time></trkpt><trkpt lat="45.941131392916844" lon="12.903690821592546"><ele>34.0</ele><time>2026-04-02T15:28:23Z</time></trkpt><trkpt lat="45.941020606682045" lon="12.903845327085127"><ele>34.0</ele><time>2026-04-02T15:28:25Z</time></trkpt><trkpt lat="45.94096139860611" lon="12.903884295383893"><ele>34.0</ele><time>2026-04-02T15:28:26Z</time></trkpt><trkpt lat="45.94088482858471" lon="12.90393062064461"><ele>34.0</ele><time>2026-04-02T15:28:28Z</time></trkpt><trkpt lat="45.94082109153454" lon="12.903955898199477"><ele>34.0</ele><time>2026-04-02T15:28:29Z</time></trkpt><trkpt lat="45.940707730568484" lon="12.903925081329016"><ele>34.0</ele><time>2026-04-02T15:28:31Z</time></trkpt><trkpt lat="45.940646439991475" lon="12.903884886072225"><ele>34.0</ele><time>2026-04-02T15:28:33Z</time></trkpt><trkpt lat="45.94066800606736" lon="12.903779445255099"><ele>34.0</ele><time>2026-04-02T15:28:36Z</time></trkpt><trkpt lat="45.94073445429733" lon="12.903739497146324"><ele>34.0</ele><time>2026-04-02T15:28:39Z</time></trkpt><trkpt lat="45.94081796699743" lon="12.903807125461372"><ele>34.0</ele><time>2026-04-02T15:28:41Z</time></trkpt><trkpt lat="45.94086666816625" lon="12.903884081454496"><ele>34.0</ele><time>2026-04-02T15:28:42Z</time></trkpt><trkpt lat="45.94091380616816" lon="12.903979964366888"><ele>34.0</ele><time>2026-04-02T15:28:44Z</time></trkpt><trkpt lat="45.940967363152424" lon="12.9040439084528"><ele>34.0</ele><time>2026-04-02T15:28:46Z</time></trkpt><trkpt lat="45.94101595702066" lon="12.904101862591808"><ele>34.0</ele><time>2026-04-02T15:28:49Z</time></trkpt><trkpt lat="45.94101571837556" lon="12.904222455090116"><ele>34.0</ele><time>2026-04-02T15:28:51Z</time></trkpt><trkpt lat="45.94094522495604" lon="12.904278109998499"><ele>34.0</ele><time>2026-04-02T15:28:54Z</time></trkpt><trkpt lat="45.94078305342191" lon="12.9042427980884"><ele>34.0</ele><time>2026-04-02T15:28:57Z</time></trkpt><trkpt lat="45.94068024634462" lon="12.904241473679884"><ele>34.0</ele><time>2026-04-02T15:28:59Z</time></trkpt><trkpt lat="45.940607751084315" lon="12.904280092199707"><ele>33.857142857142854</ele><time>2026-04-02T15:29:01Z</time></trkpt><trkpt lat="45.94056405567409" lon="12.904406421815466"><ele>33.714285714285715</ele><time>2026-04-02T15:29:03Z</time></trkpt><trkpt lat="45.94056437623193" lon="12.904501521341917"><ele>33.57142857142857</ele><time>2026-04-02T15:29:04Z</time></trkpt><trkpt lat="45.94057529416619" lon="12.90459578767572"><ele>33.42857142857143</ele><time>2026-04-02T15:29:05Z</time></trkpt><trkpt lat="45.940604335781224" lon="12.904680919608447"><ele>33.285714285714285</ele><time>2026-04-02T15:29:06Z</time></trkpt><trkpt lat="45.94065038110103" lon="12.904767726176443"><ele>33.14285714285714</ele><time>2026-04-02T15:29:07Z</time></trkpt><trkpt lat="45.94069131337097" lon="12.904850810554718"><ele>33.0</ele><time>2026-04-02T15:29:08Z</time></trkpt><trkpt lat="45.940723655490345" lon="12.904930302894966"><ele>33.0</ele><time>2026-04-02T15:29:09Z</time></trkpt><trkpt lat="45.94075249281305" lon="12.905012051655733"><ele>33.0</ele><time>2026-04-02T15:29:10Z</time></trkpt><trkpt lat="45.940780056257495" lon="12.905170555462904"><ele>33.0</ele><time>2026-04-02T15:29:12Z</time></trkpt><trkpt lat="45.940811908153144" lon="12.905256086879502"><ele>33.0</ele><time>2026-04-02T15:29:13Z</time></trkpt><trkpt lat="45.940899510373946" lon="12.905374731508667"><ele>33.0</ele><time>2026-04-02T15:29:15Z</time></trkpt><trkpt lat="45.94098622459278" lon="12.90546433807173"><ele>33.0</ele><time>2026-04-02T15:29:17Z</time></trkpt><trkpt lat="45.941037697774014" lon="12.905614010854945"><ele>33.0</ele><time>2026-04-02T15:29:19Z</time></trkpt><trkpt lat="45.94108227046021" lon="12.905685075523756"><ele>33.0</ele><time>2026-04-02T15:29:20Z</time></trkpt><trkpt lat="45.941170696591314" lon="12.90576849334512"><ele>33.0</ele><time>2026-04-02T15:29:22Z</time></trkpt><trkpt lat="45.9412552808532" lon="12.905804587289213"><ele>33.0</ele><time>2026-04-02T15:29:24Z</time></trkpt><trkpt lat="45.94131667595291" lon="12.905836097750244"><ele>33.0</ele><time>2026-04-02T15:29:25Z</time></trkpt><trkpt lat="45.941415332675604" lon="12.905890961998171"><ele>33.0</ele><time>2026-04-02T15:29:27Z</time></trkpt><trkpt lat="45.94147269529948" lon="12.90592964300614"><ele>33.0</ele><time>2026-04-02T15:29:28Z</time></trkpt><trkpt lat="45.94157919345054" lon="12.905997513318214"><ele>33.0</ele><time>2026-04-02T15:29:30Z</time></trkpt><trkpt lat="45.94164520426307" lon="12.906006890703239"><ele>33.0</ele><time>2026-04-02T15:29:31Z</time></trkpt><trkpt lat="45.941712973147844" lon="12.906003842627362"><ele>33.0</ele><time>2026-04-02T15:29:32Z</time></trkpt><trkpt lat="45.941780554170876" lon="12.906002332360584"><ele>33.0</ele><time>2026-04-02T15:29:33Z</time></trkpt><trkpt lat="45.94185835146204" lon="12.906010637898179"><ele>33.0</ele><time>2026-04-02T15:29:34Z</time></trkpt><trkpt lat="45.941947862584485" lon="12.9060070608636"><ele>33.0</ele><time>2026-04-02T15:29:35Z</time></trkpt><trkpt lat="45.94202193260045" lon="12.906017240611968"><ele>33.0</ele><time>2026-04-02T15:29:36Z</time></trkpt><trkpt lat="45.94212380463885" lon="12.906015674858624"><ele>33.0</ele><time>2026-04-02T15:29:38Z</time></trkpt><trkpt lat="45.94220096789868" lon="12.905996093831051"><ele>33.0</ele><time>2026-04-02T15:29:39Z</time></trkpt><trkpt lat="45.94229669657186" lon="12.905973547200603"><ele>33.0</ele><time>2026-04-02T15:29:40Z</time></trkpt><trkpt lat="45.9423928064531" lon="12.905945068715303"><ele>33.0</ele><time>2026-04-02T15:29:41Z</time></trkpt><trkpt lat="45.94248834245097" lon="12.905918296620843"><ele>33.0</ele><time>2026-04-02T15:29:42Z</time></trkpt><trkpt lat="45.942583190841695" lon="12.905894237507702"><ele>33.0</ele><time>2026-04-02T15:29:43Z</time></trkpt><trkpt lat="45.94266938396762" lon="12.905861851881852"><ele>33.0</ele><time>2026-04-02T15:29:44Z</time></trkpt><trkpt lat="45.94276129924181" lon="12.905824230825004"><ele>33.0</ele><time>2026-04-02T15:29:45Z</time></trkpt><trkpt lat="45.94285605569352" lon="12.905786827646772"><ele>33.6</ele><time>2026-04-02T15:29:46Z</time></trkpt><trkpt lat="45.942945641952946" lon="12.905755798429874"><ele>34.199999999999996</ele><time>2026-04-02T15:29:47Z</time></trkpt><trkpt lat="45.94303499505097" lon="12.905725940440197"><ele>34.8</ele><time>2026-04-02T15:29:48Z</time></trkpt><trkpt lat="45.943114810001404" lon="12.905703868668239"><ele>35.4</ele><time>2026-04-02T15:29:49Z</time></trkpt><trkpt lat="45.94320334252483" lon="12.905691510784461"><ele>36.0</ele><time>2026-04-02T15:29:50Z</time></trkpt><trkpt lat="45.94331466332266" lon="12.905688474362318"><ele>35.6</ele><time>2026-04-02T15:29:51Z</time></trkpt><trkpt lat="45.94343762552168" lon="12.905674892955641"><ele>35.2</ele><time>2026-04-02T15:29:52Z</time></trkpt><trkpt lat="45.94353621882903" lon="12.905652401169585"><ele>34.8</ele><time>2026-04-02T15:29:53Z</time></trkpt><trkpt lat="45.94361920710118" lon="12.905640753820649"><ele>34.4</ele><time>2026-04-02T15:29:54Z</time></trkpt><trkpt lat="45.943684806191015" lon="12.90565060105767"><ele>34.0</ele><time>2026-04-02T15:29:55Z</time></trkpt><trkpt lat="45.94377883093556" lon="12.905725002663646"><ele>34.0</ele><time>2026-04-02T15:29:57Z</time></trkpt><trkpt lat="45.94382556091335" lon="12.905795331782812"><ele>34.0</ele><time>2026-04-02T15:29:58Z</time></trkpt><trkpt lat="45.94389626247866" lon="12.905857416751832"><ele>34.0</ele><time>2026-04-02T15:29:59Z</time></trkpt><trkpt lat="45.94397477553239" lon="12.90589799667603"><ele>34.0</ele><time>2026-04-02T15:30:00Z</time></trkpt><trkpt lat="45.94404124924925" lon="12.905916993136593"><ele>34.0</ele><time>2026-04-02T15:30:01Z</time></trkpt><trkpt lat="45.94411472977292" lon="12.90592201071132"><ele>34.0</ele><time>2026-04-02T15:30:02Z</time></trkpt><trkpt lat="45.94419092578568" lon="12.905921032194454"><ele>34.0</ele><time>2026-04-02T15:30:03Z</time></trkpt><trkpt lat="45.9442738817593" lon="12.905908521641425"><ele>34.0</ele><time>2026-04-02T15:30:04Z</time></trkpt><trkpt lat="45.944344710285904" lon="12.905891654211187"><ele>34.0</ele><time>2026-04-02T15:30:05Z</time></trkpt><trkpt lat="45.94444080335283" lon="12.905874754581129"><ele>34.0</ele><time>2026-04-02T15:30:07Z</time></trkpt><trkpt lat="45.944539123497655" lon="12.905875080168302"><ele>34.0</ele><time>2026-04-02T15:30:11Z</time></trkpt><trkpt lat="45.94464254309126" lon="12.90580949125525"><ele>34.0</ele><time>2026-04-02T15:30:14Z</time></trkpt><trkpt lat="45.9446958542769" lon="12.90575694738734"><ele>34.0</ele><time>2026-04-02T15:30:15Z</time></trkpt><trkpt lat="45.94475187643506" lon="12.905700266106447"><ele>34.0</ele><time>2026-04-02T15:30:16Z</time></trkpt><trkpt lat="45.94481858554508" lon="12.905624038883401"><ele>34.0</ele><time>2026-04-02T15:30:18Z</time></trkpt><trkpt lat="45.94491155082691" lon="12.905546174809842"><ele>34.0</ele><time>2026-04-02T15:30:20Z</time></trkpt><trkpt lat="45.944996574488584" lon="12.905503100927763"><ele>34.0</ele><time>2026-04-02T15:30:21Z</time></trkpt><trkpt lat="45.94509015782921" lon="12.905457717645776"><ele>34.16666666666667</ele><time>2026-04-02T15:30:22Z</time></trkpt><trkpt lat="45.94519405693162" lon="12.905414825610013"><ele>34.333333333333336</ele><time>2026-04-02T15:30:23Z</time></trkpt><trkpt lat="45.94528623774558" lon="12.905379014658461"><ele>34.5</ele><time>2026-04-02T15:30:24Z</time></trkpt><trkpt lat="45.94536368159473" lon="12.90535062147832"><ele>34.666666666666664</ele><time>2026-04-02T15:30:25Z</time></trkpt><trkpt lat="45.94543747622471" lon="12.905332078432192"><ele>34.83333333333333</ele><time>2026-04-02T15:30:26Z</time></trkpt><trkpt lat="45.94550238439683" lon="12.9053096239532"><ele>35.0</ele><time>2026-04-02T15:30:27Z</time></trkpt><trkpt lat="45.94556259820479" lon="12.905277474700506"><ele>35.0</ele><time>2026-04-02T15:30:28Z</time></trkpt><trkpt lat="45.94562124606882" lon="12.905233133524805"><ele>35.0</ele><time>2026-04-02T15:30:29Z</time></trkpt><trkpt lat="45.94571933426292" lon="12.905150877485696"><ele>35.0</ele><time>2026-04-02T15:30:31Z</time></trkpt><trkpt lat="45.94579838603709" lon="12.905099239240204"><ele>35.0</ele><time>2026-04-02T15:30:33Z</time></trkpt><trkpt lat="45.945882467954014" lon="12.905133429685288"><ele>35.0</ele><time>2026-04-02T15:30:35Z</time></trkpt><trkpt lat="45.94593993680671" lon="12.90517669699526"><ele>35.0</ele><time>2026-04-02T15:30:36Z</time></trkpt><trkpt lat="45.946016172997105" lon="12.905211993432292"><ele>35.0</ele><time>2026-04-02T15:30:37Z</time></trkpt><trkpt lat="45.94610195213146" lon="12.905238179236052"><ele>35.0</ele><time>2026-04-02T15:30:38Z</time></trkpt><trkpt lat="45.9461803396414" lon="12.905256816712853"><ele>35.0</ele><time>2026-04-02T15:30:39Z</time></trkpt><trkpt lat="45.946269882362834" lon="12.905254450860353"><ele>35.0</ele><time>2026-04-02T15:30:40Z</time></trkpt><trkpt lat="45.946380481748875" lon="12.905230063901895"><ele>35.0</ele><time>2026-04-02T15:30:41Z</time></trkpt><trkpt lat="45.94650516733896" lon="12.90519401210767"><ele>35.0</ele><time>2026-04-02T15:30:42Z</time></trkpt><trkpt lat="45.94660822879547" lon="12.905158902218114"><ele>35.0</ele><time>2026-04-02T15:30:43Z</time></trkpt><trkpt lat="45.94669469668557" lon="12.905124595962524"><ele>35.0</ele><time>2026-04-02T15:30:44Z</time></trkpt><trkpt lat="45.94678722842122" lon="12.90508771057345"><ele>35.0</ele><time>2026-04-02T15:30:45Z</time></trkpt><trkpt lat="45.94688833257312" lon="12.905042734717371"><ele>35.0</ele><time>2026-04-02T15:30:46Z</time></trkpt><trkpt lat="45.9469969392611" lon="12.904994303849817"><ele>35.166666666666664</ele><time>2026-04-02T15:30:47Z</time></trkpt><trkpt lat="45.94709036028032" lon="12.904948143141482"><ele>35.33333333333333</ele><time>2026-04-02T15:30:48Z</time></trkpt><trkpt lat="45.94717327233267" lon="12.904914371462521"><ele>35.5</ele><time>2026-04-02T15:30:49Z</time></trkpt><trkpt lat="45.94725323473549" lon="12.904883593916594"><ele>35.666666666666664</ele><time>2026-04-02T15:30:50Z</time></trkpt><trkpt lat="45.94733385570364" lon="12.904857714594431"><ele>35.833333333333336</ele><time>2026-04-02T15:30:51Z</time></trkpt><trkpt lat="45.94742157014359" lon="12.904835274430813"><ele>36.0</ele><time>2026-04-02T15:30:52Z</time></trkpt><trkpt lat="45.947506891997556" lon="12.904820193882433"><ele>36.0</ele><time>2026-04-02T15:30:53Z</time></trkpt><trkpt lat="45.947583201359365" lon="12.904820626320307"><ele>36.0</ele><time>2026-04-02T15:30:54Z</time></trkpt><trkpt lat="45.947654079824744" lon="12.904831752520414"><ele>36.0</ele><time>2026-04-02T15:30:55Z</time></trkpt><trkpt lat="45.94773289481507" lon="12.904844987515137"><ele>36.0</ele><time>2026-04-02T15:30:56Z</time></trkpt><trkpt lat="45.94782111133543" lon="12.904859796311174"><ele>36.0</ele><time>2026-04-02T15:30:57Z</time></trkpt><trkpt lat="45.94791848020555" lon="12.904883058041086"><ele>36.0</ele><time>2026-04-02T15:30:58Z</time></trkpt><trkpt lat="45.948024256053564" lon="12.904901695091045"><ele>36.0</ele><time>2026-04-02T15:30:59Z</time></trkpt><trkpt lat="45.94812518664099" lon="12.904914516504869"><ele>36.0</ele><time>2026-04-02T15:31:00Z</time></trkpt><trkpt lat="45.94821044612592" lon="12.904935401555067"><ele>36.0</ele><time>2026-04-02T15:31:01Z</time></trkpt><trkpt lat="45.94827640915621" lon="12.904954538917671"><ele>36.0</ele><time>2026-04-02T15:31:02Z</time></trkpt><trkpt lat="45.94839194095165" lon="12.904965893964429"><ele>36.0</ele><time>2026-04-02T15:31:04Z</time></trkpt><trkpt lat="45.94848960144385" lon="12.904954271499802"><ele>36.166666666666664</ele><time>2026-04-02T15:31:06Z</time></trkpt><trkpt lat="45.948554564651744" lon="12.904948129635315"><ele>36.333333333333336</ele><time>2026-04-02T15:31:08Z</time></trkpt><trkpt lat="45.948615368566514" lon="12.904920633518694"><ele>36.5</ele><time>2026-04-02T15:31:10Z</time></trkpt><trkpt lat="45.9486747764561" lon="12.904852615065556"><ele>36.66666666666667</ele><time>2026-04-02T15:31:12Z</time></trkpt><trkpt lat="45.948705269437" lon="12.904740790059085"><ele>36.833333333333336</ele><time>2026-04-02T15:31:14Z</time></trkpt><trkpt lat="45.948757419982364" lon="12.904656322431864"><ele>37.0</ele><time>2026-04-02T15:31:16Z</time></trkpt><trkpt lat="45.94886817567782" lon="12.904648878480748"><ele>37.0</ele><time>2026-04-02T15:31:18Z</time></trkpt><trkpt lat="45.9489341656261" lon="12.904646031813288"><ele>37.0</ele><time>2026-04-02T15:31:19Z</time></trkpt><trkpt lat="45.9490151653292" lon="12.90462329928894"><ele>37.0</ele><time>2026-04-02T15:31:20Z</time></trkpt><trkpt lat="45.94909605588447" lon="12.904615112910095"><ele>37.0</ele><time>2026-04-02T15:31:21Z</time></trkpt><trkpt lat="45.94918162375996" lon="12.904625571880151"><ele>37.0</ele><time>2026-04-02T15:31:22Z</time></trkpt><trkpt lat="45.94927877189275" lon="12.904650604648111"><ele>37.0</ele><time>2026-04-02T15:31:23Z</time></trkpt><trkpt lat="45.949380193288405" lon="12.904676462453272"><ele>37.0</ele><time>2026-04-02T15:31:24Z</time></trkpt><trkpt lat="45.94947349150717" lon="12.90469888203975"><ele>37.0</ele><time>2026-04-02T15:31:25Z</time></trkpt><trkpt lat="45.94956570639082" lon="12.90472201475528"><ele>37.0</ele><time>2026-04-02T15:31:26Z</time></trkpt><trkpt lat="45.949654268725716" lon="12.904743597949425"><ele>37.0</ele><time>2026-04-02T15:31:27Z</time></trkpt><trkpt lat="45.949743958612785" lon="12.904760907962148"><ele>37.0</ele><time>2026-04-02T15:31:28Z</time></trkpt><trkpt lat="45.94983208137645" lon="12.904777981735323"><ele>37.0</ele><time>2026-04-02T15:31:29Z</time></trkpt><trkpt lat="45.94991905316435" lon="12.904791158836108"><ele>37.0</ele><time>2026-04-02T15:31:30Z</time></trkpt><trkpt lat="45.95001119287602" lon="12.90480218958271"><ele>37.0</ele><time>2026-04-02T15:31:31Z</time></trkpt><trkpt lat="45.95008940380526" lon="12.90481890829058"><ele>37.0</ele><time>2026-04-02T15:31:32Z</time></trkpt><trkpt lat="45.95017172452888" lon="12.904849802710146"><ele>37.0</ele><time>2026-04-02T15:31:33Z</time></trkpt><trkpt lat="45.95027160489946" lon="12.904892332517145"><ele>37.0</ele><time>2026-04-02T15:31:34Z</time></trkpt><trkpt lat="45.9503711817861" lon="12.904926119648813"><ele>37.2</ele><time>2026-04-02T15:31:35Z</time></trkpt><trkpt lat="45.950479603614916" lon="12.904953671057692"><ele>37.400000000000006</ele><time>2026-04-02T15:31:36Z</time></trkpt><trkpt lat="45.95057890073829" lon="12.904976722843832"><ele>37.599999999999994</ele><time>2026-04-02T15:31:37Z</time></trkpt><trkpt lat="45.950659336736045" lon="12.905011252415953"><ele>37.8</ele><time>2026-04-02T15:31:38Z</time></trkpt><trkpt lat="45.95073256215449" lon="12.905047606616737"><ele>38.0</ele><time>2026-04-02T15:31:39Z</time></trkpt><trkpt lat="45.95081208215632" lon="12.905074318393329"><ele>37.83333333333333</ele><time>2026-04-02T15:31:40Z</time></trkpt><trkpt lat="45.95089271903726" lon="12.90508516838636"><ele>37.666666666666664</ele><time>2026-04-02T15:31:41Z</time></trkpt><trkpt lat="45.95097428070471" lon="12.905085505261136"><ele>37.5</ele><time>2026-04-02T15:31:42Z</time></trkpt><trkpt lat="45.95106282340228" lon="12.905076310378305"><ele>37.333333333333336</ele><time>2026-04-02T15:31:43Z</time></trkpt><trkpt lat="45.95116153912693" lon="12.905072874078487"><ele>37.16666666666667</ele><time>2026-04-02T15:31:44Z</time></trkpt><trkpt lat="45.95125680542143" lon="12.905085160143303"><ele>37.0</ele><time>2026-04-02T15:31:45Z</time></trkpt><trkpt lat="45.951356534420576" lon="12.9051080891472"><ele>37.0</ele><time>2026-04-02T15:31:46Z</time></trkpt><trkpt lat="45.9514522762158" lon="12.905124152266792"><ele>37.0</ele><time>2026-04-02T15:31:47Z</time></trkpt><trkpt lat="45.95152984123278" lon="12.905134446506226"><ele>37.0</ele><time>2026-04-02T15:31:48Z</time></trkpt><trkpt lat="45.95160246348074" lon="12.905141994591856"><ele>37.0</ele><time>2026-04-02T15:31:49Z</time></trkpt><trkpt lat="45.9516792291528" lon="12.905143392441547"><ele>37.0</ele><time>2026-04-02T15:31:50Z</time></trkpt><trkpt lat="45.95175731730394" lon="12.90514673492276"><ele>37.0</ele><time>2026-04-02T15:31:51Z</time></trkpt><trkpt lat="45.95183938898511" lon="12.905158113810419"><ele>37.2</ele><time>2026-04-02T15:31:52Z</time></trkpt><trkpt lat="45.95191268052216" lon="12.905171896006987"><ele>37.400000000000006</ele><time>2026-04-02T15:31:53Z</time></trkpt><trkpt lat="45.95202912511604" lon="12.905196518160736"><ele>37.599999999999994</ele><time>2026-04-02T15:31:55Z</time></trkpt><trkpt lat="45.95213883291157" lon="12.905268997289244"><ele>37.8</ele><time>2026-04-02T15:31:57Z</time></trkpt><trkpt lat="45.952225064803166" lon="12.905291136964172"><ele>38.0</ele><time>2026-04-02T15:31:58Z</time></trkpt><trkpt lat="45.952328472591766" lon="12.905317769611932"><ele>38.0</ele><time>2026-04-02T15:31:59Z</time></trkpt><trkpt lat="45.95244835832046" lon="12.905344591672641"><ele>38.0</ele><time>2026-04-02T15:32:00Z</time></trkpt><trkpt lat="45.95256170847381" lon="12.90535738469229"><ele>38.0</ele><time>2026-04-02T15:32:01Z</time></trkpt><trkpt lat="45.95266086288775" lon="12.905366392541655"><ele>38.0</ele><time>2026-04-02T15:32:02Z</time></trkpt><trkpt lat="45.95275982246893" lon="12.90537063422819"><ele>38.0</ele><time>2026-04-02T15:32:03Z</time></trkpt><trkpt lat="45.952847580715876" lon="12.905378004852004"><ele>38.0</ele><time>2026-04-02T15:32:04Z</time></trkpt><trkpt lat="45.95292075402133" lon="12.90538640015493"><ele>38.0</ele><time>2026-04-02T15:32:05Z</time></trkpt><trkpt lat="45.95299507082304" lon="12.905412983182504"><ele>38.0</ele><time>2026-04-02T15:32:06Z</time></trkpt><trkpt lat="45.95307079299681" lon="12.90545418325796"><ele>38.0</ele><time>2026-04-02T15:32:07Z</time></trkpt><trkpt lat="45.95316375645" lon="12.905502680488473"><ele>38.0</ele><time>2026-04-02T15:32:08Z</time></trkpt><trkpt lat="45.95326974515655" lon="12.905542968009566"><ele>38.0</ele><time>2026-04-02T15:32:09Z</time></trkpt><trkpt lat="45.95338112387552" lon="12.905576950463987"><ele>37.8</ele><time>2026-04-02T15:32:10Z</time></trkpt><trkpt lat="45.95349402734963" lon="12.905600218903801"><ele>37.599999999999994</ele><time>2026-04-02T15:32:11Z</time></trkpt><trkpt lat="45.95360438966446" lon="12.905621814448352"><ele>37.400000000000006</ele><time>2026-04-02T15:32:12Z</time></trkpt><trkpt lat="45.95370656721028" lon="12.90562968493524"><ele>37.2</ele><time>2026-04-02T15:32:13Z</time></trkpt><trkpt lat="45.95380319131805" lon="12.905624811056658"><ele>37.0</ele><time>2026-04-02T15:32:14Z</time></trkpt><trkpt lat="45.953886304458145" lon="12.90561378294171"><ele>37.0</ele><time>2026-04-02T15:32:15Z</time></trkpt><trkpt lat="45.95395702281872" lon="12.905582860616091"><ele>37.0</ele><time>2026-04-02T15:32:16Z</time></trkpt><trkpt lat="45.95402548407561" lon="12.905532522772786"><ele>37.0</ele><time>2026-04-02T15:32:17Z</time></trkpt><trkpt lat="45.9540955699827" lon="12.905475620158963"><ele>37.0</ele><time>2026-04-02T15:32:18Z</time></trkpt><trkpt lat="45.954169058487665" lon="12.905421485674173"><ele>37.0</ele><time>2026-04-02T15:32:19Z</time></trkpt><trkpt lat="45.95424608292935" lon="12.905380067753226"><ele>37.0</ele><time>2026-04-02T15:32:20Z</time></trkpt><trkpt lat="45.954324222907076" lon="12.905358110608583"><ele>37.16666666666667</ele><time>2026-04-02T15:32:21Z</time></trkpt><trkpt lat="45.95440260507664" lon="12.9053516270369"><ele>37.333333333333336</ele><time>2026-04-02T15:32:22Z</time></trkpt><trkpt lat="45.95447469120594" lon="12.905365215002142"><ele>37.5</ele><time>2026-04-02T15:32:23Z</time></trkpt><trkpt lat="45.9545968418821" lon="12.905314692748686"><ele>37.666666666666664</ele><time>2026-04-02T15:32:25Z</time></trkpt><trkpt lat="45.95465495191046" lon="12.905257714947535"><ele>37.83333333333333</ele><time>2026-04-02T15:32:26Z</time></trkpt><trkpt lat="45.95472234903081" lon="12.905232238364524"><ele>38.0</ele><time>2026-04-02T15:32:27Z</time></trkpt><trkpt lat="45.95481333394759" lon="12.90523278502571"><ele>38.0</ele><time>2026-04-02T15:32:28Z</time></trkpt><trkpt lat="45.95492179132403" lon="12.905238296483864"><ele>38.0</ele><time>2026-04-02T15:32:29Z</time></trkpt><trkpt lat="45.95504206776936" lon="12.90525314512092"><ele>38.0</ele><time>2026-04-02T15:32:30Z</time></trkpt><trkpt lat="45.95515076350128" lon="12.905267086818347"><ele>38.0</ele><time>2026-04-02T15:32:31Z</time></trkpt><trkpt lat="45.95524924628568" lon="12.905289837781217"><ele>38.0</ele><time>2026-04-02T15:32:32Z</time></trkpt><trkpt lat="45.95533274651781" lon="12.905319800953796"><ele>38.0</ele><time>2026-04-02T15:32:33Z</time></trkpt><trkpt lat="45.95541948273704" lon="12.905350498880363"><ele>38.0</ele><time>2026-04-02T15:32:34Z</time></trkpt><trkpt lat="45.95550492924263" lon="12.905375186459116"><ele>38.0</ele><time>2026-04-02T15:32:35Z</time></trkpt><trkpt lat="45.955579169895714" lon="12.905402459539948"><ele>38.0</ele><time>2026-04-02T15:32:36Z</time></trkpt><trkpt lat="45.95565383518748" lon="12.905414952878482"><ele>38.0</ele><time>2026-04-02T15:32:37Z</time></trkpt><trkpt lat="45.955745491874175" lon="12.905407450251523"><ele>38.0</ele><time>2026-04-02T15:32:38Z</time></trkpt><trkpt lat="45.95584596328299" lon="12.905394665544058"><ele>38.199999999999996</ele><time>2026-04-02T15:32:39Z</time></trkpt><trkpt lat="45.955937368369916" lon="12.905386571577276"><ele>38.4</ele><time>2026-04-02T15:32:40Z</time></trkpt><trkpt lat="45.95603020237654" lon="12.905372211975672"><ele>38.599999999999994</ele><time>2026-04-02T15:32:41Z</time></trkpt><trkpt lat="45.956132710892575" lon="12.905375087252295"><ele>38.8</ele><time>2026-04-02T15:32:42Z</time></trkpt><trkpt lat="45.95624594007505" lon="12.905392001084236"><ele>39.0</ele><time>2026-04-02T15:32:43Z</time></trkpt><trkpt lat="45.95636979079619" lon="12.905418389472615"><ele>39.0</ele><time>2026-04-02T15:32:44Z</time></trkpt><trkpt lat="45.95648585268453" lon="12.905441747073318"><ele>39.0</ele><time>2026-04-02T15:32:45Z</time></trkpt><trkpt lat="45.95658919939963" lon="12.905461847221478"><ele>39.0</ele><time>2026-04-02T15:32:46Z</time></trkpt><trkpt lat="45.95668582591198" lon="12.905488945926791"><ele>39.0</ele><time>2026-04-02T15:32:47Z</time></trkpt><trkpt lat="45.9567875784474" lon="12.905523322484804"><ele>39.0</ele><time>2026-04-02T15:32:48Z</time></trkpt><trkpt lat="45.95689723351951" lon="12.905558989693844"><ele>39.4</ele><time>2026-04-02T15:32:49Z</time></trkpt><trkpt lat="45.9570076380697" lon="12.90559326273865"><ele>39.8</ele><time>2026-04-02T15:32:50Z</time></trkpt><trkpt lat="45.95711205194847" lon="12.905636539398492"><ele>40.199999999999996</ele><time>2026-04-02T15:32:51Z</time></trkpt><trkpt lat="45.957221830620014" lon="12.905684614702842"><ele>40.599999999999994</ele><time>2026-04-02T15:32:52Z</time></trkpt><trkpt lat="45.95732748390979" lon="12.905729893798979"><ele>41.0</ele><time>2026-04-02T15:32:53Z</time></trkpt><trkpt lat="45.957429941518114" lon="12.905773409969493"><ele>41.0</ele><time>2026-04-02T15:32:54Z</time></trkpt><trkpt lat="45.957528941560234" lon="12.905813107590866"><ele>41.0</ele><time>2026-04-02T15:32:55Z</time></trkpt><trkpt lat="45.95762885262335" lon="12.90584710012437"><ele>41.0</ele><time>2026-04-02T15:32:56Z</time></trkpt><trkpt lat="45.95772583012544" lon="12.905884773663574"><ele>41.0</ele><time>2026-04-02T15:32:57Z</time></trkpt><trkpt lat="45.9578276840757" lon="12.905915360044094"><ele>41.0</ele><time>2026-04-02T15:32:58Z</time></trkpt><trkpt lat="45.95794707579998" lon="12.905918571718995"><ele>41.199999999999996</ele><time>2026-04-02T15:32:59Z</time></trkpt><trkpt lat="45.95807848884806" lon="12.905906248412396"><ele>41.4</ele><time>2026-04-02T15:33:00Z</time></trkpt><trkpt lat="45.958190807169075" lon="12.905889700216271"><ele>41.6</ele><time>2026-04-02T15:33:01Z</time></trkpt><trkpt lat="45.958282293890086" lon="12.905878444378617"><ele>41.8</ele><time>2026-04-02T15:33:02Z</time></trkpt><trkpt lat="45.95836077561146" lon="12.905877294358415"><ele>42.0</ele><time>2026-04-02T15:33:03Z</time></trkpt><trkpt lat="45.95842905915885" lon="12.905892729373512"><ele>41.833333333333336</ele><time>2026-04-02T15:33:04Z</time></trkpt><trkpt lat="45.95849285607168" lon="12.90592314474029"><ele>41.666666666666664</ele><time>2026-04-02T15:33:05Z</time></trkpt><trkpt lat="45.95855868766517" lon="12.905962095102574"><ele>41.5</ele><time>2026-04-02T15:33:06Z</time></trkpt><trkpt lat="45.9586292403475" lon="12.905999872244262"><ele>41.33333333333333</ele><time>2026-04-02T15:33:07Z</time></trkpt><trkpt lat="45.958719452216435" lon="12.906041955086797"><ele>41.166666666666664</ele><time>2026-04-02T15:33:08Z</time></trkpt><trkpt lat="45.95882041266807" lon="12.906088378795713"><ele>41.0</ele><time>2026-04-02T15:33:09Z</time></trkpt><trkpt lat="45.958912125611484" lon="12.906127097229001"><ele>41.0</ele><time>2026-04-02T15:33:10Z</time></trkpt><trkpt lat="45.95898523174162" lon="12.906159727462192"><ele>41.0</ele><time>2026-04-02T15:33:11Z</time></trkpt><trkpt lat="45.95905817820697" lon="12.906192171535048"><ele>41.0</ele><time>2026-04-02T15:33:12Z</time></trkpt><trkpt lat="45.95912208285166" lon="12.906218298548282"><ele>41.0</ele><time>2026-04-02T15:33:13Z</time></trkpt><trkpt lat="45.959235718588765" lon="12.906269585904642"><ele>41.0</ele><time>2026-04-02T15:33:15Z</time></trkpt><trkpt lat="45.95931966355525" lon="12.90629333991542"><ele>41.0</ele><time>2026-04-02T15:33:16Z</time></trkpt><trkpt lat="45.959413493308546" lon="12.90631612746222"><ele>41.599999999999994</ele><time>2026-04-02T15:33:17Z</time></trkpt><trkpt lat="45.95948696567689" lon="12.906336497128603"><ele>42.2</ele><time>2026-04-02T15:33:18Z</time></trkpt><trkpt lat="45.959550506350865" lon="12.906340962131896"><ele>42.8</ele><time>2026-04-02T15:33:19Z</time></trkpt><trkpt lat="45.95968472710625" lon="12.906300117950764"><ele>43.400000000000006</ele><time>2026-04-02T15:33:21Z</time></trkpt><trkpt lat="45.95976844728711" lon="12.906263078365571"><ele>44.0</ele><time>2026-04-02T15:33:22Z</time></trkpt><trkpt lat="45.959869301804915" lon="12.90621001562722"><ele>44.0</ele><time>2026-04-02T15:33:23Z</time></trkpt><trkpt lat="45.95996636701278" lon="12.906159457839523"><ele>44.0</ele><time>2026-04-02T15:33:24Z</time></trkpt><trkpt lat="45.96005184074639" lon="12.906129656126636"><ele>44.0</ele><time>2026-04-02T15:33:25Z</time></trkpt><trkpt lat="45.96013160269613" lon="12.906104109879902"><ele>44.0</ele><time>2026-04-02T15:33:26Z</time></trkpt><trkpt lat="45.96020730705492" lon="12.906062058523982"><ele>44.0</ele><time>2026-04-02T15:33:27Z</time></trkpt><trkpt lat="45.96026459723775" lon="12.906006342174063"><ele>44.0</ele><time>2026-04-02T15:33:28Z</time></trkpt><trkpt lat="45.96031526252721" lon="12.9059291110074"><ele>44.0</ele><time>2026-04-02T15:33:29Z</time></trkpt><trkpt lat="45.96036317827483" lon="12.905850759083547"><ele>44.0</ele><time>2026-04-02T15:33:30Z</time></trkpt><trkpt lat="45.96041927163402" lon="12.905768368393172"><ele>44.0</ele><time>2026-04-02T15:33:31Z</time></trkpt><trkpt lat="45.96048053164346" lon="12.905694677418525"><ele>44.0</ele><time>2026-04-02T15:33:32Z</time></trkpt><trkpt lat="45.960531632558855" lon="12.905634750456368"><ele>44.0</ele><time>2026-04-02T15:33:33Z</time></trkpt><trkpt lat="45.96062121228403" lon="12.905552007398954"><ele>44.0</ele><time>2026-04-02T15:33:35Z</time></trkpt><trkpt lat="45.96074297922116" lon="12.905484520086185"><ele>44.0</ele><time>2026-04-02T15:33:37Z</time></trkpt><trkpt lat="45.960822131356984" lon="12.905412198834233"><ele>44.0</ele><time>2026-04-02T15:33:38Z</time></trkpt><trkpt lat="45.960902706060466" lon="12.905347991428547"><ele>44.0</ele><time>2026-04-02T15:33:39Z</time></trkpt><trkpt lat="45.96098363528526" lon="12.905286582893611"><ele>44.0</ele><time>2026-04-02T15:33:40Z</time></trkpt><trkpt lat="45.961051087336436" lon="12.905222972206449"><ele>44.0</ele><time>2026-04-02T15:33:41Z</time></trkpt><trkpt lat="45.9611448290125" lon="12.905127230164524"><ele>43.75</ele><time>2026-04-02T15:33:43Z</time></trkpt><trkpt lat="45.96124772006152" lon="12.905062325021616"><ele>43.5</ele><time>2026-04-02T15:33:45Z</time></trkpt><trkpt lat="45.961333635063184" lon="12.905014114924542"><ele>43.25</ele><time>2026-04-02T15:33:47Z</time></trkpt><trkpt lat="45.96143475217395" lon="12.90494152210714"><ele>43.0</ele><time>2026-04-02T15:33:49Z</time></trkpt><trkpt lat="45.96155537818268" lon="12.904846069388066"><ele>43.0</ele><time>2026-04-02T15:33:51Z</time></trkpt><trkpt lat="45.96163950554317" lon="12.904781148161605"><ele>43.0</ele><time>2026-04-02T15:33:52Z</time></trkpt><trkpt lat="45.96173809875817" lon="12.904709635120671"><ele>43.0</ele><time>2026-04-02T15:33:53Z</time></trkpt><trkpt lat="45.961844806262455" lon="12.90463337521481"><ele>43.0</ele><time>2026-04-02T15:33:54Z</time></trkpt><trkpt lat="45.961932722100805" lon="12.904576058706576"><ele>43.0</ele><time>2026-04-02T15:33:55Z</time></trkpt><trkpt lat="45.962004791058746" lon="12.904531002151064"><ele>43.333333333333336</ele><time>2026-04-02T15:33:56Z</time></trkpt><trkpt lat="45.96206763500166" lon="12.904490800632855"><ele>43.66666666666667</ele><time>2026-04-02T15:33:57Z</time></trkpt><trkpt lat="45.96213110834306" lon="12.904449974718988"><ele>44.0</ele><time>2026-04-02T15:33:58Z</time></trkpt><trkpt lat="45.96220587219299" lon="12.904397564581613"><ele>44.333333333333336</ele><time>2026-04-02T15:33:59Z</time></trkpt><trkpt lat="45.96229211351119" lon="12.904334976560524"><ele>44.666666666666664</ele><time>2026-04-02T15:34:00Z</time></trkpt><trkpt lat="45.962374120180876" lon="12.904266119673471"><ele>45.0</ele><time>2026-04-02T15:34:01Z</time></trkpt><trkpt lat="45.962439416333126" lon="12.904205153066265"><ele>45.0</ele><time>2026-04-02T15:34:02Z</time></trkpt><trkpt lat="45.96249497008106" lon="12.904152605307642"><ele>45.0</ele><time>2026-04-02T15:34:03Z</time></trkpt><trkpt lat="45.96255233905062" lon="12.904107450239515"><ele>45.0</ele><time>2026-04-02T15:34:04Z</time></trkpt><trkpt lat="45.962615620315724" lon="12.904069294443715"><ele>45.0</ele><time>2026-04-02T15:34:05Z</time></trkpt><trkpt lat="45.962678084533444" lon="12.904037015432094"><ele>45.0</ele><time>2026-04-02T15:34:06Z</time></trkpt><trkpt lat="45.96274227064389" lon="12.903998496778767"><ele>45.0</ele><time>2026-04-02T15:34:07Z</time></trkpt><trkpt lat="45.96280237356903" lon="12.90396765831637"><ele>45.0</ele><time>2026-04-02T15:34:08Z</time></trkpt><trkpt lat="45.96292166988152" lon="12.903893624900936"><ele>45.0</ele><time>2026-04-02T15:34:10Z</time></trkpt><trkpt lat="45.96299158790939" lon="12.903844587720547"><ele>45.0</ele><time>2026-04-02T15:34:11Z</time></trkpt><trkpt lat="45.963061894881626" lon="12.90381460945648"><ele>45.0</ele><time>2026-04-02T15:34:12Z</time></trkpt><trkpt lat="45.96312889019317" lon="12.903800573975264"><ele>45.0</ele><time>2026-04-02T15:34:13Z</time></trkpt><trkpt lat="45.96324161366037" lon="12.903784564581386"><ele>45.0</ele><time>2026-04-02T15:34:15Z</time></trkpt><trkpt lat="45.963365269083276" lon="12.903798935913748"><ele>45.0</ele><time>2026-04-02T15:34:17Z</time></trkpt><trkpt lat="45.96345452472708" lon="12.903819969224665"><ele>45.0</ele><time>2026-04-02T15:34:18Z</time></trkpt><trkpt lat="45.963560908972966" lon="12.903834385060934"><ele>45.0</ele><time>2026-04-02T15:34:19Z</time></trkpt><trkpt lat="45.9636373525863" lon="12.903853745434175"><ele>45.0</ele><time>2026-04-02T15:34:20Z</time></trkpt><trkpt lat="45.96369904304467" lon="12.903882814421662"><ele>45.0</ele><time>2026-04-02T15:34:21Z</time></trkpt><trkpt lat="45.96380689241879" lon="12.903947828635886"><ele>45.0</ele><time>2026-04-02T15:34:23Z</time></trkpt><trkpt lat="45.96388577948928" lon="12.903997135909401"><ele>45.0</ele><time>2026-04-02T15:34:24Z</time></trkpt><trkpt lat="45.96398764192038" lon="12.904057447326158"><ele>45.0</ele><time>2026-04-02T15:34:25Z</time></trkpt><trkpt lat="45.96408420740454" lon="12.904113632198767"><ele>45.0</ele><time>2026-04-02T15:34:26Z</time></trkpt><trkpt lat="45.96415975336551" lon="12.904158157394976"><ele>45.0</ele><time>2026-04-02T15:34:27Z</time></trkpt><trkpt lat="45.96422565935762" lon="12.904190358123405"><ele>45.0</ele><time>2026-04-02T15:34:28Z</time></trkpt><trkpt lat="45.96429126126907" lon="12.90421663144788"><ele>45.0</ele><time>2026-04-02T15:34:29Z</time></trkpt><trkpt lat="45.96438700993178" lon="12.904253971005115"><ele>45.0</ele><time>2026-04-02T15:34:31Z</time></trkpt><trkpt lat="45.96445473636946" lon="12.90424442651128"><ele>45.0</ele><time>2026-04-02T15:34:33Z</time></trkpt><trkpt lat="45.96452257758891" lon="12.904174477220815"><ele>45.0</ele><time>2026-04-02T15:34:36Z</time></trkpt><trkpt lat="45.96459150554304" lon="12.904186150867437"><ele>45.0</ele><time>2026-04-02T15:34:42Z</time></trkpt><trkpt lat="45.964589534642755" lon="12.904324313523084"><ele>45.5</ele><time>2026-04-02T15:34:45Z</time></trkpt><trkpt lat="45.96463844217305" lon="12.904558922765604"><ele>46.0</ele><time>2026-04-02T15:34:46Z</time></trkpt><trkpt lat="45.964637983759424" lon="12.904715411399193"><ele>46.5</ele><time>2026-04-02T15:34:48Z</time></trkpt><trkpt lat="45.964711483485154" lon="12.904873591200435"><ele>47.0</ele><time>2026-04-02T15:34:50Z</time></trkpt><trkpt lat="45.96477922368206" lon="12.90494417340644"><ele>47.0</ele><time>2026-04-02T15:34:51Z</time></trkpt><trkpt lat="45.964842289305395" lon="12.905019539842053"><ele>47.0</ele><time>2026-04-02T15:34:52Z</time></trkpt><trkpt lat="45.96492200730823" lon="12.905101466788416"><ele>47.0</ele><time>2026-04-02T15:34:53Z</time></trkpt><trkpt lat="45.964980860877155" lon="12.90513770801613"><ele>47.0</ele><time>2026-04-02T15:34:54Z</time></trkpt><trkpt lat="45.96503894354488" lon="12.905178617271947"><ele>47.0</ele><time>2026-04-02T15:34:55Z</time></trkpt><trkpt lat="45.96511615075873" lon="12.905229230331157"><ele>47.0</ele><time>2026-04-02T15:34:57Z</time></trkpt><trkpt lat="45.96518177926218" lon="12.905252984778809"><ele>46.666666666666664</ele><time>2026-04-02T15:34:58Z</time></trkpt><trkpt lat="45.96527760497235" lon="12.905289175733483"><ele>46.33333333333333</ele><time>2026-04-02T15:34:59Z</time></trkpt><trkpt lat="45.96535196860058" lon="12.905353457761919"><ele>46.0</ele><time>2026-04-02T15:35:01Z</time></trkpt><trkpt lat="45.9654189372158" lon="12.905371890300453"><ele>45.666666666666664</ele><time>2026-04-02T15:35:02Z</time></trkpt><trkpt lat="45.965494575440026" lon="12.905444664452968"><ele>45.333333333333336</ele><time>2026-04-02T15:35:04Z</time></trkpt><trkpt lat="45.965549976297666" lon="12.905549267765076"><ele>45.0</ele><time>2026-04-02T15:35:06Z</time></trkpt><trkpt lat="45.96557893274086" lon="12.905639414909885"><ele>45.0</ele><time>2026-04-02T15:35:11Z</time></trkpt><trkpt lat="45.9655783688604" lon="12.905763577559458"><ele>45.0</ele><time>2026-04-02T15:35:15Z</time></trkpt><trkpt lat="45.965590928464444" lon="12.905874437228285"><ele>45.0</ele><time>2026-04-02T15:35:17Z</time></trkpt><trkpt lat="45.965598877538255" lon="12.906005540092316"><ele>45.0</ele><time>2026-04-02T15:35:18Z</time></trkpt><trkpt lat="45.965607928332155" lon="12.906126972941832"><ele>45.0</ele><time>2026-04-02T15:35:20Z</time></trkpt><trkpt lat="45.96565139194744" lon="12.906202078811571"><ele>45.0</ele><time>2026-04-02T15:35:23Z</time></trkpt><trkpt lat="45.96572850913241" lon="12.906258040010666"><ele>45.0</ele><time>2026-04-02T15:35:27Z</time></trkpt><trkpt lat="45.96579877820906" lon="12.906240089297034"><ele>45.0</ele><time>2026-04-02T15:35:28Z</time></trkpt><trkpt lat="45.96586758875155" lon="12.90621769205739"><ele>45.0</ele><time>2026-04-02T15:35:30Z</time></trkpt><trkpt lat="45.965957723629195" lon="12.906188392600988"><ele>45.0</ele><time>2026-04-02T15:35:32Z</time></trkpt><trkpt lat="45.96602759584789" lon="12.906202821718997"><ele>45.0</ele><time>2026-04-02T15:35:33Z</time></trkpt><trkpt lat="45.966107098695424" lon="12.906219827234086"><ele>45.0</ele><time>2026-04-02T15:35:34Z</time></trkpt><trkpt lat="45.96620316769115" lon="12.906250527194711"><ele>45.0</ele><time>2026-04-02T15:35:35Z</time></trkpt><trkpt lat="45.96631862208647" lon="12.90630605238017"><ele>45.0</ele><time>2026-04-02T15:35:37Z</time></trkpt><trkpt lat="45.96640829753356" lon="12.906305535092184"><ele>45.0</ele><time>2026-04-02T15:35:39Z</time></trkpt><trkpt lat="45.966500028182224" lon="12.906380556342835"><ele>45.0</ele><time>2026-04-02T15:35:41Z</time></trkpt><trkpt lat="45.966580767235044" lon="12.906456530948693"><ele>45.0</ele><time>2026-04-02T15:35:43Z</time></trkpt><trkpt lat="45.96667821092386" lon="12.906503306435658"><ele>45.166666666666664</ele><time>2026-04-02T15:35:46Z</time></trkpt><trkpt lat="45.966794295159055" lon="12.906567490351078"><ele>45.333333333333336</ele><time>2026-04-02T15:35:48Z</time></trkpt><trkpt lat="45.96686311608843" lon="12.906600636756922"><ele>45.5</ele><time>2026-04-02T15:35:49Z</time></trkpt><trkpt lat="45.966941113444136" lon="12.90661818514274"><ele>45.66666666666667</ele><time>2026-04-02T15:35:50Z</time></trkpt><trkpt lat="45.96702791048047" lon="12.906617446725457"><ele>45.833333333333336</ele><time>2026-04-02T15:35:51Z</time></trkpt><trkpt lat="45.96710464424677" lon="12.90660399773217"><ele>46.0</ele><time>2026-04-02T15:35:52Z</time></trkpt><trkpt lat="45.96718214265422" lon="12.906579332396383"><ele>46.0</ele><time>2026-04-02T15:35:53Z</time></trkpt><trkpt lat="45.96726928137507" lon="12.906558409537892"><ele>46.0</ele><time>2026-04-02T15:35:54Z</time></trkpt><trkpt lat="45.96735953251593" lon="12.906536561095002"><ele>46.0</ele><time>2026-04-02T15:35:55Z</time></trkpt><trkpt lat="45.96743582843812" lon="12.906513173357878"><ele>46.0</ele><time>2026-04-02T15:35:56Z</time></trkpt><trkpt lat="45.96750427191984" lon="12.906487183904526"><ele>46.0</ele><time>2026-04-02T15:35:57Z</time></trkpt><trkpt lat="45.96757928640332" lon="12.906450155891529"><ele>46.0</ele><time>2026-04-02T15:35:58Z</time></trkpt><trkpt lat="45.96765559037275" lon="12.906422241779772"><ele>46.0</ele><time>2026-04-02T15:35:59Z</time></trkpt><trkpt lat="45.967736887135786" lon="12.906404310505794"><ele>46.0</ele><time>2026-04-02T15:36:00Z</time></trkpt><trkpt lat="45.967817895587245" lon="12.906393911069218"><ele>46.0</ele><time>2026-04-02T15:36:01Z</time></trkpt><trkpt lat="45.9679032985486" lon="12.906394190682912"><ele>46.0</ele><time>2026-04-02T15:36:02Z</time></trkpt><trkpt lat="45.96798522526088" lon="12.906409305999075"><ele>46.0</ele><time>2026-04-02T15:36:03Z</time></trkpt><trkpt lat="45.96806178951293" lon="12.90643609171892"><ele>46.0</ele><time>2026-04-02T15:36:04Z</time></trkpt><trkpt lat="45.968132747886585" lon="12.90646591506083"><ele>46.0</ele><time>2026-04-02T15:36:05Z</time></trkpt><trkpt lat="45.968203336079235" lon="12.906509239943807"><ele>46.0</ele><time>2026-04-02T15:36:06Z</time></trkpt><trkpt lat="45.968284940521016" lon="12.906571815761843"><ele>46.0</ele><time>2026-04-02T15:36:07Z</time></trkpt><trkpt lat="45.96838317795554" lon="12.90665336516749"><ele>46.0</ele><time>2026-04-02T15:36:08Z</time></trkpt><trkpt lat="45.96848427862231" lon="12.906735372418925"><ele>46.0</ele><time>2026-04-02T15:36:09Z</time></trkpt><trkpt lat="45.968573534343854" lon="12.906803399004962"><ele>45.833333333333336</ele><time>2026-04-02T15:36:10Z</time></trkpt><trkpt lat="45.9686560459037" lon="12.90686081273646"><ele>45.66666666666667</ele><time>2026-04-02T15:36:11Z</time></trkpt><trkpt lat="45.96873507047497" lon="12.906914637915955"><ele>45.5</ele><time>2026-04-02T15:36:12Z</time></trkpt><trkpt lat="45.968802286652696" lon="12.906959013711923"><ele>45.333333333333336</ele><time>2026-04-02T15:36:13Z</time></trkpt><trkpt lat="45.96887393706144" lon="12.90700303985704"><ele>45.166666666666664</ele><time>2026-04-02T15:36:14Z</time></trkpt><trkpt lat="45.96895908162819" lon="12.907067880522881"><ele>45.0</ele><time>2026-04-02T15:36:15Z</time></trkpt><trkpt lat="45.969059662937156" lon="12.90715867499267"><ele>45.0</ele><time>2026-04-02T15:36:16Z</time></trkpt><trkpt lat="45.96915445618167" lon="12.907245358546483"><ele>45.0</ele><time>2026-04-02T15:36:17Z</time></trkpt><trkpt lat="45.969227878154136" lon="12.907318826661145"><ele>45.0</ele><time>2026-04-02T15:36:18Z</time></trkpt><trkpt lat="45.96929055807141" lon="12.907395321516905"><ele>45.0</ele><time>2026-04-02T15:36:19Z</time></trkpt><trkpt lat="45.969352850342" lon="12.9074725188203"><ele>45.0</ele><time>2026-04-02T15:36:20Z</time></trkpt><trkpt lat="45.96942153101951" lon="12.907553924631447"><ele>45.333333333333336</ele><time>2026-04-02T15:36:21Z</time></trkpt><trkpt lat="45.96948789333631" lon="12.907637653729525"><ele>45.666666666666664</ele><time>2026-04-02T15:36:22Z</time></trkpt><trkpt lat="45.96954030385189" lon="12.907703596028762"><ele>46.0</ele><time>2026-04-02T15:36:23Z</time></trkpt><trkpt lat="45.96958710180129" lon="12.907766531642531"><ele>46.33333333333333</ele><time>2026-04-02T15:36:24Z</time></trkpt><trkpt lat="45.969631293784076" lon="12.907835069323802"><ele>46.666666666666664</ele><time>2026-04-02T15:36:25Z</time></trkpt><trkpt lat="45.969712203203315" lon="12.907977980718854"><ele>47.0</ele><time>2026-04-02T15:36:27Z</time></trkpt><trkpt lat="45.96974518255055" lon="12.908063296037454"><ele>47.0</ele><time>2026-04-02T15:36:28Z</time></trkpt><trkpt lat="45.969779414665105" lon="12.908216083637779"><ele>47.0</ele><time>2026-04-02T15:36:30Z</time></trkpt><trkpt lat="45.96980995226529" lon="12.90832600337742"><ele>47.0</ele><time>2026-04-02T15:36:32Z</time></trkpt><trkpt lat="45.96988159841518" lon="12.908383515263017"><ele>47.0</ele><time>2026-04-02T15:36:34Z</time></trkpt><trkpt lat="45.96998405089469" lon="12.908381902236274"><ele>47.0</ele><time>2026-04-02T15:36:36Z</time></trkpt><trkpt lat="45.97004373008664" lon="12.908415879400113"><ele>47.0</ele><time>2026-04-02T15:36:37Z</time></trkpt><trkpt lat="45.97010732692033" lon="12.908435387628746"><ele>47.0</ele><time>2026-04-02T15:36:38Z</time></trkpt><trkpt lat="45.97021979771971" lon="12.908423892809372"><ele>47.0</ele><time>2026-04-02T15:36:40Z</time></trkpt><trkpt lat="45.970288563045656" lon="12.908414782568896"><ele>47.0</ele><time>2026-04-02T15:36:41Z</time></trkpt><trkpt lat="45.97037605211975" lon="12.90840150341228"><ele>47.0</ele><time>2026-04-02T15:36:42Z</time></trkpt><trkpt lat="45.970484560860456" lon="12.908368827003217"><ele>47.0</ele><time>2026-04-02T15:36:43Z</time></trkpt><trkpt lat="45.97059719814498" lon="12.908323750865511"><ele>47.0</ele><time>2026-04-02T15:36:44Z</time></trkpt><trkpt lat="45.970687581785555" lon="12.90828116786323"><ele>47.0</ele><time>2026-04-02T15:36:45Z</time></trkpt><trkpt lat="45.97077559303197" lon="12.908240228454945"><ele>47.0</ele><time>2026-04-02T15:36:46Z</time></trkpt><trkpt lat="45.97086917960922" lon="12.90819393882469"><ele>47.0</ele><time>2026-04-02T15:36:47Z</time></trkpt><trkpt lat="45.970971118953074" lon="12.908147822342986"><ele>47.0</ele><time>2026-04-02T15:36:48Z</time></trkpt><trkpt lat="45.971077114417994" lon="12.90809830591899"><ele>47.0</ele><time>2026-04-02T15:36:49Z</time></trkpt><trkpt lat="45.971163673341124" lon="12.908059147325622"><ele>47.0</ele><time>2026-04-02T15:36:50Z</time></trkpt><trkpt lat="45.9712493092877" lon="12.908021948363425"><ele>47.0</ele><time>2026-04-02T15:36:51Z</time></trkpt><trkpt lat="45.97133010587153" lon="12.907991097384986"><ele>47.0</ele><time>2026-04-02T15:36:52Z</time></trkpt><trkpt lat="45.97139601998147" lon="12.90795215969021"><ele>47.0</ele><time>2026-04-02T15:36:53Z</time></trkpt><trkpt lat="45.97147677804601" lon="12.907890860918787"><ele>47.0</ele><time>2026-04-02T15:36:54Z</time></trkpt><trkpt lat="45.97156764254435" lon="12.907833639208821"><ele>47.0</ele><time>2026-04-02T15:36:55Z</time></trkpt><trkpt lat="45.97166307946369" lon="12.907775871823553"><ele>47.0</ele><time>2026-04-02T15:36:56Z</time></trkpt><trkpt lat="45.97176631720994" lon="12.907708250988433"><ele>47.0</ele><time>2026-04-02T15:36:57Z</time></trkpt><trkpt lat="45.97188026763236" lon="12.907634767258987"><ele>47.0</ele><time>2026-04-02T15:36:58Z</time></trkpt><trkpt lat="45.97198701693" lon="12.907567425727535"><ele>46.6</ele><time>2026-04-02T15:36:59Z</time></trkpt><trkpt lat="45.97207967017636" lon="12.907512170492605"><ele>46.2</ele><time>2026-04-02T15:37:00Z</time></trkpt><trkpt lat="45.97217624811243" lon="12.907462865330086"><ele>45.8</ele><time>2026-04-02T15:37:01Z</time></trkpt><trkpt lat="45.97227913817375" lon="12.90742066592324"><ele>45.4</ele><time>2026-04-02T15:37:02Z</time></trkpt><trkpt lat="45.972376142151305" lon="12.907388885152999"><ele>45.0</ele><time>2026-04-02T15:37:03Z</time></trkpt><trkpt lat="45.972479483528396" lon="12.90736155511717"><ele>45.2</ele><time>2026-04-02T15:37:04Z</time></trkpt><trkpt lat="45.97258360420374" lon="12.907322517907216"><ele>45.4</ele><time>2026-04-02T15:37:05Z</time></trkpt><trkpt lat="45.97268305721516" lon="12.907285549223955"><ele>45.599999999999994</ele><time>2026-04-02T15:37:06Z</time></trkpt><trkpt lat="45.97277812996198" lon="12.907248459623935"><ele>45.8</ele><time>2026-04-02T15:37:07Z</time></trkpt><trkpt lat="45.97287940599535" lon="12.90720076482449"><ele>46.0</ele><time>2026-04-02T15:37:08Z</time></trkpt><trkpt lat="45.97298157426013" lon="12.907144097197758"><ele>46.0</ele><time>2026-04-02T15:37:09Z</time></trkpt><trkpt lat="45.973081413452206" lon="12.907089552086266"><ele>46.0</ele><time>2026-04-02T15:37:10Z</time></trkpt><trkpt lat="45.97317991179264" lon="12.907033509668125"><ele>46.0</ele><time>2026-04-02T15:37:11Z</time></trkpt><trkpt lat="45.973264929440305" lon="12.906996349593967"><ele>46.0</ele><time>2026-04-02T15:37:12Z</time></trkpt><trkpt lat="45.97337109849308" lon="12.906980289332223"><ele>46.0</ele><time>2026-04-02T15:37:14Z</time></trkpt><trkpt lat="45.97349656742363" lon="12.90698931166685"><ele>46.199999999999996</ele><time>2026-04-02T15:37:16Z</time></trkpt><trkpt lat="45.973585880575875" lon="12.906957721337193"><ele>46.4</ele><time>2026-04-02T15:37:17Z</time></trkpt><trkpt lat="45.97369717706301" lon="12.906921952287759"><ele>46.6</ele><time>2026-04-02T15:37:18Z</time></trkpt><trkpt lat="45.97380574628542" lon="12.906887628504615"><ele>46.8</ele><time>2026-04-02T15:37:19Z</time></trkpt><trkpt lat="45.973902074346505" lon="12.906864784760836"><ele>47.0</ele><time>2026-04-02T15:37:20Z</time></trkpt><trkpt lat="45.973983459389515" lon="12.906841822722111"><ele>47.0</ele><time>2026-04-02T15:37:21Z</time></trkpt><trkpt lat="45.97405492573462" lon="12.90682078393071"><ele>47.0</ele><time>2026-04-02T15:37:22Z</time></trkpt><trkpt lat="45.97412650146174" lon="12.906810229181483"><ele>47.0</ele><time>2026-04-02T15:37:23Z</time></trkpt><trkpt lat="45.97421115428168" lon="12.906812933328833"><ele>47.0</ele><time>2026-04-02T15:37:24Z</time></trkpt><trkpt lat="45.974296645296576" lon="12.906823796316697"><ele>47.0</ele><time>2026-04-02T15:37:25Z</time></trkpt><trkpt lat="45.97436266140017" lon="12.906829361822489"><ele>47.0</ele><time>2026-04-02T15:37:26Z</time></trkpt><trkpt lat="45.97444274240362" lon="12.906869421542282"><ele>46.6</ele><time>2026-04-02T15:37:28Z</time></trkpt><trkpt lat="45.97452550589606" lon="12.906891253290217"><ele>46.2</ele><time>2026-04-02T15:37:30Z</time></trkpt><trkpt lat="45.97465691271983" lon="12.906835285887142"><ele>45.8</ele><time>2026-04-02T15:37:32Z</time></trkpt><trkpt lat="45.974727093905294" lon="12.906804973620392"><ele>45.4</ele><time>2026-04-02T15:37:33Z</time></trkpt><trkpt lat="45.97487054554218" lon="12.90679039441012"><ele>45.0</ele><time>2026-04-02T15:37:35Z</time></trkpt><trkpt lat="45.97495134296333" lon="12.90678579106106"><ele>44.8</ele><time>2026-04-02T15:37:36Z</time></trkpt><trkpt lat="45.975041322613635" lon="12.906769322633252"><ele>44.6</ele><time>2026-04-02T15:37:37Z</time></trkpt><trkpt lat="45.97513430460991" lon="12.90674738550839"><ele>44.400000000000006</ele><time>2026-04-02T15:37:38Z</time></trkpt><trkpt lat="45.975224841181536" lon="12.906718696114728"><ele>44.2</ele><time>2026-04-02T15:37:39Z</time></trkpt><trkpt lat="45.97531743376095" lon="12.906691132780995"><ele>44.0</ele><time>2026-04-02T15:37:40Z</time></trkpt><trkpt lat="45.97541432662633" lon="12.906677807310041"><ele>44.0</ele><time>2026-04-02T15:37:41Z</time></trkpt><trkpt lat="45.97550000379999" lon="12.90669275782917"><ele>44.0</ele><time>2026-04-02T15:37:42Z</time></trkpt><trkpt lat="45.97557737411381" lon="12.906734744843403"><ele>44.0</ele><time>2026-04-02T15:37:43Z</time></trkpt><trkpt lat="45.97565005701884" lon="12.906792448755702"><ele>44.0</ele><time>2026-04-02T15:37:44Z</time></trkpt><trkpt lat="45.97572636094343" lon="12.906853079002493"><ele>44.0</ele><time>2026-04-02T15:37:45Z</time></trkpt><trkpt lat="45.97579882665165" lon="12.90690975567736"><ele>44.0</ele><time>2026-04-02T15:37:46Z</time></trkpt><trkpt lat="45.97586618878582" lon="12.90696447809073"><ele>44.5</ele><time>2026-04-02T15:37:47Z</time></trkpt><trkpt lat="45.97594939565054" lon="12.906999507792994"><ele>45.0</ele><time>2026-04-02T15:37:48Z</time></trkpt><trkpt lat="45.976059002337614" lon="12.906991968002544"><ele>45.5</ele><time>2026-04-02T15:37:49Z</time></trkpt><trkpt lat="45.97618904829206" lon="12.906960972516885"><ele>46.0</ele><time>2026-04-02T15:37:50Z</time></trkpt><trkpt lat="45.97631687034425" lon="12.906924633889076"><ele>46.0</ele><time>2026-04-02T15:37:51Z</time></trkpt><trkpt lat="45.976452765764336" lon="12.906884171569276"><ele>46.0</ele><time>2026-04-02T15:37:52Z</time></trkpt><trkpt lat="45.9765707628978" lon="12.906851893079692"><ele>46.0</ele><time>2026-04-02T15:37:53Z</time></trkpt><trkpt lat="45.976671289756055" lon="12.90682269278789"><ele>46.0</ele><time>2026-04-02T15:37:54Z</time></trkpt><trkpt lat="45.976763646538096" lon="12.906786605160745"><ele>46.0</ele><time>2026-04-02T15:37:55Z</time></trkpt><trkpt lat="45.97685747030288" lon="12.906750692609979"><ele>46.0</ele><time>2026-04-02T15:37:56Z</time></trkpt><trkpt lat="45.976954010912905" lon="12.906719487730964"><ele>46.0</ele><time>2026-04-02T15:37:57Z</time></trkpt><trkpt lat="45.97705345928521" lon="12.906688096714287"><ele>46.0</ele><time>2026-04-02T15:37:58Z</time></trkpt><trkpt lat="45.97713751653683" lon="12.906677886785799"><ele>46.0</ele><time>2026-04-02T15:37:59Z</time></trkpt><trkpt lat="45.97721885275002" lon="12.906669852867191"><ele>46.0</ele><time>2026-04-02T15:38:00Z</time></trkpt><trkpt lat="45.977306070951414" lon="12.906649813394791"><ele>46.0</ele><time>2026-04-02T15:38:01Z</time></trkpt><trkpt lat="45.977401467954174" lon="12.906622792480041"><ele>46.0</ele><time>2026-04-02T15:38:02Z</time></trkpt><trkpt lat="45.97751680682731" lon="12.906594807400031"><ele>46.0</ele><time>2026-04-02T15:38:03Z</time></trkpt><trkpt lat="45.9776429791635" lon="12.906562484623148"><ele>46.0</ele><time>2026-04-02T15:38:04Z</time></trkpt><trkpt lat="45.97774416101477" lon="12.906527479233018"><ele>46.0</ele><time>2026-04-02T15:38:05Z</time></trkpt><trkpt lat="45.977826174114725" lon="12.90649507700585"><ele>46.0</ele><time>2026-04-02T15:38:06Z</time></trkpt><trkpt lat="45.97790050333094" lon="12.906459715821388"><ele>46.0</ele><time>2026-04-02T15:38:07Z</time></trkpt><trkpt lat="45.977972678193126" lon="12.906421515268981"><ele>46.0</ele><time>2026-04-02T15:38:08Z</time></trkpt><trkpt lat="45.978052062154426" lon="12.90639317028713"><ele>46.0</ele><time>2026-04-02T15:38:09Z</time></trkpt><trkpt lat="45.97813092972228" lon="12.90637054256691"><ele>46.0</ele><time>2026-04-02T15:38:10Z</time></trkpt><trkpt lat="45.978212037944935" lon="12.906347313991379"><ele>46.0</ele><time>2026-04-02T15:38:11Z</time></trkpt><trkpt lat="45.97829128196706" lon="12.906317750027222"><ele>46.0</ele><time>2026-04-02T15:38:12Z</time></trkpt><trkpt lat="45.97840487497519" lon="12.906313335544526"><ele>46.0</ele><time>2026-04-02T15:38:14Z</time></trkpt><trkpt lat="45.9785254465977" lon="12.906398540134987"><ele>46.0</ele><time>2026-04-02T15:38:16Z</time></trkpt><trkpt lat="45.97859802152915" lon="12.906457905615717"><ele>46.0</ele><time>2026-04-02T15:38:17Z</time></trkpt><trkpt lat="45.978674073368204" lon="12.906516500440446"><ele>46.16666666666667</ele><time>2026-04-02T15:38:18Z</time></trkpt><trkpt lat="45.978743259218575" lon="12.90655594472033"><ele>46.333333333333336</ele><time>2026-04-02T15:38:19Z</time></trkpt><trkpt lat="45.97882081472581" lon="12.906586804876662"><ele>46.5</ele><time>2026-04-02T15:38:20Z</time></trkpt><trkpt lat="45.97890202805256" lon="12.906597186400147"><ele>46.666666666666664</ele><time>2026-04-02T15:38:21Z</time></trkpt><trkpt lat="45.9790046294559" lon="12.906578116631483"><ele>46.83333333333333</ele><time>2026-04-02T15:38:22Z</time></trkpt><trkpt lat="45.97909004207156" lon="12.906540383058346"><ele>47.0</ele><time>2026-04-02T15:38:23Z</time></trkpt><trkpt lat="45.97916185255677" lon="12.906503372226046"><ele>47.0</ele><time>2026-04-02T15:38:24Z</time></trkpt><trkpt lat="45.97922558006087" lon="12.906473369602097"><ele>47.0</ele><time>2026-04-02T15:38:25Z</time></trkpt><trkpt lat="45.979303433278446" lon="12.906449958896498"><ele>47.0</ele><time>2026-04-02T15:38:26Z</time></trkpt><trkpt lat="45.979387162755906" lon="12.906447868393908"><ele>47.0</ele><time>2026-04-02T15:38:27Z</time></trkpt><trkpt lat="45.979482339161784" lon="12.906447229290746"><ele>47.0</ele><time>2026-04-02T15:38:28Z</time></trkpt><trkpt lat="45.97956842547387" lon="12.906457430283735"><ele>47.0</ele><time>2026-04-02T15:38:29Z</time></trkpt><trkpt lat="45.97965950401278" lon="12.906470668457535"><ele>47.0</ele><time>2026-04-02T15:38:30Z</time></trkpt><trkpt lat="45.97976182868701" lon="12.906475148286265"><ele>47.0</ele><time>2026-04-02T15:38:31Z</time></trkpt><trkpt lat="45.97987185366643" lon="12.90647076998977"><ele>47.0</ele><time>2026-04-02T15:38:32Z</time></trkpt><trkpt lat="45.97996973252266" lon="12.906464459483043"><ele>47.0</ele><time>2026-04-02T15:38:33Z</time></trkpt><trkpt lat="45.980064578256005" lon="12.906450790007082"><ele>47.0</ele><time>2026-04-02T15:38:34Z</time></trkpt><trkpt lat="45.980149506162874" lon="12.906426368169885"><ele>47.2</ele><time>2026-04-02T15:38:35Z</time></trkpt><trkpt lat="45.98023050681285" lon="12.906382076416076"><ele>47.400000000000006</ele><time>2026-04-02T15:38:36Z</time></trkpt><trkpt lat="45.98031861279051" lon="12.906310730962142"><ele>47.599999999999994</ele><time>2026-04-02T15:38:37Z</time></trkpt><trkpt lat="45.980408786166116" lon="12.906259177412224"><ele>47.8</ele><time>2026-04-02T15:38:38Z</time></trkpt><trkpt lat="45.98049039346982" lon="12.906231903982619"><ele>48.0</ele><time>2026-04-02T15:38:39Z</time></trkpt><trkpt lat="45.980586099156255" lon="12.906195715274084"><ele>48.0</ele><time>2026-04-02T15:38:40Z</time></trkpt><trkpt lat="45.98067322437829" lon="12.906192365744628"><ele>48.0</ele><time>2026-04-02T15:38:41Z</time></trkpt><trkpt lat="45.98078188413805" lon="12.906129248236715"><ele>48.0</ele><time>2026-04-02T15:38:42Z</time></trkpt><trkpt lat="45.9808870067421" lon="12.90608379467665"><ele>48.0</ele><time>2026-04-02T15:38:43Z</time></trkpt><trkpt lat="45.980972763755005" lon="12.906049841805897"><ele>48.0</ele><time>2026-04-02T15:38:44Z</time></trkpt><trkpt lat="45.981042692091336" lon="12.905999286184148"><ele>48.0</ele><time>2026-04-02T15:38:45Z</time></trkpt><trkpt lat="45.981137174240594" lon="12.905939192083952"><ele>48.0</ele><time>2026-04-02T15:38:46Z</time></trkpt><trkpt lat="45.98123197502531" lon="12.90589222540319"><ele>48.0</ele><time>2026-04-02T15:38:47Z</time></trkpt><trkpt lat="45.9813312842999" lon="12.905855208791067"><ele>48.0</ele><time>2026-04-02T15:38:48Z</time></trkpt><trkpt lat="45.98145467203085" lon="12.905795164738139"><ele>48.0</ele><time>2026-04-02T15:38:49Z</time></trkpt><trkpt lat="45.9815436132198" lon="12.905752136108523"><ele>47.8</ele><time>2026-04-02T15:38:50Z</time></trkpt><trkpt lat="45.98163460710892" lon="12.905708450848728"><ele>47.599999999999994</ele><time>2026-04-02T15:38:51Z</time></trkpt><trkpt lat="45.981737044432165" lon="12.905644880522015"><ele>47.400000000000006</ele><time>2026-04-02T15:38:52Z</time></trkpt><trkpt lat="45.98184060858672" lon="12.905584993093917"><ele>47.2</ele><time>2026-04-02T15:38:53Z</time></trkpt><trkpt lat="45.98193781314156" lon="12.905538902728768"><ele>47.0</ele><time>2026-04-02T15:38:54Z</time></trkpt><trkpt lat="45.982029179637706" lon="12.905491946087375"><ele>47.400000000000006</ele><time>2026-04-02T15:38:55Z</time></trkpt><trkpt lat="45.9821180605317" lon="12.905446035200121"><ele>47.800000000000004</ele><time>2026-04-02T15:38:56Z</time></trkpt><trkpt lat="45.98220666906148" lon="12.905389028039355"><ele>48.2</ele><time>2026-04-02T15:38:57Z</time></trkpt><trkpt lat="45.98228173369029" lon="12.905330403602024"><ele>48.6</ele><time>2026-04-02T15:38:58Z</time></trkpt><trkpt lat="45.982354088131196" lon="12.905257425280924"><ele>49.0</ele><time>2026-04-02T15:38:59Z</time></trkpt><trkpt lat="45.982426737686154" lon="12.905169200766522"><ele>49.0</ele><time>2026-04-02T15:39:00Z</time></trkpt><trkpt lat="45.98250364952801" lon="12.905081376674456"><ele>49.0</ele><time>2026-04-02T15:39:01Z</time></trkpt><trkpt lat="45.98256761629251" lon="12.90502080501131"><ele>49.0</ele><time>2026-04-02T15:39:02Z</time></trkpt><trkpt lat="45.982625494652204" lon="12.90498486208039"><ele>49.0</ele><time>2026-04-02T15:39:03Z</time></trkpt><trkpt lat="45.98272954547971" lon="12.90494610568203"><ele>49.0</ele><time>2026-04-02T15:39:05Z</time></trkpt><trkpt lat="45.98284597292956" lon="12.904914475443112"><ele>48.666666666666664</ele><time>2026-04-02T15:39:07Z</time></trkpt><trkpt lat="45.98291577778097" lon="12.904928612227291"><ele>48.33333333333333</ele><time>2026-04-02T15:39:08Z</time></trkpt><trkpt lat="45.98299148611778" lon="12.904944275023713"><ele>48.0</ele><time>2026-04-02T15:39:09Z</time></trkpt><trkpt lat="45.98305900680074" lon="12.904958451193217"><ele>47.666666666666664</ele><time>2026-04-02T15:39:10Z</time></trkpt><trkpt lat="45.98318451218878" lon="12.904971491267574"><ele>47.33333333333333</ele><time>2026-04-02T15:39:12Z</time></trkpt><trkpt lat="45.98325487316505" lon="12.904996534976723"><ele>47.0</ele><time>2026-04-02T15:39:13Z</time></trkpt><trkpt lat="45.98332700682251" lon="12.905032426901583"><ele>47.400000000000006</ele><time>2026-04-02T15:39:14Z</time></trkpt><trkpt lat="45.98342128328615" lon="12.905069944259655"><ele>47.800000000000004</ele><time>2026-04-02T15:39:16Z</time></trkpt><trkpt lat="45.98347651343269" lon="12.90513158701669"><ele>48.2</ele><time>2026-04-02T15:39:19Z</time></trkpt><trkpt lat="45.98350315791213" lon="12.905255190846624"><ele>48.6</ele><time>2026-04-02T15:39:21Z</time></trkpt><trkpt lat="45.983627266478145" lon="12.905343895580405"><ele>49.0</ele><time>2026-04-02T15:39:23Z</time></trkpt><trkpt lat="45.9837243587855" lon="12.905357938073395"><ele>49.2</ele><time>2026-04-02T15:39:24Z</time></trkpt><trkpt lat="45.98384176087338" lon="12.905370470294063"><ele>49.400000000000006</ele><time>2026-04-02T15:39:25Z</time></trkpt><trkpt lat="45.98396055702989" lon="12.905367152536579"><ele>49.6</ele><time>2026-04-02T15:39:26Z</time></trkpt><trkpt lat="45.98404966182533" lon="12.905355838266658"><ele>49.8</ele><time>2026-04-02T15:39:27Z</time></trkpt><trkpt lat="45.98412523996131" lon="12.90532964564929"><ele>50.0</ele><time>2026-04-02T15:39:28Z</time></trkpt><trkpt lat="45.98420210139138" lon="12.905298609009996"><ele>50.00000000000001</ele><time>2026-04-02T15:39:29Z</time></trkpt><trkpt lat="45.98429488465751" lon="12.905247343940728"><ele>50.0</ele><time>2026-04-02T15:39:30Z</time></trkpt><trkpt lat="45.98438422916491" lon="12.905215417873983"><ele>50.0</ele><time>2026-04-02T15:39:31Z</time></trkpt><trkpt lat="45.98446735710391" lon="12.905187565931048"><ele>50.0</ele><time>2026-04-02T15:39:32Z</time></trkpt><trkpt lat="45.98455058206812" lon="12.905177411156131"><ele>50.00000000000001</ele><time>2026-04-02T15:39:33Z</time></trkpt><trkpt lat="45.984637448902994" lon="12.905172375950071"><ele>50.0</ele><time>2026-04-02T15:39:34Z</time></trkpt><trkpt lat="45.984729637491505" lon="12.905147500707525"><ele>50.0</ele><time>2026-04-02T15:39:35Z</time></trkpt><trkpt lat="45.98482252759316" lon="12.905116896054896"><ele>50.0</ele><time>2026-04-02T15:39:36Z</time></trkpt><trkpt lat="45.98491682559312" lon="12.905093575691064"><ele>50.0</ele><time>2026-04-02T15:39:37Z</time></trkpt><trkpt lat="45.98501076372628" lon="12.905076520373127"><ele>50.0</ele><time>2026-04-02T15:39:38Z</time></trkpt><trkpt lat="45.98510504610321" lon="12.905074729887984"><ele>50.0</ele><time>2026-04-02T15:39:39Z</time></trkpt><trkpt lat="45.98519702527036" lon="12.905090955827466"><ele>50.16666666666667</ele><time>2026-04-02T15:39:40Z</time></trkpt><trkpt lat="45.98530187686043" lon="12.905116774667992"><ele>50.333333333333336</ele><time>2026-04-02T15:39:41Z</time></trkpt><trkpt lat="45.98539348096807" lon="12.90513485531004"><ele>50.5</ele><time>2026-04-02T15:39:42Z</time></trkpt><trkpt lat="45.98546674953235" lon="12.905144811248892"><ele>50.66666666666667</ele><time>2026-04-02T15:39:43Z</time></trkpt><trkpt lat="45.98553305575546" lon="12.9051577163555"><ele>50.833333333333336</ele><time>2026-04-02T15:39:44Z</time></trkpt><trkpt lat="45.985613808249354" lon="12.905167671363866"><ele>51.0</ele><time>2026-04-02T15:39:45Z</time></trkpt><trkpt lat="45.98572287230417" lon="12.905178816691217"><ele>51.0</ele><time>2026-04-02T15:39:46Z</time></trkpt><trkpt lat="45.98582754837725" lon="12.90518588997633"><ele>51.0</ele><time>2026-04-02T15:39:47Z</time></trkpt><trkpt lat="45.98592383895286" lon="12.905173196628095"><ele>51.0</ele><time>2026-04-02T15:39:48Z</time></trkpt><trkpt lat="45.98601052875788" lon="12.905149282066647"><ele>51.0</ele><time>2026-04-02T15:39:49Z</time></trkpt><trkpt lat="45.98609893437434" lon="12.905116935120791"><ele>51.0</ele><time>2026-04-02T15:39:50Z</time></trkpt><trkpt lat="45.98618989199449" lon="12.905088626630056"><ele>50.8</ele><time>2026-04-02T15:39:51Z</time></trkpt><trkpt lat="45.98628679709251" lon="12.905061921986823"><ele>50.599999999999994</ele><time>2026-04-02T15:39:52Z</time></trkpt><trkpt lat="45.98638505707113" lon="12.905034152233767"><ele>50.4</ele><time>2026-04-02T15:39:53Z</time></trkpt><trkpt lat="45.9864759228729" lon="12.905012360814629"><ele>50.2</ele><time>2026-04-02T15:39:54Z</time></trkpt><trkpt lat="45.986567116309196" lon="12.90500517774283"><ele>50.0</ele><time>2026-04-02T15:39:55Z</time></trkpt><trkpt lat="45.986661365010654" lon="12.905010236139566"><ele>50.4</ele><time>2026-04-02T15:39:56Z</time></trkpt><trkpt lat="45.986745621354515" lon="12.905020064931469"><ele>50.8</ele><time>2026-04-02T15:39:57Z</time></trkpt><trkpt lat="45.986827657784495" lon="12.905048162791962"><ele>51.2</ele><time>2026-04-02T15:39:58Z</time></trkpt><trkpt lat="45.986923754852604" lon="12.905078579859783"><ele>51.6</ele><time>2026-04-02T15:39:59Z</time></trkpt><trkpt lat="45.987028024669875" lon="12.90505622524926"><ele>52.0</ele><time>2026-04-02T15:40:00Z</time></trkpt><trkpt lat="45.987132681164184" lon="12.905022432188835"><ele>52.0</ele><time>2026-04-02T15:40:01Z</time></trkpt><trkpt lat="45.98723084930721" lon="12.905004437274231"><ele>52.0</ele><time>2026-04-02T15:40:02Z</time></trkpt><trkpt lat="45.98733359694307" lon="12.904963427842553"><ele>52.0</ele><time>2026-04-02T15:40:03Z</time></trkpt><trkpt lat="45.98741789616809" lon="12.904935426169157"><ele>52.0</ele><time>2026-04-02T15:40:04Z</time></trkpt><trkpt lat="45.987517254149026" lon="12.904917709954718"><ele>52.0</ele><time>2026-04-02T15:40:05Z</time></trkpt><trkpt lat="45.98763423909382" lon="12.90490192300922"><ele>51.99999999999999</ele><time>2026-04-02T15:40:06Z</time></trkpt><trkpt lat="45.98773095103084" lon="12.9048771780054"><ele>52.0</ele><time>2026-04-02T15:40:07Z</time></trkpt><trkpt lat="45.98781068065739" lon="12.904875893241043"><ele>52.0</ele><time>2026-04-02T15:40:08Z</time></trkpt><trkpt lat="45.98790341972635" lon="12.904877981538109"><ele>52.0</ele><time>2026-04-02T15:40:09Z</time></trkpt><trkpt lat="45.98799689149195" lon="12.904864741517692"><ele>51.99999999999999</ele><time>2026-04-02T15:40:10Z</time></trkpt><trkpt lat="45.98807933024342" lon="12.904876507373766"><ele>52.0</ele><time>2026-04-02T15:40:11Z</time></trkpt><trkpt lat="45.98815688617336" lon="12.904868193958178"><ele>51.99999999999999</ele><time>2026-04-02T15:40:12Z</time></trkpt><trkpt lat="45.988251392360475" lon="12.904854263517205"><ele>52.0</ele><time>2026-04-02T15:40:13Z</time></trkpt><trkpt lat="45.988334217728536" lon="12.904842461512493"><ele>52.0</ele><time>2026-04-02T15:40:14Z</time></trkpt><trkpt lat="45.98839958572521" lon="12.904833282763805"><ele>52.0</ele><time>2026-04-02T15:40:15Z</time></trkpt><trkpt lat="45.98846819753512" lon="12.904833621932843"><ele>51.99999999999999</ele><time>2026-04-02T15:40:16Z</time></trkpt><trkpt lat="45.98854798753203" lon="12.90484029821544"><ele>52.0</ele><time>2026-04-02T15:40:17Z</time></trkpt><trkpt lat="45.988643031374544" lon="12.904851282418138"><ele>52.0</ele><time>2026-04-02T15:40:18Z</time></trkpt><trkpt lat="45.98873633044883" lon="12.90487842094096"><ele>52.0</ele><time>2026-04-02T15:40:19Z</time></trkpt><trkpt lat="45.98884040198338" lon="12.904920659925821"><ele>52.0</ele><time>2026-04-02T15:40:20Z</time></trkpt><trkpt lat="45.988953207525576" lon="12.904975883973892"><ele>52.0</ele><time>2026-04-02T15:40:21Z</time></trkpt><trkpt lat="45.98905053578231" lon="12.90502125504872"><ele>52.0</ele><time>2026-04-02T15:40:22Z</time></trkpt><trkpt lat="45.98912764890622" lon="12.905056079919772"><ele>52.33333333333333</ele><time>2026-04-02T15:40:23Z</time></trkpt><trkpt lat="45.98919084522572" lon="12.905086425173803"><ele>52.666666666666664</ele><time>2026-04-02T15:40:24Z</time></trkpt><trkpt lat="45.98927608658134" lon="12.905099106861831"><ele>53.0</ele><time>2026-04-02T15:40:25Z</time></trkpt><trkpt lat="45.989341852791625" lon="12.905124794549645"><ele>53.33333333333333</ele><time>2026-04-02T15:40:26Z</time></trkpt><trkpt lat="45.98941147945098" lon="12.905146524870155"><ele>53.666666666666664</ele><time>2026-04-02T15:40:27Z</time></trkpt><trkpt lat="45.98949277073956" lon="12.90516802235068"><ele>54.0</ele><time>2026-04-02T15:40:28Z</time></trkpt><trkpt lat="45.98957822856519" lon="12.905195267379543"><ele>54.0</ele><time>2026-04-02T15:40:29Z</time></trkpt><trkpt lat="45.989676754695616" lon="12.905236264640303"><ele>54.00000000000001</ele><time>2026-04-02T15:40:30Z</time></trkpt><trkpt lat="45.98979349869533" lon="12.905258867303447"><ele>54.00000000000001</ele><time>2026-04-02T15:40:31Z</time></trkpt><trkpt lat="45.989883446385385" lon="12.90527742614525"><ele>54.0</ele><time>2026-04-02T15:40:32Z</time></trkpt><trkpt lat="45.98996255092892" lon="12.905313691287041"><ele>54.0</ele><time>2026-04-02T15:40:33Z</time></trkpt><trkpt lat="45.99004195345926" lon="12.905362358377872"><ele>53.833333333333336</ele><time>2026-04-02T15:40:34Z</time></trkpt><trkpt lat="45.990123376712404" lon="12.905415387662252"><ele>53.66666666666667</ele><time>2026-04-02T15:40:35Z</time></trkpt><trkpt lat="45.990191269171625" lon="12.905483428140979"><ele>53.5</ele><time>2026-04-02T15:40:36Z</time></trkpt><trkpt lat="45.99025907743885" lon="12.905552497574575"><ele>53.333333333333336</ele><time>2026-04-02T15:40:37Z</time></trkpt><trkpt lat="45.99034073729922" lon="12.905597197492819"><ele>53.16666666666667</ele><time>2026-04-02T15:40:38Z</time></trkpt><trkpt lat="45.99044345079064" lon="12.905631785826285"><ele>53.0</ele><time>2026-04-02T15:40:39Z</time></trkpt><trkpt lat="45.990554564261714" lon="12.905654624538844"><ele>53.0</ele><time>2026-04-02T15:40:40Z</time></trkpt><trkpt lat="45.99065939567485" lon="12.905688935666761"><ele>53.0</ele><time>2026-04-02T15:40:41Z</time></trkpt><trkpt lat="45.99074466646592" lon="12.905720017489125"><ele>53.0</ele><time>2026-04-02T15:40:42Z</time></trkpt><trkpt lat="45.99083421559338" lon="12.90575844983484"><ele>53.0</ele><time>2026-04-02T15:40:43Z</time></trkpt><trkpt lat="45.99093283379744" lon="12.905812916482253"><ele>53.0</ele><time>2026-04-02T15:40:44Z</time></trkpt><trkpt lat="45.99103596365998" lon="12.905878739566978"><ele>53.16666666666667</ele><time>2026-04-02T15:40:45Z</time></trkpt><trkpt lat="45.99111139552633" lon="12.90593989029481"><ele>53.333333333333336</ele><time>2026-04-02T15:40:46Z</time></trkpt><trkpt lat="45.99119319905476" lon="12.90598672428118"><ele>53.5</ele><time>2026-04-02T15:40:47Z</time></trkpt><trkpt lat="45.99127475138583" lon="12.906042151191876"><ele>53.66666666666667</ele><time>2026-04-02T15:40:48Z</time></trkpt><trkpt lat="45.99135799209458" lon="12.906092424470222"><ele>53.833333333333336</ele><time>2026-04-02T15:40:49Z</time></trkpt><trkpt lat="45.9914402193203" lon="12.906140653751258"><ele>54.0</ele><time>2026-04-02T15:40:50Z</time></trkpt><trkpt lat="45.991518889140785" lon="12.906194937262319"><ele>54.0</ele><time>2026-04-02T15:40:51Z</time></trkpt><trkpt lat="45.99159789742321" lon="12.90627348959797"><ele>54.00000000000001</ele><time>2026-04-02T15:40:52Z</time></trkpt><trkpt lat="45.991691779611294" lon="12.906350332962292"><ele>54.00000000000001</ele><time>2026-04-02T15:40:53Z</time></trkpt><trkpt lat="45.991804138711935" lon="12.90641648874872"><ele>54.0</ele><time>2026-04-02T15:40:54Z</time></trkpt><trkpt lat="45.9919061497186" lon="12.906471329288328"><ele>54.0</ele><time>2026-04-02T15:40:55Z</time></trkpt><trkpt lat="45.99200823388826" lon="12.90652988312238"><ele>54.0</ele><time>2026-04-02T15:40:56Z</time></trkpt><trkpt lat="45.99210364058872" lon="12.906590106138436"><ele>54.00000000000001</ele><time>2026-04-02T15:40:57Z</time></trkpt><trkpt lat="45.99219183436022" lon="12.90664306485891"><ele>54.00000000000001</ele><time>2026-04-02T15:40:58Z</time></trkpt><trkpt lat="45.99228689359794" lon="12.906678977165074"><ele>54.0</ele><time>2026-04-02T15:40:59Z</time></trkpt><trkpt lat="45.99239155496242" lon="12.906710590070473"><ele>54.0</ele><time>2026-04-02T15:41:00Z</time></trkpt><trkpt lat="45.992510246256266" lon="12.906746013172823"><ele>53.75</ele><time>2026-04-02T15:41:01Z</time></trkpt><trkpt lat="45.99262216722256" lon="12.906792880167295"><ele>53.5</ele><time>2026-04-02T15:41:02Z</time></trkpt><trkpt lat="45.9927280358336" lon="12.906829756223853"><ele>53.25</ele><time>2026-04-02T15:41:03Z</time></trkpt><trkpt lat="45.99284516648974" lon="12.906852925681598"><ele>53.0</ele><time>2026-04-02T15:41:04Z</time></trkpt><trkpt lat="45.99297047563547" lon="12.90686430377987"><ele>53.0</ele><time>2026-04-02T15:41:05Z</time></trkpt><trkpt lat="45.9930842882196" lon="12.90687032101318"><ele>53.0</ele><time>2026-04-02T15:41:06Z</time></trkpt><trkpt lat="45.99318579351569" lon="12.906878479344615"><ele>53.0</ele><time>2026-04-02T15:41:07Z</time></trkpt><trkpt lat="45.99328575140711" lon="12.906889048163046"><ele>53.0</ele><time>2026-04-02T15:41:08Z</time></trkpt><trkpt lat="45.99338387643594" lon="12.906914826598374"><ele>53.0</ele><time>2026-04-02T15:41:09Z</time></trkpt><trkpt lat="45.99347754310656" lon="12.906938805906556"><ele>53.2</ele><time>2026-04-02T15:41:10Z</time></trkpt><trkpt lat="45.99356927127108" lon="12.906964315757556"><ele>53.4</ele><time>2026-04-02T15:41:11Z</time></trkpt><trkpt lat="45.99366093047095" lon="12.906989036093762"><ele>53.60000000000001</ele><time>2026-04-02T15:41:12Z</time></trkpt><trkpt lat="45.993750210486056" lon="12.907005283156757"><ele>53.800000000000004</ele><time>2026-04-02T15:41:13Z</time></trkpt><trkpt lat="45.99385106039286" lon="12.907015041392299"><ele>54.0</ele><time>2026-04-02T15:41:14Z</time></trkpt><trkpt lat="45.993967886572236" lon="12.907012568562793"><ele>54.0</ele><time>2026-04-02T15:41:15Z</time></trkpt><trkpt lat="45.994095550806044" lon="12.907008756960051"><ele>54.00000000000001</ele><time>2026-04-02T15:41:16Z</time></trkpt><trkpt lat="45.994215719194926" lon="12.907006659228035"><ele>54.00000000000001</ele><time>2026-04-02T15:41:17Z</time></trkpt><trkpt lat="45.99431739566939" lon="12.90699607441162"><ele>54.0</ele><time>2026-04-02T15:41:18Z</time></trkpt><trkpt lat="45.99440216621923" lon="12.90700996885145"><ele>54.0</ele><time>2026-04-02T15:41:19Z</time></trkpt><trkpt lat="45.994514775142186" lon="12.907023624700823"><ele>54.25</ele><time>2026-04-02T15:41:20Z</time></trkpt><trkpt lat="45.994633129226735" lon="12.907055050233053"><ele>54.5</ele><time>2026-04-02T15:41:21Z</time></trkpt><trkpt lat="45.994749015398575" lon="12.907099019779915"><ele>54.75</ele><time>2026-04-02T15:41:22Z</time></trkpt><trkpt lat="45.994861462671295" lon="12.907142285311815"><ele>55.0</ele><time>2026-04-02T15:41:23Z</time></trkpt><trkpt lat="45.99496404124517" lon="12.907169792502502"><ele>55.0</ele><time>2026-04-02T15:41:24Z</time></trkpt><trkpt lat="45.995052982754004" lon="12.907209711691616"><ele>55.0</ele><time>2026-04-02T15:41:25Z</time></trkpt><trkpt lat="45.99514065008327" lon="12.907241244271958"><ele>55.0</ele><time>2026-04-02T15:41:26Z</time></trkpt><trkpt lat="45.99523137446034" lon="12.907255215558733"><ele>55.0</ele><time>2026-04-02T15:41:27Z</time></trkpt><trkpt lat="45.995330783394046" lon="12.9072937568933"><ele>55.0</ele><time>2026-04-02T15:41:28Z</time></trkpt><trkpt lat="45.99543877289117" lon="12.907367049701254"><ele>55.0</ele><time>2026-04-02T15:41:29Z</time></trkpt><trkpt lat="45.995576296967066" lon="12.907413466396141"><ele>55.0</ele><time>2026-04-02T15:41:30Z</time></trkpt><trkpt lat="45.99568243105496" lon="12.907443353615953"><ele>55.0</ele><time>2026-04-02T15:41:31Z</time></trkpt><trkpt lat="45.995765827915655" lon="12.907485011354854"><ele>55.0</ele><time>2026-04-02T15:41:32Z</time></trkpt><trkpt lat="45.995859225671516" lon="12.90751561715789"><ele>55.0</ele><time>2026-04-02T15:41:33Z</time></trkpt><trkpt lat="45.99595750187584" lon="12.907546940853381"><ele>54.6</ele><time>2026-04-02T15:41:34Z</time></trkpt><trkpt lat="45.99605229039758" lon="12.907578731566543"><ele>54.2</ele><time>2026-04-02T15:41:35Z</time></trkpt><trkpt lat="45.996145163534564" lon="12.907614918041489"><ele>53.8</ele><time>2026-04-02T15:41:36Z</time></trkpt><trkpt lat="45.996239090517385" lon="12.907653869543594"><ele>53.4</ele><time>2026-04-02T15:41:37Z</time></trkpt><trkpt lat="45.99633373078284" lon="12.907676824253736"><ele>53.0</ele><time>2026-04-02T15:41:38Z</time></trkpt><trkpt lat="45.99641541115618" lon="12.90770098650048"><ele>53.00000000000001</ele><time>2026-04-02T15:41:39Z</time></trkpt><trkpt lat="45.99650585958293" lon="12.907689037493059"><ele>53.0</ele><time>2026-04-02T15:41:40Z</time></trkpt><trkpt lat="45.996584000502565" lon="12.907690551990088"><ele>53.0</ele><time>2026-04-02T15:41:41Z</time></trkpt><trkpt lat="45.99665262535695" lon="12.907691441640287"><ele>53.0</ele><time>2026-04-02T15:41:42Z</time></trkpt><trkpt lat="45.996715924413756" lon="12.907719446953838"><ele>53.00000000000001</ele><time>2026-04-02T15:41:43Z</time></trkpt><trkpt lat="45.996789898928846" lon="12.907751133339227"><ele>53.0</ele><time>2026-04-02T15:41:44Z</time></trkpt><trkpt lat="45.996877317585266" lon="12.907774511304414"><ele>53.16666666666667</ele><time>2026-04-02T15:41:45Z</time></trkpt><trkpt lat="45.996961356033985" lon="12.907796573888604"><ele>53.333333333333336</ele><time>2026-04-02T15:41:46Z</time></trkpt><trkpt lat="45.997041767426026" lon="12.907810089895525"><ele>53.5</ele><time>2026-04-02T15:41:47Z</time></trkpt><trkpt lat="45.99710863140506" lon="12.907826891261122"><ele>53.66666666666667</ele><time>2026-04-02T15:41:48Z</time></trkpt><trkpt lat="45.99717773252408" lon="12.907843823486758"><ele>53.833333333333336</ele><time>2026-04-02T15:41:49Z</time></trkpt><trkpt lat="45.99724653362234" lon="12.907864221343823"><ele>54.0</ele><time>2026-04-02T15:41:50Z</time></trkpt><trkpt lat="45.997321806745376" lon="12.907866616286395"><ele>54.0</ele><time>2026-04-02T15:41:51Z</time></trkpt><trkpt lat="45.9973943168501" lon="12.907842753836377"><ele>54.00000000000001</ele><time>2026-04-02T15:41:52Z</time></trkpt><trkpt lat="45.99749764385926" lon="12.907828756323644"><ele>54.00000000000001</ele><time>2026-04-02T15:41:54Z</time></trkpt><trkpt lat="45.99763906823789" lon="12.907840217265294"><ele>54.0</ele><time>2026-04-02T15:41:56Z</time></trkpt><trkpt lat="45.997720630836355" lon="12.90783507464268"><ele>54.0</ele><time>2026-04-02T15:41:57Z</time></trkpt><trkpt lat="45.997802794403945" lon="12.907808434383462"><ele>54.0</ele><time>2026-04-02T15:41:58Z</time></trkpt><trkpt lat="45.9978755775235" lon="12.907764639077252"><ele>54.00000000000001</ele><time>2026-04-02T15:41:59Z</time></trkpt><trkpt lat="45.99796354301031" lon="12.907701732730912"><ele>54.00000000000001</ele><time>2026-04-02T15:42:00Z</time></trkpt><trkpt lat="45.99806510787848" lon="12.907598937299714"><ele>54.0</ele><time>2026-04-02T15:42:01Z</time></trkpt><trkpt lat="45.99818173561133" lon="12.907501754700434"><ele>54.0</ele><time>2026-04-02T15:42:02Z</time></trkpt><trkpt lat="45.998308548332794" lon="12.907410147579519"><ele>54.2</ele><time>2026-04-02T15:42:03Z</time></trkpt><trkpt lat="45.99839259351017" lon="12.907371457685535"><ele>54.400000000000006</ele><time>2026-04-02T15:42:04Z</time></trkpt><trkpt lat="45.99847938397741" lon="12.9073288217988"><ele>54.6</ele><time>2026-04-02T15:42:05Z</time></trkpt><trkpt lat="45.9985648326734" lon="12.907291800510409"><ele>54.8</ele><time>2026-04-02T15:42:06Z</time></trkpt><trkpt lat="45.99868239528504" lon="12.907235199404656"><ele>55.0</ele><time>2026-04-02T15:42:07Z</time></trkpt><trkpt lat="45.9988025366684" lon="12.907203089774429"><ele>55.0</ele><time>2026-04-02T15:42:08Z</time></trkpt><trkpt lat="45.99893206980196" lon="12.90717286134005"><ele>55.0</ele><time>2026-04-02T15:42:09Z</time></trkpt><trkpt lat="45.99904533102766" lon="12.907148814396958"><ele>55.0</ele><time>2026-04-02T15:42:10Z</time></trkpt><trkpt lat="45.999147110150496" lon="12.907123437208035"><ele>55.0</ele><time>2026-04-02T15:42:11Z</time></trkpt><trkpt lat="45.99924137306268" lon="12.907091917740788"><ele>55.0</ele><time>2026-04-02T15:42:12Z</time></trkpt><trkpt lat="45.99934178175817" lon="12.907048741195618"><ele>55.25</ele><time>2026-04-02T15:42:13Z</time></trkpt><trkpt lat="45.99946082258591" lon="12.907001746094211"><ele>55.5</ele><time>2026-04-02T15:42:14Z</time></trkpt><trkpt lat="45.99958216523914" lon="12.906956883357994"><ele>55.75</ele><time>2026-04-02T15:42:15Z</time></trkpt><trkpt lat="45.99969608267252" lon="12.906922606323292"><ele>56.0</ele><time>2026-04-02T15:42:16Z</time></trkpt><trkpt lat="45.99980322836731" lon="12.90688582707092"><ele>56.0</ele><time>2026-04-02T15:42:17Z</time></trkpt><trkpt lat="45.99990945023202" lon="12.906846940053514"><ele>55.99999999999999</ele><time>2026-04-02T15:42:18Z</time></trkpt><trkpt lat="46.00001545546564" lon="12.906807038870973"><ele>55.99999999999999</ele><time>2026-04-02T15:42:19Z</time></trkpt><trkpt lat="46.00012316664647" lon="12.90677109340286"><ele>56.0</ele><time>2026-04-02T15:42:20Z</time></trkpt><trkpt lat="46.000231882989894" lon="12.906744188200491"><ele>56.0</ele><time>2026-04-02T15:42:21Z</time></trkpt><trkpt lat="46.00032870853724" lon="12.90672250793631"><ele>56.199999999999996</ele><time>2026-04-02T15:42:22Z</time></trkpt><trkpt lat="46.000422325731655" lon="12.90669019050055"><ele>56.39999999999999</ele><time>2026-04-02T15:42:23Z</time></trkpt><trkpt lat="46.00051135299472" lon="12.906648372428421"><ele>56.6</ele><time>2026-04-02T15:42:24Z</time></trkpt><trkpt lat="46.000598194488084" lon="12.906601482466312"><ele>56.8</ele><time>2026-04-02T15:42:25Z</time></trkpt><trkpt lat="46.00069071577726" lon="12.906555688729965"><ele>57.0</ele><time>2026-04-02T15:42:26Z</time></trkpt><trkpt lat="46.000794492770595" lon="12.906538273335016"><ele>56.8</ele><time>2026-04-02T15:42:27Z</time></trkpt><trkpt lat="46.00091578278663" lon="12.906534866267899"><ele>56.6</ele><time>2026-04-02T15:42:28Z</time></trkpt><trkpt lat="46.001034072512425" lon="12.906532609739136"><ele>56.39999999999999</ele><time>2026-04-02T15:42:29Z</time></trkpt><trkpt lat="46.001137557894666" lon="12.906528033843049"><ele>56.199999999999996</ele><time>2026-04-02T15:42:30Z</time></trkpt><trkpt lat="46.00122817906341" lon="12.906534963569397"><ele>56.0</ele><time>2026-04-02T15:42:31Z</time></trkpt><trkpt lat="46.001316544172965" lon="12.906559886112136"><ele>56.0</ele><time>2026-04-02T15:42:32Z</time></trkpt><trkpt lat="46.001392840472484" lon="12.9065936988721"><ele>55.99999999999999</ele><time>2026-04-02T15:42:33Z</time></trkpt><trkpt lat="46.0014807014072" lon="12.906628056981997"><ele>55.99999999999999</ele><time>2026-04-02T15:42:34Z</time></trkpt><trkpt lat="46.001569648997446" lon="12.906677729695271"><ele>56.0</ele><time>2026-04-02T15:42:35Z</time></trkpt><trkpt lat="46.00163803110666" lon="12.90671924162465"><ele>56.0</ele><time>2026-04-02T15:42:36Z</time></trkpt><trkpt lat="46.001747332320846" lon="12.906742850872002"><ele>56.199999999999996</ele><time>2026-04-02T15:42:37Z</time></trkpt><trkpt lat="46.00184747167289" lon="12.906758088794929"><ele>56.39999999999999</ele><time>2026-04-02T15:42:38Z</time></trkpt><trkpt lat="46.00191237746459" lon="12.906793816437334"><ele>56.6</ele><time>2026-04-02T15:42:39Z</time></trkpt><trkpt lat="46.00198746303327" lon="12.906822362943577"><ele>56.8</ele><time>2026-04-02T15:42:40Z</time></trkpt><trkpt lat="46.00209780727602" lon="12.906837239361982"><ele>57.0</ele><time>2026-04-02T15:42:41Z</time></trkpt><trkpt lat="46.00219380064537" lon="12.906867227128679"><ele>57.0</ele><time>2026-04-02T15:42:42Z</time></trkpt><trkpt lat="46.00226660652391" lon="12.906876175682545"><ele>57.0</ele><time>2026-04-02T15:42:43Z</time></trkpt><trkpt lat="46.00235425020838" lon="12.906884982638942"><ele>57.0</ele><time>2026-04-02T15:42:44Z</time></trkpt><trkpt lat="46.00242225019608" lon="12.906915382004897"><ele>57.0</ele><time>2026-04-02T15:42:45Z</time></trkpt><trkpt lat="46.00249390365078" lon="12.90694253759706"><ele>57.0</ele><time>2026-04-02T15:42:46Z</time></trkpt><trkpt lat="46.00260069577427" lon="12.906982056504809"><ele>57.0</ele><time>2026-04-02T15:42:47Z</time></trkpt><trkpt lat="46.00270643287252" lon="12.907021772063104"><ele>57.6</ele><time>2026-04-02T15:42:48Z</time></trkpt><trkpt lat="46.00281688428241" lon="12.907091467407703"><ele>58.2</ele><time>2026-04-02T15:42:49Z</time></trkpt><trkpt lat="46.00293156423135" lon="12.907167849548316"><ele>58.8</ele><time>2026-04-02T15:42:50Z</time></trkpt><trkpt lat="46.003015515131665" lon="12.90722292609869"><ele>59.4</ele><time>2026-04-02T15:42:51Z</time></trkpt><trkpt lat="46.00308165867407" lon="12.907287905253641"><ele>60.0</ele><time>2026-04-02T15:42:52Z</time></trkpt><trkpt lat="46.003146296569085" lon="12.907342817521737"><ele>60.0</ele><time>2026-04-02T15:42:53Z</time></trkpt><trkpt lat="46.00323526951995" lon="12.907386647451938"><ele>60.0</ele><time>2026-04-02T15:42:54Z</time></trkpt><trkpt lat="46.003324766365715" lon="12.907437697967737"><ele>60.0</ele><time>2026-04-02T15:42:55Z</time></trkpt><trkpt lat="46.003388293951105" lon="12.907493937022897"><ele>60.0</ele><time>2026-04-02T15:42:56Z</time></trkpt><trkpt lat="46.003464995702025" lon="12.90756208181338"><ele>60.0</ele><time>2026-04-02T15:42:57Z</time></trkpt><trkpt lat="46.00352817820846" lon="12.90761597550219"><ele>60.0</ele><time>2026-04-02T15:42:58Z</time></trkpt><trkpt lat="46.00359094332981" lon="12.907646636508264"><ele>60.0</ele><time>2026-04-02T15:42:59Z</time></trkpt><trkpt lat="46.003716304348345" lon="12.907711091804286"><ele>60.0</ele><time>2026-04-02T15:43:01Z</time></trkpt><trkpt lat="46.00379026548928" lon="12.907751385908814"><ele>60.0</ele><time>2026-04-02T15:43:02Z</time></trkpt><trkpt lat="46.00385995624912" lon="12.907817365366137"><ele>60.0</ele><time>2026-04-02T15:43:03Z</time></trkpt><trkpt lat="46.00392850722207" lon="12.907878959594216"><ele>60.0</ele><time>2026-04-02T15:43:04Z</time></trkpt><trkpt lat="46.004009257609276" lon="12.907961210915762"><ele>60.0</ele><time>2026-04-02T15:43:05Z</time></trkpt><trkpt lat="46.004106821378585" lon="12.908027518262573"><ele>60.0</ele><time>2026-04-02T15:43:06Z</time></trkpt><trkpt lat="46.00416977874684" lon="12.908084716670746"><ele>60.0</ele><time>2026-04-02T15:43:07Z</time></trkpt><trkpt lat="46.004268129831175" lon="12.908146550660124"><ele>60.0</ele><time>2026-04-02T15:43:09Z</time></trkpt><trkpt lat="46.004354908723066" lon="12.908222075116152"><ele>60.0</ele><time>2026-04-02T15:43:11Z</time></trkpt><trkpt lat="46.00442916530291" lon="12.90828873065217"><ele>59.6</ele><time>2026-04-02T15:43:13Z</time></trkpt><trkpt lat="46.00451446068204" lon="12.90843236225339"><ele>59.2</ele><time>2026-04-02T15:43:15Z</time></trkpt><trkpt lat="46.00457121377669" lon="12.90848273037995"><ele>58.8</ele><time>2026-04-02T15:43:16Z</time></trkpt><trkpt lat="46.00461810838635" lon="12.908581795793596"><ele>58.4</ele><time>2026-04-02T15:43:18Z</time></trkpt><trkpt lat="46.00470235439559" lon="12.90863531402213"><ele>58.0</ele><time>2026-04-02T15:43:20Z</time></trkpt><trkpt lat="46.004778539635055" lon="12.908623538930462"><ele>58.0</ele><time>2026-04-02T15:43:53Z</time></trkpt><trkpt lat="46.00484561293415" lon="12.908634552088804"><ele>58.0</ele><time>2026-04-02T15:46:14Z</time></trkpt><trkpt lat="46.00493959162343" lon="12.908681209394254"><ele>58.0</ele><time>2026-04-02T15:46:16Z</time></trkpt><trkpt lat="46.00500035448518" lon="12.908707469662263"><ele>58.0</ele><time>2026-04-02T15:46:17Z</time></trkpt><trkpt lat="46.005123954486706" lon="12.908782173732568"><ele>58.0</ele><time>2026-04-02T15:46:19Z</time></trkpt><trkpt lat="46.00519911089725" lon="12.908844669573508"><ele>58.166666666666664</ele><time>2026-04-02T15:46:20Z</time></trkpt><trkpt lat="46.00525579807681" lon="12.90890569409255"><ele>58.33333333333333</ele><time>2026-04-02T15:46:21Z</time></trkpt><trkpt lat="46.005300233675634" lon="12.90897394833026"><ele>58.5</ele><time>2026-04-02T15:46:22Z</time></trkpt><trkpt lat="46.00537325839314" lon="12.909112382295152"><ele>58.66666666666667</ele><time>2026-04-02T15:46:24Z</time></trkpt><trkpt lat="46.00543841617767" lon="12.909196325025784"><ele>58.833333333333336</ele><time>2026-04-02T15:46:25Z</time></trkpt><trkpt lat="46.00548560463376" lon="12.909299585827712"><ele>59.0</ele><time>2026-04-02T15:46:26Z</time></trkpt><trkpt lat="46.00558023982567" lon="12.909433668995401"><ele>59.00000000000001</ele><time>2026-04-02T15:46:28Z</time></trkpt><trkpt lat="46.005633630390186" lon="12.9095004887478"><ele>59.0</ele><time>2026-04-02T15:46:29Z</time></trkpt><trkpt lat="46.005697110958984" lon="12.909564435432419"><ele>59.0</ele><time>2026-04-02T15:46:30Z</time></trkpt><trkpt lat="46.0057588108686" lon="12.909626854980573"><ele>59.0</ele><time>2026-04-02T15:46:31Z</time></trkpt><trkpt lat="46.00583338310667" lon="12.909695104324772"><ele>59.00000000000001</ele><time>2026-04-02T15:46:32Z</time></trkpt><trkpt lat="46.005943993100516" lon="12.90977480120898"><ele>59.0</ele><time>2026-04-02T15:46:33Z</time></trkpt><trkpt lat="46.00600911098784" lon="12.909852442535534"><ele>59.0</ele><time>2026-04-02T15:46:34Z</time></trkpt><trkpt lat="46.00608998825041" lon="12.909940124781842"><ele>59.00000000000001</ele><time>2026-04-02T15:46:35Z</time></trkpt><trkpt lat="46.00615265217075" lon="12.910005749835339"><ele>59.00000000000001</ele><time>2026-04-02T15:46:36Z</time></trkpt><trkpt lat="46.006256949662976" lon="12.910059125825553"><ele>59.0</ele><time>2026-04-02T15:46:38Z</time></trkpt><trkpt lat="46.00634607062048" lon="12.910153023664494"><ele>59.0</ele><time>2026-04-02T15:46:39Z</time></trkpt><trkpt lat="46.00643003650595" lon="12.910296012269557"><ele>59.0</ele><time>2026-04-02T15:46:40Z</time></trkpt><trkpt lat="46.00648374660275" lon="12.910409054505394"><ele>59.00000000000001</ele><time>2026-04-02T15:46:41Z</time></trkpt><trkpt lat="46.00655414232988" lon="12.910530432957401"><ele>59.00000000000001</ele><time>2026-04-02T15:46:42Z</time></trkpt><trkpt lat="46.00663314188488" lon="12.910647507716408"><ele>59.0</ele><time>2026-04-02T15:46:43Z</time></trkpt><trkpt lat="46.006712027386016" lon="12.91076014803376"><ele>59.0</ele><time>2026-04-02T15:46:44Z</time></trkpt><trkpt lat="46.006785252271435" lon="12.910865510339843"><ele>58.800000000000004</ele><time>2026-04-02T15:46:45Z</time></trkpt><trkpt lat="46.00685522801611" lon="12.910954976902287"><ele>58.60000000000001</ele><time>2026-04-02T15:46:46Z</time></trkpt><trkpt lat="46.00693222616648" lon="12.911051454290837"><ele>58.4</ele><time>2026-04-02T15:46:47Z</time></trkpt><trkpt lat="46.00700754943089" lon="12.911143761000355"><ele>58.2</ele><time>2026-04-02T15:46:48Z</time></trkpt><trkpt lat="46.007076682954064" lon="12.911214599178372"><ele>58.0</ele><time>2026-04-02T15:46:49Z</time></trkpt><trkpt lat="46.007146869382105" lon="12.911253740027487"><ele>58.0</ele><time>2026-04-02T15:46:50Z</time></trkpt><trkpt lat="46.00722964454279" lon="12.911284203081902"><ele>58.0</ele><time>2026-04-02T15:46:51Z</time></trkpt><trkpt lat="46.00731933765144" lon="12.911317644909232"><ele>58.0</ele><time>2026-04-02T15:46:52Z</time></trkpt><trkpt lat="46.007402246427006" lon="12.91137303103204"><ele>58.0</ele><time>2026-04-02T15:46:53Z</time></trkpt><trkpt lat="46.00749921887955" lon="12.911437400365655"><ele>58.0</ele><time>2026-04-02T15:46:54Z</time></trkpt><trkpt lat="46.00756867979968" lon="12.911511930173102"><ele>58.2</ele><time>2026-04-02T15:46:55Z</time></trkpt><trkpt lat="46.007629197303665" lon="12.911570206528117"><ele>58.4</ele><time>2026-04-02T15:46:56Z</time></trkpt><trkpt lat="46.00772093328193" lon="12.911617489286701"><ele>58.60000000000001</ele><time>2026-04-02T15:46:57Z</time></trkpt><trkpt lat="46.00782762978231" lon="12.911676678863138"><ele>58.800000000000004</ele><time>2026-04-02T15:46:58Z</time></trkpt><trkpt lat="46.00792686188051" lon="12.911732253440984"><ele>59.0</ele><time>2026-04-02T15:46:59Z</time></trkpt><trkpt lat="46.0080157177659" lon="12.911796080494058"><ele>59.00000000000001</ele><time>2026-04-02T15:47:00Z</time></trkpt><trkpt lat="46.00808442843962" lon="12.911868246423552"><ele>59.0</ele><time>2026-04-02T15:47:01Z</time></trkpt><trkpt lat="46.00815132309555" lon="12.911942826302218"><ele>59.0</ele><time>2026-04-02T15:47:02Z</time></trkpt><trkpt lat="46.00822162223637" lon="12.912018233879897"><ele>59.0</ele><time>2026-04-02T15:47:03Z</time></trkpt><trkpt lat="46.00829279497933" lon="12.91209034460519"><ele>59.00000000000001</ele><time>2026-04-02T15:47:04Z</time></trkpt><trkpt lat="46.00836747677409" lon="12.912166743760054"><ele>59.0</ele><time>2026-04-02T15:47:05Z</time></trkpt><trkpt lat="46.00846243931132" lon="12.912243031510508"><ele>59.25</ele><time>2026-04-02T15:47:06Z</time></trkpt><trkpt lat="46.00857623608001" lon="12.912319014195251"><ele>59.5</ele><time>2026-04-02T15:47:07Z</time></trkpt><trkpt lat="46.00869447357822" lon="12.912400734946473"><ele>59.75</ele><time>2026-04-02T15:47:08Z</time></trkpt><trkpt lat="46.008788359527514" lon="12.912468972726318"><ele>60.0</ele><time>2026-04-02T15:47:09Z</time></trkpt><trkpt lat="46.00887238543685" lon="12.912535707847441"><ele>59.8</ele><time>2026-04-02T15:47:10Z</time></trkpt><trkpt lat="46.008958801294206" lon="12.912604083146215"><ele>59.6</ele><time>2026-04-02T15:47:11Z</time></trkpt><trkpt lat="46.00905082371961" lon="12.912673174596101"><ele>59.400000000000006</ele><time>2026-04-02T15:47:12Z</time></trkpt><trkpt lat="46.00915124700068" lon="12.912746187731234"><ele>59.2</ele><time>2026-04-02T15:47:13Z</time></trkpt><trkpt lat="46.009255432724025" lon="12.912815808481419"><ele>59.0</ele><time>2026-04-02T15:47:14Z</time></trkpt><trkpt lat="46.00935916215511" lon="12.91287980676155"><ele>59.0</ele><time>2026-04-02T15:47:15Z</time></trkpt><trkpt lat="46.00946097361091" lon="12.912935312122828"><ele>59.00000000000001</ele><time>2026-04-02T15:47:16Z</time></trkpt><trkpt lat="46.00956275194024" lon="12.9129925617114"><ele>59.00000000000001</ele><time>2026-04-02T15:47:17Z</time></trkpt><trkpt lat="46.0096550623735" lon="12.913051960821168"><ele>59.0</ele><time>2026-04-02T15:47:18Z</time></trkpt><trkpt lat="46.00973806767226" lon="12.913127721386253"><ele>59.0</ele><time>2026-04-02T15:47:19Z</time></trkpt><trkpt lat="46.0098232451072" lon="12.913209902522105"><ele>59.0</ele><time>2026-04-02T15:47:20Z</time></trkpt><trkpt lat="46.00991205995463" lon="12.913303028834813"><ele>59.00000000000001</ele><time>2026-04-02T15:47:21Z</time></trkpt><trkpt lat="46.00999389513447" lon="12.913390544749971"><ele>59.00000000000001</ele><time>2026-04-02T15:47:22Z</time></trkpt><trkpt lat="46.01006290054174" lon="12.913464699055142"><ele>59.0</ele><time>2026-04-02T15:47:23Z</time></trkpt><trkpt lat="46.01012325519642" lon="12.913532838102975"><ele>59.0</ele><time>2026-04-02T15:47:24Z</time></trkpt><trkpt lat="46.01018534208602" lon="12.913607492988099"><ele>59.0</ele><time>2026-04-02T15:47:25Z</time></trkpt><trkpt lat="46.01026053247149" lon="12.913691937895141"><ele>59.0</ele><time>2026-04-02T15:47:26Z</time></trkpt><trkpt lat="46.010356514384426" lon="12.913765774597168"><ele>59.0</ele><time>2026-04-02T15:47:27Z</time></trkpt><trkpt lat="46.01047596900579" lon="12.913819106689806"><ele>59.0</ele><time>2026-04-02T15:47:28Z</time></trkpt><trkpt lat="46.010596464704726" lon="12.913848365064348"><ele>59.0</ele><time>2026-04-02T15:47:29Z</time></trkpt><trkpt lat="46.01071446237999" lon="12.913891443309122"><ele>59.00000000000001</ele><time>2026-04-02T15:47:30Z</time></trkpt><trkpt lat="46.010812120353684" lon="12.913937101985931"><ele>59.00000000000001</ele><time>2026-04-02T15:47:31Z</time></trkpt><trkpt lat="46.010909998290046" lon="12.913978671970787"><ele>59.0</ele><time>2026-04-02T15:47:32Z</time></trkpt><trkpt lat="46.01101960289652" lon="12.914031983620688"><ele>59.0</ele><time>2026-04-02T15:47:33Z</time></trkpt><trkpt lat="46.01112077695429" lon="12.91408675696572"><ele>59.0</ele><time>2026-04-02T15:47:34Z</time></trkpt><trkpt lat="46.01122110507868" lon="12.91414558062043"><ele>59.00000000000001</ele><time>2026-04-02T15:47:35Z</time></trkpt><trkpt lat="46.01132720295983" lon="12.914193661810739"><ele>59.00000000000001</ele><time>2026-04-02T15:47:36Z</time></trkpt><trkpt lat="46.011417645464135" lon="12.914230397197164"><ele>59.0</ele><time>2026-04-02T15:47:37Z</time></trkpt><trkpt lat="46.01149847933994" lon="12.914265222487753"><ele>59.0</ele><time>2026-04-02T15:47:38Z</time></trkpt><trkpt lat="46.01158295908305" lon="12.914284871665256"><ele>59.0</ele><time>2026-04-02T15:47:39Z</time></trkpt><trkpt lat="46.01165267615914" lon="12.914300319895037"><ele>59.00000000000001</ele><time>2026-04-02T15:47:40Z</time></trkpt><trkpt lat="46.01172291931745" lon="12.91430935514616"><ele>59.00000000000001</ele><time>2026-04-02T15:47:41Z</time></trkpt><trkpt lat="46.01181157836788" lon="12.914313603848527"><ele>59.0</ele><time>2026-04-02T15:47:42Z</time></trkpt><trkpt lat="46.011923334229984" lon="12.91430993467619"><ele>59.0</ele><time>2026-04-02T15:47:43Z</time></trkpt><trkpt lat="46.01205951090507" lon="12.914299544898212"><ele>59.2</ele><time>2026-04-02T15:47:44Z</time></trkpt><trkpt lat="46.01220723995588" lon="12.914311614024099"><ele>59.400000000000006</ele><time>2026-04-02T15:47:45Z</time></trkpt><trkpt lat="46.012318788931275" lon="12.914316734274477"><ele>59.6</ele><time>2026-04-02T15:47:46Z</time></trkpt><trkpt lat="46.01240078013143" lon="12.914298022311936"><ele>59.8</ele><time>2026-04-02T15:47:47Z</time></trkpt><trkpt lat="46.012488678164196" lon="12.914283826084375"><ele>60.0</ele><time>2026-04-02T15:47:48Z</time></trkpt><trkpt lat="46.012585755283816" lon="12.914306864533295"><ele>60.5</ele><time>2026-04-02T15:47:49Z</time></trkpt><trkpt lat="46.01270108276367" lon="12.914368341532345"><ele>61.0</ele><time>2026-04-02T15:47:50Z</time></trkpt><trkpt lat="46.01281491022768" lon="12.914425368773772"><ele>61.5</ele><time>2026-04-02T15:47:51Z</time></trkpt><trkpt lat="46.01294609297516" lon="12.914476897257734"><ele>62.0</ele><time>2026-04-02T15:47:52Z</time></trkpt><trkpt lat="46.013080210545354" lon="12.914510438892107"><ele>62.0</ele><time>2026-04-02T15:47:53Z</time></trkpt><trkpt lat="46.013184772988836" lon="12.91454082965134"><ele>62.0</ele><time>2026-04-02T15:47:54Z</time></trkpt><trkpt lat="46.01327651328156" lon="12.914555353284898"><ele>62.0</ele><time>2026-04-02T15:47:55Z</time></trkpt><trkpt lat="46.01336684224248" lon="12.914558090175712"><ele>62.0</ele><time>2026-04-02T15:47:56Z</time></trkpt><trkpt lat="46.01346334846843" lon="12.914551024551015"><ele>62.0</ele><time>2026-04-02T15:47:57Z</time></trkpt><trkpt lat="46.01356293046821" lon="12.914540659175916"><ele>61.6</ele><time>2026-04-02T15:47:58Z</time></trkpt><trkpt lat="46.013672850787664" lon="12.914528251757021"><ele>61.2</ele><time>2026-04-02T15:47:59Z</time></trkpt><trkpt lat="46.01378156168303" lon="12.914517068594144"><ele>60.8</ele><time>2026-04-02T15:48:00Z</time></trkpt><trkpt lat="46.013880709552026" lon="12.914513962008204"><ele>60.4</ele><time>2026-04-02T15:48:01Z</time></trkpt><trkpt lat="46.0139816965986" lon="12.91451702812645"><ele>60.0</ele><time>2026-04-02T15:48:02Z</time></trkpt><trkpt lat="46.01407876305217" lon="12.914519546034308"><ele>60.4</ele><time>2026-04-02T15:48:03Z</time></trkpt><trkpt lat="46.01418733828061" lon="12.914518423453226"><ele>60.8</ele><time>2026-04-02T15:48:04Z</time></trkpt><trkpt lat="46.01429991079101" lon="12.914516316824573"><ele>61.2</ele><time>2026-04-02T15:48:05Z</time></trkpt><trkpt lat="46.01440802910129" lon="12.914514978955566"><ele>61.6</ele><time>2026-04-02T15:48:06Z</time></trkpt><trkpt lat="46.01450734113119" lon="12.914507527256589"><ele>62.0</ele><time>2026-04-02T15:48:07Z</time></trkpt><trkpt lat="46.01459903022685" lon="12.914487390862613"><ele>62.0</ele><time>2026-04-02T15:48:08Z</time></trkpt><trkpt lat="46.01470375394728" lon="12.914479837353586"><ele>62.0</ele><time>2026-04-02T15:48:09Z</time></trkpt><trkpt lat="46.01481472341946" lon="12.914450256337547"><ele>62.0</ele><time>2026-04-02T15:48:10Z</time></trkpt><trkpt lat="46.014922590647664" lon="12.914404810570893"><ele>62.0</ele><time>2026-04-02T15:48:11Z</time></trkpt><trkpt lat="46.01502995644429" lon="12.914352247334632"><ele>62.0</ele><time>2026-04-02T15:48:12Z</time></trkpt><trkpt lat="46.01512040501099" lon="12.914309373535652"><ele>62.00000000000001</ele><time>2026-04-02T15:48:13Z</time></trkpt><trkpt lat="46.01519287214868" lon="12.914274095795514"><ele>62.0</ele><time>2026-04-02T15:48:14Z</time></trkpt><trkpt lat="46.01525659190583" lon="12.914239400107768"><ele>62.0</ele><time>2026-04-02T15:48:15Z</time></trkpt><trkpt lat="46.01532574603452" lon="12.914191659457538"><ele>62.0</ele><time>2026-04-02T15:48:16Z</time></trkpt><trkpt lat="46.01542650220569" lon="12.914105352915243"><ele>62.00000000000001</ele><time>2026-04-02T15:48:18Z</time></trkpt><trkpt lat="46.015509995629266" lon="12.914058345102445"><ele>62.0</ele><time>2026-04-02T15:48:19Z</time></trkpt><trkpt lat="46.015590826623345" lon="12.914037050686"><ele>62.0</ele><time>2026-04-02T15:48:20Z</time></trkpt><trkpt lat="46.015691667248234" lon="12.914017135469269"><ele>62.0</ele><time>2026-04-02T15:48:21Z</time></trkpt><trkpt lat="46.01577620675747" lon="12.9140099602009"><ele>62.0</ele><time>2026-04-02T15:48:22Z</time></trkpt><trkpt lat="46.01590475612631" lon="12.913979411173674"><ele>62.0</ele><time>2026-04-02T15:48:23Z</time></trkpt><trkpt lat="46.016012502755935" lon="12.913968055857417"><ele>62.0</ele><time>2026-04-02T15:48:24Z</time></trkpt><trkpt lat="46.016141178046766" lon="12.914035616340877"><ele>62.0</ele><time>2026-04-02T15:48:26Z</time></trkpt><trkpt lat="46.01622967359067" lon="12.913975016033014"><ele>62.0</ele><time>2026-04-02T15:48:27Z</time></trkpt><trkpt lat="46.01631002040305" lon="12.913905237593118"><ele>62.0</ele><time>2026-04-02T15:48:28Z</time></trkpt><trkpt lat="46.01640282081199" lon="12.913843002614806"><ele>62.0</ele><time>2026-04-02T15:48:29Z</time></trkpt><trkpt lat="46.01650359762302" lon="12.9138441291537"><ele>62.0</ele><time>2026-04-02T15:48:30Z</time></trkpt><trkpt lat="46.016657696969496" lon="12.913858355748111"><ele>62.0</ele><time>2026-04-02T15:48:31Z</time></trkpt><trkpt lat="46.01676392349364" lon="12.913832365380078"><ele>62.0</ele><time>2026-04-02T15:48:32Z</time></trkpt><trkpt lat="46.01685503965107" lon="12.913785892514007"><ele>62.0</ele><time>2026-04-02T15:48:33Z</time></trkpt><trkpt lat="46.016954193180645" lon="12.913730230373071"><ele>62.0</ele><time>2026-04-02T15:48:34Z</time></trkpt><trkpt lat="46.017052900594464" lon="12.913665868614759"><ele>62.0</ele><time>2026-04-02T15:48:35Z</time></trkpt><trkpt lat="46.01714002557437" lon="12.913613353531481"><ele>62.00000000000001</ele><time>2026-04-02T15:48:36Z</time></trkpt><trkpt lat="46.0171960320212" lon="12.913560873831766"><ele>62.0</ele><time>2026-04-02T15:48:37Z</time></trkpt><trkpt lat="46.01727830572261" lon="12.913526947112594"><ele>62.0</ele><time>2026-04-02T15:48:38Z</time></trkpt><trkpt lat="46.0173617823246" lon="12.913497645988127"><ele>62.0</ele><time>2026-04-02T15:48:39Z</time></trkpt><trkpt lat="46.01743379499939" lon="12.913468154640446"><ele>62.00000000000001</ele><time>2026-04-02T15:48:40Z</time></trkpt><trkpt lat="46.01753020394415" lon="12.913411093859981"><ele>62.0</ele><time>2026-04-02T15:48:42Z</time></trkpt><trkpt lat="46.01761273324225" lon="12.913321892032616"><ele>62.400000000000006</ele><time>2026-04-02T15:48:44Z</time></trkpt><trkpt lat="46.01767329652384" lon="12.913245490137918"><ele>62.800000000000004</ele><time>2026-04-02T15:48:46Z</time></trkpt><trkpt lat="46.017711182682824" lon="12.913103551441322"><ele>63.2</ele><time>2026-04-02T15:48:48Z</time></trkpt><trkpt lat="46.01773436569803" lon="12.912990934152372"><ele>63.6</ele><time>2026-04-02T15:48:50Z</time></trkpt><trkpt lat="46.017795912841684" lon="12.91286926683132"><ele>64.0</ele><time>2026-04-02T15:48:52Z</time></trkpt><trkpt lat="46.01789668531211" lon="12.91279487700823"><ele>63.99999999999999</ele><time>2026-04-02T15:48:54Z</time></trkpt><trkpt lat="46.01796270033265" lon="12.912783303469372"><ele>64.0</ele><time>2026-04-02T15:48:55Z</time></trkpt><trkpt lat="46.01805099213653" lon="12.91276066988763"><ele>64.0</ele><time>2026-04-02T15:48:56Z</time></trkpt><trkpt lat="46.01814441780135" lon="12.9127370293622"><ele>64.0</ele><time>2026-04-02T15:48:57Z</time></trkpt><trkpt lat="46.01822192060012" lon="12.912715193026814"><ele>63.99999999999999</ele><time>2026-04-02T15:48:58Z</time></trkpt><trkpt lat="46.018283729045734" lon="12.912691993791404"><ele>64.0</ele><time>2026-04-02T15:48:59Z</time></trkpt><trkpt lat="46.018351900205225" lon="12.912687229605405"><ele>63.800000000000004</ele><time>2026-04-02T15:49:00Z</time></trkpt><trkpt lat="46.0184672495258" lon="12.912655287896456"><ele>63.60000000000001</ele><time>2026-04-02T15:49:02Z</time></trkpt><trkpt lat="46.01853911940748" lon="12.912644627395958"><ele>63.4</ele><time>2026-04-02T15:49:03Z</time></trkpt><trkpt lat="46.01861680279321" lon="12.912665607484836"><ele>63.2</ele><time>2026-04-02T15:49:04Z</time></trkpt><trkpt lat="46.01871423568373" lon="12.912702073796133"><ele>63.0</ele><time>2026-04-02T15:49:05Z</time></trkpt><trkpt lat="46.01879801966156" lon="12.91275081813129"><ele>63.0</ele><time>2026-04-02T15:49:06Z</time></trkpt><trkpt lat="46.01892278676047" lon="12.912793233355393"><ele>63.0</ele><time>2026-04-02T15:49:07Z</time></trkpt><trkpt lat="46.01902800857388" lon="12.91282724540599"><ele>63.0</ele><time>2026-04-02T15:49:08Z</time></trkpt><trkpt lat="46.019124149682455" lon="12.912816779313198"><ele>63.0</ele><time>2026-04-02T15:49:09Z</time></trkpt><trkpt lat="46.01922170011271" lon="12.91279726644352"><ele>63.0</ele><time>2026-04-02T15:49:10Z</time></trkpt><trkpt lat="46.01933609396466" lon="12.912792797163437"><ele>63.25</ele><time>2026-04-02T15:49:11Z</time></trkpt><trkpt lat="46.0194675618607" lon="12.912790133469393"><ele>63.5</ele><time>2026-04-02T15:49:12Z</time></trkpt><trkpt lat="46.019586805414136" lon="12.912779082181476"><ele>63.75</ele><time>2026-04-02T15:49:13Z</time></trkpt><trkpt lat="46.01969951069301" lon="12.912775245838086"><ele>64.0</ele><time>2026-04-02T15:49:14Z</time></trkpt><trkpt lat="46.01980839005646" lon="12.912776028847924"><ele>64.0</ele><time>2026-04-02T15:49:15Z</time></trkpt><trkpt lat="46.01991499684396" lon="12.912767005627591"><ele>64.0</ele><time>2026-04-02T15:49:16Z</time></trkpt><trkpt lat="46.02003906487512" lon="12.912775261701979"><ele>64.0</ele><time>2026-04-02T15:49:17Z</time></trkpt><trkpt lat="46.020152492091746" lon="12.91276383183028"><ele>64.0</ele><time>2026-04-02T15:49:18Z</time></trkpt><trkpt lat="46.02027191493249" lon="12.912751692786888"><ele>64.0</ele><time>2026-04-02T15:49:19Z</time></trkpt><trkpt lat="46.020388134213974" lon="12.912720241293844"><ele>64.0</ele><time>2026-04-02T15:49:20Z</time></trkpt><trkpt lat="46.02050400785614" lon="12.912696383215987"><ele>64.0</ele><time>2026-04-02T15:49:21Z</time></trkpt><trkpt lat="46.020593717624514" lon="12.912677167560288"><ele>64.0</ele><time>2026-04-02T15:49:22Z</time></trkpt><trkpt lat="46.02066080822204" lon="12.91266424132093"><ele>64.0</ele><time>2026-04-02T15:49:23Z</time></trkpt><trkpt lat="46.020737404974575" lon="12.912686144145542"><ele>64.0</ele><time>2026-04-02T15:49:24Z</time></trkpt><trkpt lat="46.020842708034415" lon="12.912749517897378"><ele>64.0</ele><time>2026-04-02T15:49:25Z</time></trkpt><trkpt lat="46.02095360335373" lon="12.91280591072868"><ele>64.0</ele><time>2026-04-02T15:49:26Z</time></trkpt><trkpt lat="46.021058331736896" lon="12.912831508569884"><ele>64.0</ele><time>2026-04-02T15:49:27Z</time></trkpt><trkpt lat="46.02115924905692" lon="12.912835397493843"><ele>64.0</ele><time>2026-04-02T15:49:28Z</time></trkpt><trkpt lat="46.021251926663766" lon="12.912854996786656"><ele>64.0</ele><time>2026-04-02T15:49:29Z</time></trkpt><trkpt lat="46.02136702427236" lon="12.91283434247197"><ele>64.0</ele><time>2026-04-02T15:49:30Z</time></trkpt><trkpt lat="46.02149136641024" lon="12.912835478079028"><ele>64.0</ele><time>2026-04-02T15:49:31Z</time></trkpt><trkpt lat="46.02161331862248" lon="12.912818436110893"><ele>64.0</ele><time>2026-04-02T15:49:32Z</time></trkpt><trkpt lat="46.02170985010054" lon="12.912799229493757"><ele>63.99999999999999</ele><time>2026-04-02T15:49:33Z</time></trkpt><trkpt lat="46.02179841787654" lon="12.912779561446396"><ele>64.0</ele><time>2026-04-02T15:49:34Z</time></trkpt><trkpt lat="46.02189015631874" lon="12.912767701629328"><ele>64.0</ele><time>2026-04-02T15:49:35Z</time></trkpt><trkpt lat="46.02197629428249" lon="12.912766877997672"><ele>64.0</ele><time>2026-04-02T15:49:36Z</time></trkpt><trkpt lat="46.02206242891353" lon="12.912757341640292"><ele>63.99999999999999</ele><time>2026-04-02T15:49:37Z</time></trkpt><trkpt lat="46.022138186311444" lon="12.912768330259778"><ele>64.0</ele><time>2026-04-02T15:49:38Z</time></trkpt><trkpt lat="46.02224863809863" lon="12.912758921373069"><ele>64.0</ele><time>2026-04-02T15:49:39Z</time></trkpt><trkpt lat="46.022353379080535" lon="12.912749533318342"><ele>64.0</ele><time>2026-04-02T15:49:40Z</time></trkpt><trkpt lat="46.022473118157684" lon="12.912725699666003"><ele>64.0</ele><time>2026-04-02T15:49:41Z</time></trkpt><trkpt lat="46.022561493931725" lon="12.912698487822887"><ele>64.0</ele><time>2026-04-02T15:49:42Z</time></trkpt><trkpt lat="46.02265700872804" lon="12.912694045841638"><ele>64.0</ele><time>2026-04-02T15:49:43Z</time></trkpt><trkpt lat="46.02274481441934" lon="12.912711287691598"><ele>64.60000000000001</ele><time>2026-04-02T15:49:44Z</time></trkpt><trkpt lat="46.022831364094536" lon="12.912722226793997"><ele>65.2</ele><time>2026-04-02T15:49:45Z</time></trkpt><trkpt lat="46.02295910591707" lon="12.912733593852533"><ele>65.80000000000001</ele><time>2026-04-02T15:49:46Z</time></trkpt><trkpt lat="46.02304957715339" lon="12.91275561455345"><ele>66.4</ele><time>2026-04-02T15:49:47Z</time></trkpt><trkpt lat="46.02313574391902" lon="12.912790097363073"><ele>67.0</ele><time>2026-04-02T15:49:48Z</time></trkpt><trkpt lat="46.023218023317796" lon="12.912757985669893"><ele>66.8</ele><time>2026-04-02T15:49:49Z</time></trkpt><trkpt lat="46.02332473017786" lon="12.912750811647644"><ele>66.6</ele><time>2026-04-02T15:49:50Z</time></trkpt><trkpt lat="46.02340983968501" lon="12.912732136091508"><ele>66.39999999999999</ele><time>2026-04-02T15:49:51Z</time></trkpt><trkpt lat="46.023500210685334" lon="12.912729512313401"><ele>66.2</ele><time>2026-04-02T15:49:52Z</time></trkpt><trkpt lat="46.02358986140415" lon="12.912711768351906"><ele>66.0</ele><time>2026-04-02T15:49:53Z</time></trkpt><trkpt lat="46.02368528931402" lon="12.912696975038111"><ele>66.0</ele><time>2026-04-02T15:49:54Z</time></trkpt><trkpt lat="46.023790017598955" lon="12.912661842123594"><ele>66.0</ele><time>2026-04-02T15:49:55Z</time></trkpt><trkpt lat="46.02390318232766" lon="12.912611445664403"><ele>66.0</ele><time>2026-04-02T15:49:56Z</time></trkpt><trkpt lat="46.024014945862305" lon="12.912558764222798"><ele>66.0</ele><time>2026-04-02T15:49:57Z</time></trkpt><trkpt lat="46.02409655059722" lon="12.912493673558524"><ele>66.0</ele><time>2026-04-02T15:49:58Z</time></trkpt><trkpt lat="46.02418296682888" lon="12.912454847871555"><ele>66.0</ele><time>2026-04-02T15:49:59Z</time></trkpt><trkpt lat="46.024252903952295" lon="12.912404339890164"><ele>66.0</ele><time>2026-04-02T15:50:00Z</time></trkpt><trkpt lat="46.02430695660494" lon="12.91234207331037"><ele>66.0</ele><time>2026-04-02T15:50:01Z</time></trkpt><trkpt lat="46.0243666476415" lon="12.912298379953695"><ele>66.0</ele><time>2026-04-02T15:50:02Z</time></trkpt><trkpt lat="46.02444385333307" lon="12.912251737496643"><ele>66.0</ele><time>2026-04-02T15:50:03Z</time></trkpt><trkpt lat="46.024519620898154" lon="12.912235650120444"><ele>66.0</ele><time>2026-04-02T15:50:04Z</time></trkpt><trkpt lat="46.0246174491353" lon="12.912215652432948"><ele>66.0</ele><time>2026-04-02T15:50:05Z</time></trkpt><trkpt lat="46.02473920250715" lon="12.912213552667888"><ele>66.0</ele><time>2026-04-02T15:50:06Z</time></trkpt><trkpt lat="46.024830011602965" lon="12.91221066663732"><ele>66.0</ele><time>2026-04-02T15:50:07Z</time></trkpt><trkpt lat="46.02490327672497" lon="12.912207706117885"><ele>66.0</ele><time>2026-04-02T15:50:08Z</time></trkpt><trkpt lat="46.024972975114615" lon="12.912189761476236"><ele>66.0</ele><time>2026-04-02T15:50:09Z</time></trkpt><trkpt lat="46.025046987786986" lon="12.912166921596846"><ele>66.0</ele><time>2026-04-02T15:50:10Z</time></trkpt><trkpt lat="46.02512026505601" lon="12.912158444263678"><ele>66.16666666666667</ele><time>2026-04-02T15:50:11Z</time></trkpt><trkpt lat="46.02520340708201" lon="12.912163298644275"><ele>66.33333333333333</ele><time>2026-04-02T15:50:12Z</time></trkpt><trkpt lat="46.02527150094033" lon="12.912173237819253"><ele>66.5</ele><time>2026-04-02T15:50:13Z</time></trkpt><trkpt lat="46.02534089873984" lon="12.912173500838957"><ele>66.66666666666666</ele><time>2026-04-02T15:50:14Z</time></trkpt><trkpt lat="46.02542175599723" lon="12.912140541664444"><ele>66.83333333333333</ele><time>2026-04-02T15:50:15Z</time></trkpt><trkpt lat="46.02548526171099" lon="12.912103588102747"><ele>67.0</ele><time>2026-04-02T15:50:16Z</time></trkpt><trkpt lat="46.025621810347374" lon="12.912148014283655"><ele>67.0</ele><time>2026-04-02T15:50:19Z</time></trkpt><trkpt lat="46.02572437014908" lon="12.912133098473452"><ele>67.0</ele><time>2026-04-02T15:50:20Z</time></trkpt><trkpt lat="46.02581270217366" lon="12.912063622499224"><ele>67.0</ele><time>2026-04-02T15:50:21Z</time></trkpt><trkpt lat="46.02588672807756" lon="12.911969850965287"><ele>67.0</ele><time>2026-04-02T15:50:22Z</time></trkpt><trkpt lat="46.02593215684129" lon="12.911901286999107"><ele>67.0</ele><time>2026-04-02T15:50:23Z</time></trkpt><trkpt lat="46.026008899436725" lon="12.911795914316478"><ele>67.0</ele><time>2026-04-02T15:50:25Z</time></trkpt><trkpt lat="46.026085097645385" lon="12.911756023205145"><ele>67.0</ele><time>2026-04-02T15:50:26Z</time></trkpt><trkpt lat="46.02616876378612" lon="12.911711696883133"><ele>67.0</ele><time>2026-04-02T15:50:27Z</time></trkpt><trkpt lat="46.026284497870705" lon="12.911727479691386"><ele>67.0</ele><time>2026-04-02T15:50:28Z</time></trkpt><trkpt lat="46.02639070301148" lon="12.911737871822384"><ele>67.0</ele><time>2026-04-02T15:50:29Z</time></trkpt><trkpt lat="46.026470065536415" lon="12.911704072028561"><ele>67.0</ele><time>2026-04-02T15:50:30Z</time></trkpt><trkpt lat="46.02654650107376" lon="12.911643347485864"><ele>67.0</ele><time>2026-04-02T15:50:31Z</time></trkpt><trkpt lat="46.02662689651099" lon="12.911598973042928"><ele>67.0</ele><time>2026-04-02T15:50:32Z</time></trkpt><trkpt lat="46.026699159847865" lon="12.911587294521407"><ele>67.0</ele><time>2026-04-02T15:50:33Z</time></trkpt><trkpt lat="46.026774387011685" lon="12.91157252338339"><ele>67.0</ele><time>2026-04-02T15:50:34Z</time></trkpt><trkpt lat="46.02685467722154" lon="12.911543781737068"><ele>67.0</ele><time>2026-04-02T15:50:35Z</time></trkpt><trkpt lat="46.026939149520885" lon="12.911503384548787"><ele>67.0</ele><time>2026-04-02T15:50:36Z</time></trkpt><trkpt lat="46.027028899819136" lon="12.911452579394036"><ele>67.0</ele><time>2026-04-02T15:50:37Z</time></trkpt><trkpt lat="46.02709232456039" lon="12.911399998082732"><ele>67.0</ele><time>2026-04-02T15:50:38Z</time></trkpt><trkpt lat="46.02718195786279" lon="12.911320630386"><ele>67.0</ele><time>2026-04-02T15:50:39Z</time></trkpt><trkpt lat="46.027263763021814" lon="12.911273005145429"><ele>67.0</ele><time>2026-04-02T15:50:40Z</time></trkpt><trkpt lat="46.027360299647945" lon="12.911232592262119"><ele>67.0</ele><time>2026-04-02T15:50:41Z</time></trkpt><trkpt lat="46.02743374351757" lon="12.911186452972135"><ele>67.0</ele><time>2026-04-02T15:50:42Z</time></trkpt><trkpt lat="46.027503394665445" lon="12.911125277818533"><ele>67.0</ele><time>2026-04-02T15:50:43Z</time></trkpt><trkpt lat="46.02759140996167" lon="12.911093534342236"><ele>67.0</ele><time>2026-04-02T15:50:44Z</time></trkpt><trkpt lat="46.02769404679486" lon="12.911065787216344"><ele>67.0</ele><time>2026-04-02T15:50:45Z</time></trkpt><trkpt lat="46.027805504037445" lon="12.91103261387756"><ele>67.0</ele><time>2026-04-02T15:50:46Z</time></trkpt><trkpt lat="46.027897058044886" lon="12.911008419738375"><ele>67.0</ele><time>2026-04-02T15:50:47Z</time></trkpt><trkpt lat="46.02797125337157" lon="12.910991999391829"><ele>67.0</ele><time>2026-04-02T15:50:48Z</time></trkpt><trkpt lat="46.02803414848021" lon="12.910955879578419"><ele>67.0</ele><time>2026-04-02T15:50:49Z</time></trkpt><trkpt lat="46.02811633748215" lon="12.910914146889633"><ele>67.0</ele><time>2026-04-02T15:50:50Z</time></trkpt><trkpt lat="46.0281910197191" lon="12.910849737642538"><ele>67.0</ele><time>2026-04-02T15:50:51Z</time></trkpt><trkpt lat="46.02831731659838" lon="12.910792634807096"><ele>67.4</ele><time>2026-04-02T15:50:52Z</time></trkpt><trkpt lat="46.02840069415169" lon="12.910733967045248"><ele>67.80000000000001</ele><time>2026-04-02T15:50:53Z</time></trkpt><trkpt lat="46.02850058484168" lon="12.910682799771477"><ele>68.2</ele><time>2026-04-02T15:50:54Z</time></trkpt><trkpt lat="46.02860667125104" lon="12.910626345962669"><ele>68.60000000000001</ele><time>2026-04-02T15:50:55Z</time></trkpt><trkpt lat="46.02871093973" lon="12.910560010334388"><ele>69.0</ele><time>2026-04-02T15:50:56Z</time></trkpt><trkpt lat="46.02879769094271" lon="12.910501219871291"><ele>69.0</ele><time>2026-04-02T15:50:57Z</time></trkpt><trkpt lat="46.02887175804419" lon="12.910440192196159"><ele>69.0</ele><time>2026-04-02T15:50:58Z</time></trkpt><trkpt lat="46.02895183088347" lon="12.910398119641702"><ele>69.0</ele><time>2026-04-02T15:50:59Z</time></trkpt><trkpt lat="46.02902559973389" lon="12.91034874767586"><ele>69.0</ele><time>2026-04-02T15:51:00Z</time></trkpt><trkpt lat="46.02911799546577" lon="12.910270752144978"><ele>69.0</ele><time>2026-04-02T15:51:01Z</time></trkpt><trkpt lat="46.0292183251767" lon="12.910213718509757"><ele>69.0</ele><time>2026-04-02T15:51:02Z</time></trkpt><trkpt lat="46.029329542175205" lon="12.910162091336261"><ele>69.0</ele><time>2026-04-02T15:51:03Z</time></trkpt><trkpt lat="46.02940362223598" lon="12.910106558411407"><ele>69.0</ele><time>2026-04-02T15:51:04Z</time></trkpt><trkpt lat="46.029475381839" lon="12.910064831464274"><ele>69.0</ele><time>2026-04-02T15:51:05Z</time></trkpt><trkpt lat="46.02958890531597" lon="12.91003571908612"><ele>69.0</ele><time>2026-04-02T15:51:06Z</time></trkpt><trkpt lat="46.02969266902138" lon="12.909991878994145"><ele>69.0</ele><time>2026-04-02T15:51:07Z</time></trkpt><trkpt lat="46.0298185179276" lon="12.909955509895576"><ele>69.0</ele><time>2026-04-02T15:51:08Z</time></trkpt><trkpt lat="46.02994207291913" lon="12.909904895457093"><ele>69.0</ele><time>2026-04-02T15:51:09Z</time></trkpt><trkpt lat="46.030030078550865" lon="12.909859322021207"><ele>69.0</ele><time>2026-04-02T15:51:10Z</time></trkpt><trkpt lat="46.03010708207114" lon="12.909811235438996"><ele>69.0</ele><time>2026-04-02T15:51:11Z</time></trkpt><trkpt lat="46.03021863882437" lon="12.909778114926011"><ele>68.8</ele><time>2026-04-02T15:51:12Z</time></trkpt><trkpt lat="46.03029874026707" lon="12.909751955065689"><ele>68.60000000000001</ele><time>2026-04-02T15:51:13Z</time></trkpt><trkpt lat="46.030382491062134" lon="12.90973555281092"><ele>68.4</ele><time>2026-04-02T15:51:14Z</time></trkpt><trkpt lat="46.03048837682124" lon="12.909727022599718"><ele>68.2</ele><time>2026-04-02T15:51:15Z</time></trkpt><trkpt lat="46.03060022586281" lon="12.909723336218425"><ele>68.0</ele><time>2026-04-02T15:51:16Z</time></trkpt><trkpt lat="46.03070944835146" lon="12.909721158316463"><ele>68.0</ele><time>2026-04-02T15:51:17Z</time></trkpt><trkpt lat="46.03080098861028" lon="12.909727786909322"><ele>68.0</ele><time>2026-04-02T15:51:18Z</time></trkpt><trkpt lat="46.03087586327951" lon="12.909731942924566"><ele>68.0</ele><time>2026-04-02T15:51:19Z</time></trkpt><trkpt lat="46.03094497699422" lon="12.909729327820331"><ele>68.0</ele><time>2026-04-02T15:51:20Z</time></trkpt><trkpt lat="46.031014975917735" lon="12.909731442173252"><ele>68.0</ele><time>2026-04-02T15:51:21Z</time></trkpt><trkpt lat="46.031083098598494" lon="12.90972735437318"><ele>68.0</ele><time>2026-04-02T15:51:22Z</time></trkpt><trkpt lat="46.03116192320012" lon="12.909720481539685"><ele>68.16666666666667</ele><time>2026-04-02T15:51:23Z</time></trkpt><trkpt lat="46.03122834677321" lon="12.909700520367382"><ele>68.33333333333334</ele><time>2026-04-02T15:51:24Z</time></trkpt><trkpt lat="46.031306902816816" lon="12.909700558713112"><ele>68.5</ele><time>2026-04-02T15:51:25Z</time></trkpt><trkpt lat="46.03138547593434" lon="12.909724189418982"><ele>68.66666666666667</ele><time>2026-04-02T15:51:26Z</time></trkpt><trkpt lat="46.03146931725294" lon="12.909763070952572"><ele>68.83333333333333</ele><time>2026-04-02T15:51:27Z</time></trkpt><trkpt lat="46.0315553342396" lon="12.909776797735487"><ele>69.0</ele><time>2026-04-02T15:51:28Z</time></trkpt><trkpt lat="46.03164803276184" lon="12.909767406422885"><ele>69.0</ele><time>2026-04-02T15:51:29Z</time></trkpt><trkpt lat="46.03171944700224" lon="12.909751610402747"><ele>69.0</ele><time>2026-04-02T15:51:30Z</time></trkpt><trkpt lat="46.03182911236149" lon="12.909714711016013"><ele>69.0</ele><time>2026-04-02T15:51:32Z</time></trkpt><trkpt lat="46.031962373990496" lon="12.909669499953111"><ele>69.0</ele><time>2026-04-02T15:51:34Z</time></trkpt><trkpt lat="46.032036960503106" lon="12.909667345524024"><ele>69.0</ele><time>2026-04-02T15:51:35Z</time></trkpt><trkpt lat="46.03213198435686" lon="12.909670846128206"><ele>69.0</ele><time>2026-04-02T15:51:36Z</time></trkpt><trkpt lat="46.03226579453642" lon="12.909654150721748"><ele>69.0</ele><time>2026-04-02T15:51:37Z</time></trkpt><trkpt lat="46.032388639684015" lon="12.909591885099003"><ele>69.0</ele><time>2026-04-02T15:51:38Z</time></trkpt><trkpt lat="46.03246801604634" lon="12.90951577112355"><ele>69.0</ele><time>2026-04-02T15:51:39Z</time></trkpt><trkpt lat="46.03255128105745" lon="12.909511513144405"><ele>69.0</ele><time>2026-04-02T15:51:40Z</time></trkpt><trkpt lat="46.03262106434698" lon="12.909533112031761"><ele>69.2</ele><time>2026-04-02T15:51:41Z</time></trkpt><trkpt lat="46.03268815143918" lon="12.90953231585453"><ele>69.4</ele><time>2026-04-02T15:51:42Z</time></trkpt><trkpt lat="46.03276138723781" lon="12.90951553174715"><ele>69.6</ele><time>2026-04-02T15:51:43Z</time></trkpt><trkpt lat="46.032879676676984" lon="12.909463531952484"><ele>69.8</ele><time>2026-04-02T15:51:44Z</time></trkpt><trkpt lat="46.032991518926856" lon="12.90943088297512"><ele>70.0</ele><time>2026-04-02T15:51:45Z</time></trkpt><trkpt lat="46.033086124049454" lon="12.909383326033405"><ele>70.0</ele><time>2026-04-02T15:51:46Z</time></trkpt><trkpt lat="46.03316111783768" lon="12.909351049407121"><ele>70.0</ele><time>2026-04-02T15:51:47Z</time></trkpt><trkpt lat="46.03326146050539" lon="12.909269731372214"><ele>70.0</ele><time>2026-04-02T15:51:48Z</time></trkpt><trkpt lat="46.03340533766173" lon="12.909229151619071"><ele>70.0</ele><time>2026-04-02T15:51:49Z</time></trkpt><trkpt lat="46.03350420361568" lon="12.909198034299951"><ele>70.0</ele><time>2026-04-02T15:51:50Z</time></trkpt><trkpt lat="46.033581608200244" lon="12.909142470764907"><ele>70.2</ele><time>2026-04-02T15:51:51Z</time></trkpt><trkpt lat="46.0336779026372" lon="12.909093851919648"><ele>70.4</ele><time>2026-04-02T15:51:52Z</time></trkpt><trkpt lat="46.03376869844723" lon="12.90905239362727"><ele>70.6</ele><time>2026-04-02T15:51:53Z</time></trkpt><trkpt lat="46.03385356504329" lon="12.909004755269962"><ele>70.8</ele><time>2026-04-02T15:51:54Z</time></trkpt><trkpt lat="46.03392949807369" lon="12.908951418765728"><ele>71.0</ele><time>2026-04-02T15:51:55Z</time></trkpt><trkpt lat="46.0340076594544" lon="12.908919713805544"><ele>71.0</ele><time>2026-04-02T15:51:56Z</time></trkpt><trkpt lat="46.03408578008099" lon="12.90890515561419"><ele>71.0</ele><time>2026-04-02T15:51:57Z</time></trkpt><trkpt lat="46.03416947055947" lon="12.908889237391918"><ele>71.0</ele><time>2026-04-02T15:51:58Z</time></trkpt><trkpt lat="46.034250071488465" lon="12.908896150379602"><ele>71.0</ele><time>2026-04-02T15:51:59Z</time></trkpt><trkpt lat="46.03432603380806" lon="12.908905123849928"><ele>71.0</ele><time>2026-04-02T15:52:00Z</time></trkpt><trkpt lat="46.03438810460491" lon="12.908922142449295"><ele>71.0</ele><time>2026-04-02T15:52:01Z</time></trkpt><trkpt lat="46.034533570832885" lon="12.908944568018093"><ele>71.0</ele><time>2026-04-02T15:52:03Z</time></trkpt><trkpt lat="46.034601124530305" lon="12.908976722409664"><ele>71.0</ele><time>2026-04-02T15:52:04Z</time></trkpt><trkpt lat="46.03472075787779" lon="12.909006455691193"><ele>71.0</ele><time>2026-04-02T15:52:06Z</time></trkpt><trkpt lat="46.03480770821237" lon="12.909039311488133"><ele>71.0</ele><time>2026-04-02T15:52:07Z</time></trkpt><trkpt lat="46.03488811247366" lon="12.909062696624678"><ele>71.0</ele><time>2026-04-02T15:52:08Z</time></trkpt><trkpt lat="46.03496908161028" lon="12.909072929817157"><ele>71.0</ele><time>2026-04-02T15:52:09Z</time></trkpt><trkpt lat="46.03506749055816" lon="12.909076884341337"><ele>71.16666666666667</ele><time>2026-04-02T15:52:10Z</time></trkpt><trkpt lat="46.03516232141356" lon="12.909077002529221"><ele>71.33333333333334</ele><time>2026-04-02T15:52:11Z</time></trkpt><trkpt lat="46.035237682406716" lon="12.909069139063302"><ele>71.5</ele><time>2026-04-02T15:52:12Z</time></trkpt><trkpt lat="46.035301704370745" lon="12.909075090842856"><ele>71.66666666666667</ele><time>2026-04-02T15:52:13Z</time></trkpt><trkpt lat="46.03537154642042" lon="12.909092657631824"><ele>71.83333333333333</ele><time>2026-04-02T15:52:14Z</time></trkpt><trkpt lat="46.03545166996096" lon="12.909124200267925"><ele>72.0</ele><time>2026-04-02T15:52:15Z</time></trkpt><trkpt lat="46.03553358155146" lon="12.909161711618367"><ele>72.0</ele><time>2026-04-02T15:52:16Z</time></trkpt><trkpt lat="46.035614757540195" lon="12.909194717401068"><ele>72.0</ele><time>2026-04-02T15:52:17Z</time></trkpt><trkpt lat="46.03571457956166" lon="12.909250385752909"><ele>72.0</ele><time>2026-04-02T15:52:19Z</time></trkpt><trkpt lat="46.03580572911195" lon="12.909296772276802"><ele>72.0</ele><time>2026-04-02T15:52:21Z</time></trkpt><trkpt lat="46.03593974571793" lon="12.909331443999701"><ele>72.0</ele><time>2026-04-02T15:52:23Z</time></trkpt><trkpt lat="46.03602562510237" lon="12.909354656818616"><ele>71.5</ele><time>2026-04-02T15:52:24Z</time></trkpt><trkpt lat="46.03610271353746" lon="12.909376141751098"><ele>71.0</ele><time>2026-04-02T15:52:25Z</time></trkpt><trkpt lat="46.03617333103442" lon="12.909414777222834"><ele>70.5</ele><time>2026-04-02T15:52:26Z</time></trkpt><trkpt lat="46.0362502097252" lon="12.909430319866251"><ele>70.0</ele><time>2026-04-02T15:52:27Z</time></trkpt><trkpt lat="46.03631130192547" lon="12.909453903905229"><ele>69.5</ele><time>2026-04-02T15:52:28Z</time></trkpt><trkpt lat="46.03639910471963" lon="12.909446992359499"><ele>69.0</ele><time>2026-04-02T15:52:30Z</time></trkpt><trkpt lat="46.036490688239134" lon="12.90948615430085"><ele>69.0</ele><time>2026-04-02T15:52:32Z</time></trkpt><trkpt lat="46.03659220754072" lon="12.909476617787641"><ele>69.0</ele><time>2026-04-02T15:52:34Z</time></trkpt><trkpt lat="46.03666673999805" lon="12.909462026656264"><ele>69.0</ele><time>2026-04-02T15:52:35Z</time></trkpt><trkpt lat="46.036751262274215" lon="12.90944711833066"><ele>69.0</ele><time>2026-04-02T15:52:36Z</time></trkpt><trkpt lat="46.03684605279882" lon="12.909440693826284"><ele>69.0</ele><time>2026-04-02T15:52:37Z</time></trkpt><trkpt lat="46.03695800231208" lon="12.909429607905759"><ele>69.16666666666667</ele><time>2026-04-02T15:52:38Z</time></trkpt><trkpt lat="46.03704731278216" lon="12.90941316624787"><ele>69.33333333333333</ele><time>2026-04-02T15:52:39Z</time></trkpt><trkpt lat="46.037112581145266" lon="12.909403719962267"><ele>69.5</ele><time>2026-04-02T15:52:40Z</time></trkpt><trkpt lat="46.03719648774296" lon="12.909416269034228"><ele>69.66666666666666</ele><time>2026-04-02T15:52:41Z</time></trkpt><trkpt lat="46.03727573267805" lon="12.909450019941934"><ele>69.83333333333333</ele><time>2026-04-02T15:52:42Z</time></trkpt><trkpt lat="46.0373711157928" lon="12.90948900618499"><ele>70.0</ele><time>2026-04-02T15:52:43Z</time></trkpt><trkpt lat="46.03748488502499" lon="12.909502229532846"><ele>70.2</ele><time>2026-04-02T15:52:44Z</time></trkpt><trkpt lat="46.03759228270385" lon="12.909510358807426"><ele>70.4</ele><time>2026-04-02T15:52:45Z</time></trkpt><trkpt lat="46.037677410224454" lon="12.90950494521672"><ele>70.6</ele><time>2026-04-02T15:52:46Z</time></trkpt><trkpt lat="46.03777355688141" lon="12.909498610497614"><ele>70.8</ele><time>2026-04-02T15:52:47Z</time></trkpt><trkpt lat="46.037877988225354" lon="12.909488746312343"><ele>71.0</ele><time>2026-04-02T15:52:48Z</time></trkpt><trkpt lat="46.03798507843256" lon="12.909482704406305"><ele>71.0</ele><time>2026-04-02T15:52:49Z</time></trkpt><trkpt lat="46.03808946120825" lon="12.909485833969555"><ele>71.0</ele><time>2026-04-02T15:52:50Z</time></trkpt><trkpt lat="46.03819582227427" lon="12.909485154932828"><ele>71.0</ele><time>2026-04-02T15:52:51Z</time></trkpt><trkpt lat="46.03830647853936" lon="12.909490086675577"><ele>71.0</ele><time>2026-04-02T15:52:52Z</time></trkpt><trkpt lat="46.03842573819609" lon="12.90949357007667"><ele>71.0</ele><time>2026-04-02T15:52:53Z</time></trkpt><trkpt lat="46.03854637464481" lon="12.909506225767922"><ele>71.0</ele><time>2026-04-02T15:52:54Z</time></trkpt><trkpt lat="46.03864782528328" lon="12.909516211575443"><ele>71.0</ele><time>2026-04-02T15:52:55Z</time></trkpt><trkpt lat="46.038734023553594" lon="12.90952258443084"><ele>71.0</ele><time>2026-04-02T15:52:56Z</time></trkpt><trkpt lat="46.038801083203026" lon="12.909514232619102"><ele>71.0</ele><time>2026-04-02T15:52:57Z</time></trkpt><trkpt lat="46.038930204344155" lon="12.909541843349977"><ele>71.0</ele><time>2026-04-02T15:52:59Z</time></trkpt><trkpt lat="46.03901518092062" lon="12.909552130606581"><ele>71.0</ele><time>2026-04-02T15:53:01Z</time></trkpt><trkpt lat="46.03903760856264" lon="12.909437802578454"><ele>71.0</ele><time>2026-04-02T15:53:03Z</time></trkpt><trkpt lat="46.03900919115426" lon="12.909319933140615"><ele>71.0</ele><time>2026-04-02T15:53:04Z</time></trkpt><trkpt lat="46.03904413944817" lon="12.90921812137605"><ele>71.0</ele><time>2026-04-02T15:53:09Z</time></trkpt><trkpt lat="46.03912170721121" lon="12.909147122629568"><ele>71.0</ele><time>2026-04-02T15:53:11Z</time></trkpt><trkpt lat="46.0392552920558" lon="12.909098700330148"><ele>71.2</ele><time>2026-04-02T15:53:13Z</time></trkpt><trkpt lat="46.03935374936555" lon="12.909098654682165"><ele>71.39999999999999</ele><time>2026-04-02T15:53:14Z</time></trkpt><trkpt lat="46.039422071829904" lon="12.909099151732828"><ele>71.6</ele><time>2026-04-02T15:53:15Z</time></trkpt><trkpt lat="46.039554200482065" lon="12.909108527935468"><ele>71.8</ele><time>2026-04-02T15:53:17Z</time></trkpt><trkpt lat="46.03962182619513" lon="12.909100380943526"><ele>72.0</ele><time>2026-04-02T15:53:18Z</time></trkpt><trkpt lat="46.03973852769106" lon="12.909127864283928"><ele>72.0</ele><time>2026-04-02T15:53:20Z</time></trkpt><trkpt lat="46.03984494165938" lon="12.909162984923343"><ele>72.0</ele><time>2026-04-02T15:53:21Z</time></trkpt><trkpt lat="46.039966725274354" lon="12.909224550107119"><ele>72.0</ele><time>2026-04-02T15:53:22Z</time></trkpt><trkpt lat="46.04006837287778" lon="12.90920354337113"><ele>72.0</ele><time>2026-04-02T15:53:23Z</time></trkpt><trkpt lat="46.04015658180455" lon="12.909194741544763"><ele>72.0</ele><time>2026-04-02T15:53:24Z</time></trkpt><trkpt lat="46.04022840526584" lon="12.909204770304644"><ele>72.0</ele><time>2026-04-02T15:53:25Z</time></trkpt><trkpt lat="46.040289761127326" lon="12.90925065836552"><ele>72.0</ele><time>2026-04-02T15:53:26Z</time></trkpt><trkpt lat="46.04035344563869" lon="12.90932078255816"><ele>72.0</ele><time>2026-04-02T15:53:27Z</time></trkpt><trkpt lat="46.04043709566381" lon="12.909372797545094"><ele>72.0</ele><time>2026-04-02T15:53:28Z</time></trkpt><trkpt lat="46.04049695488543" lon="12.909425398682457"><ele>72.0</ele><time>2026-04-02T15:53:29Z</time></trkpt><trkpt lat="46.04056617654675" lon="12.909486262120753"><ele>72.0</ele><time>2026-04-02T15:53:30Z</time></trkpt><trkpt lat="46.04069262236392" lon="12.909271367784287"><ele>72.0</ele><time>2026-04-02T15:53:31Z</time></trkpt><trkpt lat="46.040782285543585" lon="12.909343068394222"><ele>72.0</ele><time>2026-04-02T15:53:32Z</time></trkpt><trkpt lat="46.04088264426292" lon="12.90936988212563"><ele>72.0</ele><time>2026-04-02T15:53:33Z</time></trkpt><trkpt lat="46.04100137021235" lon="12.90942142715098"><ele>72.0</ele><time>2026-04-02T15:53:34Z</time></trkpt><trkpt lat="46.04113046476382" lon="12.909472484552447"><ele>72.2</ele><time>2026-04-02T15:53:35Z</time></trkpt><trkpt lat="46.04125408128114" lon="12.909497940373376"><ele>72.4</ele><time>2026-04-02T15:53:36Z</time></trkpt><trkpt lat="46.041347745903074" lon="12.90949343577249"><ele>72.6</ele><time>2026-04-02T15:53:37Z</time></trkpt><trkpt lat="46.04144068950457" lon="12.909508687630934"><ele>72.8</ele><time>2026-04-02T15:53:38Z</time></trkpt><trkpt lat="46.04152366694044" lon="12.909486239534584"><ele>73.0</ele><time>2026-04-02T15:53:39Z</time></trkpt><trkpt lat="46.04167523845319" lon="12.90954613513857"><ele>73.25</ele><time>2026-04-02T15:53:41Z</time></trkpt><trkpt lat="46.04178331098389" lon="12.90960700847218"><ele>73.5</ele><time>2026-04-02T15:53:42Z</time></trkpt><trkpt lat="46.04191553065161" lon="12.9096614266515"><ele>73.75</ele><time>2026-04-02T15:53:43Z</time></trkpt><trkpt lat="46.04204549684417" lon="12.909707814727764"><ele>74.0</ele><time>2026-04-02T15:53:44Z</time></trkpt><trkpt lat="46.04217583365778" lon="12.90975457411462"><ele>74.0</ele><time>2026-04-02T15:53:45Z</time></trkpt><trkpt lat="46.04226264176334" lon="12.909796722104602"><ele>74.0</ele><time>2026-04-02T15:53:46Z</time></trkpt><trkpt lat="46.042395037209445" lon="12.909824175168827"><ele>74.0</ele><time>2026-04-02T15:53:47Z</time></trkpt><trkpt lat="46.042476676382826" lon="12.909857725786129"><ele>74.0</ele><time>2026-04-02T15:53:48Z</time></trkpt><trkpt lat="46.04254344096374" lon="12.909904193069295"><ele>74.0</ele><time>2026-04-02T15:53:49Z</time></trkpt><trkpt lat="46.04262513579762" lon="12.909954459011406"><ele>74.16666666666667</ele><time>2026-04-02T15:53:50Z</time></trkpt><trkpt lat="46.04268891489215" lon="12.909985695790763"><ele>74.33333333333334</ele><time>2026-04-02T15:53:51Z</time></trkpt><trkpt lat="46.04275531462977" lon="12.91002955773094"><ele>74.5</ele><time>2026-04-02T15:53:52Z</time></trkpt><trkpt lat="46.04282195113955" lon="12.91006573891846"><ele>74.66666666666667</ele><time>2026-04-02T15:53:53Z</time></trkpt><trkpt lat="46.042903210305376" lon="12.91007431216359"><ele>74.83333333333333</ele><time>2026-04-02T15:53:55Z</time></trkpt><trkpt lat="46.043016408585395" lon="12.91006951970951"><ele>75.0</ele><time>2026-04-02T15:53:57Z</time></trkpt><trkpt lat="46.04313787282619" lon="12.910022352668792"><ele>75.0</ele><time>2026-04-02T15:53:59Z</time></trkpt><trkpt lat="46.04324533917665" lon="12.90998538487152"><ele>75.0</ele><time>2026-04-02T15:54:01Z</time></trkpt><trkpt lat="46.043303920311985" lon="12.90994406128748"><ele>75.0</ele><time>2026-04-02T15:54:02Z</time></trkpt><trkpt lat="46.0433885807776" lon="12.909867027771988"><ele>75.0</ele><time>2026-04-02T15:54:03Z</time></trkpt><trkpt lat="46.043487492055974" lon="12.90978733178174"><ele>75.0</ele><time>2026-04-02T15:54:04Z</time></trkpt><trkpt lat="46.0435835453332" lon="12.909720523475706"><ele>75.2</ele><time>2026-04-02T15:54:05Z</time></trkpt><trkpt lat="46.04366515011503" lon="12.90968763818862"><ele>75.4</ele><time>2026-04-02T15:54:06Z</time></trkpt><trkpt lat="46.04374382159027" lon="12.909667888639783"><ele>75.6</ele><time>2026-04-02T15:54:07Z</time></trkpt><trkpt lat="46.04382825883673" lon="12.909645100609213"><ele>75.8</ele><time>2026-04-02T15:54:08Z</time></trkpt><trkpt lat="46.043928280743735" lon="12.909625653329675"><ele>76.0</ele><time>2026-04-02T15:54:09Z</time></trkpt><trkpt lat="46.04403899100169" lon="12.90962944120739"><ele>75.8</ele><time>2026-04-02T15:54:10Z</time></trkpt><trkpt lat="46.04414933865493" lon="12.909622079795247"><ele>75.6</ele><time>2026-04-02T15:54:11Z</time></trkpt><trkpt lat="46.04423761191742" lon="12.909614641708867"><ele>75.4</ele><time>2026-04-02T15:54:12Z</time></trkpt><trkpt lat="46.044325681261874" lon="12.909605949720973"><ele>75.2</ele><time>2026-04-02T15:54:13Z</time></trkpt><trkpt lat="46.04443148580149" lon="12.909596363125786"><ele>75.0</ele><time>2026-04-02T15:54:14Z</time></trkpt><trkpt lat="46.04452605794127" lon="12.909601835405482"><ele>75.0</ele><time>2026-04-02T15:54:15Z</time></trkpt><trkpt lat="46.044600218227046" lon="12.909623431601673"><ele>75.0</ele><time>2026-04-02T15:54:16Z</time></trkpt><trkpt lat="46.04468566157933" lon="12.909664040669224"><ele>75.0</ele><time>2026-04-02T15:54:17Z</time></trkpt><trkpt lat="46.044772166503364" lon="12.909717445169626"><ele>75.0</ele><time>2026-04-02T15:54:18Z</time></trkpt><trkpt lat="46.04487188086809" lon="12.909782277106482"><ele>75.0</ele><time>2026-04-02T15:54:19Z</time></trkpt><trkpt lat="46.04494530928959" lon="12.909844094451008"><ele>75.2</ele><time>2026-04-02T15:54:20Z</time></trkpt><trkpt lat="46.04500637980342" lon="12.909887164856626"><ele>75.4</ele><time>2026-04-02T15:54:21Z</time></trkpt><trkpt lat="46.04509342614054" lon="12.909918710410853"><ele>75.6</ele><time>2026-04-02T15:54:22Z</time></trkpt><trkpt lat="46.04519019490787" lon="12.909945772422825"><ele>75.8</ele><time>2026-04-02T15:54:23Z</time></trkpt><trkpt lat="46.04530370462408" lon="12.90996041849633"><ele>76.0</ele><time>2026-04-02T15:54:24Z</time></trkpt><trkpt lat="46.04542082069755" lon="12.90998925219298"><ele>76.0</ele><time>2026-04-02T15:54:25Z</time></trkpt><trkpt lat="46.045516612563986" lon="12.910026637891466"><ele>76.0</ele><time>2026-04-02T15:54:26Z</time></trkpt><trkpt lat="46.04561521155447" lon="12.910051054392943"><ele>76.0</ele><time>2026-04-02T15:54:27Z</time></trkpt><trkpt lat="46.045716803457914" lon="12.910031321376424"><ele>76.0</ele><time>2026-04-02T15:54:28Z</time></trkpt><trkpt lat="46.04579178657368" lon="12.909996605191404"><ele>76.0</ele><time>2026-04-02T15:54:29Z</time></trkpt><trkpt lat="46.04587898933954" lon="12.909957099956445"><ele>76.5</ele><time>2026-04-02T15:54:30Z</time></trkpt><trkpt lat="46.04603565123645" lon="12.909998949750692"><ele>77.0</ele><time>2026-04-02T15:54:31Z</time></trkpt><trkpt lat="46.046165519523434" lon="12.909990224471528"><ele>77.5</ele><time>2026-04-02T15:54:32Z</time></trkpt><trkpt lat="46.0462804778611" lon="12.909988717079568"><ele>78.0</ele><time>2026-04-02T15:54:33Z</time></trkpt><trkpt lat="46.04638410161764" lon="12.910000533653845"><ele>78.0</ele><time>2026-04-02T15:54:34Z</time></trkpt><trkpt lat="46.04648518192756" lon="12.910017011802443"><ele>78.0</ele><time>2026-04-02T15:54:35Z</time></trkpt><trkpt lat="46.04658737643366" lon="12.910032296601365"><ele>78.0</ele><time>2026-04-02T15:54:36Z</time></trkpt><trkpt lat="46.046694968203255" lon="12.910042465071466"><ele>78.0</ele><time>2026-04-02T15:54:37Z</time></trkpt><trkpt lat="46.04679258434591" lon="12.910061110233409"><ele>78.0</ele><time>2026-04-02T15:54:38Z</time></trkpt><trkpt lat="46.046891248500295" lon="12.910097356572324"><ele>78.0</ele><time>2026-04-02T15:54:39Z</time></trkpt><trkpt lat="46.047004321990315" lon="12.9101029465063"><ele>78.0</ele><time>2026-04-02T15:54:40Z</time></trkpt><trkpt lat="46.04712977711095" lon="12.910100241207987"><ele>78.0</ele><time>2026-04-02T15:54:41Z</time></trkpt><trkpt lat="46.04723332971868" lon="12.910062743218202"><ele>78.0</ele><time>2026-04-02T15:54:42Z</time></trkpt><trkpt lat="46.04730654964683" lon="12.91004046717926"><ele>78.0</ele><time>2026-04-02T15:54:43Z</time></trkpt><trkpt lat="46.04739457047071" lon="12.910019964721409"><ele>78.2</ele><time>2026-04-02T15:54:44Z</time></trkpt><trkpt lat="46.047465109096116" lon="12.90996576550576"><ele>78.4</ele><time>2026-04-02T15:54:45Z</time></trkpt><trkpt lat="46.047543445961445" lon="12.909930720752866"><ele>78.60000000000001</ele><time>2026-04-02T15:54:46Z</time></trkpt><trkpt lat="46.04763250886208" lon="12.909921670725412"><ele>78.8</ele><time>2026-04-02T15:54:47Z</time></trkpt><trkpt lat="46.04774561590706" lon="12.90997151630523"><ele>79.0</ele><time>2026-04-02T15:54:48Z</time></trkpt><trkpt lat="46.047862552309546" lon="12.909998673700997"><ele>79.0</ele><time>2026-04-02T15:54:49Z</time></trkpt><trkpt lat="46.04795662562458" lon="12.91000676528555"><ele>79.0</ele><time>2026-04-02T15:54:50Z</time></trkpt><trkpt lat="46.0480469580844" lon="12.910015731832708"><ele>79.0</ele><time>2026-04-02T15:54:51Z</time></trkpt><trkpt lat="46.04814953406011" lon="12.91002462534765"><ele>79.0</ele><time>2026-04-02T15:54:52Z</time></trkpt><trkpt lat="46.04825642778659" lon="12.910045364060311"><ele>79.0</ele><time>2026-04-02T15:54:53Z</time></trkpt><trkpt lat="46.0483778999995" lon="12.910068216374698"><ele>78.2</ele><time>2026-04-02T15:54:54Z</time></trkpt><trkpt lat="46.048491639431354" lon="12.910086540770882"><ele>77.4</ele><time>2026-04-02T15:54:55Z</time></trkpt><trkpt lat="46.048591787271505" lon="12.910082987932439"><ele>76.6</ele><time>2026-04-02T15:54:56Z</time></trkpt><trkpt lat="46.048695326876064" lon="12.910083387705129"><ele>75.8</ele><time>2026-04-02T15:54:57Z</time></trkpt><trkpt lat="46.04877777257634" lon="12.910106467166845"><ele>75.0</ele><time>2026-04-02T15:54:58Z</time></trkpt><trkpt lat="46.0488662390618" lon="12.910110548727893"><ele>75.0</ele><time>2026-04-02T15:54:59Z</time></trkpt><trkpt lat="46.04898844160873" lon="12.91013375260859"><ele>75.0</ele><time>2026-04-02T15:55:00Z</time></trkpt><trkpt lat="46.04908133621587" lon="12.910138583773369"><ele>75.0</ele><time>2026-04-02T15:55:01Z</time></trkpt><trkpt lat="46.04916346963031" lon="12.91013662972339"><ele>75.0</ele><time>2026-04-02T15:55:02Z</time></trkpt><trkpt lat="46.049230424459665" lon="12.91013458321319"><ele>75.0</ele><time>2026-04-02T15:55:03Z</time></trkpt><trkpt lat="46.0493056295592" lon="12.910163261376947"><ele>75.0</ele><time>2026-04-02T15:55:04Z</time></trkpt><trkpt lat="46.04939859727435" lon="12.910157778905152"><ele>75.2</ele><time>2026-04-02T15:55:05Z</time></trkpt><trkpt lat="46.049499701930294" lon="12.910169159562567"><ele>75.4</ele><time>2026-04-02T15:55:06Z</time></trkpt><trkpt lat="46.049574679708655" lon="12.910152175836107"><ele>75.6</ele><time>2026-04-02T15:55:07Z</time></trkpt><trkpt lat="46.04967588568841" lon="12.910140224887586"><ele>75.8</ele><time>2026-04-02T15:55:09Z</time></trkpt><trkpt lat="46.04975118949813" lon="12.910143319506803"><ele>76.0</ele><time>2026-04-02T15:55:10Z</time></trkpt><trkpt lat="46.04987300066093" lon="12.910095150641892"><ele>75.8</ele><time>2026-04-02T15:55:11Z</time></trkpt><trkpt lat="46.049986808717385" lon="12.910077217295001"><ele>75.6</ele><time>2026-04-02T15:55:12Z</time></trkpt><trkpt lat="46.05008727321318" lon="12.91006860952066"><ele>75.4</ele><time>2026-04-02T15:55:13Z</time></trkpt><trkpt lat="46.05016809111124" lon="12.910058523085052"><ele>75.2</ele><time>2026-04-02T15:55:14Z</time></trkpt><trkpt lat="46.050269801015155" lon="12.910055049162116"><ele>75.0</ele><time>2026-04-02T15:55:16Z</time></trkpt><trkpt lat="46.050336424748494" lon="12.910104593995268"><ele>75.0</ele><time>2026-04-02T15:55:17Z</time></trkpt><trkpt lat="46.050386480314295" lon="12.91016934492201"><ele>75.0</ele><time>2026-04-02T15:55:18Z</time></trkpt><trkpt lat="46.05046776152882" lon="12.91024624213044"><ele>75.0</ele><time>2026-04-02T15:55:19Z</time></trkpt><trkpt lat="46.05054184740629" lon="12.910276968965345"><ele>75.0</ele><time>2026-04-02T15:55:20Z</time></trkpt><trkpt lat="46.05062349570026" lon="12.910339639607441"><ele>75.0</ele><time>2026-04-02T15:55:21Z</time></trkpt><trkpt lat="46.05070359106252" lon="12.91040493215899"><ele>75.0</ele><time>2026-04-02T15:55:22Z</time></trkpt><trkpt lat="46.05076540453005" lon="12.910471751404819"><ele>75.25</ele><time>2026-04-02T15:55:23Z</time></trkpt><trkpt lat="46.0508876104013" lon="12.910527322165715"><ele>75.5</ele><time>2026-04-02T15:55:24Z</time></trkpt><trkpt lat="46.051000629475766" lon="12.910575132147278"><ele>75.75</ele><time>2026-04-02T15:55:25Z</time></trkpt><trkpt lat="46.051098690306944" lon="12.91060345857224"><ele>76.0</ele><time>2026-04-02T15:55:26Z</time></trkpt><trkpt lat="46.05121332866027" lon="12.910640394302375"><ele>76.0</ele><time>2026-04-02T15:55:27Z</time></trkpt><trkpt lat="46.051322760054695" lon="12.910659850330331"><ele>76.0</ele><time>2026-04-02T15:55:28Z</time></trkpt><trkpt lat="46.051428382904064" lon="12.910672965070962"><ele>76.0</ele><time>2026-04-02T15:55:29Z</time></trkpt><trkpt lat="46.051543271399275" lon="12.910712498507923"><ele>76.0</ele><time>2026-04-02T15:55:30Z</time></trkpt><trkpt lat="46.05162227931723" lon="12.910709668411942"><ele>76.0</ele><time>2026-04-02T15:55:31Z</time></trkpt><trkpt lat="46.051728244324615" lon="12.910717413167795"><ele>76.2</ele><time>2026-04-02T15:55:32Z</time></trkpt><trkpt lat="46.051835917149056" lon="12.910725033759087"><ele>76.39999999999999</ele><time>2026-04-02T15:55:33Z</time></trkpt><trkpt lat="46.05194377907479" lon="12.910725230507357"><ele>76.6</ele><time>2026-04-02T15:55:34Z</time></trkpt><trkpt lat="46.05204285856036" lon="12.910717980653763"><ele>76.8</ele><time>2026-04-02T15:55:35Z</time></trkpt><trkpt lat="46.05212993128163" lon="12.910688834275888"><ele>77.0</ele><time>2026-04-02T15:55:36Z</time></trkpt><trkpt lat="46.052210436193555" lon="12.910655641498854"><ele>77.0</ele><time>2026-04-02T15:55:37Z</time></trkpt><trkpt lat="46.05229274839063" lon="12.910613961159346"><ele>77.0</ele><time>2026-04-02T15:55:38Z</time></trkpt><trkpt lat="46.05239179279845" lon="12.91060538301478"><ele>77.0</ele><time>2026-04-02T15:55:39Z</time></trkpt><trkpt lat="46.05248185341057" lon="12.910584468495541"><ele>77.0</ele><time>2026-04-02T15:55:40Z</time></trkpt><trkpt lat="46.052571771943605" lon="12.910573539844732"><ele>77.0</ele><time>2026-04-02T15:55:41Z</time></trkpt><trkpt lat="46.05265945160565" lon="12.91056096231409"><ele>77.0</ele><time>2026-04-02T15:55:42Z</time></trkpt><trkpt lat="46.05274461692508" lon="12.910567313445442"><ele>77.0</ele><time>2026-04-02T15:55:43Z</time></trkpt><trkpt lat="46.052857116526816" lon="12.910593696569496"><ele>77.0</ele><time>2026-04-02T15:55:44Z</time></trkpt><trkpt lat="46.052984252010916" lon="12.910612749371802"><ele>77.0</ele><time>2026-04-02T15:55:45Z</time></trkpt><trkpt lat="46.05309651247632" lon="12.91064567810977"><ele>77.0</ele><time>2026-04-02T15:55:46Z</time></trkpt><trkpt lat="46.05321988188374" lon="12.910658297236361"><ele>77.75</ele><time>2026-04-02T15:55:47Z</time></trkpt><trkpt lat="46.053322674699075" lon="12.910683545692299"><ele>78.5</ele><time>2026-04-02T15:55:48Z</time></trkpt><trkpt lat="46.05343968677617" lon="12.91071556584701"><ele>79.25</ele><time>2026-04-02T15:55:49Z</time></trkpt><trkpt lat="46.05356440274755" lon="12.910682756316758"><ele>80.0</ele><time>2026-04-02T15:55:50Z</time></trkpt><trkpt lat="46.053679721238474" lon="12.910643451390678"><ele>80.0</ele><time>2026-04-02T15:55:51Z</time></trkpt><trkpt lat="46.053758947599796" lon="12.910632262722025"><ele>80.0</ele><time>2026-04-02T15:55:52Z</time></trkpt><trkpt lat="46.053852590162926" lon="12.91061279796575"><ele>80.0</ele><time>2026-04-02T15:55:53Z</time></trkpt><trkpt lat="46.05394846330887" lon="12.910617051910974"><ele>80.0</ele><time>2026-04-02T15:55:54Z</time></trkpt><trkpt lat="46.05404653040994" lon="12.910617298348741"><ele>80.0</ele><time>2026-04-02T15:55:55Z</time></trkpt><trkpt lat="46.054150846614505" lon="12.910581108413666"><ele>79.75</ele><time>2026-04-02T15:55:56Z</time></trkpt><trkpt lat="46.05427760904431" lon="12.910493510072005"><ele>79.5</ele><time>2026-04-02T15:55:57Z</time></trkpt><trkpt lat="46.054400095592506" lon="12.91046979989402"><ele>79.25</ele><time>2026-04-02T15:55:58Z</time></trkpt><trkpt lat="46.05449199632804" lon="12.9104434345317"><ele>79.0</ele><time>2026-04-02T15:55:59Z</time></trkpt><trkpt lat="46.05458200145463" lon="12.91040379203496"><ele>79.0</ele><time>2026-04-02T15:56:00Z</time></trkpt><trkpt lat="46.054651222779185" lon="12.910372130654862"><ele>79.0</ele><time>2026-04-02T15:56:01Z</time></trkpt><trkpt lat="46.054722371856094" lon="12.910347419945118"><ele>79.0</ele><time>2026-04-02T15:56:02Z</time></trkpt><trkpt lat="46.054817176481265" lon="12.910332897386109"><ele>79.0</ele><time>2026-04-02T15:56:03Z</time></trkpt><trkpt lat="46.05490727174627" lon="12.910349104463398"><ele>79.0</ele><time>2026-04-02T15:56:04Z</time></trkpt><trkpt lat="46.05500896220271" lon="12.910377975495651"><ele>79.0</ele><time>2026-04-02T15:56:05Z</time></trkpt><trkpt lat="46.055078724836676" lon="12.910374150150211"><ele>78.83333333333333</ele><time>2026-04-02T15:56:06Z</time></trkpt><trkpt lat="46.05514284691611" lon="12.910345715104201"><ele>78.66666666666666</ele><time>2026-04-02T15:56:07Z</time></trkpt><trkpt lat="46.05521385224065" lon="12.910329858199946"><ele>78.5</ele><time>2026-04-02T15:56:08Z</time></trkpt><trkpt lat="46.05531654227696" lon="12.910363823106778"><ele>78.33333333333333</ele><time>2026-04-02T15:56:10Z</time></trkpt><trkpt lat="46.05542017945968" lon="12.910392197533394"><ele>78.16666666666667</ele><time>2026-04-02T15:56:11Z</time></trkpt><trkpt lat="46.05550360233383" lon="12.910389317018328"><ele>78.0</ele><time>2026-04-02T15:56:12Z</time></trkpt><trkpt lat="46.05558265909403" lon="12.910381434934445"><ele>78.0</ele><time>2026-04-02T15:56:13Z</time></trkpt><trkpt lat="46.05564868243105" lon="12.910367165204779"><ele>78.0</ele><time>2026-04-02T15:56:14Z</time></trkpt><trkpt lat="46.055717035803696" lon="12.910336230640018"><ele>78.0</ele><time>2026-04-02T15:56:15Z</time></trkpt><trkpt lat="46.05580050501691" lon="12.910286352516183"><ele>78.0</ele><time>2026-04-02T15:56:17Z</time></trkpt><trkpt lat="46.05585531837894" lon="12.910222440968003"><ele>78.0</ele><time>2026-04-02T15:56:18Z</time></trkpt><trkpt lat="46.055934030111985" lon="12.910182415364407"><ele>78.0</ele><time>2026-04-02T15:56:19Z</time></trkpt><trkpt lat="46.056001766443124" lon="12.910142469961183"><ele>78.16666666666667</ele><time>2026-04-02T15:56:20Z</time></trkpt><trkpt lat="46.056062238791384" lon="12.910103791679127"><ele>78.33333333333333</ele><time>2026-04-02T15:56:21Z</time></trkpt><trkpt lat="46.05613125010723" lon="12.910090798977132"><ele>78.5</ele><time>2026-04-02T15:56:22Z</time></trkpt><trkpt lat="46.05621733582417" lon="12.910097811676511"><ele>78.66666666666666</ele><time>2026-04-02T15:56:23Z</time></trkpt><trkpt lat="46.056315702748655" lon="12.9100706600777"><ele>78.83333333333333</ele><time>2026-04-02T15:56:24Z</time></trkpt><trkpt lat="46.056411140648045" lon="12.910032555780722"><ele>79.0</ele><time>2026-04-02T15:56:25Z</time></trkpt><trkpt lat="46.05649749416893" lon="12.91001015652807"><ele>79.0</ele><time>2026-04-02T15:56:26Z</time></trkpt><trkpt lat="46.05658007826356" lon="12.909977054226664"><ele>79.0</ele><time>2026-04-02T15:56:27Z</time></trkpt><trkpt lat="46.05666864862" lon="12.90996172460876"><ele>79.0</ele><time>2026-04-02T15:56:28Z</time></trkpt><trkpt lat="46.0567647840055" lon="12.90993969374919"><ele>79.0</ele><time>2026-04-02T15:56:29Z</time></trkpt><trkpt lat="46.056864790971275" lon="12.909911195161827"><ele>79.0</ele><time>2026-04-02T15:56:30Z</time></trkpt><trkpt lat="46.05696432372968" lon="12.909893943541022"><ele>79.4</ele><time>2026-04-02T15:56:31Z</time></trkpt><trkpt lat="46.05706035784601" lon="12.909883042180114"><ele>79.80000000000001</ele><time>2026-04-02T15:56:32Z</time></trkpt><trkpt lat="46.057150587649346" lon="12.909880401111247"><ele>80.19999999999999</ele><time>2026-04-02T15:56:33Z</time></trkpt><trkpt lat="46.057242616039545" lon="12.90988952311818"><ele>80.6</ele><time>2026-04-02T15:56:34Z</time></trkpt><trkpt lat="46.05733678239494" lon="12.90990449567618"><ele>81.0</ele><time>2026-04-02T15:56:35Z</time></trkpt><trkpt lat="46.057434971903966" lon="12.90992914419543"><ele>81.0</ele><time>2026-04-02T15:56:36Z</time></trkpt><trkpt lat="46.05754245699299" lon="12.909957960633033"><ele>81.0</ele><time>2026-04-02T15:56:37Z</time></trkpt><trkpt lat="46.057652500951704" lon="12.909987783138371"><ele>81.0</ele><time>2026-04-02T15:56:38Z</time></trkpt><trkpt lat="46.05776493577022" lon="12.910006139578025"><ele>81.0</ele><time>2026-04-02T15:56:39Z</time></trkpt><trkpt lat="46.057860976726396" lon="12.910028341416085"><ele>81.0</ele><time>2026-04-02T15:56:40Z</time></trkpt><trkpt lat="46.05795684125481" lon="12.910050264216059"><ele>80.83333333333333</ele><time>2026-04-02T15:56:41Z</time></trkpt><trkpt lat="46.05802692922161" lon="12.910081147322584"><ele>80.66666666666667</ele><time>2026-04-02T15:56:42Z</time></trkpt><trkpt lat="46.058105997578735" lon="12.910101321704657"><ele>80.5</ele><time>2026-04-02T15:56:43Z</time></trkpt><trkpt lat="46.05817292266459" lon="12.91014398427754"><ele>80.33333333333334</ele><time>2026-04-02T15:56:44Z</time></trkpt><trkpt lat="46.058242357634185" lon="12.91015757427226"><ele>80.16666666666667</ele><time>2026-04-02T15:56:45Z</time></trkpt><trkpt lat="46.058365718780436" lon="12.910216562301915"><ele>80.0</ele><time>2026-04-02T15:56:47Z</time></trkpt><trkpt lat="46.05852377305847" lon="12.910231444344747"><ele>79.8</ele><time>2026-04-02T15:56:49Z</time></trkpt><trkpt lat="46.05863565664085" lon="12.910246614024809"><ele>79.6</ele><time>2026-04-02T15:56:50Z</time></trkpt><trkpt lat="46.05873517978108" lon="12.91025474195645"><ele>79.4</ele><time>2026-04-02T15:56:51Z</time></trkpt><trkpt lat="46.058819413400926" lon="12.910233679415743"><ele>79.2</ele><time>2026-04-02T15:56:52Z</time></trkpt><trkpt lat="46.058897095941575" lon="12.910186394207413"><ele>79.0</ele><time>2026-04-02T15:56:53Z</time></trkpt><trkpt lat="46.058983846302255" lon="12.910118825733253"><ele>79.16666666666666</ele><time>2026-04-02T15:56:54Z</time></trkpt><trkpt lat="46.05904770944706" lon="12.910060041124902"><ele>79.33333333333333</ele><time>2026-04-02T15:56:55Z</time></trkpt><trkpt lat="46.059110984153804" lon="12.910014781090014"><ele>79.5</ele><time>2026-04-02T15:56:56Z</time></trkpt><trkpt lat="46.05918928214806" lon="12.909962472719792"><ele>79.66666666666667</ele><time>2026-04-02T15:56:57Z</time></trkpt><trkpt lat="46.059272791678374" lon="12.909931761436916"><ele>79.83333333333334</ele><time>2026-04-02T15:56:58Z</time></trkpt><trkpt lat="46.059376049495505" lon="12.909910393501509"><ele>80.0</ele><time>2026-04-02T15:56:59Z</time></trkpt><trkpt lat="46.059472362668586" lon="12.909926381887043"><ele>80.0</ele><time>2026-04-02T15:57:00Z</time></trkpt><trkpt lat="46.059606855248305" lon="12.909898228151754"><ele>80.0</ele><time>2026-04-02T15:57:01Z</time></trkpt><trkpt lat="46.059728426704616" lon="12.909857841371608"><ele>80.0</ele><time>2026-04-02T15:57:02Z</time></trkpt><trkpt lat="46.05981922508551" lon="12.909859314840995"><ele>80.0</ele><time>2026-04-02T15:57:03Z</time></trkpt><trkpt lat="46.0599206319047" lon="12.909849118063656"><ele>80.6</ele><time>2026-04-02T15:57:04Z</time></trkpt><trkpt lat="46.06001472065572" lon="12.909835618188435"><ele>81.2</ele><time>2026-04-02T15:57:05Z</time></trkpt><trkpt lat="46.060128634980686" lon="12.909849884836788"><ele>81.80000000000001</ele><time>2026-04-02T15:57:06Z</time></trkpt><trkpt lat="46.06024789095568" lon="12.909858095228333"><ele>82.4</ele><time>2026-04-02T15:57:07Z</time></trkpt><trkpt lat="46.06031024256503" lon="12.909873344814418"><ele>83.0</ele><time>2026-04-02T15:57:08Z</time></trkpt><trkpt lat="46.06040304471057" lon="12.909905424181392"><ele>83.0</ele><time>2026-04-02T15:57:10Z</time></trkpt><trkpt lat="46.06051558206917" lon="12.909927333781319"><ele>83.0</ele><time>2026-04-02T15:57:12Z</time></trkpt><trkpt lat="46.06057885737085" lon="12.909930787003404"><ele>83.0</ele><time>2026-04-02T15:57:13Z</time></trkpt><trkpt lat="46.06064508534225" lon="12.909938628883943"><ele>83.0</ele><time>2026-04-02T15:57:14Z</time></trkpt><trkpt lat="46.06072026498249" lon="12.90994721729256"><ele>83.0</ele><time>2026-04-02T15:57:15Z</time></trkpt><trkpt lat="46.06079956117296" lon="12.909937190364277"><ele>83.0</ele><time>2026-04-02T15:57:16Z</time></trkpt><trkpt lat="46.06086669805555" lon="12.909912521563257"><ele>83.16666666666667</ele><time>2026-04-02T15:57:17Z</time></trkpt><trkpt lat="46.06094247415161" lon="12.909865878047484"><ele>83.33333333333334</ele><time>2026-04-02T15:57:19Z</time></trkpt><trkpt lat="46.06101160515099" lon="12.909858448612905"><ele>83.5</ele><time>2026-04-02T15:57:20Z</time></trkpt><trkpt lat="46.06110987800412" lon="12.909827687858009"><ele>83.66666666666667</ele><time>2026-04-02T15:57:22Z</time></trkpt><trkpt lat="46.06123211608076" lon="12.909852842807235"><ele>83.83333333333333</ele><time>2026-04-02T15:57:24Z</time></trkpt><trkpt lat="46.06130225234269" lon="12.909859569807976"><ele>84.0</ele><time>2026-04-02T15:57:25Z</time></trkpt><trkpt lat="46.0614126070217" lon="12.909841979205169"><ele>84.0</ele><time>2026-04-02T15:57:27Z</time></trkpt><trkpt lat="46.061566575733416" lon="12.909857148103123"><ele>84.0</ele><time>2026-04-02T15:57:29Z</time></trkpt><trkpt lat="46.06165679265652" lon="12.909828770428305"><ele>84.0</ele><time>2026-04-02T15:57:30Z</time></trkpt><trkpt lat="46.061734603117856" lon="12.909825660632968"><ele>84.0</ele><time>2026-04-02T15:57:31Z</time></trkpt><trkpt lat="46.061801768847026" lon="12.9098061663072"><ele>84.0</ele><time>2026-04-02T15:57:32Z</time></trkpt><trkpt lat="46.06187393371605" lon="12.909778844546741"><ele>83.6</ele><time>2026-04-02T15:57:33Z</time></trkpt><trkpt lat="46.061956058924004" lon="12.909729770203407"><ele>83.2</ele><time>2026-04-02T15:57:34Z</time></trkpt><trkpt lat="46.062055426897864" lon="12.909663904156975"><ele>82.8</ele><time>2026-04-02T15:57:35Z</time></trkpt><trkpt lat="46.06215756220882" lon="12.909599054653278"><ele>82.39999999999999</ele><time>2026-04-02T15:57:36Z</time></trkpt><trkpt lat="46.0622272781041" lon="12.909548090435099"><ele>82.0</ele><time>2026-04-02T15:57:37Z</time></trkpt><trkpt lat="46.06228894502359" lon="12.909483831376518"><ele>82.0</ele><time>2026-04-02T15:57:38Z</time></trkpt><trkpt lat="46.06236192628577" lon="12.909420452197615"><ele>82.0</ele><time>2026-04-02T15:57:39Z</time></trkpt><trkpt lat="46.06242297795825" lon="12.909379610914257"><ele>82.0</ele><time>2026-04-02T15:57:40Z</time></trkpt><trkpt lat="46.06250966039788" lon="12.909340375140195"><ele>82.0</ele><time>2026-04-02T15:57:41Z</time></trkpt><trkpt lat="46.062606772373165" lon="12.909274978693187"><ele>82.0</ele><time>2026-04-02T15:57:42Z</time></trkpt><trkpt lat="46.06267825814993" lon="12.9091458977242"><ele>82.39999999999999</ele><time>2026-04-02T15:57:43Z</time></trkpt><trkpt lat="46.06275024879231" lon="12.90904615829099"><ele>82.8</ele><time>2026-04-02T15:57:44Z</time></trkpt><trkpt lat="46.06284227080639" lon="12.908997490955802"><ele>83.2</ele><time>2026-04-02T15:57:45Z</time></trkpt><trkpt lat="46.062918475997314" lon="12.908965861117096"><ele>83.6</ele><time>2026-04-02T15:57:46Z</time></trkpt><trkpt lat="46.063005386225505" lon="12.908930177129882"><ele>84.0</ele><time>2026-04-02T15:57:47Z</time></trkpt><trkpt lat="46.06310887102298" lon="12.908897088661941"><ele>84.0</ele><time>2026-04-02T15:57:48Z</time></trkpt><trkpt lat="46.06320699248188" lon="12.908829484410864"><ele>84.0</ele><time>2026-04-02T15:57:49Z</time></trkpt><trkpt lat="46.0632979759007" lon="12.908785577201481"><ele>84.0</ele><time>2026-04-02T15:57:50Z</time></trkpt><trkpt lat="46.06338612526581" lon="12.908727016560672"><ele>84.0</ele><time>2026-04-02T15:57:51Z</time></trkpt><trkpt lat="46.063468801016384" lon="12.908657233331276"><ele>84.0</ele><time>2026-04-02T15:57:52Z</time></trkpt><trkpt lat="46.06354579056276" lon="12.908589173188558"><ele>83.80000000000001</ele><time>2026-04-02T15:57:53Z</time></trkpt><trkpt lat="46.063623246706385" lon="12.90852617749609"><ele>83.60000000000001</ele><time>2026-04-02T15:57:54Z</time></trkpt><trkpt lat="46.06370242175124" lon="12.90842010829642"><ele>83.4</ele><time>2026-04-02T15:57:55Z</time></trkpt><trkpt lat="46.06377624237806" lon="12.908316656683628"><ele>83.2</ele><time>2026-04-02T15:57:56Z</time></trkpt><trkpt lat="46.063842828658245" lon="12.908238054821076"><ele>83.0</ele><time>2026-04-02T15:57:57Z</time></trkpt><trkpt lat="46.063908113846544" lon="12.908160071778143"><ele>83.0</ele><time>2026-04-02T15:57:58Z</time></trkpt><trkpt lat="46.063966557668785" lon="12.908072453496635"><ele>83.0</ele><time>2026-04-02T15:57:59Z</time></trkpt><trkpt lat="46.06402027843364" lon="12.907960408518015"><ele>83.0</ele><time>2026-04-02T15:58:00Z</time></trkpt><trkpt lat="46.064084134341236" lon="12.907820095877735"><ele>83.0</ele><time>2026-04-02T15:58:01Z</time></trkpt><trkpt lat="46.06417140345431" lon="12.907691003463063"><ele>83.0</ele><time>2026-04-02T15:58:02Z</time></trkpt><trkpt lat="46.06423612716409" lon="12.907559129074452"><ele>83.0</ele><time>2026-04-02T15:58:03Z</time></trkpt><trkpt lat="46.06428915604741" lon="12.907471294056004"><ele>83.0</ele><time>2026-04-02T15:58:04Z</time></trkpt><trkpt lat="46.06434763774072" lon="12.90737328475966"><ele>83.0</ele><time>2026-04-02T15:58:05Z</time></trkpt><trkpt lat="46.064403356148055" lon="12.907285410432747"><ele>83.0</ele><time>2026-04-02T15:58:06Z</time></trkpt><trkpt lat="46.064468638439074" lon="12.90717574783628"><ele>83.0</ele><time>2026-04-02T15:58:07Z</time></trkpt><trkpt lat="46.064520214239174" lon="12.90707224053566"><ele>83.0</ele><time>2026-04-02T15:58:08Z</time></trkpt><trkpt lat="46.064549705780195" lon="12.906967078877342"><ele>83.0</ele><time>2026-04-02T15:58:09Z</time></trkpt><trkpt lat="46.06459330897886" lon="12.906891548781173"><ele>83.0</ele><time>2026-04-02T15:58:10Z</time></trkpt><trkpt lat="46.06465015177873" lon="12.906844457156465"><ele>83.0</ele><time>2026-04-02T15:58:11Z</time></trkpt><trkpt lat="46.06475440169902" lon="12.90675313935722"><ele>83.0</ele><time>2026-04-02T15:58:13Z</time></trkpt><trkpt lat="46.06482517286039" lon="12.90666312165025"><ele>83.0</ele><time>2026-04-02T15:58:14Z</time></trkpt><trkpt lat="46.06491309187207" lon="12.90654858375229"><ele>83.0</ele><time>2026-04-02T15:58:15Z</time></trkpt><trkpt lat="46.06498082039607" lon="12.90644399894026"><ele>83.0</ele><time>2026-04-02T15:58:16Z</time></trkpt><trkpt lat="46.065033519138176" lon="12.906345358849494"><ele>83.0</ele><time>2026-04-02T15:58:17Z</time></trkpt><trkpt lat="46.06509098044976" lon="12.906239049509262"><ele>83.0</ele><time>2026-04-02T15:58:18Z</time></trkpt><trkpt lat="46.06516231104202" lon="12.906097908686595"><ele>83.0</ele><time>2026-04-02T15:58:19Z</time></trkpt><trkpt lat="46.06522638878137" lon="12.905950923468902"><ele>83.2</ele><time>2026-04-02T15:58:20Z</time></trkpt><trkpt lat="46.06527502112594" lon="12.905835597110539"><ele>83.4</ele><time>2026-04-02T15:58:21Z</time></trkpt><trkpt lat="46.06532076051395" lon="12.905728317402588"><ele>83.60000000000001</ele><time>2026-04-02T15:58:22Z</time></trkpt><trkpt lat="46.06536977465299" lon="12.905609851591226"><ele>83.80000000000001</ele><time>2026-04-02T15:58:23Z</time></trkpt><trkpt lat="46.065416595811286" lon="12.905473474790794"><ele>84.0</ele><time>2026-04-02T15:58:24Z</time></trkpt><trkpt lat="46.06546662026854" lon="12.905331160714503"><ele>84.0</ele><time>2026-04-02T15:58:25Z</time></trkpt><trkpt lat="46.065513260573624" lon="12.90520674589837"><ele>84.0</ele><time>2026-04-02T15:58:26Z</time></trkpt><trkpt lat="46.06554484740442" lon="12.905105025236109"><ele>84.0</ele><time>2026-04-02T15:58:27Z</time></trkpt><trkpt lat="46.06556482545048" lon="12.904991753511595"><ele>84.0</ele><time>2026-04-02T15:58:28Z</time></trkpt><trkpt lat="46.06558411432059" lon="12.904864850491917"><ele>84.0</ele><time>2026-04-02T15:58:29Z</time></trkpt><trkpt lat="46.0656142780812" lon="12.904733157266344"><ele>84.0</ele><time>2026-04-02T15:58:30Z</time></trkpt><trkpt lat="46.0656526788563" lon="12.904589728818408"><ele>84.2</ele><time>2026-04-02T15:58:31Z</time></trkpt><trkpt lat="46.06569385731019" lon="12.904442290766877"><ele>84.4</ele><time>2026-04-02T15:58:32Z</time></trkpt><trkpt lat="46.06572919535497" lon="12.904334091847737"><ele>84.6</ele><time>2026-04-02T15:58:33Z</time></trkpt><trkpt lat="46.065761089203384" lon="12.904215600038397"><ele>84.8</ele><time>2026-04-02T15:58:34Z</time></trkpt><trkpt lat="46.06578603441298" lon="12.904066632003573"><ele>85.0</ele><time>2026-04-02T15:58:35Z</time></trkpt><trkpt lat="46.065811208300666" lon="12.903939586605523"><ele>85.0</ele><time>2026-04-02T15:58:36Z</time></trkpt><trkpt lat="46.06583329744695" lon="12.903834114882738"><ele>85.0</ele><time>2026-04-02T15:58:37Z</time></trkpt><trkpt lat="46.06584733094275" lon="12.903709669835596"><ele>85.0</ele><time>2026-04-02T15:58:38Z</time></trkpt><trkpt lat="46.065875706902865" lon="12.903569263471086"><ele>85.0</ele><time>2026-04-02T15:58:39Z</time></trkpt><trkpt lat="46.065923983566336" lon="12.903413034031972"><ele>85.0</ele><time>2026-04-02T15:58:40Z</time></trkpt><trkpt lat="46.06596628043964" lon="12.903288762621328"><ele>85.2</ele><time>2026-04-02T15:58:41Z</time></trkpt><trkpt lat="46.06598297114479" lon="12.903149601985488"><ele>85.4</ele><time>2026-04-02T15:58:42Z</time></trkpt><trkpt lat="46.06598818916464" lon="12.903009025463039"><ele>85.6</ele><time>2026-04-02T15:58:43Z</time></trkpt><trkpt lat="46.066030370724626" lon="12.90290943233953"><ele>85.8</ele><time>2026-04-02T15:58:44Z</time></trkpt><trkpt lat="46.0660691291761" lon="12.902798816628295"><ele>86.0</ele><time>2026-04-02T15:58:45Z</time></trkpt><trkpt lat="46.066106956185045" lon="12.902606156323005"><ele>86.16666666666667</ele><time>2026-04-02T15:58:47Z</time></trkpt><trkpt lat="46.06613416059219" lon="12.902509990837737"><ele>86.33333333333334</ele><time>2026-04-02T15:58:48Z</time></trkpt><trkpt lat="46.066158379897104" lon="12.90242547851718"><ele>86.5</ele><time>2026-04-02T15:58:49Z</time></trkpt><trkpt lat="46.06618559925962" lon="12.902322066900645"><ele>86.66666666666667</ele><time>2026-04-02T15:58:50Z</time></trkpt><trkpt lat="46.0662313463609" lon="12.9022215191854"><ele>86.83333333333333</ele><time>2026-04-02T15:58:51Z</time></trkpt><trkpt lat="46.066269371797816" lon="12.902089702411166"><ele>87.0</ele><time>2026-04-02T15:58:52Z</time></trkpt><trkpt lat="46.066308559726046" lon="12.901963414013146"><ele>87.0</ele><time>2026-04-02T15:58:53Z</time></trkpt><trkpt lat="46.06633271881687" lon="12.901836949118813"><ele>87.0</ele><time>2026-04-02T15:58:54Z</time></trkpt><trkpt lat="46.06634503266418" lon="12.90168502937474"><ele>87.0</ele><time>2026-04-02T15:58:55Z</time></trkpt><trkpt lat="46.06634869917817" lon="12.90151525260884"><ele>87.0</ele><time>2026-04-02T15:58:56Z</time></trkpt><trkpt lat="46.066328379368485" lon="12.901368770058161"><ele>87.0</ele><time>2026-04-02T15:58:57Z</time></trkpt><trkpt lat="46.066315432109896" lon="12.901223103799593"><ele>87.33333333333333</ele><time>2026-04-02T15:58:58Z</time></trkpt><trkpt lat="46.06631118525405" lon="12.901091566595891"><ele>87.66666666666667</ele><time>2026-04-02T15:58:59Z</time></trkpt><trkpt lat="46.06632350403839" lon="12.900973749326912"><ele>88.0</ele><time>2026-04-02T15:59:00Z</time></trkpt><trkpt lat="46.06634002628672" lon="12.900845441714702"><ele>88.33333333333334</ele><time>2026-04-02T15:59:01Z</time></trkpt><trkpt lat="46.06634053363706" lon="12.900713758744587"><ele>88.66666666666667</ele><time>2026-04-02T15:59:02Z</time></trkpt><trkpt lat="46.06636238660725" lon="12.900597131244592"><ele>89.0</ele><time>2026-04-02T15:59:03Z</time></trkpt><trkpt lat="46.06637723572856" lon="12.900463456741488"><ele>88.80000000000001</ele><time>2026-04-02T15:59:04Z</time></trkpt><trkpt lat="46.06638909729817" lon="12.900318358872443"><ele>88.60000000000001</ele><time>2026-04-02T15:59:05Z</time></trkpt><trkpt lat="46.06639274461203" lon="12.900173145762755"><ele>88.4</ele><time>2026-04-02T15:59:06Z</time></trkpt><trkpt lat="46.06639764918772" lon="12.900033030230034"><ele>88.2</ele><time>2026-04-02T15:59:07Z</time></trkpt><trkpt lat="46.06639905246451" lon="12.899904131503163"><ele>88.0</ele><time>2026-04-02T15:59:08Z</time></trkpt><trkpt lat="46.066397769760364" lon="12.899782942732248"><ele>88.0</ele><time>2026-04-02T15:59:09Z</time></trkpt><trkpt lat="46.06640526062019" lon="12.89968889074765"><ele>88.0</ele><time>2026-04-02T15:59:10Z</time></trkpt><trkpt lat="46.06643257846354" lon="12.899594435523037"><ele>88.0</ele><time>2026-04-02T15:59:11Z</time></trkpt><trkpt lat="46.06646826751039" lon="12.899481032438839"><ele>88.0</ele><time>2026-04-02T15:59:12Z</time></trkpt><trkpt lat="46.06650019951257" lon="12.899336782868678"><ele>88.0</ele><time>2026-04-02T15:59:13Z</time></trkpt><trkpt lat="46.0665344125339" lon="12.89917639129197"><ele>88.0</ele><time>2026-04-02T15:59:14Z</time></trkpt><trkpt lat="46.06657282614943" lon="12.898979270142458"><ele>88.0</ele><time>2026-04-02T15:59:15Z</time></trkpt><trkpt lat="46.06663970346285" lon="12.898676255145103"><ele>88.0</ele><time>2026-04-02T15:59:17Z</time></trkpt><trkpt lat="46.066663938651985" lon="12.898548423905563"><ele>88.0</ele><time>2026-04-02T15:59:18Z</time></trkpt><trkpt lat="46.06668581376611" lon="12.898400133981088"><ele>88.0</ele><time>2026-04-02T15:59:19Z</time></trkpt><trkpt lat="46.06671242939885" lon="12.898249807953976"><ele>88.0</ele><time>2026-04-02T15:59:20Z</time></trkpt><trkpt lat="46.06673981929463" lon="12.898118897779941"><ele>88.0</ele><time>2026-04-02T15:59:21Z</time></trkpt><trkpt lat="46.06676677782594" lon="12.89796629953718"><ele>88.0</ele><time>2026-04-02T15:59:22Z</time></trkpt><trkpt lat="46.066796086500496" lon="12.897824231888844"><ele>88.0</ele><time>2026-04-02T15:59:23Z</time></trkpt><trkpt lat="46.06683783490114" lon="12.897669032930423"><ele>88.0</ele><time>2026-04-02T15:59:24Z</time></trkpt><trkpt lat="46.066895717324186" lon="12.897508485115678"><ele>88.0</ele><time>2026-04-02T15:59:25Z</time></trkpt><trkpt lat="46.06694902026269" lon="12.897380374623635"><ele>88.0</ele><time>2026-04-02T15:59:26Z</time></trkpt><trkpt lat="46.067027546894074" lon="12.897292507112276"><ele>88.0</ele><time>2026-04-02T15:59:27Z</time></trkpt><trkpt lat="46.067099036189944" lon="12.897192540848168"><ele>88.0</ele><time>2026-04-02T15:59:28Z</time></trkpt><trkpt lat="46.067130369655196" lon="12.89705995816908"><ele>88.0</ele><time>2026-04-02T15:59:29Z</time></trkpt><trkpt lat="46.06719728546449" lon="12.896955506985751"><ele>88.0</ele><time>2026-04-02T15:59:30Z</time></trkpt><trkpt lat="46.06724909076152" lon="12.89686044065945"><ele>88.0</ele><time>2026-04-02T15:59:31Z</time></trkpt><trkpt lat="46.06729062666079" lon="12.8967535417487"><ele>88.0</ele><time>2026-04-02T15:59:32Z</time></trkpt><trkpt lat="46.067333299307585" lon="12.896622515084625"><ele>88.0</ele><time>2026-04-02T15:59:33Z</time></trkpt><trkpt lat="46.067396550503894" lon="12.896482858707467"><ele>88.0</ele><time>2026-04-02T15:59:34Z</time></trkpt><trkpt lat="46.06745087096955" lon="12.896341316281772"><ele>88.16666666666666</ele><time>2026-04-02T15:59:35Z</time></trkpt><trkpt lat="46.06750085999379" lon="12.896220112650003"><ele>88.33333333333333</ele><time>2026-04-02T15:59:36Z</time></trkpt><trkpt lat="46.0675522879103" lon="12.896119854157371"><ele>88.5</ele><time>2026-04-02T15:59:37Z</time></trkpt><trkpt lat="46.06760696750391" lon="12.896019033596241"><ele>88.66666666666667</ele><time>2026-04-02T15:59:38Z</time></trkpt><trkpt lat="46.06766033175557" lon="12.895914913284981"><ele>88.83333333333334</ele><time>2026-04-02T15:59:39Z</time></trkpt><trkpt lat="46.06770408905017" lon="12.895827946708325"><ele>89.0</ele><time>2026-04-02T15:59:40Z</time></trkpt><trkpt lat="46.06775838984751" lon="12.895709033906824"><ele>89.2</ele><time>2026-04-02T15:59:42Z</time></trkpt><trkpt lat="46.06781852722823" lon="12.895595903582157"><ele>89.4</ele><time>2026-04-02T15:59:45Z</time></trkpt><trkpt lat="46.06787862736079" lon="12.895545019333888"><ele>89.6</ele><time>2026-04-02T15:59:47Z</time></trkpt><trkpt lat="46.06796017241969" lon="12.89547303487039"><ele>89.8</ele><time>2026-04-02T16:03:35Z</time></trkpt><trkpt lat="46.06801669288392" lon="12.895383820257589"><ele>90.0</ele><time>2026-04-02T16:03:38Z</time></trkpt><trkpt lat="46.06808919721347" lon="12.895262216695146"><ele>90.0</ele><time>2026-04-02T16:03:40Z</time></trkpt><trkpt lat="46.068140383396035" lon="12.895193996519968"><ele>90.0</ele><time>2026-04-02T16:03:41Z</time></trkpt><trkpt lat="46.068211318608306" lon="12.895117481162513"><ele>90.0</ele><time>2026-04-02T16:03:42Z</time></trkpt><trkpt lat="46.068282779543026" lon="12.895038746782134"><ele>90.0</ele><time>2026-04-02T16:03:43Z</time></trkpt><trkpt lat="46.06834806956772" lon="12.894958664881601"><ele>90.0</ele><time>2026-04-02T16:03:44Z</time></trkpt><trkpt lat="46.06840139641397" lon="12.89488913234874"><ele>90.0</ele><time>2026-04-02T16:03:45Z</time></trkpt><trkpt lat="46.068447805323736" lon="12.894816559789888"><ele>90.0</ele><time>2026-04-02T16:03:46Z</time></trkpt><trkpt lat="46.06849026291542" lon="12.894726171840842"><ele>90.0</ele><time>2026-04-02T16:03:47Z</time></trkpt><trkpt lat="46.06853452152793" lon="12.894632771142776"><ele>90.0</ele><time>2026-04-02T16:03:48Z</time></trkpt><trkpt lat="46.06857389610854" lon="12.89456068534156"><ele>90.0</ele><time>2026-04-02T16:03:49Z</time></trkpt><trkpt lat="46.0686280253369" lon="12.894486471620487"><ele>90.0</ele><time>2026-04-02T16:03:50Z</time></trkpt><trkpt lat="46.068693191511365" lon="12.894381133778783"><ele>90.0</ele><time>2026-04-02T16:03:51Z</time></trkpt><trkpt lat="46.068759264526285" lon="12.894255510697343"><ele>89.66666666666667</ele><time>2026-04-02T16:03:52Z</time></trkpt><trkpt lat="46.06882917840543" lon="12.894149656647597"><ele>89.33333333333333</ele><time>2026-04-02T16:03:53Z</time></trkpt><trkpt lat="46.06889679627655" lon="12.894055883452555"><ele>89.0</ele><time>2026-04-02T16:03:54Z</time></trkpt><trkpt lat="46.068951750257646" lon="12.893959367831911"><ele>88.66666666666666</ele><time>2026-04-02T16:03:55Z</time></trkpt><trkpt lat="46.068986742956696" lon="12.893855387008685"><ele>88.33333333333333</ele><time>2026-04-02T16:03:56Z</time></trkpt><trkpt lat="46.06902991339709" lon="12.8937465983701"><ele>88.0</ele><time>2026-04-02T16:03:57Z</time></trkpt><trkpt lat="46.069097675377655" lon="12.893671620042157"><ele>88.60000000000001</ele><time>2026-04-02T16:03:58Z</time></trkpt><trkpt lat="46.069156838520925" lon="12.893582626523967"><ele>89.2</ele><time>2026-04-02T16:03:59Z</time></trkpt><trkpt lat="46.06923360148887" lon="12.89348891935633"><ele>89.8</ele><time>2026-04-02T16:03:59.999Z</time></trkpt><trkpt lat="46.06929427405597" lon="12.89337067581578"><ele>90.4</ele><time>2026-04-02T16:04:00.999Z</time></trkpt><trkpt lat="46.069347522379424" lon="12.893228910243424"><ele>91.0</ele><time>2026-04-02T16:04:01.999Z</time></trkpt><trkpt lat="46.06940819791522" lon="12.893075252300115"><ele>91.0</ele><time>2026-04-02T16:04:02.999Z</time></trkpt><trkpt lat="46.06946121381865" lon="12.892939002286143"><ele>91.0</ele><time>2026-04-02T16:04:03.999Z</time></trkpt><trkpt lat="46.06950478369683" lon="12.892813219006594"><ele>91.0</ele><time>2026-04-02T16:04:04.999Z</time></trkpt><trkpt lat="46.06954986156157" lon="12.892697788121668"><ele>91.0</ele><time>2026-04-02T16:04:05.999Z</time></trkpt><trkpt lat="46.06960136200346" lon="12.89257923793346"><ele>91.0</ele><time>2026-04-02T16:04:06.999Z</time></trkpt><trkpt lat="46.069648164431605" lon="12.892464423840888"><ele>91.0</ele><time>2026-04-02T16:04:07.999Z</time></trkpt><trkpt lat="46.069695010772" lon="12.892342007832466"><ele>91.0</ele><time>2026-04-02T16:04:08.999Z</time></trkpt><trkpt lat="46.06973777356431" lon="12.892236562470682"><ele>91.0</ele><time>2026-04-02T16:04:09.999Z</time></trkpt><trkpt lat="46.069779405596314" lon="12.892152046523556"><ele>91.0</ele><time>2026-04-02T16:04:10.999Z</time></trkpt><trkpt lat="46.06987964606873" lon="12.89204842709347"><ele>91.0</ele><time>2026-04-02T16:04:12.999Z</time></trkpt><trkpt lat="46.06994353511209" lon="12.89200312612895"><ele>91.0</ele><time>2026-04-02T16:04:13.999Z</time></trkpt><trkpt lat="46.07000913365216" lon="12.891945324741478"><ele>91.0</ele><time>2026-04-02T16:04:14.999Z</time></trkpt><trkpt lat="46.07006750482617" lon="12.89188315510568"><ele>91.0</ele><time>2026-04-02T16:04:15.999Z</time></trkpt><trkpt lat="46.07014528298387" lon="12.891794852970026"><ele>91.0</ele><time>2026-04-02T16:04:17.999Z</time></trkpt><trkpt lat="46.070191363893684" lon="12.891727493472596"><ele>91.0</ele><time>2026-04-02T16:04:20.999Z</time></trkpt><trkpt lat="46.070188286656034" lon="12.89163318244688"><ele>91.0</ele><time>2026-04-02T16:04:22.999Z</time></trkpt><trkpt lat="46.07023509444818" lon="12.891539347394303"><ele>91.0</ele><time>2026-04-02T16:04:24.999Z</time></trkpt><trkpt lat="46.07028754556023" lon="12.89148020048136"><ele>91.0</ele><time>2026-04-02T16:04:26.999Z</time></trkpt><trkpt lat="46.070305190996116" lon="12.891314070739673"><ele>91.19999999999999</ele><time>2026-04-02T16:04:28.999Z</time></trkpt><trkpt lat="46.0703080432043" lon="12.89121004355709"><ele>91.39999999999999</ele><time>2026-04-02T16:04:29.999Z</time></trkpt><trkpt lat="46.07032197946104" lon="12.891073188682801"><ele>91.6</ele><time>2026-04-02T16:04:30.999Z</time></trkpt><trkpt lat="46.07034526492759" lon="12.890919053061173"><ele>91.8</ele><time>2026-04-02T16:04:31.999Z</time></trkpt><trkpt lat="46.07037489345096" lon="12.890782207438349"><ele>92.0</ele><time>2026-04-02T16:04:32.999Z</time></trkpt><trkpt lat="46.07040753487293" lon="12.890661023565587"><ele>92.0</ele><time>2026-04-02T16:04:33.999Z</time></trkpt><trkpt lat="46.07044247707546" lon="12.890541520007718"><ele>92.0</ele><time>2026-04-02T16:04:34.999Z</time></trkpt><trkpt lat="46.07048288138506" lon="12.890433503005575"><ele>92.0</ele><time>2026-04-02T16:04:35.999Z</time></trkpt><trkpt lat="46.07053252138062" lon="12.890333066702597"><ele>92.0</ele><time>2026-04-02T16:04:36.999Z</time></trkpt><trkpt lat="46.07059303535879" lon="12.890232317347508"><ele>92.0</ele><time>2026-04-02T16:04:37.999Z</time></trkpt><trkpt lat="46.07065703345589" lon="12.890128963383251"><ele>92.0</ele><time>2026-04-02T16:04:38.999Z</time></trkpt><trkpt lat="46.07072842835432" lon="12.890030692441758"><ele>92.19999999999999</ele><time>2026-04-02T16:04:39.999Z</time></trkpt><trkpt lat="46.07080527081672" lon="12.889943586547425"><ele>92.4</ele><time>2026-04-02T16:04:40.999Z</time></trkpt><trkpt lat="46.0708885088002" lon="12.889867416990842"><ele>92.6</ele><time>2026-04-02T16:04:42Z</time></trkpt><trkpt lat="46.07097768196908" lon="12.889804962853297"><ele>92.80000000000001</ele><time>2026-04-02T16:04:43Z</time></trkpt><trkpt lat="46.0710778459218" lon="12.889754193096811"><ele>93.0</ele><time>2026-04-02T16:04:44Z</time></trkpt><trkpt lat="46.071171719551266" lon="12.889703579643532"><ele>93.0</ele><time>2026-04-02T16:04:45Z</time></trkpt><trkpt lat="46.071244597093006" lon="12.889654996797542"><ele>93.0</ele><time>2026-04-02T16:04:46Z</time></trkpt><trkpt lat="46.07131152364043" lon="12.889617887190848"><ele>93.0</ele><time>2026-04-02T16:04:47Z</time></trkpt><trkpt lat="46.07137631128811" lon="12.889572742448268"><ele>93.0</ele><time>2026-04-02T16:04:48Z</time></trkpt><trkpt lat="46.071445747401576" lon="12.889500938354194"><ele>93.0</ele><time>2026-04-02T16:04:49Z</time></trkpt><trkpt lat="46.071528130251465" lon="12.889405372305747"><ele>93.0</ele><time>2026-04-02T16:04:50Z</time></trkpt><trkpt lat="46.0715987620574" lon="12.889327304786091"><ele>93.0</ele><time>2026-04-02T16:04:51Z</time></trkpt><trkpt lat="46.07165553206889" lon="12.889270672448053"><ele>93.0</ele><time>2026-04-02T16:04:52Z</time></trkpt><trkpt lat="46.07174865939679" lon="12.889219083579663"><ele>93.0</ele><time>2026-04-02T16:04:54Z</time></trkpt><trkpt lat="46.071836273441505" lon="12.889197504521569"><ele>93.0</ele><time>2026-04-02T16:04:56Z</time></trkpt><trkpt lat="46.071939858290406" lon="12.88908979636429"><ele>93.0</ele><time>2026-04-02T16:04:58Z</time></trkpt><trkpt lat="46.07199896030737" lon="12.889025237995426"><ele>93.16666666666667</ele><time>2026-04-02T16:04:59Z</time></trkpt><trkpt lat="46.0720611900006" lon="12.888968681183922"><ele>93.33333333333333</ele><time>2026-04-02T16:05:00Z</time></trkpt><trkpt lat="46.072116126794334" lon="12.88891390733749"><ele>93.5</ele><time>2026-04-02T16:05:01Z</time></trkpt><trkpt lat="46.07216568645496" lon="12.888850200798553"><ele>93.66666666666666</ele><time>2026-04-02T16:05:02Z</time></trkpt><trkpt lat="46.07228028102834" lon="12.888774386049429"><ele>93.83333333333333</ele><time>2026-04-02T16:05:04Z</time></trkpt><trkpt lat="46.07236221786357" lon="12.888741106117838"><ele>94.0</ele><time>2026-04-02T16:05:05Z</time></trkpt><trkpt lat="46.072436004298794" lon="12.888709707493334"><ele>93.80000000000001</ele><time>2026-04-02T16:05:06Z</time></trkpt><trkpt lat="46.07252304596838" lon="12.888609526789931"><ele>93.60000000000001</ele><time>2026-04-02T16:05:08Z</time></trkpt><trkpt lat="46.07257801238185" lon="12.888551457049715"><ele>93.4</ele><time>2026-04-02T16:05:09Z</time></trkpt><trkpt lat="46.07265454519095" lon="12.88846882019088"><ele>93.2</ele><time>2026-04-02T16:05:10Z</time></trkpt><trkpt lat="46.07273408877" lon="12.888371769532723"><ele>93.0</ele><time>2026-04-02T16:05:11Z</time></trkpt><trkpt lat="46.07279286455695" lon="12.888286600434473"><ele>93.0</ele><time>2026-04-02T16:05:12Z</time></trkpt><trkpt lat="46.07284115045345" lon="12.888225736240733"><ele>93.0</ele><time>2026-04-02T16:05:13Z</time></trkpt><trkpt lat="46.072926535442654" lon="12.88812776268348"><ele>93.0</ele><time>2026-04-02T16:05:15Z</time></trkpt><trkpt lat="46.072965281068264" lon="12.888028878788027"><ele>93.0</ele><time>2026-04-02T16:05:16Z</time></trkpt><trkpt lat="46.07300884742224" lon="12.88789974167056"><ele>93.0</ele><time>2026-04-02T16:05:17Z</time></trkpt><trkpt lat="46.073047454031695" lon="12.887772563566118"><ele>93.0</ele><time>2026-04-02T16:05:18Z</time></trkpt><trkpt lat="46.07308408411967" lon="12.887682190666064"><ele>93.0</ele><time>2026-04-02T16:05:19Z</time></trkpt><trkpt lat="46.07313170164735" lon="12.887602372189036"><ele>93.0</ele><time>2026-04-02T16:05:20Z</time></trkpt><trkpt lat="46.073187251613625" lon="12.887506886330879"><ele>93.0</ele><time>2026-04-02T16:05:21Z</time></trkpt><trkpt lat="46.07324633535552" lon="12.887390230963959"><ele>93.0</ele><time>2026-04-02T16:05:22Z</time></trkpt><trkpt lat="46.07329868341449" lon="12.88728388435241"><ele>93.0</ele><time>2026-04-02T16:05:23Z</time></trkpt><trkpt lat="46.07335032348105" lon="12.887180442285226"><ele>93.0</ele><time>2026-04-02T16:05:24Z</time></trkpt><trkpt lat="46.073405603494045" lon="12.887064716850203"><ele>93.16666666666667</ele><time>2026-04-02T16:05:25Z</time></trkpt><trkpt lat="46.0734635365767" lon="12.886952920593862"><ele>93.33333333333333</ele><time>2026-04-02T16:05:26Z</time></trkpt><trkpt lat="46.07352338570917" lon="12.88684909073715"><ele>93.5</ele><time>2026-04-02T16:05:27Z</time></trkpt><trkpt lat="46.07357814373209" lon="12.886771695694371"><ele>93.66666666666666</ele><time>2026-04-02T16:05:28Z</time></trkpt><trkpt lat="46.07363502302786" lon="12.886697157609415"><ele>93.83333333333333</ele><time>2026-04-02T16:05:29Z</time></trkpt><trkpt lat="46.073699668362245" lon="12.886622210864381"><ele>94.0</ele><time>2026-04-02T16:05:30Z</time></trkpt><trkpt lat="46.073755201616194" lon="12.886545351112943"><ele>94.0</ele><time>2026-04-02T16:05:31Z</time></trkpt><trkpt lat="46.073828814380235" lon="12.886458702060146"><ele>94.0</ele><time>2026-04-02T16:05:32Z</time></trkpt><trkpt lat="46.073923560419196" lon="12.886360931120844"><ele>94.0</ele><time>2026-04-02T16:05:33Z</time></trkpt><trkpt lat="46.07402435344575" lon="12.886268433369438"><ele>94.0</ele><time>2026-04-02T16:05:34Z</time></trkpt><trkpt lat="46.07410744566781" lon="12.886194710459838"><ele>94.0</ele><time>2026-04-02T16:05:35Z</time></trkpt><trkpt lat="46.074188221139394" lon="12.88613069084679"><ele>94.0</ele><time>2026-04-02T16:05:36Z</time></trkpt><trkpt lat="46.07426668091804" lon="12.886062553692367"><ele>94.0</ele><time>2026-04-02T16:05:37Z</time></trkpt><trkpt lat="46.07434346942982" lon="12.885992410598737"><ele>94.0</ele><time>2026-04-02T16:05:38Z</time></trkpt><trkpt lat="46.07443173120625" lon="12.885922151249119"><ele>94.0</ele><time>2026-04-02T16:05:39Z</time></trkpt><trkpt lat="46.07452094909734" lon="12.885850062199344"><ele>94.0</ele><time>2026-04-02T16:05:40Z</time></trkpt><trkpt lat="46.07459702681621" lon="12.885798338927698"><ele>94.16666666666666</ele><time>2026-04-02T16:05:41Z</time></trkpt><trkpt lat="46.074670204533156" lon="12.8857625460676"><ele>94.33333333333333</ele><time>2026-04-02T16:05:42Z</time></trkpt><trkpt lat="46.07474021060495" lon="12.885737472244607"><ele>94.5</ele><time>2026-04-02T16:05:43Z</time></trkpt><trkpt lat="46.07480455685892" lon="12.88572053631628"><ele>94.66666666666667</ele><time>2026-04-02T16:05:44Z</time></trkpt><trkpt lat="46.0748748572515" lon="12.885685375186648"><ele>94.83333333333334</ele><time>2026-04-02T16:05:45Z</time></trkpt><trkpt lat="46.07494930300035" lon="12.885631347143171"><ele>95.0</ele><time>2026-04-02T16:05:46Z</time></trkpt><trkpt lat="46.07502014686637" lon="12.88557133063726"><ele>95.2</ele><time>2026-04-02T16:05:47Z</time></trkpt><trkpt lat="46.075084533490426" lon="12.885522692290015"><ele>95.4</ele><time>2026-04-02T16:05:48Z</time></trkpt><trkpt lat="46.07514001832927" lon="12.885479380483972"><ele>95.6</ele><time>2026-04-02T16:05:49Z</time></trkpt><trkpt lat="46.075239076427565" lon="12.885397121109238"><ele>95.8</ele><time>2026-04-02T16:05:51Z</time></trkpt><trkpt lat="46.075318563858865" lon="12.885338079144345"><ele>96.0</ele><time>2026-04-02T16:05:53Z</time></trkpt><trkpt lat="46.07540612007846" lon="12.885220699952958"><ele>96.0</ele><time>2026-04-02T16:05:55Z</time></trkpt><trkpt lat="46.07549340254971" lon="12.88514239506163"><ele>96.0</ele><time>2026-04-02T16:05:56Z</time></trkpt><trkpt lat="46.07558163263194" lon="12.885077224108958"><ele>96.0</ele><time>2026-04-02T16:05:57Z</time></trkpt><trkpt lat="46.07565878626146" lon="12.885031464201404"><ele>96.0</ele><time>2026-04-02T16:05:58Z</time></trkpt><trkpt lat="46.07574546491044" lon="12.885005632251378"><ele>96.0</ele><time>2026-04-02T16:05:59Z</time></trkpt><trkpt lat="46.07584757572015" lon="12.88498290536905"><ele>96.16666666666667</ele><time>2026-04-02T16:06:00Z</time></trkpt><trkpt lat="46.075953021829044" lon="12.884959633371802"><ele>96.33333333333334</ele><time>2026-04-02T16:06:01Z</time></trkpt><trkpt lat="46.0760420124694" lon="12.884933145562627"><ele>96.5</ele><time>2026-04-02T16:06:02Z</time></trkpt><trkpt lat="46.076114015119515" lon="12.884913054966239"><ele>96.66666666666667</ele><time>2026-04-02T16:06:03Z</time></trkpt><trkpt lat="46.07618747792974" lon="12.88489295325123"><ele>96.83333333333334</ele><time>2026-04-02T16:06:04Z</time></trkpt><trkpt lat="46.07625151285627" lon="12.88485518482805"><ele>97.0</ele><time>2026-04-02T16:06:05Z</time></trkpt><trkpt lat="46.07631420043688" lon="12.884800636223916"><ele>97.00000000000001</ele><time>2026-04-02T16:06:06Z</time></trkpt><trkpt lat="46.07638397770677" lon="12.88473525006541"><ele>97.0</ele><time>2026-04-02T16:06:07Z</time></trkpt><trkpt lat="46.076460770179104" lon="12.884667849421293"><ele>97.0</ele><time>2026-04-02T16:06:08Z</time></trkpt><trkpt lat="46.07653973708567" lon="12.884601733059158"><ele>97.0</ele><time>2026-04-02T16:06:09Z</time></trkpt><trkpt lat="46.07661962074695" lon="12.884541031968979"><ele>97.00000000000001</ele><time>2026-04-02T16:06:10Z</time></trkpt><trkpt lat="46.07669799129841" lon="12.884478768960431"><ele>97.0</ele><time>2026-04-02T16:06:11Z</time></trkpt><trkpt lat="46.07677513064684" lon="12.884410394154175"><ele>96.83333333333334</ele><time>2026-04-02T16:06:12Z</time></trkpt><trkpt lat="46.076853434869136" lon="12.884344041782914"><ele>96.66666666666667</ele><time>2026-04-02T16:06:13Z</time></trkpt><trkpt lat="46.076925944108424" lon="12.884280381988063"><ele>96.5</ele><time>2026-04-02T16:06:14Z</time></trkpt><trkpt lat="46.076993637830675" lon="12.884199469444582"><ele>96.33333333333334</ele><time>2026-04-02T16:06:15Z</time></trkpt><trkpt lat="46.07705916984283" lon="12.884105219054863"><ele>96.16666666666667</ele><time>2026-04-02T16:06:16Z</time></trkpt><trkpt lat="46.07711749736833" lon="12.884019820762186"><ele>96.0</ele><time>2026-04-02T16:06:17Z</time></trkpt><trkpt lat="46.077162849703306" lon="12.883942929914385"><ele>96.0</ele><time>2026-04-02T16:06:18Z</time></trkpt><trkpt lat="46.07725383207601" lon="12.88382502641096"><ele>96.0</ele><time>2026-04-02T16:06:20Z</time></trkpt><trkpt lat="46.07733109049951" lon="12.88376495372789"><ele>96.0</ele><time>2026-04-02T16:06:21Z</time></trkpt><trkpt lat="46.0774308160988" lon="12.88369792264749"><ele>96.0</ele><time>2026-04-02T16:06:22Z</time></trkpt><trkpt lat="46.07751808164259" lon="12.883634848998097"><ele>96.0</ele><time>2026-04-02T16:06:23Z</time></trkpt><trkpt lat="46.07758478431781" lon="12.883570598259059"><ele>96.0</ele><time>2026-04-02T16:06:24Z</time></trkpt><trkpt lat="46.077654856163875" lon="12.88349034337233"><ele>96.0</ele><time>2026-04-02T16:06:25Z</time></trkpt><trkpt lat="46.07773350185477" lon="12.883394714169697"><ele>96.0</ele><time>2026-04-02T16:06:26Z</time></trkpt><trkpt lat="46.07780509999587" lon="12.883310047994723"><ele>96.0</ele><time>2026-04-02T16:06:27Z</time></trkpt><trkpt lat="46.07787109568302" lon="12.883228678685192"><ele>96.0</ele><time>2026-04-02T16:06:28Z</time></trkpt><trkpt lat="46.077934420215506" lon="12.883137937597144"><ele>96.0</ele><time>2026-04-02T16:06:29Z</time></trkpt><trkpt lat="46.07799575702425" lon="12.883073370894275"><ele>96.0</ele><time>2026-04-02T16:06:30Z</time></trkpt><trkpt lat="46.078062727722724" lon="12.883016605852303"><ele>96.0</ele><time>2026-04-02T16:06:31Z</time></trkpt><trkpt lat="46.078134530115605" lon="12.882957720715007"><ele>96.0</ele><time>2026-04-02T16:06:32Z</time></trkpt><trkpt lat="46.078210792290434" lon="12.882897502552119"><ele>96.0</ele><time>2026-04-02T16:06:33Z</time></trkpt><trkpt lat="46.07828922053193" lon="12.882832794706694"><ele>96.0</ele><time>2026-04-02T16:06:34Z</time></trkpt><trkpt lat="46.07837196637895" lon="12.882767198517822"><ele>96.0</ele><time>2026-04-02T16:06:35Z</time></trkpt><trkpt lat="46.078455913958344" lon="12.882716111770508"><ele>96.0</ele><time>2026-04-02T16:06:36Z</time></trkpt><trkpt lat="46.07853993046275" lon="12.882677394946745"><ele>96.0</ele><time>2026-04-02T16:06:37Z</time></trkpt><trkpt lat="46.07862571429356" lon="12.88262741374295"><ele>96.0</ele><time>2026-04-02T16:06:38Z</time></trkpt><trkpt lat="46.07870633692269" lon="12.882570282202568"><ele>96.0</ele><time>2026-04-02T16:06:39Z</time></trkpt><trkpt lat="46.078788045104055" lon="12.882510981802554"><ele>96.4</ele><time>2026-04-02T16:06:40Z</time></trkpt><trkpt lat="46.07887799996607" lon="12.882450038454577"><ele>96.8</ele><time>2026-04-02T16:06:41Z</time></trkpt><trkpt lat="46.078982712085974" lon="12.882379686517345"><ele>97.2</ele><time>2026-04-02T16:06:42Z</time></trkpt><trkpt lat="46.079071405677084" lon="12.882319157208252"><ele>97.60000000000001</ele><time>2026-04-02T16:06:43Z</time></trkpt><trkpt lat="46.07915053987139" lon="12.882269585344835"><ele>98.0</ele><time>2026-04-02T16:06:44Z</time></trkpt><trkpt lat="46.07922964169784" lon="12.882222157408172"><ele>97.99999999999999</ele><time>2026-04-02T16:06:45Z</time></trkpt><trkpt lat="46.07930421294383" lon="12.882172875030317"><ele>98.0</ele><time>2026-04-02T16:06:46Z</time></trkpt><trkpt lat="46.07936959981793" lon="12.882123804407344"><ele>98.0</ele><time>2026-04-02T16:06:47Z</time></trkpt><trkpt lat="46.07944831954036" lon="12.882088316578288"><ele>98.0</ele><time>2026-04-02T16:06:48Z</time></trkpt><trkpt lat="46.07953057915264" lon="12.882058501406211"><ele>97.99999999999999</ele><time>2026-04-02T16:06:49Z</time></trkpt><trkpt lat="46.07960287080148" lon="12.88202520895118"><ele>98.0</ele><time>2026-04-02T16:06:50Z</time></trkpt><trkpt lat="46.07967428408501" lon="12.881963665500587"><ele>97.99999999999999</ele><time>2026-04-02T16:06:51Z</time></trkpt><trkpt lat="46.07974707675114" lon="12.881890115354032"><ele>98.0</ele><time>2026-04-02T16:06:52Z</time></trkpt><trkpt lat="46.079820418751375" lon="12.881831728898536"><ele>98.0</ele><time>2026-04-02T16:06:53Z</time></trkpt><trkpt lat="46.07989862381998" lon="12.881784955185179"><ele>98.0</ele><time>2026-04-02T16:06:54Z</time></trkpt><trkpt lat="46.0799810861326" lon="12.881735335193653"><ele>97.99999999999999</ele><time>2026-04-02T16:06:55Z</time></trkpt><trkpt lat="46.080059615289315" lon="12.881662886608659"><ele>98.0</ele><time>2026-04-02T16:06:56Z</time></trkpt><trkpt lat="46.080124345013566" lon="12.881586798893657"><ele>98.2</ele><time>2026-04-02T16:06:57Z</time></trkpt><trkpt lat="46.080180664533664" lon="12.881496768507484"><ele>98.4</ele><time>2026-04-02T16:06:58Z</time></trkpt><trkpt lat="46.08024230333482" lon="12.88139304849601"><ele>98.60000000000001</ele><time>2026-04-02T16:06:59Z</time></trkpt><trkpt lat="46.08030352380791" lon="12.88127774510865"><ele>98.80000000000001</ele><time>2026-04-02T16:07:00Z</time></trkpt><trkpt lat="46.08036377803557" lon="12.881159665229791"><ele>99.0</ele><time>2026-04-02T16:07:01Z</time></trkpt><trkpt lat="46.08041642360063" lon="12.881044961723376"><ele>99.0</ele><time>2026-04-02T16:07:02Z</time></trkpt><trkpt lat="46.08045695368102" lon="12.880942270400366"><ele>99.0</ele><time>2026-04-02T16:07:03Z</time></trkpt><trkpt lat="46.080497098263855" lon="12.88083174750066"><ele>99.0</ele><time>2026-04-02T16:07:04Z</time></trkpt><trkpt lat="46.0805388861992" lon="12.880717221302294"><ele>99.0</ele><time>2026-04-02T16:07:05Z</time></trkpt><trkpt lat="46.08057713090258" lon="12.880593989272178"><ele>99.0</ele><time>2026-04-02T16:07:06Z</time></trkpt><trkpt lat="46.08061067586355" lon="12.880449439946192"><ele>99.2</ele><time>2026-04-02T16:07:07Z</time></trkpt><trkpt lat="46.080639987695776" lon="12.880298707138234"><ele>99.4</ele><time>2026-04-02T16:07:08Z</time></trkpt><trkpt lat="46.08067187841806" lon="12.880170438844793"><ele>99.6</ele><time>2026-04-02T16:07:09Z</time></trkpt><trkpt lat="46.080704566902504" lon="12.880053134788083"><ele>99.8</ele><time>2026-04-02T16:07:10Z</time></trkpt><trkpt lat="46.08074131690345" lon="12.879934671001331"><ele>100.0</ele><time>2026-04-02T16:07:11Z</time></trkpt><trkpt lat="46.08078148824721" lon="12.879818124100002"><ele>100.00000000000001</ele><time>2026-04-02T16:07:12Z</time></trkpt><trkpt lat="46.08082797281608" lon="12.879691876263385"><ele>100.0</ele><time>2026-04-02T16:07:13Z</time></trkpt><trkpt lat="46.08087282476234" lon="12.879578825957672"><ele>100.0</ele><time>2026-04-02T16:07:14Z</time></trkpt><trkpt lat="46.08091951503845" lon="12.879487614503516"><ele>100.0</ele><time>2026-04-02T16:07:15Z</time></trkpt><trkpt lat="46.080958224330224" lon="12.879409295684262"><ele>100.00000000000001</ele><time>2026-04-02T16:07:16Z</time></trkpt><trkpt lat="46.08100800674547" lon="12.879284958687625"><ele>100.0</ele><time>2026-04-02T16:07:18Z</time></trkpt><trkpt lat="46.08105338534087" lon="12.879220274288048"><ele>99.8</ele><time>2026-04-02T16:07:19Z</time></trkpt><trkpt lat="46.081102571757725" lon="12.87916208135095"><ele>99.6</ele><time>2026-04-02T16:07:20Z</time></trkpt><trkpt lat="46.081152736004704" lon="12.879094715035446"><ele>99.4</ele><time>2026-04-02T16:07:21Z</time></trkpt><trkpt lat="46.081239052245394" lon="12.878967511428073"><ele>99.2</ele><time>2026-04-02T16:07:23Z</time></trkpt><trkpt lat="46.0812794885757" lon="12.87886135773479"><ele>99.0</ele><time>2026-04-02T16:07:24Z</time></trkpt><trkpt lat="46.08131929508515" lon="12.878701361399076"><ele>99.0</ele><time>2026-04-02T16:07:25Z</time></trkpt><trkpt lat="46.08137208125287" lon="12.878527428047592"><ele>99.0</ele><time>2026-04-02T16:07:26Z</time></trkpt><trkpt lat="46.08142484464731" lon="12.87836676750342"><ele>99.0</ele><time>2026-04-02T16:07:27Z</time></trkpt><trkpt lat="46.081463865602714" lon="12.878237891971796"><ele>99.0</ele><time>2026-04-02T16:07:28Z</time></trkpt><trkpt lat="46.08150014062628" lon="12.878117002473877"><ele>99.0</ele><time>2026-04-02T16:07:29Z</time></trkpt><trkpt lat="46.08153277811903" lon="12.87799516046797"><ele>99.16666666666667</ele><time>2026-04-02T16:07:30Z</time></trkpt><trkpt lat="46.08157334221781" lon="12.877883571138456"><ele>99.33333333333334</ele><time>2026-04-02T16:07:31Z</time></trkpt><trkpt lat="46.081613735294304" lon="12.877787457768955"><ele>99.5</ele><time>2026-04-02T16:07:32Z</time></trkpt><trkpt lat="46.08166249708797" lon="12.877687304952572"><ele>99.66666666666667</ele><time>2026-04-02T16:07:33Z</time></trkpt><trkpt lat="46.08171847505003" lon="12.877576651092781"><ele>99.83333333333334</ele><time>2026-04-02T16:07:34Z</time></trkpt><trkpt lat="46.081779074276305" lon="12.877456126274376"><ele>100.0</ele><time>2026-04-02T16:07:35Z</time></trkpt><trkpt lat="46.08183926596281" lon="12.877339575915412"><ele>100.50000000000001</ele><time>2026-04-02T16:07:36Z</time></trkpt><trkpt lat="46.081886697022924" lon="12.87723961691335"><ele>101.0</ele><time>2026-04-02T16:07:37Z</time></trkpt><trkpt lat="46.08193032561066" lon="12.877155928113469"><ele>101.5</ele><time>2026-04-02T16:07:38Z</time></trkpt><trkpt lat="46.08197575461628" lon="12.877087493068288"><ele>102.0</ele><time>2026-04-02T16:07:39Z</time></trkpt><trkpt lat="46.08202660665328" lon="12.877016937169099"><ele>102.50000000000001</ele><time>2026-04-02T16:07:40Z</time></trkpt><trkpt lat="46.08208595448975" lon="12.876934861770827"><ele>103.0</ele><time>2026-04-02T16:07:41Z</time></trkpt><trkpt lat="46.0821568020283" lon="12.876862921771792"><ele>103.0</ele><time>2026-04-02T16:07:42Z</time></trkpt><trkpt lat="46.08222974511151" lon="12.876801967376297"><ele>103.0</ele><time>2026-04-02T16:07:43Z</time></trkpt><trkpt lat="46.082306706207234" lon="12.876742373362907"><ele>103.0</ele><time>2026-04-02T16:07:44Z</time></trkpt><trkpt lat="46.08237217340419" lon="12.876708214872055"><ele>103.0</ele><time>2026-04-02T16:07:45Z</time></trkpt><trkpt lat="46.0825022934965" lon="12.876704776359547"><ele>103.0</ele><time>2026-04-02T16:07:47Z</time></trkpt><trkpt lat="46.08259493607573" lon="12.876676567468104"><ele>103.16666666666667</ele><time>2026-04-02T16:07:48Z</time></trkpt><trkpt lat="46.082700353703096" lon="12.87662926024278"><ele>103.33333333333334</ele><time>2026-04-02T16:07:49Z</time></trkpt><trkpt lat="46.08278750090819" lon="12.876590359231622"><ele>103.5</ele><time>2026-04-02T16:07:50Z</time></trkpt><trkpt lat="46.08286451009336" lon="12.87655614129834"><ele>103.66666666666666</ele><time>2026-04-02T16:07:51Z</time></trkpt><trkpt lat="46.08293072082751" lon="12.876515768063241"><ele>103.83333333333333</ele><time>2026-04-02T16:07:52Z</time></trkpt><trkpt lat="46.08300612758198" lon="12.876471607030238"><ele>104.0</ele><time>2026-04-02T16:07:53Z</time></trkpt><trkpt lat="46.08308309720943" lon="12.876442497646066"><ele>103.99999999999999</ele><time>2026-04-02T16:07:54Z</time></trkpt><trkpt lat="46.083165432599785" lon="12.876420946401938"><ele>104.0</ele><time>2026-04-02T16:07:55Z</time></trkpt><trkpt lat="46.0832491328502" lon="12.876403660806647"><ele>104.0</ele><time>2026-04-02T16:07:56Z</time></trkpt><trkpt lat="46.08332752924933" lon="12.876386658250073"><ele>104.0</ele><time>2026-04-02T16:07:57Z</time></trkpt><trkpt lat="46.08340940960263" lon="12.87636905377492"><ele>103.99999999999999</ele><time>2026-04-02T16:07:58Z</time></trkpt><trkpt lat="46.08350026427124" lon="12.876343118018937"><ele>104.0</ele><time>2026-04-02T16:07:59Z</time></trkpt><trkpt lat="46.08359952044561" lon="12.876321003449954"><ele>103.66666666666666</ele><time>2026-04-02T16:08:00Z</time></trkpt><trkpt lat="46.08367805885828" lon="12.876298554084151"><ele>103.33333333333333</ele><time>2026-04-02T16:08:01Z</time></trkpt><trkpt lat="46.08374498018379" lon="12.876265199010374"><ele>103.0</ele><time>2026-04-02T16:08:02Z</time></trkpt><trkpt lat="46.083816122102064" lon="12.876220549571315"><ele>102.66666666666666</ele><time>2026-04-02T16:08:03Z</time></trkpt><trkpt lat="46.08389501070735" lon="12.87618541732381"><ele>102.33333333333333</ele><time>2026-04-02T16:08:04Z</time></trkpt><trkpt lat="46.08397290301321" lon="12.876155600531193"><ele>102.0</ele><time>2026-04-02T16:08:05Z</time></trkpt><trkpt lat="46.08404569081757" lon="12.876135113040954"><ele>102.33333333333333</ele><time>2026-04-02T16:08:06Z</time></trkpt><trkpt lat="46.08412289167195" lon="12.876115306523406"><ele>102.66666666666666</ele><time>2026-04-02T16:08:07Z</time></trkpt><trkpt lat="46.084206075739345" lon="12.876108348121752"><ele>103.0</ele><time>2026-04-02T16:08:08Z</time></trkpt><trkpt lat="46.08429773734219" lon="12.876112006458964"><ele>103.33333333333333</ele><time>2026-04-02T16:08:09Z</time></trkpt><trkpt lat="46.08438898503369" lon="12.876112616712865"><ele>103.66666666666666</ele><time>2026-04-02T16:08:10Z</time></trkpt><trkpt lat="46.08446642671266" lon="12.876111173708134"><ele>104.0</ele><time>2026-04-02T16:08:11Z</time></trkpt><trkpt lat="46.084543035287744" lon="12.876106894637317"><ele>103.99999999999999</ele><time>2026-04-02T16:08:12Z</time></trkpt><trkpt lat="46.084616718562785" lon="12.87609817980667"><ele>104.0</ele><time>2026-04-02T16:08:13Z</time></trkpt><trkpt lat="46.08469484941323" lon="12.876087991781677"><ele>104.0</ele><time>2026-04-02T16:08:14Z</time></trkpt><trkpt lat="46.08476067296563" lon="12.876078810042394"><ele>104.0</ele><time>2026-04-02T16:08:15Z</time></trkpt><trkpt lat="46.08488292817128" lon="12.876031423108028"><ele>103.99999999999999</ele><time>2026-04-02T16:08:17Z</time></trkpt><trkpt lat="46.08494571048636" lon="12.875983985179575"><ele>104.0</ele><time>2026-04-02T16:08:18Z</time></trkpt><trkpt lat="46.08501345668575" lon="12.87590171756745"><ele>103.99999999999999</ele><time>2026-04-02T16:08:19Z</time></trkpt><trkpt lat="46.08508242625655" lon="12.87581018270556"><ele>104.0</ele><time>2026-04-02T16:08:20Z</time></trkpt><trkpt lat="46.085148240288866" lon="12.875731267383765"><ele>104.0</ele><time>2026-04-02T16:08:21Z</time></trkpt><trkpt lat="46.085218688182465" lon="12.875653112123443"><ele>104.0</ele><time>2026-04-02T16:08:22Z</time></trkpt><trkpt lat="46.08528696971721" lon="12.875586497586152"><ele>103.99999999999999</ele><time>2026-04-02T16:08:23Z</time></trkpt><trkpt lat="46.08534120031523" lon="12.875527550949041"><ele>104.0</ele><time>2026-04-02T16:08:24Z</time></trkpt><trkpt lat="46.08539141499498" lon="12.875471882379138"><ele>104.0</ele><time>2026-04-02T16:08:25Z</time></trkpt><trkpt lat="46.085482249076065" lon="12.875350413955957"><ele>104.0</ele><time>2026-04-02T16:08:27Z</time></trkpt><trkpt lat="46.08552728121911" lon="12.875285030324013"><ele>104.0</ele><time>2026-04-02T16:08:28Z</time></trkpt><trkpt lat="46.08561664522177" lon="12.87517471960937"><ele>104.0</ele><time>2026-04-02T16:08:30Z</time></trkpt><trkpt lat="46.085660701449804" lon="12.875095204969885"><ele>104.0</ele><time>2026-04-02T16:08:31Z</time></trkpt><trkpt lat="46.08573874824746" lon="12.874949493874222"><ele>103.99999999999999</ele><time>2026-04-02T16:08:33Z</time></trkpt><trkpt lat="46.08580509388836" lon="12.874858957709362"><ele>104.0</ele><time>2026-04-02T16:08:34Z</time></trkpt><trkpt lat="46.0858737405548" lon="12.874741831036088"><ele>104.0</ele><time>2026-04-02T16:08:35Z</time></trkpt><trkpt lat="46.08593579478086" lon="12.874643120370447"><ele>104.0</ele><time>2026-04-02T16:08:36Z</time></trkpt><trkpt lat="46.08598541642623" lon="12.87455602098624"><ele>103.99999999999999</ele><time>2026-04-02T16:08:37Z</time></trkpt><trkpt lat="46.08603117557905" lon="12.874481650521641"><ele>104.0</ele><time>2026-04-02T16:08:38Z</time></trkpt><trkpt lat="46.08607392159825" lon="12.874414724500685"><ele>103.99999999999999</ele><time>2026-04-02T16:08:39Z</time></trkpt><trkpt lat="46.08612540185521" lon="12.874330050487508"><ele>104.0</ele><time>2026-04-02T16:08:40Z</time></trkpt><trkpt lat="46.086192945620056" lon="12.874236437518407"><ele>104.0</ele><time>2026-04-02T16:08:41Z</time></trkpt><trkpt lat="46.08627573875173" lon="12.87415943212204"><ele>104.0</ele><time>2026-04-02T16:08:42Z</time></trkpt><trkpt lat="46.08635484432972" lon="12.874100835266141"><ele>103.99999999999999</ele><time>2026-04-02T16:08:43Z</time></trkpt><trkpt lat="46.086435190706474" lon="12.874057691996851"><ele>104.0</ele><time>2026-04-02T16:08:44Z</time></trkpt><trkpt lat="46.08650961135368" lon="12.874009291315629"><ele>104.33333333333333</ele><time>2026-04-02T16:08:45Z</time></trkpt><trkpt lat="46.086582166446995" lon="12.873960514174613"><ele>104.66666666666666</ele><time>2026-04-02T16:08:46Z</time></trkpt><trkpt lat="46.08664812956875" lon="12.873916332746889"><ele>105.0</ele><time>2026-04-02T16:08:47Z</time></trkpt><trkpt lat="46.086716526033875" lon="12.873882327572971"><ele>105.33333333333334</ele><time>2026-04-02T16:08:48Z</time></trkpt><trkpt lat="46.08680089662505" lon="12.87383806807477"><ele>105.66666666666667</ele><time>2026-04-02T16:08:49Z</time></trkpt><trkpt lat="46.086902060411475" lon="12.873777681337677"><ele>106.0</ele><time>2026-04-02T16:08:50Z</time></trkpt><trkpt lat="46.08699379802012" lon="12.873720975756992"><ele>106.16666666666667</ele><time>2026-04-02T16:08:51Z</time></trkpt><trkpt lat="46.08706931465315" lon="12.873679551822052"><ele>106.33333333333334</ele><time>2026-04-02T16:08:52Z</time></trkpt><trkpt lat="46.087141170052995" lon="12.873647560237623"><ele>106.5</ele><time>2026-04-02T16:08:53Z</time></trkpt><trkpt lat="46.087213491010644" lon="12.87362169234401"><ele>106.66666666666666</ele><time>2026-04-02T16:08:54Z</time></trkpt><trkpt lat="46.087294341390084" lon="12.873614247366163"><ele>106.83333333333333</ele><time>2026-04-02T16:08:55Z</time></trkpt><trkpt lat="46.08737693798777" lon="12.873604589162387"><ele>107.0</ele><time>2026-04-02T16:08:56Z</time></trkpt><trkpt lat="46.08745664948591" lon="12.873590408699142"><ele>106.99999999999999</ele><time>2026-04-02T16:08:57Z</time></trkpt><trkpt lat="46.087531740455496" lon="12.873568062828259"><ele>107.0</ele><time>2026-04-02T16:08:58Z</time></trkpt><trkpt lat="46.08760025860279" lon="12.873547042687859"><ele>107.0</ele><time>2026-04-02T16:08:59Z</time></trkpt><trkpt lat="46.08768402373696" lon="12.873534105119763"><ele>107.0</ele><time>2026-04-02T16:09:00Z</time></trkpt><trkpt lat="46.08776917132369" lon="12.87350721576718"><ele>106.99999999999999</ele><time>2026-04-02T16:09:01Z</time></trkpt><trkpt lat="46.08785321545832" lon="12.873472811827193"><ele>107.0</ele><time>2026-04-02T16:09:02Z</time></trkpt><trkpt lat="46.08793386777901" lon="12.873445106696584"><ele>107.0</ele><time>2026-04-02T16:09:03Z</time></trkpt><trkpt lat="46.08800502580774" lon="12.8734356436498"><ele>106.99999999999999</ele><time>2026-04-02T16:09:04Z</time></trkpt><trkpt lat="46.088122979205835" lon="12.873430538060369"><ele>106.99999999999999</ele><time>2026-04-02T16:09:06Z</time></trkpt><trkpt lat="46.088250891786004" lon="12.873458484907404"><ele>107.0</ele><time>2026-04-02T16:09:08Z</time></trkpt><trkpt lat="46.08832451399731" lon="12.873487883671498"><ele>107.0</ele><time>2026-04-02T16:09:09Z</time></trkpt><trkpt lat="46.0884316736204" lon="12.873543107349446"><ele>107.16666666666666</ele><time>2026-04-02T16:09:11Z</time></trkpt><trkpt lat="46.08851472398902" lon="12.873565478876053"><ele>107.33333333333333</ele><time>2026-04-02T16:09:12Z</time></trkpt><trkpt lat="46.08861255792869" lon="12.87357828211737"><ele>107.5</ele><time>2026-04-02T16:09:13Z</time></trkpt><trkpt lat="46.0886938827723" lon="12.873589552363033"><ele>107.66666666666666</ele><time>2026-04-02T16:09:14Z</time></trkpt><trkpt lat="46.08879920476114" lon="12.87360459559799"><ele>107.83333333333333</ele><time>2026-04-02T16:09:16Z</time></trkpt><trkpt lat="46.08886902975012" lon="12.873625560739926"><ele>108.0</ele><time>2026-04-02T16:09:18Z</time></trkpt><trkpt lat="46.08893189473967" lon="12.873631587806688"><ele>108.0</ele><time>2026-04-02T16:12:02Z</time></trkpt><trkpt lat="46.08899991011279" lon="12.873652488780836"><ele>108.0</ele><time>2026-04-02T16:12:04Z</time></trkpt><trkpt lat="46.089051384088684" lon="12.873706141437312"><ele>108.0</ele><time>2026-04-02T16:12:06Z</time></trkpt><trkpt lat="46.08900739954586" lon="12.873772998393477"><ele>108.0</ele><time>2026-04-02T16:12:08Z</time></trkpt><trkpt lat="46.08894331438902" lon="12.873819158650244"><ele>108.0</ele><time>2026-04-02T16:12:09Z</time></trkpt><trkpt lat="46.08886811596828" lon="12.873858292171303"><ele>108.0</ele><time>2026-04-02T16:12:10Z</time></trkpt><trkpt lat="46.08878654865271" lon="12.873893367294889"><ele>108.0</ele><time>2026-04-02T16:12:11Z</time></trkpt><trkpt lat="46.088698145308804" lon="12.87391867185136"><ele>108.0</ele><time>2026-04-02T16:12:12Z</time></trkpt><trkpt lat="46.08861948711777" lon="12.873937804987483"><ele>108.00000000000001</ele><time>2026-04-02T16:12:13Z</time></trkpt><trkpt lat="46.088548662440836" lon="12.873957668003069"><ele>108.00000000000001</ele><time>2026-04-02T16:12:14Z</time></trkpt><trkpt lat="46.0884660857521" lon="12.873989105732198"><ele>108.0</ele><time>2026-04-02T16:12:15Z</time></trkpt><trkpt lat="46.088355959679085" lon="12.87401382653301"><ele>108.0</ele><time>2026-04-02T16:12:16Z</time></trkpt><trkpt lat="46.08823985269607" lon="12.874022204670478"><ele>107.75</ele><time>2026-04-02T16:12:17Z</time></trkpt><trkpt lat="46.08811985294841" lon="12.874016731804982"><ele>107.5</ele><time>2026-04-02T16:12:18Z</time></trkpt><trkpt lat="46.08800445810128" lon="12.874003576501659"><ele>107.25</ele><time>2026-04-02T16:12:19Z</time></trkpt><trkpt lat="46.08788956242716" lon="12.873986402177847"><ele>107.0</ele><time>2026-04-02T16:12:20Z</time></trkpt><trkpt lat="46.087774525506944" lon="12.873964894771898"><ele>107.0</ele><time>2026-04-02T16:12:21Z</time></trkpt><trkpt lat="46.08766372387306" lon="12.87394356430745"><ele>107.0</ele><time>2026-04-02T16:12:22Z</time></trkpt><trkpt lat="46.08755179568969" lon="12.873922848466577"><ele>107.0</ele><time>2026-04-02T16:12:23Z</time></trkpt><trkpt lat="46.087430255342355" lon="12.873904513940815"><ele>107.0</ele><time>2026-04-02T16:12:24Z</time></trkpt><trkpt lat="46.087321324786615" lon="12.873902035999702"><ele>107.0</ele><time>2026-04-02T16:12:25Z</time></trkpt><trkpt lat="46.0872203353377" lon="12.873919656384386"><ele>106.99999999999999</ele><time>2026-04-02T16:12:26Z</time></trkpt><trkpt lat="46.08711112025781" lon="12.873944470490969"><ele>106.99999999999999</ele><time>2026-04-02T16:12:27Z</time></trkpt><trkpt lat="46.08700282171679" lon="12.873974350390908"><ele>107.0</ele><time>2026-04-02T16:12:28Z</time></trkpt><trkpt lat="46.08690654822958" lon="12.874006712569516"><ele>107.0</ele><time>2026-04-02T16:12:29Z</time></trkpt><trkpt lat="46.08680617324155" lon="12.874047891247564"><ele>107.0</ele><time>2026-04-02T16:12:30Z</time></trkpt><trkpt lat="46.08669040479534" lon="12.87410067854356"><ele>107.0</ele><time>2026-04-02T16:12:31Z</time></trkpt><trkpt lat="46.08657340635454" lon="12.874161606749709"><ele>107.0</ele><time>2026-04-02T16:12:32Z</time></trkpt><trkpt lat="46.086476337929774" lon="12.87422515938954"><ele>107.0</ele><time>2026-04-02T16:12:33Z</time></trkpt><trkpt lat="46.08638443979441" lon="12.87429311813666"><ele>106.39999999999999</ele><time>2026-04-02T16:12:34Z</time></trkpt><trkpt lat="46.08630142037098" lon="12.874371060608857"><ele>105.79999999999998</ele><time>2026-04-02T16:12:35Z</time></trkpt><trkpt lat="46.08621540033913" lon="12.874471411522348"><ele>105.2</ele><time>2026-04-02T16:12:36Z</time></trkpt><trkpt lat="46.08612034472582" lon="12.874590976469484"><ele>104.6</ele><time>2026-04-02T16:12:37Z</time></trkpt><trkpt lat="46.086037161261146" lon="12.87469735510917"><ele>104.0</ele><time>2026-04-02T16:12:38Z</time></trkpt><trkpt lat="46.0859662149892" lon="12.874804125392055"><ele>104.0</ele><time>2026-04-02T16:12:39Z</time></trkpt><trkpt lat="46.085905511309136" lon="12.874918110873471"><ele>104.0</ele><time>2026-04-02T16:12:40Z</time></trkpt><trkpt lat="46.085858762264735" lon="12.8750389929263"><ele>104.0</ele><time>2026-04-02T16:12:40.999Z</time></trkpt><trkpt lat="46.08581227305147" lon="12.875165930895696"><ele>104.0</ele><time>2026-04-02T16:12:41.999Z</time></trkpt><trkpt lat="46.08576432683744" lon="12.87528382668099"><ele>104.0</ele><time>2026-04-02T16:12:42.999Z</time></trkpt><trkpt lat="46.085723733133996" lon="12.875367517964756"><ele>104.0</ele><time>2026-04-02T16:12:43.999Z</time></trkpt><trkpt lat="46.0856710134955" lon="12.875450921082868"><ele>104.0</ele><time>2026-04-02T16:12:44.999Z</time></trkpt><trkpt lat="46.085594930701895" lon="12.875548327959926"><ele>104.0</ele><time>2026-04-02T16:12:45.999Z</time></trkpt><trkpt lat="46.085510510977784" lon="12.875656621118829"><ele>104.0</ele><time>2026-04-02T16:12:46.999Z</time></trkpt><trkpt lat="46.08542048601954" lon="12.875771239187774"><ele>104.0</ele><time>2026-04-02T16:12:47.999Z</time></trkpt><trkpt lat="46.085347243049604" lon="12.875859858298863"><ele>104.0</ele><time>2026-04-02T16:12:48.999Z</time></trkpt><trkpt lat="46.085275570590554" lon="12.875932370357058"><ele>104.0</ele><time>2026-04-02T16:12:49.999Z</time></trkpt><trkpt lat="46.08520257641668" lon="12.875967288545333"><ele>104.0</ele><time>2026-04-02T16:12:50.999Z</time></trkpt><trkpt lat="46.08511590561486" lon="12.875982889627904"><ele>104.0</ele><time>2026-04-02T16:12:51.999Z</time></trkpt><trkpt lat="46.08500775583019" lon="12.87597778621583"><ele>104.0</ele><time>2026-04-02T16:12:52.999Z</time></trkpt><trkpt lat="46.084901225913654" lon="12.875991296066383"><ele>104.0</ele><time>2026-04-02T16:12:53.999Z</time></trkpt><trkpt lat="46.0847960143201" lon="12.876030885351746"><ele>104.0</ele><time>2026-04-02T16:12:54.999Z</time></trkpt><trkpt lat="46.084684327760286" lon="12.876073571137907"><ele>104.0</ele><time>2026-04-02T16:12:55.999Z</time></trkpt><trkpt lat="46.08456993984554" lon="12.87610797284894"><ele>104.0</ele><time>2026-04-02T16:12:57Z</time></trkpt><trkpt lat="46.08445441146049" lon="12.876151618950153"><ele>104.0</ele><time>2026-04-02T16:12:58Z</time></trkpt><trkpt lat="46.08433517602225" lon="12.876201370346696"><ele>104.0</ele><time>2026-04-02T16:12:59Z</time></trkpt><trkpt lat="46.08422723140746" lon="12.876227181801683"><ele>104.0</ele><time>2026-04-02T16:13:00Z</time></trkpt><trkpt lat="46.08413683321801" lon="12.876240360144942"><ele>104.0</ele><time>2026-04-02T16:13:01Z</time></trkpt><trkpt lat="46.08404888862482" lon="12.876268757822125"><ele>104.0</ele><time>2026-04-02T16:13:02Z</time></trkpt><trkpt lat="46.083955214354276" lon="12.876314276206825"><ele>103.6</ele><time>2026-04-02T16:13:03Z</time></trkpt><trkpt lat="46.08384620825213" lon="12.876355529635752"><ele>103.2</ele><time>2026-04-02T16:13:04Z</time></trkpt><trkpt lat="46.08372748318404" lon="12.876366111875745"><ele>102.8</ele><time>2026-04-02T16:13:05Z</time></trkpt><trkpt lat="46.08362015212008" lon="12.876365453284048"><ele>102.39999999999999</ele><time>2026-04-02T16:13:06Z</time></trkpt><trkpt lat="46.083527422285435" lon="12.876359905364659"><ele>102.0</ele><time>2026-04-02T16:13:07Z</time></trkpt><trkpt lat="46.08344360009827" lon="12.876351842967052"><ele>102.0</ele><time>2026-04-02T16:13:08Z</time></trkpt><trkpt lat="46.0833520396778" lon="12.876360380959099"><ele>102.0</ele><time>2026-04-02T16:13:09Z</time></trkpt><trkpt lat="46.08324816455563" lon="12.876390839185438"><ele>102.0</ele><time>2026-04-02T16:13:10Z</time></trkpt><trkpt lat="46.08314219229743" lon="12.87641434335053"><ele>102.0</ele><time>2026-04-02T16:13:11Z</time></trkpt><trkpt lat="46.08305731017011" lon="12.876438249978253"><ele>102.0</ele><time>2026-04-02T16:13:12Z</time></trkpt><trkpt lat="46.082982717121105" lon="12.876475088138001"><ele>102.16666666666667</ele><time>2026-04-02T16:13:13Z</time></trkpt><trkpt lat="46.08291300097906" lon="12.876516111236562"><ele>102.33333333333334</ele><time>2026-04-02T16:13:14Z</time></trkpt><trkpt lat="46.082845395807844" lon="12.876564762952858"><ele>102.5</ele><time>2026-04-02T16:13:15Z</time></trkpt><trkpt lat="46.08276478168598" lon="12.876627182692479"><ele>102.66666666666667</ele><time>2026-04-02T16:13:16Z</time></trkpt><trkpt lat="46.08267574935679" lon="12.876685470419263"><ele>102.83333333333334</ele><time>2026-04-02T16:13:17Z</time></trkpt><trkpt lat="46.08259419403811" lon="12.876738458659712"><ele>103.0</ele><time>2026-04-02T16:13:18Z</time></trkpt><trkpt lat="46.082523832322984" lon="12.876786427379523"><ele>103.0</ele><time>2026-04-02T16:13:19Z</time></trkpt><trkpt lat="46.08245956835546" lon="12.876842067661858"><ele>103.0</ele><time>2026-04-02T16:13:20Z</time></trkpt><trkpt lat="46.08240166919405" lon="12.876919253922784"><ele>103.0</ele><time>2026-04-02T16:13:21Z</time></trkpt><trkpt lat="46.08233992375535" lon="12.877022027447879"><ele>103.0</ele><time>2026-04-02T16:13:22Z</time></trkpt><trkpt lat="46.08227612660201" lon="12.877133974418864"><ele>103.0</ele><time>2026-04-02T16:13:23Z</time></trkpt><trkpt lat="46.08220756516516" lon="12.877250492711838"><ele>103.00000000000001</ele><time>2026-04-02T16:13:24Z</time></trkpt><trkpt lat="46.082145441478204" lon="12.87735117405229"><ele>103.0</ele><time>2026-04-02T16:13:25Z</time></trkpt><trkpt lat="46.08207539068168" lon="12.877451639704171"><ele>103.0</ele><time>2026-04-02T16:13:26Z</time></trkpt><trkpt lat="46.08200893066167" lon="12.877535646094854"><ele>103.0</ele><time>2026-04-02T16:13:27Z</time></trkpt><trkpt lat="46.08195163168225" lon="12.877611352783264"><ele>103.00000000000001</ele><time>2026-04-02T16:13:28Z</time></trkpt><trkpt lat="46.081891989004994" lon="12.877674361532804"><ele>103.0</ele><time>2026-04-02T16:13:29Z</time></trkpt><trkpt lat="46.08182017141922" lon="12.877721306692733"><ele>102.4</ele><time>2026-04-02T16:13:30Z</time></trkpt><trkpt lat="46.08174501464968" lon="12.877769875648626"><ele>101.80000000000001</ele><time>2026-04-02T16:13:31Z</time></trkpt><trkpt lat="46.081674378525086" lon="12.877847374897591"><ele>101.2</ele><time>2026-04-02T16:13:32Z</time></trkpt><trkpt lat="46.08160057807291" lon="12.877954835346696"><ele>100.6</ele><time>2026-04-02T16:13:33Z</time></trkpt><trkpt lat="46.08153188692235" lon="12.878077632661793"><ele>100.0</ele><time>2026-04-02T16:13:34Z</time></trkpt><trkpt lat="46.081467362850844" lon="12.878222343082049"><ele>100.0</ele><time>2026-04-02T16:13:35Z</time></trkpt><trkpt lat="46.08140729237055" lon="12.878370024655407"><ele>100.0</ele><time>2026-04-02T16:13:36Z</time></trkpt><trkpt lat="46.08136269800123" lon="12.878514969502335"><ele>100.0</ele><time>2026-04-02T16:13:37Z</time></trkpt><trkpt lat="46.08132907049576" lon="12.87865425416533"><ele>100.0</ele><time>2026-04-02T16:13:38Z</time></trkpt><trkpt lat="46.08129716905805" lon="12.878772004259364"><ele>100.0</ele><time>2026-04-02T16:13:39Z</time></trkpt><trkpt lat="46.08126545178348" lon="12.878874694930945"><ele>100.00000000000001</ele><time>2026-04-02T16:13:40Z</time></trkpt><trkpt lat="46.08122149409934" lon="12.878964879308059"><ele>100.0</ele><time>2026-04-02T16:13:41Z</time></trkpt><trkpt lat="46.08117303301382" lon="12.879044989226651"><ele>100.0</ele><time>2026-04-02T16:13:42Z</time></trkpt><trkpt lat="46.08113322663604" lon="12.879126126994445"><ele>100.0</ele><time>2026-04-02T16:13:43Z</time></trkpt><trkpt lat="46.08109887964076" lon="12.879219211551561"><ele>100.0</ele><time>2026-04-02T16:13:44Z</time></trkpt><trkpt lat="46.08107314323476" lon="12.879315489091798"><ele>100.00000000000001</ele><time>2026-04-02T16:13:45Z</time></trkpt><trkpt lat="46.081048110137395" lon="12.879414449400732"><ele>100.0</ele><time>2026-04-02T16:13:46Z</time></trkpt><trkpt lat="46.08102099897715" lon="12.879542099081451"><ele>100.0</ele><time>2026-04-02T16:13:47Z</time></trkpt><trkpt lat="46.08099085728128" lon="12.879699623482795"><ele>100.0</ele><time>2026-04-02T16:13:48Z</time></trkpt><trkpt lat="46.08095426341087" lon="12.879840066827914"><ele>100.0</ele><time>2026-04-02T16:13:49Z</time></trkpt><trkpt lat="46.08091048095863" lon="12.879948796092277"><ele>100.0</ele><time>2026-04-02T16:13:50Z</time></trkpt><trkpt lat="46.08086765258215" lon="12.880062075485338"><ele>100.0</ele><time>2026-04-02T16:13:51Z</time></trkpt><trkpt lat="46.08082837077104" lon="12.880195148852385"><ele>100.00000000000001</ele><time>2026-04-02T16:13:52Z</time></trkpt><trkpt lat="46.080794127058105" lon="12.880299902361848"><ele>100.0</ele><time>2026-04-02T16:13:53Z</time></trkpt><trkpt lat="46.08075799521789" lon="12.880420407701235"><ele>100.0</ele><time>2026-04-02T16:13:54Z</time></trkpt><trkpt lat="46.080719118780934" lon="12.880551125750364"><ele>100.0</ele><time>2026-04-02T16:13:55Z</time></trkpt><trkpt lat="46.0806780062497" lon="12.880674392145806"><ele>100.00000000000001</ele><time>2026-04-02T16:13:56Z</time></trkpt><trkpt lat="46.080637783355016" lon="12.880781626991672"><ele>100.0</ele><time>2026-04-02T16:13:57Z</time></trkpt><trkpt lat="46.080588231011" lon="12.880879784692938"><ele>99.8</ele><time>2026-04-02T16:13:58Z</time></trkpt><trkpt lat="46.08052517783433" lon="12.88097067355333"><ele>99.6</ele><time>2026-04-02T16:13:59Z</time></trkpt><trkpt lat="46.08045571949691" lon="12.881086762132592"><ele>99.4</ele><time>2026-04-02T16:14:00Z</time></trkpt><trkpt lat="46.08038923697315" lon="12.881202836059149"><ele>99.2</ele><time>2026-04-02T16:14:01Z</time></trkpt><trkpt lat="46.08032162396278" lon="12.881317927322495"><ele>99.0</ele><time>2026-04-02T16:14:02Z</time></trkpt><trkpt lat="46.080256639254614" lon="12.881438274043498"><ele>99.0</ele><time>2026-04-02T16:14:03Z</time></trkpt><trkpt lat="46.08019551079097" lon="12.881536830925526"><ele>99.0</ele><time>2026-04-02T16:14:04Z</time></trkpt><trkpt lat="46.080123398042325" lon="12.881613525466978"><ele>99.0</ele><time>2026-04-02T16:14:05Z</time></trkpt><trkpt lat="46.08004648777108" lon="12.88169087017948"><ele>99.0</ele><time>2026-04-02T16:14:06Z</time></trkpt><trkpt lat="46.07995580430244" lon="12.881784558609077"><ele>99.0</ele><time>2026-04-02T16:14:07Z</time></trkpt><trkpt lat="46.07986332567607" lon="12.881875393346318"><ele>98.80000000000001</ele><time>2026-04-02T16:14:08Z</time></trkpt><trkpt lat="46.079785417608626" lon="12.881937921060942"><ele>98.60000000000001</ele><time>2026-04-02T16:14:09Z</time></trkpt><trkpt lat="46.079703342459986" lon="12.881990291064088"><ele>98.4</ele><time>2026-04-02T16:14:10Z</time></trkpt><trkpt lat="46.079606498125614" lon="12.882030588137921"><ele>98.2</ele><time>2026-04-02T16:14:11Z</time></trkpt><trkpt lat="46.079506016575074" lon="12.882076325036273"><ele>98.0</ele><time>2026-04-02T16:14:12Z</time></trkpt><trkpt lat="46.07941986197161" lon="12.882116699953352"><ele>98.0</ele><time>2026-04-02T16:14:13Z</time></trkpt><trkpt lat="46.07934491394788" lon="12.882144666532982"><ele>98.0</ele><time>2026-04-02T16:14:14Z</time></trkpt><trkpt lat="46.07926329287085" lon="12.882176628566606"><ele>98.0</ele><time>2026-04-02T16:14:15Z</time></trkpt><trkpt lat="46.079157691779244" lon="12.88222858935443"><ele>98.0</ele><time>2026-04-02T16:14:16Z</time></trkpt><trkpt lat="46.079055936133784" lon="12.882294522376878"><ele>98.0</ele><time>2026-04-02T16:14:17Z</time></trkpt><trkpt lat="46.07896063107696" lon="12.882366786329728"><ele>98.0</ele><time>2026-04-02T16:14:18Z</time></trkpt><trkpt lat="46.078868292894974" lon="12.882444990034067"><ele>98.0</ele><time>2026-04-02T16:14:19Z</time></trkpt><trkpt lat="46.07878714476687" lon="12.882524839878823"><ele>98.0</ele><time>2026-04-02T16:14:20Z</time></trkpt><trkpt lat="46.0787146317131" lon="12.882596579697804"><ele>98.0</ele><time>2026-04-02T16:14:21Z</time></trkpt><trkpt lat="46.07864065633469" lon="12.882658309231614"><ele>98.0</ele><time>2026-04-02T16:14:22Z</time></trkpt><trkpt lat="46.07856354224265" lon="12.882712736839107"><ele>97.60000000000001</ele><time>2026-04-02T16:14:23Z</time></trkpt><trkpt lat="46.07847628159873" lon="12.882765195127197"><ele>97.2</ele><time>2026-04-02T16:14:24Z</time></trkpt><trkpt lat="46.07837876543215" lon="12.882819368056872"><ele>96.8</ele><time>2026-04-02T16:14:25Z</time></trkpt><trkpt lat="46.07829754151569" lon="12.882869785566722"><ele>96.4</ele><time>2026-04-02T16:14:26Z</time></trkpt><trkpt lat="46.078225683604536" lon="12.882924436787796"><ele>96.0</ele><time>2026-04-02T16:14:27Z</time></trkpt><trkpt lat="46.07815137125003" lon="12.882975222036919"><ele>96.0</ele><time>2026-04-02T16:14:28Z</time></trkpt><trkpt lat="46.0780917707598" lon="12.88301862666596"><ele>96.0</ele><time>2026-04-02T16:14:29Z</time></trkpt><trkpt lat="46.078032385871275" lon="12.88307307990115"><ele>96.0</ele><time>2026-04-02T16:14:30Z</time></trkpt><trkpt lat="46.07796270886027" lon="12.883152177348245"><ele>96.0</ele><time>2026-04-02T16:14:31Z</time></trkpt><trkpt lat="46.077881651560496" lon="12.883226763906091"><ele>96.0</ele><time>2026-04-02T16:14:32Z</time></trkpt><trkpt lat="46.077787670133155" lon="12.883305280453353"><ele>96.0</ele><time>2026-04-02T16:14:33Z</time></trkpt><trkpt lat="46.07769811209951" lon="12.883377658714059"><ele>96.0</ele><time>2026-04-02T16:14:34Z</time></trkpt><trkpt lat="46.07762260054231" lon="12.883442336257003"><ele>96.0</ele><time>2026-04-02T16:14:35Z</time></trkpt><trkpt lat="46.07756191495578" lon="12.883507217460206"><ele>96.0</ele><time>2026-04-02T16:14:36Z</time></trkpt><trkpt lat="46.0775036411281" lon="12.883585421753171"><ele>96.0</ele><time>2026-04-02T16:14:37Z</time></trkpt><trkpt lat="46.07744147851099" lon="12.88365175570699"><ele>96.0</ele><time>2026-04-02T16:14:38Z</time></trkpt><trkpt lat="46.07737317833988" lon="12.883685336959797"><ele>96.0</ele><time>2026-04-02T16:14:39Z</time></trkpt><trkpt lat="46.07728089001488" lon="12.883731500576229"><ele>96.0</ele><time>2026-04-02T16:14:40Z</time></trkpt><trkpt lat="46.07719470490019" lon="12.883801543213528"><ele>96.0</ele><time>2026-04-02T16:14:41Z</time></trkpt><trkpt lat="46.07712275176472" lon="12.883853901315248"><ele>96.0</ele><time>2026-04-02T16:14:42Z</time></trkpt><trkpt lat="46.077061961854554" lon="12.883888548574511"><ele>96.0</ele><time>2026-04-02T16:14:43Z</time></trkpt><trkpt lat="46.07699054475045" lon="12.88393672810209"><ele>96.0</ele><time>2026-04-02T16:14:44Z</time></trkpt><trkpt lat="46.076891233423346" lon="12.884000231020734"><ele>96.0</ele><time>2026-04-02T16:14:45Z</time></trkpt><trkpt lat="46.0768033076481" lon="12.884067476533987"><ele>96.0</ele><time>2026-04-02T16:14:46Z</time></trkpt><trkpt lat="46.07673754006518" lon="12.884139269876947"><ele>96.0</ele><time>2026-04-02T16:14:46.999Z</time></trkpt><trkpt lat="46.07667333232664" lon="12.884230100652614"><ele>96.0</ele><time>2026-04-02T16:14:47.999Z</time></trkpt><trkpt lat="46.07659901740791" lon="12.884330242552572"><ele>96.0</ele><time>2026-04-02T16:14:48.999Z</time></trkpt><trkpt lat="46.076524720821126" lon="12.88442558955084"><ele>96.0</ele><time>2026-04-02T16:14:49.999Z</time></trkpt><trkpt lat="46.076454502538134" lon="12.884504138387944"><ele>96.16666666666667</ele><time>2026-04-02T16:14:50.999Z</time></trkpt><trkpt lat="46.07639440065492" lon="12.884580369101759"><ele>96.33333333333334</ele><time>2026-04-02T16:14:51.999Z</time></trkpt><trkpt lat="46.07633786560779" lon="12.884670318829274"><ele>96.5</ele><time>2026-04-02T16:14:52.999Z</time></trkpt><trkpt lat="46.07628259740159" lon="12.884761752187055"><ele>96.66666666666667</ele><time>2026-04-02T16:14:53.999Z</time></trkpt><trkpt lat="46.076224150229315" lon="12.884845567316662"><ele>96.83333333333334</ele><time>2026-04-02T16:14:54.999Z</time></trkpt><trkpt lat="46.0761558758511" lon="12.884915943715738"><ele>97.0</ele><time>2026-04-02T16:14:55.999Z</time></trkpt><trkpt lat="46.076078521541184" lon="12.884958396827178"><ele>97.0</ele><time>2026-04-02T16:14:56.999Z</time></trkpt><trkpt lat="46.07598895915698" lon="12.884979883942899"><ele>97.0</ele><time>2026-04-02T16:14:57.999Z</time></trkpt><trkpt lat="46.075901385050464" lon="12.884989384465788"><ele>97.0</ele><time>2026-04-02T16:14:58.999Z</time></trkpt><trkpt lat="46.0758185694077" lon="12.88501729397309"><ele>97.0</ele><time>2026-04-02T16:14:59.999Z</time></trkpt><trkpt lat="46.07572704105226" lon="12.88505789193201"><ele>97.0</ele><time>2026-04-02T16:15:00.999Z</time></trkpt><trkpt lat="46.075630123779845" lon="12.885100383469013"><ele>96.83333333333334</ele><time>2026-04-02T16:15:02Z</time></trkpt><trkpt lat="46.07555247645021" lon="12.885132719907013"><ele>96.66666666666667</ele><time>2026-04-02T16:15:03Z</time></trkpt><trkpt lat="46.07548364353602" lon="12.885164696392593"><ele>96.5</ele><time>2026-04-02T16:15:04Z</time></trkpt><trkpt lat="46.07540352181417" lon="12.885200674269477"><ele>96.33333333333334</ele><time>2026-04-02T16:15:05Z</time></trkpt><trkpt lat="46.07530888463742" lon="12.885257804749372"><ele>96.16666666666667</ele><time>2026-04-02T16:15:06Z</time></trkpt><trkpt lat="46.07522881697007" lon="12.885306886988634"><ele>96.0</ele><time>2026-04-02T16:15:07Z</time></trkpt><trkpt lat="46.075115646282114" lon="12.885340610793282"><ele>96.0</ele><time>2026-04-02T16:15:09Z</time></trkpt><trkpt lat="46.07504039078198" lon="12.885400601315782"><ele>96.0</ele><time>2026-04-02T16:15:10Z</time></trkpt><trkpt lat="46.07495732360425" lon="12.885483367063259"><ele>96.0</ele><time>2026-04-02T16:15:11Z</time></trkpt><trkpt lat="46.07489283753326" lon="12.885546009943821"><ele>96.0</ele><time>2026-04-02T16:15:12Z</time></trkpt><trkpt lat="46.07483802162957" lon="12.885595122365078"><ele>96.0</ele><time>2026-04-02T16:15:13Z</time></trkpt><trkpt lat="46.074726867047346" lon="12.885708878253771"><ele>95.8</ele><time>2026-04-02T16:15:15Z</time></trkpt><trkpt lat="46.07464455347194" lon="12.88579904325534"><ele>95.6</ele><time>2026-04-02T16:15:16Z</time></trkpt><trkpt lat="46.07455526138016" lon="12.885869849616919"><ele>95.4</ele><time>2026-04-02T16:15:17Z</time></trkpt><trkpt lat="46.074463698595245" lon="12.885937185087782"><ele>95.2</ele><time>2026-04-02T16:15:18Z</time></trkpt><trkpt lat="46.07438161048919" lon="12.88600727510608"><ele>95.0</ele><time>2026-04-02T16:15:19Z</time></trkpt><trkpt lat="46.07430135900861" lon="12.88608137533541"><ele>94.8</ele><time>2026-04-02T16:15:20Z</time></trkpt><trkpt lat="46.07421825553428" lon="12.886153466593896"><ele>94.6</ele><time>2026-04-02T16:15:21Z</time></trkpt><trkpt lat="46.07413020694851" lon="12.886237046238103"><ele>94.4</ele><time>2026-04-02T16:15:22Z</time></trkpt><trkpt lat="46.07403910855989" lon="12.886330179992123"><ele>94.2</ele><time>2026-04-02T16:15:23Z</time></trkpt><trkpt lat="46.07395262712589" lon="12.886422443613752"><ele>94.0</ele><time>2026-04-02T16:15:24Z</time></trkpt><trkpt lat="46.07387466491565" lon="12.886501604364597"><ele>94.0</ele><time>2026-04-02T16:15:25Z</time></trkpt><trkpt lat="46.07380052932535" lon="12.88656830910473"><ele>94.0</ele><time>2026-04-02T16:15:26Z</time></trkpt><trkpt lat="46.07373568826572" lon="12.886643305363158"><ele>94.0</ele><time>2026-04-02T16:15:27Z</time></trkpt><trkpt lat="46.07368340385032" lon="12.886721002124037"><ele>94.0</ele><time>2026-04-02T16:15:28Z</time></trkpt><trkpt lat="46.07363141332063" lon="12.88679766226463"><ele>94.0</ele><time>2026-04-02T16:15:29Z</time></trkpt><trkpt lat="46.07356466516746" lon="12.886869021753824"><ele>94.0</ele><time>2026-04-02T16:15:30Z</time></trkpt><trkpt lat="46.07348412217779" lon="12.886976348862492"><ele>94.25</ele><time>2026-04-02T16:15:31Z</time></trkpt><trkpt lat="46.07339400532055" lon="12.887130937519034"><ele>94.5</ele><time>2026-04-02T16:15:32Z</time></trkpt><trkpt lat="46.07331062066002" lon="12.887267915188607"><ele>94.75</ele><time>2026-04-02T16:15:33Z</time></trkpt><trkpt lat="46.07324166611505" lon="12.887373326458663"><ele>95.0</ele><time>2026-04-02T16:15:34Z</time></trkpt><trkpt lat="46.07318191683254" lon="12.88746733350469"><ele>95.16666666666667</ele><time>2026-04-02T16:15:35Z</time></trkpt><trkpt lat="46.07312872036115" lon="12.887560440503627"><ele>95.33333333333334</ele><time>2026-04-02T16:15:36Z</time></trkpt><trkpt lat="46.07308030240056" lon="12.88765708825865"><ele>95.5</ele><time>2026-04-02T16:15:37Z</time></trkpt><trkpt lat="46.07303267073076" lon="12.887768535016773"><ele>95.66666666666667</ele><time>2026-04-02T16:15:38Z</time></trkpt><trkpt lat="46.07299683833097" lon="12.887868737017444"><ele>95.83333333333333</ele><time>2026-04-02T16:15:39Z</time></trkpt><trkpt lat="46.07295684872296" lon="12.887944293308745"><ele>96.0</ele><time>2026-04-02T16:15:40Z</time></trkpt><trkpt lat="46.07290101452236" lon="12.888018226917987"><ele>95.4</ele><time>2026-04-02T16:15:41Z</time></trkpt><trkpt lat="46.07283940341512" lon="12.888108527602132"><ele>94.8</ele><time>2026-04-02T16:15:42Z</time></trkpt><trkpt lat="46.07278303547442" lon="12.888223997590314"><ele>94.2</ele><time>2026-04-02T16:15:43Z</time></trkpt><trkpt lat="46.072725962429146" lon="12.888348011711072"><ele>93.60000000000001</ele><time>2026-04-02T16:15:44Z</time></trkpt><trkpt lat="46.07267548995965" lon="12.888437014361848"><ele>93.0</ele><time>2026-04-02T16:15:45Z</time></trkpt><trkpt lat="46.07261287904794" lon="12.888515116916867"><ele>93.0</ele><time>2026-04-02T16:15:46Z</time></trkpt><trkpt lat="46.07254693154357" lon="12.888574568168208"><ele>93.0</ele><time>2026-04-02T16:15:47Z</time></trkpt><trkpt lat="46.07244134849326" lon="12.888677657555785"><ele>93.0</ele><time>2026-04-02T16:15:49Z</time></trkpt><trkpt lat="46.07234273722631" lon="12.888838711244347"><ele>93.0</ele><time>2026-04-02T16:15:51Z</time></trkpt><trkpt lat="46.072262673676384" lon="12.88890905089003"><ele>93.0</ele><time>2026-04-02T16:15:52Z</time></trkpt><trkpt lat="46.07216844552065" lon="12.88898546611282"><ele>93.0</ele><time>2026-04-02T16:15:53Z</time></trkpt><trkpt lat="46.07208750024942" lon="12.889065603407763"><ele>93.0</ele><time>2026-04-02T16:15:54Z</time></trkpt><trkpt lat="46.072017945980534" lon="12.889130576496115"><ele>93.0</ele><time>2026-04-02T16:15:55Z</time></trkpt><trkpt lat="46.07194732760452" lon="12.889192212278537"><ele>93.0</ele><time>2026-04-02T16:15:56Z</time></trkpt><trkpt lat="46.07188142277181" lon="12.88925477012968"><ele>93.0</ele><time>2026-04-02T16:15:57Z</time></trkpt><trkpt lat="46.07182407766411" lon="12.889323774138589"><ele>93.0</ele><time>2026-04-02T16:15:58Z</time></trkpt><trkpt lat="46.071763897289415" lon="12.889398823267667"><ele>93.0</ele><time>2026-04-02T16:15:59Z</time></trkpt><trkpt lat="46.07169602881298" lon="12.889477966851802"><ele>93.0</ele><time>2026-04-02T16:16:00Z</time></trkpt><trkpt lat="46.07162466360654" lon="12.889544136982742"><ele>93.0</ele><time>2026-04-02T16:16:01Z</time></trkpt><trkpt lat="46.07154015098706" lon="12.8895928823559"><ele>93.0</ele><time>2026-04-02T16:16:02Z</time></trkpt><trkpt lat="46.07145030573682" lon="12.889619083058195"><ele>93.0</ele><time>2026-04-02T16:16:03Z</time></trkpt><trkpt lat="46.071367132493506" lon="12.889643395949044"><ele>93.0</ele><time>2026-04-02T16:16:04Z</time></trkpt><trkpt lat="46.071275474266926" lon="12.889679185930843"><ele>93.0</ele><time>2026-04-02T16:16:05Z</time></trkpt><trkpt lat="46.07117145699953" lon="12.889724077543955"><ele>93.0</ele><time>2026-04-02T16:16:06Z</time></trkpt><trkpt lat="46.07106729024331" lon="12.889772057275277"><ele>93.0</ele><time>2026-04-02T16:16:07Z</time></trkpt><trkpt lat="46.07097625270637" lon="12.889824923613478"><ele>93.0</ele><time>2026-04-02T16:16:08Z</time></trkpt><trkpt lat="46.07089925474321" lon="12.889876983755508"><ele>93.0</ele><time>2026-04-02T16:16:09Z</time></trkpt><trkpt lat="46.07082684696985" lon="12.889934009261475"><ele>92.80000000000001</ele><time>2026-04-02T16:16:10Z</time></trkpt><trkpt lat="46.070733207340574" lon="12.890029878219062"><ele>92.6</ele><time>2026-04-02T16:16:11Z</time></trkpt><trkpt lat="46.07067606410823" lon="12.890105263731652"><ele>92.4</ele><time>2026-04-02T16:16:12Z</time></trkpt><trkpt lat="46.07060500002869" lon="12.89020430362694"><ele>92.19999999999999</ele><time>2026-04-02T16:16:13Z</time></trkpt><trkpt lat="46.070539571260646" lon="12.890295340996774"><ele>92.0</ele><time>2026-04-02T16:16:14Z</time></trkpt><trkpt lat="46.07048522236448" lon="12.890376157060992"><ele>92.0</ele><time>2026-04-02T16:16:15Z</time></trkpt><trkpt lat="46.07043980719294" lon="12.890465476728453"><ele>92.0</ele><time>2026-04-02T16:16:16Z</time></trkpt><trkpt lat="46.07039831001271" lon="12.890562678821885"><ele>92.0</ele><time>2026-04-02T16:16:17Z</time></trkpt><trkpt lat="46.07036433894267" lon="12.890640967170368"><ele>92.0</ele><time>2026-04-02T16:16:18Z</time></trkpt><trkpt lat="46.07031774238731" lon="12.89074149913594"><ele>92.0</ele><time>2026-04-02T16:16:20Z</time></trkpt><trkpt lat="46.07026206249908" lon="12.890835749809801"><ele>92.0</ele><time>2026-04-02T16:16:22Z</time></trkpt><trkpt lat="46.07023065697766" lon="12.890940818752588"><ele>92.0</ele><time>2026-04-02T16:16:23Z</time></trkpt><trkpt lat="46.07020425162327" lon="12.8910692640191"><ele>92.0</ele><time>2026-04-02T16:16:24Z</time></trkpt><trkpt lat="46.070189769243406" lon="12.891174744732194"><ele>92.0</ele><time>2026-04-02T16:16:25Z</time></trkpt><trkpt lat="46.07016890825524" lon="12.891329744819569"><ele>92.0</ele><time>2026-04-02T16:16:27Z</time></trkpt><trkpt lat="46.0701464408298" lon="12.891460458762953"><ele>92.0</ele><time>2026-04-02T16:16:29Z</time></trkpt><trkpt lat="46.07010256375557" lon="12.891564713791007"><ele>92.0</ele><time>2026-04-02T16:16:31Z</time></trkpt><trkpt lat="46.070062646766345" lon="12.89167533444351"><ele>92.0</ele><time>2026-04-02T16:16:32Z</time></trkpt><trkpt lat="46.07002673809979" lon="12.891771437093823"><ele>92.0</ele><time>2026-04-02T16:16:33Z</time></trkpt><trkpt lat="46.069940125587515" lon="12.891894980433106"><ele>92.0</ele><time>2026-04-02T16:16:34Z</time></trkpt><trkpt lat="46.0698562392615" lon="12.892028662362682"><ele>92.0</ele><time>2026-04-02T16:16:35Z</time></trkpt><trkpt lat="46.069779660603785" lon="12.892168555937776"><ele>91.8</ele><time>2026-04-02T16:16:36Z</time></trkpt><trkpt lat="46.06971736573939" lon="12.892286909932025"><ele>91.6</ele><time>2026-04-02T16:16:37Z</time></trkpt><trkpt lat="46.06965266797527" lon="12.89239436650384"><ele>91.39999999999999</ele><time>2026-04-02T16:16:38Z</time></trkpt><trkpt lat="46.069591266057074" lon="12.892513327640968"><ele>91.19999999999999</ele><time>2026-04-02T16:16:39Z</time></trkpt><trkpt lat="46.06953550839023" lon="12.892648307528349"><ele>91.0</ele><time>2026-04-02T16:16:40Z</time></trkpt><trkpt lat="46.069485370969694" lon="12.89280388261058"><ele>91.0</ele><time>2026-04-02T16:16:41Z</time></trkpt><trkpt lat="46.06943909737193" lon="12.892958254169763"><ele>91.0</ele><time>2026-04-02T16:16:42Z</time></trkpt><trkpt lat="46.06939824688283" lon="12.893093739861552"><ele>91.0</ele><time>2026-04-02T16:16:43Z</time></trkpt><trkpt lat="46.069357459398255" lon="12.89320949018484"><ele>91.0</ele><time>2026-04-02T16:16:44Z</time></trkpt><trkpt lat="46.06930957574958" lon="12.893318900611813"><ele>91.0</ele><time>2026-04-02T16:16:45Z</time></trkpt><trkpt lat="46.069253975497986" lon="12.893414447526935"><ele>91.0</ele><time>2026-04-02T16:16:46Z</time></trkpt><trkpt lat="46.06918092282425" lon="12.893501585116628"><ele>91.0</ele><time>2026-04-02T16:16:47Z</time></trkpt><trkpt lat="46.06911346681342" lon="12.893600322604025"><ele>91.0</ele><time>2026-04-02T16:16:48Z</time></trkpt><trkpt lat="46.06907503617894" lon="12.89371869387442"><ele>91.0</ele><time>2026-04-02T16:16:49Z</time></trkpt><trkpt lat="46.06903662110466" lon="12.893860292544975"><ele>91.0</ele><time>2026-04-02T16:16:50Z</time></trkpt><trkpt lat="46.06898049043016" lon="12.893990315521242"><ele>90.8</ele><time>2026-04-02T16:16:51Z</time></trkpt><trkpt lat="46.06891827136993" lon="12.894102714549895"><ele>90.6</ele><time>2026-04-02T16:16:52Z</time></trkpt><trkpt lat="46.06885589960146" lon="12.89421796690747"><ele>90.4</ele><time>2026-04-02T16:16:52.999Z</time></trkpt><trkpt lat="46.06878795048376" lon="12.89433662133648"><ele>90.2</ele><time>2026-04-02T16:16:53.999Z</time></trkpt><trkpt lat="46.068714638453564" lon="12.894461642742382"><ele>90.0</ele><time>2026-04-02T16:16:54.999Z</time></trkpt><trkpt lat="46.06865315925362" lon="12.894570742146547"><ele>90.0</ele><time>2026-04-02T16:16:55.999Z</time></trkpt><trkpt lat="46.06858530650798" lon="12.894676071702643"><ele>90.0</ele><time>2026-04-02T16:16:56.999Z</time></trkpt><trkpt lat="46.06851477466096" lon="12.894793108226652"><ele>90.0</ele><time>2026-04-02T16:16:57.999Z</time></trkpt><trkpt lat="46.068449053446486" lon="12.894933130196316"><ele>90.0</ele><time>2026-04-02T16:16:58.999Z</time></trkpt><trkpt lat="46.06837998616208" lon="12.895085077316088"><ele>90.0</ele><time>2026-04-02T16:16:59.999Z</time></trkpt><trkpt lat="46.06830531171037" lon="12.895237993192051"><ele>90.0</ele><time>2026-04-02T16:17:00.999Z</time></trkpt><trkpt lat="46.06824365949907" lon="12.89537253571822"><ele>90.0</ele><time>2026-04-02T16:17:01.999Z</time></trkpt><trkpt lat="46.068191519565104" lon="12.89548777575355"><ele>90.0</ele><time>2026-04-02T16:17:02.999Z</time></trkpt><trkpt lat="46.068140494406784" lon="12.895605061982533"><ele>90.0</ele><time>2026-04-02T16:17:03.999Z</time></trkpt><trkpt lat="46.06808376045183" lon="12.895713216803902"><ele>90.0</ele><time>2026-04-02T16:17:04.999Z</time></trkpt><trkpt lat="46.06801895025308" lon="12.895816739506513"><ele>90.0</ele><time>2026-04-02T16:17:05.999Z</time></trkpt><trkpt lat="46.067951207684025" lon="12.895917400544544"><ele>90.0</ele><time>2026-04-02T16:17:07Z</time></trkpt><trkpt lat="46.06788683128885" lon="12.896023630203382"><ele>90.0</ele><time>2026-04-02T16:17:08Z</time></trkpt><trkpt lat="46.06782860302591" lon="12.896142471436585"><ele>90.0</ele><time>2026-04-02T16:17:09Z</time></trkpt><trkpt lat="46.067779565322176" lon="12.896269602677886"><ele>90.0</ele><time>2026-04-02T16:17:10Z</time></trkpt><trkpt lat="46.067729779061956" lon="12.896419688574516"><ele>90.0</ele><time>2026-04-02T16:17:11Z</time></trkpt><trkpt lat="46.067667965681004" lon="12.896564931490955"><ele>90.0</ele><time>2026-04-02T16:17:12Z</time></trkpt><trkpt lat="46.06760457252723" lon="12.89671574995593"><ele>90.0</ele><time>2026-04-02T16:17:13Z</time></trkpt><trkpt lat="46.06755670817561" lon="12.896849874038596"><ele>90.0</ele><time>2026-04-02T16:17:14Z</time></trkpt><trkpt lat="46.06751647944538" lon="12.896974821053574"><ele>90.0</ele><time>2026-04-02T16:17:15Z</time></trkpt><trkpt lat="46.06747774676028" lon="12.897095266140774"><ele>90.0</ele><time>2026-04-02T16:17:16Z</time></trkpt><trkpt lat="46.06743232598906" lon="12.897232030270947"><ele>90.0</ele><time>2026-04-02T16:17:17Z</time></trkpt><trkpt lat="46.06738955379947" lon="12.897370447905216"><ele>90.0</ele><time>2026-04-02T16:17:18Z</time></trkpt><trkpt lat="46.06734360573308" lon="12.897472792969927"><ele>89.6</ele><time>2026-04-02T16:17:19Z</time></trkpt><trkpt lat="46.06729714412023" lon="12.897577957835411"><ele>89.2</ele><time>2026-04-02T16:17:20Z</time></trkpt><trkpt lat="46.0672501114315" lon="12.897698876332713"><ele>88.80000000000001</ele><time>2026-04-02T16:17:21Z</time></trkpt><trkpt lat="46.067211059888024" lon="12.89785542306617"><ele>88.4</ele><time>2026-04-02T16:17:22Z</time></trkpt><trkpt lat="46.067178023625516" lon="12.898014565752668"><ele>88.0</ele><time>2026-04-02T16:17:23Z</time></trkpt><trkpt lat="46.06714095864382" lon="12.898148859787325"><ele>88.0</ele><time>2026-04-02T16:17:24Z</time></trkpt><trkpt lat="46.0671053278454" lon="12.898281698208695"><ele>88.0</ele><time>2026-04-02T16:17:25Z</time></trkpt><trkpt lat="46.06707052682746" lon="12.898429428114587"><ele>88.0</ele><time>2026-04-02T16:17:26Z</time></trkpt><trkpt lat="46.067037767267" lon="12.898577648965057"><ele>88.0</ele><time>2026-04-02T16:17:27Z</time></trkpt><trkpt lat="46.067003472127084" lon="12.898736003681964"><ele>88.0</ele><time>2026-04-02T16:17:28Z</time></trkpt><trkpt lat="46.0669647877279" lon="12.898895247998823"><ele>87.5</ele><time>2026-04-02T16:17:29Z</time></trkpt><trkpt lat="46.06691863012349" lon="12.89906505573317"><ele>87.0</ele><time>2026-04-02T16:17:30Z</time></trkpt><trkpt lat="46.06685939364002" lon="12.899242030954897"><ele>86.5</ele><time>2026-04-02T16:17:31Z</time></trkpt><trkpt lat="46.066800898277265" lon="12.899409071248522"><ele>86.0</ele><time>2026-04-02T16:17:32Z</time></trkpt><trkpt lat="46.06675398856645" lon="12.899547120916393"><ele>85.8</ele><time>2026-04-02T16:17:33Z</time></trkpt><trkpt lat="46.06671165487531" lon="12.899677786712253"><ele>85.6</ele><time>2026-04-02T16:17:34Z</time></trkpt><trkpt lat="46.066679632542275" lon="12.899809641565811"><ele>85.4</ele><time>2026-04-02T16:17:35Z</time></trkpt><trkpt lat="46.066655229442524" lon="12.899929909818384"><ele>85.2</ele><time>2026-04-02T16:17:36Z</time></trkpt><trkpt lat="46.06663206439767" lon="12.90005397195535"><ele>85.0</ele><time>2026-04-02T16:17:37Z</time></trkpt><trkpt lat="46.06660782261953" lon="12.90018288371774"><ele>86.0</ele><time>2026-04-02T16:17:38Z</time></trkpt><trkpt lat="46.06658434722322" lon="12.900312294489652"><ele>87.0</ele><time>2026-04-02T16:17:39Z</time></trkpt><trkpt lat="46.066552860192665" lon="12.900455823617781"><ele>88.0</ele><time>2026-04-02T16:17:40Z</time></trkpt><trkpt lat="46.06652637977171" lon="12.900589584024125"><ele>89.0</ele><time>2026-04-02T16:17:41Z</time></trkpt><trkpt lat="46.06650427414255" lon="12.900693435113302"><ele>90.0</ele><time>2026-04-02T16:17:42Z</time></trkpt><trkpt lat="46.06647425585488" lon="12.9007876733924"><ele>91.0</ele><time>2026-04-02T16:17:43Z</time></trkpt><trkpt lat="46.066438203117" lon="12.900887871292706"><ele>90.5</ele><time>2026-04-02T16:17:44Z</time></trkpt><trkpt lat="46.06640164827461" lon="12.901027236259667"><ele>90.0</ele><time>2026-04-02T16:17:45Z</time></trkpt><trkpt lat="46.066370218774665" lon="12.901191977126926"><ele>89.5</ele><time>2026-04-02T16:17:46Z</time></trkpt><trkpt lat="46.0663392753131" lon="12.901368609927747"><ele>89.0</ele><time>2026-04-02T16:17:47Z</time></trkpt><trkpt lat="46.06630398859791" lon="12.90151370579867"><ele>89.0</ele><time>2026-04-02T16:17:48Z</time></trkpt><trkpt lat="46.06626701182299" lon="12.90165738716943"><ele>89.0</ele><time>2026-04-02T16:17:49Z</time></trkpt><trkpt lat="46.06623747002837" lon="12.901790326441343"><ele>89.0</ele><time>2026-04-02T16:17:50Z</time></trkpt><trkpt lat="46.066220069340716" lon="12.90191163573106"><ele>89.0</ele><time>2026-04-02T16:17:51Z</time></trkpt><trkpt lat="46.06620515270643" lon="12.90203205131269"><ele>89.0</ele><time>2026-04-02T16:17:52Z</time></trkpt><trkpt lat="46.06618905389105" lon="12.902153721756578"><ele>88.66666666666667</ele><time>2026-04-02T16:17:53Z</time></trkpt><trkpt lat="46.066169821861784" lon="12.902280145737485"><ele>88.33333333333334</ele><time>2026-04-02T16:17:54Z</time></trkpt><trkpt lat="46.066148333856724" lon="12.902373221832406"><ele>88.0</ele><time>2026-04-02T16:17:55Z</time></trkpt><trkpt lat="46.066104009364494" lon="12.902497308549538"><ele>87.66666666666667</ele><time>2026-04-02T16:17:57Z</time></trkpt><trkpt lat="46.06607246293521" lon="12.902593802324397"><ele>87.33333333333333</ele><time>2026-04-02T16:17:58Z</time></trkpt><trkpt lat="46.06603480908641" lon="12.90271843795487"><ele>87.0</ele><time>2026-04-02T16:17:59Z</time></trkpt><trkpt lat="46.065996386856575" lon="12.902863224048733"><ele>86.8</ele><time>2026-04-02T16:18:00Z</time></trkpt><trkpt lat="46.06596188672273" lon="12.903000080191463"><ele>86.6</ele><time>2026-04-02T16:18:01Z</time></trkpt><trkpt lat="46.06592901469" lon="12.903118283850798"><ele>86.39999999999999</ele><time>2026-04-02T16:18:02Z</time></trkpt><trkpt lat="46.06588365843777" lon="12.903244595637656"><ele>86.19999999999999</ele><time>2026-04-02T16:18:03Z</time></trkpt><trkpt lat="46.06584006396072" lon="12.903389011622641"><ele>86.0</ele><time>2026-04-02T16:18:04Z</time></trkpt><trkpt lat="46.06579870811124" lon="12.903532554794749"><ele>86.0</ele><time>2026-04-02T16:18:05Z</time></trkpt><trkpt lat="46.06575751745227" lon="12.903653717345684"><ele>86.0</ele><time>2026-04-02T16:18:06Z</time></trkpt><trkpt lat="46.06571821151662" lon="12.903766568552022"><ele>86.0</ele><time>2026-04-02T16:18:07Z</time></trkpt><trkpt lat="46.06566504002529" lon="12.903897288833637"><ele>86.0</ele><time>2026-04-02T16:18:08Z</time></trkpt><trkpt lat="46.0656079161952" lon="12.904022657934174"><ele>86.0</ele><time>2026-04-02T16:18:09Z</time></trkpt><trkpt lat="46.06555618703449" lon="12.904142669347994"><ele>85.8</ele><time>2026-04-02T16:18:10Z</time></trkpt><trkpt lat="46.06550640396026" lon="12.904277046076635"><ele>85.6</ele><time>2026-04-02T16:18:11Z</time></trkpt><trkpt lat="46.06545862402204" lon="12.904389067874584"><ele>85.4</ele><time>2026-04-02T16:18:12Z</time></trkpt><trkpt lat="46.065401182158375" lon="12.904487223525686"><ele>85.2</ele><time>2026-04-02T16:18:13Z</time></trkpt><trkpt lat="46.06533144048418" lon="12.904581300102228"><ele>85.0</ele><time>2026-04-02T16:18:14Z</time></trkpt><trkpt lat="46.06525729382372" lon="12.904696148518846"><ele>85.0</ele><time>2026-04-02T16:18:15Z</time></trkpt><trkpt lat="46.065193133319724" lon="12.90481044215121"><ele>85.0</ele><time>2026-04-02T16:18:16Z</time></trkpt><trkpt lat="46.06513905123371" lon="12.904912630913474"><ele>85.0</ele><time>2026-04-02T16:18:17Z</time></trkpt><trkpt lat="46.06508554162564" lon="12.905022729210252"><ele>85.0</ele><time>2026-04-02T16:18:18Z</time></trkpt><trkpt lat="46.06504401253894" lon="12.905121529989593"><ele>85.0</ele><time>2026-04-02T16:18:19Z</time></trkpt><trkpt lat="46.065011354466606" lon="12.905208159007369"><ele>85.0</ele><time>2026-04-02T16:18:20Z</time></trkpt><trkpt lat="46.064971101103644" lon="12.905296031116384"><ele>85.0</ele><time>2026-04-02T16:18:21Z</time></trkpt><trkpt lat="46.064939739152386" lon="12.90540033162579"><ele>85.0</ele><time>2026-04-02T16:18:22Z</time></trkpt><trkpt lat="46.0649234547057" lon="12.905534138335838"><ele>85.0</ele><time>2026-04-02T16:18:23Z</time></trkpt><trkpt lat="46.064895777110166" lon="12.905659658937124"><ele>85.0</ele><time>2026-04-02T16:18:24Z</time></trkpt><trkpt lat="46.06484681858101" lon="12.905740708563775"><ele>85.0</ele><time>2026-04-02T16:18:25Z</time></trkpt><trkpt lat="46.06477512822017" lon="12.905809679144317"><ele>85.0</ele><time>2026-04-02T16:18:26Z</time></trkpt><trkpt lat="46.0647096511606" lon="12.90587299020032"><ele>84.8</ele><time>2026-04-02T16:18:27Z</time></trkpt><trkpt lat="46.06465878974278" lon="12.905970306293696"><ele>84.6</ele><time>2026-04-02T16:18:28Z</time></trkpt><trkpt lat="46.06460858840943" lon="12.906114763569148"><ele>84.4</ele><time>2026-04-02T16:18:29Z</time></trkpt><trkpt lat="46.064559307912525" lon="12.9062506177008"><ele>84.2</ele><time>2026-04-02T16:18:30Z</time></trkpt><trkpt lat="46.0645166358099" lon="12.906360071127764"><ele>84.0</ele><time>2026-04-02T16:18:31Z</time></trkpt><trkpt lat="46.06446454803608" lon="12.90645552347345"><ele>84.0</ele><time>2026-04-02T16:18:32Z</time></trkpt><trkpt lat="46.064392335742696" lon="12.906547127021428"><ele>84.0</ele><time>2026-04-02T16:18:33Z</time></trkpt><trkpt lat="46.064319315775805" lon="12.906651223888137"><ele>84.0</ele><time>2026-04-02T16:18:34Z</time></trkpt><trkpt lat="46.06426594596251" lon="12.906760298512957"><ele>84.0</ele><time>2026-04-02T16:18:35Z</time></trkpt><trkpt lat="46.06422355119916" lon="12.90685925148984"><ele>84.0</ele><time>2026-04-02T16:18:36Z</time></trkpt><trkpt lat="46.06419415611155" lon="12.906987434340975"><ele>83.80000000000001</ele><time>2026-04-02T16:18:37Z</time></trkpt><trkpt lat="46.064173551728096" lon="12.907097358685082"><ele>83.60000000000001</ele><time>2026-04-02T16:18:38Z</time></trkpt><trkpt lat="46.06415944425504" lon="12.907194678148262"><ele>83.4</ele><time>2026-04-02T16:18:39Z</time></trkpt><trkpt lat="46.064106795540205" lon="12.907374317159329"><ele>83.2</ele><time>2026-04-02T16:18:41Z</time></trkpt><trkpt lat="46.064045181110714" lon="12.907490381064553"><ele>83.0</ele><time>2026-04-02T16:18:42Z</time></trkpt><trkpt lat="46.063975364746796" lon="12.9076325231259"><ele>82.80000000000001</ele><time>2026-04-02T16:18:43Z</time></trkpt><trkpt lat="46.063900071594325" lon="12.90777096989606"><ele>82.6</ele><time>2026-04-02T16:18:44Z</time></trkpt><trkpt lat="46.063844023442975" lon="12.907875122180338"><ele>82.4</ele><time>2026-04-02T16:18:45Z</time></trkpt><trkpt lat="46.06377891724634" lon="12.907987066759786"><ele>82.19999999999999</ele><time>2026-04-02T16:18:46Z</time></trkpt><trkpt lat="46.06371716756424" lon="12.908064187151943"><ele>82.0</ele><time>2026-04-02T16:18:47Z</time></trkpt><trkpt lat="46.06365135866599" lon="12.908155911356918"><ele>82.0</ele><time>2026-04-02T16:18:48Z</time></trkpt><trkpt lat="46.063590854299186" lon="12.90824134222247"><ele>82.0</ele><time>2026-04-02T16:18:49Z</time></trkpt><trkpt lat="46.06354568518798" lon="12.908313862467125"><ele>82.0</ele><time>2026-04-02T16:18:50Z</time></trkpt><trkpt lat="46.06350098919508" lon="12.90838479327881"><ele>82.0</ele><time>2026-04-02T16:18:51Z</time></trkpt><trkpt lat="46.06345550672475" lon="12.908482420911138"><ele>82.0</ele><time>2026-04-02T16:18:52Z</time></trkpt><trkpt lat="46.06337227306661" lon="12.908564026615934"><ele>82.0</ele><time>2026-04-02T16:18:54Z</time></trkpt><trkpt lat="46.06330444938213" lon="12.908649191217672"><ele>82.39999999999999</ele><time>2026-04-02T16:18:55Z</time></trkpt><trkpt lat="46.06324697921563" lon="12.908755267000306"><ele>82.8</ele><time>2026-04-02T16:18:56Z</time></trkpt><trkpt lat="46.0631686889312" lon="12.908839901779384"><ele>83.2</ele><time>2026-04-02T16:18:57Z</time></trkpt><trkpt lat="46.06312561172571" lon="12.908941402361762"><ele>83.6</ele><time>2026-04-02T16:18:58Z</time></trkpt><trkpt lat="46.06305283180382" lon="12.909034707956994"><ele>84.0</ele><time>2026-04-02T16:18:59Z</time></trkpt><trkpt lat="46.06298436844573" lon="12.909127316093054"><ele>84.0</ele><time>2026-04-02T16:19:00Z</time></trkpt><trkpt lat="46.06289825000523" lon="12.909208401672347"><ele>84.0</ele><time>2026-04-02T16:19:01Z</time></trkpt><trkpt lat="46.06284103537155" lon="12.909297638504318"><ele>84.0</ele><time>2026-04-02T16:19:02Z</time></trkpt><trkpt lat="46.06276747992368" lon="12.90940671814607"><ele>84.0</ele><time>2026-04-02T16:19:04Z</time></trkpt><trkpt lat="46.06272637403692" lon="12.909528723282673"><ele>84.0</ele><time>2026-04-02T16:19:05Z</time></trkpt><trkpt lat="46.062678281863086" lon="12.909676465640487"><ele>84.0</ele><time>2026-04-02T16:19:06Z</time></trkpt><trkpt lat="46.06261207147901" lon="12.90981847085666"><ele>84.0</ele><time>2026-04-02T16:19:07Z</time></trkpt><trkpt lat="46.062526422960865" lon="12.909816827793783"><ele>84.0</ele><time>2026-04-02T16:19:08Z</time></trkpt><trkpt lat="46.062467550760424" lon="12.909883235510025"><ele>84.0</ele><time>2026-04-02T16:19:09Z</time></trkpt><trkpt lat="46.06241516758325" lon="12.909956620062868"><ele>84.0</ele><time>2026-04-02T16:19:10Z</time></trkpt><trkpt lat="46.06235898465128" lon="12.910024587715567"><ele>84.0</ele><time>2026-04-02T16:19:11Z</time></trkpt><trkpt lat="46.062290874188434" lon="12.910070674679302"><ele>83.4</ele><time>2026-04-02T16:19:12Z</time></trkpt><trkpt lat="46.0622032636338" lon="12.910085954938616"><ele>82.80000000000001</ele><time>2026-04-02T16:19:13Z</time></trkpt><trkpt lat="46.06209757899173" lon="12.910117832101832"><ele>82.19999999999999</ele><time>2026-04-02T16:19:14Z</time></trkpt><trkpt lat="46.062005741725315" lon="12.910152436359407"><ele>81.6</ele><time>2026-04-02T16:19:15Z</time></trkpt><trkpt lat="46.06191987891706" lon="12.91016795948015"><ele>81.0</ele><time>2026-04-02T16:19:16Z</time></trkpt><trkpt lat="46.061836057200566" lon="12.910160055438832"><ele>81.0</ele><time>2026-04-02T16:19:17Z</time></trkpt><trkpt lat="46.061749185222745" lon="12.910140842084967"><ele>81.0</ele><time>2026-04-02T16:19:18Z</time></trkpt><trkpt lat="46.061652997690736" lon="12.91012183405175"><ele>81.0</ele><time>2026-04-02T16:19:19Z</time></trkpt><trkpt lat="46.06154912874766" lon="12.910118132455338"><ele>81.0</ele><time>2026-04-02T16:19:20Z</time></trkpt><trkpt lat="46.06144275784551" lon="12.910117889030348"><ele>81.0</ele><time>2026-04-02T16:19:21Z</time></trkpt><trkpt lat="46.06133643309724" lon="12.910126779899487"><ele>80.8</ele><time>2026-04-02T16:19:22Z</time></trkpt><trkpt lat="46.06123766715057" lon="12.910143241091715"><ele>80.6</ele><time>2026-04-02T16:19:23Z</time></trkpt><trkpt lat="46.06115213822018" lon="12.910155140603658"><ele>80.4</ele><time>2026-04-02T16:19:24Z</time></trkpt><trkpt lat="46.061071773180615" lon="12.910158260281307"><ele>80.2</ele><time>2026-04-02T16:19:25Z</time></trkpt><trkpt lat="46.06093676518243" lon="12.910167581237243"><ele>80.0</ele><time>2026-04-02T16:19:26Z</time></trkpt><trkpt lat="46.06084363442383" lon="12.910216380992079"><ele>79.8</ele><time>2026-04-02T16:19:27Z</time></trkpt><trkpt lat="46.06075099870731" lon="12.91025473984967"><ele>79.6</ele><time>2026-04-02T16:19:28Z</time></trkpt><trkpt lat="46.06065005054908" lon="12.910283014454661"><ele>79.4</ele><time>2026-04-02T16:19:29Z</time></trkpt><trkpt lat="46.06053762441693" lon="12.910299528370489"><ele>79.2</ele><time>2026-04-02T16:19:30Z</time></trkpt><trkpt lat="46.06042066014371" lon="12.910298494170126"><ele>79.0</ele><time>2026-04-02T16:19:31Z</time></trkpt><trkpt lat="46.06032117745964" lon="12.910302746210043"><ele>79.0</ele><time>2026-04-02T16:19:32Z</time></trkpt><trkpt lat="46.06019662067714" lon="12.910311871858607"><ele>79.0</ele><time>2026-04-02T16:19:33Z</time></trkpt><trkpt lat="46.06005957518886" lon="12.910340286815654"><ele>79.0</ele><time>2026-04-02T16:19:34Z</time></trkpt><trkpt lat="46.05991421251219" lon="12.91035842160759"><ele>79.0</ele><time>2026-04-02T16:19:35Z</time></trkpt><trkpt lat="46.05976941811253" lon="12.910413481385193"><ele>78.8</ele><time>2026-04-02T16:19:36Z</time></trkpt><trkpt lat="46.059610918080324" lon="12.910462987059026"><ele>78.60000000000001</ele><time>2026-04-02T16:19:37Z</time></trkpt><trkpt lat="46.059702440368284" lon="12.910528792172084"><ele>78.4</ele><time>2026-04-02T16:19:38Z</time></trkpt><trkpt lat="46.05959931385744" lon="12.910563435537767"><ele>78.2</ele><time>2026-04-02T16:19:39Z</time></trkpt><trkpt lat="46.05953166659574" lon="12.910549450206982"><ele>78.0</ele><time>2026-04-02T16:19:40Z</time></trkpt><trkpt lat="46.05942975145955" lon="12.910574479859498"><ele>78.0</ele><time>2026-04-02T16:19:41Z</time></trkpt><trkpt lat="46.05933007395169" lon="12.9105256900049"><ele>78.0</ele><time>2026-04-02T16:19:42Z</time></trkpt><trkpt lat="46.059243749656666" lon="12.910532193737076"><ele>78.0</ele><time>2026-04-02T16:19:43Z</time></trkpt><trkpt lat="46.05913641903993" lon="12.910538527348516"><ele>78.0</ele><time>2026-04-02T16:19:44Z</time></trkpt><trkpt lat="46.05904479087849" lon="12.910560906518795"><ele>78.0</ele><time>2026-04-02T16:19:45Z</time></trkpt><trkpt lat="46.05896584209" lon="12.910576335091012"><ele>78.2</ele><time>2026-04-02T16:19:46Z</time></trkpt><trkpt lat="46.058886165356036" lon="12.910602128175077"><ele>78.4</ele><time>2026-04-02T16:19:47Z</time></trkpt><trkpt lat="46.058798335571474" lon="12.910639128864862"><ele>78.60000000000001</ele><time>2026-04-02T16:19:48Z</time></trkpt><trkpt lat="46.05869477341113" lon="12.910694941756551"><ele>78.8</ele><time>2026-04-02T16:19:49Z</time></trkpt><trkpt lat="46.0585985211216" lon="12.910740689122308"><ele>79.0</ele><time>2026-04-02T16:19:50Z</time></trkpt><trkpt lat="46.058518053212666" lon="12.910782522815591"><ele>79.00000000000001</ele><time>2026-04-02T16:19:51Z</time></trkpt><trkpt lat="46.05844293950348" lon="12.910808514271565"><ele>79.0</ele><time>2026-04-02T16:19:52Z</time></trkpt><trkpt lat="46.05837571195934" lon="12.910816390762747"><ele>79.0</ele><time>2026-04-02T16:19:53Z</time></trkpt><trkpt lat="46.058310430885236" lon="12.910813821283316"><ele>79.0</ele><time>2026-04-02T16:19:54Z</time></trkpt><trkpt lat="46.05824702729459" lon="12.910787660214403"><ele>79.0</ele><time>2026-04-02T16:19:55Z</time></trkpt><trkpt lat="46.058177321453705" lon="12.91078837370707"><ele>79.00000000000001</ele><time>2026-04-02T16:19:56Z</time></trkpt><trkpt lat="46.058105284658524" lon="12.910804115287254"><ele>79.0</ele><time>2026-04-02T16:19:57Z</time></trkpt><trkpt lat="46.05801235851051" lon="12.91081981488092"><ele>79.16666666666666</ele><time>2026-04-02T16:19:58Z</time></trkpt><trkpt lat="46.05792969471571" lon="12.91083985455882"><ele>79.33333333333333</ele><time>2026-04-02T16:19:59Z</time></trkpt><trkpt lat="46.057857005721175" lon="12.910839240114841"><ele>79.5</ele><time>2026-04-02T16:20:00Z</time></trkpt><trkpt lat="46.057764952377575" lon="12.910820630986434"><ele>79.66666666666667</ele><time>2026-04-02T16:20:01Z</time></trkpt><trkpt lat="46.057663392006376" lon="12.910846480359595"><ele>79.83333333333334</ele><time>2026-04-02T16:20:02Z</time></trkpt><trkpt lat="46.05757738641922" lon="12.91084693346536"><ele>80.0</ele><time>2026-04-02T16:20:03Z</time></trkpt><trkpt lat="46.05748782309429" lon="12.910881713314339"><ele>79.8</ele><time>2026-04-02T16:20:04Z</time></trkpt><trkpt lat="46.05739084120112" lon="12.910900925309251"><ele>79.6</ele><time>2026-04-02T16:20:05Z</time></trkpt><trkpt lat="46.05730143915054" lon="12.91089038207323"><ele>79.4</ele><time>2026-04-02T16:20:06Z</time></trkpt><trkpt lat="46.05718699814811" lon="12.910911532275804"><ele>79.2</ele><time>2026-04-02T16:20:07Z</time></trkpt><trkpt lat="46.057090530420055" lon="12.91093569281862"><ele>79.0</ele><time>2026-04-02T16:20:08Z</time></trkpt><trkpt lat="46.05700679657761" lon="12.910962223878917"><ele>79.0</ele><time>2026-04-02T16:20:09Z</time></trkpt><trkpt lat="46.05692391905205" lon="12.910992063102833"><ele>79.0</ele><time>2026-04-02T16:20:10Z</time></trkpt><trkpt lat="46.056844557488574" lon="12.91101446376404"><ele>79.0</ele><time>2026-04-02T16:20:11Z</time></trkpt><trkpt lat="46.0567518612848" lon="12.911012788260964"><ele>79.0</ele><time>2026-04-02T16:20:12Z</time></trkpt><trkpt lat="46.05665111056377" lon="12.911009320991484"><ele>79.0</ele><time>2026-04-02T16:20:13Z</time></trkpt><trkpt lat="46.05654356499612" lon="12.911014529999582"><ele>79.0</ele><time>2026-04-02T16:20:14Z</time></trkpt><trkpt lat="46.0564039761624" lon="12.911051146710331"><ele>79.0</ele><time>2026-04-02T16:20:15Z</time></trkpt><trkpt lat="46.05629706718811" lon="12.91099186119488"><ele>79.0</ele><time>2026-04-02T16:20:16Z</time></trkpt><trkpt lat="46.05620228942665" lon="12.911040714773769"><ele>79.0</ele><time>2026-04-02T16:20:17Z</time></trkpt><trkpt lat="46.056081600214654" lon="12.911048498388775"><ele>79.0</ele><time>2026-04-02T16:20:18Z</time></trkpt><trkpt lat="46.05598507363102" lon="12.911004189053838"><ele>79.0</ele><time>2026-04-02T16:20:19Z</time></trkpt><trkpt lat="46.055876097309444" lon="12.910984578313576"><ele>79.0</ele><time>2026-04-02T16:20:20Z</time></trkpt><trkpt lat="46.05577238910221" lon="12.910960318682974"><ele>79.0</ele><time>2026-04-02T16:20:21Z</time></trkpt><trkpt lat="46.055672900932" lon="12.910965219059454"><ele>79.0</ele><time>2026-04-02T16:20:22Z</time></trkpt><trkpt lat="46.05554492982068" lon="12.910983938631663"><ele>78.83333333333333</ele><time>2026-04-02T16:20:23Z</time></trkpt><trkpt lat="46.05546544519151" lon="12.910965703761407"><ele>78.66666666666666</ele><time>2026-04-02T16:20:24Z</time></trkpt><trkpt lat="46.05534666901171" lon="12.910971268627154"><ele>78.5</ele><time>2026-04-02T16:20:25Z</time></trkpt><trkpt lat="46.055271972961684" lon="12.910925039791545"><ele>78.33333333333333</ele><time>2026-04-02T16:20:26Z</time></trkpt><trkpt lat="46.05517970131812" lon="12.910914194077325"><ele>78.16666666666667</ele><time>2026-04-02T16:20:28Z</time></trkpt><trkpt lat="46.055114294375386" lon="12.910913785210857"><ele>78.0</ele><time>2026-04-02T16:20:29Z</time></trkpt><trkpt lat="46.055041064561486" lon="12.910909563563852"><ele>78.0</ele><time>2026-04-02T16:20:30Z</time></trkpt><trkpt lat="46.054970133964964" lon="12.910893928267916"><ele>78.0</ele><time>2026-04-02T16:20:31Z</time></trkpt><trkpt lat="46.0548828870492" lon="12.910873321639214"><ele>78.0</ele><time>2026-04-02T16:20:32.001Z</time></trkpt><trkpt lat="46.05477074742232" lon="12.91093593877932"><ele>78.0</ele><time>2026-04-02T16:20:33.001Z</time></trkpt><trkpt lat="46.05466048934975" lon="12.910956741999195"><ele>78.0</ele><time>2026-04-02T16:20:34.001Z</time></trkpt><trkpt lat="46.05454741558033" lon="12.910968506824247"><ele>78.0</ele><time>2026-04-02T16:20:35.001Z</time></trkpt><trkpt lat="46.05447490476277" lon="12.911001070221742"><ele>78.0</ele><time>2026-04-02T16:20:36.001Z</time></trkpt><trkpt lat="46.054388203602" lon="12.911035070370714"><ele>78.0</ele><time>2026-04-02T16:20:37.001Z</time></trkpt><trkpt lat="46.05429608455864" lon="12.911023168997154"><ele>78.0</ele><time>2026-04-02T16:20:38.001Z</time></trkpt><trkpt lat="46.05421585624289" lon="12.911110523062861"><ele>78.0</ele><time>2026-04-02T16:20:39.001Z</time></trkpt><trkpt lat="46.054119707038005" lon="12.911136875492788"><ele>77.75</ele><time>2026-04-02T16:20:40.001Z</time></trkpt><trkpt lat="46.054008045012104" lon="12.91117118057962"><ele>77.5</ele><time>2026-04-02T16:20:41.001Z</time></trkpt><trkpt lat="46.053876845247835" lon="12.911251314455122"><ele>77.25</ele><time>2026-04-02T16:20:42.001Z</time></trkpt><trkpt lat="46.05372352956531" lon="12.911242002975623"><ele>77.0</ele><time>2026-04-02T16:20:44.001Z</time></trkpt><trkpt lat="46.05363185682229" lon="12.911318077368461"><ele>77.0</ele><time>2026-04-02T16:20:45.001Z</time></trkpt><trkpt lat="46.053563185737076" lon="12.911335966777731"><ele>77.0</ele><time>2026-04-02T16:20:46.001Z</time></trkpt><trkpt lat="46.05344986717514" lon="12.911336874304661"><ele>77.0</ele><time>2026-04-02T16:20:47.001Z</time></trkpt><trkpt lat="46.05337455947724" lon="12.911332354806556"><ele>77.0</ele><time>2026-04-02T16:20:48.001Z</time></trkpt><trkpt lat="46.05328269554689" lon="12.911325486231055"><ele>77.0</ele><time>2026-04-02T16:20:49.001Z</time></trkpt><trkpt lat="46.05318908928969" lon="12.911329948818059"><ele>77.0</ele><time>2026-04-02T16:20:50.001Z</time></trkpt><trkpt lat="46.053087178202446" lon="12.911343829802107"><ele>76.8</ele><time>2026-04-02T16:20:51.001Z</time></trkpt><trkpt lat="46.052982891017095" lon="12.911354509704008"><ele>76.6</ele><time>2026-04-02T16:20:52.001Z</time></trkpt><trkpt lat="46.05287558345972" lon="12.911332832030935"><ele>76.39999999999999</ele><time>2026-04-02T16:20:53.001Z</time></trkpt><trkpt lat="46.05276650597592" lon="12.911305871104442"><ele>76.2</ele><time>2026-04-02T16:20:54.001Z</time></trkpt><trkpt lat="46.05264478695553" lon="12.911312954392299"><ele>76.0</ele><time>2026-04-02T16:20:55.001Z</time></trkpt><trkpt lat="46.052534921921236" lon="12.911355486080465"><ele>76.2</ele><time>2026-04-02T16:20:56.001Z</time></trkpt><trkpt lat="46.0524220603279" lon="12.911370287436217"><ele>76.39999999999999</ele><time>2026-04-02T16:20:57.001Z</time></trkpt><trkpt lat="46.052332382131496" lon="12.911313254006835"><ele>76.6</ele><time>2026-04-02T16:20:58.001Z</time></trkpt><trkpt lat="46.05223638981375" lon="12.911313687563224"><ele>76.8</ele><time>2026-04-02T16:20:59.001Z</time></trkpt><trkpt lat="46.0521075951295" lon="12.911375690651576"><ele>77.0</ele><time>2026-04-02T16:21:00.001Z</time></trkpt><trkpt lat="46.051895878258144" lon="12.911384836805134"><ele>77.0</ele><time>2026-04-02T16:21:02.001Z</time></trkpt><trkpt lat="46.051760570638066" lon="12.91138114398493"><ele>77.0</ele><time>2026-04-02T16:21:03.001Z</time></trkpt><trkpt lat="46.051625600856674" lon="12.911375129892049"><ele>77.0</ele><time>2026-04-02T16:21:04.001Z</time></trkpt><trkpt lat="46.051507230756215" lon="12.911360445884716"><ele>77.0</ele><time>2026-04-02T16:21:05Z</time></trkpt><trkpt lat="46.051374011917176" lon="12.911341687981004"><ele>76.8</ele><time>2026-04-02T16:21:06Z</time></trkpt><trkpt lat="46.05127290772777" lon="12.911353420599012"><ele>76.6</ele><time>2026-04-02T16:21:07Z</time></trkpt><trkpt lat="46.051163659849934" lon="12.91135583379074"><ele>76.39999999999999</ele><time>2026-04-02T16:21:08Z</time></trkpt><trkpt lat="46.05105185280085" lon="12.9113595699948"><ele>76.2</ele><time>2026-04-02T16:21:09Z</time></trkpt><trkpt lat="46.0509374786914" lon="12.911360761091476"><ele>76.0</ele><time>2026-04-02T16:21:10Z</time></trkpt><trkpt lat="46.05081217488195" lon="12.91135590680037"><ele>76.0</ele><time>2026-04-02T16:21:11Z</time></trkpt><trkpt lat="46.05070325838659" lon="12.911362305288282"><ele>76.0</ele><time>2026-04-02T16:21:12Z</time></trkpt><trkpt lat="46.05060448752061" lon="12.911371361009547"><ele>76.0</ele><time>2026-04-02T16:21:13Z</time></trkpt><trkpt lat="46.050511283576384" lon="12.911388962845688"><ele>76.0</ele><time>2026-04-02T16:21:14Z</time></trkpt><trkpt lat="46.05041290498108" lon="12.911451474664014"><ele>76.0</ele><time>2026-04-02T16:21:15Z</time></trkpt><trkpt lat="46.050298987798016" lon="12.911485493868343"><ele>76.0</ele><time>2026-04-02T16:21:16Z</time></trkpt><trkpt lat="46.05019121991382" lon="12.911541051434844"><ele>76.0</ele><time>2026-04-02T16:21:17Z</time></trkpt><trkpt lat="46.05008909144154" lon="12.911601878532952"><ele>76.0</ele><time>2026-04-02T16:21:18Z</time></trkpt><trkpt lat="46.05001137469234" lon="12.911666578494636"><ele>76.0</ele><time>2026-04-02T16:21:19Z</time></trkpt><trkpt lat="46.04990744501453" lon="12.911685383417002"><ele>76.0</ele><time>2026-04-02T16:21:20Z</time></trkpt><trkpt lat="46.04982643153137" lon="12.911707152341283"><ele>75.83333333333333</ele><time>2026-04-02T16:21:21Z</time></trkpt><trkpt lat="46.049772804170466" lon="12.911784913262128"><ele>75.66666666666666</ele><time>2026-04-02T16:21:22Z</time></trkpt><trkpt lat="46.04969901358506" lon="12.911828962654527"><ele>75.5</ele><time>2026-04-02T16:21:23Z</time></trkpt><trkpt lat="46.04961907918219" lon="12.911887674575791"><ele>75.33333333333333</ele><time>2026-04-02T16:21:24Z</time></trkpt><trkpt lat="46.049520075965205" lon="12.911930665764327"><ele>75.16666666666667</ele><time>2026-04-02T16:21:25Z</time></trkpt><trkpt lat="46.049437966137404" lon="12.911949842756691"><ele>75.0</ele><time>2026-04-02T16:21:26Z</time></trkpt><trkpt lat="46.04934126279089" lon="12.911903247647691"><ele>75.0</ele><time>2026-04-02T16:21:27Z</time></trkpt><trkpt lat="46.049259210344545" lon="12.911901210111985"><ele>75.0</ele><time>2026-04-02T16:21:28Z</time></trkpt><trkpt lat="46.049141244688954" lon="12.911885783473648"><ele>75.0</ele><time>2026-04-02T16:21:29Z</time></trkpt><trkpt lat="46.04901861455152" lon="12.91188528934123"><ele>75.0</ele><time>2026-04-02T16:21:30Z</time></trkpt><trkpt lat="46.04890119695417" lon="12.911893089422108"><ele>75.0</ele><time>2026-04-02T16:21:31Z</time></trkpt><trkpt lat="46.048801893843006" lon="12.911899240730753"><ele>75.0</ele><time>2026-04-02T16:21:32Z</time></trkpt><trkpt lat="46.048704080701064" lon="12.9119248544246"><ele>75.0</ele><time>2026-04-02T16:21:33Z</time></trkpt><trkpt lat="46.0486243681711" lon="12.911956280747754"><ele>75.0</ele><time>2026-04-02T16:21:34Z</time></trkpt><trkpt lat="46.048552736938575" lon="12.911980559879892"><ele>75.0</ele><time>2026-04-02T16:21:35Z</time></trkpt><trkpt lat="46.04847274957886" lon="12.912035008135536"><ele>75.0</ele><time>2026-04-02T16:21:36Z</time></trkpt><trkpt lat="46.04835516277674" lon="12.912002021606442"><ele>75.2</ele><time>2026-04-02T16:21:37Z</time></trkpt><trkpt lat="46.04825801968827" lon="12.912025946114639"><ele>75.4</ele><time>2026-04-02T16:21:38Z</time></trkpt><trkpt lat="46.04814940843693" lon="12.912046042655465"><ele>75.6</ele><time>2026-04-02T16:21:39Z</time></trkpt><trkpt lat="46.04806600392392" lon="12.912059764762196"><ele>75.8</ele><time>2026-04-02T16:21:40Z</time></trkpt><trkpt lat="46.047973449977135" lon="12.91211467928747"><ele>76.0</ele><time>2026-04-02T16:21:41Z</time></trkpt><trkpt lat="46.047872247634245" lon="12.912166299952371"><ele>76.0</ele><time>2026-04-02T16:21:42Z</time></trkpt><trkpt lat="46.04775960341165" lon="12.912222231255948"><ele>76.0</ele><time>2026-04-02T16:21:43Z</time></trkpt><trkpt lat="46.04765773267651" lon="12.912270628895008"><ele>76.0</ele><time>2026-04-02T16:21:44Z</time></trkpt><trkpt lat="46.04754991943271" lon="12.912311481994125"><ele>76.0</ele><time>2026-04-02T16:21:45Z</time></trkpt><trkpt lat="46.04743627365363" lon="12.912338777896064"><ele>75.8</ele><time>2026-04-02T16:21:46Z</time></trkpt><trkpt lat="46.047344378006215" lon="12.912372978324365"><ele>75.6</ele><time>2026-04-02T16:21:47Z</time></trkpt><trkpt lat="46.04726890166215" lon="12.912395282079068"><ele>75.4</ele><time>2026-04-02T16:21:48Z</time></trkpt><trkpt lat="46.04717153942304" lon="12.91242120361553"><ele>75.2</ele><time>2026-04-02T16:21:49Z</time></trkpt><trkpt lat="46.04707499753414" lon="12.912437553094605"><ele>75.0</ele><time>2026-04-02T16:21:50Z</time></trkpt><trkpt lat="46.046974567361715" lon="12.912426722504346"><ele>75.0</ele><time>2026-04-02T16:21:51Z</time></trkpt><trkpt lat="46.046874345966536" lon="12.912410225666292"><ele>75.0</ele><time>2026-04-02T16:21:52Z</time></trkpt><trkpt lat="46.04675571400139" lon="12.91243992354285"><ele>75.0</ele><time>2026-04-02T16:21:53Z</time></trkpt><trkpt lat="46.046706942773945" lon="12.91238009686166"><ele>75.0</ele><time>2026-04-02T16:21:54Z</time></trkpt><trkpt lat="46.046630611718435" lon="12.912377711438461"><ele>75.0</ele><time>2026-04-02T16:21:55Z</time></trkpt><trkpt lat="46.04653683890887" lon="12.912380212003912"><ele>74.75</ele><time>2026-04-02T16:21:56Z</time></trkpt><trkpt lat="46.04640957984919" lon="12.912358776290795"><ele>74.5</ele><time>2026-04-02T16:21:57Z</time></trkpt><trkpt lat="46.04630323624402" lon="12.912434569214428"><ele>74.25</ele><time>2026-04-02T16:21:58Z</time></trkpt><trkpt lat="46.04615989604118" lon="12.912394648884483"><ele>74.0</ele><time>2026-04-02T16:22:00Z</time></trkpt><trkpt lat="46.046046821751354" lon="12.912433317802487"><ele>74.0</ele><time>2026-04-02T16:22:01Z</time></trkpt><trkpt lat="46.04591567015061" lon="12.912460209697883"><ele>74.0</ele><time>2026-04-02T16:22:02Z</time></trkpt><trkpt lat="46.04580978651977" lon="12.912407761594736"><ele>74.0</ele><time>2026-04-02T16:22:03Z</time></trkpt><trkpt lat="46.045667509197784" lon="12.91238423908129"><ele>74.0</ele><time>2026-04-02T16:22:04Z</time></trkpt><trkpt lat="46.04557908745288" lon="12.912383406813959"><ele>74.0</ele><time>2026-04-02T16:22:05Z</time></trkpt><trkpt lat="46.045474795424504" lon="12.912332784165148"><ele>74.0</ele><time>2026-04-02T16:22:06Z</time></trkpt><trkpt lat="46.04536914376588" lon="12.912288151876242"><ele>74.0</ele><time>2026-04-02T16:22:07Z</time></trkpt><trkpt lat="46.04528491696909" lon="12.912262070916636"><ele>74.0</ele><time>2026-04-02T16:22:08Z</time></trkpt><trkpt lat="46.04520263484998" lon="12.912245963065422"><ele>74.0</ele><time>2026-04-02T16:22:09Z</time></trkpt><trkpt lat="46.04512545563009" lon="12.912233555121883"><ele>74.0</ele><time>2026-04-02T16:22:10Z</time></trkpt><trkpt lat="46.045044393139825" lon="12.912217140926666"><ele>74.0</ele><time>2026-04-02T16:22:11Z</time></trkpt><trkpt lat="46.04496880615671" lon="12.912210409695794"><ele>74.0</ele><time>2026-04-02T16:22:12Z</time></trkpt><trkpt lat="46.04485874638698" lon="12.91222401969067"><ele>74.0</ele><time>2026-04-02T16:22:13Z</time></trkpt><trkpt lat="46.04475480712036" lon="12.912214849840634"><ele>74.0</ele><time>2026-04-02T16:22:14Z</time></trkpt><trkpt lat="46.044700344475814" lon="12.912163267548413"><ele>74.0</ele><time>2026-04-02T16:22:15Z</time></trkpt><trkpt lat="46.04458592585819" lon="12.912167216128822"><ele>74.0</ele><time>2026-04-02T16:22:16Z</time></trkpt><trkpt lat="46.04451056923858" lon="12.912067673869712"><ele>74.0</ele><time>2026-04-02T16:22:17Z</time></trkpt><trkpt lat="46.04442993765974" lon="12.912002401281915"><ele>74.0</ele><time>2026-04-02T16:22:18Z</time></trkpt><trkpt lat="46.04432727782954" lon="12.911948767932659"><ele>74.0</ele><time>2026-04-02T16:22:19Z</time></trkpt><trkpt lat="46.044215294661676" lon="12.911858263277004"><ele>74.0</ele><time>2026-04-02T16:22:21Z</time></trkpt><trkpt lat="46.04414435812891" lon="12.911851964192405"><ele>73.83333333333334</ele><time>2026-04-02T16:22:22Z</time></trkpt><trkpt lat="46.04406769894441" lon="12.911851141681254"><ele>73.66666666666667</ele><time>2026-04-02T16:22:23Z</time></trkpt><trkpt lat="46.043964876663686" lon="12.91184690609594"><ele>73.5</ele><time>2026-04-02T16:22:24Z</time></trkpt><trkpt lat="46.04388792615707" lon="12.911850344588913"><ele>73.33333333333333</ele><time>2026-04-02T16:22:25Z</time></trkpt><trkpt lat="46.04381108027381" lon="12.91185896593406"><ele>73.16666666666666</ele><time>2026-04-02T16:22:26Z</time></trkpt><trkpt lat="46.04373669763179" lon="12.9118744972058"><ele>73.0</ele><time>2026-04-02T16:22:27Z</time></trkpt><trkpt lat="46.04366810530165" lon="12.911903546101078"><ele>73.0</ele><time>2026-04-02T16:22:28Z</time></trkpt><trkpt lat="46.04360166589615" lon="12.91194289480937"><ele>73.0</ele><time>2026-04-02T16:22:29Z</time></trkpt><trkpt lat="46.04352971569355" lon="12.911970959873061"><ele>73.0</ele><time>2026-04-02T16:22:30.001Z</time></trkpt><trkpt lat="46.04344246598915" lon="12.911980081455539"><ele>73.0</ele><time>2026-04-02T16:22:31.001Z</time></trkpt><trkpt lat="46.04333603954175" lon="12.911984916872608"><ele>73.0</ele><time>2026-04-02T16:22:32.001Z</time></trkpt><trkpt lat="46.04323425998028" lon="12.911917748534016"><ele>73.0</ele><time>2026-04-02T16:22:33.001Z</time></trkpt><trkpt lat="46.04315656606205" lon="12.911892679836141"><ele>73.0</ele><time>2026-04-02T16:22:34.001Z</time></trkpt><trkpt lat="46.043038073551244" lon="12.911941925354576"><ele>73.0</ele><time>2026-04-02T16:22:35.001Z</time></trkpt><trkpt lat="46.04293921688009" lon="12.911926688705847"><ele>73.0</ele><time>2026-04-02T16:22:36.001Z</time></trkpt><trkpt lat="46.04284012630917" lon="12.911887993642267"><ele>73.0</ele><time>2026-04-02T16:22:37.001Z</time></trkpt><trkpt lat="46.042730233642985" lon="12.911846294868589"><ele>73.0</ele><time>2026-04-02T16:22:38.001Z</time></trkpt><trkpt lat="46.042602977612944" lon="12.911766007978786"><ele>73.0</ele><time>2026-04-02T16:22:39.001Z</time></trkpt><trkpt lat="46.042509498526954" lon="12.911658971531207"><ele>73.0</ele><time>2026-04-02T16:22:40.001Z</time></trkpt><trkpt lat="46.04245447561786" lon="12.911595216922988"><ele>73.0</ele><time>2026-04-02T16:22:41.001Z</time></trkpt><trkpt lat="46.04236055786031" lon="12.91160324523831"><ele>73.0</ele><time>2026-04-02T16:22:42.001Z</time></trkpt><trkpt lat="46.04224539027298" lon="12.911585285114754"><ele>72.8</ele><time>2026-04-02T16:22:43.001Z</time></trkpt><trkpt lat="46.04211688559055" lon="12.911521521854125"><ele>72.6</ele><time>2026-04-02T16:22:44.001Z</time></trkpt><trkpt lat="46.04202167232673" lon="12.911492306976914"><ele>72.4</ele><time>2026-04-02T16:22:45.001Z</time></trkpt><trkpt lat="46.041945699812665" lon="12.911448022591674"><ele>72.2</ele><time>2026-04-02T16:22:46.001Z</time></trkpt><trkpt lat="46.04187367445825" lon="12.91136779718087"><ele>72.0</ele><time>2026-04-02T16:22:48.001Z</time></trkpt><trkpt lat="46.04176150194962" lon="12.911408237046725"><ele>72.0</ele><time>2026-04-02T16:22:49.001Z</time></trkpt><trkpt lat="46.041674147804514" lon="12.911391794795831"><ele>72.0</ele><time>2026-04-02T16:22:50.001Z</time></trkpt><trkpt lat="46.04157652718007" lon="12.91137454904995"><ele>72.0</ele><time>2026-04-02T16:22:51.001Z</time></trkpt><trkpt lat="46.041476568511655" lon="12.911364401990058"><ele>72.0</ele><time>2026-04-02T16:22:52.001Z</time></trkpt><trkpt lat="46.041359497985795" lon="12.9113619768811"><ele>72.0</ele><time>2026-04-02T16:22:53.001Z</time></trkpt><trkpt lat="46.041241554708066" lon="12.911339271426495"><ele>72.0</ele><time>2026-04-02T16:22:54.001Z</time></trkpt><trkpt lat="46.04115381489081" lon="12.911341966331296"><ele>72.0</ele><time>2026-04-02T16:22:55.001Z</time></trkpt><trkpt lat="46.041050344340874" lon="12.91133451790117"><ele>72.0</ele><time>2026-04-02T16:22:56.001Z</time></trkpt><trkpt lat="46.04094077431232" lon="12.911322921771005"><ele>72.0</ele><time>2026-04-02T16:22:57.001Z</time></trkpt><trkpt lat="46.04085327538042" lon="12.911318883241993"><ele>72.0</ele><time>2026-04-02T16:22:58.001Z</time></trkpt><trkpt lat="46.04073712829076" lon="12.911317509045155"><ele>71.8</ele><time>2026-04-02T16:22:59.001Z</time></trkpt><trkpt lat="46.040639990856874" lon="12.911280233699092"><ele>71.6</ele><time>2026-04-02T16:23:00.001Z</time></trkpt><trkpt lat="46.04053787073834" lon="12.911262432507828"><ele>71.39999999999999</ele><time>2026-04-02T16:23:01.001Z</time></trkpt><trkpt lat="46.04043149322847" lon="12.911274554672298"><ele>71.2</ele><time>2026-04-02T16:23:02.001Z</time></trkpt><trkpt lat="46.0403395190677" lon="12.911237270832093"><ele>71.0</ele><time>2026-04-02T16:23:03.001Z</time></trkpt><trkpt lat="46.040254412785664" lon="12.91118790636017"><ele>71.0</ele><time>2026-04-02T16:23:04.001Z</time></trkpt><trkpt lat="46.04017967684151" lon="12.911135801492607"><ele>71.0</ele><time>2026-04-02T16:23:05.001Z</time></trkpt><trkpt lat="46.040098505761634" lon="12.911104208118019"><ele>71.0</ele><time>2026-04-02T16:23:06.001Z</time></trkpt><trkpt lat="46.03998807304131" lon="12.911080509966846"><ele>71.0</ele><time>2026-04-02T16:23:07.001Z</time></trkpt><trkpt lat="46.03986822493448" lon="12.911079923025094"><ele>71.0</ele><time>2026-04-02T16:23:08.001Z</time></trkpt><trkpt lat="46.03975841539772" lon="12.91109226057146"><ele>71.0</ele><time>2026-04-02T16:23:09.001Z</time></trkpt><trkpt lat="46.03965282600215" lon="12.911101916774076"><ele>71.0</ele><time>2026-04-02T16:23:10.001Z</time></trkpt><trkpt lat="46.03954995599228" lon="12.911127621467786"><ele>71.0</ele><time>2026-04-02T16:23:11Z</time></trkpt><trkpt lat="46.039439670494104" lon="12.911167895231465"><ele>71.0</ele><time>2026-04-02T16:23:12Z</time></trkpt><trkpt lat="46.03932289439975" lon="12.911223335203985"><ele>71.0</ele><time>2026-04-02T16:23:13Z</time></trkpt><trkpt lat="46.03921120426974" lon="12.911277735119988"><ele>71.0</ele><time>2026-04-02T16:23:14Z</time></trkpt><trkpt lat="46.0390963652864" lon="12.911316707864014"><ele>71.0</ele><time>2026-04-02T16:23:15Z</time></trkpt><trkpt lat="46.038975595862325" lon="12.911350303879942"><ele>71.0</ele><time>2026-04-02T16:23:16Z</time></trkpt><trkpt lat="46.0388466841993" lon="12.911363864605603"><ele>71.0</ele><time>2026-04-02T16:23:17Z</time></trkpt><trkpt lat="46.0387601994315" lon="12.9113019273261"><ele>71.0</ele><time>2026-04-02T16:23:18Z</time></trkpt><trkpt lat="46.038683918495444" lon="12.9112339394116"><ele>71.0</ele><time>2026-04-02T16:23:19Z</time></trkpt><trkpt lat="46.03861481576334" lon="12.91114541462937"><ele>71.0</ele><time>2026-04-02T16:23:20Z</time></trkpt><trkpt lat="46.03852063762985" lon="12.911077720435156"><ele>71.0</ele><time>2026-04-02T16:23:21Z</time></trkpt><trkpt lat="46.03839640976369" lon="12.911065379897051"><ele>71.0</ele><time>2026-04-02T16:23:22Z</time></trkpt><trkpt lat="46.03822964270906" lon="12.911069925674937"><ele>71.0</ele><time>2026-04-02T16:23:23Z</time></trkpt><trkpt lat="46.03807734326932" lon="12.911112634814316"><ele>71.0</ele><time>2026-04-02T16:23:24Z</time></trkpt><trkpt lat="46.037943666928406" lon="12.911164103829446"><ele>71.0</ele><time>2026-04-02T16:23:25Z</time></trkpt><trkpt lat="46.0377979053227" lon="12.911233375843315"><ele>71.0</ele><time>2026-04-02T16:23:26Z</time></trkpt><trkpt lat="46.03776467987843" lon="12.911097647345306"><ele>71.0</ele><time>2026-04-02T16:23:27Z</time></trkpt><trkpt lat="46.03769380202831" lon="12.911075615257355"><ele>71.0</ele><time>2026-04-02T16:23:28Z</time></trkpt><trkpt lat="46.037615227806754" lon="12.911060519765662"><ele>71.0</ele><time>2026-04-02T16:23:29Z</time></trkpt><trkpt lat="46.03753770218068" lon="12.911050802765333"><ele>71.0</ele><time>2026-04-02T16:23:30Z</time></trkpt><trkpt lat="46.037460816546975" lon="12.911056194745106"><ele>71.0</ele><time>2026-04-02T16:23:31Z</time></trkpt><trkpt lat="46.03737741283014" lon="12.911067153040433"><ele>71.0</ele><time>2026-04-02T16:23:32Z</time></trkpt><trkpt lat="46.037262822702765" lon="12.911101592608752"><ele>71.0</ele><time>2026-04-02T16:23:33Z</time></trkpt><trkpt lat="46.03713665845479" lon="12.91110929300103"><ele>71.0</ele><time>2026-04-02T16:23:34Z</time></trkpt><trkpt lat="46.03700750777029" lon="12.911130740306627"><ele>71.0</ele><time>2026-04-02T16:23:35Z</time></trkpt><trkpt lat="46.03689579947718" lon="12.911151286347922"><ele>71.0</ele><time>2026-04-02T16:23:36Z</time></trkpt><trkpt lat="46.036795540337174" lon="12.91118318827694"><ele>71.0</ele><time>2026-04-02T16:23:37Z</time></trkpt><trkpt lat="46.036713221940055" lon="12.91121670077406"><ele>71.0</ele><time>2026-04-02T16:23:38Z</time></trkpt><trkpt lat="46.03662296336312" lon="12.91121531466599"><ele>71.0</ele><time>2026-04-02T16:23:39Z</time></trkpt><trkpt lat="46.03651987271753" lon="12.91119632271744"><ele>71.0</ele><time>2026-04-02T16:23:40Z</time></trkpt><trkpt lat="46.03640675853891" lon="12.911174909887254"><ele>71.0</ele><time>2026-04-02T16:23:41Z</time></trkpt><trkpt lat="46.03629352558702" lon="12.9111632326645"><ele>71.2</ele><time>2026-04-02T16:23:42Z</time></trkpt><trkpt lat="46.03619550634306" lon="12.911173933060027"><ele>71.39999999999999</ele><time>2026-04-02T16:23:43Z</time></trkpt><trkpt lat="46.03610018106257" lon="12.911211424993667"><ele>71.6</ele><time>2026-04-02T16:23:44Z</time></trkpt><trkpt lat="46.03600386002744" lon="12.911259013830438"><ele>71.8</ele><time>2026-04-02T16:23:45Z</time></trkpt><trkpt lat="46.03590609962094" lon="12.911329142114324"><ele>72.0</ele><time>2026-04-02T16:23:46Z</time></trkpt><trkpt lat="46.03581857316461" lon="12.911385584978511"><ele>71.66666666666667</ele><time>2026-04-02T16:23:47Z</time></trkpt><trkpt lat="46.03573204622502" lon="12.91142651752228"><ele>71.33333333333333</ele><time>2026-04-02T16:23:48Z</time></trkpt><trkpt lat="46.03565574782751" lon="12.911464144222615"><ele>71.0</ele><time>2026-04-02T16:23:49Z</time></trkpt><trkpt lat="46.035586324908415" lon="12.911494157951847"><ele>70.66666666666666</ele><time>2026-04-02T16:23:50Z</time></trkpt><trkpt lat="46.035506054807264" lon="12.911510683452292"><ele>70.33333333333333</ele><time>2026-04-02T16:23:51Z</time></trkpt><trkpt lat="46.03541596385959" lon="12.91151974889522"><ele>70.0</ele><time>2026-04-02T16:23:52Z</time></trkpt><trkpt lat="46.03532500564389" lon="12.911526621425143"><ele>70.0</ele><time>2026-04-02T16:23:53Z</time></trkpt><trkpt lat="46.03524507341257" lon="12.911529578904592"><ele>70.0</ele><time>2026-04-02T16:23:54Z</time></trkpt><trkpt lat="46.03515261560333" lon="12.911543050840931"><ele>70.0</ele><time>2026-04-02T16:23:55Z</time></trkpt><trkpt lat="46.035053887784265" lon="12.911566482717083"><ele>70.0</ele><time>2026-04-02T16:23:56Z</time></trkpt><trkpt lat="46.03494363866561" lon="12.911595229323009"><ele>70.0</ele><time>2026-04-02T16:23:57Z</time></trkpt><trkpt lat="46.03487003709578" lon="12.911585306287261"><ele>69.8</ele><time>2026-04-02T16:23:58Z</time></trkpt><trkpt lat="46.03475223264162" lon="12.911560299716474"><ele>69.6</ele><time>2026-04-02T16:23:59Z</time></trkpt><trkpt lat="46.03464962284785" lon="12.911530799900467"><ele>69.4</ele><time>2026-04-02T16:24:00Z</time></trkpt><trkpt lat="46.034534482190324" lon="12.91150277194285"><ele>69.2</ele><time>2026-04-02T16:24:01Z</time></trkpt><trkpt lat="46.03445871744569" lon="12.91148999439311"><ele>69.0</ele><time>2026-04-02T16:24:02Z</time></trkpt><trkpt lat="46.03436349586554" lon="12.911483997540538"><ele>69.0</ele><time>2026-04-02T16:24:03Z</time></trkpt><trkpt lat="46.03425607711534" lon="12.911491697518334"><ele>69.0</ele><time>2026-04-02T16:24:04Z</time></trkpt><trkpt lat="46.034153807554624" lon="12.911477329988289"><ele>69.0</ele><time>2026-04-02T16:24:05Z</time></trkpt><trkpt lat="46.03406575480808" lon="12.911425655511326"><ele>69.0</ele><time>2026-04-02T16:24:06Z</time></trkpt><trkpt lat="46.03397697416273" lon="12.9113882694367"><ele>69.0</ele><time>2026-04-02T16:24:07Z</time></trkpt><trkpt lat="46.03389722216292" lon="12.91136515364697"><ele>68.83333333333333</ele><time>2026-04-02T16:24:08Z</time></trkpt><trkpt lat="46.03381106830302" lon="12.911342702278885"><ele>68.66666666666667</ele><time>2026-04-02T16:24:09Z</time></trkpt><trkpt lat="46.033713281440626" lon="12.911330512714983"><ele>68.5</ele><time>2026-04-02T16:24:10Z</time></trkpt><trkpt lat="46.033625336099774" lon="12.911333540100458"><ele>68.33333333333334</ele><time>2026-04-02T16:24:11Z</time></trkpt><trkpt lat="46.03354680508132" lon="12.911332873469519"><ele>68.16666666666667</ele><time>2026-04-02T16:24:12Z</time></trkpt><trkpt lat="46.03346876056565" lon="12.911343155329787"><ele>68.0</ele><time>2026-04-02T16:24:13Z</time></trkpt><trkpt lat="46.03338424843163" lon="12.911361032900365"><ele>68.2</ele><time>2026-04-02T16:24:14Z</time></trkpt><trkpt lat="46.033271624577075" lon="12.911377233509517"><ele>68.4</ele><time>2026-04-02T16:24:16Z</time></trkpt><trkpt lat="46.03317557104809" lon="12.911238927651608"><ele>68.60000000000001</ele><time>2026-04-02T16:24:18Z</time></trkpt><trkpt lat="46.03309880436836" lon="12.911211636045767"><ele>68.8</ele><time>2026-04-02T16:24:19Z</time></trkpt><trkpt lat="46.0330260096226" lon="12.911174467877698"><ele>69.0</ele><time>2026-04-02T16:24:20Z</time></trkpt><trkpt lat="46.03288809230829" lon="12.91114562191848"><ele>69.0</ele><time>2026-04-02T16:24:21Z</time></trkpt><trkpt lat="46.03271186848253" lon="12.911133502301606"><ele>69.0</ele><time>2026-04-02T16:24:22Z</time></trkpt><trkpt lat="46.03254725738395" lon="12.911115350090153"><ele>69.0</ele><time>2026-04-02T16:24:23Z</time></trkpt><trkpt lat="46.032415222134446" lon="12.911103758708157"><ele>68.75</ele><time>2026-04-02T16:24:24Z</time></trkpt><trkpt lat="46.03226125122059" lon="12.911157541519886"><ele>68.5</ele><time>2026-04-02T16:24:26Z</time></trkpt><trkpt lat="46.0321601862002" lon="12.911168730964377"><ele>68.25</ele><time>2026-04-02T16:24:27Z</time></trkpt><trkpt lat="46.032063480483615" lon="12.911181822643725"><ele>68.0</ele><time>2026-04-02T16:24:28Z</time></trkpt><trkpt lat="46.031960468913404" lon="12.911193286738046"><ele>68.0</ele><time>2026-04-02T16:24:29Z</time></trkpt><trkpt lat="46.031849537930036" lon="12.911207060184825"><ele>68.0</ele><time>2026-04-02T16:24:30Z</time></trkpt><trkpt lat="46.031738387337825" lon="12.911229518085587"><ele>68.0</ele><time>2026-04-02T16:24:31Z</time></trkpt><trkpt lat="46.03163163554136" lon="12.911267984278712"><ele>68.0</ele><time>2026-04-02T16:24:32Z</time></trkpt><trkpt lat="46.031536551361285" lon="12.911321922394977"><ele>68.0</ele><time>2026-04-02T16:24:33Z</time></trkpt><trkpt lat="46.03142605762701" lon="12.911377718746516"><ele>68.0</ele><time>2026-04-02T16:24:34Z</time></trkpt><trkpt lat="46.03131477479854" lon="12.911410490825078"><ele>68.0</ele><time>2026-04-02T16:24:35Z</time></trkpt><trkpt lat="46.03121634361515" lon="12.911426800052435"><ele>68.0</ele><time>2026-04-02T16:24:36Z</time></trkpt><trkpt lat="46.03113698405623" lon="12.91141087347047"><ele>68.0</ele><time>2026-04-02T16:24:37Z</time></trkpt><trkpt lat="46.03106359133934" lon="12.91143062726895"><ele>68.0</ele><time>2026-04-02T16:24:38Z</time></trkpt><trkpt lat="46.03097509981952" lon="12.911485735099728"><ele>68.0</ele><time>2026-04-02T16:24:39.001Z</time></trkpt><trkpt lat="46.03084103941652" lon="12.91158467416488"><ele>68.0</ele><time>2026-04-02T16:24:40.001Z</time></trkpt><trkpt lat="46.03070561466206" lon="12.911699725242842"><ele>68.0</ele><time>2026-04-02T16:24:41.001Z</time></trkpt><trkpt lat="46.03059036646362" lon="12.911800777408729"><ele>68.0</ele><time>2026-04-02T16:24:42.001Z</time></trkpt><trkpt lat="46.030498944562986" lon="12.911811792454149"><ele>68.4</ele><time>2026-04-02T16:24:43.001Z</time></trkpt><trkpt lat="46.030376066938885" lon="12.911825954909004"><ele>68.8</ele><time>2026-04-02T16:24:44.001Z</time></trkpt><trkpt lat="46.0302790361639" lon="12.911834480460401"><ele>69.2</ele><time>2026-04-02T16:24:45.001Z</time></trkpt><trkpt lat="46.03017226296989" lon="12.911856753548076"><ele>69.6</ele><time>2026-04-02T16:24:46.001Z</time></trkpt><trkpt lat="46.03009813326129" lon="12.911866825677714"><ele>70.0</ele><time>2026-04-02T16:24:47.001Z</time></trkpt><trkpt lat="46.02998686587084" lon="12.911896703021661"><ele>69.6</ele><time>2026-04-02T16:24:48.001Z</time></trkpt><trkpt lat="46.02988674340022" lon="12.911941394509341"><ele>69.2</ele><time>2026-04-02T16:24:49.001Z</time></trkpt><trkpt lat="46.02979723685794" lon="12.911976723364024"><ele>68.8</ele><time>2026-04-02T16:24:50.001Z</time></trkpt><trkpt lat="46.02970514192467" lon="12.912010789068534"><ele>68.4</ele><time>2026-04-02T16:24:51.001Z</time></trkpt><trkpt lat="46.0296101130056" lon="12.91205109724776"><ele>68.0</ele><time>2026-04-02T16:24:52.001Z</time></trkpt><trkpt lat="46.02950369015134" lon="12.912111283404828"><ele>68.0</ele><time>2026-04-02T16:24:53.001Z</time></trkpt><trkpt lat="46.02937167999617" lon="12.912195712632759"><ele>68.0</ele><time>2026-04-02T16:24:54.001Z</time></trkpt><trkpt lat="46.02926983871553" lon="12.912206720408495"><ele>68.0</ele><time>2026-04-02T16:24:55.001Z</time></trkpt><trkpt lat="46.02915595118866" lon="12.912247830984805"><ele>68.0</ele><time>2026-04-02T16:24:56.001Z</time></trkpt><trkpt lat="46.02905321827488" lon="12.912299772781282"><ele>67.6</ele><time>2026-04-02T16:24:57.001Z</time></trkpt><trkpt lat="46.02895975413512" lon="12.912355235606448"><ele>67.19999999999999</ele><time>2026-04-02T16:24:58.001Z</time></trkpt><trkpt lat="46.02886586133934" lon="12.912418145178442"><ele>66.8</ele><time>2026-04-02T16:24:59.001Z</time></trkpt><trkpt lat="46.02876967665495" lon="12.91248178851008"><ele>66.39999999999999</ele><time>2026-04-02T16:25:00.001Z</time></trkpt><trkpt lat="46.02868722328512" lon="12.912591411217397"><ele>66.0</ele><time>2026-04-02T16:25:01.001Z</time></trkpt><trkpt lat="46.02858570463913" lon="12.912576615328552"><ele>66.0</ele><time>2026-04-02T16:25:02.001Z</time></trkpt><trkpt lat="46.0284847733263" lon="12.912584419195476"><ele>66.0</ele><time>2026-04-02T16:25:03.001Z</time></trkpt><trkpt lat="46.02839036924526" lon="12.912599834840421"><ele>66.0</ele><time>2026-04-02T16:25:04.001Z</time></trkpt><trkpt lat="46.02829105246482" lon="12.912621789856559"><ele>66.0</ele><time>2026-04-02T16:25:05.001Z</time></trkpt><trkpt lat="46.028193647849974" lon="12.912657210165861"><ele>66.0</ele><time>2026-04-02T16:25:06.001Z</time></trkpt><trkpt lat="46.028121862574075" lon="12.912675550494827"><ele>66.16666666666667</ele><time>2026-04-02T16:25:07.001Z</time></trkpt><trkpt lat="46.02804717917485" lon="12.912692774630512"><ele>66.33333333333333</ele><time>2026-04-02T16:25:08.001Z</time></trkpt><trkpt lat="46.027969599661226" lon="12.912715343309042"><ele>66.5</ele><time>2026-04-02T16:25:09.001Z</time></trkpt><trkpt lat="46.02787432178637" lon="12.912731338614595"><ele>66.66666666666666</ele><time>2026-04-02T16:25:10.001Z</time></trkpt><trkpt lat="46.027791204754585" lon="12.912743601261012"><ele>66.83333333333333</ele><time>2026-04-02T16:25:11.001Z</time></trkpt><trkpt lat="46.027684922797434" lon="12.912778194575026"><ele>67.0</ele><time>2026-04-02T16:25:12.001Z</time></trkpt><trkpt lat="46.02759052083425" lon="12.912753998095349"><ele>67.2</ele><time>2026-04-02T16:25:13.001Z</time></trkpt><trkpt lat="46.02747626955047" lon="12.912785354834028"><ele>67.4</ele><time>2026-04-02T16:25:15.001Z</time></trkpt><trkpt lat="46.0274025514034" lon="12.912736504915232"><ele>67.6</ele><time>2026-04-02T16:25:16.001Z</time></trkpt><trkpt lat="46.02731639991442" lon="12.912706298941762"><ele>67.8</ele><time>2026-04-02T16:25:17Z</time></trkpt><trkpt lat="46.02722291420913" lon="12.912710160254901"><ele>68.0</ele><time>2026-04-02T16:25:18Z</time></trkpt><trkpt lat="46.02713671646723" lon="12.912723952527763"><ele>68.0</ele><time>2026-04-02T16:25:19Z</time></trkpt><trkpt lat="46.027053334065855" lon="12.91271446392745"><ele>68.0</ele><time>2026-04-02T16:25:20Z</time></trkpt><trkpt lat="46.02697452241404" lon="12.912700518811898"><ele>68.0</ele><time>2026-04-02T16:25:21Z</time></trkpt><trkpt lat="46.026907537411844" lon="12.91265941310024"><ele>68.0</ele><time>2026-04-02T16:25:22Z</time></trkpt><trkpt lat="46.02681054478043" lon="12.912640321895793"><ele>68.0</ele><time>2026-04-02T16:25:23Z</time></trkpt><trkpt lat="46.02670421341489" lon="12.91263030806551"><ele>68.0</ele><time>2026-04-02T16:25:24Z</time></trkpt><trkpt lat="46.026606091258714" lon="12.912633999540622"><ele>67.6</ele><time>2026-04-02T16:25:25Z</time></trkpt><trkpt lat="46.02651216974114" lon="12.91264123965334"><ele>67.19999999999999</ele><time>2026-04-02T16:25:26Z</time></trkpt><trkpt lat="46.02641284287644" lon="12.912666600742867"><ele>66.8</ele><time>2026-04-02T16:25:27Z</time></trkpt><trkpt lat="46.02631758804821" lon="12.912706641154305"><ele>66.39999999999999</ele><time>2026-04-02T16:25:28Z</time></trkpt><trkpt lat="46.02622080891902" lon="12.91274574247748"><ele>66.0</ele><time>2026-04-02T16:25:29Z</time></trkpt><trkpt lat="46.02615670086109" lon="12.912736607243811"><ele>66.0</ele><time>2026-04-02T16:25:30Z</time></trkpt><trkpt lat="46.026084187893325" lon="12.912741974969592"><ele>66.0</ele><time>2026-04-02T16:25:31Z</time></trkpt><trkpt lat="46.02600184846378" lon="12.91278714075593"><ele>66.0</ele><time>2026-04-02T16:25:32Z</time></trkpt><trkpt lat="46.025871631181" lon="12.912848550343092"><ele>66.0</ele><time>2026-04-02T16:25:33Z</time></trkpt><trkpt lat="46.02575880320724" lon="12.91294360023189"><ele>66.0</ele><time>2026-04-02T16:25:34Z</time></trkpt><trkpt lat="46.02564206540016" lon="12.913026374655164"><ele>65.75</ele><time>2026-04-02T16:25:35Z</time></trkpt><trkpt lat="46.025533902327865" lon="12.913070496172612"><ele>65.5</ele><time>2026-04-02T16:25:36Z</time></trkpt><trkpt lat="46.02541385759279" lon="12.913113040577832"><ele>65.25</ele><time>2026-04-02T16:25:37Z</time></trkpt><trkpt lat="46.02530728973771" lon="12.913169126258648"><ele>65.0</ele><time>2026-04-02T16:25:38Z</time></trkpt><trkpt lat="46.025192960770866" lon="12.913216071668515"><ele>65.0</ele><time>2026-04-02T16:25:39Z</time></trkpt><trkpt lat="46.02508164858837" lon="12.913273939052635"><ele>65.0</ele><time>2026-04-02T16:25:40Z</time></trkpt><trkpt lat="46.02500502190734" lon="12.913288872279821"><ele>65.0</ele><time>2026-04-02T16:25:41Z</time></trkpt><trkpt lat="46.02492525464608" lon="12.913362798682929"><ele>65.0</ele><time>2026-04-02T16:25:42Z</time></trkpt><trkpt lat="46.02484724389876" lon="12.913402303501654"><ele>65.0</ele><time>2026-04-02T16:25:43Z</time></trkpt><trkpt lat="46.02473258640474" lon="12.913439668936531"><ele>65.0</ele><time>2026-04-02T16:25:44Z</time></trkpt><trkpt lat="46.02461093694261" lon="12.91349150119382"><ele>65.0</ele><time>2026-04-02T16:25:45Z</time></trkpt><trkpt lat="46.0245096768512" lon="12.913536729470064"><ele>65.0</ele><time>2026-04-02T16:25:46Z</time></trkpt><trkpt lat="46.024417303246494" lon="12.913561756266642"><ele>65.0</ele><time>2026-04-02T16:25:47Z</time></trkpt><trkpt lat="46.024315071742386" lon="12.913590669511184"><ele>65.0</ele><time>2026-04-02T16:25:48Z</time></trkpt><trkpt lat="46.02420399089422" lon="12.913611749890519"><ele>65.25</ele><time>2026-04-02T16:25:49Z</time></trkpt><trkpt lat="46.024079673801694" lon="12.913646745083458"><ele>65.5</ele><time>2026-04-02T16:25:50Z</time></trkpt><trkpt lat="46.023992245639974" lon="12.913760042890502"><ele>65.75</ele><time>2026-04-02T16:25:51Z</time></trkpt><trkpt lat="46.023896401516765" lon="12.913829081402184"><ele>66.0</ele><time>2026-04-02T16:25:52Z</time></trkpt><trkpt lat="46.023763014154305" lon="12.91385607300946"><ele>66.0</ele><time>2026-04-02T16:25:53Z</time></trkpt><trkpt lat="46.0236207562027" lon="12.913886897099232"><ele>66.0</ele><time>2026-04-02T16:25:54Z</time></trkpt><trkpt lat="46.02348196670148" lon="12.913922811546922"><ele>66.0</ele><time>2026-04-02T16:25:55Z</time></trkpt><trkpt lat="46.023355809989106" lon="12.913965962000654"><ele>66.0</ele><time>2026-04-02T16:25:56Z</time></trkpt><trkpt lat="46.02323563831595" lon="12.913995085631939"><ele>65.8</ele><time>2026-04-02T16:25:57Z</time></trkpt><trkpt lat="46.02311441386414" lon="12.91400213392464"><ele>65.6</ele><time>2026-04-02T16:25:58Z</time></trkpt><trkpt lat="46.023006555802475" lon="12.914027578614329"><ele>65.4</ele><time>2026-04-02T16:25:59Z</time></trkpt><trkpt lat="46.02290759979186" lon="12.914029922687819"><ele>65.2</ele><time>2026-04-02T16:26:00Z</time></trkpt><trkpt lat="46.022824669157146" lon="12.913990412898809"><ele>65.0</ele><time>2026-04-02T16:26:01Z</time></trkpt><trkpt lat="46.022717905009046" lon="12.9139868777327"><ele>65.0</ele><time>2026-04-02T16:26:02Z</time></trkpt><trkpt lat="46.022590066305604" lon="12.91399178784206"><ele>65.0</ele><time>2026-04-02T16:26:03Z</time></trkpt><trkpt lat="46.02245961407134" lon="12.914005339124676"><ele>65.0</ele><time>2026-04-02T16:26:04Z</time></trkpt><trkpt lat="46.02232688891584" lon="12.914016251250905"><ele>65.0</ele><time>2026-04-02T16:26:05Z</time></trkpt><trkpt lat="46.02221097664084" lon="12.914027866032525"><ele>65.0</ele><time>2026-04-02T16:26:06Z</time></trkpt><trkpt lat="46.0220964080386" lon="12.91403768627867"><ele>65.0</ele><time>2026-04-02T16:26:07Z</time></trkpt><trkpt lat="46.0219803877608" lon="12.914045309690843"><ele>65.0</ele><time>2026-04-02T16:26:08Z</time></trkpt><trkpt lat="46.02185292351458" lon="12.914041860483238"><ele>65.0</ele><time>2026-04-02T16:26:09Z</time></trkpt><trkpt lat="46.02174088564945" lon="12.914036021389883"><ele>65.0</ele><time>2026-04-02T16:26:10Z</time></trkpt><trkpt lat="46.02163290590459" lon="12.914043086506943"><ele>65.0</ele><time>2026-04-02T16:26:11Z</time></trkpt><trkpt lat="46.02154308801688" lon="12.914051272197607"><ele>65.0</ele><time>2026-04-02T16:26:12Z</time></trkpt><trkpt lat="46.02143280877076" lon="12.914045773530457"><ele>65.0</ele><time>2026-04-02T16:26:13Z</time></trkpt><trkpt lat="46.021338280984075" lon="12.914038514434852"><ele>65.0</ele><time>2026-04-02T16:26:14Z</time></trkpt><trkpt lat="46.021253325817554" lon="12.914050007310221"><ele>65.0</ele><time>2026-04-02T16:26:15Z</time></trkpt><trkpt lat="46.02117460569323" lon="12.91407842502801"><ele>65.0</ele><time>2026-04-02T16:26:16Z</time></trkpt><trkpt lat="46.021093982835126" lon="12.914093708716386"><ele>65.0</ele><time>2026-04-02T16:26:17Z</time></trkpt><trkpt lat="46.021022743813084" lon="12.914076500258627"><ele>65.0</ele><time>2026-04-02T16:26:18Z</time></trkpt><trkpt lat="46.02094655748104" lon="12.91404870067302"><ele>65.0</ele><time>2026-04-02T16:26:19Z</time></trkpt><trkpt lat="46.02085987210623" lon="12.914023202167275"><ele>65.0</ele><time>2026-04-02T16:26:20Z</time></trkpt><trkpt lat="46.020771371712286" lon="12.913994269253255"><ele>64.6</ele><time>2026-04-02T16:26:21Z</time></trkpt><trkpt lat="46.02068463792273" lon="12.913968162091582"><ele>64.2</ele><time>2026-04-02T16:26:22Z</time></trkpt><trkpt lat="46.020601917484285" lon="12.913925511576872"><ele>63.8</ele><time>2026-04-02T16:26:23Z</time></trkpt><trkpt lat="46.02049761366496" lon="12.913884785345058"><ele>63.4</ele><time>2026-04-02T16:26:24Z</time></trkpt><trkpt lat="46.02038621438081" lon="12.913839699989461"><ele>63.0</ele><time>2026-04-02T16:26:25Z</time></trkpt><trkpt lat="46.020272422303634" lon="12.913797330559955"><ele>63.0</ele><time>2026-04-02T16:26:26Z</time></trkpt><trkpt lat="46.02016848108527" lon="12.913777681316763"><ele>63.0</ele><time>2026-04-02T16:26:27Z</time></trkpt><trkpt lat="46.02006147969003" lon="12.913781852756735"><ele>63.0</ele><time>2026-04-02T16:26:28Z</time></trkpt><trkpt lat="46.01995512998556" lon="12.913792672679763"><ele>63.0</ele><time>2026-04-02T16:26:29Z</time></trkpt><trkpt lat="46.019868832088406" lon="12.913800908006278"><ele>63.0</ele><time>2026-04-02T16:26:30Z</time></trkpt><trkpt lat="46.019806172046664" lon="12.913814013947128"><ele>63.2</ele><time>2026-04-02T16:26:31Z</time></trkpt><trkpt lat="46.01969137335857" lon="12.913803306827326"><ele>63.4</ele><time>2026-04-02T16:26:33Z</time></trkpt><trkpt lat="46.019599684361246" lon="12.913801443091117"><ele>63.60000000000001</ele><time>2026-04-02T16:26:34Z</time></trkpt><trkpt lat="46.01949117841744" lon="12.913825110295116"><ele>63.800000000000004</ele><time>2026-04-02T16:26:35Z</time></trkpt><trkpt lat="46.01939163415571" lon="12.913838379616626"><ele>64.0</ele><time>2026-04-02T16:26:36Z</time></trkpt><trkpt lat="46.019310097549415" lon="12.913839377331984"><ele>64.0</ele><time>2026-04-02T16:26:37Z</time></trkpt><trkpt lat="46.01921036368082" lon="12.913832217990443"><ele>64.0</ele><time>2026-04-02T16:26:38Z</time></trkpt><trkpt lat="46.01909733855083" lon="12.913827679225044"><ele>64.0</ele><time>2026-04-02T16:26:39Z</time></trkpt><trkpt lat="46.0189805544644" lon="12.913822277440554"><ele>64.0</ele><time>2026-04-02T16:26:40Z</time></trkpt><trkpt lat="46.01887046640591" lon="12.913833177816954"><ele>64.0</ele><time>2026-04-02T16:26:41Z</time></trkpt><trkpt lat="46.018754989352125" lon="12.913833977848798"><ele>63.75</ele><time>2026-04-02T16:26:42Z</time></trkpt><trkpt lat="46.01863912442469" lon="12.913847370967856"><ele>63.5</ele><time>2026-04-02T16:26:43Z</time></trkpt><trkpt lat="46.01852974527701" lon="12.913858472468858"><ele>63.25</ele><time>2026-04-02T16:26:44Z</time></trkpt><trkpt lat="46.01841755144331" lon="12.91387045262632"><ele>63.0</ele><time>2026-04-02T16:26:45Z</time></trkpt><trkpt lat="46.018288978980806" lon="12.913890320988434"><ele>63.0</ele><time>2026-04-02T16:26:46Z</time></trkpt><trkpt lat="46.01816046457601" lon="12.913903641740745"><ele>63.0</ele><time>2026-04-02T16:26:47Z</time></trkpt><trkpt lat="46.01804662640744" lon="12.913883297348434"><ele>63.0</ele><time>2026-04-02T16:26:48Z</time></trkpt><trkpt lat="46.01792933944123" lon="12.913852414905715"><ele>63.0</ele><time>2026-04-02T16:26:49Z</time></trkpt><trkpt lat="46.01778249335296" lon="12.913834369760998"><ele>63.0</ele><time>2026-04-02T16:26:50Z</time></trkpt><trkpt lat="46.01763298430895" lon="12.913802841504104"><ele>63.0</ele><time>2026-04-02T16:26:51Z</time></trkpt><trkpt lat="46.017532538909286" lon="12.913799949173743"><ele>63.0</ele><time>2026-04-02T16:26:52Z</time></trkpt><trkpt lat="46.01741788298478" lon="12.91377509738209"><ele>63.0</ele><time>2026-04-02T16:26:53Z</time></trkpt><trkpt lat="46.017299060445424" lon="12.91375975877758"><ele>62.8</ele><time>2026-04-02T16:26:54Z</time></trkpt><trkpt lat="46.01719718084131" lon="12.91374824968155"><ele>62.599999999999994</ele><time>2026-04-02T16:26:55Z</time></trkpt><trkpt lat="46.01708265006181" lon="12.913744241764332"><ele>62.400000000000006</ele><time>2026-04-02T16:26:56Z</time></trkpt><trkpt lat="46.01697330125554" lon="12.913744624387517"><ele>62.2</ele><time>2026-04-02T16:26:57Z</time></trkpt><trkpt lat="46.01687720655119" lon="12.913741563545708"><ele>62.0</ele><time>2026-04-02T16:26:58Z</time></trkpt><trkpt lat="46.01678228187424" lon="12.91375857052292"><ele>62.0</ele><time>2026-04-02T16:26:59Z</time></trkpt><trkpt lat="46.01668073571575" lon="12.913766006204037"><ele>62.0</ele><time>2026-04-02T16:27:00Z</time></trkpt><trkpt lat="46.016574528948745" lon="12.913756324458086"><ele>62.0</ele><time>2026-04-02T16:27:01Z</time></trkpt><trkpt lat="46.01648005187721" lon="12.91373755245637"><ele>62.0</ele><time>2026-04-02T16:27:02Z</time></trkpt><trkpt lat="46.016409514117896" lon="12.913755753374609"><ele>62.0</ele><time>2026-04-02T16:27:03Z</time></trkpt><trkpt lat="46.016298024401294" lon="12.913781838765523"><ele>61.833333333333336</ele><time>2026-04-02T16:27:05Z</time></trkpt><trkpt lat="46.016231373742826" lon="12.913749775728743"><ele>61.66666666666667</ele><time>2026-04-02T16:27:06Z</time></trkpt><trkpt lat="46.0161613659596" lon="12.913715957114757"><ele>61.5</ele><time>2026-04-02T16:27:07.001Z</time></trkpt><trkpt lat="46.01609764066926" lon="12.91368804876446"><ele>61.33333333333333</ele><time>2026-04-02T16:27:08.001Z</time></trkpt><trkpt lat="46.016037237124785" lon="12.913629614904119"><ele>61.166666666666664</ele><time>2026-04-02T16:27:09.001Z</time></trkpt><trkpt lat="46.015947841714365" lon="12.913604800256866"><ele>61.0</ele><time>2026-04-02T16:27:10.001Z</time></trkpt><trkpt lat="46.01584292206492" lon="12.913624055172122"><ele>61.199999999999996</ele><time>2026-04-02T16:27:11.001Z</time></trkpt><trkpt lat="46.01573000367789" lon="12.913627991407843"><ele>61.39999999999999</ele><time>2026-04-02T16:27:12.001Z</time></trkpt><trkpt lat="46.01562846778485" lon="12.913605802153393"><ele>61.6</ele><time>2026-04-02T16:27:13.001Z</time></trkpt><trkpt lat="46.01549216087344" lon="12.913613639946673"><ele>61.8</ele><time>2026-04-02T16:27:14.001Z</time></trkpt><trkpt lat="46.01541180403205" lon="12.913627795868903"><ele>62.0</ele><time>2026-04-02T16:27:15.001Z</time></trkpt><trkpt lat="46.015315530081324" lon="12.913601599933658"><ele>62.0</ele><time>2026-04-02T16:27:16.001Z</time></trkpt><trkpt lat="46.01522917684884" lon="12.91358710060916"><ele>62.0</ele><time>2026-04-02T16:27:17.001Z</time></trkpt><trkpt lat="46.015125621833036" lon="12.913562699556946"><ele>62.0</ele><time>2026-04-02T16:27:18.001Z</time></trkpt><trkpt lat="46.01502247845154" lon="12.913552591596137"><ele>62.0</ele><time>2026-04-02T16:27:19.001Z</time></trkpt><trkpt lat="46.01488148340451" lon="12.913514343477122"><ele>62.0</ele><time>2026-04-02T16:27:20.001Z</time></trkpt><trkpt lat="46.01474994190167" lon="12.913466251309016"><ele>61.8</ele><time>2026-04-02T16:27:21.001Z</time></trkpt><trkpt lat="46.014639300853204" lon="12.913412304030754"><ele>61.6</ele><time>2026-04-02T16:27:22.001Z</time></trkpt><trkpt lat="46.01454721021168" lon="12.913407397916712"><ele>61.39999999999999</ele><time>2026-04-02T16:27:23Z</time></trkpt><trkpt lat="46.01445965858496" lon="12.913388904349103"><ele>61.199999999999996</ele><time>2026-04-02T16:27:24Z</time></trkpt><trkpt lat="46.014360912331775" lon="12.913372829416629"><ele>61.0</ele><time>2026-04-02T16:27:25Z</time></trkpt><trkpt lat="46.01426432432504" lon="12.913375337090164"><ele>60.99999999999999</ele><time>2026-04-02T16:27:26Z</time></trkpt><trkpt lat="46.01418427748209" lon="12.913381700808516"><ele>61.0</ele><time>2026-04-02T16:27:27Z</time></trkpt><trkpt lat="46.0141076452515" lon="12.91335824314363"><ele>61.0</ele><time>2026-04-02T16:27:28Z</time></trkpt><trkpt lat="46.01402544912388" lon="12.913332369179473"><ele>61.0</ele><time>2026-04-02T16:27:29Z</time></trkpt><trkpt lat="46.013947265919995" lon="12.913255944894674"><ele>60.99999999999999</ele><time>2026-04-02T16:27:30Z</time></trkpt><trkpt lat="46.013849963719906" lon="12.913205255825918"><ele>61.0</ele><time>2026-04-02T16:27:31Z</time></trkpt><trkpt lat="46.01376381794533" lon="12.913160542119558"><ele>61.0</ele><time>2026-04-02T16:27:32Z</time></trkpt><trkpt lat="46.01366766770064" lon="12.913102669945799"><ele>60.99999999999999</ele><time>2026-04-02T16:27:33Z</time></trkpt><trkpt lat="46.01356137477164" lon="12.913065766631656"><ele>60.99999999999999</ele><time>2026-04-02T16:27:34Z</time></trkpt><trkpt lat="46.0134799568258" lon="12.913041167588094"><ele>61.0</ele><time>2026-04-02T16:27:35Z</time></trkpt><trkpt lat="46.0134023685837" lon="12.913018084611107"><ele>61.0</ele><time>2026-04-02T16:27:36Z</time></trkpt><trkpt lat="46.013315298184395" lon="12.91302249480383"><ele>61.0</ele><time>2026-04-02T16:27:37Z</time></trkpt><trkpt lat="46.01320861458039" lon="12.913022275298953"><ele>60.99999999999999</ele><time>2026-04-02T16:27:38Z</time></trkpt><trkpt lat="46.01310107928031" lon="12.913030216058823"><ele>60.99999999999999</ele><time>2026-04-02T16:27:39Z</time></trkpt><trkpt lat="46.01299184595336" lon="12.913011428110913"><ele>61.0</ele><time>2026-04-02T16:27:40Z</time></trkpt><trkpt lat="46.012889796835324" lon="12.912991766578266"><ele>61.0</ele><time>2026-04-02T16:27:41Z</time></trkpt><trkpt lat="46.012785314083835" lon="12.912971239953915"><ele>61.0</ele><time>2026-04-02T16:27:42Z</time></trkpt><trkpt lat="46.01269358503924" lon="12.912965962956843"><ele>60.99999999999999</ele><time>2026-04-02T16:27:43Z</time></trkpt><trkpt lat="46.012586811172454" lon="12.912962160285216"><ele>60.99999999999999</ele><time>2026-04-02T16:27:44Z</time></trkpt><trkpt lat="46.01247344476146" lon="12.912958856646659"><ele>61.0</ele><time>2026-04-02T16:27:45Z</time></trkpt><trkpt lat="46.01235896951987" lon="12.912949637716855"><ele>61.0</ele><time>2026-04-02T16:27:46Z</time></trkpt><trkpt lat="46.01225447648465" lon="12.912935793734517"><ele>61.0</ele><time>2026-04-02T16:27:47Z</time></trkpt><trkpt lat="46.01215076278589" lon="12.91292529271724"><ele>60.99999999999999</ele><time>2026-04-02T16:27:48Z</time></trkpt><trkpt lat="46.01204454542178" lon="12.912917033854718"><ele>60.99999999999999</ele><time>2026-04-02T16:27:49Z</time></trkpt><trkpt lat="46.01193446225037" lon="12.912911732225124"><ele>61.0</ele><time>2026-04-02T16:27:50Z</time></trkpt><trkpt lat="46.01182079382192" lon="12.912918083454132"><ele>61.0</ele><time>2026-04-02T16:27:51Z</time></trkpt><trkpt lat="46.01173602730861" lon="12.91292046833249"><ele>61.0</ele><time>2026-04-02T16:27:52Z</time></trkpt><trkpt lat="46.01163309861661" lon="12.912883647636193"><ele>60.99999999999999</ele><time>2026-04-02T16:27:53Z</time></trkpt><trkpt lat="46.01155763784184" lon="12.91286869647493"><ele>60.99999999999999</ele><time>2026-04-02T16:27:54Z</time></trkpt><trkpt lat="46.01146855225539" lon="12.91285609115855"><ele>61.0</ele><time>2026-04-02T16:27:55Z</time></trkpt><trkpt lat="46.011367066225525" lon="12.912886979664886"><ele>61.0</ele><time>2026-04-02T16:27:56Z</time></trkpt><trkpt lat="46.01127114936919" lon="12.912905437511593"><ele>61.0</ele><time>2026-04-02T16:27:57Z</time></trkpt><trkpt lat="46.011171304552555" lon="12.912903379614022"><ele>60.99999999999999</ele><time>2026-04-02T16:27:58Z</time></trkpt><trkpt lat="46.011072916682444" lon="12.912923704287058"><ele>60.99999999999999</ele><time>2026-04-02T16:27:59Z</time></trkpt><trkpt lat="46.01098062143021" lon="12.912952020027603"><ele>61.0</ele><time>2026-04-02T16:28:00Z</time></trkpt><trkpt lat="46.01088235882324" lon="12.91297541801013"><ele>61.0</ele><time>2026-04-02T16:28:01Z</time></trkpt><trkpt lat="46.01079245221315" lon="12.913008070942949"><ele>60.8</ele><time>2026-04-02T16:28:02Z</time></trkpt><trkpt lat="46.01070468168791" lon="12.91302905294523"><ele>60.599999999999994</ele><time>2026-04-02T16:28:03Z</time></trkpt><trkpt lat="46.01061179823658" lon="12.913033748899464"><ele>60.4</ele><time>2026-04-02T16:28:04Z</time></trkpt><trkpt lat="46.01049889440633" lon="12.912986000952868"><ele>60.2</ele><time>2026-04-02T16:28:05Z</time></trkpt><trkpt lat="46.01038856459342" lon="12.912898599128148"><ele>60.0</ele><time>2026-04-02T16:28:06Z</time></trkpt><trkpt lat="46.0102689319596" lon="12.912822336896749"><ele>60.0</ele><time>2026-04-02T16:28:07Z</time></trkpt><trkpt lat="46.010132140128476" lon="12.912748302604978"><ele>60.0</ele><time>2026-04-02T16:28:08Z</time></trkpt><trkpt lat="46.00998045625108" lon="12.912687137400585"><ele>60.0</ele><time>2026-04-02T16:28:09Z</time></trkpt><trkpt lat="46.00984612762871" lon="12.912639456887737"><ele>60.0</ele><time>2026-04-02T16:28:10Z</time></trkpt><trkpt lat="46.00973360132311" lon="12.912611537586963"><ele>59.75</ele><time>2026-04-02T16:28:11Z</time></trkpt><trkpt lat="46.009631184060005" lon="12.912575144451955"><ele>59.5</ele><time>2026-04-02T16:28:12Z</time></trkpt><trkpt lat="46.00952605763404" lon="12.912555080602466"><ele>59.25</ele><time>2026-04-02T16:28:13Z</time></trkpt><trkpt lat="46.00938711857149" lon="12.912514625194529"><ele>59.0</ele><time>2026-04-02T16:28:14Z</time></trkpt><trkpt lat="46.0092555586698" lon="12.912459640049255"><ele>59.25</ele><time>2026-04-02T16:28:15Z</time></trkpt><trkpt lat="46.009125269591074" lon="12.912406992589224"><ele>59.5</ele><time>2026-04-02T16:28:16Z</time></trkpt><trkpt lat="46.008991385" lon="12.912385992153572"><ele>59.75</ele><time>2026-04-02T16:28:17Z</time></trkpt><trkpt lat="46.008889759479004" lon="12.912358038208028"><ele>60.0</ele><time>2026-04-02T16:28:18Z</time></trkpt><trkpt lat="46.00879391421326" lon="12.912330215277901"><ele>60.0</ele><time>2026-04-02T16:28:19Z</time></trkpt><trkpt lat="46.00867620156498" lon="12.912308474349967"><ele>60.0</ele><time>2026-04-02T16:28:20Z</time></trkpt><trkpt lat="46.00857191878884" lon="12.912323087034764"><ele>60.0</ele><time>2026-04-02T16:28:21Z</time></trkpt><trkpt lat="46.008477087466936" lon="12.912368603095175"><ele>60.0</ele><time>2026-04-02T16:28:22Z</time></trkpt><trkpt lat="46.00835046019503" lon="12.912363263340396"><ele>59.8</ele><time>2026-04-02T16:28:23Z</time></trkpt><trkpt lat="46.00826631052565" lon="12.912351769784838"><ele>59.6</ele><time>2026-04-02T16:28:24Z</time></trkpt><trkpt lat="46.00820781392079" lon="12.912263190716828"><ele>59.400000000000006</ele><time>2026-04-02T16:28:25Z</time></trkpt><trkpt lat="46.008115439118065" lon="12.912222819396908"><ele>59.2</ele><time>2026-04-02T16:28:26Z</time></trkpt><trkpt lat="46.00800958489685" lon="12.912193969924827"><ele>59.0</ele><time>2026-04-02T16:28:27Z</time></trkpt><trkpt lat="46.00791072490684" lon="12.912160271704806"><ele>59.0</ele><time>2026-04-02T16:28:28Z</time></trkpt><trkpt lat="46.007798511632444" lon="12.912127853652764"><ele>59.00000000000001</ele><time>2026-04-02T16:28:29Z</time></trkpt><trkpt lat="46.007702760814745" lon="12.912104352821416"><ele>59.00000000000001</ele><time>2026-04-02T16:28:30Z</time></trkpt><trkpt lat="46.007597730453426" lon="12.912092816532143"><ele>59.0</ele><time>2026-04-02T16:28:31Z</time></trkpt><trkpt lat="46.0075046307628" lon="12.912087978748527"><ele>59.0</ele><time>2026-04-02T16:28:32Z</time></trkpt><trkpt lat="46.00741935116523" lon="12.912093302726376"><ele>58.833333333333336</ele><time>2026-04-02T16:28:33Z</time></trkpt><trkpt lat="46.007336428075305" lon="12.912097675222338"><ele>58.66666666666667</ele><time>2026-04-02T16:28:34Z</time></trkpt><trkpt lat="46.00725419676528" lon="12.912095481330569"><ele>58.5</ele><time>2026-04-02T16:28:35Z</time></trkpt><trkpt lat="46.0071772182075" lon="12.912078419756005"><ele>58.33333333333333</ele><time>2026-04-02T16:28:36Z</time></trkpt><trkpt lat="46.0071024472668" lon="12.912049786562733"><ele>58.166666666666664</ele><time>2026-04-02T16:28:37Z</time></trkpt><trkpt lat="46.00702825456863" lon="12.912029175856858"><ele>58.0</ele><time>2026-04-02T16:28:38Z</time></trkpt><trkpt lat="46.00695053112558" lon="12.912007104196846"><ele>57.99999999999999</ele><time>2026-04-02T16:28:39Z</time></trkpt><trkpt lat="46.00686884399872" lon="12.911967457618479"><ele>58.0</ele><time>2026-04-02T16:28:40Z</time></trkpt><trkpt lat="46.00680364709693" lon="12.91193450897397"><ele>58.0</ele><time>2026-04-02T16:28:41Z</time></trkpt><trkpt lat="46.00674036901889" lon="12.91189659136798"><ele>58.0</ele><time>2026-04-02T16:28:42Z</time></trkpt><trkpt lat="46.006644613525154" lon="12.911844792777087"><ele>57.99999999999999</ele><time>2026-04-02T16:28:44Z</time></trkpt><trkpt lat="46.00657972786799" lon="12.911814363816527"><ele>58.0</ele><time>2026-04-02T16:28:45Z</time></trkpt><trkpt lat="46.00648591908308" lon="12.911798339224822"><ele>57.666666666666664</ele><time>2026-04-02T16:28:46Z</time></trkpt><trkpt lat="46.006384474614144" lon="12.911783807442104"><ele>57.33333333333333</ele><time>2026-04-02T16:28:47Z</time></trkpt><trkpt lat="46.006310005617024" lon="12.911776395616226"><ele>57.0</ele><time>2026-04-02T16:28:48Z</time></trkpt><trkpt lat="46.00622962998949" lon="12.911786573651884"><ele>56.66666666666667</ele><time>2026-04-02T16:28:49Z</time></trkpt><trkpt lat="46.0061483226801" lon="12.91180293797808"><ele>56.333333333333336</ele><time>2026-04-02T16:28:50Z</time></trkpt><trkpt lat="46.00606516027262" lon="12.911813824131581"><ele>56.0</ele><time>2026-04-02T16:28:51Z</time></trkpt><trkpt lat="46.00597648580456" lon="12.911801385557638"><ele>56.0</ele><time>2026-04-02T16:28:52Z</time></trkpt><trkpt lat="46.00588881092663" lon="12.911776690534412"><ele>55.99999999999999</ele><time>2026-04-02T16:28:53Z</time></trkpt><trkpt lat="46.005801972700915" lon="12.911756167947138"><ele>55.99999999999999</ele><time>2026-04-02T16:28:54Z</time></trkpt><trkpt lat="46.005707528301635" lon="12.911743098675666"><ele>56.0</ele><time>2026-04-02T16:28:55Z</time></trkpt><trkpt lat="46.0056104968669" lon="12.911743531001894"><ele>56.0</ele><time>2026-04-02T16:28:56Z</time></trkpt><trkpt lat="46.00550968055144" lon="12.911739326926705"><ele>56.16666666666667</ele><time>2026-04-02T16:28:57Z</time></trkpt><trkpt lat="46.00540857068802" lon="12.91172826850945"><ele>56.333333333333336</ele><time>2026-04-02T16:28:58Z</time></trkpt><trkpt lat="46.00531464167146" lon="12.911708799500389"><ele>56.5</ele><time>2026-04-02T16:28:59Z</time></trkpt><trkpt lat="46.00522566614454" lon="12.911679818762254"><ele>56.66666666666667</ele><time>2026-04-02T16:29:00Z</time></trkpt><trkpt lat="46.00514497186626" lon="12.911666574908876"><ele>56.833333333333336</ele><time>2026-04-02T16:29:01Z</time></trkpt><trkpt lat="46.00506674078091" lon="12.911649690103449"><ele>57.0</ele><time>2026-04-02T16:29:02Z</time></trkpt><trkpt lat="46.00499118120641" lon="12.911615629585548"><ele>57.166666666666664</ele><time>2026-04-02T16:29:03Z</time></trkpt><trkpt lat="46.004913031028245" lon="12.911574426221252"><ele>57.33333333333333</ele><time>2026-04-02T16:29:04Z</time></trkpt><trkpt lat="46.0048397156771" lon="12.911541875658305"><ele>57.5</ele><time>2026-04-02T16:29:05Z</time></trkpt><trkpt lat="46.004760181634055" lon="12.9115133623474"><ele>57.666666666666664</ele><time>2026-04-02T16:29:06Z</time></trkpt><trkpt lat="46.00468092932272" lon="12.911481103956339"><ele>57.83333333333333</ele><time>2026-04-02T16:29:07Z</time></trkpt><trkpt lat="46.004584342971334" lon="12.911468286530148"><ele>58.0</ele><time>2026-04-02T16:29:08Z</time></trkpt><trkpt lat="46.00450523407279" lon="12.911460953286666"><ele>57.99999999999999</ele><time>2026-04-02T16:29:09Z</time></trkpt><trkpt lat="46.004443959632034" lon="12.911438890683023"><ele>58.0</ele><time>2026-04-02T16:29:10Z</time></trkpt><trkpt lat="46.004374891678765" lon="12.911414765938257"><ele>58.0</ele><time>2026-04-02T16:29:11Z</time></trkpt><trkpt lat="46.004298183233736" lon="12.911410940472766"><ele>58.0</ele><time>2026-04-02T16:29:12Z</time></trkpt><trkpt lat="46.00421624349888" lon="12.91141337132456"><ele>57.99999999999999</ele><time>2026-04-02T16:29:13Z</time></trkpt><trkpt lat="46.00413020153355" lon="12.91140901351487"><ele>58.0</ele><time>2026-04-02T16:29:14Z</time></trkpt><trkpt lat="46.004038796747075" lon="12.911396875095406"><ele>57.8</ele><time>2026-04-02T16:29:15Z</time></trkpt><trkpt lat="46.00393777766516" lon="12.911362263782854"><ele>57.599999999999994</ele><time>2026-04-02T16:29:16Z</time></trkpt><trkpt lat="46.003848475640076" lon="12.911359859697031"><ele>57.400000000000006</ele><time>2026-04-02T16:29:17Z</time></trkpt><trkpt lat="46.00377149365941" lon="12.91137055914166"><ele>57.2</ele><time>2026-04-02T16:29:18Z</time></trkpt><trkpt lat="46.003680806450305" lon="12.911378218082646"><ele>57.0</ele><time>2026-04-02T16:29:19Z</time></trkpt><trkpt lat="46.00358578249041" lon="12.911366528458384"><ele>57.0</ele><time>2026-04-02T16:29:20Z</time></trkpt><trkpt lat="46.003490640739734" lon="12.911321097554273"><ele>57.0</ele><time>2026-04-02T16:29:21Z</time></trkpt><trkpt lat="46.00343176800547" lon="12.911277406768283"><ele>57.0</ele><time>2026-04-02T16:29:22Z</time></trkpt><trkpt lat="46.00336796941941" lon="12.911244325697014"><ele>57.0</ele><time>2026-04-02T16:29:23Z</time></trkpt><trkpt lat="46.00327720347347" lon="12.911293613535344"><ele>57.0</ele><time>2026-04-02T16:29:24Z</time></trkpt><trkpt lat="46.00314609757513" lon="12.911299727021806"><ele>56.833333333333336</ele><time>2026-04-02T16:29:25Z</time></trkpt><trkpt lat="46.00303266189063" lon="12.91129321729264"><ele>56.66666666666667</ele><time>2026-04-02T16:29:26Z</time></trkpt><trkpt lat="46.00296906562112" lon="12.91124614909631"><ele>56.5</ele><time>2026-04-02T16:29:27Z</time></trkpt><trkpt lat="46.002894193699134" lon="12.911219485853312"><ele>56.333333333333336</ele><time>2026-04-02T16:29:28Z</time></trkpt><trkpt lat="46.002817847135866" lon="12.9113016191671"><ele>56.16666666666667</ele><time>2026-04-02T16:29:30Z</time></trkpt><trkpt lat="46.00275032364909" lon="12.911358051524196"><ele>56.0</ele><time>2026-04-02T16:29:31Z</time></trkpt><trkpt lat="46.00267502289202" lon="12.911408551917535"><ele>56.00000000000001</ele><time>2026-04-02T16:29:32Z</time></trkpt><trkpt lat="46.00261950160055" lon="12.911459995229315"><ele>56.0</ele><time>2026-04-02T16:29:33Z</time></trkpt><trkpt lat="46.00254949185177" lon="12.911510172216802"><ele>56.0</ele><time>2026-04-02T16:29:35Z</time></trkpt><trkpt lat="46.00248919850456" lon="12.91154986825297"><ele>56.0</ele><time>2026-04-02T16:29:37Z</time></trkpt><trkpt lat="46.0023613250844" lon="12.91155459350912"><ele>56.00000000000001</ele><time>2026-04-02T16:29:39Z</time></trkpt><trkpt lat="46.00227827442186" lon="12.911503662673105"><ele>56.0</ele><time>2026-04-02T16:29:40Z</time></trkpt><trkpt lat="46.00219035845178" lon="12.911442578827229"><ele>56.25</ele><time>2026-04-02T16:29:41Z</time></trkpt><trkpt lat="46.002091333243605" lon="12.911369755430584"><ele>56.5</ele><time>2026-04-02T16:29:42Z</time></trkpt><trkpt lat="46.001985703688845" lon="12.911296294496198"><ele>56.75</ele><time>2026-04-02T16:29:43Z</time></trkpt><trkpt lat="46.00187374023677" lon="12.911247224796488"><ele>57.0</ele><time>2026-04-02T16:29:44Z</time></trkpt><trkpt lat="46.00176207160585" lon="12.911199101198855"><ele>56.75</ele><time>2026-04-02T16:29:45Z</time></trkpt><trkpt lat="46.00165094239728" lon="12.91119339865737"><ele>56.5</ele><time>2026-04-02T16:29:46Z</time></trkpt><trkpt lat="46.00151533993012" lon="12.911185418849634"><ele>56.25</ele><time>2026-04-02T16:29:47Z</time></trkpt><trkpt lat="46.001417955618855" lon="12.911182522426987"><ele>56.0</ele><time>2026-04-02T16:29:48Z</time></trkpt><trkpt lat="46.00131114502816" lon="12.911155271398016"><ele>56.00000000000001</ele><time>2026-04-02T16:29:49Z</time></trkpt><trkpt lat="46.00122404352329" lon="12.911116260886619"><ele>56.0</ele><time>2026-04-02T16:29:50Z</time></trkpt><trkpt lat="46.001149334072764" lon="12.911092401993258"><ele>56.0</ele><time>2026-04-02T16:29:51Z</time></trkpt><trkpt lat="46.001069439431994" lon="12.91107743062893"><ele>56.0</ele><time>2026-04-02T16:29:52Z</time></trkpt><trkpt lat="46.00097921850511" lon="12.91105310557546"><ele>56.00000000000001</ele><time>2026-04-02T16:29:53Z</time></trkpt><trkpt lat="46.000882284921154" lon="12.91105083235726"><ele>56.0</ele><time>2026-04-02T16:29:54Z</time></trkpt><trkpt lat="46.00080303216733" lon="12.91104342866804"><ele>55.833333333333336</ele><time>2026-04-02T16:29:55Z</time></trkpt><trkpt lat="46.0007254994291" lon="12.911022054614161"><ele>55.66666666666667</ele><time>2026-04-02T16:29:56Z</time></trkpt><trkpt lat="46.000645275939874" lon="12.91101159691424"><ele>55.5</ele><time>2026-04-02T16:29:57Z</time></trkpt><trkpt lat="46.000563171016005" lon="12.91101087045488"><ele>55.33333333333333</ele><time>2026-04-02T16:29:58Z</time></trkpt><trkpt lat="46.00047623911127" lon="12.911003459758444"><ele>55.166666666666664</ele><time>2026-04-02T16:29:59Z</time></trkpt><trkpt lat="46.00039691336372" lon="12.911000159611671"><ele>55.0</ele><time>2026-04-02T16:30:00Z</time></trkpt><trkpt lat="46.00032506695578" lon="12.911000183663687"><ele>54.99999999999999</ele><time>2026-04-02T16:30:01Z</time></trkpt><trkpt lat="46.00024338639215" lon="12.911001841377331"><ele>55.0</ele><time>2026-04-02T16:30:03Z</time></trkpt><trkpt lat="46.00015621948117" lon="12.910986452161207"><ele>55.0</ele><time>2026-04-02T16:30:05Z</time></trkpt><trkpt lat="46.000096655221306" lon="12.910940668510957"><ele>55.0</ele><time>2026-04-02T16:30:07Z</time></trkpt><trkpt lat="46.000029396932014" lon="12.910929969064195"><ele>54.99999999999999</ele><time>2026-04-02T16:30:08Z</time></trkpt><trkpt lat="45.99995688582107" lon="12.910905822200494"><ele>55.0</ele><time>2026-04-02T16:30:09Z</time></trkpt><trkpt lat="45.999881368828866" lon="12.910878645261189"><ele>55.2</ele><time>2026-04-02T16:30:10Z</time></trkpt><trkpt lat="45.999773504431765" lon="12.910852279483718"><ele>55.4</ele><time>2026-04-02T16:30:11Z</time></trkpt><trkpt lat="45.99966385031799" lon="12.91084652612667"><ele>55.599999999999994</ele><time>2026-04-02T16:30:12Z</time></trkpt><trkpt lat="45.999566216730166" lon="12.910855417751575"><ele>55.8</ele><time>2026-04-02T16:30:13Z</time></trkpt><trkpt lat="45.99947461708147" lon="12.910865536669322"><ele>56.0</ele><time>2026-04-02T16:30:14Z</time></trkpt><trkpt lat="45.99938173823441" lon="12.910842135783557"><ele>56.0</ele><time>2026-04-02T16:30:15Z</time></trkpt><trkpt lat="45.99928158222232" lon="12.910779937075523"><ele>56.0</ele><time>2026-04-02T16:30:16Z</time></trkpt><trkpt lat="45.999172765023175" lon="12.91071769513832"><ele>56.0</ele><time>2026-04-02T16:30:17Z</time></trkpt><trkpt lat="45.99905645882727" lon="12.9106620455036"><ele>56.0</ele><time>2026-04-02T16:30:18Z</time></trkpt><trkpt lat="45.99895674971499" lon="12.910619223275564"><ele>56.0</ele><time>2026-04-02T16:30:19Z</time></trkpt><trkpt lat="45.99885898561335" lon="12.910587892546438"><ele>55.99999999999999</ele><time>2026-04-02T16:30:20Z</time></trkpt><trkpt lat="45.998747672076526" lon="12.910563305377643"><ele>55.99999999999999</ele><time>2026-04-02T16:30:21Z</time></trkpt><trkpt lat="45.99864153685785" lon="12.910545219904984"><ele>56.0</ele><time>2026-04-02T16:30:22Z</time></trkpt><trkpt lat="45.99855472968509" lon="12.910509743354158"><ele>56.0</ele><time>2026-04-02T16:30:23Z</time></trkpt><trkpt lat="45.998466909932176" lon="12.910481110201577"><ele>56.0</ele><time>2026-04-02T16:30:24Z</time></trkpt><trkpt lat="45.998376515546326" lon="12.910466065300362"><ele>55.99999999999999</ele><time>2026-04-02T16:30:25Z</time></trkpt><trkpt lat="45.99827648085045" lon="12.910451547759116"><ele>55.99999999999999</ele><time>2026-04-02T16:30:26Z</time></trkpt><trkpt lat="45.99816518370832" lon="12.91047765927587"><ele>56.0</ele><time>2026-04-02T16:30:27Z</time></trkpt><trkpt lat="45.99807380317721" lon="12.91047112635114"><ele>56.0</ele><time>2026-04-02T16:30:28Z</time></trkpt><trkpt lat="45.997980100676735" lon="12.910477994956365"><ele>56.0</ele><time>2026-04-02T16:30:29Z</time></trkpt><trkpt lat="45.997878891366085" lon="12.910471498165942"><ele>55.99999999999999</ele><time>2026-04-02T16:30:30Z</time></trkpt><trkpt lat="45.997770198193514" lon="12.910479194287952"><ele>55.99999999999999</ele><time>2026-04-02T16:30:31Z</time></trkpt><trkpt lat="45.997662822027976" lon="12.910515152420704"><ele>56.0</ele><time>2026-04-02T16:30:32Z</time></trkpt><trkpt lat="45.99755348743416" lon="12.91054284771667"><ele>56.0</ele><time>2026-04-02T16:30:33Z</time></trkpt><trkpt lat="45.99744403119089" lon="12.910560307953402"><ele>56.0</ele><time>2026-04-02T16:30:34Z</time></trkpt><trkpt lat="45.99733457041357" lon="12.910578758046292"><ele>56.0</ele><time>2026-04-02T16:30:35Z</time></trkpt><trkpt lat="45.99719286827455" lon="12.910572233331797"><ele>56.0</ele><time>2026-04-02T16:30:36Z</time></trkpt><trkpt lat="45.99708321325226" lon="12.910613263828246"><ele>56.0</ele><time>2026-04-02T16:30:37Z</time></trkpt><trkpt lat="45.99699019911409" lon="12.910632910392378"><ele>56.0</ele><time>2026-04-02T16:30:38Z</time></trkpt><trkpt lat="45.99689092135697" lon="12.910644356060065"><ele>55.99999999999999</ele><time>2026-04-02T16:30:39Z</time></trkpt><trkpt lat="45.99679361676079" lon="12.910656040466879"><ele>55.99999999999999</ele><time>2026-04-02T16:30:40Z</time></trkpt><trkpt lat="45.99670989802433" lon="12.910656518085073"><ele>56.0</ele><time>2026-04-02T16:30:41Z</time></trkpt><trkpt lat="45.99662500760758" lon="12.910624915119712"><ele>56.0</ele><time>2026-04-02T16:30:42Z</time></trkpt><trkpt lat="45.996502774716944" lon="12.910574371802598"><ele>55.599999999999994</ele><time>2026-04-02T16:30:43Z</time></trkpt><trkpt lat="45.99638917013769" lon="12.910536200238274"><ele>55.199999999999996</ele><time>2026-04-02T16:30:44Z</time></trkpt><trkpt lat="45.996302783699626" lon="12.910525190928704"><ele>54.800000000000004</ele><time>2026-04-02T16:30:45Z</time></trkpt><trkpt lat="45.996197045787326" lon="12.910537893933725"><ele>54.400000000000006</ele><time>2026-04-02T16:30:46Z</time></trkpt><trkpt lat="45.99611644834493" lon="12.910537753029166"><ele>54.0</ele><time>2026-04-02T16:30:47Z</time></trkpt><trkpt lat="45.99602072033358" lon="12.910515748836945"><ele>54.0</ele><time>2026-04-02T16:30:48Z</time></trkpt><trkpt lat="45.995943741237184" lon="12.910491773451543"><ele>54.00000000000001</ele><time>2026-04-02T16:30:49Z</time></trkpt><trkpt lat="45.99586452223648" lon="12.910431721880052"><ele>54.00000000000001</ele><time>2026-04-02T16:30:50Z</time></trkpt><trkpt lat="45.99578326828618" lon="12.910336868540176"><ele>54.0</ele><time>2026-04-02T16:30:52Z</time></trkpt><trkpt lat="45.99569390942354" lon="12.91031393101804"><ele>54.0</ele><time>2026-04-02T16:30:53Z</time></trkpt><trkpt lat="45.99559647127781" lon="12.910286370392173"><ele>54.0</ele><time>2026-04-02T16:30:54Z</time></trkpt><trkpt lat="45.99549578046996" lon="12.910294056287462"><ele>54.00000000000001</ele><time>2026-04-02T16:30:55Z</time></trkpt><trkpt lat="45.99541225831199" lon="12.91030805273541"><ele>54.00000000000001</ele><time>2026-04-02T16:30:56Z</time></trkpt><trkpt lat="45.995319426922045" lon="12.91031653992996"><ele>54.0</ele><time>2026-04-02T16:30:57Z</time></trkpt><trkpt lat="45.995230230339814" lon="12.910270316913557"><ele>54.0</ele><time>2026-04-02T16:30:58Z</time></trkpt><trkpt lat="45.99514684459932" lon="12.910215194411338"><ele>54.0</ele><time>2026-04-02T16:30:59Z</time></trkpt><trkpt lat="45.99506275402099" lon="12.910208810234595"><ele>54.00000000000001</ele><time>2026-04-02T16:31:00Z</time></trkpt><trkpt lat="45.99499221986422" lon="12.910163109123665"><ele>54.00000000000001</ele><time>2026-04-02T16:31:01Z</time></trkpt><trkpt lat="45.994908442569766" lon="12.91010128657785"><ele>54.0</ele><time>2026-04-02T16:31:02Z</time></trkpt><trkpt lat="45.99481982802717" lon="12.910053935618228"><ele>54.0</ele><time>2026-04-02T16:31:03Z</time></trkpt><trkpt lat="45.994694652198135" lon="12.910025586068363"><ele>54.0</ele><time>2026-04-02T16:31:04Z</time></trkpt><trkpt lat="45.99458460546808" lon="12.909976756320356"><ele>54.0</ele><time>2026-04-02T16:31:05Z</time></trkpt><trkpt lat="45.994454648714054" lon="12.909983283885605"><ele>54.0</ele><time>2026-04-02T16:31:06Z</time></trkpt><trkpt lat="45.994344912787554" lon="12.90998239396012"><ele>54.0</ele><time>2026-04-02T16:31:07Z</time></trkpt><trkpt lat="45.99424787483384" lon="12.910016062685852"><ele>54.0</ele><time>2026-04-02T16:31:08Z</time></trkpt><trkpt lat="45.994158147806644" lon="12.910034053965896"><ele>54.00000000000001</ele><time>2026-04-02T16:31:09Z</time></trkpt><trkpt lat="45.994037059021906" lon="12.910070583199014"><ele>54.00000000000001</ele><time>2026-04-02T16:31:10Z</time></trkpt><trkpt lat="45.99393799659356" lon="12.910054150305019"><ele>54.0</ele><time>2026-04-02T16:31:11Z</time></trkpt><trkpt lat="45.99385139449316" lon="12.910032115676605"><ele>54.0</ele><time>2026-04-02T16:31:12Z</time></trkpt><trkpt lat="45.993706150803916" lon="12.910034021674184"><ele>54.0</ele><time>2026-04-02T16:31:14Z</time></trkpt><trkpt lat="45.99363446176036" lon="12.909990758382365"><ele>54.00000000000001</ele><time>2026-04-02T16:31:15Z</time></trkpt><trkpt lat="45.9935473216915" lon="12.909978148989017"><ele>54.00000000000001</ele><time>2026-04-02T16:31:16Z</time></trkpt><trkpt lat="45.993487259096234" lon="12.909840720288717"><ele>54.0</ele><time>2026-04-02T16:31:18Z</time></trkpt><trkpt lat="45.993367440218975" lon="12.909728376070596"><ele>54.0</ele><time>2026-04-02T16:31:20Z</time></trkpt><trkpt lat="45.993283405539024" lon="12.909687966926525"><ele>53.833333333333336</ele><time>2026-04-02T16:31:21Z</time></trkpt><trkpt lat="45.9932087404911" lon="12.909655823895289"><ele>53.66666666666667</ele><time>2026-04-02T16:31:22Z</time></trkpt><trkpt lat="45.99314218466511" lon="12.909645890778616"><ele>53.5</ele><time>2026-04-02T16:31:23Z</time></trkpt><trkpt lat="45.99305606307059" lon="12.909648021968358"><ele>53.333333333333336</ele><time>2026-04-02T16:31:24Z</time></trkpt><trkpt lat="45.99297445970071" lon="12.909632869834605"><ele>53.16666666666667</ele><time>2026-04-02T16:31:25Z</time></trkpt><trkpt lat="45.9929085158676" lon="12.909593686957498"><ele>53.0</ele><time>2026-04-02T16:31:26Z</time></trkpt><trkpt lat="45.99284931955785" lon="12.909540830655219"><ele>53.00000000000001</ele><time>2026-04-02T16:31:27Z</time></trkpt><trkpt lat="45.99278101059706" lon="12.909476999120674"><ele>53.0</ele><time>2026-04-02T16:31:28Z</time></trkpt><trkpt lat="45.99270209034502" lon="12.909435372950725"><ele>53.0</ele><time>2026-04-02T16:31:29Z</time></trkpt><trkpt lat="45.992618687475485" lon="12.909410009897693"><ele>53.0</ele><time>2026-04-02T16:31:30Z</time></trkpt><trkpt lat="45.99253653411328" lon="12.90940328841962"><ele>53.00000000000001</ele><time>2026-04-02T16:31:31Z</time></trkpt><trkpt lat="45.99246273053673" lon="12.909411224344739"><ele>53.0</ele><time>2026-04-02T16:31:32Z</time></trkpt><trkpt lat="45.99238608176269" lon="12.909453134931308"><ele>53.00000000000001</ele><time>2026-04-02T16:31:33Z</time></trkpt><trkpt lat="45.99230749346793" lon="12.9095192152586"><ele>53.0</ele><time>2026-04-02T16:31:34Z</time></trkpt><trkpt lat="45.99223914785007" lon="12.909573525244792"><ele>53.0</ele><time>2026-04-02T16:31:35Z</time></trkpt><trkpt lat="45.99216863021212" lon="12.909606493562093"><ele>53.0</ele><time>2026-04-02T16:31:36Z</time></trkpt><trkpt lat="45.992094644073326" lon="12.909620049573421"><ele>53.00000000000001</ele><time>2026-04-02T16:31:37Z</time></trkpt><trkpt lat="45.992017907094265" lon="12.909622312014548"><ele>53.0</ele><time>2026-04-02T16:31:38Z</time></trkpt><trkpt lat="45.99193282149957" lon="12.909614051438789"><ele>53.0</ele><time>2026-04-02T16:31:39Z</time></trkpt><trkpt lat="45.99182374687828" lon="12.909599530298077"><ele>53.0</ele><time>2026-04-02T16:31:40Z</time></trkpt><trkpt lat="45.991710343565174" lon="12.909585978249844"><ele>53.0</ele><time>2026-04-02T16:31:41Z</time></trkpt><trkpt lat="45.99160303034319" lon="12.909572754358582"><ele>53.0</ele><time>2026-04-02T16:31:42Z</time></trkpt><trkpt lat="45.991500822550975" lon="12.909558124866884"><ele>53.0</ele><time>2026-04-02T16:31:43Z</time></trkpt><trkpt lat="45.99138681548159" lon="12.909546477905556"><ele>53.0</ele><time>2026-04-02T16:31:44Z</time></trkpt><trkpt lat="45.99126620123694" lon="12.909576847712223"><ele>53.0</ele><time>2026-04-02T16:31:45Z</time></trkpt><trkpt lat="45.991120284732375" lon="12.90955093343162"><ele>53.0</ele><time>2026-04-02T16:31:46Z</time></trkpt><trkpt lat="45.99097601530836" lon="12.909539450769167"><ele>53.0</ele><time>2026-04-02T16:31:47Z</time></trkpt><trkpt lat="45.99083322990748" lon="12.90952489014647"><ele>53.0</ele><time>2026-04-02T16:31:48Z</time></trkpt><trkpt lat="45.990702644774835" lon="12.909528209914017"><ele>53.0</ele><time>2026-04-02T16:31:49Z</time></trkpt><trkpt lat="45.99058229256532" lon="12.909500951606645"><ele>53.0</ele><time>2026-04-02T16:31:50Z</time></trkpt><trkpt lat="45.99047877479106" lon="12.909504418368192"><ele>53.0</ele><time>2026-04-02T16:31:51Z</time></trkpt><trkpt lat="45.99038215998145" lon="12.90951366851791"><ele>53.0</ele><time>2026-04-02T16:31:52Z</time></trkpt><trkpt lat="45.99027152498317" lon="12.909470977203329"><ele>53.0</ele><time>2026-04-02T16:31:53Z</time></trkpt><trkpt lat="45.990148193838834" lon="12.90945511227878"><ele>53.0</ele><time>2026-04-02T16:31:54Z</time></trkpt><trkpt lat="45.99002064726966" lon="12.909437049515551"><ele>53.0</ele><time>2026-04-02T16:31:55Z</time></trkpt><trkpt lat="45.98990351354193" lon="12.90937050338075"><ele>52.75</ele><time>2026-04-02T16:31:56Z</time></trkpt><trkpt lat="45.98979179239154" lon="12.909311126195147"><ele>52.5</ele><time>2026-04-02T16:31:57Z</time></trkpt><trkpt lat="45.98965450770314" lon="12.909312336335057"><ele>52.25</ele><time>2026-04-02T16:31:58Z</time></trkpt><trkpt lat="45.98954428615099" lon="12.90929040442204"><ele>52.0</ele><time>2026-04-02T16:31:59Z</time></trkpt><trkpt lat="45.98943611136018" lon="12.909264461687318"><ele>51.8</ele><time>2026-04-02T16:32:00Z</time></trkpt><trkpt lat="45.989325330715324" lon="12.909227317766808"><ele>51.6</ele><time>2026-04-02T16:32:01Z</time></trkpt><trkpt lat="45.98922972947321" lon="12.909192900217628"><ele>51.4</ele><time>2026-04-02T16:32:02Z</time></trkpt><trkpt lat="45.98912941153075" lon="12.909159549521824"><ele>51.199999999999996</ele><time>2026-04-02T16:32:03Z</time></trkpt><trkpt lat="45.989040439192955" lon="12.909126211806566"><ele>51.0</ele><time>2026-04-02T16:32:04Z</time></trkpt><trkpt lat="45.98895417695162" lon="12.90909714391345"><ele>51.0</ele><time>2026-04-02T16:32:05Z</time></trkpt><trkpt lat="45.9888509177884" lon="12.909078621349678"><ele>51.0</ele><time>2026-04-02T16:32:06Z</time></trkpt><trkpt lat="45.98877591399255" lon="12.909069235266672"><ele>51.0</ele><time>2026-04-02T16:32:07Z</time></trkpt><trkpt lat="45.988690459474526" lon="12.909050507052749"><ele>51.0</ele><time>2026-04-02T16:32:08Z</time></trkpt><trkpt lat="45.98860126996402" lon="12.909021375869065"><ele>51.0</ele><time>2026-04-02T16:32:09Z</time></trkpt><trkpt lat="45.98850174342071" lon="12.908978418595177"><ele>51.0</ele><time>2026-04-02T16:32:10Z</time></trkpt><trkpt lat="45.98839111598664" lon="12.908930162348652"><ele>51.0</ele><time>2026-04-02T16:32:11Z</time></trkpt><trkpt lat="45.98827250481387" lon="12.90888845662935"><ele>51.0</ele><time>2026-04-02T16:32:12Z</time></trkpt><trkpt lat="45.98816601047656" lon="12.90883258510537"><ele>51.0</ele><time>2026-04-02T16:32:13Z</time></trkpt><trkpt lat="45.98804652856628" lon="12.90881303669229"><ele>51.0</ele><time>2026-04-02T16:32:14Z</time></trkpt><trkpt lat="45.98789193944273" lon="12.908717896283143"><ele>51.0</ele><time>2026-04-02T16:32:15Z</time></trkpt><trkpt lat="45.98773806119019" lon="12.908622576461505"><ele>51.0</ele><time>2026-04-02T16:32:16Z</time></trkpt><trkpt lat="45.9876375467097" lon="12.908529330369378"><ele>51.0</ele><time>2026-04-02T16:32:17Z</time></trkpt><trkpt lat="45.98755999573394" lon="12.90849320878544"><ele>51.0</ele><time>2026-04-02T16:32:18Z</time></trkpt><trkpt lat="45.98741613995943" lon="12.908456560072857"><ele>51.0</ele><time>2026-04-02T16:32:20Z</time></trkpt><trkpt lat="45.987351195575194" lon="12.908438000108564"><ele>51.0</ele><time>2026-04-02T16:32:21Z</time></trkpt><trkpt lat="45.98728618952365" lon="12.908416286499998"><ele>51.0</ele><time>2026-04-02T16:32:22Z</time></trkpt><trkpt lat="45.98715091411107" lon="12.908403782814592"><ele>51.0</ele><time>2026-04-02T16:32:24Z</time></trkpt><trkpt lat="45.98708109378917" lon="12.908386592673832"><ele>51.0</ele><time>2026-04-02T16:32:25Z</time></trkpt><trkpt lat="45.98699376167952" lon="12.908388298674653"><ele>51.0</ele><time>2026-04-02T16:32:27Z</time></trkpt><trkpt lat="45.98702900342845" lon="12.908478229446832"><ele>51.0</ele><time>2026-04-02T16:35:53Z</time></trkpt><trkpt lat="45.9869501036881" lon="12.908508547738606"><ele>51.0</ele><time>2026-04-02T16:36:07Z</time></trkpt><trkpt lat="45.98692460007715" lon="12.908420582672102"><ele>51.0</ele><time>2026-04-02T16:36:12Z</time></trkpt><trkpt lat="45.98686607345315" lon="12.908376524394855"><ele>51.0</ele><time>2026-04-02T16:36:15Z</time></trkpt><trkpt lat="45.98677950269441" lon="12.908312897641162"><ele>50.8</ele><time>2026-04-02T16:36:17Z</time></trkpt><trkpt lat="45.98671642610468" lon="12.908251298414251"><ele>50.599999999999994</ele><time>2026-04-02T16:36:18Z</time></trkpt><trkpt lat="45.98662827118305" lon="12.908166612053613"><ele>50.4</ele><time>2026-04-02T16:36:19Z</time></trkpt><trkpt lat="45.9865354777708" lon="12.908091433605751"><ele>50.2</ele><time>2026-04-02T16:36:20Z</time></trkpt><trkpt lat="45.986444172578295" lon="12.908019012139203"><ele>50.0</ele><time>2026-04-02T16:36:21Z</time></trkpt><trkpt lat="45.986353424267854" lon="12.907971219575765"><ele>50.0</ele><time>2026-04-02T16:36:22Z</time></trkpt><trkpt lat="45.986248690050935" lon="12.907890600876675"><ele>50.0</ele><time>2026-04-02T16:36:23Z</time></trkpt><trkpt lat="45.9861230805387" lon="12.907834133535133"><ele>50.0</ele><time>2026-04-02T16:36:24Z</time></trkpt><trkpt lat="45.98603608671519" lon="12.9078272833997"><ele>50.0</ele><time>2026-04-02T16:36:25Z</time></trkpt><trkpt lat="45.985916117111536" lon="12.907654524876985"><ele>50.0</ele><time>2026-04-02T16:36:28Z</time></trkpt><trkpt lat="45.985806356738124" lon="12.907590413453956"><ele>50.0</ele><time>2026-04-02T16:36:29Z</time></trkpt><trkpt lat="45.98572168052657" lon="12.907551762585673"><ele>50.0</ele><time>2026-04-02T16:36:30Z</time></trkpt><trkpt lat="45.985595375075" lon="12.90752245336994"><ele>50.0</ele><time>2026-04-02T16:36:31Z</time></trkpt><trkpt lat="45.98550380467011" lon="12.907488394140614"><ele>50.0</ele><time>2026-04-02T16:36:32Z</time></trkpt><trkpt lat="45.985398976424754" lon="12.907446656803883"><ele>49.8</ele><time>2026-04-02T16:36:33Z</time></trkpt><trkpt lat="45.98530978395449" lon="12.907403595865933"><ele>49.6</ele><time>2026-04-02T16:36:34Z</time></trkpt><trkpt lat="45.98522731955468" lon="12.907372609733677"><ele>49.400000000000006</ele><time>2026-04-02T16:36:35Z</time></trkpt><trkpt lat="45.9851647962216" lon="12.907346882304632"><ele>49.2</ele><time>2026-04-02T16:36:36Z</time></trkpt><trkpt lat="45.98504438460459" lon="12.907284151800583"><ele>49.0</ele><time>2026-04-02T16:36:38Z</time></trkpt><trkpt lat="45.98490547016508" lon="12.90720918008663"><ele>49.0</ele><time>2026-04-02T16:36:40Z</time></trkpt><trkpt lat="45.98480756938267" lon="12.907187324601786"><ele>49.0</ele><time>2026-04-02T16:36:41Z</time></trkpt><trkpt lat="45.98469449517385" lon="12.907169574253865"><ele>49.0</ele><time>2026-04-02T16:36:42Z</time></trkpt><trkpt lat="45.98459640283133" lon="12.907158008854942"><ele>49.0</ele><time>2026-04-02T16:36:43Z</time></trkpt><trkpt lat="45.98451236015273" lon="12.907147719312677"><ele>49.0</ele><time>2026-04-02T16:36:44Z</time></trkpt><trkpt lat="45.98442107306854" lon="12.907135596306011"><ele>49.0</ele><time>2026-04-02T16:36:45Z</time></trkpt><trkpt lat="45.984314185598514" lon="12.907134291337174"><ele>49.0</ele><time>2026-04-02T16:36:46Z</time></trkpt><trkpt lat="45.98419897289807" lon="12.907122672078087"><ele>49.0</ele><time>2026-04-02T16:36:47Z</time></trkpt><trkpt lat="45.98408407657656" lon="12.90708412432021"><ele>49.0</ele><time>2026-04-02T16:36:48Z</time></trkpt><trkpt lat="45.983988167704965" lon="12.907050376795524"><ele>49.0</ele><time>2026-04-02T16:36:49Z</time></trkpt><trkpt lat="45.98389159167453" lon="12.907034392166505"><ele>49.0</ele><time>2026-04-02T16:36:50Z</time></trkpt><trkpt lat="45.98372824565378" lon="12.90700059366639"><ele>49.0</ele><time>2026-04-02T16:36:51Z</time></trkpt><trkpt lat="45.983590509553196" lon="12.907042502131963"><ele>49.0</ele><time>2026-04-02T16:36:52Z</time></trkpt><trkpt lat="45.98346068524004" lon="12.906974065558805"><ele>49.0</ele><time>2026-04-02T16:36:53Z</time></trkpt><trkpt lat="45.98336376227775" lon="12.907010167199019"><ele>49.0</ele><time>2026-04-02T16:36:54Z</time></trkpt><trkpt lat="45.98324306221894" lon="12.907017300282716"><ele>49.0</ele><time>2026-04-02T16:36:55Z</time></trkpt><trkpt lat="45.98312838325344" lon="12.907030033382679"><ele>49.0</ele><time>2026-04-02T16:36:56Z</time></trkpt><trkpt lat="45.98302297792142" lon="12.907056559032046"><ele>49.0</ele><time>2026-04-02T16:36:57Z</time></trkpt><trkpt lat="45.982920453367264" lon="12.907071836422466"><ele>49.0</ele><time>2026-04-02T16:36:58Z</time></trkpt><trkpt lat="45.982819414240545" lon="12.90708418438336"><ele>49.0</ele><time>2026-04-02T16:36:59Z</time></trkpt><trkpt lat="45.98273623108929" lon="12.907094213839828"><ele>49.0</ele><time>2026-04-02T16:37:00Z</time></trkpt><trkpt lat="45.982648831730515" lon="12.90706343120642"><ele>49.0</ele><time>2026-04-02T16:37:01Z</time></trkpt><trkpt lat="45.982560458497936" lon="12.907028522313848"><ele>49.0</ele><time>2026-04-02T16:37:02Z</time></trkpt><trkpt lat="45.98245608076908" lon="12.907019492057506"><ele>49.0</ele><time>2026-04-02T16:37:03Z</time></trkpt><trkpt lat="45.98236225715184" lon="12.907007960711143"><ele>49.0</ele><time>2026-04-02T16:37:04Z</time></trkpt><trkpt lat="45.98226064451553" lon="12.906947757083405"><ele>49.0</ele><time>2026-04-02T16:37:05Z</time></trkpt><trkpt lat="45.98216223327719" lon="12.906901246011332"><ele>49.0</ele><time>2026-04-02T16:37:06Z</time></trkpt><trkpt lat="45.98206071323061" lon="12.906831809924135"><ele>49.0</ele><time>2026-04-02T16:37:07Z</time></trkpt><trkpt lat="45.98195788539649" lon="12.906739101714136"><ele>49.0</ele><time>2026-04-02T16:37:08Z</time></trkpt><trkpt lat="45.98187403234921" lon="12.906765258960375"><ele>49.0</ele><time>2026-04-02T16:37:09Z</time></trkpt><trkpt lat="45.98179608945162" lon="12.90679112109775"><ele>49.0</ele><time>2026-04-02T16:37:10Z</time></trkpt><trkpt lat="45.981712519079544" lon="12.906819388606143"><ele>49.0</ele><time>2026-04-02T16:37:11Z</time></trkpt><trkpt lat="45.9816272096501" lon="12.906845171972003"><ele>49.0</ele><time>2026-04-02T16:37:12Z</time></trkpt><trkpt lat="45.98152388512317" lon="12.906883817012526"><ele>49.0</ele><time>2026-04-02T16:37:13Z</time></trkpt><trkpt lat="45.98142134297867" lon="12.90690941650463"><ele>48.5</ele><time>2026-04-02T16:37:14Z</time></trkpt><trkpt lat="45.981319431058616" lon="12.90692069030784"><ele>48.0</ele><time>2026-04-02T16:37:15Z</time></trkpt><trkpt lat="45.981209680496036" lon="12.906916016806182"><ele>47.5</ele><time>2026-04-02T16:37:16Z</time></trkpt><trkpt lat="45.98109324371264" lon="12.90689203723779"><ele>47.0</ele><time>2026-04-02T16:37:17Z</time></trkpt><trkpt lat="45.98096793221728" lon="12.906882076088268"><ele>47.0</ele><time>2026-04-02T16:37:18Z</time></trkpt><trkpt lat="45.98084971191227" lon="12.906877037792109"><ele>47.0</ele><time>2026-04-02T16:37:19Z</time></trkpt><trkpt lat="45.98072935616307" lon="12.906878601976043"><ele>47.0</ele><time>2026-04-02T16:37:20Z</time></trkpt><trkpt lat="45.9806192413562" lon="12.906860975891384"><ele>47.0</ele><time>2026-04-02T16:37:21Z</time></trkpt><trkpt lat="45.98051834854476" lon="12.906887705272997"><ele>47.0</ele><time>2026-04-02T16:37:22Z</time></trkpt><trkpt lat="45.98041150651745" lon="12.906904436349585"><ele>47.0</ele><time>2026-04-02T16:37:23Z</time></trkpt><trkpt lat="45.980289880709506" lon="12.906912270994"><ele>47.0</ele><time>2026-04-02T16:37:24Z</time></trkpt><trkpt lat="45.980216641257705" lon="12.906895512087594"><ele>47.0</ele><time>2026-04-02T16:37:25Z</time></trkpt><trkpt lat="45.98013605724193" lon="12.90686617615799"><ele>47.0</ele><time>2026-04-02T16:37:26Z</time></trkpt><trkpt lat="45.97999964944534" lon="12.906892530266576"><ele>47.0</ele><time>2026-04-02T16:37:27Z</time></trkpt><trkpt lat="45.97986057393318" lon="12.906904065045616"><ele>47.0</ele><time>2026-04-02T16:37:28Z</time></trkpt><trkpt lat="45.97974669246211" lon="12.90694196448819"><ele>47.0</ele><time>2026-04-02T16:37:29Z</time></trkpt><trkpt lat="45.97963517493895" lon="12.90694566538727"><ele>47.0</ele><time>2026-04-02T16:37:30Z</time></trkpt><trkpt lat="45.97953276388309" lon="12.906924129523075"><ele>47.0</ele><time>2026-04-02T16:37:31Z</time></trkpt><trkpt lat="45.97943359708979" lon="12.906890467366516"><ele>47.0</ele><time>2026-04-02T16:37:32Z</time></trkpt><trkpt lat="45.979319786702575" lon="12.906894360364557"><ele>47.0</ele><time>2026-04-02T16:37:33Z</time></trkpt><trkpt lat="45.979203582324885" lon="12.906916543898381"><ele>47.0</ele><time>2026-04-02T16:37:34Z</time></trkpt><trkpt lat="45.97910350510852" lon="12.906921599325631"><ele>47.0</ele><time>2026-04-02T16:37:35Z</time></trkpt><trkpt lat="45.979014914148074" lon="12.906922308177835"><ele>47.0</ele><time>2026-04-02T16:37:36Z</time></trkpt><trkpt lat="45.97893256334894" lon="12.906927107999808"><ele>47.0</ele><time>2026-04-02T16:37:37Z</time></trkpt><trkpt lat="45.97884937182315" lon="12.90694152475009"><ele>47.0</ele><time>2026-04-02T16:37:38Z</time></trkpt><trkpt lat="45.978760451570544" lon="12.906947324595313"><ele>47.0</ele><time>2026-04-02T16:37:39Z</time></trkpt><trkpt lat="45.97864568472474" lon="12.906922043074529"><ele>47.0</ele><time>2026-04-02T16:37:40Z</time></trkpt><trkpt lat="45.978530141629406" lon="12.906904792416292"><ele>47.0</ele><time>2026-04-02T16:37:41Z</time></trkpt><trkpt lat="45.978414737762826" lon="12.90684114162546"><ele>47.0</ele><time>2026-04-02T16:37:42Z</time></trkpt><trkpt lat="45.97832931571496" lon="12.906777670210595"><ele>47.0</ele><time>2026-04-02T16:37:43Z</time></trkpt><trkpt lat="45.97826197442004" lon="12.906733814111522"><ele>47.0</ele><time>2026-04-02T16:37:44Z</time></trkpt><trkpt lat="45.978117120821835" lon="12.906792457317017"><ele>47.0</ele><time>2026-04-02T16:37:45Z</time></trkpt><trkpt lat="45.977991286972504" lon="12.906806980071607"><ele>46.5</ele><time>2026-04-02T16:37:46Z</time></trkpt><trkpt lat="45.97784480366538" lon="12.906827247220797"><ele>46.0</ele><time>2026-04-02T16:37:47Z</time></trkpt><trkpt lat="45.97774641571973" lon="12.906819534805404"><ele>45.5</ele><time>2026-04-02T16:37:48Z</time></trkpt><trkpt lat="45.977643370063205" lon="12.906846303715373"><ele>45.0</ele><time>2026-04-02T16:37:49Z</time></trkpt><trkpt lat="45.97754480526072" lon="12.906876519013585"><ele>45.0</ele><time>2026-04-02T16:37:50Z</time></trkpt><trkpt lat="45.97743521316228" lon="12.906917993604157"><ele>45.0</ele><time>2026-04-02T16:37:51Z</time></trkpt><trkpt lat="45.97732972893709" lon="12.90694682075006"><ele>45.0</ele><time>2026-04-02T16:37:52Z</time></trkpt><trkpt lat="45.97722913799494" lon="12.906969090950307"><ele>45.0</ele><time>2026-04-02T16:37:53.001Z</time></trkpt><trkpt lat="45.977128236853936" lon="12.90698533876173"><ele>45.0</ele><time>2026-04-02T16:37:54.001Z</time></trkpt><trkpt lat="45.977019899104576" lon="12.907005179822328"><ele>45.0</ele><time>2026-04-02T16:37:55.001Z</time></trkpt><trkpt lat="45.97690195492524" lon="12.907025878213135"><ele>45.0</ele><time>2026-04-02T16:37:56.001Z</time></trkpt><trkpt lat="45.97677833897482" lon="12.907056048851478"><ele>45.0</ele><time>2026-04-02T16:37:57.001Z</time></trkpt><trkpt lat="45.97667148839841" lon="12.907088903565402"><ele>45.0</ele><time>2026-04-02T16:37:58.001Z</time></trkpt><trkpt lat="45.97656201655156" lon="12.907119840268443"><ele>45.2</ele><time>2026-04-02T16:37:59.001Z</time></trkpt><trkpt lat="45.976454607192714" lon="12.907146722246692"><ele>45.4</ele><time>2026-04-02T16:38:00.001Z</time></trkpt><trkpt lat="45.97634821710433" lon="12.907180366243628"><ele>45.599999999999994</ele><time>2026-04-02T16:38:01.001Z</time></trkpt><trkpt lat="45.976244923091905" lon="12.90721756453958"><ele>45.8</ele><time>2026-04-02T16:38:02.001Z</time></trkpt><trkpt lat="45.97614249753215" lon="12.907254096527296"><ele>46.0</ele><time>2026-04-02T16:38:03.001Z</time></trkpt><trkpt lat="45.97603983666051" lon="12.90726453780071"><ele>46.0</ele><time>2026-04-02T16:38:04.001Z</time></trkpt><trkpt lat="45.97593624927313" lon="12.907257012234583"><ele>46.0</ele><time>2026-04-02T16:38:05.001Z</time></trkpt><trkpt lat="45.97584299143277" lon="12.907242456674718"><ele>46.0</ele><time>2026-04-02T16:38:06.001Z</time></trkpt><trkpt lat="45.9757643647486" lon="12.907219999697421"><ele>46.0</ele><time>2026-04-02T16:38:07.001Z</time></trkpt><trkpt lat="45.97569407555621" lon="12.907188105523128"><ele>46.0</ele><time>2026-04-02T16:38:08.001Z</time></trkpt><trkpt lat="45.97562324034897" lon="12.907155955744017"><ele>46.0</ele><time>2026-04-02T16:38:09.001Z</time></trkpt><trkpt lat="45.97554017339343" lon="12.907131244895607"><ele>45.599999999999994</ele><time>2026-04-02T16:38:10.001Z</time></trkpt><trkpt lat="45.97546223360979" lon="12.907116701487048"><ele>45.2</ele><time>2026-04-02T16:38:11.001Z</time></trkpt><trkpt lat="45.975367512943926" lon="12.907090374153624"><ele>44.8</ele><time>2026-04-02T16:38:12.001Z</time></trkpt><trkpt lat="45.97526333555423" lon="12.907076151829457"><ele>44.400000000000006</ele><time>2026-04-02T16:38:13.001Z</time></trkpt><trkpt lat="45.975156447460215" lon="12.907078339147892"><ele>44.0</ele><time>2026-04-02T16:38:14.001Z</time></trkpt><trkpt lat="45.97506000139092" lon="12.907087876742482"><ele>44.2</ele><time>2026-04-02T16:38:15.001Z</time></trkpt><trkpt lat="45.97497154429335" lon="12.907087897837794"><ele>44.400000000000006</ele><time>2026-04-02T16:38:16.001Z</time></trkpt><trkpt lat="45.97487489023219" lon="12.907063348704188"><ele>44.6</ele><time>2026-04-02T16:38:17.001Z</time></trkpt><trkpt lat="45.97478088653959" lon="12.907024268022512"><ele>44.8</ele><time>2026-04-02T16:38:18Z</time></trkpt><trkpt lat="45.974680667715646" lon="12.90699811336791"><ele>45.0</ele><time>2026-04-02T16:38:19Z</time></trkpt><trkpt lat="45.97458194541496" lon="12.906993153492884"><ele>45.0</ele><time>2026-04-02T16:38:20Z</time></trkpt><trkpt lat="45.97446045934756" lon="12.906994925123907"><ele>45.0</ele><time>2026-04-02T16:38:21Z</time></trkpt><trkpt lat="45.97434282525826" lon="12.906999007490539"><ele>45.0</ele><time>2026-04-02T16:38:22Z</time></trkpt><trkpt lat="45.97419614168287" lon="12.907006087974407"><ele>45.0</ele><time>2026-04-02T16:38:23Z</time></trkpt><trkpt lat="45.97406103071604" lon="12.90698991980919"><ele>45.2</ele><time>2026-04-02T16:38:24Z</time></trkpt><trkpt lat="45.97395891518848" lon="12.90695059441204"><ele>45.4</ele><time>2026-04-02T16:38:25Z</time></trkpt><trkpt lat="45.97389524683618" lon="12.90688047686742"><ele>45.599999999999994</ele><time>2026-04-02T16:38:26Z</time></trkpt><trkpt lat="45.97384999340936" lon="12.906795709291307"><ele>45.8</ele><time>2026-04-02T16:38:27Z</time></trkpt><trkpt lat="45.97376871195106" lon="12.906711652315794"><ele>46.0</ele><time>2026-04-02T16:38:28Z</time></trkpt><trkpt lat="45.97363654250033" lon="12.906702918864644"><ele>46.0</ele><time>2026-04-02T16:38:29Z</time></trkpt><trkpt lat="45.97351469577275" lon="12.906620134119112"><ele>46.0</ele><time>2026-04-02T16:38:30Z</time></trkpt><trkpt lat="45.97339990253502" lon="12.906575844800614"><ele>46.0</ele><time>2026-04-02T16:38:31Z</time></trkpt><trkpt lat="45.97328250127984" lon="12.906542945844302"><ele>46.0</ele><time>2026-04-02T16:38:32Z</time></trkpt><trkpt lat="45.97321707679742" lon="12.906530201410037"><ele>46.0</ele><time>2026-04-02T16:38:33Z</time></trkpt><trkpt lat="45.973139685022254" lon="12.906526681717208"><ele>46.199999999999996</ele><time>2026-04-02T16:38:34Z</time></trkpt><trkpt lat="45.97307183463801" lon="12.906534661683276"><ele>46.4</ele><time>2026-04-02T16:38:35Z</time></trkpt><trkpt lat="45.972976490310366" lon="12.906536815791275"><ele>46.6</ele><time>2026-04-02T16:38:37Z</time></trkpt><trkpt lat="45.97288675486935" lon="12.906523552023701"><ele>46.8</ele><time>2026-04-02T16:38:38Z</time></trkpt><trkpt lat="45.972773190950775" lon="12.906493462042238"><ele>47.0</ele><time>2026-04-02T16:38:39Z</time></trkpt><trkpt lat="45.972651793287135" lon="12.906450556996456"><ele>47.0</ele><time>2026-04-02T16:38:40Z</time></trkpt><trkpt lat="45.97254012968841" lon="12.906402316117024"><ele>47.0</ele><time>2026-04-02T16:38:41Z</time></trkpt><trkpt lat="45.972444691058556" lon="12.906378744745904"><ele>47.0</ele><time>2026-04-02T16:38:42Z</time></trkpt><trkpt lat="45.97233215412694" lon="12.90631347938136"><ele>47.0</ele><time>2026-04-02T16:38:43Z</time></trkpt><trkpt lat="45.97221448864346" lon="12.906290894996362"><ele>46.6</ele><time>2026-04-02T16:38:44Z</time></trkpt><trkpt lat="45.97211724243762" lon="12.906262503553656"><ele>46.2</ele><time>2026-04-02T16:38:45Z</time></trkpt><trkpt lat="45.972025050292714" lon="12.906242796142427"><ele>45.8</ele><time>2026-04-02T16:38:46Z</time></trkpt><trkpt lat="45.971926329274304" lon="12.906202217299507"><ele>45.4</ele><time>2026-04-02T16:38:47Z</time></trkpt><trkpt lat="45.97181809354657" lon="12.906150633134581"><ele>45.0</ele><time>2026-04-02T16:38:48Z</time></trkpt><trkpt lat="45.97172208535094" lon="12.906114952748093"><ele>45.0</ele><time>2026-04-02T16:38:49Z</time></trkpt><trkpt lat="45.9716254458605" lon="12.906052416687926"><ele>45.0</ele><time>2026-04-02T16:38:50Z</time></trkpt><trkpt lat="45.971559859539184" lon="12.906022066343466"><ele>45.0</ele><time>2026-04-02T16:38:51Z</time></trkpt><trkpt lat="45.97145390807473" lon="12.905988272132703"><ele>45.0</ele><time>2026-04-02T16:38:53Z</time></trkpt><trkpt lat="45.97136869288114" lon="12.905948385867458"><ele>45.0</ele><time>2026-04-02T16:38:54Z</time></trkpt><trkpt lat="45.97131451461288" lon="12.905877958726268"><ele>45.0</ele><time>2026-04-02T16:38:55Z</time></trkpt><trkpt lat="45.97122070401558" lon="12.905835440420013"><ele>45.25</ele><time>2026-04-02T16:38:56Z</time></trkpt><trkpt lat="45.97109451865362" lon="12.90580698018055"><ele>45.5</ele><time>2026-04-02T16:38:57Z</time></trkpt><trkpt lat="45.970962609885035" lon="12.905794409205942"><ele>45.75</ele><time>2026-04-02T16:38:58Z</time></trkpt><trkpt lat="45.97083756227293" lon="12.905805235758526"><ele>46.0</ele><time>2026-04-02T16:38:59Z</time></trkpt><trkpt lat="45.970716926252905" lon="12.905818716324651"><ele>46.0</ele><time>2026-04-02T16:39:00Z</time></trkpt><trkpt lat="45.97060582331998" lon="12.9058160113816"><ele>46.0</ele><time>2026-04-02T16:39:01Z</time></trkpt><trkpt lat="45.97048951950363" lon="12.905815289336886"><ele>46.0</ele><time>2026-04-02T16:39:02Z</time></trkpt><trkpt lat="45.97038075317898" lon="12.905821633439185"><ele>46.0</ele><time>2026-04-02T16:39:03Z</time></trkpt><trkpt lat="45.97027708232841" lon="12.905809265076488"><ele>46.0</ele><time>2026-04-02T16:39:04Z</time></trkpt><trkpt lat="45.97017806173365" lon="12.905794124554909"><ele>46.0</ele><time>2026-04-02T16:39:05Z</time></trkpt><trkpt lat="45.97008410175971" lon="12.905785799464475"><ele>46.0</ele><time>2026-04-02T16:39:06.001Z</time></trkpt><trkpt lat="45.969997549607896" lon="12.905778168259314"><ele>46.0</ele><time>2026-04-02T16:39:07.001Z</time></trkpt><trkpt lat="45.96991585769345" lon="12.905764888514925"><ele>46.0</ele><time>2026-04-02T16:39:08.001Z</time></trkpt><trkpt lat="45.96982699228615" lon="12.905736611448146"><ele>46.0</ele><time>2026-04-02T16:39:09.001Z</time></trkpt><trkpt lat="45.96972856819466" lon="12.90568816807565"><ele>46.0</ele><time>2026-04-02T16:39:10.001Z</time></trkpt><trkpt lat="45.969625287767826" lon="12.905656352390316"><ele>46.0</ele><time>2026-04-02T16:39:11.001Z</time></trkpt><trkpt lat="45.96950894043582" lon="12.905660213244008"><ele>46.0</ele><time>2026-04-02T16:39:12.001Z</time></trkpt><trkpt lat="45.96939597751881" lon="12.905672100720892"><ele>46.0</ele><time>2026-04-02T16:39:13.001Z</time></trkpt><trkpt lat="45.96929503803464" lon="12.905668068073"><ele>46.0</ele><time>2026-04-02T16:39:14.001Z</time></trkpt><trkpt lat="45.96920118893248" lon="12.905656788916309"><ele>45.8</ele><time>2026-04-02T16:39:15.001Z</time></trkpt><trkpt lat="45.9691008466774" lon="12.90565529574704"><ele>45.599999999999994</ele><time>2026-04-02T16:39:16.001Z</time></trkpt><trkpt lat="45.96899025843081" lon="12.9056534026706"><ele>45.4</ele><time>2026-04-02T16:39:17.001Z</time></trkpt><trkpt lat="45.96887856832621" lon="12.905636790638313"><ele>45.2</ele><time>2026-04-02T16:39:18.001Z</time></trkpt><trkpt lat="45.968770149289696" lon="12.905623497232533"><ele>45.0</ele><time>2026-04-02T16:39:19.001Z</time></trkpt><trkpt lat="45.968673813091236" lon="12.905620292324263"><ele>45.0</ele><time>2026-04-02T16:39:20.001Z</time></trkpt><trkpt lat="45.968576322757" lon="12.90562908341094"><ele>45.0</ele><time>2026-04-02T16:39:21.001Z</time></trkpt><trkpt lat="45.9684687897602" lon="12.905647082543805"><ele>45.0</ele><time>2026-04-02T16:39:22.001Z</time></trkpt><trkpt lat="45.96836845425533" lon="12.905655510926517"><ele>45.0</ele><time>2026-04-02T16:39:23.001Z</time></trkpt><trkpt lat="45.968270094636416" lon="12.905657138796585"><ele>45.0</ele><time>2026-04-02T16:39:24.001Z</time></trkpt><trkpt lat="45.96816562876029" lon="12.905663250420496"><ele>45.4</ele><time>2026-04-02T16:39:25.001Z</time></trkpt><trkpt lat="45.96805894226021" lon="12.905674633994973"><ele>45.8</ele><time>2026-04-02T16:39:26.001Z</time></trkpt><trkpt lat="45.967964549089174" lon="12.905684028604307"><ele>46.2</ele><time>2026-04-02T16:39:27.001Z</time></trkpt><trkpt lat="45.96787699095226" lon="12.905689748235957"><ele>46.6</ele><time>2026-04-02T16:39:28.001Z</time></trkpt><trkpt lat="45.9677804081156" lon="12.905676219124654"><ele>47.0</ele><time>2026-04-02T16:39:29.001Z</time></trkpt><trkpt lat="45.96768084382302" lon="12.905628619585533"><ele>47.0</ele><time>2026-04-02T16:39:30.001Z</time></trkpt><trkpt lat="45.96759313726865" lon="12.905574005535806"><ele>47.0</ele><time>2026-04-02T16:39:31.001Z</time></trkpt><trkpt lat="45.967523062310214" lon="12.905518744220256"><ele>47.0</ele><time>2026-04-02T16:39:32.001Z</time></trkpt><trkpt lat="45.967410993133804" lon="12.9054589901614"><ele>47.0</ele><time>2026-04-02T16:39:34.001Z</time></trkpt><trkpt lat="45.96733305273696" lon="12.905395778978724"><ele>47.0</ele><time>2026-04-02T16:39:35.001Z</time></trkpt><trkpt lat="45.96725298649887" lon="12.905356772063852"><ele>46.8</ele><time>2026-04-02T16:39:36.001Z</time></trkpt><trkpt lat="45.96718170793443" lon="12.905334302241863"><ele>46.6</ele><time>2026-04-02T16:39:37.001Z</time></trkpt><trkpt lat="45.96711781199311" lon="12.905286571128826"><ele>46.4</ele><time>2026-04-02T16:39:38.001Z</time></trkpt><trkpt lat="45.967047224675355" lon="12.905209902528668"><ele>46.199999999999996</ele><time>2026-04-02T16:39:39.001Z</time></trkpt><trkpt lat="45.96696171868893" lon="12.905105762879987"><ele>46.0</ele><time>2026-04-02T16:39:40.001Z</time></trkpt><trkpt lat="45.966868323320455" lon="12.905015849360044"><ele>45.599999999999994</ele><time>2026-04-02T16:39:41.001Z</time></trkpt><trkpt lat="45.96676149929508" lon="12.904947399883223"><ele>45.2</ele><time>2026-04-02T16:39:42.001Z</time></trkpt><trkpt lat="45.966657104966515" lon="12.904911582149078"><ele>44.8</ele><time>2026-04-02T16:39:43.001Z</time></trkpt><trkpt lat="45.96655321678344" lon="12.904887060201675"><ele>44.400000000000006</ele><time>2026-04-02T16:39:44.001Z</time></trkpt><trkpt lat="45.96645408915" lon="12.904860127577148"><ele>44.0</ele><time>2026-04-02T16:39:45.001Z</time></trkpt><trkpt lat="45.966362638203826" lon="12.904842172534584"><ele>44.0</ele><time>2026-04-02T16:39:46.001Z</time></trkpt><trkpt lat="45.966275181777306" lon="12.904844838617436"><ele>44.0</ele><time>2026-04-02T16:39:47.001Z</time></trkpt><trkpt lat="45.96618658929055" lon="12.90486300780928"><ele>44.0</ele><time>2026-04-02T16:39:48.001Z</time></trkpt><trkpt lat="45.966094263917974" lon="12.904878536756803"><ele>44.0</ele><time>2026-04-02T16:39:49.001Z</time></trkpt><trkpt lat="45.96600201737159" lon="12.904876762429835"><ele>44.0</ele><time>2026-04-02T16:39:50.001Z</time></trkpt><trkpt lat="45.965910619935485" lon="12.904877188593021"><ele>44.166666666666664</ele><time>2026-04-02T16:39:51.001Z</time></trkpt><trkpt lat="45.96582734976893" lon="12.904887311110352"><ele>44.33333333333333</ele><time>2026-04-02T16:39:52.001Z</time></trkpt><trkpt lat="45.965752944861585" lon="12.904901210056607"><ele>44.5</ele><time>2026-04-02T16:39:53.001Z</time></trkpt><trkpt lat="45.965688434675556" lon="12.904911985641068"><ele>44.666666666666664</ele><time>2026-04-02T16:39:54.001Z</time></trkpt><trkpt lat="45.96562609559168" lon="12.904979979957275"><ele>44.833333333333336</ele><time>2026-04-02T16:39:56.001Z</time></trkpt><trkpt lat="45.96560811428748" lon="12.905073210589165"><ele>45.0</ele><time>2026-04-02T16:39:58.001Z</time></trkpt><trkpt lat="45.965686017821916" lon="12.90519318967818"><ele>45.0</ele><time>2026-04-02T16:40:01.001Z</time></trkpt><trkpt lat="45.9657398188721" lon="12.905242087936132"><ele>45.0</ele><time>2026-04-02T16:40:02.001Z</time></trkpt><trkpt lat="45.965805525231985" lon="12.90530197812005"><ele>45.0</ele><time>2026-04-02T16:40:04.001Z</time></trkpt><trkpt lat="45.965829765657894" lon="12.905387946754903"><ele>45.0</ele><time>2026-04-02T16:40:07.001Z</time></trkpt><trkpt lat="45.965890454262926" lon="12.905459739487549"><ele>45.0</ele><time>2026-04-02T16:40:09.001Z</time></trkpt><trkpt lat="45.96594928740756" lon="12.905508630139952"><ele>45.0</ele><time>2026-04-02T16:40:10.001Z</time></trkpt><trkpt lat="45.966001726072925" lon="12.905559703673635"><ele>45.0</ele><time>2026-04-02T16:40:11.001Z</time></trkpt><trkpt lat="45.96606453189874" lon="12.905619228352395"><ele>45.0</ele><time>2026-04-02T16:40:13.001Z</time></trkpt><trkpt lat="45.966095885007874" lon="12.905700527415904"><ele>45.0</ele><time>2026-04-02T16:40:16.001Z</time></trkpt><trkpt lat="45.96609844426645" lon="12.905796288560621"><ele>45.0</ele><time>2026-04-02T16:40:18.001Z</time></trkpt><trkpt lat="45.966114505718245" lon="12.905910124752275"><ele>45.0</ele><time>2026-04-02T16:40:20.001Z</time></trkpt><trkpt lat="45.96614008245187" lon="12.905998874678437"><ele>45.0</ele><time>2026-04-02T16:40:22.001Z</time></trkpt><trkpt lat="45.96607949937995" lon="12.906113647576735"><ele>45.0</ele><time>2026-04-02T16:40:25.001Z</time></trkpt><trkpt lat="45.965991465358194" lon="12.90619430434451"><ele>45.0</ele><time>2026-04-02T16:40:27.001Z</time></trkpt><trkpt lat="45.9659133002649" lon="12.906164565462097"><ele>45.0</ele><time>2026-04-02T16:40:29.001Z</time></trkpt><trkpt lat="45.96584278487942" lon="12.906152427168173"><ele>45.0</ele><time>2026-04-02T16:40:31Z</time></trkpt><trkpt lat="45.96575996929379" lon="12.906149478772818"><ele>45.0</ele><time>2026-04-02T16:40:34Z</time></trkpt><trkpt lat="45.965670095209624" lon="12.906141209316512"><ele>45.0</ele><time>2026-04-02T16:40:38Z</time></trkpt><trkpt lat="45.96561092189363" lon="12.906100072440266"><ele>45.0</ele><time>2026-04-02T16:40:41Z</time></trkpt><trkpt lat="45.96560506964992" lon="12.905971600559399"><ele>45.0</ele><time>2026-04-02T16:40:44Z</time></trkpt><trkpt lat="45.96560395804129" lon="12.905819084944046"><ele>45.0</ele><time>2026-04-02T16:40:45Z</time></trkpt><trkpt lat="45.96561614412407" lon="12.905671296611787"><ele>45.0</ele><time>2026-04-02T16:40:47Z</time></trkpt><trkpt lat="45.965547520045924" lon="12.9055715348949"><ele>45.0</ele><time>2026-04-02T16:40:49Z</time></trkpt><trkpt lat="45.965463149790146" lon="12.905481270579454"><ele>45.0</ele><time>2026-04-02T16:40:51Z</time></trkpt><trkpt lat="45.96540745520768" lon="12.90541163812928"><ele>45.0</ele><time>2026-04-02T16:40:53Z</time></trkpt><trkpt lat="45.96530489760362" lon="12.905390703371566"><ele>45.0</ele><time>2026-04-02T16:40:55Z</time></trkpt><trkpt lat="45.965233310804344" lon="12.905391903360435"><ele>45.0</ele><time>2026-04-02T16:40:56Z</time></trkpt><trkpt lat="45.96516325479631" lon="12.905405889141338"><ele>45.0</ele><time>2026-04-02T16:40:57Z</time></trkpt><trkpt lat="45.96508216536909" lon="12.905442046976694"><ele>45.0</ele><time>2026-04-02T16:40:59Z</time></trkpt><trkpt lat="45.96499130397926" lon="12.905350348319997"><ele>45.0</ele><time>2026-04-02T16:41:01Z</time></trkpt><trkpt lat="45.96492693833675" lon="12.905274666781693"><ele>45.2</ele><time>2026-04-02T16:41:02Z</time></trkpt><trkpt lat="45.964855770534086" lon="12.905223991970194"><ele>45.4</ele><time>2026-04-02T16:41:03Z</time></trkpt><trkpt lat="45.96478834243522" lon="12.905160252889347"><ele>45.599999999999994</ele><time>2026-04-02T16:41:04Z</time></trkpt><trkpt lat="45.964671407903595" lon="12.905130202871193"><ele>45.8</ele><time>2026-04-02T16:41:05Z</time></trkpt><trkpt lat="45.9645559914847" lon="12.905040956691423"><ele>46.0</ele><time>2026-04-02T16:41:06Z</time></trkpt><trkpt lat="45.96448560244341" lon="12.905023316482431"><ele>46.0</ele><time>2026-04-02T16:41:07Z</time></trkpt><trkpt lat="45.96440766878986" lon="12.90503428144601"><ele>46.0</ele><time>2026-04-02T16:41:08Z</time></trkpt><trkpt lat="45.964322192383435" lon="12.905066853485941"><ele>46.0</ele><time>2026-04-02T16:41:09Z</time></trkpt><trkpt lat="45.96421676636286" lon="12.905084475737192"><ele>46.0</ele><time>2026-04-02T16:41:10Z</time></trkpt><trkpt lat="45.96410618419796" lon="12.905099755612612"><ele>46.0</ele><time>2026-04-02T16:41:11Z</time></trkpt><trkpt lat="45.96398388085187" lon="12.90512280000653"><ele>45.8</ele><time>2026-04-02T16:41:12Z</time></trkpt><trkpt lat="45.96388012112293" lon="12.905155574890733"><ele>45.599999999999994</ele><time>2026-04-02T16:41:13Z</time></trkpt><trkpt lat="45.96379462665083" lon="12.90519835263039"><ele>45.4</ele><time>2026-04-02T16:41:14Z</time></trkpt><trkpt lat="45.963709699231075" lon="12.905239960359607"><ele>45.2</ele><time>2026-04-02T16:41:15Z</time></trkpt><trkpt lat="45.96361485980504" lon="12.90526733129203"><ele>45.0</ele><time>2026-04-02T16:41:16Z</time></trkpt><trkpt lat="45.9635071892219" lon="12.905277908243393"><ele>45.0</ele><time>2026-04-02T16:41:17Z</time></trkpt><trkpt lat="45.96338043195902" lon="12.905294886955947"><ele>45.0</ele><time>2026-04-02T16:41:18Z</time></trkpt><trkpt lat="45.96325128527971" lon="12.90532605464854"><ele>45.0</ele><time>2026-04-02T16:41:19Z</time></trkpt><trkpt lat="45.9631334893458" lon="12.905356229105678"><ele>45.0</ele><time>2026-04-02T16:41:20Z</time></trkpt><trkpt lat="45.963033859976655" lon="12.905379669350808"><ele>45.0</ele><time>2026-04-02T16:41:21Z</time></trkpt><trkpt lat="45.96293587266244" lon="12.905403823462837"><ele>45.0</ele><time>2026-04-02T16:41:22Z</time></trkpt><trkpt lat="45.96282608133061" lon="12.905412006664116"><ele>45.0</ele><time>2026-04-02T16:41:23Z</time></trkpt><trkpt lat="45.96271740774497" lon="12.905414386398904"><ele>45.0</ele><time>2026-04-02T16:41:24Z</time></trkpt><trkpt lat="45.96260255969363" lon="12.905416801856509"><ele>45.0</ele><time>2026-04-02T16:41:25Z</time></trkpt><trkpt lat="45.96249907399131" lon="12.905413693705807"><ele>44.833333333333336</ele><time>2026-04-02T16:41:26Z</time></trkpt><trkpt lat="45.962408375425824" lon="12.905417282178126"><ele>44.666666666666664</ele><time>2026-04-02T16:41:27Z</time></trkpt><trkpt lat="45.962323855136255" lon="12.905414646153732"><ele>44.5</ele><time>2026-04-02T16:41:28Z</time></trkpt><trkpt lat="45.96224325290566" lon="12.905408806100581"><ele>44.33333333333333</ele><time>2026-04-02T16:41:29Z</time></trkpt><trkpt lat="45.96215484062245" lon="12.905415599092944"><ele>44.166666666666664</ele><time>2026-04-02T16:41:30Z</time></trkpt><trkpt lat="45.96206667446867" lon="12.90543602222398"><ele>44.0</ele><time>2026-04-02T16:41:31Z</time></trkpt><trkpt lat="45.961990641571845" lon="12.905461097724512"><ele>44.0</ele><time>2026-04-02T16:41:32Z</time></trkpt><trkpt lat="45.961918784999654" lon="12.905470029194484"><ele>44.0</ele><time>2026-04-02T16:41:33Z</time></trkpt><trkpt lat="45.96181639268036" lon="12.90543882615813"><ele>44.0</ele><time>2026-04-02T16:41:35Z</time></trkpt><trkpt lat="45.96171108241647" lon="12.905513198965116"><ele>44.0</ele><time>2026-04-02T16:41:38Z</time></trkpt><trkpt lat="45.96163811922415" lon="12.905554153894172"><ele>44.0</ele><time>2026-04-02T16:41:39Z</time></trkpt><trkpt lat="45.961539938235894" lon="12.905578190777296"><ele>43.800000000000004</ele><time>2026-04-02T16:41:40Z</time></trkpt><trkpt lat="45.96141601225447" lon="12.90560271026918"><ele>43.6</ele><time>2026-04-02T16:41:41Z</time></trkpt><trkpt lat="45.96130389503796" lon="12.905619192656268"><ele>43.4</ele><time>2026-04-02T16:41:42Z</time></trkpt><trkpt lat="45.961209684762004" lon="12.905644133098633"><ele>43.2</ele><time>2026-04-02T16:41:43Z</time></trkpt><trkpt lat="45.96110606280249" lon="12.905674077948072"><ele>43.0</ele><time>2026-04-02T16:41:44Z</time></trkpt><trkpt lat="45.96100032580183" lon="12.90570202972168"><ele>43.0</ele><time>2026-04-02T16:41:45Z</time></trkpt><trkpt lat="45.96090896463214" lon="12.905722828347638"><ele>43.0</ele><time>2026-04-02T16:41:46Z</time></trkpt><trkpt lat="45.960817090715715" lon="12.905734855012874"><ele>43.0</ele><time>2026-04-02T16:41:47Z</time></trkpt><trkpt lat="45.960714750283884" lon="12.905747372546257"><ele>43.0</ele><time>2026-04-02T16:41:48Z</time></trkpt><trkpt lat="45.96062296630459" lon="12.905760480700033"><ele>43.0</ele><time>2026-04-02T16:41:49Z</time></trkpt><trkpt lat="45.96054004934205" lon="12.905774224836374"><ele>43.16666666666667</ele><time>2026-04-02T16:41:50Z</time></trkpt><trkpt lat="45.960451992655365" lon="12.905780340780652"><ele>43.333333333333336</ele><time>2026-04-02T16:41:51Z</time></trkpt><trkpt lat="45.96036509217543" lon="12.905785415679173"><ele>43.5</ele><time>2026-04-02T16:41:52Z</time></trkpt><trkpt lat="45.960275215665646" lon="12.905786790430026"><ele>43.666666666666664</ele><time>2026-04-02T16:41:53Z</time></trkpt><trkpt lat="45.960187712159545" lon="12.905783185422207"><ele>43.83333333333333</ele><time>2026-04-02T16:41:54Z</time></trkpt><trkpt lat="45.96009855066875" lon="12.905774697836087"><ele>44.0</ele><time>2026-04-02T16:41:55Z</time></trkpt><trkpt lat="45.96001466372563" lon="12.905757146134329"><ele>44.0</ele><time>2026-04-02T16:41:56Z</time></trkpt><trkpt lat="45.9599006021581" lon="12.905748801871932"><ele>44.0</ele><time>2026-04-02T16:41:57Z</time></trkpt><trkpt lat="45.959778267430224" lon="12.905778322305206"><ele>44.0</ele><time>2026-04-02T16:41:58Z</time></trkpt><trkpt lat="45.95968343883789" lon="12.905793958916615"><ele>44.0</ele><time>2026-04-02T16:41:59Z</time></trkpt><trkpt lat="45.95960408017298" lon="12.905806206706421"><ele>44.0</ele><time>2026-04-02T16:42:00Z</time></trkpt><trkpt lat="45.959536598616324" lon="12.90580855825606"><ele>44.0</ele><time>2026-04-02T16:42:01Z</time></trkpt><trkpt lat="45.95941758416121" lon="12.905765965449648"><ele>44.0</ele><time>2026-04-02T16:42:03.001Z</time></trkpt><trkpt lat="45.95934048489076" lon="12.905715827756843"><ele>44.0</ele><time>2026-04-02T16:42:04.001Z</time></trkpt><trkpt lat="45.95924112767655" lon="12.905697966572571"><ele>44.0</ele><time>2026-04-02T16:42:05.001Z</time></trkpt><trkpt lat="45.95913531938212" lon="12.905733435144306"><ele>44.0</ele><time>2026-04-02T16:42:06.001Z</time></trkpt><trkpt lat="45.95906169586491" lon="12.90578418454823"><ele>43.5</ele><time>2026-04-02T16:42:08.001Z</time></trkpt><trkpt lat="45.95889691741149" lon="12.90579083021549"><ele>43.0</ele><time>2026-04-02T16:42:10.001Z</time></trkpt><trkpt lat="45.95878698097795" lon="12.905775261770378"><ele>42.5</ele><time>2026-04-02T16:42:11.001Z</time></trkpt><trkpt lat="45.95869309619483" lon="12.905766160644326"><ele>42.0</ele><time>2026-04-02T16:42:12.001Z</time></trkpt><trkpt lat="45.95858968011525" lon="12.905789261056949"><ele>42.0</ele><time>2026-04-02T16:42:13.001Z</time></trkpt><trkpt lat="45.95850261077285" lon="12.905801384766486"><ele>42.0</ele><time>2026-04-02T16:42:14.001Z</time></trkpt><trkpt lat="45.9584177476328" lon="12.905831997722501"><ele>42.0</ele><time>2026-04-02T16:42:15.001Z</time></trkpt><trkpt lat="45.95830968512974" lon="12.905841093465279"><ele>42.0</ele><time>2026-04-02T16:42:16.001Z</time></trkpt><trkpt lat="45.958178388692026" lon="12.905855341178116"><ele>42.0</ele><time>2026-04-02T16:42:17.001Z</time></trkpt><trkpt lat="45.95805623495252" lon="12.905865217602605"><ele>42.0</ele><time>2026-04-02T16:42:18.001Z</time></trkpt><trkpt lat="45.95795014813713" lon="12.905890030146862"><ele>42.0</ele><time>2026-04-02T16:42:19.001Z</time></trkpt><trkpt lat="45.95785957670767" lon="12.905894713151742"><ele>42.0</ele><time>2026-04-02T16:42:20.001Z</time></trkpt><trkpt lat="45.957759990628205" lon="12.905857482309933"><ele>42.0</ele><time>2026-04-02T16:42:21.001Z</time></trkpt><trkpt lat="45.957650336442846" lon="12.905798466862537"><ele>42.0</ele><time>2026-04-02T16:42:22.001Z</time></trkpt><trkpt lat="45.95754778842048" lon="12.905732012041986"><ele>41.75</ele><time>2026-04-02T16:42:23.001Z</time></trkpt><trkpt lat="45.957459007790085" lon="12.90565224027104"><ele>41.5</ele><time>2026-04-02T16:42:24Z</time></trkpt><trkpt lat="45.95736507038214" lon="12.905568446233596"><ele>41.25</ele><time>2026-04-02T16:42:25Z</time></trkpt><trkpt lat="45.95724528149128" lon="12.905498994668655"><ele>41.0</ele><time>2026-04-02T16:42:26Z</time></trkpt><trkpt lat="45.95712227012925" lon="12.905437043783216"><ele>41.0</ele><time>2026-04-02T16:42:27Z</time></trkpt><trkpt lat="45.95700711101225" lon="12.905381246050359"><ele>41.0</ele><time>2026-04-02T16:42:28Z</time></trkpt><trkpt lat="45.956901064004576" lon="12.905320163616127"><ele>41.0</ele><time>2026-04-02T16:42:29Z</time></trkpt><trkpt lat="45.956791254340914" lon="12.905256616233844"><ele>41.0</ele><time>2026-04-02T16:42:30Z</time></trkpt><trkpt lat="45.95668873851035" lon="12.905190211138034"><ele>40.599999999999994</ele><time>2026-04-02T16:42:31Z</time></trkpt><trkpt lat="45.95659113912865" lon="12.905126104216402"><ele>40.199999999999996</ele><time>2026-04-02T16:42:32Z</time></trkpt><trkpt lat="45.95650500481091" lon="12.905070762595576"><ele>39.8</ele><time>2026-04-02T16:42:33Z</time></trkpt><trkpt lat="45.95642503978631" lon="12.905030224890735"><ele>39.4</ele><time>2026-04-02T16:42:34Z</time></trkpt><trkpt lat="45.95632094466192" lon="12.9050152873701"><ele>39.0</ele><time>2026-04-02T16:42:35Z</time></trkpt><trkpt lat="45.9562519973459" lon="12.905009761603681"><ele>39.0</ele><time>2026-04-02T16:42:36Z</time></trkpt><trkpt lat="45.95611439963001" lon="12.905014593098304"><ele>39.0</ele><time>2026-04-02T16:42:38Z</time></trkpt><trkpt lat="45.95603110862091" lon="12.904974877907128"><ele>39.0</ele><time>2026-04-02T16:42:39Z</time></trkpt><trkpt lat="45.95595759761361" lon="12.904940895224305"><ele>39.0</ele><time>2026-04-02T16:42:40Z</time></trkpt><trkpt lat="45.955869928653705" lon="12.90489522385328"><ele>39.0</ele><time>2026-04-02T16:42:41Z</time></trkpt><trkpt lat="45.95577767431253" lon="12.904858235790778"><ele>38.6</ele><time>2026-04-02T16:42:42Z</time></trkpt><trkpt lat="45.95566244504976" lon="12.904802886330627"><ele>38.2</ele><time>2026-04-02T16:42:43Z</time></trkpt><trkpt lat="45.95558142672732" lon="12.904763361527907"><ele>37.800000000000004</ele><time>2026-04-02T16:42:44Z</time></trkpt><trkpt lat="45.955490548498204" lon="12.904692961787939"><ele>37.4</ele><time>2026-04-02T16:42:45Z</time></trkpt><trkpt lat="45.95540811947995" lon="12.904670610110518"><ele>37.0</ele><time>2026-04-02T16:42:46Z</time></trkpt><trkpt lat="45.95531879742226" lon="12.90465770136314"><ele>37.0</ele><time>2026-04-02T16:42:47Z</time></trkpt><trkpt lat="45.955216307365" lon="12.904635246718023"><ele>37.0</ele><time>2026-04-02T16:42:48Z</time></trkpt><trkpt lat="45.95511667516108" lon="12.904604413339142"><ele>37.0</ele><time>2026-04-02T16:42:49Z</time></trkpt><trkpt lat="45.95501622352555" lon="12.904574882099384"><ele>37.0</ele><time>2026-04-02T16:42:50Z</time></trkpt><trkpt lat="45.954929980155434" lon="12.904569594041961"><ele>37.0</ele><time>2026-04-02T16:42:51Z</time></trkpt><trkpt lat="45.95484973318672" lon="12.904578218863"><ele>37.4</ele><time>2026-04-02T16:42:52Z</time></trkpt><trkpt lat="45.954770234998264" lon="12.904600236010394"><ele>37.800000000000004</ele><time>2026-04-02T16:42:53Z</time></trkpt><trkpt lat="45.954687038290785" lon="12.904618966454107"><ele>38.2</ele><time>2026-04-02T16:42:54Z</time></trkpt><trkpt lat="45.95459193230823" lon="12.904620351442585"><ele>38.6</ele><time>2026-04-02T16:42:55Z</time></trkpt><trkpt lat="45.95448338993457" lon="12.904602164691662"><ele>39.0</ele><time>2026-04-02T16:42:56Z</time></trkpt><trkpt lat="45.95436132870471" lon="12.904589883454015"><ele>39.0</ele><time>2026-04-02T16:42:57Z</time></trkpt><trkpt lat="45.95423085407022" lon="12.904580713074289"><ele>39.0</ele><time>2026-04-02T16:42:58Z</time></trkpt><trkpt lat="45.95412404889423" lon="12.904568429071162"><ele>39.0</ele><time>2026-04-02T16:42:59Z</time></trkpt><trkpt lat="45.954025916349636" lon="12.90455643960014"><ele>39.0</ele><time>2026-04-02T16:43:00Z</time></trkpt><trkpt lat="45.953918255141346" lon="12.904537356371995"><ele>39.0</ele><time>2026-04-02T16:43:01Z</time></trkpt><trkpt lat="45.95380952624646" lon="12.90452298601007"><ele>38.666666666666664</ele><time>2026-04-02T16:43:02Z</time></trkpt><trkpt lat="45.953712255755065" lon="12.904497371189231"><ele>38.333333333333336</ele><time>2026-04-02T16:43:03Z</time></trkpt><trkpt lat="45.95363327882066" lon="12.904467838421192"><ele>38.0</ele><time>2026-04-02T16:43:04Z</time></trkpt><trkpt lat="45.95356208593284" lon="12.90442449151508"><ele>37.66666666666667</ele><time>2026-04-02T16:43:05Z</time></trkpt><trkpt lat="45.953500475990616" lon="12.904382443536267"><ele>37.333333333333336</ele><time>2026-04-02T16:43:06Z</time></trkpt><trkpt lat="45.95343929565102" lon="12.904335274051329"><ele>37.0</ele><time>2026-04-02T16:43:07Z</time></trkpt><trkpt lat="45.95337585228369" lon="12.904288094997673"><ele>37.4</ele><time>2026-04-02T16:43:08Z</time></trkpt><trkpt lat="45.95331601092953" lon="12.904237514116698"><ele>37.800000000000004</ele><time>2026-04-02T16:43:09Z</time></trkpt><trkpt lat="45.95325826742715" lon="12.904184912387542"><ele>38.2</ele><time>2026-04-02T16:43:10Z</time></trkpt><trkpt lat="45.953166895638596" lon="12.904112612653703"><ele>38.6</ele><time>2026-04-02T16:43:12Z</time></trkpt><trkpt lat="45.95304149595288" lon="12.904120034668733"><ele>39.0</ele><time>2026-04-02T16:43:14Z</time></trkpt><trkpt lat="45.95295919460956" lon="12.904151914647578"><ele>39.0</ele><time>2026-04-02T16:43:15Z</time></trkpt><trkpt lat="45.9528597100107" lon="12.904178058869572"><ele>39.0</ele><time>2026-04-02T16:43:16Z</time></trkpt><trkpt lat="45.952760170627805" lon="12.904176609010255"><ele>39.0</ele><time>2026-04-02T16:43:17Z</time></trkpt><trkpt lat="45.95268384846872" lon="12.904168268881138"><ele>39.0</ele><time>2026-04-02T16:43:18Z</time></trkpt><trkpt lat="45.95261497960561" lon="12.90415996663751"><ele>39.0</ele><time>2026-04-02T16:43:19Z</time></trkpt><trkpt lat="45.95254800101193" lon="12.904154580199188"><ele>39.0</ele><time>2026-04-02T16:43:20Z</time></trkpt><trkpt lat="45.95247683583089" lon="12.904134630490509"><ele>38.8</ele><time>2026-04-02T16:43:21Z</time></trkpt><trkpt lat="45.95239613233366" lon="12.904173451448015"><ele>38.599999999999994</ele><time>2026-04-02T16:43:22Z</time></trkpt><trkpt lat="45.952300082012556" lon="12.904204892118473"><ele>38.4</ele><time>2026-04-02T16:43:23Z</time></trkpt><trkpt lat="45.952198525782165" lon="12.904270716532425"><ele>38.199999999999996</ele><time>2026-04-02T16:43:24Z</time></trkpt><trkpt lat="45.95208634459034" lon="12.904311376677242"><ele>38.0</ele><time>2026-04-02T16:43:25Z</time></trkpt><trkpt lat="45.95198678973748" lon="12.904362009585576"><ele>38.0</ele><time>2026-04-02T16:43:26Z</time></trkpt><trkpt lat="45.95191181852455" lon="12.904386219944303"><ele>38.0</ele><time>2026-04-02T16:43:27Z</time></trkpt><trkpt lat="45.95184349287794" lon="12.904412499519784"><ele>38.0</ele><time>2026-04-02T16:43:28Z</time></trkpt><trkpt lat="45.95177316805864" lon="12.904403856889548"><ele>38.0</ele><time>2026-04-02T16:43:29Z</time></trkpt><trkpt lat="45.95167901061014" lon="12.904436518714382"><ele>38.0</ele><time>2026-04-02T16:43:32Z</time></trkpt><trkpt lat="45.951599283644065" lon="12.904471274597949"><ele>38.0</ele><time>2026-04-02T16:43:33Z</time></trkpt><trkpt lat="45.95150453874964" lon="12.904500538703282"><ele>37.8</ele><time>2026-04-02T16:43:34Z</time></trkpt><trkpt lat="45.95139895782037" lon="12.904546700714251"><ele>37.599999999999994</ele><time>2026-04-02T16:43:35Z</time></trkpt><trkpt lat="45.95129174783751" lon="12.904600909240436"><ele>37.400000000000006</ele><time>2026-04-02T16:43:36Z</time></trkpt><trkpt lat="45.951207197486745" lon="12.904644798055772"><ele>37.2</ele><time>2026-04-02T16:43:37Z</time></trkpt><trkpt lat="45.95112986451529" lon="12.904688543959175"><ele>37.0</ele><time>2026-04-02T16:43:38Z</time></trkpt><trkpt lat="45.9510108838147" lon="12.904739078493154"><ele>37.0</ele><time>2026-04-02T16:43:39Z</time></trkpt><trkpt lat="45.95091978852918" lon="12.904773228214482"><ele>37.0</ele><time>2026-04-02T16:43:40Z</time></trkpt><trkpt lat="45.950844098126865" lon="12.90481420007623"><ele>37.0</ele><time>2026-04-02T16:43:41Z</time></trkpt><trkpt lat="45.95075944666669" lon="12.904865327175916"><ele>37.0</ele><time>2026-04-02T16:43:42Z</time></trkpt><trkpt lat="45.95067501872607" lon="12.904883363455792"><ele>37.0</ele><time>2026-04-02T16:43:43Z</time></trkpt><trkpt lat="45.950587413185524" lon="12.904897507363502"><ele>37.0</ele><time>2026-04-02T16:43:44Z</time></trkpt><trkpt lat="45.95049489791367" lon="12.90490321386717"><ele>37.0</ele><time>2026-04-02T16:43:45Z</time></trkpt><trkpt lat="45.95036214413402" lon="12.904905324786776"><ele>37.0</ele><time>2026-04-02T16:43:47Z</time></trkpt><trkpt lat="45.950292641515276" lon="12.904875319599808"><ele>37.0</ele><time>2026-04-02T16:43:48Z</time></trkpt><trkpt lat="45.950214942983806" lon="12.904849184342547"><ele>37.0</ele><time>2026-04-02T16:43:49Z</time></trkpt><trkpt lat="45.95014307215715" lon="12.904815160368436"><ele>37.0</ele><time>2026-04-02T16:43:50Z</time></trkpt><trkpt lat="45.95006296411803" lon="12.90482318076271"><ele>37.0</ele><time>2026-04-02T16:43:51Z</time></trkpt><trkpt lat="45.94997674246829" lon="12.904790224847424"><ele>37.0</ele><time>2026-04-02T16:43:52Z</time></trkpt><trkpt lat="45.94989447844347" lon="12.904742496107872"><ele>37.0</ele><time>2026-04-02T16:43:53Z</time></trkpt><trkpt lat="45.949798398185386" lon="12.904720542709128"><ele>37.0</ele><time>2026-04-02T16:43:54Z</time></trkpt><trkpt lat="45.9497170738668" lon="12.904691491850416"><ele>37.0</ele><time>2026-04-02T16:43:55Z</time></trkpt><trkpt lat="45.94964034340009" lon="12.904665263018298"><ele>37.0</ele><time>2026-04-02T16:43:56Z</time></trkpt><trkpt lat="45.94956166887228" lon="12.904646768934313"><ele>37.0</ele><time>2026-04-02T16:43:57Z</time></trkpt><trkpt lat="45.949476168822834" lon="12.904634696647804"><ele>37.0</ele><time>2026-04-02T16:43:58Z</time></trkpt><trkpt lat="45.9493930876235" lon="12.904621034983688"><ele>37.0</ele><time>2026-04-02T16:43:59Z</time></trkpt><trkpt lat="45.94928469251969" lon="12.904621045760043"><ele>37.0</ele><time>2026-04-02T16:44:00Z</time></trkpt><trkpt lat="45.94921355471429" lon="12.90461172836135"><ele>37.0</ele><time>2026-04-02T16:44:01Z</time></trkpt><trkpt lat="45.94914113422718" lon="12.90462131983667"><ele>37.0</ele><time>2026-04-02T16:44:02Z</time></trkpt><trkpt lat="45.94906948535542" lon="12.904619702664565"><ele>37.0</ele><time>2026-04-02T16:44:03Z</time></trkpt><trkpt lat="45.94894835479453" lon="12.904603198167688"><ele>37.0</ele><time>2026-04-02T16:44:05Z</time></trkpt><trkpt lat="45.948882539327066" lon="12.90459830709227"><ele>37.0</ele><time>2026-04-02T16:44:06Z</time></trkpt><trkpt lat="45.94881949186472" lon="12.904601342001746"><ele>37.0</ele><time>2026-04-02T16:44:07Z</time></trkpt><trkpt lat="45.94868436324147" lon="12.904577124131903"><ele>37.0</ele><time>2026-04-02T16:44:09Z</time></trkpt><trkpt lat="45.9486143168659" lon="12.904562997150608"><ele>37.0</ele><time>2026-04-02T16:44:10Z</time></trkpt><trkpt lat="45.94856436249375" lon="12.904382373115006"><ele>37.0</ele><time>2026-04-02T16:44:12Z</time></trkpt><trkpt lat="45.9485066039713" lon="12.90425633648512"><ele>37.0</ele><time>2026-04-02T16:44:13Z</time></trkpt><trkpt lat="45.94846805326563" lon="12.904127387038814"><ele>37.0</ele><time>2026-04-02T16:44:14Z</time></trkpt><trkpt lat="45.94843848029608" lon="12.90402543563617"><ele>37.0</ele><time>2026-04-02T16:44:15Z</time></trkpt><trkpt lat="45.948405128896944" lon="12.903939170542182"><ele>37.0</ele><time>2026-04-02T16:44:16Z</time></trkpt><trkpt lat="45.948360694127516" lon="12.903864185960357"><ele>37.0</ele><time>2026-04-02T16:44:17Z</time></trkpt><trkpt lat="45.94829880015965" lon="12.903800691064266"><ele>37.0</ele><time>2026-04-02T16:44:18Z</time></trkpt><trkpt lat="45.94825066218836" lon="12.903641148926916"><ele>37.0</ele><time>2026-04-02T16:44:20Z</time></trkpt><trkpt lat="45.948238699609156" lon="12.903545190777193"><ele>37.0</ele><time>2026-04-02T16:44:21Z</time></trkpt><trkpt lat="45.948241162808515" lon="12.903450129818061"><ele>37.0</ele><time>2026-04-02T16:44:22Z</time></trkpt><trkpt lat="45.94825173103267" lon="12.90335714151113"><ele>37.0</ele><time>2026-04-02T16:44:23Z</time></trkpt><trkpt lat="45.94826775327841" lon="12.903257749124958"><ele>37.0</ele><time>2026-04-02T16:44:24Z</time></trkpt><trkpt lat="45.94828637234586" lon="12.903145455477365"><ele>37.0</ele><time>2026-04-02T16:44:25Z</time></trkpt><trkpt lat="45.94830687955097" lon="12.90301540584819"><ele>37.0</ele><time>2026-04-02T16:44:26Z</time></trkpt><trkpt lat="45.948330031848144" lon="12.902888776595631"><ele>37.0</ele><time>2026-04-02T16:44:27Z</time></trkpt><trkpt lat="45.94834622861768" lon="12.902800227294959"><ele>37.0</ele><time>2026-04-02T16:44:28Z</time></trkpt><trkpt lat="45.948365036017066" lon="12.902672424648218"><ele>37.0</ele><time>2026-04-02T16:44:30Z</time></trkpt><trkpt lat="45.9484314185424" lon="12.902543167892397"><ele>37.0</ele><time>2026-04-02T16:44:32Z</time></trkpt><trkpt lat="45.94847577229975" lon="12.902395537721127"><ele>37.0</ele><time>2026-04-02T16:44:34Z</time></trkpt><trkpt lat="45.94847432100787" lon="12.902262104982215"><ele>37.0</ele><time>2026-04-02T16:44:36Z</time></trkpt><trkpt lat="45.94846744248884" lon="12.902104725542086"><ele>37.0</ele><time>2026-04-02T16:44:38Z</time></trkpt><trkpt lat="45.94843288260727" lon="12.902019940229048"><ele>37.0</ele><time>2026-04-02T16:44:39Z</time></trkpt><trkpt lat="45.948408783809676" lon="12.901926387291475"><ele>37.0</ele><time>2026-04-02T16:44:40Z</time></trkpt><trkpt lat="45.94841855619858" lon="12.901793014276558"><ele>37.0</ele><time>2026-04-02T16:44:43Z</time></trkpt><trkpt lat="45.94846787748799" lon="12.901716805428538"><ele>37.0</ele><time>2026-04-02T16:44:45Z</time></trkpt><trkpt lat="45.948561004055435" lon="12.901690729645912"><ele>37.0</ele><time>2026-04-02T16:44:50Z</time></trkpt><trkpt lat="45.948646208513054" lon="12.901672482376766"><ele>37.0</ele><time>2026-04-02T16:44:51Z</time></trkpt><trkpt lat="45.948743061571655" lon="12.90166482746948"><ele>37.0</ele><time>2026-04-02T16:44:52Z</time></trkpt><trkpt lat="45.9488345372952" lon="12.901665641897079"><ele>36.833333333333336</ele><time>2026-04-02T16:44:53Z</time></trkpt><trkpt lat="45.94893696006051" lon="12.901652658414408"><ele>36.66666666666667</ele><time>2026-04-02T16:44:54Z</time></trkpt><trkpt lat="45.94902046164052" lon="12.901632139550404"><ele>36.5</ele><time>2026-04-02T16:44:55Z</time></trkpt><trkpt lat="45.94908796207073" lon="12.901612432885326"><ele>36.333333333333336</ele><time>2026-04-02T16:44:56Z</time></trkpt><trkpt lat="45.94915195254158" lon="12.901589075118759"><ele>36.166666666666664</ele><time>2026-04-02T16:44:57Z</time></trkpt><trkpt lat="45.94921303617432" lon="12.901561085054407"><ele>36.0</ele><time>2026-04-02T16:44:58Z</time></trkpt><trkpt lat="45.94928687660051" lon="12.901554179890352"><ele>36.333333333333336</ele><time>2026-04-02T16:44:59Z</time></trkpt><trkpt lat="45.94936578740123" lon="12.901541518809946"><ele>36.666666666666664</ele><time>2026-04-02T16:45:00Z</time></trkpt><trkpt lat="45.949399964777406" lon="12.901438887386108"><ele>37.0</ele><time>2026-04-02T16:45:02Z</time></trkpt><trkpt lat="45.949466065248906" lon="12.901321376719318"><ele>37.33333333333333</ele><time>2026-04-02T16:45:04Z</time></trkpt><trkpt lat="45.949543265913256" lon="12.901278114094751"><ele>37.666666666666664</ele><time>2026-04-02T16:45:06Z</time></trkpt><trkpt lat="45.94960477133925" lon="12.901229782383096"><ele>38.0</ele><time>2026-04-02T16:45:08Z</time></trkpt><trkpt lat="45.949670780447796" lon="12.901175052175544"><ele>38.0</ele><time>2026-04-02T16:45:10Z</time></trkpt><trkpt lat="45.949652660445025" lon="12.901086633629776"><ele>38.0</ele><time>2026-04-02T16:45:15Z</time></trkpt><trkpt lat="45.94955890244289" lon="12.90108634465709"><ele>38.0</ele><time>2026-04-02T16:45:17Z</time></trkpt><trkpt lat="45.949555387251415" lon="12.900952915634948"><ele>38.0</ele><time>2026-04-02T16:45:27Z</time></trkpt><trkpt lat="45.94960553497784" lon="12.900866038067603"><ele>38.0</ele><time>2026-04-02T16:45:28Z</time></trkpt><trkpt lat="45.949649107085" lon="12.900780063425344"><ele>38.0</ele><time>2026-04-02T16:45:29Z</time></trkpt><trkpt lat="45.94970095624792" lon="12.900698067022589"><ele>37.8</ele><time>2026-04-02T16:45:30Z</time></trkpt><trkpt lat="45.94975742111095" lon="12.900614642803575"><ele>37.599999999999994</ele><time>2026-04-02T16:45:31Z</time></trkpt><trkpt lat="45.949803936799896" lon="12.900532339506405"><ele>37.400000000000006</ele><time>2026-04-02T16:45:32Z</time></trkpt><trkpt lat="45.9498841962365" lon="12.900417500051603"><ele>37.2</ele><time>2026-04-02T16:45:34Z</time></trkpt><trkpt lat="45.94997729647519" lon="12.900300422628426"><ele>37.0</ele><time>2026-04-02T16:45:36Z</time></trkpt><trkpt lat="45.95003067997316" lon="12.900221803252716"><ele>37.4</ele><time>2026-04-02T16:45:37Z</time></trkpt><trkpt lat="45.950122956695495" lon="12.900120532820127"><ele>37.800000000000004</ele><time>2026-04-02T16:45:39Z</time></trkpt><trkpt lat="45.950183349484455" lon="12.900004436666205"><ele>38.2</ele><time>2026-04-02T16:45:41Z</time></trkpt><trkpt lat="45.95019368604554" lon="12.899893921844809"><ele>38.6</ele><time>2026-04-02T16:45:42Z</time></trkpt><trkpt lat="45.95018764302054" lon="12.899742274072915"><ele>39.0</ele><time>2026-04-02T16:45:43Z</time></trkpt><trkpt lat="45.95017460574383" lon="12.899599507065401"><ele>39.142857142857146</ele><time>2026-04-02T16:45:44Z</time></trkpt><trkpt lat="45.95016434291847" lon="12.899484305363702"><ele>39.285714285714285</ele><time>2026-04-02T16:45:45Z</time></trkpt><trkpt lat="45.950148441422186" lon="12.899365122791002"><ele>39.42857142857143</ele><time>2026-04-02T16:45:46Z</time></trkpt><trkpt lat="45.950144005930376" lon="12.89926723026439"><ele>39.57142857142857</ele><time>2026-04-02T16:45:47Z</time></trkpt><trkpt lat="45.95013859664505" lon="12.899168760270042"><ele>39.714285714285715</ele><time>2026-04-02T16:45:48Z</time></trkpt><trkpt lat="45.95012927107771" lon="12.89907213907142"><ele>39.857142857142854</ele><time>2026-04-02T16:45:49Z</time></trkpt><trkpt lat="45.950098688678324" lon="12.898988126846726"><ele>40.0</ele><time>2026-04-02T16:45:50Z</time></trkpt><trkpt lat="45.950024281997" lon="12.898887951613883"><ele>40.25</ele><time>2026-04-02T16:45:51Z</time></trkpt><trkpt lat="45.94991370163773" lon="12.898784070207423"><ele>40.5</ele><time>2026-04-02T16:45:52Z</time></trkpt><trkpt lat="45.94979895634284" lon="12.898681403365805"><ele>40.75</ele><time>2026-04-02T16:45:53Z</time></trkpt><trkpt lat="45.94971377186923" lon="12.898578953698218"><ele>41.0</ele><time>2026-04-02T16:45:54Z</time></trkpt><trkpt lat="45.94961283726302" lon="12.898471414517788"><ele>40.5</ele><time>2026-04-02T16:45:55Z</time></trkpt><trkpt lat="45.94952020881917" lon="12.898361156852427"><ele>40.0</ele><time>2026-04-02T16:45:56Z</time></trkpt><trkpt lat="45.9494268900946" lon="12.89825206411389"><ele>39.5</ele><time>2026-04-02T16:45:57Z</time></trkpt><trkpt lat="45.94934020360697" lon="12.898150654939025"><ele>39.0</ele><time>2026-04-02T16:45:58Z</time></trkpt><trkpt lat="45.94925278894662" lon="12.898059113476434"><ele>39.0</ele><time>2026-04-02T16:45:59Z</time></trkpt><trkpt lat="45.94918784192315" lon="12.897959149020778"><ele>39.0</ele><time>2026-04-02T16:46:00Z</time></trkpt><trkpt lat="45.94911232258047" lon="12.897861938797373"><ele>39.0</ele><time>2026-04-02T16:46:01Z</time></trkpt><trkpt lat="45.949023647611405" lon="12.897783132792092"><ele>39.0</ele><time>2026-04-02T16:46:02Z</time></trkpt><trkpt lat="45.94896173180325" lon="12.897705234723436"><ele>39.0</ele><time>2026-04-02T16:46:03Z</time></trkpt><trkpt lat="45.948916360938355" lon="12.897608006940636"><ele>39.25</ele><time>2026-04-02T16:46:04Z</time></trkpt><trkpt lat="45.948873916987765" lon="12.897466728043911"><ele>39.5</ele><time>2026-04-02T16:46:05Z</time></trkpt><trkpt lat="45.948836988052534" lon="12.897303926897912"><ele>39.75</ele><time>2026-04-02T16:46:06Z</time></trkpt><trkpt lat="45.948792848743196" lon="12.897140881405324"><ele>40.0</ele><time>2026-04-02T16:46:07Z</time></trkpt><trkpt lat="45.948727698085314" lon="12.896988495570959"><ele>40.0</ele><time>2026-04-02T16:46:08Z</time></trkpt><trkpt lat="45.94864213124192" lon="12.89682893941952"><ele>40.0</ele><time>2026-04-02T16:46:09Z</time></trkpt><trkpt lat="45.94854206549008" lon="12.896670500507884"><ele>40.0</ele><time>2026-04-02T16:46:10Z</time></trkpt><trkpt lat="45.948441016966925" lon="12.896545317605204"><ele>40.0</ele><time>2026-04-02T16:46:11Z</time></trkpt><trkpt lat="45.948341047906524" lon="12.896422474918271"><ele>39.8</ele><time>2026-04-02T16:46:12Z</time></trkpt><trkpt lat="45.94822150303247" lon="12.896296942317633"><ele>39.6</ele><time>2026-04-02T16:46:13Z</time></trkpt><trkpt lat="45.948133653329734" lon="12.896204692342007"><ele>39.4</ele><time>2026-04-02T16:46:14Z</time></trkpt><trkpt lat="45.94806980605263" lon="12.896133401892138"><ele>39.2</ele><time>2026-04-02T16:46:15Z</time></trkpt><trkpt lat="45.94800480179725" lon="12.896056290502276"><ele>39.0</ele><time>2026-04-02T16:46:16Z</time></trkpt><trkpt lat="45.947936219109486" lon="12.89595424896252"><ele>38.8</ele><time>2026-04-02T16:46:17Z</time></trkpt><trkpt lat="45.94789382378526" lon="12.895845356498349"><ele>38.599999999999994</ele><time>2026-04-02T16:46:18Z</time></trkpt><trkpt lat="45.9478623863829" lon="12.895726168444558"><ele>38.4</ele><time>2026-04-02T16:46:19Z</time></trkpt><trkpt lat="45.94785920122527" lon="12.89559108977201"><ele>38.199999999999996</ele><time>2026-04-02T16:46:20Z</time></trkpt><trkpt lat="45.94782517491756" lon="12.895470440806028"><ele>38.0</ele><time>2026-04-02T16:46:21Z</time></trkpt><trkpt lat="45.94780071782868" lon="12.895320454694643"><ele>38.0</ele><time>2026-04-02T16:46:22Z</time></trkpt><trkpt lat="45.94778979790615" lon="12.895174475041289"><ele>38.0</ele><time>2026-04-02T16:46:23Z</time></trkpt><trkpt lat="45.94776994020847" lon="12.89506068910174"><ele>38.0</ele><time>2026-04-02T16:46:24Z</time></trkpt><trkpt lat="45.94774115115621" lon="12.894932635046839"><ele>38.0</ele><time>2026-04-02T16:46:25Z</time></trkpt><trkpt lat="45.947706368176625" lon="12.89481600839765"><ele>38.0</ele><time>2026-04-02T16:46:26Z</time></trkpt><trkpt lat="45.94768200129288" lon="12.894710367147898"><ele>38.0</ele><time>2026-04-02T16:46:27Z</time></trkpt><trkpt lat="45.94765943194009" lon="12.894618134992179"><ele>38.0</ele><time>2026-04-02T16:46:28Z</time></trkpt><trkpt lat="45.94763785746797" lon="12.894526907897369"><ele>38.0</ele><time>2026-04-02T16:46:29Z</time></trkpt><trkpt lat="45.94761888574437" lon="12.89443095936029"><ele>38.0</ele><time>2026-04-02T16:46:30Z</time></trkpt><trkpt lat="45.94760771628703" lon="12.894331152177266"><ele>38.0</ele><time>2026-04-02T16:46:31Z</time></trkpt><trkpt lat="45.9475797442845" lon="12.894155831963813"><ele>38.0</ele><time>2026-04-02T16:46:33Z</time></trkpt><trkpt lat="45.94754171728227" lon="12.89402200466842"><ele>38.0</ele><time>2026-04-02T16:46:34Z</time></trkpt><trkpt lat="45.947529516726966" lon="12.893883158963929"><ele>38.0</ele><time>2026-04-02T16:46:35Z</time></trkpt><trkpt lat="45.947531269481225" lon="12.893755506473058"><ele>38.0</ele><time>2026-04-02T16:46:36Z</time></trkpt><trkpt lat="45.947518759976674" lon="12.893623811947826"><ele>38.0</ele><time>2026-04-02T16:46:37Z</time></trkpt><trkpt lat="45.94751791882395" lon="12.893473951638882"><ele>38.0</ele><time>2026-04-02T16:46:38Z</time></trkpt><trkpt lat="45.94753131605491" lon="12.893286134055838"><ele>38.0</ele><time>2026-04-02T16:46:39Z</time></trkpt><trkpt lat="45.94751238982948" lon="12.893079070832332"><ele>38.0</ele><time>2026-04-02T16:46:40Z</time></trkpt><trkpt lat="45.94749324014685" lon="12.89290554588814"><ele>38.0</ele><time>2026-04-02T16:46:41Z</time></trkpt><trkpt lat="45.94748952717944" lon="12.89274935481565"><ele>38.0</ele><time>2026-04-02T16:46:42Z</time></trkpt><trkpt lat="45.947485963999235" lon="12.892594478091265"><ele>38.0</ele><time>2026-04-02T16:46:43Z</time></trkpt><trkpt lat="45.947462773813335" lon="12.892414608718816"><ele>38.25</ele><time>2026-04-02T16:46:44Z</time></trkpt><trkpt lat="45.94745819015508" lon="12.892219616739371"><ele>38.5</ele><time>2026-04-02T16:46:45Z</time></trkpt><trkpt lat="45.94741760365942" lon="12.89203077103099"><ele>38.75</ele><time>2026-04-02T16:46:46Z</time></trkpt><trkpt lat="45.9473943158738" lon="12.891829565154257"><ele>39.0</ele><time>2026-04-02T16:46:47Z</time></trkpt><trkpt lat="45.94737158153133" lon="12.891624520743031"><ele>39.0</ele><time>2026-04-02T16:46:48Z</time></trkpt><trkpt lat="45.94735042276667" lon="12.891419029658952"><ele>39.0</ele><time>2026-04-02T16:46:49Z</time></trkpt><trkpt lat="45.94732953311694" lon="12.891210578106756"><ele>39.0</ele><time>2026-04-02T16:46:50Z</time></trkpt><trkpt lat="45.94730915524346" lon="12.890992044314778"><ele>39.0</ele><time>2026-04-02T16:46:51Z</time></trkpt><trkpt lat="45.947294696157215" lon="12.890724722083108"><ele>38.666666666666664</ele><time>2026-04-02T16:46:52Z</time></trkpt><trkpt lat="45.947269953509775" lon="12.8905244673322"><ele>38.33333333333333</ele><time>2026-04-02T16:46:53Z</time></trkpt><trkpt lat="45.94724107730687" lon="12.890286575075693"><ele>38.0</ele><time>2026-04-02T16:46:54Z</time></trkpt><trkpt lat="45.94721692146551" lon="12.890049351936137"><ele>38.0</ele><time>2026-04-02T16:46:55Z</time></trkpt><trkpt lat="45.94719594701304" lon="12.889817180811757"><ele>38.0</ele><time>2026-04-02T16:46:56Z</time></trkpt><trkpt lat="45.94716831179444" lon="12.889580976075967"><ele>38.0</ele><time>2026-04-02T16:46:57Z</time></trkpt><trkpt lat="45.94714575455293" lon="12.88935743998259"><ele>38.33333333333333</ele><time>2026-04-02T16:46:58Z</time></trkpt><trkpt lat="45.94711785082335" lon="12.88911853568338"><ele>38.666666666666664</ele><time>2026-04-02T16:46:59Z</time></trkpt><trkpt lat="45.94710120416536" lon="12.888899192815678"><ele>39.0</ele><time>2026-04-02T16:47:00Z</time></trkpt><trkpt lat="45.94706858120174" lon="12.888666713513226"><ele>39.0</ele><time>2026-04-02T16:47:01Z</time></trkpt><trkpt lat="45.947043491427756" lon="12.888440956815238"><ele>39.0</ele><time>2026-04-02T16:47:02Z</time></trkpt><trkpt lat="45.94702185487553" lon="12.888224703072064"><ele>39.0</ele><time>2026-04-02T16:47:03Z</time></trkpt><trkpt lat="45.94699884181185" lon="12.888019920309029"><ele>39.25</ele><time>2026-04-02T16:47:04Z</time></trkpt><trkpt lat="45.94698009313014" lon="12.887820463788051"><ele>39.5</ele><time>2026-04-02T16:47:05Z</time></trkpt><trkpt lat="45.94695344291932" lon="12.887627138881781"><ele>39.75</ele><time>2026-04-02T16:47:06Z</time></trkpt><trkpt lat="45.946931367442666" lon="12.887437104251774"><ele>40.0</ele><time>2026-04-02T16:47:07Z</time></trkpt><trkpt lat="45.94691309377919" lon="12.887258190185788"><ele>40.2</ele><time>2026-04-02T16:47:08Z</time></trkpt><trkpt lat="45.94689076362978" lon="12.887093540167577"><ele>40.4</ele><time>2026-04-02T16:47:09Z</time></trkpt><trkpt lat="45.94685883062622" lon="12.886947676509491"><ele>40.599999999999994</ele><time>2026-04-02T16:47:10Z</time></trkpt><trkpt lat="45.946815789601104" lon="12.88681807832797"><ele>40.8</ele><time>2026-04-02T16:47:11Z</time></trkpt><trkpt lat="45.946765923082914" lon="12.886704081420367"><ele>41.0</ele><time>2026-04-02T16:47:12Z</time></trkpt><trkpt lat="45.946733907451666" lon="12.886564704890867"><ele>41.0</ele><time>2026-04-02T16:47:13Z</time></trkpt><trkpt lat="45.94673051723049" lon="12.886382257417765"><ele>41.0</ele><time>2026-04-02T16:47:14Z</time></trkpt><trkpt lat="45.94673309910435" lon="12.88620290165389"><ele>41.0</ele><time>2026-04-02T16:47:15Z</time></trkpt><trkpt lat="45.94675868560892" lon="12.886006536333545"><ele>41.0</ele><time>2026-04-02T16:47:16Z</time></trkpt><trkpt lat="45.94678797461473" lon="12.885824395670106"><ele>41.0</ele><time>2026-04-02T16:47:17Z</time></trkpt><trkpt lat="45.946816240523106" lon="12.885647475200974"><ele>41.0</ele><time>2026-04-02T16:47:18Z</time></trkpt><trkpt lat="45.946813309669466" lon="12.885489394937748"><ele>41.0</ele><time>2026-04-02T16:47:19Z</time></trkpt><trkpt lat="45.94680466645683" lon="12.88529853292078"><ele>41.0</ele><time>2026-04-02T16:47:20Z</time></trkpt><trkpt lat="45.946789184833435" lon="12.88508468622846"><ele>41.0</ele><time>2026-04-02T16:47:21Z</time></trkpt><trkpt lat="45.94677421725119" lon="12.884854506328109"><ele>41.0</ele><time>2026-04-02T16:47:22Z</time></trkpt><trkpt lat="45.946750025210534" lon="12.88463102757389"><ele>41.0</ele><time>2026-04-02T16:47:23Z</time></trkpt><trkpt lat="45.94673016139164" lon="12.884398903838362"><ele>41.0</ele><time>2026-04-02T16:47:24Z</time></trkpt><trkpt lat="45.94671596220539" lon="12.884175066773112"><ele>41.0</ele><time>2026-04-02T16:47:25Z</time></trkpt><trkpt lat="45.94668511678385" lon="12.883956352921787"><ele>41.0</ele><time>2026-04-02T16:47:26Z</time></trkpt><trkpt lat="45.94665248259196" lon="12.883729838789334"><ele>40.666666666666664</ele><time>2026-04-02T16:47:27Z</time></trkpt><trkpt lat="45.946627736971266" lon="12.883509699144838"><ele>40.333333333333336</ele><time>2026-04-02T16:47:28Z</time></trkpt><trkpt lat="45.946605448769745" lon="12.883287178595157"><ele>40.0</ele><time>2026-04-02T16:47:29Z</time></trkpt><trkpt lat="45.946583217242726" lon="12.883066482209673"><ele>40.0</ele><time>2026-04-02T16:47:30Z</time></trkpt><trkpt lat="45.946563636061306" lon="12.88284319816869"><ele>40.0</ele><time>2026-04-02T16:47:31Z</time></trkpt><trkpt lat="45.94653390675411" lon="12.882618800885464"><ele>40.0</ele><time>2026-04-02T16:47:32Z</time></trkpt><trkpt lat="45.94650346601251" lon="12.882399693527356"><ele>40.0</ele><time>2026-04-02T16:47:33Z</time></trkpt><trkpt lat="45.94647811944712" lon="12.8821911780064"><ele>40.0</ele><time>2026-04-02T16:47:34Z</time></trkpt><trkpt lat="45.94645669979518" lon="12.881999621960412"><ele>40.0</ele><time>2026-04-02T16:47:35Z</time></trkpt><trkpt lat="45.94643743527236" lon="12.881819525884417"><ele>40.0</ele><time>2026-04-02T16:47:36Z</time></trkpt><trkpt lat="45.94641884417236" lon="12.881651762533602"><ele>39.6</ele><time>2026-04-02T16:47:37Z</time></trkpt><trkpt lat="45.946399380402205" lon="12.881487403659943"><ele>39.2</ele><time>2026-04-02T16:47:38Z</time></trkpt><trkpt lat="45.94638056461683" lon="12.881329990772567"><ele>38.8</ele><time>2026-04-02T16:47:39Z</time></trkpt><trkpt lat="45.946363285035375" lon="12.881186806988662"><ele>38.4</ele><time>2026-04-02T16:47:40Z</time></trkpt><trkpt lat="45.94635736887747" lon="12.881053600841664"><ele>38.0</ele><time>2026-04-02T16:47:41Z</time></trkpt><trkpt lat="45.94637828839384" lon="12.880945260141326"><ele>38.199999999999996</ele><time>2026-04-02T16:47:42Z</time></trkpt><trkpt lat="45.94642856980822" lon="12.880831564591757"><ele>38.4</ele><time>2026-04-02T16:47:43Z</time></trkpt><trkpt lat="45.94649186726511" lon="12.880720226902186"><ele>38.599999999999994</ele><time>2026-04-02T16:47:44Z</time></trkpt><trkpt lat="45.946565282000876" lon="12.88063997880004"><ele>38.8</ele><time>2026-04-02T16:47:45Z</time></trkpt><trkpt lat="45.94662901358652" lon="12.880520976216268"><ele>39.0</ele><time>2026-04-02T16:47:46Z</time></trkpt><trkpt lat="45.946676354318235" lon="12.880381024980306"><ele>39.0</ele><time>2026-04-02T16:47:47Z</time></trkpt><trkpt lat="45.94670205150687" lon="12.880223227473637"><ele>39.0</ele><time>2026-04-02T16:47:48Z</time></trkpt><trkpt lat="45.946724673892895" lon="12.880063551232675"><ele>39.0</ele><time>2026-04-02T16:47:49Z</time></trkpt><trkpt lat="45.94668387792141" lon="12.879902248839057"><ele>39.0</ele><time>2026-04-02T16:47:50Z</time></trkpt><trkpt lat="45.946635040359695" lon="12.879747931605575"><ele>39.25</ele><time>2026-04-02T16:47:51Z</time></trkpt><trkpt lat="45.94656444758113" lon="12.879599559849005"><ele>39.5</ele><time>2026-04-02T16:47:52Z</time></trkpt><trkpt lat="45.9464761258944" lon="12.879452390679836"><ele>39.75</ele><time>2026-04-02T16:47:53Z</time></trkpt><trkpt lat="45.946399875247714" lon="12.879285324902922"><ele>40.0</ele><time>2026-04-02T16:47:54Z</time></trkpt><trkpt lat="45.94634430550742" lon="12.879086305393304"><ele>40.0</ele><time>2026-04-02T16:47:55Z</time></trkpt><trkpt lat="45.9462948477314" lon="12.878870336128069"><ele>40.0</ele><time>2026-04-02T16:47:56Z</time></trkpt><trkpt lat="45.946237429495355" lon="12.878652637625418"><ele>40.0</ele><time>2026-04-02T16:47:57Z</time></trkpt><trkpt lat="45.94618739351143" lon="12.878480637479825"><ele>40.0</ele><time>2026-04-02T16:47:58Z</time></trkpt><trkpt lat="45.946141606331054" lon="12.878263437194613"><ele>40.0</ele><time>2026-04-02T16:47:59Z</time></trkpt><trkpt lat="45.946098559009066" lon="12.878071847432652"><ele>40.0</ele><time>2026-04-02T16:48:00Z</time></trkpt><trkpt lat="45.946049150475396" lon="12.87789339976252"><ele>40.0</ele><time>2026-04-02T16:48:01Z</time></trkpt><trkpt lat="45.94600607853765" lon="12.877708685758256"><ele>40.333333333333336</ele><time>2026-04-02T16:48:02Z</time></trkpt><trkpt lat="45.945969233505735" lon="12.877510060560887"><ele>40.666666666666664</ele><time>2026-04-02T16:48:03Z</time></trkpt><trkpt lat="45.94595592032821" lon="12.877293195889555"><ele>41.0</ele><time>2026-04-02T16:48:04Z</time></trkpt><trkpt lat="45.94592376858299" lon="12.877049653430245"><ele>41.0</ele><time>2026-04-02T16:48:05Z</time></trkpt><trkpt lat="45.94590018247194" lon="12.876815698249965"><ele>41.0</ele><time>2026-04-02T16:48:06Z</time></trkpt><trkpt lat="45.94586975146632" lon="12.87658196050803"><ele>41.0</ele><time>2026-04-02T16:48:07Z</time></trkpt><trkpt lat="45.945835207709" lon="12.876349632553408"><ele>41.0</ele><time>2026-04-02T16:48:08Z</time></trkpt><trkpt lat="45.94580593330399" lon="12.87610371174297"><ele>41.0</ele><time>2026-04-02T16:48:09Z</time></trkpt><trkpt lat="45.945780073113674" lon="12.875859352076576"><ele>41.0</ele><time>2026-04-02T16:48:10Z</time></trkpt><trkpt lat="45.94575927296614" lon="12.875614540238502"><ele>41.0</ele><time>2026-04-02T16:48:11Z</time></trkpt><trkpt lat="45.94572853584054" lon="12.875366051510278"><ele>41.0</ele><time>2026-04-02T16:48:12Z</time></trkpt><trkpt lat="45.945703720655985" lon="12.8751221770881"><ele>41.0</ele><time>2026-04-02T16:48:13Z</time></trkpt><trkpt lat="45.94567466070089" lon="12.8748789451294"><ele>41.33333333333333</ele><time>2026-04-02T16:48:14Z</time></trkpt><trkpt lat="45.94564611638528" lon="12.874637284025267"><ele>41.666666666666664</ele><time>2026-04-02T16:48:15Z</time></trkpt><trkpt lat="45.94562249736765" lon="12.874401644070945"><ele>42.0</ele><time>2026-04-02T16:48:16Z</time></trkpt><trkpt lat="45.94560010928345" lon="12.874175298808934"><ele>41.0</ele><time>2026-04-02T16:48:17Z</time></trkpt><trkpt lat="45.9455731070207" lon="12.873939594514026"><ele>40.0</ele><time>2026-04-02T16:48:18Z</time></trkpt><trkpt lat="45.945548138611876" lon="12.873708156547837"><ele>39.0</ele><time>2026-04-02T16:48:19Z</time></trkpt><trkpt lat="45.945521926579694" lon="12.873471969904115"><ele>39.333333333333336</ele><time>2026-04-02T16:48:20Z</time></trkpt><trkpt lat="45.94549578110128" lon="12.87323582273982"><ele>39.66666666666667</ele><time>2026-04-02T16:48:21Z</time></trkpt><trkpt lat="45.94547053284047" lon="12.87300575243842"><ele>40.0</ele><time>2026-04-02T16:48:22Z</time></trkpt><trkpt lat="45.945447243550184" lon="12.872781694128312"><ele>39.66666666666667</ele><time>2026-04-02T16:48:23Z</time></trkpt><trkpt lat="45.94541833475358" lon="12.872551599296978"><ele>39.333333333333336</ele><time>2026-04-02T16:48:24Z</time></trkpt><trkpt lat="45.94539363759264" lon="12.872333246300975"><ele>39.0</ele><time>2026-04-02T16:48:25Z</time></trkpt><trkpt lat="45.945368400227096" lon="12.872112028120638"><ele>39.0</ele><time>2026-04-02T16:48:26Z</time></trkpt><trkpt lat="45.945339271709344" lon="12.871895783774596"><ele>39.0</ele><time>2026-04-02T16:48:27Z</time></trkpt><trkpt lat="45.94531297373032" lon="12.87167945506067"><ele>39.0</ele><time>2026-04-02T16:48:28Z</time></trkpt><trkpt lat="45.945289528850125" lon="12.871464823073461"><ele>39.25</ele><time>2026-04-02T16:48:29Z</time></trkpt><trkpt lat="45.94526483650164" lon="12.87126932163748"><ele>39.5</ele><time>2026-04-02T16:48:30Z</time></trkpt><trkpt lat="45.945245805118226" lon="12.871084854531217"><ele>39.75</ele><time>2026-04-02T16:48:31Z</time></trkpt><trkpt lat="45.94523849304987" lon="12.870910201052569"><ele>40.0</ele><time>2026-04-02T16:48:32Z</time></trkpt><trkpt lat="45.945215772677955" lon="12.870735487737758"><ele>39.75</ele><time>2026-04-02T16:48:33Z</time></trkpt><trkpt lat="45.94519656079411" lon="12.870558100145452"><ele>39.5</ele><time>2026-04-02T16:48:34Z</time></trkpt><trkpt lat="45.94518105764292" lon="12.87038952115517"><ele>39.25</ele><time>2026-04-02T16:48:35Z</time></trkpt><trkpt lat="45.945230131147" lon="12.870200541887767"><ele>39.0</ele><time>2026-04-02T16:48:36Z</time></trkpt><trkpt lat="45.9452663230211" lon="12.870055540834523"><ele>39.0</ele><time>2026-04-02T16:48:37Z</time></trkpt><trkpt lat="45.94531703451935" lon="12.869883413095838"><ele>39.0</ele><time>2026-04-02T16:48:38Z</time></trkpt><trkpt lat="45.94538753829516" lon="12.869747884724815"><ele>39.0</ele><time>2026-04-02T16:48:39Z</time></trkpt><trkpt lat="45.94543867193039" lon="12.86965597303418"><ele>39.0</ele><time>2026-04-02T16:48:40Z</time></trkpt><trkpt lat="45.945484232272186" lon="12.869585107370185"><ele>39.0</ele><time>2026-04-02T16:48:41Z</time></trkpt><trkpt lat="45.94548510597531" lon="12.869484131175305"><ele>39.0</ele><time>2026-04-02T16:48:42Z</time></trkpt><trkpt lat="45.945524989934604" lon="12.869395408142276"><ele>39.0</ele><time>2026-04-02T16:48:43Z</time></trkpt><trkpt lat="45.94551906760213" lon="12.869293956344533"><ele>39.0</ele><time>2026-04-02T16:48:44Z</time></trkpt><trkpt lat="45.945489550091345" lon="12.869130463355038"><ele>39.0</ele><time>2026-04-02T16:48:46Z</time></trkpt><trkpt lat="45.94545017264631" lon="12.869041082061894"><ele>39.0</ele><time>2026-04-02T16:48:47Z</time></trkpt><trkpt lat="45.94537518806947" lon="12.868951135647654"><ele>39.0</ele><time>2026-04-02T16:48:48Z</time></trkpt><trkpt lat="45.94527206355735" lon="12.86887754475223"><ele>39.0</ele><time>2026-04-02T16:48:49Z</time></trkpt><trkpt lat="45.945136231427256" lon="12.868841281364992"><ele>39.0</ele><time>2026-04-02T16:48:50Z</time></trkpt><trkpt lat="45.9450214326341" lon="12.868835066876757"><ele>39.0</ele><time>2026-04-02T16:48:51Z</time></trkpt><trkpt lat="45.94493854177564" lon="12.868844037125374"><ele>39.0</ele><time>2026-04-02T16:48:52Z</time></trkpt><trkpt lat="45.94484174943914" lon="12.868818398021904"><ele>39.0</ele><time>2026-04-02T16:48:53Z</time></trkpt><trkpt lat="45.944831963371826" lon="12.868591763920465"><ele>38.6</ele><time>2026-04-02T16:48:54Z</time></trkpt><trkpt lat="45.944783001027886" lon="12.868415674602925"><ele>38.2</ele><time>2026-04-02T16:48:55Z</time></trkpt><trkpt lat="45.94475230966821" lon="12.868282866444916"><ele>37.800000000000004</ele><time>2026-04-02T16:48:56Z</time></trkpt><trkpt lat="45.94472844391976" lon="12.868146582080268"><ele>37.4</ele><time>2026-04-02T16:48:57Z</time></trkpt><trkpt lat="45.94469068134784" lon="12.8680034399821"><ele>37.0</ele><time>2026-04-02T16:48:58Z</time></trkpt><trkpt lat="45.944644137610645" lon="12.867833037420828"><ele>37.0</ele><time>2026-04-02T16:48:59Z</time></trkpt><trkpt lat="45.94459792708002" lon="12.867668693317146"><ele>37.0</ele><time>2026-04-02T16:49:00Z</time></trkpt><trkpt lat="45.9445384162814" lon="12.867438238682121"><ele>37.0</ele><time>2026-04-02T16:49:01Z</time></trkpt><trkpt lat="45.94447109158767" lon="12.867219700558733"><ele>37.0</ele><time>2026-04-02T16:49:02Z</time></trkpt><trkpt lat="45.944419862912994" lon="12.867017270718687"><ele>37.0</ele><time>2026-04-02T16:49:03Z</time></trkpt><trkpt lat="45.94440411248453" lon="12.866833239402098"><ele>37.0</ele><time>2026-04-02T16:49:04Z</time></trkpt><trkpt lat="45.94431865057022" lon="12.866621104484967"><ele>37.0</ele><time>2026-04-02T16:49:05Z</time></trkpt><trkpt lat="45.94425538491226" lon="12.866413581912465"><ele>36.66666666666667</ele><time>2026-04-02T16:49:06Z</time></trkpt><trkpt lat="45.94418576765631" lon="12.866188700867893"><ele>36.333333333333336</ele><time>2026-04-02T16:49:07Z</time></trkpt><trkpt lat="45.94412428241348" lon="12.865967073544189"><ele>36.0</ele><time>2026-04-02T16:49:08Z</time></trkpt><trkpt lat="45.94406672010864" lon="12.865741326409351"><ele>35.333333333333336</ele><time>2026-04-02T16:49:09Z</time></trkpt><trkpt lat="45.94400883715518" lon="12.865522039308113"><ele>34.66666666666667</ele><time>2026-04-02T16:49:10Z</time></trkpt><trkpt lat="45.943947066709335" lon="12.865324203296716"><ele>34.0</ele><time>2026-04-02T16:49:11Z</time></trkpt><trkpt lat="45.943878051426" lon="12.865132796664334"><ele>34.66666666666667</ele><time>2026-04-02T16:49:12Z</time></trkpt><trkpt lat="45.94378175950116" lon="12.864932086548206"><ele>35.333333333333336</ele><time>2026-04-02T16:49:13Z</time></trkpt><trkpt lat="45.94368252270134" lon="12.864758843029572"><ele>36.0</ele><time>2026-04-02T16:49:14Z</time></trkpt><trkpt lat="45.94354999149426" lon="12.864523155506701"><ele>36.0</ele><time>2026-04-02T16:49:15Z</time></trkpt><trkpt lat="45.94344395507118" lon="12.864317201677872"><ele>36.0</ele><time>2026-04-02T16:49:16Z</time></trkpt><trkpt lat="45.943356213321266" lon="12.864138733201928"><ele>36.0</ele><time>2026-04-02T16:49:17Z</time></trkpt><trkpt lat="45.94329678533668" lon="12.86393445027161"><ele>36.0</ele><time>2026-04-02T16:49:18Z</time></trkpt><trkpt lat="45.94323863144676" lon="12.863773518307053"><ele>36.0</ele><time>2026-04-02T16:49:19Z</time></trkpt><trkpt lat="45.94315928322474" lon="12.863617006029811"><ele>36.0</ele><time>2026-04-02T16:49:20Z</time></trkpt><trkpt lat="45.94301017554277" lon="12.863387180771346"><ele>36.333333333333336</ele><time>2026-04-02T16:49:21Z</time></trkpt><trkpt lat="45.94288528318946" lon="12.863165320230506"><ele>36.66666666666667</ele><time>2026-04-02T16:49:22Z</time></trkpt><trkpt lat="45.94276024522341" lon="12.862982710294117"><ele>37.0</ele><time>2026-04-02T16:49:23Z</time></trkpt><trkpt lat="45.94264805490305" lon="12.862820437487112"><ele>37.0</ele><time>2026-04-02T16:49:24Z</time></trkpt><trkpt lat="45.942549363335516" lon="12.862678894412316"><ele>37.0</ele><time>2026-04-02T16:49:25Z</time></trkpt><trkpt lat="45.9424323099989" lon="12.862512847070263"><ele>37.0</ele><time>2026-04-02T16:49:26Z</time></trkpt><trkpt lat="45.94231331148643" lon="12.862361959992391"><ele>36.66666666666667</ele><time>2026-04-02T16:49:27Z</time></trkpt><trkpt lat="45.9421627172769" lon="12.862226661953063"><ele>36.333333333333336</ele><time>2026-04-02T16:49:28Z</time></trkpt><trkpt lat="45.94197774789217" lon="12.862093765363458"><ele>36.0</ele><time>2026-04-02T16:49:29Z</time></trkpt><trkpt lat="45.94177498857494" lon="12.861982979158094"><ele>35.666666666666664</ele><time>2026-04-02T16:49:30Z</time></trkpt><trkpt lat="45.941598397923826" lon="12.861881898632149"><ele>35.33333333333333</ele><time>2026-04-02T16:49:31Z</time></trkpt><trkpt lat="45.94143973878789" lon="12.861779995467591"><ele>35.0</ele><time>2026-04-02T16:49:32Z</time></trkpt><trkpt lat="45.94129696192397" lon="12.861674349964792"><ele>35.666666666666664</ele><time>2026-04-02T16:49:33Z</time></trkpt><trkpt lat="45.94116193562952" lon="12.861548399925473"><ele>36.333333333333336</ele><time>2026-04-02T16:49:34Z</time></trkpt><trkpt lat="45.94104520729775" lon="12.861403123909112"><ele>37.0</ele><time>2026-04-02T16:49:35Z</time></trkpt><trkpt lat="45.94092624379728" lon="12.861260198283139"><ele>36.66666666666667</ele><time>2026-04-02T16:49:36Z</time></trkpt><trkpt lat="45.94079791825237" lon="12.861129681534814"><ele>36.333333333333336</ele><time>2026-04-02T16:49:37Z</time></trkpt><trkpt lat="45.94066115385825" lon="12.861041263146527"><ele>36.0</ele><time>2026-04-02T16:49:38Z</time></trkpt><trkpt lat="45.94052403742672" lon="12.860972344584537"><ele>35.5</ele><time>2026-04-02T16:49:39Z</time></trkpt><trkpt lat="45.94039305755166" lon="12.86091858655391"><ele>35.0</ele><time>2026-04-02T16:49:40Z</time></trkpt><trkpt lat="45.94026449150344" lon="12.860880302311655"><ele>34.5</ele><time>2026-04-02T16:49:41Z</time></trkpt><trkpt lat="45.940129088111654" lon="12.860848540429133"><ele>34.0</ele><time>2026-04-02T16:49:42Z</time></trkpt><trkpt lat="45.940006041555804" lon="12.860829974828798"><ele>34.0</ele><time>2026-04-02T16:49:43Z</time></trkpt><trkpt lat="45.93988940126037" lon="12.860821625004409"><ele>34.0</ele><time>2026-04-02T16:49:44Z</time></trkpt><trkpt lat="45.939782300726215" lon="12.86080498701072"><ele>34.0</ele><time>2026-04-02T16:49:45Z</time></trkpt><trkpt lat="45.93968065041604" lon="12.860773561479375"><ele>34.0</ele><time>2026-04-02T16:49:46Z</time></trkpt><trkpt lat="45.93958647459228" lon="12.860730809810214"><ele>34.0</ele><time>2026-04-02T16:49:47Z</time></trkpt><trkpt lat="45.93949245428169" lon="12.860671500567806"><ele>34.0</ele><time>2026-04-02T16:49:48Z</time></trkpt><trkpt lat="45.93939999327568" lon="12.860589168436306"><ele>34.0</ele><time>2026-04-02T16:49:49Z</time></trkpt><trkpt lat="45.93931098642761" lon="12.860482072820755"><ele>34.0</ele><time>2026-04-02T16:49:50Z</time></trkpt><trkpt lat="45.939231882440076" lon="12.860317764426808"><ele>34.0</ele><time>2026-04-02T16:49:51Z</time></trkpt><trkpt lat="45.93912294260544" lon="12.860155943988392"><ele>33.66666666666667</ele><time>2026-04-02T16:49:52Z</time></trkpt><trkpt lat="45.93901750565277" lon="12.859978750136115"><ele>33.333333333333336</ele><time>2026-04-02T16:49:53Z</time></trkpt><trkpt lat="45.938907320342096" lon="12.859811868812509"><ele>33.0</ele><time>2026-04-02T16:49:54Z</time></trkpt><trkpt lat="45.93880525481772" lon="12.859666666100413"><ele>33.0</ele><time>2026-04-02T16:49:55Z</time></trkpt><trkpt lat="45.938703452919974" lon="12.85952216223031"><ele>33.0</ele><time>2026-04-02T16:49:56Z</time></trkpt><trkpt lat="45.938588675478705" lon="12.859391744159431"><ele>33.0</ele><time>2026-04-02T16:49:57Z</time></trkpt><trkpt lat="45.938501621260215" lon="12.859279227497353"><ele>33.0</ele><time>2026-04-02T16:49:58Z</time></trkpt><trkpt lat="45.938386232207144" lon="12.85919809323494"><ele>33.333333333333336</ele><time>2026-04-02T16:49:59Z</time></trkpt><trkpt lat="45.93825320247331" lon="12.85912190925923"><ele>33.66666666666667</ele><time>2026-04-02T16:50:00Z</time></trkpt><trkpt lat="45.93809430414964" lon="12.859068068777653"><ele>34.0</ele><time>2026-04-02T16:50:01Z</time></trkpt><trkpt lat="45.93791120908185" lon="12.859039955027587"><ele>34.0</ele><time>2026-04-02T16:50:02Z</time></trkpt><trkpt lat="45.93772296770554" lon="12.858997629087776"><ele>34.0</ele><time>2026-04-02T16:50:03Z</time></trkpt><trkpt lat="45.937579313364346" lon="12.85895776208462"><ele>34.0</ele><time>2026-04-02T16:50:04Z</time></trkpt><trkpt lat="45.9374219337384" lon="12.858903824075188"><ele>35.0</ele><time>2026-04-02T16:50:05Z</time></trkpt><trkpt lat="45.9372426439624" lon="12.858858693360343"><ele>36.0</ele><time>2026-04-02T16:50:06Z</time></trkpt><trkpt lat="45.937080557662945" lon="12.85884092771012"><ele>37.0</ele><time>2026-04-02T16:50:07Z</time></trkpt><trkpt lat="45.93692889852749" lon="12.858834944652664"><ele>37.0</ele><time>2026-04-02T16:50:08Z</time></trkpt><trkpt lat="45.93679974189609" lon="12.85882365317536"><ele>37.0</ele><time>2026-04-02T16:50:09Z</time></trkpt><trkpt lat="45.9366350925201" lon="12.858800177512315"><ele>37.0</ele><time>2026-04-02T16:50:10Z</time></trkpt><trkpt lat="45.936464335991914" lon="12.85879258673993"><ele>36.75</ele><time>2026-04-02T16:50:11Z</time></trkpt><trkpt lat="45.936308459692704" lon="12.858772992496343"><ele>36.5</ele><time>2026-04-02T16:50:12Z</time></trkpt><trkpt lat="45.93617573309689" lon="12.85876421969532"><ele>36.25</ele><time>2026-04-02T16:50:13Z</time></trkpt><trkpt lat="45.936047024443226" lon="12.85875785463261"><ele>36.0</ele><time>2026-04-02T16:50:14Z</time></trkpt><trkpt lat="45.93592855587629" lon="12.858750187057222"><ele>35.6</ele><time>2026-04-02T16:50:15Z</time></trkpt><trkpt lat="45.93582143105899" lon="12.85874383519726"><ele>35.2</ele><time>2026-04-02T16:50:16Z</time></trkpt><trkpt lat="45.93572697310468" lon="12.858731693786277"><ele>34.8</ele><time>2026-04-02T16:50:17Z</time></trkpt><trkpt lat="45.9356435957237" lon="12.858683499921147"><ele>34.4</ele><time>2026-04-02T16:50:18Z</time></trkpt><trkpt lat="45.935588285351464" lon="12.858596618108198"><ele>34.0</ele><time>2026-04-02T16:50:19Z</time></trkpt><trkpt lat="45.93550400503204" lon="12.858473706410942"><ele>34.0</ele><time>2026-04-02T16:50:20Z</time></trkpt><trkpt lat="45.935421579765105" lon="12.858298676711179"><ele>34.0</ele><time>2026-04-02T16:50:21Z</time></trkpt><trkpt lat="45.93534174511633" lon="12.85808357705827"><ele>34.0</ele><time>2026-04-02T16:50:22Z</time></trkpt><trkpt lat="45.93525098110437" lon="12.857850661779795"><ele>34.0</ele><time>2026-04-02T16:50:23Z</time></trkpt><trkpt lat="45.935146576097075" lon="12.85763315909198"><ele>34.0</ele><time>2026-04-02T16:50:24Z</time></trkpt><trkpt lat="45.935040606562815" lon="12.857381612440216"><ele>34.0</ele><time>2026-04-02T16:50:25Z</time></trkpt><trkpt lat="45.934945567603144" lon="12.8571574510956"><ele>33.333333333333336</ele><time>2026-04-02T16:50:26Z</time></trkpt><trkpt lat="45.93486757757968" lon="12.856974421887355"><ele>32.666666666666664</ele><time>2026-04-02T16:50:27Z</time></trkpt><trkpt lat="45.93478950326233" lon="12.856759646746598"><ele>32.0</ele><time>2026-04-02T16:50:28Z</time></trkpt><trkpt lat="45.93469321871086" lon="12.856582049740462"><ele>32.0</ele><time>2026-04-02T16:50:29Z</time></trkpt><trkpt lat="45.93462632327899" lon="12.856381694773162"><ele>32.0</ele><time>2026-04-02T16:50:30Z</time></trkpt><trkpt lat="45.934542327082646" lon="12.856189738980243"><ele>32.0</ele><time>2026-04-02T16:50:31Z</time></trkpt><trkpt lat="45.934459465924995" lon="12.855989249895181"><ele>32.0</ele><time>2026-04-02T16:50:32Z</time></trkpt><trkpt lat="45.93437567276114" lon="12.85579363439393"><ele>32.0</ele><time>2026-04-02T16:50:33Z</time></trkpt><trkpt lat="45.93428587992842" lon="12.8555910392456"><ele>32.0</ele><time>2026-04-02T16:50:34Z</time></trkpt><trkpt lat="45.93417639046131" lon="12.855361787395157"><ele>32.0</ele><time>2026-04-02T16:50:35Z</time></trkpt><trkpt lat="45.93404720432393" lon="12.85513453025065"><ele>32.0</ele><time>2026-04-02T16:50:36Z</time></trkpt><trkpt lat="45.93391758151864" lon="12.854937591122997"><ele>32.0</ele><time>2026-04-02T16:50:37Z</time></trkpt><trkpt lat="45.933796144937496" lon="12.854760245611681"><ele>32.0</ele><time>2026-04-02T16:50:38Z</time></trkpt><trkpt lat="45.93368873562982" lon="12.854548206947527"><ele>32.0</ele><time>2026-04-02T16:50:39Z</time></trkpt><trkpt lat="45.93358568116438" lon="12.85430591897103"><ele>32.0</ele><time>2026-04-02T16:50:40Z</time></trkpt><trkpt lat="45.93350750328941" lon="12.854075216086972"><ele>31.75</ele><time>2026-04-02T16:50:41Z</time></trkpt><trkpt lat="45.93344134789281" lon="12.853886958716677"><ele>31.5</ele><time>2026-04-02T16:50:42Z</time></trkpt><trkpt lat="45.93336326643227" lon="12.853730893611328"><ele>31.25</ele><time>2026-04-02T16:50:43Z</time></trkpt><trkpt lat="45.933314143384514" lon="12.85354668815107"><ele>31.0</ele><time>2026-04-02T16:50:44Z</time></trkpt><trkpt lat="45.93326854498865" lon="12.85336436930034"><ele>31.5</ele><time>2026-04-02T16:50:45Z</time></trkpt><trkpt lat="45.93325598916376" lon="12.85317775001325"><ele>32.0</ele><time>2026-04-02T16:50:46Z</time></trkpt><trkpt lat="45.93325415365741" lon="12.852986827098814"><ele>32.5</ele><time>2026-04-02T16:50:47Z</time></trkpt><trkpt lat="45.933249307887635" lon="12.852793838606068"><ele>33.0</ele><time>2026-04-02T16:50:48Z</time></trkpt><trkpt lat="45.93325379029371" lon="12.852615645807296"><ele>33.0</ele><time>2026-04-02T16:50:49Z</time></trkpt><trkpt lat="45.93327579618938" lon="12.852432335720982"><ele>33.0</ele><time>2026-04-02T16:50:50Z</time></trkpt><trkpt lat="45.93331381274322" lon="12.85225783469228"><ele>33.0</ele><time>2026-04-02T16:50:51Z</time></trkpt><trkpt lat="45.93334585569647" lon="12.852101661867085"><ele>33.0</ele><time>2026-04-02T16:50:52Z</time></trkpt><trkpt lat="45.93336391311419" lon="12.851951013812982"><ele>33.0</ele><time>2026-04-02T16:50:53Z</time></trkpt><trkpt lat="45.93337783734547" lon="12.851797633766486"><ele>33.0</ele><time>2026-04-02T16:50:54Z</time></trkpt><trkpt lat="45.933375419827314" lon="12.85164011533593"><ele>33.0</ele><time>2026-04-02T16:50:55Z</time></trkpt><trkpt lat="45.93334822230226" lon="12.85148113892473"><ele>33.0</ele><time>2026-04-02T16:50:56Z</time></trkpt><trkpt lat="45.93329262404155" lon="12.851298141435896"><ele>33.333333333333336</ele><time>2026-04-02T16:50:57Z</time></trkpt><trkpt lat="45.933217730494164" lon="12.851090554454085"><ele>33.66666666666667</ele><time>2026-04-02T16:50:58Z</time></trkpt><trkpt lat="45.93316357334022" lon="12.85087609010372"><ele>34.0</ele><time>2026-04-02T16:50:59Z</time></trkpt><trkpt lat="45.93309572793391" lon="12.850709291397967"><ele>34.0</ele><time>2026-04-02T16:51:00Z</time></trkpt><trkpt lat="45.93305146915129" lon="12.850535541727579"><ele>34.0</ele><time>2026-04-02T16:51:01Z</time></trkpt><trkpt lat="45.933005609593" lon="12.850362418007926"><ele>34.0</ele><time>2026-04-02T16:51:02Z</time></trkpt><trkpt lat="45.9329612791883" lon="12.850209008216416"><ele>34.0</ele><time>2026-04-02T16:51:03Z</time></trkpt><trkpt lat="45.932930800159035" lon="12.850054852180945"><ele>33.5</ele><time>2026-04-02T16:51:04Z</time></trkpt><trkpt lat="45.93291157923196" lon="12.849890836550903"><ele>33.0</ele><time>2026-04-02T16:51:05Z</time></trkpt><trkpt lat="45.93289898330402" lon="12.849725971373708"><ele>32.5</ele><time>2026-04-02T16:51:06Z</time></trkpt><trkpt lat="45.932891806684665" lon="12.84956552081945"><ele>32.0</ele><time>2026-04-02T16:51:07Z</time></trkpt><trkpt lat="45.9329073059574" lon="12.849387525498637"><ele>32.0</ele><time>2026-04-02T16:51:08Z</time></trkpt><trkpt lat="45.932916648059695" lon="12.849235382302613"><ele>32.0</ele><time>2026-04-02T16:51:09Z</time></trkpt><trkpt lat="45.93292962349939" lon="12.849091769016058"><ele>32.0</ele><time>2026-04-02T16:51:10Z</time></trkpt><trkpt lat="45.93293806761712" lon="12.84894324317209"><ele>32.0</ele><time>2026-04-02T16:51:11Z</time></trkpt><trkpt lat="45.9329343335417" lon="12.848823314605042"><ele>32.0</ele><time>2026-04-02T16:51:12Z</time></trkpt><trkpt lat="45.932911573104995" lon="12.848720665200808"><ele>32.0</ele><time>2026-04-02T16:51:13Z</time></trkpt><trkpt lat="45.93287945249227" lon="12.848562331227205"><ele>32.0</ele><time>2026-04-02T16:51:15Z</time></trkpt><trkpt lat="45.93285644075479" lon="12.84845416843568"><ele>32.0</ele><time>2026-04-02T16:51:16Z</time></trkpt><trkpt lat="45.93285596924582" lon="12.84836072597803"><ele>32.0</ele><time>2026-04-02T16:51:17Z</time></trkpt><trkpt lat="45.932855691542485" lon="12.848216654896348"><ele>32.0</ele><time>2026-04-02T16:51:19Z</time></trkpt><trkpt lat="45.932903151425876" lon="12.848093984959135"><ele>32.25</ele><time>2026-04-02T16:51:20Z</time></trkpt><trkpt lat="45.9329847604475" lon="12.848006581734426"><ele>32.5</ele><time>2026-04-02T16:51:21Z</time></trkpt><trkpt lat="45.93307277886622" lon="12.847866650152852"><ele>32.75</ele><time>2026-04-02T16:51:22Z</time></trkpt><trkpt lat="45.933148778589896" lon="12.847692184482025"><ele>33.0</ele><time>2026-04-02T16:51:23Z</time></trkpt><trkpt lat="45.93320315262133" lon="12.847486207801943"><ele>33.333333333333336</ele><time>2026-04-02T16:51:24Z</time></trkpt><trkpt lat="45.933231741975035" lon="12.84726546258832"><ele>33.66666666666667</ele><time>2026-04-02T16:51:25Z</time></trkpt><trkpt lat="45.93324187861087" lon="12.84705717820388"><ele>34.0</ele><time>2026-04-02T16:51:26Z</time></trkpt><trkpt lat="45.93322794480463" lon="12.846825960627648"><ele>34.0</ele><time>2026-04-02T16:51:27Z</time></trkpt><trkpt lat="45.933217369507645" lon="12.846605497173265"><ele>34.0</ele><time>2026-04-02T16:51:28Z</time></trkpt><trkpt lat="45.9332314479236" lon="12.84639818045054"><ele>34.0</ele><time>2026-04-02T16:51:29Z</time></trkpt><trkpt lat="45.93327017069229" lon="12.846198402688927"><ele>34.0</ele><time>2026-04-02T16:51:30Z</time></trkpt><trkpt lat="45.933324684151245" lon="12.846021118910903"><ele>33.5</ele><time>2026-04-02T16:51:31Z</time></trkpt><trkpt lat="45.93339748416474" lon="12.845835442268196"><ele>33.0</ele><time>2026-04-02T16:51:32Z</time></trkpt><trkpt lat="45.933482386348146" lon="12.845680085731045"><ele>32.5</ele><time>2026-04-02T16:51:33Z</time></trkpt><trkpt lat="45.9335593560766" lon="12.845513837674918"><ele>32.0</ele><time>2026-04-02T16:51:34Z</time></trkpt><trkpt lat="45.9336481691077" lon="12.845337214989689"><ele>32.0</ele><time>2026-04-02T16:51:35Z</time></trkpt><trkpt lat="45.93373398358262" lon="12.84515099769513"><ele>32.0</ele><time>2026-04-02T16:51:36Z</time></trkpt><trkpt lat="45.9338287207381" lon="12.84498425324217"><ele>32.0</ele><time>2026-04-02T16:51:37Z</time></trkpt><trkpt lat="45.933905056033744" lon="12.844821972235701"><ele>32.0</ele><time>2026-04-02T16:51:38Z</time></trkpt><trkpt lat="45.93396885394251" lon="12.844684138238536"><ele>32.4</ele><time>2026-04-02T16:51:39Z</time></trkpt><trkpt lat="45.93402539900075" lon="12.844526095425453"><ele>32.800000000000004</ele><time>2026-04-02T16:51:40Z</time></trkpt><trkpt lat="45.934092861730505" lon="12.844419820293236"><ele>33.2</ele><time>2026-04-02T16:51:41Z</time></trkpt><trkpt lat="45.93414299803784" lon="12.844319863583431"><ele>33.6</ele><time>2026-04-02T16:51:42Z</time></trkpt><trkpt lat="45.93420197021536" lon="12.84421798632199"><ele>34.0</ele><time>2026-04-02T16:51:44Z</time></trkpt><trkpt lat="45.93410058615313" lon="12.84404240539108"><ele>34.0</ele><time>2026-04-02T16:51:45Z</time></trkpt><trkpt lat="45.93404174539709" lon="12.843944424511564"><ele>34.0</ele><time>2026-04-02T16:51:46Z</time></trkpt><trkpt lat="45.93398087595762" lon="12.843824285034206"><ele>34.0</ele><time>2026-04-02T16:51:47Z</time></trkpt><trkpt lat="45.93392206182162" lon="12.843713183291317"><ele>34.0</ele><time>2026-04-02T16:51:48Z</time></trkpt><trkpt lat="45.93386856349237" lon="12.843592720690983"><ele>34.0</ele><time>2026-04-02T16:51:49Z</time></trkpt><trkpt lat="45.93382480208515" lon="12.843518483240734"><ele>33.8</ele><time>2026-04-02T16:51:50Z</time></trkpt><trkpt lat="45.93376314045999" lon="12.843446694198855"><ele>33.599999999999994</ele><time>2026-04-02T16:51:51Z</time></trkpt><trkpt lat="45.9337193731819" lon="12.843372495202228"><ele>33.4</ele><time>2026-04-02T16:51:52Z</time></trkpt><trkpt lat="45.93368533416318" lon="12.843244924927266"><ele>33.199999999999996</ele><time>2026-04-02T16:51:54Z</time></trkpt><trkpt lat="45.93379419782581" lon="12.843098663940703"><ele>33.0</ele><time>2026-04-02T16:51:56Z</time></trkpt><trkpt lat="45.93387803232577" lon="12.842994518406673"><ele>33.0</ele><time>2026-04-02T16:51:57Z</time></trkpt><trkpt lat="45.93398448518579" lon="12.842878588231676"><ele>33.0</ele><time>2026-04-02T16:51:58Z</time></trkpt><trkpt lat="45.9340861947516" lon="12.842761356059173"><ele>33.0</ele><time>2026-04-02T16:51:59Z</time></trkpt><trkpt lat="45.93418727704169" lon="12.842632528625073"><ele>33.0</ele><time>2026-04-02T16:52:00Z</time></trkpt><trkpt lat="45.934278176038596" lon="12.842516909042068"><ele>33.0</ele><time>2026-04-02T16:52:01Z</time></trkpt><trkpt lat="45.93436266252088" lon="12.842411330085636"><ele>33.0</ele><time>2026-04-02T16:52:02Z</time></trkpt><trkpt lat="45.93444593783689" lon="12.84231233901033"><ele>33.0</ele><time>2026-04-02T16:52:03Z</time></trkpt><trkpt lat="45.93452193008811" lon="12.842223297437444"><ele>33.0</ele><time>2026-04-02T16:52:04Z</time></trkpt><trkpt lat="45.93458561149116" lon="12.842138435036768"><ele>33.0</ele><time>2026-04-02T16:52:05Z</time></trkpt><trkpt lat="45.934619430905826" lon="12.842046825461287"><ele>33.0</ele><time>2026-04-02T16:52:06Z</time></trkpt><trkpt lat="45.93461636111864" lon="12.84192780513821"><ele>33.0</ele><time>2026-04-02T16:52:07Z</time></trkpt><trkpt lat="45.9345885774567" lon="12.841775733210275"><ele>33.0</ele><time>2026-04-02T16:52:08Z</time></trkpt><trkpt lat="45.93456013792206" lon="12.841617483054057"><ele>33.0</ele><time>2026-04-02T16:52:09Z</time></trkpt><trkpt lat="45.93454993186034" lon="12.84147454760715"><ele>33.0</ele><time>2026-04-02T16:52:10Z</time></trkpt><trkpt lat="45.93453650336544" lon="12.84135889365513"><ele>32.833333333333336</ele><time>2026-04-02T16:52:11Z</time></trkpt><trkpt lat="45.934519883990625" lon="12.841251203604534"><ele>32.666666666666664</ele><time>2026-04-02T16:52:12Z</time></trkpt><trkpt lat="45.93449903173433" lon="12.84111974530927"><ele>32.5</ele><time>2026-04-02T16:52:20Z</time></trkpt><trkpt lat="45.93442583318257" lon="12.841081169467332"><ele>32.33333333333333</ele><time>2026-04-02T16:52:21Z</time></trkpt><trkpt lat="45.93434669661224" lon="12.841038641002614"><ele>32.166666666666664</ele><time>2026-04-02T16:52:22Z</time></trkpt><trkpt lat="45.93423697324445" lon="12.840982136051341"><ele>32.0</ele><time>2026-04-02T16:52:23Z</time></trkpt><trkpt lat="45.93412964871771" lon="12.840912283911713"><ele>32.0</ele><time>2026-04-02T16:52:24Z</time></trkpt><trkpt lat="45.93401395475521" lon="12.840829874320011"><ele>32.0</ele><time>2026-04-02T16:52:25Z</time></trkpt><trkpt lat="45.9338843274504" lon="12.840737411669188"><ele>32.0</ele><time>2026-04-02T16:52:26Z</time></trkpt><trkpt lat="45.93374328738323" lon="12.840640735753219"><ele>32.0</ele><time>2026-04-02T16:52:27Z</time></trkpt><trkpt lat="45.9336143211405" lon="12.840560125009025"><ele>32.0</ele><time>2026-04-02T16:52:28Z</time></trkpt><trkpt lat="45.93348676402074" lon="12.840475178069811"><ele>32.0</ele><time>2026-04-02T16:52:29Z</time></trkpt><trkpt lat="45.93338272384898" lon="12.84038707952236"><ele>32.0</ele><time>2026-04-02T16:52:30Z</time></trkpt><trkpt lat="45.93330873657862" lon="12.84036081533041"><ele>32.0</ele><time>2026-04-02T16:52:31Z</time></trkpt><trkpt lat="45.93323864438285" lon="12.84031230216168"><ele>32.0</ele><time>2026-04-02T16:52:32Z</time></trkpt><trkpt lat="45.93330458365221" lon="12.840186947989029"><ele>32.0</ele><time>2026-04-02T16:52:36Z</time></trkpt><trkpt lat="45.93337879159951" lon="12.840161416013677"><ele>32.0</ele><time>2026-04-02T16:52:37Z</time></trkpt><trkpt lat="45.9335112026613" lon="12.840134477923078"><ele>32.0</ele><time>2026-04-02T16:52:38Z</time></trkpt><trkpt lat="45.933603990926855" lon="12.840128814160952"><ele>32.0</ele><time>2026-04-02T16:52:39Z</time></trkpt><trkpt lat="45.93370976560093" lon="12.840109199933691"><ele>32.0</ele><time>2026-04-02T16:52:40Z</time></trkpt><trkpt lat="45.93383334571576" lon="12.84006204254916"><ele>31.75</ele><time>2026-04-02T16:52:41Z</time></trkpt><trkpt lat="45.93396582673534" lon="12.8400004746169"><ele>31.5</ele><time>2026-04-02T16:52:42Z</time></trkpt><trkpt lat="45.934102768682465" lon="12.839944744273053"><ele>31.25</ele><time>2026-04-02T16:52:43Z</time></trkpt><trkpt lat="45.934210803667256" lon="12.839887519527963"><ele>31.0</ele><time>2026-04-02T16:52:44Z</time></trkpt><trkpt lat="45.93430697785765" lon="12.839838193640798"><ele>31.0</ele><time>2026-04-02T16:52:45Z</time></trkpt><trkpt lat="45.934390486036456" lon="12.839798608172334"><ele>31.0</ele><time>2026-04-02T16:52:46Z</time></trkpt><trkpt lat="45.93445825119721" lon="12.83976376624895"><ele>31.0</ele><time>2026-04-02T16:52:47Z</time></trkpt><trkpt lat="45.93457172801667" lon="12.839662538945399"><ele>31.0</ele><time>2026-04-02T16:52:49Z</time></trkpt><trkpt lat="45.934621501261276" lon="12.839555988290233"><ele>31.0</ele><time>2026-04-02T16:52:50Z</time></trkpt><trkpt lat="45.93461312744859" lon="12.83942851549778"><ele>31.25</ele><time>2026-04-02T16:52:51Z</time></trkpt><trkpt lat="45.93458161218026" lon="12.839267689713232"><ele>31.5</ele><time>2026-04-02T16:52:52Z</time></trkpt><trkpt lat="45.934538557355054" lon="12.839098817338899"><ele>31.75</ele><time>2026-04-02T16:52:53Z</time></trkpt><trkpt lat="45.93447275287865" lon="12.83891534266121"><ele>32.0</ele><time>2026-04-02T16:52:54Z</time></trkpt><trkpt lat="45.93440406750214" lon="12.838721252768305"><ele>32.0</ele><time>2026-04-02T16:52:55Z</time></trkpt><trkpt lat="45.934330540708046" lon="12.838528990397002"><ele>32.0</ele><time>2026-04-02T16:52:56Z</time></trkpt><trkpt lat="45.93424530826059" lon="12.83833647927695"><ele>32.0</ele><time>2026-04-02T16:52:57Z</time></trkpt><trkpt lat="45.93418829864264" lon="12.838205465701913"><ele>32.0</ele><time>2026-04-02T16:52:58Z</time></trkpt><trkpt lat="45.93412629491264" lon="12.838107477133125"><ele>31.6</ele><time>2026-04-02T16:52:59Z</time></trkpt><trkpt lat="45.934050800282826" lon="12.838010659778067"><ele>31.200000000000003</ele><time>2026-04-02T16:53:00Z</time></trkpt><trkpt lat="45.93400277604714" lon="12.83791018221413"><ele>30.8</ele><time>2026-04-02T16:53:02Z</time></trkpt><trkpt lat="45.93403766700537" lon="12.837832704994698"><ele>30.4</ele><time>2026-04-02T16:53:04Z</time></trkpt><trkpt lat="45.9341787145519" lon="12.837794378625365"><ele>30.0</ele><time>2026-04-02T16:53:06Z</time></trkpt><trkpt lat="45.93426475178857" lon="12.837716267440975"><ele>30.0</ele><time>2026-04-02T16:53:07Z</time></trkpt><trkpt lat="45.93435996344898" lon="12.837642705041706"><ele>30.0</ele><time>2026-04-02T16:53:08Z</time></trkpt><trkpt lat="45.93447065884493" lon="12.837533034144347"><ele>30.0</ele><time>2026-04-02T16:53:09Z</time></trkpt><trkpt lat="45.93456363517782" lon="12.837442076182544"><ele>30.0</ele><time>2026-04-02T16:53:10Z</time></trkpt><trkpt lat="45.934687662528596" lon="12.837323064484513"><ele>30.0</ele><time>2026-04-02T16:53:11Z</time></trkpt><trkpt lat="45.93479760791973" lon="12.837196257977968"><ele>30.0</ele><time>2026-04-02T16:53:12Z</time></trkpt><trkpt lat="45.93492375778518" lon="12.837049527398284"><ele>30.0</ele><time>2026-04-02T16:53:13Z</time></trkpt><trkpt lat="45.93505783555703" lon="12.836924346606827"><ele>31.0</ele><time>2026-04-02T16:53:14Z</time></trkpt><trkpt lat="45.93518484714416" lon="12.836775297011927"><ele>32.0</ele><time>2026-04-02T16:53:15Z</time></trkpt><trkpt lat="45.93531762701287" lon="12.836646543011545"><ele>33.0</ele><time>2026-04-02T16:53:16Z</time></trkpt><trkpt lat="45.93544649136569" lon="12.836498671001419"><ele>33.0</ele><time>2026-04-02T16:53:17Z</time></trkpt><trkpt lat="45.93556761261163" lon="12.836368936440678"><ele>33.0</ele><time>2026-04-02T16:53:18Z</time></trkpt><trkpt lat="45.935669617288845" lon="12.83626463158265"><ele>33.0</ele><time>2026-04-02T16:53:19Z</time></trkpt><trkpt lat="45.93575495701449" lon="12.836157769153383"><ele>33.0</ele><time>2026-04-02T16:53:20Z</time></trkpt><trkpt lat="45.9358247104736" lon="12.83608840832378"><ele>33.199999999999996</ele><time>2026-04-02T16:53:21Z</time></trkpt><trkpt lat="45.935922084106934" lon="12.835999598734416"><ele>33.4</ele><time>2026-04-02T16:53:22Z</time></trkpt><trkpt lat="45.93599631668108" lon="12.835920105547318"><ele>33.599999999999994</ele><time>2026-04-02T16:53:23Z</time></trkpt><trkpt lat="45.936061470677664" lon="12.835852895831598"><ele>33.8</ele><time>2026-04-02T16:53:24Z</time></trkpt><trkpt lat="45.9361447903236" lon="12.835770541107628"><ele>34.0</ele><time>2026-04-02T16:53:26Z</time></trkpt><trkpt lat="45.936210149690595" lon="12.835673034125369"><ele>34.0</ele><time>2026-04-02T16:53:28Z</time></trkpt><trkpt lat="45.93614542263284" lon="12.835462974547406"><ele>34.0</ele><time>2026-04-02T16:53:29Z</time></trkpt><trkpt lat="45.93610602096117" lon="12.835310667029878"><ele>34.0</ele><time>2026-04-02T16:53:30Z</time></trkpt><trkpt lat="45.93606547709726" lon="12.83515175765181"><ele>34.0</ele><time>2026-04-02T16:53:31Z</time></trkpt><trkpt lat="45.93600326803367" lon="12.834990564265793"><ele>34.0</ele><time>2026-04-02T16:53:32Z</time></trkpt><trkpt lat="45.935974724879465" lon="12.834793755323611"><ele>34.0</ele><time>2026-04-02T16:53:33Z</time></trkpt><trkpt lat="45.93594581948641" lon="12.83459673520501"><ele>34.0</ele><time>2026-04-02T16:53:34Z</time></trkpt><trkpt lat="45.93591422625387" lon="12.834407827066793"><ele>34.0</ele><time>2026-04-02T16:53:35Z</time></trkpt><trkpt lat="45.9358647103923" lon="12.834229229763281"><ele>33.75</ele><time>2026-04-02T16:53:36Z</time></trkpt><trkpt lat="45.935789406439476" lon="12.834068520984113"><ele>33.5</ele><time>2026-04-02T16:53:37Z</time></trkpt><trkpt lat="45.935700181334404" lon="12.833896643304438"><ele>33.25</ele><time>2026-04-02T16:53:38Z</time></trkpt><trkpt lat="45.93561166861273" lon="12.83371022424658"><ele>33.0</ele><time>2026-04-02T16:53:39Z</time></trkpt><trkpt lat="45.93551656709951" lon="12.833509246359052"><ele>32.75</ele><time>2026-04-02T16:53:40Z</time></trkpt><trkpt lat="45.93541968172339" lon="12.833324181754934"><ele>32.5</ele><time>2026-04-02T16:53:41Z</time></trkpt><trkpt lat="45.93533098997257" lon="12.833159214295263"><ele>32.25</ele><time>2026-04-02T16:53:42Z</time></trkpt><trkpt lat="45.93524900731585" lon="12.833005658638983"><ele>32.0</ele><time>2026-04-02T16:53:43Z</time></trkpt><trkpt lat="45.93516960372184" lon="12.83286312206796"><ele>32.0</ele><time>2026-04-02T16:53:44Z</time></trkpt><trkpt lat="45.935081829678175" lon="12.832699660709485"><ele>32.0</ele><time>2026-04-02T16:53:45Z</time></trkpt><trkpt lat="45.93497117209846" lon="12.832533573237912"><ele>32.0</ele><time>2026-04-02T16:53:46Z</time></trkpt><trkpt lat="45.93485132051136" lon="12.832360181613634"><ele>32.33333333333333</ele><time>2026-04-02T16:53:47Z</time></trkpt><trkpt lat="45.934724197085245" lon="12.832169284452599"><ele>32.666666666666664</ele><time>2026-04-02T16:53:48Z</time></trkpt><trkpt lat="45.93460407071693" lon="12.831988577271396"><ele>33.0</ele><time>2026-04-02T16:53:49Z</time></trkpt><trkpt lat="45.93447185522377" lon="12.831810557563754"><ele>32.666666666666664</ele><time>2026-04-02T16:53:50Z</time></trkpt><trkpt lat="45.93434572901138" lon="12.831622525061977"><ele>32.33333333333333</ele><time>2026-04-02T16:53:51Z</time></trkpt><trkpt lat="45.934233681345816" lon="12.831451347903212"><ele>32.0</ele><time>2026-04-02T16:53:52Z</time></trkpt><trkpt lat="45.93412541171438" lon="12.83128619515941"><ele>31.0</ele><time>2026-04-02T16:53:53Z</time></trkpt><trkpt lat="45.93402512328266" lon="12.831132716813258"><ele>30.0</ele><time>2026-04-02T16:53:54Z</time></trkpt><trkpt lat="45.933919258269675" lon="12.830974273565522"><ele>29.0</ele><time>2026-04-02T16:53:55Z</time></trkpt><trkpt lat="45.93381447313853" lon="12.830812555869832"><ele>29.0</ele><time>2026-04-02T16:53:56Z</time></trkpt><trkpt lat="45.93371008430362" lon="12.83062975066236"><ele>29.0</ele><time>2026-04-02T16:53:57Z</time></trkpt><trkpt lat="45.93360384723091" lon="12.830447190615834"><ele>29.0</ele><time>2026-04-02T16:53:58Z</time></trkpt><trkpt lat="45.93351538350871" lon="12.830242583002589"><ele>29.0</ele><time>2026-04-02T16:53:59Z</time></trkpt><trkpt lat="45.93340691463578" lon="12.830062389750555"><ele>29.0</ele><time>2026-04-02T16:54:00Z</time></trkpt><trkpt lat="45.9333115432229" lon="12.82984553047908"><ele>29.0</ele><time>2026-04-02T16:54:01Z</time></trkpt><trkpt lat="45.9332147397356" lon="12.829679732021413"><ele>29.0</ele><time>2026-04-02T16:54:02Z</time></trkpt><trkpt lat="45.93311230815132" lon="12.829536203250624"><ele>29.0</ele><time>2026-04-02T16:54:03Z</time></trkpt><trkpt lat="45.9330351660582" lon="12.829419140599764"><ele>29.0</ele><time>2026-04-02T16:54:04Z</time></trkpt><trkpt lat="45.93297916487167" lon="12.829292158914864"><ele>29.0</ele><time>2026-04-02T16:54:05Z</time></trkpt><trkpt lat="45.93293099522415" lon="12.829211581814297"><ele>29.0</ele><time>2026-04-02T16:54:06Z</time></trkpt><trkpt lat="45.93286917377866" lon="12.829092485494844"><ele>29.0</ele><time>2026-04-02T16:54:08Z</time></trkpt><trkpt lat="45.932967240884764" lon="12.828959946422042"><ele>29.0</ele><time>2026-04-02T16:54:10Z</time></trkpt><trkpt lat="45.93303814450847" lon="12.828832080944524"><ele>29.0</ele><time>2026-04-02T16:54:11Z</time></trkpt><trkpt lat="45.93312830552357" lon="12.828724572456858"><ele>29.0</ele><time>2026-04-02T16:54:12Z</time></trkpt><trkpt lat="45.93319821889065" lon="12.828628317592802"><ele>29.0</ele><time>2026-04-02T16:54:13Z</time></trkpt><trkpt lat="45.93328635475518" lon="12.828568207799725"><ele>29.0</ele><time>2026-04-02T16:54:14Z</time></trkpt><trkpt lat="45.93339487421324" lon="12.82857442496624"><ele>29.0</ele><time>2026-04-02T16:54:15Z</time></trkpt><trkpt lat="45.933516574284134" lon="12.828600677242166"><ele>29.0</ele><time>2026-04-02T16:54:16Z</time></trkpt><trkpt lat="45.93363885585168" lon="12.828598816873289"><ele>29.0</ele><time>2026-04-02T16:54:17Z</time></trkpt><trkpt lat="45.933771652631826" lon="12.828536881702941"><ele>29.0</ele><time>2026-04-02T16:54:18Z</time></trkpt><trkpt lat="45.93391235527656" lon="12.828436860140318"><ele>29.0</ele><time>2026-04-02T16:54:19Z</time></trkpt><trkpt lat="45.93402965512935" lon="12.828277008334368"><ele>29.0</ele><time>2026-04-02T16:54:20Z</time></trkpt><trkpt lat="45.934129035661535" lon="12.828122239240834"><ele>29.0</ele><time>2026-04-02T16:54:21Z</time></trkpt><trkpt lat="45.93421479182213" lon="12.827989573930221"><ele>29.0</ele><time>2026-04-02T16:54:22Z</time></trkpt><trkpt lat="45.93425387482218" lon="12.827882380217227"><ele>29.0</ele><time>2026-04-02T16:54:23Z</time></trkpt><trkpt lat="45.93432135749769" lon="12.827807637572386"><ele>29.0</ele><time>2026-04-02T16:54:24Z</time></trkpt><trkpt lat="45.93437709225204" lon="12.827740201056503"><ele>29.142857142857146</ele><time>2026-04-02T16:54:25Z</time></trkpt><trkpt lat="45.93444275730041" lon="12.82772982267383"><ele>29.285714285714285</ele><time>2026-04-02T16:54:26Z</time></trkpt><trkpt lat="45.934506787311044" lon="12.82776558699979"><ele>29.42857142857143</ele><time>2026-04-02T16:54:27Z</time></trkpt><trkpt lat="45.93456230098916" lon="12.827832893369745"><ele>29.571428571428573</ele><time>2026-04-02T16:54:28Z</time></trkpt><trkpt lat="45.934617957010325" lon="12.827883483651592"><ele>29.714285714285715</ele><time>2026-04-02T16:54:29Z</time></trkpt><trkpt lat="45.93468560274904" lon="12.827886654183171"><ele>29.857142857142858</ele><time>2026-04-02T16:54:30Z</time></trkpt><trkpt lat="45.93476004189672" lon="12.827861042611627"><ele>30.0</ele><time>2026-04-02T16:54:31Z</time></trkpt><trkpt lat="45.934824822725034" lon="12.827808913277332"><ele>30.0</ele><time>2026-04-02T16:54:32Z</time></trkpt><trkpt lat="45.93487041137389" lon="12.827734045416484"><ele>30.0</ele><time>2026-04-02T16:54:33Z</time></trkpt><trkpt lat="45.93492022345216" lon="12.827648251322309"><ele>30.0</ele><time>2026-04-02T16:54:34Z</time></trkpt><trkpt lat="45.93500051520091" lon="12.827518863849289"><ele>30.0</ele><time>2026-04-02T16:54:36Z</time></trkpt><trkpt lat="45.9350627753218" lon="12.827457551945333"><ele>30.0</ele><time>2026-04-02T16:54:37Z</time></trkpt><trkpt lat="45.93510868838481" lon="12.827363013783229"><ele>30.0</ele><time>2026-04-02T16:54:38Z</time></trkpt><trkpt lat="45.93514403803098" lon="12.827286609437547"><ele>30.0</ele><time>2026-04-02T16:54:39Z</time></trkpt><trkpt lat="45.935219583984946" lon="12.827157393672929"><ele>30.0</ele><time>2026-04-02T16:54:41Z</time></trkpt><trkpt lat="45.9352697849598" lon="12.827096918852863"><ele>30.0</ele><time>2026-04-02T16:54:42Z</time></trkpt><trkpt lat="45.935326563062496" lon="12.827044327563545"><ele>30.0</ele><time>2026-04-02T16:54:43Z</time></trkpt><trkpt lat="45.93539307416232" lon="12.826994224808683"><ele>30.0</ele><time>2026-04-02T16:54:44Z</time></trkpt><trkpt lat="45.935460336266495" lon="12.82694386969002"><ele>30.0</ele><time>2026-04-02T16:54:45Z</time></trkpt><trkpt lat="45.93554146586271" lon="12.82687491712093"><ele>30.2</ele><time>2026-04-02T16:54:46Z</time></trkpt><trkpt lat="45.93563249416937" lon="12.826788862399365"><ele>30.4</ele><time>2026-04-02T16:54:47Z</time></trkpt><trkpt lat="45.93571822061918" lon="12.826703396724692"><ele>30.6</ele><time>2026-04-02T16:54:48Z</time></trkpt><trkpt lat="45.93580655282919" lon="12.826611467310924"><ele>30.8</ele><time>2026-04-02T16:54:49Z</time></trkpt><trkpt lat="45.935902774342196" lon="12.826507381127907"><ele>31.0</ele><time>2026-04-02T16:54:50Z</time></trkpt><trkpt lat="45.936002506825744" lon="12.82640679695741"><ele>30.25</ele><time>2026-04-02T16:54:51Z</time></trkpt><trkpt lat="45.93609915318227" lon="12.826305042647634"><ele>29.5</ele><time>2026-04-02T16:54:52Z</time></trkpt><trkpt lat="45.93619700332084" lon="12.826211260898987"><ele>28.75</ele><time>2026-04-02T16:54:53Z</time></trkpt><trkpt lat="45.93631269564293" lon="12.8261022998737"><ele>28.0</ele><time>2026-04-02T16:54:54Z</time></trkpt><trkpt lat="45.93643813575621" lon="12.825977557489114"><ele>28.0</ele><time>2026-04-02T16:54:55Z</time></trkpt><trkpt lat="45.93656862845583" lon="12.825861641379078"><ele>28.0</ele><time>2026-04-02T16:54:56Z</time></trkpt><trkpt lat="45.93668634355975" lon="12.82575783944377"><ele>28.0</ele><time>2026-04-02T16:54:57Z</time></trkpt><trkpt lat="45.936790347683214" lon="12.825665435952487"><ele>28.0</ele><time>2026-04-02T16:54:58Z</time></trkpt><trkpt lat="45.936888129553374" lon="12.825574019358394"><ele>28.4</ele><time>2026-04-02T16:54:59Z</time></trkpt><trkpt lat="45.93698190918044" lon="12.825500076809702"><ele>28.799999999999997</ele><time>2026-04-02T16:55:00Z</time></trkpt><trkpt lat="45.93706589956266" lon="12.825429075900178"><ele>29.2</ele><time>2026-04-02T16:55:01Z</time></trkpt><trkpt lat="45.93713745944427" lon="12.82536183466696"><ele>29.6</ele><time>2026-04-02T16:55:02Z</time></trkpt><trkpt lat="45.937203804129595" lon="12.825296131500444"><ele>30.0</ele><time>2026-04-02T16:55:03Z</time></trkpt><trkpt lat="45.93727794021869" lon="12.825251113075064"><ele>30.0</ele><time>2026-04-02T16:55:04Z</time></trkpt><trkpt lat="45.93733928196454" lon="12.82522827034128"><ele>30.0</ele><time>2026-04-02T16:55:06Z</time></trkpt><trkpt lat="45.93734667072214" lon="12.825057357463091"><ele>30.0</ele><time>2026-04-02T16:55:10Z</time></trkpt><trkpt lat="45.937286383449" lon="12.82489322569239"><ele>30.0</ele><time>2026-04-02T16:55:12Z</time></trkpt><trkpt lat="45.93723626700645" lon="12.824780439117195"><ele>30.0</ele><time>2026-04-02T16:55:13Z</time></trkpt><trkpt lat="45.93717990173254" lon="12.824667997608177"><ele>30.0</ele><time>2026-04-02T16:55:14Z</time></trkpt><trkpt lat="45.93712134601764" lon="12.824554303024835"><ele>30.0</ele><time>2026-04-02T16:55:15Z</time></trkpt><trkpt lat="45.93706165334195" lon="12.824440677693353"><ele>30.0</ele><time>2026-04-02T16:55:16Z</time></trkpt><trkpt lat="45.93698466861274" lon="12.824296046377308"><ele>30.0</ele><time>2026-04-02T16:55:17Z</time></trkpt><trkpt lat="45.93690073251705" lon="12.824161762077162"><ele>30.0</ele><time>2026-04-02T16:55:18Z</time></trkpt><trkpt lat="45.93679260375801" lon="12.824023912917163"><ele>30.0</ele><time>2026-04-02T16:55:19Z</time></trkpt><trkpt lat="45.93666846514751" lon="12.82385997982587"><ele>30.0</ele><time>2026-04-02T16:55:20Z</time></trkpt><trkpt lat="45.936526687686765" lon="12.823673794601698"><ele>30.0</ele><time>2026-04-02T16:55:21Z</time></trkpt><trkpt lat="45.936383024612255" lon="12.823467366332531"><ele>30.0</ele><time>2026-04-02T16:55:22Z</time></trkpt><trkpt lat="45.936234083868456" lon="12.823249246826837"><ele>30.0</ele><time>2026-04-02T16:55:23Z</time></trkpt><trkpt lat="45.936084330000874" lon="12.823046678301903"><ele>30.0</ele><time>2026-04-02T16:55:24Z</time></trkpt><trkpt lat="45.93596091893704" lon="12.822875265853169"><ele>30.0</ele><time>2026-04-02T16:55:25Z</time></trkpt><trkpt lat="45.93584431184286" lon="12.822706421674107"><ele>30.0</ele><time>2026-04-02T16:55:26Z</time></trkpt><trkpt lat="45.93572409448947" lon="12.822520482929598"><ele>30.0</ele><time>2026-04-02T16:55:27Z</time></trkpt><trkpt lat="45.93560660092811" lon="12.82232392758061"><ele>30.0</ele><time>2026-04-02T16:55:28Z</time></trkpt><trkpt lat="45.93550596829827" lon="12.822141349145483"><ele>30.0</ele><time>2026-04-02T16:55:29Z</time></trkpt><trkpt lat="45.93541233316363" lon="12.82197172064021"><ele>30.333333333333336</ele><time>2026-04-02T16:55:30Z</time></trkpt><trkpt lat="45.935300684358594" lon="12.821802697066087"><ele>30.666666666666668</ele><time>2026-04-02T16:55:31Z</time></trkpt><trkpt lat="45.93520596742683" lon="12.821619480465515"><ele>31.0</ele><time>2026-04-02T16:55:32Z</time></trkpt><trkpt lat="45.935117544077116" lon="12.821414777467995"><ele>30.666666666666668</ele><time>2026-04-02T16:55:33Z</time></trkpt><trkpt lat="45.93501042172971" lon="12.82119702315041"><ele>30.333333333333336</ele><time>2026-04-02T16:55:34Z</time></trkpt><trkpt lat="45.9349053366283" lon="12.82095084260574"><ele>30.0</ele><time>2026-04-02T16:55:35Z</time></trkpt><trkpt lat="45.93480039293754" lon="12.820692789330037"><ele>30.0</ele><time>2026-04-02T16:55:36Z</time></trkpt><trkpt lat="45.93470217950091" lon="12.820442023882672"><ele>30.0</ele><time>2026-04-02T16:55:37Z</time></trkpt><trkpt lat="45.93460475021305" lon="12.820198051142322"><ele>30.0</ele><time>2026-04-02T16:55:38Z</time></trkpt><trkpt lat="45.93450888267165" lon="12.819961894470815"><ele>30.0</ele><time>2026-04-02T16:55:39Z</time></trkpt><trkpt lat="45.934415464340205" lon="12.81972783798429"><ele>30.0</ele><time>2026-04-02T16:55:40Z</time></trkpt><trkpt lat="45.934322335956985" lon="12.81949900468515"><ele>30.0</ele><time>2026-04-02T16:55:41Z</time></trkpt><trkpt lat="45.934226081479366" lon="12.819282154286139"><ele>30.333333333333336</ele><time>2026-04-02T16:55:42Z</time></trkpt><trkpt lat="45.93411953663999" lon="12.819062782386876"><ele>30.666666666666668</ele><time>2026-04-02T16:55:43Z</time></trkpt><trkpt lat="45.9340146270114" lon="12.818834360920748"><ele>31.0</ele><time>2026-04-02T16:55:44Z</time></trkpt><trkpt lat="45.93391297473559" lon="12.818601121206878"><ele>30.0</ele><time>2026-04-02T16:55:45Z</time></trkpt><trkpt lat="45.933816086281965" lon="12.818378952370502"><ele>29.0</ele><time>2026-04-02T16:55:46Z</time></trkpt><trkpt lat="45.93373793248927" lon="12.818170908722463"><ele>28.0</ele><time>2026-04-02T16:55:47Z</time></trkpt><trkpt lat="45.93366085665391" lon="12.817943529336675"><ele>28.0</ele><time>2026-04-02T16:55:48Z</time></trkpt><trkpt lat="45.93356723709882" lon="12.817730307201867"><ele>28.0</ele><time>2026-04-02T16:55:49Z</time></trkpt><trkpt lat="45.93347314761384" lon="12.81752732970865"><ele>28.0</ele><time>2026-04-02T16:55:50Z</time></trkpt><trkpt lat="45.93334598780217" lon="12.817335701002774"><ele>28.0</ele><time>2026-04-02T16:55:51Z</time></trkpt><trkpt lat="45.9332483827693" lon="12.817161142946224"><ele>28.0</ele><time>2026-04-02T16:55:52Z</time></trkpt><trkpt lat="45.93314243330984" lon="12.816973724097975"><ele>28.0</ele><time>2026-04-02T16:55:53Z</time></trkpt><trkpt lat="45.93307359482477" lon="12.816830984208663"><ele>28.0</ele><time>2026-04-02T16:55:54Z</time></trkpt><trkpt lat="45.93298927214793" lon="12.816651203265613"><ele>28.666666666666668</ele><time>2026-04-02T16:55:55Z</time></trkpt><trkpt lat="45.93290271872397" lon="12.816461755270629"><ele>29.333333333333336</ele><time>2026-04-02T16:55:56Z</time></trkpt><trkpt lat="45.9328291981101" lon="12.816252733054943"><ele>30.0</ele><time>2026-04-02T16:55:57Z</time></trkpt><trkpt lat="45.93277544118236" lon="12.816027624305498"><ele>30.0</ele><time>2026-04-02T16:55:58Z</time></trkpt><trkpt lat="45.93269481460911" lon="12.815841720079732"><ele>30.0</ele><time>2026-04-02T16:55:59Z</time></trkpt><trkpt lat="45.932643854033316" lon="12.815601535148492"><ele>30.0</ele><time>2026-04-02T16:56:00Z</time></trkpt><trkpt lat="45.93257359456331" lon="12.815343029366575"><ele>30.0</ele><time>2026-04-02T16:56:01Z</time></trkpt><trkpt lat="45.932491561067316" lon="12.815091136116529"><ele>30.0</ele><time>2026-04-02T16:56:02Z</time></trkpt><trkpt lat="45.93241032080517" lon="12.814845513550248"><ele>30.0</ele><time>2026-04-02T16:56:03Z</time></trkpt><trkpt lat="45.93233973479349" lon="12.81462556277309"><ele>30.0</ele><time>2026-04-02T16:56:04Z</time></trkpt><trkpt lat="45.932276582712376" lon="12.814423445376274"><ele>30.0</ele><time>2026-04-02T16:56:05Z</time></trkpt><trkpt lat="45.9322100313721" lon="12.814236902319793"><ele>30.0</ele><time>2026-04-02T16:56:06Z</time></trkpt><trkpt lat="45.93214628945065" lon="12.814067000608713"><ele>30.0</ele><time>2026-04-02T16:56:07Z</time></trkpt><trkpt lat="45.93209412711056" lon="12.813903427267038"><ele>29.8</ele><time>2026-04-02T16:56:08Z</time></trkpt><trkpt lat="45.93205369083316" lon="12.813747572404749"><ele>29.6</ele><time>2026-04-02T16:56:09Z</time></trkpt><trkpt lat="45.93202363824786" lon="12.813608012877028"><ele>29.4</ele><time>2026-04-02T16:56:10Z</time></trkpt><trkpt lat="45.931995577757874" lon="12.813482611851713"><ele>29.2</ele><time>2026-04-02T16:56:11Z</time></trkpt><trkpt lat="45.931978412601595" lon="12.81337146174105"><ele>29.0</ele><time>2026-04-02T16:56:12Z</time></trkpt><trkpt lat="45.931983681882905" lon="12.813265768231625"><ele>28.799999999999997</ele><time>2026-04-02T16:56:13Z</time></trkpt><trkpt lat="45.932015846912606" lon="12.813154269077506"><ele>28.599999999999998</ele><time>2026-04-02T16:56:14Z</time></trkpt><trkpt lat="45.93206776039388" lon="12.813020405382558"><ele>28.4</ele><time>2026-04-02T16:56:15Z</time></trkpt><trkpt lat="45.93214735083292" lon="12.812860269041622"><ele>28.2</ele><time>2026-04-02T16:56:16Z</time></trkpt><trkpt lat="45.932231903111635" lon="12.812758316417918"><ele>28.0</ele><time>2026-04-02T16:56:17Z</time></trkpt><trkpt lat="45.93232151410141" lon="12.812634166275851"><ele>28.25</ele><time>2026-04-02T16:56:18Z</time></trkpt><trkpt lat="45.93241706837472" lon="12.812440991473162"><ele>28.5</ele><time>2026-04-02T16:56:19Z</time></trkpt><trkpt lat="45.93249122610409" lon="12.812270590986689"><ele>28.75</ele><time>2026-04-02T16:56:20Z</time></trkpt><trkpt lat="45.93255801422009" lon="12.812123130759053"><ele>29.0</ele><time>2026-04-02T16:56:21Z</time></trkpt><trkpt lat="45.93261193747961" lon="12.811981877210577"><ele>28.333333333333332</ele><time>2026-04-02T16:56:22Z</time></trkpt><trkpt lat="45.93264472045097" lon="12.811803514706307"><ele>27.666666666666664</ele><time>2026-04-02T16:56:23Z</time></trkpt><trkpt lat="45.93265784048704" lon="12.811579280093053"><ele>27.0</ele><time>2026-04-02T16:56:24Z</time></trkpt><trkpt lat="45.932656668259476" lon="12.81132263453871"><ele>27.0</ele><time>2026-04-02T16:56:25Z</time></trkpt><trkpt lat="45.932698888305225" lon="12.811073179067078"><ele>27.0</ele><time>2026-04-02T16:56:26Z</time></trkpt><trkpt lat="45.93270837236135" lon="12.810862121967142"><ele>27.0</ele><time>2026-04-02T16:56:27Z</time></trkpt><trkpt lat="45.932713855218104" lon="12.810659209450899"><ele>27.0</ele><time>2026-04-02T16:56:28Z</time></trkpt><trkpt lat="45.932722574490725" lon="12.810485868656832"><ele>27.0</ele><time>2026-04-02T16:56:29Z</time></trkpt><trkpt lat="45.932713041605474" lon="12.81031793098964"><ele>27.0</ele><time>2026-04-02T16:56:30Z</time></trkpt><trkpt lat="45.93267998604949" lon="12.810161897528165"><ele>27.0</ele><time>2026-04-02T16:56:31Z</time></trkpt><trkpt lat="45.932587706502545" lon="12.809998022429534"><ele>26.666666666666664</ele><time>2026-04-02T16:56:32Z</time></trkpt><trkpt lat="45.93247665849928" lon="12.809827375801706"><ele>26.333333333333332</ele><time>2026-04-02T16:56:33Z</time></trkpt><trkpt lat="45.932347753831564" lon="12.809678787664264"><ele>26.0</ele><time>2026-04-02T16:56:34Z</time></trkpt><trkpt lat="45.93224230272258" lon="12.809538506207286"><ele>26.0</ele><time>2026-04-02T16:56:35Z</time></trkpt><trkpt lat="45.93215023257937" lon="12.80940794942936"><ele>26.0</ele><time>2026-04-02T16:56:36Z</time></trkpt><trkpt lat="45.93207206411097" lon="12.809303703903373"><ele>26.0</ele><time>2026-04-02T16:56:37Z</time></trkpt><trkpt lat="45.93199730637871" lon="12.809141073496486"><ele>26.0</ele><time>2026-04-02T16:56:38Z</time></trkpt><trkpt lat="45.931951726140674" lon="12.80899114939526"><ele>26.200000000000003</ele><time>2026-04-02T16:56:39Z</time></trkpt><trkpt lat="45.931920908540384" lon="12.80883589373378"><ele>26.400000000000002</ele><time>2026-04-02T16:56:40Z</time></trkpt><trkpt lat="45.93190686288448" lon="12.808675289821661"><ele>26.6</ele><time>2026-04-02T16:56:41Z</time></trkpt><trkpt lat="45.931921807819116" lon="12.808531728378025"><ele>26.8</ele><time>2026-04-02T16:56:42Z</time></trkpt><trkpt lat="45.931953329308705" lon="12.808401886775629"><ele>27.0</ele><time>2026-04-02T16:56:43Z</time></trkpt><trkpt lat="45.93200393597668" lon="12.80828636285556"><ele>27.25</ele><time>2026-04-02T16:56:44Z</time></trkpt><trkpt lat="45.93208325020602" lon="12.808187238024862"><ele>27.5</ele><time>2026-04-02T16:56:45Z</time></trkpt><trkpt lat="45.9321837852956" lon="12.808107538590063"><ele>27.75</ele><time>2026-04-02T16:56:46Z</time></trkpt><trkpt lat="45.93227881512878" lon="12.808014213652912"><ele>28.0</ele><time>2026-04-02T16:56:47Z</time></trkpt><trkpt lat="45.93235539709205" lon="12.807874017161733"><ele>28.0</ele><time>2026-04-02T16:56:48Z</time></trkpt><trkpt lat="45.93240940602428" lon="12.807681881723916"><ele>28.0</ele><time>2026-04-02T16:56:49Z</time></trkpt><trkpt lat="45.93244461250677" lon="12.807460937894687"><ele>28.0</ele><time>2026-04-02T16:56:50Z</time></trkpt><trkpt lat="45.93247745386442" lon="12.807291136675271"><ele>28.0</ele><time>2026-04-02T16:56:51Z</time></trkpt><trkpt lat="45.9325004987254" lon="12.80716970195681"><ele>28.0</ele><time>2026-04-02T16:56:52Z</time></trkpt><trkpt lat="45.932534156536356" lon="12.807078421504192"><ele>27.999999999999996</ele><time>2026-04-02T16:56:53Z</time></trkpt><trkpt lat="45.93258470474192" lon="12.807002475080619"><ele>27.999999999999996</ele><time>2026-04-02T16:56:54Z</time></trkpt><trkpt lat="45.93267753157764" lon="12.80693235935684"><ele>28.0</ele><time>2026-04-02T16:56:55Z</time></trkpt><trkpt lat="45.93277421573571" lon="12.806859647007661"><ele>28.0</ele><time>2026-04-02T16:56:56Z</time></trkpt><trkpt lat="45.93289220454316" lon="12.806779017142318"><ele>27.666666666666668</ele><time>2026-04-02T16:56:57Z</time></trkpt><trkpt lat="45.9329860608013" lon="12.806696220504573"><ele>27.333333333333336</ele><time>2026-04-02T16:56:58Z</time></trkpt><trkpt lat="45.933077734050414" lon="12.80664175155294"><ele>27.0</ele><time>2026-04-02T16:56:59Z</time></trkpt><trkpt lat="45.93314632740698" lon="12.806580882891879"><ele>26.666666666666664</ele><time>2026-04-02T16:57:00Z</time></trkpt><trkpt lat="45.9332015624285" lon="12.80652274080878"><ele>26.333333333333332</ele><time>2026-04-02T16:57:01Z</time></trkpt><trkpt lat="45.93325471283801" lon="12.806431237119043"><ele>26.0</ele><time>2026-04-02T16:57:03Z</time></trkpt><trkpt lat="45.933222546252786" lon="12.80625940862038"><ele>26.0</ele><time>2026-04-02T16:57:06Z</time></trkpt><trkpt lat="45.93318299043013" lon="12.80615561309787"><ele>26.0</ele><time>2026-04-02T16:57:07Z</time></trkpt><trkpt lat="45.93313801317331" lon="12.80603487280328"><ele>26.0</ele><time>2026-04-02T16:57:08Z</time></trkpt><trkpt lat="45.93308986660135" lon="12.80590920748267"><ele>26.0</ele><time>2026-04-02T16:57:09Z</time></trkpt><trkpt lat="45.93303803002449" lon="12.8057784144201"><ele>26.0</ele><time>2026-04-02T16:57:10Z</time></trkpt><trkpt lat="45.93297633983977" lon="12.80562572423793"><ele>25.75</ele><time>2026-04-02T16:57:11Z</time></trkpt><trkpt lat="45.93290872366071" lon="12.80545918079845"><ele>25.5</ele><time>2026-04-02T16:57:12Z</time></trkpt><trkpt lat="45.932835564902064" lon="12.80527286069558"><ele>25.25</ele><time>2026-04-02T16:57:13Z</time></trkpt><trkpt lat="45.932758807665486" lon="12.805067700281619"><ele>25.0</ele><time>2026-04-02T16:57:14Z</time></trkpt><trkpt lat="45.93268150253107" lon="12.80486048436501"><ele>26.0</ele><time>2026-04-02T16:57:15Z</time></trkpt><trkpt lat="45.93258948963906" lon="12.804654532128165"><ele>27.0</ele><time>2026-04-02T16:57:16Z</time></trkpt><trkpt lat="45.932484031069414" lon="12.804441772180612"><ele>28.0</ele><time>2026-04-02T16:57:17Z</time></trkpt><trkpt lat="45.932370194373775" lon="12.804223982886443"><ele>28.0</ele><time>2026-04-02T16:57:18Z</time></trkpt><trkpt lat="45.93226297808958" lon="12.804011251651938"><ele>28.0</ele><time>2026-04-02T16:57:19Z</time></trkpt><trkpt lat="45.9321576272287" lon="12.803820439893178"><ele>28.0</ele><time>2026-04-02T16:57:20Z</time></trkpt><trkpt lat="45.93206637619878" lon="12.803642248326346"><ele>27.333333333333336</ele><time>2026-04-02T16:57:21Z</time></trkpt><trkpt lat="45.93195974137914" lon="12.803477608900813"><ele>26.666666666666664</ele><time>2026-04-02T16:57:22Z</time></trkpt><trkpt lat="45.9318326795446" lon="12.80332240411562"><ele>26.0</ele><time>2026-04-02T16:57:23Z</time></trkpt><trkpt lat="45.9317003216067" lon="12.803167733211502"><ele>26.0</ele><time>2026-04-02T16:57:24Z</time></trkpt><trkpt lat="45.93156410858851" lon="12.80302091328975"><ele>26.0</ele><time>2026-04-02T16:57:25Z</time></trkpt><trkpt lat="45.93143358684904" lon="12.80287629636657"><ele>26.0</ele><time>2026-04-02T16:57:26Z</time></trkpt><trkpt lat="45.93130270449736" lon="12.80273222990272"><ele>25.666666666666664</ele><time>2026-04-02T16:57:27Z</time></trkpt><trkpt lat="45.931179335574114" lon="12.802584917634812"><ele>25.333333333333336</ele><time>2026-04-02T16:57:28Z</time></trkpt><trkpt lat="45.93106293384527" lon="12.802439942787142"><ele>25.0</ele><time>2026-04-02T16:57:29Z</time></trkpt><trkpt lat="45.93094216839745" lon="12.802307823081346"><ele>25.5</ele><time>2026-04-02T16:57:30Z</time></trkpt><trkpt lat="45.930830340720625" lon="12.8021892922583"><ele>26.0</ele><time>2026-04-02T16:57:31Z</time></trkpt><trkpt lat="45.930732929180614" lon="12.802071896692436"><ele>26.5</ele><time>2026-04-02T16:57:32Z</time></trkpt><trkpt lat="45.93063761713379" lon="12.801972069094395"><ele>27.0</ele><time>2026-04-02T16:57:33Z</time></trkpt><trkpt lat="45.930535730889176" lon="12.801861583641244"><ele>27.0</ele><time>2026-04-02T16:57:34Z</time></trkpt><trkpt lat="45.930423230899585" lon="12.801738627918091"><ele>27.0</ele><time>2026-04-02T16:57:35Z</time></trkpt><trkpt lat="45.93030036567016" lon="12.801598101424313"><ele>27.0</ele><time>2026-04-02T16:57:36Z</time></trkpt><trkpt lat="45.93016386306922" lon="12.801445583072507"><ele>27.0</ele><time>2026-04-02T16:57:37Z</time></trkpt><trkpt lat="45.93003548559558" lon="12.801286875025994"><ele>27.0</ele><time>2026-04-02T16:57:38Z</time></trkpt><trkpt lat="45.92991481337479" lon="12.801108349286249"><ele>27.0</ele><time>2026-04-02T16:57:39Z</time></trkpt><trkpt lat="45.92979284523429" lon="12.80092983296563"><ele>27.0</ele><time>2026-04-02T16:57:40Z</time></trkpt><trkpt lat="45.92966612676145" lon="12.80076879485483"><ele>27.0</ele><time>2026-04-02T16:57:41Z</time></trkpt><trkpt lat="45.929541836267944" lon="12.800623236149786"><ele>27.0</ele><time>2026-04-02T16:57:42Z</time></trkpt><trkpt lat="45.9294268808569" lon="12.800484270467328"><ele>27.0</ele><time>2026-04-02T16:57:43Z</time></trkpt><trkpt lat="45.92931746500592" lon="12.800349331768468"><ele>27.0</ele><time>2026-04-02T16:57:44Z</time></trkpt><trkpt lat="45.92920062071674" lon="12.800202208027923"><ele>27.0</ele><time>2026-04-02T16:57:45Z</time></trkpt><trkpt lat="45.92908692889543" lon="12.800042083901134"><ele>27.0</ele><time>2026-04-02T16:57:46Z</time></trkpt><trkpt lat="45.92897912695624" lon="12.799862523026937"><ele>27.0</ele><time>2026-04-02T16:57:47Z</time></trkpt><trkpt lat="45.92888271236649" lon="12.799689468415943"><ele>27.0</ele><time>2026-04-02T16:57:48Z</time></trkpt><trkpt lat="45.92877884121144" lon="12.799480150444364"><ele>27.333333333333336</ele><time>2026-04-02T16:57:49Z</time></trkpt><trkpt lat="45.928646754674105" lon="12.79928191917104"><ele>27.666666666666668</ele><time>2026-04-02T16:57:50Z</time></trkpt><trkpt lat="45.928530747978314" lon="12.799100427748481"><ele>28.0</ele><time>2026-04-02T16:57:51Z</time></trkpt><trkpt lat="45.92841587155796" lon="12.798898899195406"><ele>27.666666666666668</ele><time>2026-04-02T16:57:52Z</time></trkpt><trkpt lat="45.928275915825125" lon="12.798691502560079"><ele>27.333333333333336</ele><time>2026-04-02T16:57:53Z</time></trkpt><trkpt lat="45.928110634411794" lon="12.798478689321628"><ele>27.0</ele><time>2026-04-02T16:57:54Z</time></trkpt><trkpt lat="45.927948895720434" lon="12.798286751736446"><ele>26.666666666666664</ele><time>2026-04-02T16:57:55Z</time></trkpt><trkpt lat="45.927808488384166" lon="12.798099902854789"><ele>26.333333333333332</ele><time>2026-04-02T16:57:56Z</time></trkpt><trkpt lat="45.92768197048499" lon="12.797929939662374"><ele>26.0</ele><time>2026-04-02T16:57:57Z</time></trkpt><trkpt lat="45.9275512585125" lon="12.797756939889373"><ele>26.333333333333332</ele><time>2026-04-02T16:57:58Z</time></trkpt><trkpt lat="45.92741878515809" lon="12.797615224317608"><ele>26.666666666666664</ele><time>2026-04-02T16:57:59Z</time></trkpt><trkpt lat="45.927293688687946" lon="12.797454058203915"><ele>27.0</ele><time>2026-04-02T16:58:00Z</time></trkpt><trkpt lat="45.9271497578564" lon="12.79727196664402"><ele>27.0</ele><time>2026-04-02T16:58:01Z</time></trkpt><trkpt lat="45.927015601967" lon="12.797107757336189"><ele>27.0</ele><time>2026-04-02T16:58:02Z</time></trkpt><trkpt lat="45.92690972994879" lon="12.796958151571555"><ele>27.0</ele><time>2026-04-02T16:58:03Z</time></trkpt><trkpt lat="45.92679072006917" lon="12.796830024210914"><ele>27.333333333333336</ele><time>2026-04-02T16:58:04Z</time></trkpt><trkpt lat="45.92668966760865" lon="12.796681987595989"><ele>27.666666666666668</ele><time>2026-04-02T16:58:05Z</time></trkpt><trkpt lat="45.92660869234055" lon="12.796524485545714"><ele>28.0</ele><time>2026-04-02T16:58:06Z</time></trkpt><trkpt lat="45.92648625436649" lon="12.79635480665493"><ele>28.0</ele><time>2026-04-02T16:58:07Z</time></trkpt><trkpt lat="45.9263987334908" lon="12.796190341784946"><ele>28.0</ele><time>2026-04-02T16:58:08Z</time></trkpt><trkpt lat="45.92629070420348" lon="12.796020476181916"><ele>28.0</ele><time>2026-04-02T16:58:09Z</time></trkpt><trkpt lat="45.92619627952347" lon="12.795837753892986"><ele>28.25</ele><time>2026-04-02T16:58:10Z</time></trkpt><trkpt lat="45.92612085018714" lon="12.795708563698186"><ele>28.5</ele><time>2026-04-02T16:58:11Z</time></trkpt><trkpt lat="45.926032072871386" lon="12.795554740913461"><ele>28.75</ele><time>2026-04-02T16:58:12Z</time></trkpt><trkpt lat="45.92593284815119" lon="12.795382815993397"><ele>29.0</ele><time>2026-04-02T16:58:13Z</time></trkpt><trkpt lat="45.92581810153501" lon="12.795212569276547"><ele>29.0</ele><time>2026-04-02T16:58:14Z</time></trkpt><trkpt lat="45.92572852729225" lon="12.795048257078877"><ele>29.0</ele><time>2026-04-02T16:58:15Z</time></trkpt><trkpt lat="45.92564482840319" lon="12.794902352601863"><ele>29.0</ele><time>2026-04-02T16:58:16Z</time></trkpt><trkpt lat="45.925566430056264" lon="12.79477091883812"><ele>29.0</ele><time>2026-04-02T16:58:17Z</time></trkpt><trkpt lat="45.925495438363036" lon="12.794644872385785"><ele>29.0</ele><time>2026-04-02T16:58:18Z</time></trkpt><trkpt lat="45.92544999503485" lon="12.79452791737894"><ele>29.0</ele><time>2026-04-02T16:58:19Z</time></trkpt><trkpt lat="45.925412587983104" lon="12.794453727205838"><ele>29.0</ele><time>2026-04-02T16:58:20Z</time></trkpt><trkpt lat="45.92539503775392" lon="12.794323778790945"><ele>29.0</ele><time>2026-04-02T16:58:22Z</time></trkpt><trkpt lat="45.92551425770858" lon="12.794209744808976"><ele>29.0</ele><time>2026-04-02T16:58:24Z</time></trkpt><trkpt lat="45.92560707789674" lon="12.794132546533248"><ele>29.0</ele><time>2026-04-02T16:58:25Z</time></trkpt><trkpt lat="45.92569433589043" lon="12.794041078672691"><ele>29.0</ele><time>2026-04-02T16:58:26Z</time></trkpt><trkpt lat="45.92577827082205" lon="12.793947668471892"><ele>29.0</ele><time>2026-04-02T16:58:27Z</time></trkpt><trkpt lat="45.925869504448606" lon="12.793849369608088"><ele>29.0</ele><time>2026-04-02T16:58:28Z</time></trkpt><trkpt lat="45.9259539869606" lon="12.793770463071086"><ele>29.0</ele><time>2026-04-02T16:58:29Z</time></trkpt><trkpt lat="45.92603647831025" lon="12.793691145638093"><ele>28.999999999999996</ele><time>2026-04-02T16:58:30Z</time></trkpt><trkpt lat="45.9260967031739" lon="12.79360600128701"><ele>29.0</ele><time>2026-04-02T16:58:31Z</time></trkpt><trkpt lat="45.926161842884405" lon="12.79352626143209"><ele>29.0</ele><time>2026-04-02T16:58:32Z</time></trkpt><trkpt lat="45.92625222892037" lon="12.79343356173963"><ele>29.0</ele><time>2026-04-02T16:58:33Z</time></trkpt><trkpt lat="45.92632089605583" lon="12.793352494180583"><ele>28.999999999999996</ele><time>2026-04-02T16:58:34Z</time></trkpt><trkpt lat="45.92638180028402" lon="12.793285785428324"><ele>29.0</ele><time>2026-04-02T16:58:35Z</time></trkpt><trkpt lat="45.92643337670725" lon="12.793214937991408"><ele>28.2</ele><time>2026-04-02T16:58:36Z</time></trkpt><trkpt lat="45.926469368503284" lon="12.793136577304963"><ele>27.4</ele><time>2026-04-02T16:58:37Z</time></trkpt><trkpt lat="45.92648564411998" lon="12.79295900715884"><ele>26.6</ele><time>2026-04-02T16:58:39Z</time></trkpt><trkpt lat="45.92641597423215" lon="12.792873527977362"><ele>25.8</ele><time>2026-04-02T16:58:40Z</time></trkpt><trkpt lat="45.92637938775396" lon="12.792768410126117"><ele>25.0</ele><time>2026-04-02T16:58:41Z</time></trkpt><trkpt lat="45.92632548258093" lon="12.792654587338328"><ele>24.5</ele><time>2026-04-02T16:58:42Z</time></trkpt><trkpt lat="45.926265171524214" lon="12.792534387353731"><ele>24.0</ele><time>2026-04-02T16:58:43Z</time></trkpt><trkpt lat="45.9261878183968" lon="12.792417673276246"><ele>23.5</ele><time>2026-04-02T16:58:44Z</time></trkpt><trkpt lat="45.92611725477827" lon="12.792282040835655"><ele>23.0</ele><time>2026-04-02T16:58:45Z</time></trkpt><trkpt lat="45.92604242561549" lon="12.792141309484464"><ele>23.0</ele><time>2026-04-02T16:58:46Z</time></trkpt><trkpt lat="45.92596120804127" lon="12.791983205308274"><ele>23.0</ele><time>2026-04-02T16:58:47Z</time></trkpt><trkpt lat="45.925879877868645" lon="12.791828021045477"><ele>23.0</ele><time>2026-04-02T16:58:48Z</time></trkpt><trkpt lat="45.9257996784519" lon="12.791676279012753"><ele>23.0</ele><time>2026-04-02T16:58:49Z</time></trkpt><trkpt lat="45.92571271817125" lon="12.791516612028698"><ele>23.25</ele><time>2026-04-02T16:58:50Z</time></trkpt><trkpt lat="45.92562243978168" lon="12.791358692036932"><ele>23.5</ele><time>2026-04-02T16:58:51Z</time></trkpt><trkpt lat="45.925552641838" lon="12.791200281522396"><ele>23.75</ele><time>2026-04-02T16:58:52Z</time></trkpt><trkpt lat="45.925470099748786" lon="12.791052043691716"><ele>24.0</ele><time>2026-04-02T16:58:53Z</time></trkpt><trkpt lat="45.925399076043824" lon="12.790924491739453"><ele>24.0</ele><time>2026-04-02T16:58:54Z</time></trkpt><trkpt lat="45.92532133648961" lon="12.790784878739325"><ele>24.0</ele><time>2026-04-02T16:58:55Z</time></trkpt><trkpt lat="45.92526315628912" lon="12.790680392503786"><ele>24.0</ele><time>2026-04-02T16:58:56Z</time></trkpt><trkpt lat="45.92520963185372" lon="12.79058533201397"><ele>24.0</ele><time>2026-04-02T16:58:57Z</time></trkpt><trkpt lat="45.92514665662403" lon="12.7905099552156"><ele>24.0</ele><time>2026-04-02T16:58:58Z</time></trkpt><trkpt lat="45.92510487689027" lon="12.790406268347978"><ele>24.0</ele><time>2026-04-02T16:58:59Z</time></trkpt><trkpt lat="45.925052779944835" lon="12.790281552395555"><ele>24.0</ele><time>2026-04-02T16:59:01Z</time></trkpt><trkpt lat="45.92510037733508" lon="12.790176745281713"><ele>24.0</ele><time>2026-04-02T16:59:03Z</time></trkpt><trkpt lat="45.92517409208162" lon="12.790178856590424"><ele>24.0</ele><time>2026-04-02T16:59:04Z</time></trkpt><trkpt lat="45.92524218986863" lon="12.79012176468772"><ele>24.0</ele><time>2026-04-02T16:59:05Z</time></trkpt><trkpt lat="45.9253311390876" lon="12.790081587639218"><ele>24.0</ele><time>2026-04-02T16:59:06Z</time></trkpt><trkpt lat="45.925423248313756" lon="12.790037193027954"><ele>23.799999999999997</ele><time>2026-04-02T16:59:07Z</time></trkpt><trkpt lat="45.925516131885054" lon="12.789989189678352"><ele>23.599999999999998</ele><time>2026-04-02T16:59:08Z</time></trkpt><trkpt lat="45.92559883482801" lon="12.78994513665539"><ele>23.4</ele><time>2026-04-02T16:59:09Z</time></trkpt><trkpt lat="45.92566736486947" lon="12.789890845332188"><ele>23.2</ele><time>2026-04-02T16:59:10Z</time></trkpt><trkpt lat="45.925733877616466" lon="12.789857005859133"><ele>23.0</ele><time>2026-04-02T16:59:11Z</time></trkpt><trkpt lat="45.92580990201816" lon="12.789731067927788"><ele>23.0</ele><time>2026-04-02T16:59:13Z</time></trkpt><trkpt lat="45.92578278396298" lon="12.789635686533522"><ele>23.0</ele><time>2026-04-02T16:59:14Z</time></trkpt><trkpt lat="45.92574555577397" lon="12.789544540451539"><ele>23.0</ele><time>2026-04-02T16:59:15Z</time></trkpt><trkpt lat="45.925686324681" lon="12.789457040830182"><ele>23.0</ele><time>2026-04-02T16:59:16Z</time></trkpt><trkpt lat="45.92562741527069" lon="12.78931466307914"><ele>23.0</ele><time>2026-04-02T16:59:17Z</time></trkpt><trkpt lat="45.9255688203673" lon="12.78915621660849"><ele>23.0</ele><time>2026-04-02T16:59:18Z</time></trkpt><trkpt lat="45.925506402323585" lon="12.788982570037613"><ele>23.0</ele><time>2026-04-02T16:59:19Z</time></trkpt><trkpt lat="45.9254386623451" lon="12.788792012150846"><ele>23.0</ele><time>2026-04-02T16:59:20Z</time></trkpt><trkpt lat="45.925368672139314" lon="12.78859512403749"><ele>23.0</ele><time>2026-04-02T16:59:21Z</time></trkpt><trkpt lat="45.925305122154285" lon="12.78841635293202"><ele>23.2</ele><time>2026-04-02T16:59:22Z</time></trkpt><trkpt lat="45.92524701556926" lon="12.788256331841744"><ele>23.4</ele><time>2026-04-02T16:59:23Z</time></trkpt><trkpt lat="45.925194901145204" lon="12.788114040840627"><ele>23.599999999999998</ele><time>2026-04-02T16:59:24Z</time></trkpt><trkpt lat="45.9251467097972" lon="12.787981513919316"><ele>23.799999999999997</ele><time>2026-04-02T16:59:25Z</time></trkpt><trkpt lat="45.92510180486101" lon="12.787854658026431"><ele>24.0</ele><time>2026-04-02T16:59:26Z</time></trkpt><trkpt lat="45.925067805856344" lon="12.787755899177606"><ele>24.0</ele><time>2026-04-02T16:59:28Z</time></trkpt><trkpt lat="45.92505520804066" lon="12.787667107794498"><ele>24.0</ele><time>2026-04-02T16:59:30Z</time></trkpt><trkpt lat="45.92508585683335" lon="12.78774648282827"><ele>24.0</ele><time>2026-04-02T16:59:31Z</time></trkpt><trkpt lat="45.92535353326969" lon="12.787678150247755"><ele>24.0</ele><time>2026-04-02T16:59:32Z</time></trkpt><trkpt lat="45.92549235497105" lon="12.787646585689307"><ele>23.666666666666668</ele><time>2026-04-02T16:59:33Z</time></trkpt><trkpt lat="45.92564649757402" lon="12.787629204331187"><ele>23.333333333333336</ele><time>2026-04-02T16:59:34Z</time></trkpt><trkpt lat="45.9258124343222" lon="12.787634284751249"><ele>23.0</ele><time>2026-04-02T16:59:35Z</time></trkpt><trkpt lat="45.92595577051483" lon="12.787628389660659"><ele>23.0</ele><time>2026-04-02T16:59:36Z</time></trkpt><trkpt lat="45.926098295527936" lon="12.787621961696741"><ele>23.0</ele><time>2026-04-02T16:59:37Z</time></trkpt><trkpt lat="45.926235310848526" lon="12.787618623651854"><ele>23.0</ele><time>2026-04-02T16:59:38Z</time></trkpt><trkpt lat="45.92635738530019" lon="12.787633267034673"><ele>23.0</ele><time>2026-04-02T16:59:39Z</time></trkpt><trkpt lat="45.92649182951189" lon="12.787616619485334"><ele>23.0</ele><time>2026-04-02T16:59:40Z</time></trkpt><trkpt lat="45.926609894061436" lon="12.787626175405489"><ele>23.0</ele><time>2026-04-02T16:59:41Z</time></trkpt><trkpt lat="45.92674922992811" lon="12.787628658493407"><ele>23.0</ele><time>2026-04-02T16:59:42Z</time></trkpt><trkpt lat="45.926863550538236" lon="12.787643792969465"><ele>23.0</ele><time>2026-04-02T16:59:43Z</time></trkpt><trkpt lat="45.9269925438262" lon="12.787616829671375"><ele>23.0</ele><time>2026-04-02T16:59:44Z</time></trkpt><trkpt lat="45.927098928314756" lon="12.787595354423422"><ele>23.0</ele><time>2026-04-02T16:59:45Z</time></trkpt><trkpt lat="45.9272331109634" lon="12.787544467485692"><ele>23.0</ele><time>2026-04-02T16:59:46Z</time></trkpt><trkpt lat="45.927337901615644" lon="12.787489771552444"><ele>23.0</ele><time>2026-04-02T16:59:47Z</time></trkpt><trkpt lat="45.92742157611879" lon="12.787449218314883"><ele>23.0</ele><time>2026-04-02T16:59:48Z</time></trkpt><trkpt lat="45.92753206730647" lon="12.78739103117532"><ele>22.833333333333336</ele><time>2026-04-02T16:59:49Z</time></trkpt><trkpt lat="45.927619398667964" lon="12.787348515538389"><ele>22.666666666666668</ele><time>2026-04-02T16:59:50Z</time></trkpt><trkpt lat="45.927685782508355" lon="12.787320565201997"><ele>22.5</ele><time>2026-04-02T16:59:51Z</time></trkpt><trkpt lat="45.92778671042002" lon="12.787326751644462"><ele>22.333333333333332</ele><time>2026-04-02T16:59:53Z</time></trkpt><trkpt lat="45.92784859624917" lon="12.78736170799206"><ele>22.166666666666664</ele><time>2026-04-02T16:59:54Z</time></trkpt><trkpt lat="45.927915655196564" lon="12.787410760725699"><ele>22.0</ele><time>2026-04-02T16:59:55Z</time></trkpt><trkpt lat="45.92799202659768" lon="12.787478791032338"><ele>22.0</ele><time>2026-04-02T16:59:56Z</time></trkpt><trkpt lat="45.92806388376491" lon="12.787549545645494"><ele>22.0</ele><time>2026-04-02T16:59:57Z</time></trkpt><trkpt lat="45.92814123288789" lon="12.787631444103466"><ele>22.0</ele><time>2026-04-02T16:59:58Z</time></trkpt><trkpt lat="45.92822882473454" lon="12.787721710554846"><ele>22.0</ele><time>2026-04-02T16:59:59Z</time></trkpt><trkpt lat="45.92832757361478" lon="12.787819654209976"><ele>22.0</ele><time>2026-04-02T17:00:00Z</time></trkpt><trkpt lat="45.92843907843172" lon="12.787926136220653"><ele>22.5</ele><time>2026-04-02T17:00:01Z</time></trkpt><trkpt lat="45.92854789494667" lon="12.78803810065447"><ele>23.0</ele><time>2026-04-02T17:00:02Z</time></trkpt><trkpt lat="45.928660918402606" lon="12.78815686571379"><ele>23.5</ele><time>2026-04-02T17:00:03Z</time></trkpt><trkpt lat="45.9287794845016" lon="12.788275197327236"><ele>24.0</ele><time>2026-04-02T17:00:04Z</time></trkpt><trkpt lat="45.92889901850154" lon="12.788389148147585"><ele>24.0</ele><time>2026-04-02T17:00:05Z</time></trkpt><trkpt lat="45.92900913969899" lon="12.788501872747364"><ele>24.0</ele><time>2026-04-02T17:00:06Z</time></trkpt><trkpt lat="45.92911362753185" lon="12.788610098179753"><ele>24.0</ele><time>2026-04-02T17:00:07Z</time></trkpt><trkpt lat="45.92921416854036" lon="12.788715939001007"><ele>24.0</ele><time>2026-04-02T17:00:08Z</time></trkpt><trkpt lat="45.929316764249144" lon="12.788819507870402"><ele>23.75</ele><time>2026-04-02T17:00:09Z</time></trkpt><trkpt lat="45.9294205926585" lon="12.788923959557584"><ele>23.5</ele><time>2026-04-02T17:00:10Z</time></trkpt><trkpt lat="45.92952580212655" lon="12.789030422778119"><ele>23.25</ele><time>2026-04-02T17:00:11Z</time></trkpt><trkpt lat="45.929628758735554" lon="12.789137555510662"><ele>23.0</ele><time>2026-04-02T17:00:12Z</time></trkpt><trkpt lat="45.92973316016103" lon="12.789257481614934"><ele>23.0</ele><time>2026-04-02T17:00:13Z</time></trkpt><trkpt lat="45.929831996130346" lon="12.789395304548629"><ele>23.0</ele><time>2026-04-02T17:00:14Z</time></trkpt><trkpt lat="45.92992458795788" lon="12.789531180861923"><ele>23.0</ele><time>2026-04-02T17:00:15Z</time></trkpt><trkpt lat="45.92998310092962" lon="12.789620582624144"><ele>23.0</ele><time>2026-04-02T17:00:16Z</time></trkpt><trkpt lat="45.93005737162048" lon="12.789730028251752"><ele>23.0</ele><time>2026-04-02T17:00:17Z</time></trkpt><trkpt lat="45.93013328375343" lon="12.789849691007712"><ele>23.0</ele><time>2026-04-02T17:00:18Z</time></trkpt><trkpt lat="45.93019153221104" lon="12.789941902384646"><ele>23.0</ele><time>2026-04-02T17:00:19Z</time></trkpt><trkpt lat="45.93024277318681" lon="12.790016709821009"><ele>23.0</ele><time>2026-04-02T17:00:20Z</time></trkpt><trkpt lat="45.930289644149916" lon="12.790080608925239"><ele>23.0</ele><time>2026-04-02T17:00:21Z</time></trkpt><trkpt lat="45.93033988172345" lon="12.790167842760967"><ele>23.0</ele><time>2026-04-02T17:00:23Z</time></trkpt><trkpt lat="45.93038646549424" lon="12.790244986618509"><ele>23.0</ele><time>2026-04-02T17:00:24Z</time></trkpt><trkpt lat="45.930432980697745" lon="12.790314292476735"><ele>23.0</ele><time>2026-04-02T17:00:25Z</time></trkpt><trkpt lat="45.93051188783628" lon="12.790331902141382"><ele>23.0</ele><time>2026-04-02T17:00:28Z</time></trkpt><trkpt lat="45.930558914085566" lon="12.790231524070437"><ele>23.0</ele><time>2026-04-02T17:00:30Z</time></trkpt><trkpt lat="45.93063768435089" lon="12.790116888079172"><ele>23.0</ele><time>2026-04-02T17:00:32Z</time></trkpt><trkpt lat="45.930686259719714" lon="12.790057777891086"><ele>23.0</ele><time>2026-04-02T17:00:33Z</time></trkpt><trkpt lat="45.93074220846795" lon="12.789978730328778"><ele>23.0</ele><time>2026-04-02T17:00:34Z</time></trkpt><trkpt lat="45.93080920578507" lon="12.789901270555477"><ele>23.0</ele><time>2026-04-02T17:00:35Z</time></trkpt><trkpt lat="45.93089248070887" lon="12.789810182691415"><ele>23.0</ele><time>2026-04-02T17:00:36Z</time></trkpt><trkpt lat="45.93097606334961" lon="12.78970117297268"><ele>23.0</ele><time>2026-04-02T17:00:37Z</time></trkpt><trkpt lat="45.93105177184939" lon="12.789587922232728"><ele>23.0</ele><time>2026-04-02T17:00:38Z</time></trkpt><trkpt lat="45.931136550403686" lon="12.789450682612692"><ele>23.25</ele><time>2026-04-02T17:00:39Z</time></trkpt><trkpt lat="45.93123313163597" lon="12.789321182527305"><ele>23.5</ele><time>2026-04-02T17:00:40Z</time></trkpt><trkpt lat="45.9313551186323" lon="12.789184775774583"><ele>23.75</ele><time>2026-04-02T17:00:41Z</time></trkpt><trkpt lat="45.93147873460461" lon="12.789069460734098"><ele>24.0</ele><time>2026-04-02T17:00:42Z</time></trkpt><trkpt lat="45.931588194211734" lon="12.788944568895586"><ele>24.0</ele><time>2026-04-02T17:00:43Z</time></trkpt><trkpt lat="45.93169880711178" lon="12.788812306414878"><ele>24.0</ele><time>2026-04-02T17:00:44Z</time></trkpt><trkpt lat="45.93179416884087" lon="12.788679577425029"><ele>24.0</ele><time>2026-04-02T17:00:45Z</time></trkpt><trkpt lat="45.931882087262395" lon="12.788556189614559"><ele>24.0</ele><time>2026-04-02T17:00:46Z</time></trkpt><trkpt lat="45.931950187527605" lon="12.788441235714556"><ele>24.0</ele><time>2026-04-02T17:00:47Z</time></trkpt><trkpt lat="45.93199801510227" lon="12.788318115842186"><ele>24.0</ele><time>2026-04-02T17:00:48Z</time></trkpt><trkpt lat="45.932088101964595" lon="12.788204852888006"><ele>24.0</ele><time>2026-04-02T17:00:49Z</time></trkpt><trkpt lat="45.932234655542445" lon="12.788078693830645"><ele>24.0</ele><time>2026-04-02T17:00:50Z</time></trkpt><trkpt lat="45.932342025923646" lon="12.78795549983674"><ele>24.0</ele><time>2026-04-02T17:00:51Z</time></trkpt><trkpt lat="45.93244130371917" lon="12.787826003105014"><ele>24.0</ele><time>2026-04-02T17:00:52Z</time></trkpt><trkpt lat="45.932542506071826" lon="12.78769687715724"><ele>24.0</ele><time>2026-04-02T17:00:53Z</time></trkpt><trkpt lat="45.93264067612289" lon="12.787575693606762"><ele>24.0</ele><time>2026-04-02T17:00:54Z</time></trkpt><trkpt lat="45.93272078127974" lon="12.787463911652148"><ele>23.799999999999997</ele><time>2026-04-02T17:00:55Z</time></trkpt><trkpt lat="45.932826299843114" lon="12.787341582588887"><ele>23.599999999999998</ele><time>2026-04-02T17:00:56Z</time></trkpt><trkpt lat="45.932901501026464" lon="12.787235608577358"><ele>23.4</ele><time>2026-04-02T17:00:57Z</time></trkpt><trkpt lat="45.932967553925565" lon="12.787113861964583"><ele>23.2</ele><time>2026-04-02T17:00:58Z</time></trkpt><trkpt lat="45.93300002724452" lon="12.78700784324266"><ele>23.0</ele><time>2026-04-02T17:00:59Z</time></trkpt><trkpt lat="45.93305457740529" lon="12.786930926310495"><ele>23.0</ele><time>2026-04-02T17:01:00Z</time></trkpt><trkpt lat="45.93311546559499" lon="12.786884795590982"><ele>23.0</ele><time>2026-04-02T17:01:01Z</time></trkpt><trkpt lat="45.93316390925529" lon="12.786815993091142"><ele>23.0</ele><time>2026-04-02T17:01:04Z</time></trkpt><trkpt lat="45.93309285423035" lon="12.786671540386589"><ele>23.0</ele><time>2026-04-02T17:01:06Z</time></trkpt><trkpt lat="45.933034493762165" lon="12.786600108017826"><ele>23.0</ele><time>2026-04-02T17:01:07Z</time></trkpt><trkpt lat="45.932964573586545" lon="12.786520535586714"><ele>23.0</ele><time>2026-04-02T17:01:08Z</time></trkpt><trkpt lat="45.9329049684976" lon="12.786448193548855"><ele>23.4</ele><time>2026-04-02T17:01:09Z</time></trkpt><trkpt lat="45.932885119388494" lon="12.78633209309928"><ele>23.799999999999997</ele><time>2026-04-02T17:01:11Z</time></trkpt><trkpt lat="45.93292702482094" lon="12.786236016205434"><ele>24.2</ele><time>2026-04-02T17:01:12Z</time></trkpt><trkpt lat="45.93298871770771" lon="12.786122423087072"><ele>24.6</ele><time>2026-04-02T17:01:13Z</time></trkpt><trkpt lat="45.933047847297075" lon="12.785985578949958"><ele>25.0</ele><time>2026-04-02T17:01:14Z</time></trkpt><trkpt lat="45.933098982090634" lon="12.78584963071091"><ele>26.0</ele><time>2026-04-02T17:01:15Z</time></trkpt><trkpt lat="45.93314085203448" lon="12.78573114984682"><ele>27.0</ele><time>2026-04-02T17:01:16Z</time></trkpt><trkpt lat="45.933192676139385" lon="12.785592632835462"><ele>28.0</ele><time>2026-04-02T17:01:17Z</time></trkpt><trkpt lat="45.93324745413539" lon="12.785424384125195"><ele>29.0</ele><time>2026-04-02T17:01:18Z</time></trkpt><trkpt lat="45.93329163272725" lon="12.785267441777155"><ele>30.0</ele><time>2026-04-02T17:01:19Z</time></trkpt><trkpt lat="45.93332989161562" lon="12.785122481777462"><ele>30.0</ele><time>2026-04-02T17:01:20Z</time></trkpt><trkpt lat="45.93337150882341" lon="12.784993201655734"><ele>30.0</ele><time>2026-04-02T17:01:21Z</time></trkpt><trkpt lat="45.93341724022329" lon="12.784875365133983"><ele>30.0</ele><time>2026-04-02T17:01:22Z</time></trkpt><trkpt lat="45.93346042615738" lon="12.78476541084483"><ele>30.0</ele><time>2026-04-02T17:01:23Z</time></trkpt><trkpt lat="45.93350075274168" lon="12.784662833456492"><ele>30.0</ele><time>2026-04-02T17:01:24Z</time></trkpt><trkpt lat="45.93355836932168" lon="12.784588062229801"><ele>30.0</ele><time>2026-04-02T17:01:25Z</time></trkpt><trkpt lat="45.93362785035491" lon="12.784509329135997"><ele>31.0</ele><time>2026-04-02T17:01:26Z</time></trkpt><trkpt lat="45.93371155133343" lon="12.784460672635289"><ele>32.0</ele><time>2026-04-02T17:01:27Z</time></trkpt><trkpt lat="45.93379139157866" lon="12.784410753457218"><ele>33.0</ele><time>2026-04-02T17:01:28Z</time></trkpt><trkpt lat="45.93391076304022" lon="12.784412495164274"><ele>34.0</ele><time>2026-04-02T17:01:29Z</time></trkpt><trkpt lat="45.934033242401725" lon="12.784433957430887"><ele>35.0</ele><time>2026-04-02T17:01:30Z</time></trkpt><trkpt lat="45.934120542332614" lon="12.784434622270899"><ele>34.2</ele><time>2026-04-02T17:01:31Z</time></trkpt><trkpt lat="45.93423921762474" lon="12.784473813313674"><ele>33.4</ele><time>2026-04-02T17:01:32Z</time></trkpt><trkpt lat="45.93433239504722" lon="12.784508031629015"><ele>32.6</ele><time>2026-04-02T17:01:33Z</time></trkpt><trkpt lat="45.934425070782645" lon="12.784535948311648"><ele>31.8</ele><time>2026-04-02T17:01:34Z</time></trkpt><trkpt lat="45.934502387325736" lon="12.784551072890272"><ele>31.0</ele><time>2026-04-02T17:01:35Z</time></trkpt><trkpt lat="45.93459012624434" lon="12.784528819149727"><ele>31.0</ele><time>2026-04-02T17:01:36Z</time></trkpt><trkpt lat="45.93467400023384" lon="12.784467286906859"><ele>31.0</ele><time>2026-04-02T17:01:37Z</time></trkpt><trkpt lat="45.934739865265435" lon="12.7844012425889"><ele>31.0</ele><time>2026-04-02T17:01:38Z</time></trkpt><trkpt lat="45.93485407531973" lon="12.784322942392771"><ele>31.0</ele><time>2026-04-02T17:01:40Z</time></trkpt><trkpt lat="45.9349529909031" lon="12.784321293854157"><ele>31.0</ele><time>2026-04-02T17:01:41Z</time></trkpt><trkpt lat="45.935073042850924" lon="12.78435732104466"><ele>30.6</ele><time>2026-04-02T17:01:42Z</time></trkpt><trkpt lat="45.93516797587368" lon="12.784418222429736"><ele>30.200000000000003</ele><time>2026-04-02T17:01:43Z</time></trkpt><trkpt lat="45.935240748034026" lon="12.784437185297554"><ele>29.799999999999997</ele><time>2026-04-02T17:01:44Z</time></trkpt><trkpt lat="45.93536217655872" lon="12.784432916085056"><ele>29.4</ele><time>2026-04-02T17:01:45Z</time></trkpt><trkpt lat="45.93546513916795" lon="12.784491731406465"><ele>29.0</ele><time>2026-04-02T17:01:46Z</time></trkpt><trkpt lat="45.93559367226269" lon="12.784557346688848"><ele>29.0</ele><time>2026-04-02T17:01:47Z</time></trkpt><trkpt lat="45.93570437026059" lon="12.78461841213975"><ele>29.0</ele><time>2026-04-02T17:01:48Z</time></trkpt><trkpt lat="45.93580194193714" lon="12.784664750466126"><ele>29.0</ele><time>2026-04-02T17:01:49Z</time></trkpt><trkpt lat="45.935906417390946" lon="12.78468718212112"><ele>29.0</ele><time>2026-04-02T17:01:50Z</time></trkpt><trkpt lat="45.936012920618545" lon="12.784771244968544"><ele>29.0</ele><time>2026-04-02T17:01:51Z</time></trkpt><trkpt lat="45.93614580476959" lon="12.78483885541603"><ele>28.5</ele><time>2026-04-02T17:01:52Z</time></trkpt><trkpt lat="45.93630665432362" lon="12.784922127574646"><ele>28.0</ele><time>2026-04-02T17:01:53Z</time></trkpt><trkpt lat="45.936421463105255" lon="12.78500188166136"><ele>27.5</ele><time>2026-04-02T17:01:54Z</time></trkpt><trkpt lat="45.93652090344037" lon="12.785068294295732"><ele>27.0</ele><time>2026-04-02T17:01:55Z</time></trkpt><trkpt lat="45.93659176956959" lon="12.785132385508096"><ele>27.0</ele><time>2026-04-02T17:01:56Z</time></trkpt><trkpt lat="45.936638681988164" lon="12.785234909001927"><ele>27.0</ele><time>2026-04-02T17:01:57Z</time></trkpt><trkpt lat="45.93668228383696" lon="12.785338371522721"><ele>27.0</ele><time>2026-04-02T17:01:58Z</time></trkpt><trkpt lat="45.936746793566854" lon="12.785497078427795"><ele>27.0</ele><time>2026-04-02T17:02:00Z</time></trkpt><trkpt lat="45.93680554139829" lon="12.78555023982785"><ele>27.0</ele><time>2026-04-02T17:02:02Z</time></trkpt><trkpt lat="45.936808808939546" lon="12.78544573354467"><ele>27.0</ele><time>2026-04-02T17:02:05Z</time></trkpt><trkpt lat="45.93683034973709" lon="12.785355286774513"><ele>27.0</ele><time>2026-04-02T17:02:06Z</time></trkpt><trkpt lat="45.936838970291575" lon="12.785238834653992"><ele>27.000000000000004</ele><time>2026-04-02T17:02:07Z</time></trkpt><trkpt lat="45.9368519726445" lon="12.785129990213946"><ele>27.000000000000004</ele><time>2026-04-02T17:02:08Z</time></trkpt><trkpt lat="45.93687514881526" lon="12.784984533940264"><ele>27.0</ele><time>2026-04-02T17:02:09Z</time></trkpt><trkpt lat="45.93689034107231" lon="12.784828943940788"><ele>27.0</ele><time>2026-04-02T17:02:10Z</time></trkpt><trkpt lat="45.93691531981821" lon="12.784648377922267"><ele>26.25</ele><time>2026-04-02T17:02:11Z</time></trkpt><trkpt lat="45.936916902473385" lon="12.784464855900065"><ele>25.5</ele><time>2026-04-02T17:02:12Z</time></trkpt><trkpt lat="45.93692790773469" lon="12.784283915594411"><ele>24.75</ele><time>2026-04-02T17:02:13Z</time></trkpt><trkpt lat="45.93694203614726" lon="12.784077645955431"><ele>24.0</ele><time>2026-04-02T17:02:14Z</time></trkpt><trkpt lat="45.936958393627485" lon="12.783866807818072"><ele>24.0</ele><time>2026-04-02T17:02:15Z</time></trkpt><trkpt lat="45.936975706646166" lon="12.78364577881299"><ele>24.0</ele><time>2026-04-02T17:02:16Z</time></trkpt><trkpt lat="45.93699321842005" lon="12.783433499327115"><ele>24.0</ele><time>2026-04-02T17:02:17Z</time></trkpt><trkpt lat="45.937014163194576" lon="12.783238560307767"><ele>24.0</ele><time>2026-04-02T17:02:18Z</time></trkpt><trkpt lat="45.937024844263675" lon="12.783070204869546"><ele>24.0</ele><time>2026-04-02T17:02:19Z</time></trkpt><trkpt lat="45.93704514168892" lon="12.782917151883181"><ele>24.0</ele><time>2026-04-02T17:02:20Z</time></trkpt><trkpt lat="45.93706114315337" lon="12.782757293355207"><ele>24.0</ele><time>2026-04-02T17:02:21Z</time></trkpt><trkpt lat="45.93706965875348" lon="12.782620783787936"><ele>24.0</ele><time>2026-04-02T17:02:22Z</time></trkpt><trkpt lat="45.93707519951729" lon="12.782480766242658"><ele>24.0</ele><time>2026-04-02T17:02:23Z</time></trkpt><trkpt lat="45.93709332434296" lon="12.782348232784493"><ele>23.833333333333332</ele><time>2026-04-02T17:02:25Z</time></trkpt><trkpt lat="45.93715532902599" lon="12.782321340777939"><ele>23.666666666666668</ele><time>2026-04-02T17:02:27Z</time></trkpt><trkpt lat="45.93725486579601" lon="12.782351247087881"><ele>23.5</ele><time>2026-04-02T17:02:29Z</time></trkpt><trkpt lat="45.937348095654784" lon="12.78230218533103"><ele>23.333333333333336</ele><time>2026-04-02T17:02:31Z</time></trkpt><trkpt lat="45.93738546304614" lon="12.782224976184436"><ele>23.166666666666668</ele><time>2026-04-02T17:02:32Z</time></trkpt><trkpt lat="45.93742428145318" lon="12.782131977172842"><ele>23.0</ele><time>2026-04-02T17:02:33Z</time></trkpt><trkpt lat="45.93746321407056" lon="12.782052885581582"><ele>23.0</ele><time>2026-04-02T17:02:34Z</time></trkpt><trkpt lat="45.93753463989013" lon="12.781934389718923"><ele>23.0</ele><time>2026-04-02T17:02:36Z</time></trkpt><trkpt lat="45.93758309404996" lon="12.781855804059575"><ele>23.0</ele><time>2026-04-02T17:02:38Z</time></trkpt><trkpt lat="45.9376168433038" lon="12.781766187970348"><ele>23.0</ele><time>2026-04-02T17:02:54Z</time></trkpt><trkpt lat="45.937740738671685" lon="12.781780040441477"><ele>23.0</ele><time>2026-04-02T17:02:56Z</time></trkpt><trkpt lat="45.937815813426745" lon="12.781808445457438"><ele>23.0</ele><time>2026-04-02T17:02:57Z</time></trkpt><trkpt lat="45.93790400019605" lon="12.781846949332026"><ele>23.0</ele><time>2026-04-02T17:02:58Z</time></trkpt><trkpt lat="45.93799837257862" lon="12.781879194165494"><ele>23.0</ele><time>2026-04-02T17:02:59Z</time></trkpt><trkpt lat="45.93809369995486" lon="12.781909400234127"><ele>23.0</ele><time>2026-04-02T17:03:00Z</time></trkpt><trkpt lat="45.93818046516916" lon="12.78193406788414"><ele>23.0</ele><time>2026-04-02T17:03:01Z</time></trkpt><trkpt lat="45.93828695769739" lon="12.7819728942953"><ele>23.0</ele><time>2026-04-02T17:03:02Z</time></trkpt><trkpt lat="45.938371749956836" lon="12.781990727947226"><ele>23.0</ele><time>2026-04-02T17:03:03Z</time></trkpt><trkpt lat="45.93847525427033" lon="12.782070105819802"><ele>23.0</ele><time>2026-04-02T17:03:04Z</time></trkpt><trkpt lat="45.938537041607646" lon="12.78217269238568"><ele>23.0</ele><time>2026-04-02T17:03:05Z</time></trkpt><trkpt lat="45.93860617865306" lon="12.782255358108777"><ele>23.0</ele><time>2026-04-02T17:03:06Z</time></trkpt><trkpt lat="45.93870386685998" lon="12.782391190122059"><ele>23.0</ele><time>2026-04-02T17:03:07Z</time></trkpt><trkpt lat="45.93876362651937" lon="12.782516015684168"><ele>23.0</ele><time>2026-04-02T17:03:08Z</time></trkpt><trkpt lat="45.938870834367435" lon="12.782697366009229"><ele>23.0</ele><time>2026-04-02T17:03:09Z</time></trkpt><trkpt lat="45.93898339369278" lon="12.782876111902752"><ele>23.0</ele><time>2026-04-02T17:03:10Z</time></trkpt><trkpt lat="45.9391022617915" lon="12.78305963009332"><ele>23.333333333333336</ele><time>2026-04-02T17:03:11Z</time></trkpt><trkpt lat="45.93922467924312" lon="12.78325571326136"><ele>23.666666666666668</ele><time>2026-04-02T17:03:12Z</time></trkpt><trkpt lat="45.93936201977642" lon="12.78347446984841"><ele>24.0</ele><time>2026-04-02T17:03:13Z</time></trkpt><trkpt lat="45.93948659402482" lon="12.783702536899149"><ele>24.333333333333336</ele><time>2026-04-02T17:03:14Z</time></trkpt><trkpt lat="45.939616285448324" lon="12.783920457135673"><ele>24.666666666666668</ele><time>2026-04-02T17:03:15Z</time></trkpt><trkpt lat="45.93973490570266" lon="12.784175355170873"><ele>25.0</ele><time>2026-04-02T17:03:16Z</time></trkpt><trkpt lat="45.93987232385864" lon="12.784431145062902"><ele>24.666666666666668</ele><time>2026-04-02T17:03:17Z</time></trkpt><trkpt lat="45.94001158973494" lon="12.784684721816063"><ele>24.333333333333336</ele><time>2026-04-02T17:03:18Z</time></trkpt><trkpt lat="45.94013346484302" lon="12.784901898150077"><ele>24.0</ele><time>2026-04-02T17:03:19Z</time></trkpt><trkpt lat="45.94024082243684" lon="12.785098327238632"><ele>24.333333333333336</ele><time>2026-04-02T17:03:20Z</time></trkpt><trkpt lat="45.940345779854084" lon="12.785287538682088"><ele>24.666666666666668</ele><time>2026-04-02T17:03:21Z</time></trkpt><trkpt lat="45.9404518386016" lon="12.785485306415156"><ele>25.0</ele><time>2026-04-02T17:03:22Z</time></trkpt><trkpt lat="45.940560339016365" lon="12.785671043689717"><ele>25.0</ele><time>2026-04-02T17:03:23Z</time></trkpt><trkpt lat="45.94068323976166" lon="12.785882476456782"><ele>25.0</ele><time>2026-04-02T17:03:24Z</time></trkpt><trkpt lat="45.94082834762141" lon="12.78611256086754"><ele>25.0</ele><time>2026-04-02T17:03:25Z</time></trkpt><trkpt lat="45.94096476121493" lon="12.786362318687921"><ele>25.0</ele><time>2026-04-02T17:03:26Z</time></trkpt><trkpt lat="45.9410841463988" lon="12.78656672844186"><ele>25.0</ele><time>2026-04-02T17:03:27Z</time></trkpt><trkpt lat="45.94121430213137" lon="12.786792971461047"><ele>25.0</ele><time>2026-04-02T17:03:28Z</time></trkpt><trkpt lat="45.941346832494546" lon="12.78703168730401"><ele>25.0</ele><time>2026-04-02T17:03:29Z</time></trkpt><trkpt lat="45.941467128192286" lon="12.78724615324591"><ele>25.0</ele><time>2026-04-02T17:03:30Z</time></trkpt><trkpt lat="45.94158380945416" lon="12.787460959710579"><ele>25.0</ele><time>2026-04-02T17:03:31Z</time></trkpt><trkpt lat="45.94170547555929" lon="12.787687580856485"><ele>25.5</ele><time>2026-04-02T17:03:32Z</time></trkpt><trkpt lat="45.941839839463796" lon="12.787930247639729"><ele>26.0</ele><time>2026-04-02T17:03:33Z</time></trkpt><trkpt lat="45.94198748941017" lon="12.788193298778827"><ele>26.0</ele><time>2026-04-02T17:03:34Z</time></trkpt><trkpt lat="45.942129937262294" lon="12.78845390743281"><ele>26.0</ele><time>2026-04-02T17:03:35Z</time></trkpt><trkpt lat="45.9422687805685" lon="12.788712145603816"><ele>26.0</ele><time>2026-04-02T17:03:36Z</time></trkpt><trkpt lat="45.942394718641" lon="12.788952301641116"><ele>26.0</ele><time>2026-04-02T17:03:37Z</time></trkpt><trkpt lat="45.94250857361316" lon="12.789170380522538"><ele>26.0</ele><time>2026-04-02T17:03:38Z</time></trkpt><trkpt lat="45.9426162278969" lon="12.789371056492424"><ele>26.333333333333332</ele><time>2026-04-02T17:03:39Z</time></trkpt><trkpt lat="45.94271741494413" lon="12.789557001089664"><ele>26.666666666666664</ele><time>2026-04-02T17:03:40Z</time></trkpt><trkpt lat="45.94281595199707" lon="12.789739462594527"><ele>27.0</ele><time>2026-04-02T17:03:41Z</time></trkpt><trkpt lat="45.9428956911903" lon="12.7898884019"><ele>27.0</ele><time>2026-04-02T17:03:42Z</time></trkpt><trkpt lat="45.94297817511342" lon="12.790042467910931"><ele>27.000000000000004</ele><time>2026-04-02T17:03:43Z</time></trkpt><trkpt lat="45.94304577211752" lon="12.790165832467546"><ele>27.000000000000004</ele><time>2026-04-02T17:03:44Z</time></trkpt><trkpt lat="45.9430931786088" lon="12.790250465803224"><ele>27.0</ele><time>2026-04-02T17:03:45Z</time></trkpt><trkpt lat="45.94314628541857" lon="12.790345275558945"><ele>27.0</ele><time>2026-04-02T17:03:47Z</time></trkpt><trkpt lat="45.943066571526316" lon="12.79044363007538"><ele>27.0</ele><time>2026-04-02T17:03:50Z</time></trkpt><trkpt lat="45.94300572765932" lon="12.79051312928045"><ele>27.000000000000004</ele><time>2026-04-02T17:03:51Z</time></trkpt><trkpt lat="45.94293568333792" lon="12.790610239458438"><ele>27.000000000000004</ele><time>2026-04-02T17:03:52Z</time></trkpt><trkpt lat="45.94285445617399" lon="12.79071938786529"><ele>27.0</ele><time>2026-04-02T17:03:53Z</time></trkpt><trkpt lat="45.942758859854315" lon="12.790859394114587"><ele>27.0</ele><time>2026-04-02T17:03:54Z</time></trkpt><trkpt lat="45.94265798319283" lon="12.79101319958154"><ele>27.0</ele><time>2026-04-02T17:03:55Z</time></trkpt><trkpt lat="45.94256038977949" lon="12.791147959553433"><ele>27.0</ele><time>2026-04-02T17:03:56Z</time></trkpt><trkpt lat="45.94247373226896" lon="12.791261375628054"><ele>27.0</ele><time>2026-04-02T17:03:57Z</time></trkpt><trkpt lat="45.94239372978119" lon="12.791364721345241"><ele>27.0</ele><time>2026-04-02T17:03:58Z</time></trkpt><trkpt lat="45.94232633224326" lon="12.791457564583515"><ele>26.0</ele><time>2026-04-02T17:03:59Z</time></trkpt><trkpt lat="45.942261022987324" lon="12.791539052650506"><ele>26.0</ele><time>2026-04-02T17:04:00Z</time></trkpt><trkpt lat="45.94220839141479" lon="12.791603005922452"><ele>26.0</ele><time>2026-04-02T17:04:01Z</time></trkpt><trkpt lat="45.94211634997627" lon="12.791684984596426"><ele>26.0</ele><time>2026-04-02T17:04:03Z</time></trkpt><trkpt lat="45.94205472529935" lon="12.791725789186701"><ele>26.0</ele><time>2026-04-02T17:04:05Z</time></trkpt><trkpt lat="45.94200291553587" lon="12.79178505090276"><ele>26.0</ele><time>2026-04-02T17:04:08Z</time></trkpt></trkseg></trk></gpx>